
Distance (Route):
Temperature : 17.4°C
Humidity : 64.1%
Pressure : 0hPa| Receiver | Frames | First received | Last received |
|---|---|---|---|
| OE3MUC-15 | 806 | 2026-09-05 23:33:48 | 2026-09-06 01:26:25 |
| PETON7-10 | 422 | 2026-09-05 23:32:41 | 2026-09-06 01:47:31 |
| OM5KV | 418 | 2026-09-06 01:15:35 | 2026-09-06 01:52:47 |
| PG1ADW-2 | 265 | 2026-09-05 23:41:25 | 2026-09-06 01:42:26 |
| HA6NAB-11 | 247 | 2026-09-05 23:51:23 | 2026-09-06 01:50:11 |
| OE5DRO-10 | 207 | 2026-09-05 23:38:50 | 2026-09-06 01:38:19 |
| OE3OSB-13 | 188 | 2026-09-05 23:35:23 | 2026-09-06 01:50:01 |
| DO3MHA-11 | 185 | 2026-09-06 00:27:12 | 2026-09-06 01:30:51 |
| OE5DXL-15 | 145 | 2026-09-06 00:01:32 | 2026-09-06 01:34:08 |
| OE5MMP-10 | 123 | 2026-09-06 00:52:28 | 2026-09-06 01:27:43 |
| S52SK | 107 | 2026-09-05 23:40:21 | 2026-09-06 01:44:23 |
| OE3JTB-15 | 92 | 2026-09-05 23:30:59 | 2026-09-06 01:46:27 |
| DO3MHA-12 | 45 | 2026-09-06 00:41:12 | 2026-09-06 01:29:42 |
| SP9KGR-15 | 42 | 2026-09-06 01:04:59 | 2026-09-06 01:28:17 |
| GYPAP8-17 | 32 | 2026-09-06 00:31:31 | 2026-09-06 01:36:50 |
| OE5WHR-10 | 7 | 2026-09-06 00:00:12 | 2026-09-06 00:11:49 |
| 9A1FER-3 | 7 | 2026-09-06 01:24:34 | 2026-09-06 01:33:21 |
| LZ4TU-5 | 6 | 2026-09-06 01:16:50 | 2026-09-06 01:23:30 |
| S57NTA-12 | 5 | 2026-09-06 00:58:07 | 2026-09-06 01:00:19 |
| SONDE2-11 | 5 | 2026-09-06 01:18:55 | 2026-09-06 01:23:34 |
| SQ9EZE-14 | 4 | 2026-09-06 01:12:12 | 2026-09-06 01:23:04 |
| OK1ALN | 4 | 2026-09-06 01:20:52 | 2026-09-06 01:22:44 |
| C-15 | 1 | 2026-09-06 00:02:00 | 2026-09-06 00:02:00 |
| DB0NH | 1 | 2026-09-06 01:26:08 | 2026-09-06 01:26:08 |
| Receiver | Date | Latitude | Longitude | Direction | Speed | Altitude | Climb | Temperature | Humidity | Pressure | Voltage | Killtimer | Uptime | BKT | XDATA |
|---|---|---|---|---|---|---|---|---|---|---|---|---|---|---|---|
| OM5KV | 2026-09-06 01:52:47 | 47.42019 | 18.29297 | 146° | 18km/h | 375m | -8.5m/s | 17.4°C | 64.1% | 0hPa | 2.5V | 08:01:00 | 00:00:00 | 00:00:00 | |
| OM5KV | 2026-09-06 01:52:45 | 47.42027 | 18.29288 | 146° | 20km/h | 391m | -8.7m/s | 17.4°C | 63.5% | 0hPa | 2.5V | 08:01:00 | 00:00:00 | 00:00:00 | |
| OM5KV | 2026-09-06 01:52:45 | 47.42031 | 18.29284 | 149° | 20km/h | 399m | -9.1m/s | 17.4°C | 63.2% | 0hPa | 2.5V | 08:01:00 | 00:00:00 | 00:00:00 | |
| OM5KV | 2026-09-06 01:52:42 | 47.42041 | 18.29274 | 148° | 26km/h | 416m | -10.2m/s | 17.7°C | 59.8% | 0hPa | 2.5V | 08:01:00 | 00:00:00 | 00:00:00 | |
| OM5KV | 2026-09-06 01:52:39 | 47.42060 | 18.29258 | 152° | 31km/h | 447m | -11.5m/s | 17.5°C | 60.6% | 0hPa | 2.5V | 08:01:00 | 00:00:00 | 00:00:00 | |
| OM5KV | 2026-09-06 01:52:36 | 47.42083 | 18.29242 | 154° | 35km/h | 478m | -10.9m/s | 18.0°C | 54.5% | 0hPa | 2.5V | 08:01:00 | 00:00:00 | 00:00:00 | |
| OM5KV | 2026-09-06 01:52:27 | 47.42159 | 18.29202 | 165° | 37km/h | 574m | -11.6m/s | 17.6°C | 49.9% | 0hPa | 2.5V | 08:01:00 | 00:00:00 | 00:00:00 | |
| OM5KV | 2026-09-06 01:52:26 | 47.42168 | 18.29198 | 167° | 37km/h | 585m | -11.5m/s | 17.5°C | 49.7% | 0hPa | 2.5V | 08:01:00 | 00:00:00 | 00:00:00 | |
| OM5KV | 2026-09-06 01:52:24 | 47.42186 | 18.29192 | 170° | 35km/h | 606m | -11.3m/s | 17.4°C | 48.7% | 0hPa | 2.5V | 08:01:00 | 00:00:00 | 00:00:00 | |
| OM5KV | 2026-09-06 01:52:21 | 47.42213 | 18.29182 | 166° | 37km/h | 639m | -11.6m/s | 17.1°C | 49.0% | 0hPa | 2.5V | 08:01:00 | 00:00:00 | 00:00:00 | |
| OM5KV | 2026-09-06 01:52:16 | 47.42262 | 18.29167 | 165° | 40km/h | 696m | -11.4m/s | 16.7°C | 48.1% | 0hPa | 2.5V | 08:01:00 | 00:00:00 | 00:00:00 | |
| OM5KV | 2026-09-06 01:52:15 | 47.42272 | 18.29164 | 169° | 37km/h | 707m | -11.5m/s | 16.5°C | 48.4% | 0hPa | 2.5V | 08:01:00 | 00:00:00 | 00:00:00 | |
| OM5KV | 2026-09-06 01:52:04 | 47.42374 | 18.29126 | 169° | 40km/h | 829m | -12.1m/s | 15.4°C | 51.3% | 0hPa | 2.5V | 08:01:00 | 00:00:00 | 00:00:00 | |
| OM5KV | 2026-09-06 01:52:01 | 47.42402 | 18.29114 | 165° | 37km/h | 863m | -11.8m/s | 15.1°C | 51.9% | 0hPa | 2.5V | 08:01:00 | 00:00:00 | 00:00:00 | |
| OM5KV | 2026-09-06 01:51:57 | 47.42439 | 18.29095 | 163° | 38km/h | 908m | -11.2m/s | 14.8°C | 52.2% | 0hPa | 2.5V | 08:02:00 | 00:00:00 | 00:00:00 | |
| OM5KV | 2026-09-06 01:51:56 | 47.42448 | 18.29090 | 158° | 40km/h | 918m | -11.5m/s | 14.7°C | 52.4% | 0hPa | 2.5V | 08:02:00 | 00:00:00 | 00:00:00 | |
| OM5KV | 2026-09-06 01:51:55 | 47.42458 | 18.29084 | 160° | 38km/h | 929m | -11.6m/s | 14.6°C | 52.5% | 0hPa | 2.5V | 08:02:00 | 00:00:00 | 00:00:00 | |
| OM5KV | 2026-09-06 01:51:50 | 47.42506 | 18.29054 | 158° | 42km/h | 984m | -11.6m/s | 14.2°C | 53.6% | 0hPa | 2.5V | 08:02:00 | 00:00:00 | 00:00:00 | |
| OM5KV | 2026-09-06 01:51:49 | 47.42515 | 18.29047 | 157° | 42km/h | 995m | -11.6m/s | 14.1°C | 53.9% | 0hPa | 2.5V | 08:02:00 | 00:00:00 | 00:00:00 | |
| OM5KV | 2026-09-06 01:51:46 | 47.42555 | 18.29019 | 158° | 46km/h | 1038m | -11.8m/s | 13.7°C | 55.1% | 0hPa | 2.5V | 08:02:00 | 00:00:00 | 00:00:00 | |
| OM5KV | 2026-09-06 01:51:44 | 47.42565 | 18.29012 | 156° | 44km/h | 1049m | -11.3m/s | 13.6°C | 55.4% | 0hPa | 2.5V | 08:02:00 | 00:00:00 | 00:00:00 | |
| OM5KV | 2026-09-06 01:51:39 | 47.42627 | 18.28964 | 151° | 47km/h | 1113m | -11.3m/s | 13.0°C | 57.2% | 0hPa | 2.5V | 08:02:00 | 00:00:00 | 00:00:00 | |
| OM5KV | 2026-09-06 01:51:38 | 47.42627 | 18.28964 | 151° | 47km/h | 1113m | -11.3m/s | 13.0°C | 57.2% | 0hPa | 2.5V | 08:02:00 | 00:00:00 | 00:00:00 | |
| OM5KV | 2026-09-06 01:51:37 | 47.42637 | 18.28956 | 153° | 46km/h | 1124m | -11.4m/s | 12.9°C | 57.5% | 0hPa | 2.5V | 08:02:00 | 00:00:00 | 00:00:00 | |
| OM5KV | 2026-09-06 01:51:33 | 47.42690 | 18.28914 | 156° | 51km/h | 1179m | -12.3m/s | 12.5°C | 58.6% | 0hPa | 2.5V | 08:02:00 | 00:00:00 | 00:00:00 | |
| OM5KV | 2026-09-06 01:51:26 | 47.42756 | 18.28862 | 153° | 47km/h | 1248m | -11.4m/s | 11.8°C | 58.8% | 0hPa | 2.5V | 08:02:00 | 00:00:00 | 00:00:00 | |
| OM5KV | 2026-09-06 01:51:21 | 47.42813 | 18.28815 | 153° | 49km/h | 1303m | -11.1m/s | 11.5°C | 58.2% | 0hPa | 2.5V | 08:02:00 | 00:00:00 | 00:00:00 | |
| OM5KV | 2026-09-06 01:51:20 | 47.42823 | 18.28805 | 148° | 51km/h | 1313m | -11.4m/s | 11.4°C | 58.5% | 0hPa | 2.5V | 08:02:00 | 00:00:00 | 00:00:00 | |
| OM5KV | 2026-09-06 01:51:19 | 47.42834 | 18.28795 | 151° | 51km/h | 1324m | -12.5m/s | 11.3°C | 59.1% | 0hPa | 2.5V | 08:02:00 | 00:00:00 | 00:00:00 | |
| OM5KV | 2026-09-06 01:51:14 | 47.42887 | 18.28744 | 149° | 51km/h | 1380m | -12.1m/s | 10.9°C | 61.4% | 0hPa | 2.5V | 08:02:00 | 00:00:00 | 00:00:00 | |
| OM5KV | 2026-09-06 01:51:13 | 47.42897 | 18.28734 | 144° | 46km/h | 1391m | -11.8m/s | 10.8°C | 61.5% | 0hPa | 2.5V | 08:02:00 | 00:00:00 | 00:00:00 | |
| OM5KV | 2026-09-06 01:51:08 | 47.42949 | 18.28679 | 143° | 49km/h | 1447m | -11.3m/s | 10.4°C | 59.4% | 0hPa | 2.5V | 08:02:00 | 00:00:00 | 00:00:00 | |
| OM5KV | 2026-09-06 01:51:02 | 47.43013 | 18.28606 | 141° | 51km/h | 1514m | -12.1m/s | 9.9°C | 60.8% | 0hPa | 2.5V | 08:03:00 | 00:00:00 | 00:00:00 | |
| OM5KV | 2026-09-06 01:51:02 | 47.43013 | 18.28606 | 141° | 51km/h | 1514m | -12.1m/s | 9.9°C | 60.8% | 0hPa | 2.5V | 08:03:00 | 00:00:00 | 00:00:00 | |
| OM5KV | 2026-09-06 01:50:57 | 47.43065 | 18.28541 | 141° | 55km/h | 1572m | -12.9m/s | 9.5°C | 66.4% | 0hPa | 2.5V | 08:03:00 | 00:00:00 | 00:00:00 | |
| OM5KV | 2026-09-06 01:50:54 | 47.43095 | 18.28502 | 139° | 49km/h | 1608m | -11.4m/s | 9.2°C | 67.7% | 0hPa | 2.5V | 08:03:00 | 00:00:00 | 00:00:00 | |
| OM5KV | 2026-09-06 01:50:46 | 47.43173 | 18.28395 | 140° | 55km/h | 1698m | -12.0m/s | 8.6°C | 70.0% | 0hPa | 2.5V | 08:03:00 | 00:00:00 | 00:00:00 | |
| OM5KV | 2026-09-06 01:50:43 | 47.43203 | 18.28353 | 140° | 55km/h | 1732m | -12.0m/s | 8.3°C | 71.2% | 0hPa | 2.5V | 08:03:00 | 00:00:00 | 00:00:00 | |
| OM5KV | 2026-09-06 01:50:34 | 47.43297 | 18.28222 | 136° | 57km/h | 1836m | -12.5m/s | 7.3°C | 73.7% | 0hPa | 2.5V | 08:03:00 | 00:00:00 | 00:00:00 | |
| OM5KV | 2026-09-06 01:50:31 | 47.43330 | 18.28176 | 137° | 58km/h | 1872m | -11.9m/s | 7.0°C | 75.3% | 0hPa | 2.5V | 08:03:00 | 00:00:00 | 00:00:00 | |
| OM5KV | 2026-09-06 01:50:28 | 47.43364 | 18.28129 | 139° | 64km/h | 1906m | -12.1m/s | 6.7°C | 75.8% | 0hPa | 2.5V | 08:03:00 | 00:00:00 | 00:00:00 | |
| OM5KV | 2026-09-06 01:50:23 | 47.43423 | 18.28047 | 137° | 60km/h | 1964m | -11.6m/s | 6.2°C | 77.2% | 0hPa | 2.5V | 08:03:00 | 00:00:00 | 00:00:00 | |
| OM5KV | 2026-09-06 01:50:22 | 47.43434 | 18.28030 | 136° | 66km/h | 1975m | -11.8m/s | 6.1°C | 76.9% | 0hPa | 2.5V | 08:03:00 | 00:00:00 | 00:00:00 | |
| OM5KV | 2026-09-06 01:50:19 | 47.43468 | 18.27979 | 136° | 64km/h | 2008m | -11.5m/s | 5.8°C | 77.9% | 0hPa | 2.5V | 08:03:00 | 00:00:00 | 00:00:00 | |
| OM5KV | 2026-09-06 01:50:16 | 47.43504 | 18.27929 | 135° | 66km/h | 2044m | -12.2m/s | 5.4°C | 79.8% | 0hPa | 2.5V | 08:03:00 | 00:00:00 | 00:00:00 | |
| OM5KV | 2026-09-06 01:50:15 | 47.43516 | 18.27912 | 139° | 66km/h | 2056m | -12.5m/s | 5.3°C | 79.8% | 0hPa | 2.5V | 08:04:00 | 00:00:00 | 00:00:00 | |
| OM5KV | 2026-09-06 01:50:14 | 47.43528 | 18.27895 | 137° | 62km/h | 2067m | -11.8m/s | 5.2°C | 80.4% | 0hPa | 2.5V | 08:04:00 | 00:00:00 | 00:00:00 | |
| HA6NAB-11 | 2026-09-06 01:50:11 | 47.43563 | 18.27844 | 136° | 64km/h | 2102m | -11.9m/s | 4.9°C | 81.5% | 0hPa | 2.5V | 00:00:00 | 00:00:00 | 00:00:00 | |
| OM5KV | 2026-09-06 01:50:09 | 47.43587 | 18.27809 | 138° | 68km/h | 2124m | -12.5m/s | 4.6°C | 82.8% | 0hPa | 2.5V | 08:04:00 | 00:00:00 | 00:00:00 | |
| OM5KV | 2026-09-06 01:50:08 | 47.43599 | 18.27792 | 135° | 62km/h | 2136m | -11.6m/s | 4.5°C | 82.8% | 0hPa | 2.5V | 08:04:00 | 00:00:00 | 00:00:00 | |
| HA6NAB-11 | 2026-09-06 01:50:05 | 47.43635 | 18.27739 | 135° | 66km/h | 2170m | -11.2m/s | 4.3°C | 81.3% | 0hPa | 2.5V | 00:00:00 | 00:00:00 | 00:00:00 | |
| OM5KV | 2026-09-06 01:50:04 | 47.43647 | 18.27720 | 135° | 69km/h | 2180m | -11.4m/s | 4.3°C | 79.6% | 0hPa | 2.5V | 08:04:00 | 00:00:00 | 00:00:00 | |
| OM5KV | 2026-09-06 01:50:03 | 47.43659 | 18.27702 | 136° | 71km/h | 2191m | -12.4m/s | 4.2°C | 78.1% | 0hPa | 2.5V | 08:04:00 | 00:00:00 | 00:00:00 | |
| OE3OSB-13 | 2026-09-06 01:50:01 | 47.43696 | 18.27644 | 133° | 73km/h | 2225m | -12.6m/s | 4.1°C | 73.8% | -1.0hPa | 2.5V | 00:00:00 | 00:00:00 | 00:00:00 | |
| HA6NAB-11 | 2026-09-06 01:49:59 | 47.43708 | 18.27624 | 132° | 73km/h | 2237m | -12.1m/s | 4.4°C | 61.4% | 0hPa | 2.5V | 00:00:00 | 00:00:00 | 00:00:00 | |
| OM5KV | 2026-09-06 01:49:57 | 47.43733 | 18.27581 | 133° | 75km/h | 2258m | -11.9m/s | 4.4°C | 57.2% | 0hPa | 2.5V | 08:04:00 | 00:00:00 | 00:00:00 | |
| HA6NAB-11 | 2026-09-06 01:49:54 | 47.43771 | 18.27517 | 129° | 75km/h | 2292m | -12.5m/s | 4.3°C | 53.8% | 0hPa | 2.5V | 00:00:00 | 00:00:00 | 00:00:00 | |
| OM5KV | 2026-09-06 01:49:52 | 47.43794 | 18.27469 | 128° | 80km/h | 2315m | -12.9m/s | 4.3°C | 50.8% | 0hPa | 2.5V | 08:04:00 | 00:00:00 | 00:00:00 | |
| HA6NAB-11 | 2026-09-06 01:49:48 | 47.43842 | 18.27370 | 125° | 82km/h | 2362m | -12.4m/s | 4.2°C | 50.5% | 0hPa | 2.5V | 00:00:00 | 00:00:00 | 00:00:00 | |
| OM5KV | 2026-09-06 01:49:47 | 47.43866 | 18.27318 | 125° | 80km/h | 2385m | -12.7m/s | 4.1°C | 52.1% | 0hPa | 2.5V | 08:04:00 | 00:00:00 | 00:00:00 | |
| HA6NAB-11 | 2026-09-06 01:49:42 | 47.43913 | 18.27214 | 126° | 84km/h | 2433m | -12.8m/s | 3.7°C | 54.4% | 0hPa | 2.5V | 00:00:00 | 00:00:00 | 00:00:00 | |
| OM5KV | 2026-09-06 01:49:38 | 47.43961 | 18.27106 | 123° | 89km/h | 2481m | -11.4m/s | 3.3°C | 58.0% | 0hPa | 2.5V | 08:04:00 | 00:00:00 | 00:00:00 | |
| OM5KV | 2026-09-06 01:49:35 | 47.43998 | 18.27022 | 126° | 91km/h | 2514m | -12.7m/s | 3.0°C | 60.4% | 0hPa | 2.5V | 08:04:00 | 00:00:00 | 00:00:00 | |
| OM5KV | 2026-09-06 01:49:32 | 47.44036 | 18.26938 | 125° | 93km/h | 2550m | -12.2m/s | 2.7°C | 63.1% | 0hPa | 2.5V | 08:04:00 | 00:00:00 | 00:00:00 | |
| OE3OSB-13 | 2026-09-06 01:49:30 | 47.44074 | 18.26850 | 123° | 93km/h | 2585m | -12.8m/s | 2.4°C | 70.1% | -1.0hPa | 2.5V | 00:00:00 | 00:00:00 | 00:00:00 | |
| OM5KV | 2026-09-06 01:49:29 | 47.44074 | 18.26851 | 125° | 93km/h | 2585m | -12.8m/s | 2.4°C | 70.1% | 0hPa | 2.5V | 08:04:00 | 00:00:00 | 00:00:00 | |
| OM5KV | 2026-09-06 01:49:26 | 47.44114 | 18.26763 | 124° | 91km/h | 2622m | -12.3m/s | 2.0°C | 73.1% | 0hPa | 2.5V | 08:04:00 | 00:00:00 | 00:00:00 | |
| OM5KV | 2026-09-06 01:49:23 | 47.44154 | 18.26673 | 123° | 93km/h | 2657m | -12.2m/s | 1.7°C | 81.2% | 0hPa | 2.5V | 08:04:00 | 00:00:00 | 00:00:00 | |
| OM5KV | 2026-09-06 01:49:20 | 47.44193 | 18.26582 | 124° | 95km/h | 2692m | -12.8m/s | 1.5°C | 83.3% | 0hPa | 2.5V | 08:04:00 | 00:00:00 | 00:00:00 | |
| OM5KV | 2026-09-06 01:49:12 | 47.44296 | 18.26342 | 123° | 95km/h | 2785m | -11.3m/s | 1.1°C | 70.2% | 0hPa | 2.5V | 08:04:00 | 00:00:00 | 00:00:00 | |
| OM5KV | 2026-09-06 01:49:10 | 47.44334 | 18.26256 | 123° | 91km/h | 2818m | -11.6m/s | 1.6°C | 41.8% | 0hPa | 2.5V | 08:04:00 | 00:00:00 | 00:00:00 | |
| HA6NAB-11 | 2026-09-06 01:49:07 | 47.44360 | 18.26200 | 123° | 86km/h | 2842m | -11.9m/s | 2.0°C | 20.7% | 0hPa | 2.5V | 00:00:00 | 00:00:00 | 00:00:00 | |
| OM5KV | 2026-09-06 01:49:06 | 47.44371 | 18.26173 | 124° | 89km/h | 2853m | -11.7m/s | 2.1°C | 18.9% | 0hPa | 2.5V | 08:04:00 | 00:00:00 | 00:00:00 | |
| OM5KV | 2026-09-06 01:49:05 | 47.44384 | 18.26145 | 126° | 91km/h | 2864m | -12.4m/s | 2.5°C | 20.2% | 0hPa | 2.5V | 08:04:00 | 00:00:00 | 00:00:00 | |
| OE3OSB-13 | 2026-09-06 01:48:59 | 47.44488 | 18.25920 | 124° | 89km/h | 2955m | -12.5m/s | 2.9°C | 22.5% | -1.0hPa | 2.5V | 00:00:00 | 00:00:00 | 00:00:00 | |
| OM5KV | 2026-09-06 01:48:56 | 47.44501 | 18.25891 | 123° | 91km/h | 2968m | -12.7m/s | 3.0°C | 24.3% | 0hPa | 2.5V | 08:04:00 | 00:00:00 | 00:00:00 | |
| HA6NAB-11 | 2026-09-06 01:48:55 | 47.44514 | 18.25862 | 123° | 95km/h | 2980m | -12.2m/s | 3.0°C | 25.2% | 0hPa | 2.5V | 00:00:00 | 00:00:00 | 00:00:00 | |
| OM5KV | 2026-09-06 01:48:53 | 47.44539 | 18.25803 | 122° | 91km/h | 3003m | -12.0m/s | 3.0°C | 22.9% | 0hPa | 2.5V | 08:04:00 | 00:00:00 | 00:00:00 | |
| HA6NAB-11 | 2026-09-06 01:48:50 | 47.44587 | 18.25686 | 123° | 91km/h | 3046m | -11.8m/s | 3.0°C | 19.4% | 0hPa | 2.5V | 00:00:00 | 00:00:00 | 00:00:00 | |
| OM5KV | 2026-09-06 01:48:48 | 47.44599 | 18.25658 | 121° | 88km/h | 3057m | -12.3m/s | 3.0°C | 18.1% | 0hPa | 2.5V | 08:04:00 | 00:00:00 | 00:00:00 | |
| OM5KV | 2026-09-06 01:48:45 | 47.44633 | 18.25571 | 122° | 86km/h | 3090m | -12.0m/s | 2.9°C | 15.7% | 0hPa | 2.5V | 08:04:00 | 00:00:00 | 00:00:00 | |
| HA6NAB-11 | 2026-09-06 01:48:43 | 47.44655 | 18.25514 | 122° | 89km/h | 3113m | -11.3m/s | 2.7°C | 20.1% | 0hPa | 2.5V | 00:00:00 | 00:00:00 | 00:00:00 | |
| OM5KV | 2026-09-06 01:48:41 | 47.44678 | 18.25458 | 120° | 84km/h | 3135m | -12.1m/s | 2.5°C | 21.0% | 0hPa | 2.5V | 08:04:00 | 00:00:00 | 00:00:00 | |
| OM5KV | 2026-09-06 01:48:40 | 47.44688 | 18.25429 | 120° | 88km/h | 3146m | -11.8m/s | 2.4°C | 21.5% | 0hPa | 2.5V | 08:04:00 | 00:00:00 | 00:00:00 | |
| OM5KV | 2026-09-06 01:48:37 | 47.44722 | 18.25345 | 120° | 88km/h | 3179m | -11.4m/s | 2.1°C | 21.3% | 0hPa | 2.5V | 08:04:00 | 00:00:00 | 00:00:00 | |
| OM5KV | 2026-09-06 01:48:34 | 47.44756 | 18.25259 | 120° | 88km/h | 3213m | -12.2m/s | 1.8°C | 21.3% | 0hPa | 2.5V | 08:04:00 | 00:00:00 | 00:00:00 | |
| OM5KV | 2026-09-06 01:48:31 | 47.44789 | 18.25173 | 120° | 89km/h | 3247m | -11.0m/s | 1.4°C | 26.8% | 0hPa | 2.5V | 08:05:00 | 00:00:00 | 00:00:00 | |
| OM5KV | 2026-09-06 01:48:28 | 47.44823 | 18.25086 | 120° | 86km/h | 3281m | -12.2m/s | 1.2°C | 26.3% | 0hPa | 2.5V | 08:05:00 | 00:00:00 | 00:00:00 | |
| OM5KV | 2026-09-06 01:48:25 | 47.44855 | 18.25000 | 120° | 86km/h | 3316m | -11.5m/s | 0.9°C | 26.4% | 0hPa | 2.5V | 08:05:00 | 00:00:00 | 00:00:00 | |
| OM5KV | 2026-09-06 01:48:24 | 47.44867 | 18.24971 | 121° | 89km/h | 3326m | -10.8m/s | 0.8°C | 26.2% | 0hPa | 2.5V | 08:05:00 | 00:00:00 | 00:00:00 | |
| OM5KV | 2026-09-06 01:48:21 | 47.44900 | 18.24884 | 122° | 89km/h | 3359m | -13.1m/s | 0.6°C | 26.0% | 0hPa | 2.5V | 08:05:00 | 00:00:00 | 00:00:00 | |
| OM5KV | 2026-09-06 01:48:18 | 47.44932 | 18.24795 | 120° | 91km/h | 3393m | -12.0m/s | 0.4°C | 23.1% | 0hPa | 2.5V | 08:05:00 | 00:00:00 | 00:00:00 | |
| OM5KV | 2026-09-06 01:48:15 | 47.44966 | 18.24705 | 122° | 91km/h | 3426m | -11.6m/s | 0.3°C | 22.9% | 0hPa | 2.5V | 08:05:00 | 00:00:00 | 00:00:00 | |
| OM5KV | 2026-09-06 01:48:13 | 47.44989 | 18.24647 | 121° | 91km/h | 3448m | -11.4m/s | 0.1°C | 22.8% | 0hPa | 2.5V | 08:05:00 | 00:00:00 | 00:00:00 | |
| OM5KV | 2026-09-06 01:48:11 | 47.45014 | 18.24586 | 122° | 93km/h | 3470m | -11.9m/s | -0.0°C | 22.8% | 0hPa | 2.5V | 08:05:00 | 00:00:00 | 00:00:00 | |
| OM5KV | 2026-09-06 01:48:10 | 47.45026 | 18.24556 | 121° | 93km/h | 3481m | -12.2m/s | -0.1°C | 22.7% | 0hPa | 2.5V | 08:05:00 | 00:00:00 | 00:00:00 | |
| OM5KV | 2026-09-06 01:48:06 | 47.45088 | 18.24402 | 123° | 99km/h | 3536m | -12.4m/s | -0.4°C | 23.1% | 0hPa | 2.5V | 08:05:00 | 00:00:00 | 00:00:00 | |
| OE3OSB-13 | 2026-09-06 01:47:57 | 47.45206 | 18.24107 | 118° | 88km/h | 3644m | -11.3m/s | -0.1°C | 10.0% | -1.0hPa | 2.5V | 00:00:00 | 00:00:00 | 00:00:00 | |
| OM5KV | 2026-09-06 01:47:54 | 47.45217 | 18.24078 | 120° | 89km/h | 3655m | -11.1m/s | -0.1°C | 9.9% | 0hPa | 2.5V | 08:05:00 | 00:00:00 | 00:00:00 | |
| OM5KV | 2026-09-06 01:47:53 | 47.45228 | 18.24048 | 123° | 91km/h | 3664m | -11.2m/s | -0.1°C | 9.5% | 0hPa | 2.5V | 08:05:00 | 00:00:00 | 00:00:00 | |
| OM5KV | 2026-09-06 01:47:46 | 47.45303 | 18.23841 | 117° | 86km/h | 3738m | -11.5m/s | 0.5°C | 4.0% | 0hPa | 2.5V | 08:05:00 | 00:00:00 | 00:00:00 | |
| OM5KV | 2026-09-06 01:47:43 | 47.45333 | 18.23752 | 117° | 88km/h | 3771m | -11.7m/s | 0.4°C | 4.2% | 0hPa | 2.5V | 08:05:00 | 00:00:00 | 00:00:00 | |
| HA6NAB-11 | 2026-09-06 01:47:34 | 47.45429 | 18.23483 | 118° | 88km/h | 3867m | -11.1m/s | -0.0°C | 7.6% | 0hPa | 2.5V | 00:00:00 | 00:00:00 | 00:00:00 | |
| PETON7-10 | 2026-09-06 01:47:31 | 47.45472 | 18.23363 | 118° | 91km/h | 3909m | -11.5m/s | -0.1°C | 7.7% | 0hPa | 2.5V | 00:00:00 | 00:00:00 | 00:00:00 | |
| HA6NAB-11 | 2026-09-06 01:47:28 | 47.45494 | 18.23303 | 122° | 93km/h | 3930m | -12.0m/s | 0.1°C | 5.7% | 0hPa | 2.5V | 00:00:00 | 00:00:00 | 00:00:00 | |
| OM5KV | 2026-09-06 01:47:27 | 47.45506 | 18.23273 | 121° | 89km/h | 3941m | -11.7m/s | 0.0°C | 5.3% | 0hPa | 2.5V | 08:06:00 | 00:00:00 | 00:00:00 | |
| OE3OSB-13 | 2026-09-06 01:47:26 | 47.45540 | 18.23184 | 120° | 93km/h | 3973m | -11.8m/s | -0.0°C | 5.1% | -1.0hPa | 2.5V | 00:00:00 | 00:00:00 | 00:00:00 | |
| HA6NAB-11 | 2026-09-06 01:47:23 | 47.45552 | 18.23154 | 121° | 91km/h | 3985m | -12.0m/s | -0.0°C | 5.1% | 0hPa | 2.5V | 00:00:00 | 00:00:00 | 00:00:00 | |
| OM5KV | 2026-09-06 01:47:21 | 47.45575 | 18.23095 | 121° | 93km/h | 4007m | -12.6m/s | -0.0°C | 4.2% | 0hPa | 2.5V | 08:06:00 | 00:00:00 | 00:00:00 | |
| OM5KV | 2026-09-06 01:47:20 | 47.45587 | 18.23065 | 120° | 88km/h | 4018m | -11.9m/s | -0.1°C | 3.8% | 0hPa | 2.5V | 08:06:00 | 00:00:00 | 00:00:00 | |
| HA6NAB-11 | 2026-09-06 01:47:17 | 47.45621 | 18.22976 | 123° | 93km/h | 4051m | -12.3m/s | -0.4°C | 3.6% | 0hPa | 2.5V | 00:00:00 | 00:00:00 | 00:00:00 | |
| PETON7-10 | 2026-09-06 01:47:16 | 47.45645 | 18.22917 | 121° | 93km/h | 4073m | -11.8m/s | -0.5°C | 3.2% | 0hPa | 2.5V | 00:00:00 | 02:31:41 | 00:00:00 | |
| OM5KV | 2026-09-06 01:47:14 | 47.45656 | 18.22888 | 123° | 93km/h | 4083m | -11.7m/s | -0.6°C | 2.5% | 0hPa | 2.5V | 08:06:00 | 00:00:00 | 00:00:00 | |
| HA6NAB-11 | 2026-09-06 01:47:11 | 47.45693 | 18.22799 | 122° | 93km/h | 4115m | -11.1m/s | -0.6°C | 2.6% | 0hPa | 2.5V | 00:00:00 | 00:00:00 | 00:00:00 | |
| OM5KV | 2026-09-06 01:47:08 | 47.45729 | 18.22710 | 120° | 89km/h | 4148m | -11.8m/s | -0.8°C | 4.5% | 0hPa | 2.5V | 08:06:00 | 00:00:00 | 00:00:00 | |
| OM5KV | 2026-09-06 01:47:07 | 47.45741 | 18.22680 | 121° | 91km/h | 4159m | -11.6m/s | -0.9°C | 4.9% | 0hPa | 2.5V | 08:06:00 | 00:00:00 | 00:00:00 | |
| HA6NAB-11 | 2026-09-06 01:47:05 | 47.45764 | 18.22619 | 121° | 93km/h | 4181m | -12.0m/s | -1.0°C | 4.7% | 0hPa | 2.5V | 00:00:00 | 00:00:00 | 00:00:00 | |
| OE3OSB-13 | 2026-09-06 01:46:55 | 47.45903 | 18.22253 | 116° | 91km/h | 4308m | -11.3m/s | -1.6°C | 5.0% | -1.0hPa | 2.5V | 00:00:00 | 00:00:00 | 00:00:00 | |
| OM5KV | 2026-09-06 01:46:51 | 47.45924 | 18.22190 | 118° | 95km/h | 4331m | -12.2m/s | -1.6°C | 4.9% | 0hPa | 2.5V | 08:07:00 | 00:00:00 | 00:00:00 | |
| PETON7-10 | 2026-09-06 01:46:46 | 47.45988 | 18.22003 | 118° | 93km/h | 4397m | -12.6m/s | -1.7°C | 3.3% | 0hPa | 2.5V | 00:00:00 | 00:00:00 | 00:00:00 | |
| OM5KV | 2026-09-06 01:46:44 | 47.45998 | 18.21973 | 117° | 89km/h | 4409m | -11.9m/s | -1.9°C | 3.2% | 0hPa | 2.5V | 08:07:00 | 00:00:00 | 00:00:00 | |
| OM5KV | 2026-09-06 01:46:43 | 47.46008 | 18.21942 | 118° | 93km/h | 4420m | -11.8m/s | -1.9°C | 3.3% | 0hPa | 2.5V | 08:07:00 | 00:00:00 | 00:00:00 | |
| OM5KV | 2026-09-06 01:46:40 | 47.46041 | 18.21850 | 119° | 91km/h | 4454m | -11.4m/s | -2.2°C | 3.4% | 0hPa | 2.5V | 08:07:00 | 00:00:00 | 00:00:00 | |
| OM5KV | 2026-09-06 01:46:37 | 47.46075 | 18.21758 | 118° | 91km/h | 4487m | -12.1m/s | -2.3°C | 3.3% | 0hPa | 2.5V | 08:07:00 | 00:00:00 | 00:00:00 | |
| OM5KV | 2026-09-06 01:46:35 | 47.46097 | 18.21696 | 121° | 95km/h | 4510m | -12.2m/s | -2.5°C | 3.2% | 0hPa | 2.5V | 08:07:00 | 00:00:00 | 00:00:00 | |
| OM5KV | 2026-09-06 01:46:32 | 47.46132 | 18.21605 | 119° | 93km/h | 4545m | -12.3m/s | -2.7°C | 3.2% | 0hPa | 2.5V | 08:07:00 | 00:00:00 | 00:00:00 | |
| PETON7-10 | 2026-09-06 01:46:31 | 47.46154 | 18.21543 | 121° | 95km/h | 4568m | -12.5m/s | -2.8°C | 3.3% | 0hPa | 2.5V | 00:00:00 | 02:30:56 | 00:00:00 | |
| HA6NAB-11 | 2026-09-06 01:46:30 | 47.46154 | 18.21543 | 121° | 95km/h | 4568m | -12.5m/s | -2.8°C | 3.1% | 0hPa | 2.5V | 08:07:00 | 00:00:00 | 00:00:00 | |
| OM5KV | 2026-09-06 01:46:28 | 47.46177 | 18.21482 | 119° | 93km/h | 4592m | -11.9m/s | -2.9°C | 3.0% | 0hPa | 2.5V | 08:07:00 | 00:00:00 | 00:00:00 | |
| OE3JTB-15 | 2026-09-06 01:46:27 | 47.46199 | 18.21420 | 117° | 97km/h | 4614m | -10.3m/s | -2.9°C | 3.0% | 0hPa | 2.5V | 00:00:00 | 00:00:00 | 00:00:00 | |
| OM5KV | 2026-09-06 01:46:26 | 47.46199 | 18.21420 | 117° | 93km/h | 4614m | -10.3m/s | -3.0°C | 2.8% | 0hPa | 2.5V | 08:07:00 | 00:00:00 | 00:00:00 | |
| HA6NAB-11 | 2026-09-06 01:46:25 | 47.46210 | 18.21388 | 117° | 97km/h | 4624m | -11.4m/s | -3.0°C | 2.8% | 0hPa | 2.5V | 08:07:00 | 00:00:00 | 00:00:00 | |
| OE3OSB-13 | 2026-09-06 01:46:24 | 47.46243 | 18.21294 | 116° | 91km/h | 4658m | -12.1m/s | -2.9°C | 2.6% | -1.0hPa | 2.5V | 00:00:00 | 00:00:00 | 00:00:00 | |
| OM5KV | 2026-09-06 01:46:22 | 47.46242 | 18.21293 | 117° | 93km/h | 4659m | -12.1m/s | -2.9°C | 2.6% | 0hPa | 2.5V | 08:07:00 | 00:00:00 | 00:00:00 | |
| HA6NAB-11 | 2026-09-06 01:46:19 | 47.46275 | 18.21198 | 117° | 95km/h | 4691m | -12.0m/s | -3.0°C | 2.4% | 0hPa | 2.5V | 08:07:00 | 00:00:00 | 00:00:00 | |
| PETON7-10 | 2026-09-06 01:46:16 | 47.46318 | 18.21071 | 117° | 97km/h | 4736m | -12.1m/s | -3.1°C | 2.4% | 0hPa | 2.5V | 00:00:00 | 00:00:00 | 00:00:00 | |
| OM5KV | 2026-09-06 01:46:13 | 47.46340 | 18.21007 | 119° | 99km/h | 4760m | -12.7m/s | -3.2°C | 2.2% | 0hPa | 2.5V | 08:07:00 | 00:00:00 | 00:00:00 | |
| OM5KV | 2026-09-06 01:46:10 | 47.46373 | 18.20911 | 118° | 99km/h | 4795m | -11.1m/s | -3.3°C | 2.5% | 0hPa | 2.5V | 08:07:00 | 00:00:00 | 00:00:00 | |
| OM5KV | 2026-09-06 01:46:08 | 47.46395 | 18.20847 | 119° | 99km/h | 4817m | -12.2m/s | -3.4°C | 2.5% | 0hPa | 2.5V | 08:07:00 | 00:00:00 | 00:00:00 | |
| HA6NAB-11 | 2026-09-06 01:46:07 | 47.46407 | 18.20815 | 120° | 95km/h | 4829m | -12.6m/s | -3.4°C | 2.4% | 0hPa | 2.5V | 08:07:00 | 00:00:00 | 00:00:00 | |
| OM5KV | 2026-09-06 01:46:03 | 47.46452 | 18.20688 | 119° | 97km/h | 4875m | -11.9m/s | -3.5°C | 2.7% | 0hPa | 2.5V | 08:07:00 | 00:00:00 | 00:00:00 | |
| OM5KV | 2026-09-06 01:46:02 | 47.46464 | 18.20656 | 120° | 97km/h | 4886m | -12.8m/s | -3.6°C | 2.8% | 0hPa | 2.5V | 08:07:00 | 00:00:00 | 00:00:00 | |
| OE3OSB-13 | 2026-09-06 01:45:52 | 47.46598 | 18.20306 | 121° | 99km/h | 5014m | -12.5m/s | -4.2°C | 6.1% | -1.0hPa | 2.5V | 00:00:00 | 00:00:00 | 00:00:00 | |
| OM5KV | 2026-09-06 01:45:51 | 47.46598 | 18.20306 | 122° | 99km/h | 5014m | -12.5m/s | -4.2°C | 6.1% | 0hPa | 2.5V | 08:08:00 | 00:00:00 | 00:00:00 | |
| OM5KV | 2026-09-06 01:45:50 | 47.46610 | 18.20274 | 120° | 97km/h | 5026m | -12.0m/s | -4.3°C | 6.4% | 0hPa | 2.5V | 08:08:00 | 00:00:00 | 00:00:00 | |
| PETON7-10 | 2026-09-06 01:45:46 | 47.46670 | 18.20113 | 119° | 99km/h | 5086m | -12.4m/s | -4.5°C | 6.7% | 0hPa | 2.5V | 00:00:00 | 02:30:11 | 00:00:00 | |
| OM5KV | 2026-09-06 01:45:45 | 47.46671 | 18.20113 | 119° | 95km/h | 5086m | -12.5m/s | -4.6°C | 6.4% | 0hPa | 2.5V | 08:08:00 | 00:00:00 | 00:00:00 | |
| OM5KV | 2026-09-06 01:45:44 | 47.46682 | 18.20081 | 119° | 99km/h | 5098m | -12.2m/s | -4.6°C | 6.3% | 0hPa | 2.5V | 08:08:00 | 00:00:00 | 00:00:00 | |
| OM5KV | 2026-09-06 01:45:38 | 47.46754 | 18.19887 | 118° | 100km/h | 5168m | -12.0m/s | -5.1°C | 5.4% | 0hPa | 2.5V | 08:08:00 | 00:00:00 | 00:00:00 | |
| PETON7-10 | 2026-09-06 01:45:31 | 47.46841 | 18.19624 | 114° | 95km/h | 5261m | -12.5m/s | -5.5°C | 3.4% | 0hPa | 2.5V | 08:07:00 | 00:00:00 | 00:00:00 | |
| OM5KV | 2026-09-06 01:45:28 | 47.46861 | 18.19556 | 116° | 99km/h | 5285m | -13.1m/s | -5.6°C | 3.0% | 0hPa | 2.5V | 08:08:00 | 00:00:00 | 00:00:00 | |
| OM5KV | 2026-09-06 01:45:27 | 47.46871 | 18.19523 | 115° | 97km/h | 5297m | -13.3m/s | -5.6°C | 2.9% | 0hPa | 2.5V | 08:08:00 | 00:00:00 | 00:00:00 | |
| OM5KV | 2026-09-06 01:45:21 | 47.46923 | 18.19325 | 112° | 95km/h | 5369m | -12.0m/s | -6.0°C | 2.9% | 0hPa | 2.5V | 08:08:00 | 00:00:00 | 00:00:00 | |
| PETON7-10 | 2026-09-06 01:45:16 | 47.46976 | 18.19132 | 115° | 95km/h | 5441m | -12.6m/s | -6.4°C | 3.7% | 0hPa | 2.5V | 00:00:00 | 00:00:00 | 00:00:00 | |
| OM5KV | 2026-09-06 01:45:11 | 47.47013 | 18.19003 | 113° | 97km/h | 5489m | -12.3m/s | -6.7°C | 4.5% | 0hPa | 2.5V | 08:08:00 | 00:00:00 | 00:00:00 | |
| OM5KV | 2026-09-06 01:45:10 | 47.47022 | 18.18970 | 115° | 95km/h | 5501m | -12.7m/s | -6.8°C | 4.7% | 0hPa | 2.5V | 08:08:00 | 00:00:00 | 00:00:00 | |
| OM5KV | 2026-09-06 01:45:05 | 47.47068 | 18.18807 | 112° | 93km/h | 5561m | -12.8m/s | -7.3°C | 6.9% | 0hPa | 2.5V | 08:09:00 | 00:00:00 | 00:00:00 | |
| OM5KV | 2026-09-06 01:45:04 | 47.47076 | 18.18774 | 113° | 97km/h | 5573m | -12.4m/s | -7.4°C | 6.5% | 0hPa | 2.5V | 08:09:00 | 00:00:00 | 00:00:00 | |
| PETON7-10 | 2026-09-06 01:45:01 | 47.47112 | 18.18641 | 111° | 97km/h | 5621m | -12.5m/s | -7.8°C | 7.1% | 0hPa | 2.5V | 00:00:00 | 02:29:26 | 00:00:00 | |
| OM5KV | 2026-09-06 01:44:59 | 47.47121 | 18.18608 | 111° | 93km/h | 5633m | -12.8m/s | -7.9°C | 6.8% | 0hPa | 2.5V | 08:09:00 | 00:00:00 | 00:00:00 | |
| HA6NAB-11 | 2026-09-06 01:44:58 | 47.47129 | 18.18575 | 111° | 93km/h | 5645m | -12.8m/s | -8.0°C | 7.1% | 0hPa | 2.5V | 08:09:00 | 00:00:00 | 00:00:00 | |
| OM5KV | 2026-09-06 01:44:53 | 47.47170 | 18.18405 | 113° | 97km/h | 5706m | -13.6m/s | -8.6°C | 7.4% | 0hPa | 2.5V | 08:09:00 | 00:00:00 | 00:00:00 | |
| HA6NAB-11 | 2026-09-06 01:44:52 | 47.47179 | 18.18371 | 112° | 97km/h | 5718m | -13.4m/s | -8.7°C | 7.2% | 0hPa | 2.5V | 08:09:00 | 00:00:00 | 00:00:00 | |
| OM5KV | 2026-09-06 01:44:51 | 47.47187 | 18.18337 | 110° | 95km/h | 5731m | -13.0m/s | -8.8°C | 7.1% | 0hPa | 2.5V | 08:09:00 | 00:00:00 | 00:00:00 | |
| OM5KV | 2026-09-06 01:44:48 | 47.47212 | 18.18236 | 111° | 95km/h | 5769m | -13.8m/s | -9.1°C | 7.4% | 0hPa | 2.5V | 08:09:00 | 00:00:00 | 00:00:00 | |
| OM5KV | 2026-09-06 01:44:47 | 47.47221 | 18.18202 | 113° | 97km/h | 5781m | -12.5m/s | -9.2°C | 7.4% | 0hPa | 2.5V | 08:09:00 | 00:00:00 | 00:00:00 | |
| PETON7-10 | 2026-09-06 01:44:46 | 47.47236 | 18.18135 | 110° | 97km/h | 5805m | -13.7m/s | -9.4°C | 8.2% | 0hPa | 2.5V | 00:00:00 | 00:00:00 | 00:00:00 | |
| OM5KV | 2026-09-06 01:44:42 | 47.47261 | 18.18032 | 112° | 97km/h | 5841m | -13.7m/s | -9.8°C | 8.3% | 0hPa | 2.2V | 08:09:00 | 00:00:00 | 00:00:00 | |
| HA6NAB-11 | 2026-09-06 01:44:41 | 47.47269 | 18.17998 | 109° | 95km/h | 5854m | -14.5m/s | -9.9°C | 8.4% | 0hPa | 2.2V | 08:09:00 | 00:00:00 | 00:00:00 | |
| OM5KV | 2026-09-06 01:44:37 | 47.47299 | 18.17861 | 108° | 95km/h | 5906m | -13.8m/s | -10.3°C | 9.7% | 0hPa | 2.2V | 08:09:00 | 00:00:00 | 00:00:00 | |
| HA6NAB-11 | 2026-09-06 01:44:36 | 47.47307 | 18.17827 | 110° | 99km/h | 5919m | -13.6m/s | -10.3°C | 9.9% | 0hPa | 2.2V | 08:09:00 | 00:00:00 | 00:00:00 | |
| OM5KV | 2026-09-06 01:44:33 | 47.47328 | 18.17723 | 108° | 97km/h | 5956m | -12.8m/s | -10.6°C | 9.6% | 0hPa | 2.2V | 08:09:00 | 00:00:00 | 00:00:00 | |
| OM5KV | 2026-09-06 01:44:32 | 47.47335 | 18.17689 | 105° | 95km/h | 5969m | -13.5m/s | -10.7°C | 9.7% | 0hPa | 2.2V | 08:09:00 | 00:00:00 | 00:00:00 | |
| PETON7-10 | 2026-09-06 01:44:31 | 47.47348 | 18.17619 | 107° | 97km/h | 5994m | -13.0m/s | -10.9°C | 10.3% | 0hPa | 2.2V | 00:00:00 | 00:00:00 | 00:00:00 | |
| HA6NAB-11 | 2026-09-06 01:44:30 | 47.47348 | 18.17619 | 108° | 99km/h | 5994m | -13.1m/s | -10.9°C | 9.8% | 0hPa | 2.2V | 08:09:00 | 00:00:00 | 00:00:00 | |
| OM5KV | 2026-09-06 01:44:28 | 47.47362 | 18.17549 | 106° | 95km/h | 6020m | -14.0m/s | -11.2°C | 9.9% | 0hPa | 2.2V | 08:09:00 | 00:00:00 | 00:00:00 | |
| OM5KV | 2026-09-06 01:44:25 | 47.47380 | 18.17445 | 106° | 99km/h | 6060m | -13.2m/s | -11.6°C | 10.2% | 0hPa | 2.2V | 08:09:00 | 00:00:00 | 00:00:00 | |
| S52SK | 2026-09-06 01:44:23 | 47.47393 | 18.17375 | 104° | 95km/h | 6086m | -14.0m/s | -11.8°C | 10.1% | 0hPa | 2.2V | 08:09:00 | 00:00:00 | 00:00:00 | |
| OM5KV | 2026-09-06 01:44:20 | 47.47411 | 18.17270 | 103° | 95km/h | 6124m | -13.0m/s | -12.1°C | 10.5% | 0hPa | 2.2V | 08:09:00 | 00:00:00 | 00:00:00 | |
| OE3OSB-13 | 2026-09-06 01:44:19 | 47.47422 | 18.17199 | 104° | 99km/h | 6150m | -14.2m/s | -12.4°C | 10.7% | -1.0hPa | 2.2V | 00:00:00 | 00:00:00 | 00:00:00 | |
| S52SK | 2026-09-06 01:44:18 | 47.47422 | 18.17199 | 105° | 99km/h | 6150m | -14.2m/s | -12.4°C | 10.7% | 0hPa | 2.2V | 00:00:00 | 00:00:00 | 00:00:00 | |
| HA6NAB-11 | 2026-09-06 01:44:17 | 47.47429 | 18.17163 | 107° | 97km/h | 6163m | -14.5m/s | -12.5°C | 10.8% | 0hPa | 2.2V | 08:10:00 | 00:00:00 | 00:00:00 | |
| PETON7-10 | 2026-09-06 01:44:16 | 47.47440 | 18.17093 | 104° | 97km/h | 6190m | -13.6m/s | -12.7°C | 11.6% | 0hPa | 2.2V | 00:00:00 | 02:28:41 | 00:00:00 | |
| OM5KV | 2026-09-06 01:44:15 | 47.47441 | 18.17093 | 105° | 97km/h | 6190m | -13.7m/s | -12.8°C | 11.0% | 0hPa | 2.2V | 08:10:00 | 00:00:00 | 00:00:00 | |
| OM5KV | 2026-09-06 01:44:14 | 47.47446 | 18.17058 | 105° | 99km/h | 6202m | -13.3m/s | -12.9°C | 11.0% | 0hPa | 2.2V | 08:10:00 | 00:00:00 | 00:00:00 | |
| OM5KV | 2026-09-06 01:44:13 | 47.47452 | 18.17022 | 102° | 95km/h | 6215m | -13.0m/s | -13.0°C | 10.9% | 0hPa | 2.2V | 08:10:00 | 00:00:00 | 00:00:00 | |
| S52SK | 2026-09-06 01:44:12 | 47.47458 | 18.16987 | 105° | 97km/h | 6227m | -12.6m/s | -13.1°C | 11.0% | 0hPa | 2.2V | 00:00:00 | 00:00:00 | 00:00:00 | |
| HA6NAB-11 | 2026-09-06 01:44:11 | 47.47464 | 18.16952 | 104° | 95km/h | 6239m | -11.8m/s | -13.2°C | 11.1% | 0hPa | 2.2V | 08:10:00 | 00:00:00 | 00:00:00 | |
| OM5KV | 2026-09-06 01:44:10 | 47.47469 | 18.16917 | 104° | 95km/h | 6251m | -13.5m/s | -13.3°C | 11.1% | 0hPa | 2.2V | 08:10:00 | 00:00:00 | 00:00:00 | |
| OM5KV | 2026-09-06 01:44:05 | 47.47503 | 18.16706 | 106° | 97km/h | 6331m | -14.7m/s | -14.1°C | 10.9% | 0hPa | 2.2V | 08:10:00 | 00:00:00 | 00:00:00 | |
| OE3JTB-15 | 2026-09-06 01:44:03 | 47.47514 | 18.16636 | 102° | 142km/h | 6359m | -13.7m/s | -14.2°C | 11.6% | 0hPa | 2.2V | 00:00:00 | 02:28:28 | 00:00:00 | |
| OE3OSB-13 | 2026-09-06 01:43:48 | 47.47593 | 18.16106 | 103° | 95km/h | 6552m | -13.2m/s | -15.9°C | 16.9% | -1.0hPa | 2.2V | 00:00:00 | 00:00:00 | 00:00:00 | |
| PETON7-10 | 2026-09-06 01:43:46 | 47.47604 | 18.16037 | 103° | 95km/h | 6578m | -13.0m/s | -16.2°C | 18.7% | 0hPa | 2.2V | 00:00:00 | 00:00:00 | 00:00:00 | |
| OM5KV | 2026-09-06 01:43:41 | 47.47628 | 18.15898 | 105° | 93km/h | 6628m | -12.8m/s | -16.7°C | 19.4% | 0hPa | 2.2V | 08:10:00 | 00:00:00 | 00:00:00 | |
| OM5KV | 2026-09-06 01:43:40 | 47.47634 | 18.15863 | 106° | 97km/h | 6640m | -12.6m/s | -16.8°C | 19.8% | 0hPa | 2.2V | 08:10:00 | 00:00:00 | 00:00:00 | |
| HA6NAB-11 | 2026-09-06 01:43:36 | 47.47658 | 18.15727 | 106° | 95km/h | 6691m | -12.8m/s | -17.3°C | 21.2% | 0hPa | 2.2V | 08:10:00 | 00:00:00 | 00:00:00 | |
| OM5KV | 2026-09-06 01:43:33 | 47.47678 | 18.15623 | 106° | 93km/h | 6728m | -13.6m/s | -17.7°C | 21.8% | 0hPa | 2.2V | 08:10:00 | 00:00:00 | 00:00:00 | |
| PETON7-10 | 2026-09-06 01:43:31 | 47.47698 | 18.15520 | 107° | 97km/h | 6766m | -12.6m/s | -18.0°C | 23.6% | 0hPa | 2.2V | 00:00:00 | 02:27:56 | 00:00:00 | |
| OM5KV | 2026-09-06 01:43:30 | 47.47698 | 18.15520 | 107° | 95km/h | 6766m | -12.6m/s | -18.0°C | 22.3% | 0hPa | 2.2V | 08:10:00 | 00:00:00 | 00:00:00 | |
| OM5KV | 2026-09-06 01:43:28 | 47.47712 | 18.15451 | 107° | 93km/h | 6790m | -13.5m/s | -18.2°C | 22.9% | 0hPa | 2.2V | 08:10:00 | 00:00:00 | 00:00:00 | |
| OM5KV | 2026-09-06 01:43:25 | 47.47734 | 18.15349 | 107° | 95km/h | 6828m | -13.6m/s | -18.6°C | 23.6% | 0hPa | 2.2V | 08:10:00 | 00:00:00 | 00:00:00 | |
| OM5KV | 2026-09-06 01:43:24 | 47.47741 | 18.15314 | 109° | 99km/h | 6840m | -13.1m/s | -18.7°C | 24.2% | 0hPa | 2.2V | 08:10:00 | 00:00:00 | 00:00:00 | |
| HA6NAB-11 | 2026-09-06 01:43:19 | 47.47782 | 18.15143 | 113° | 97km/h | 6903m | -14.3m/s | -19.2°C | 27.2% | 0hPa | 2.2V | 00:00:00 | 00:00:00 | 00:00:00 | |
| OM5KV | 2026-09-06 01:43:18 | 47.47791 | 18.15110 | 111° | 95km/h | 6917m | -13.6m/s | -19.2°C | 29.2% | 0hPa | 2.2V | 08:10:00 | 00:00:00 | 00:00:00 | |
| OE3OSB-13 | 2026-09-06 01:43:17 | 47.47810 | 18.15042 | 112° | 99km/h | 6941m | -12.4m/s | -19.4°C | 33.1% | -1.0hPa | 2.2V | 00:00:00 | 00:00:00 | 00:00:00 | |
| PETON7-10 | 2026-09-06 01:43:16 | 47.47820 | 18.15008 | 114° | 100km/h | 6954m | -13.3m/s | -19.4°C | 38.5% | 0hPa | 2.2V | 08:10:00 | 00:00:00 | 00:00:00 | |
| OM5KV | 2026-09-06 01:43:15 | 47.47829 | 18.14974 | 113° | 97km/h | 6967m | -12.8m/s | -19.4°C | 36.0% | 0hPa | 2.2V | 08:10:00 | 00:00:00 | 00:00:00 | |
| HA6NAB-11 | 2026-09-06 01:43:13 | 47.47838 | 18.14940 | 113° | 95km/h | 6980m | -14.1m/s | -19.5°C | 36.2% | 0hPa | 2.2V | 00:00:00 | 00:00:00 | 00:00:00 | |
| S52SK | 2026-09-06 01:43:12 | 47.47858 | 18.14873 | 115° | 102km/h | 7006m | -13.1m/s | -19.7°C | 40.5% | 0hPa | 2.2V | 00:00:00 | 00:00:00 | 00:00:00 | |
| OM5KV | 2026-09-06 01:43:11 | 47.47858 | 18.14873 | 115° | 102km/h | 7006m | -13.1m/s | -19.7°C | 40.5% | 0hPa | 2.2V | 08:10:00 | 00:00:00 | 00:00:00 | |
| HA6NAB-11 | 2026-09-06 01:43:07 | 47.47903 | 18.14738 | 120° | 102km/h | 7058m | -13.6m/s | -19.6°C | 50.7% | 0hPa | 2.2V | 00:00:00 | 00:00:00 | 00:00:00 | |
| S52SK | 2026-09-06 01:43:06 | 47.47915 | 18.14705 | 121° | 102km/h | 7071m | -14.1m/s | !°C | 51.9% | 0hPa | 2.2V | 00:00:00 | 00:00:00 | 00:00:00 | |
| OM5KV | 2026-09-06 01:43:05 | 47.47928 | 18.14672 | 119° | 102km/h | 7085m | -13.9m/s | -19.8°C | 52.4% | 0hPa | 2.2V | 08:10:00 | 00:00:00 | 00:00:00 | |
| PETON7-10 | 2026-09-06 01:43:01 | 47.47993 | 18.14499 | 121° | 108km/h | 7155m | -13.9m/s | -20.4°C | 55.5% | 0hPa | 2.2V | 00:00:00 | 00:00:00 | 00:00:00 | |
| OM5KV | 2026-09-06 01:42:59 | 47.48007 | 18.14464 | 120° | 106km/h | 7167m | -12.8m/s | -20.5°C | 52.8% | 0hPa | 2.2V | 08:10:00 | 00:00:00 | 00:00:00 | |
| OM5KV | 2026-09-06 01:42:53 | 47.48091 | 18.14253 | 124° | 110km/h | 7247m | -14.2m/s | -20.7°C | 48.3% | 0hPa | 2.2V | 08:10:00 | 00:00:00 | 00:00:00 | |
| OM5KV | 2026-09-06 01:42:48 | 47.48164 | 18.14084 | 125° | 106km/h | 7311m | -14.2m/s | -21.1°C | 46.4% | 0hPa | 2.2V | 08:10:00 | 00:00:00 | 00:00:00 | |
| OM5KV | 2026-09-06 01:42:47 | 47.48193 | 18.14018 | 125° | 106km/h | 7336m | -13.6m/s | -21.3°C | 45.5% | 0hPa | 2.2V | 08:10:00 | 00:00:00 | 00:00:00 | |
| PETON7-10 | 2026-09-06 01:42:46 | 47.48209 | 18.13985 | 126° | 108km/h | 7349m | -13.1m/s | -21.3°C | 47.6% | 0hPa | 2.2V | 00:00:00 | 02:27:11 | 00:00:00 | |
| OM5KV | 2026-09-06 01:42:37 | 47.48341 | 18.13732 | 130° | 110km/h | 7456m | -13.9m/s | -21.8°C | 39.6% | 0hPa | 2.2V | 08:10:00 | 00:00:00 | 00:00:00 | |
| OM5KV | 2026-09-06 01:42:35 | 47.48377 | 18.13669 | 131° | 106km/h | 7483m | -13.8m/s | -22.0°C | 39.7% | 0hPa | 2.2V | 08:11:00 | 00:00:00 | 00:00:00 | |
| HA6NAB-11 | 2026-09-06 01:42:33 | 47.48432 | 18.13577 | 134° | 110km/h | 7522m | -14.4m/s | -22.2°C | 39.7% | 0hPa | 2.2V | 00:00:00 | 00:00:00 | 00:00:00 | |
| PETON7-10 | 2026-09-06 01:42:31 | 47.48469 | 18.13516 | 132° | 113km/h | 7549m | -13.1m/s | -22.4°C | 42.6% | 0hPa | 2.2V | 00:00:00 | 00:00:00 | 00:00:00 | |
| OM5KV | 2026-09-06 01:42:29 | 47.48488 | 18.13486 | 135° | 111km/h | 7562m | -14.8m/s | -22.5°C | 40.3% | 0hPa | 2.2V | 08:11:00 | 00:00:00 | 00:00:00 | |
| PG1ADW-2 | 2026-09-06 01:42:26 | 47.48567 | 18.13366 | 136° | 117km/h | 7617m | -14.6m/s | -22.8°C | 43.1% | 0hPa | 2.2V | 00:00:00 | 00:00:00 | 00:00:00 | |
| OM5KV | 2026-09-06 01:42:20 | 47.48668 | 18.13219 | 138° | 115km/h | 7687m | -14.2m/s | -23.5°C | 41.6% | 0hPa | 2.2V | 08:11:00 | 00:00:00 | 00:00:00 | |
| OM5KV | 2026-09-06 01:42:18 | 47.48710 | 18.13160 | 137° | 117km/h | 7713m | -13.6m/s | -23.7°C | 42.2% | 0hPa | 2.2V | 08:11:00 | 00:00:00 | 00:00:00 | |
| OM5KV | 2026-09-06 01:42:17 | 47.48731 | 18.13130 | 139° | 117km/h | 7726m | -15.2m/s | -23.8°C | 42.6% | 0hPa | 2.2V | 08:11:00 | 00:00:00 | 00:00:00 | |
| PETON7-10 | 2026-09-06 01:42:16 | 47.48774 | 18.13071 | 136° | 119km/h | 7754m | -14.6m/s | -23.9°C | 47.6% | 0hPa | 2.2V | 00:00:00 | 00:00:00 | 00:00:00 | |
| OE3OSB-13 | 2026-09-06 01:42:15 | 47.48796 | 18.13040 | 138° | 119km/h | 7767m | -15.3m/s | -24.0°C | 45.6% | -1.0hPa | 2.2V | 00:00:00 | 00:00:00 | 00:00:00 | |
| OM5KV | 2026-09-06 01:42:12 | 47.48840 | 18.12981 | 137° | 115km/h | 7796m | -13.2m/s | -24.2°C | 45.7% | 0hPa | 2.2V | 08:11:00 | 00:00:00 | 00:00:00 | |
| S52SK | 2026-09-06 01:42:11 | 47.48882 | 18.12921 | 137° | 119km/h | 7823m | -14.7m/s | -24.4°C | 44.0% | 0hPa | 2.2V | 00:00:00 | 00:00:00 | 00:00:00 | |
| HA6NAB-11 | 2026-09-06 01:42:09 | 47.48903 | 18.12889 | 137° | 120km/h | 7836m | -14.6m/s | -24.4°C | 42.6% | 0hPa | 2.2V | 00:00:00 | 00:00:00 | 00:00:00 | |
| PG1ADW-2 | 2026-09-06 01:42:06 | 47.48991 | 18.12763 | 136° | 124km/h | 7891m | -14.5m/s | -24.8°C | 47.0% | 0hPa | 2.2V | 00:00:00 | 02:26:31 | 00:00:00 | |
| S52SK | 2026-09-06 01:42:05 | 47.48990 | 18.12763 | 136° | 122km/h | 7891m | -14.6m/s | -24.9°C | 44.1% | 0hPa | 2.2V | 00:00:00 | 00:00:00 | 00:00:00 | |
| HA6NAB-11 | 2026-09-06 01:42:04 | 47.49034 | 18.12699 | 136° | 120km/h | 7920m | -13.9m/s | -25.1°C | 44.6% | 0hPa | 2.2V | 00:00:00 | 00:00:00 | 00:00:00 | |
| OM5KV | 2026-09-06 01:42:03 | 47.49034 | 18.12699 | 136° | 120km/h | 7920m | -13.9m/s | -25.1°C | 44.7% | 0hPa | 2.2V | 08:11:00 | 00:00:00 | 00:00:00 | |
| PETON7-10 | 2026-09-06 01:42:01 | 47.49099 | 18.12602 | 135° | 124km/h | 7961m | -14.0m/s | -25.3°C | 48.1% | 0hPa | 2.2V | 00:00:00 | 02:26:26 | 00:00:00 | |
| OM5KV | 2026-09-06 01:42:00 | 47.49099 | 18.12602 | 136° | 122km/h | 7961m | -14.0m/s | -25.4°C | 45.2% | 0hPa | 2.2V | 08:11:00 | 00:00:00 | 00:00:00 | |
| S52SK | 2026-09-06 01:41:59 | 47.49120 | 18.12569 | 134° | 120km/h | 7974m | -12.6m/s | -25.5°C | 45.5% | 0hPa | 2.2V | 00:00:00 | 00:00:00 | 00:00:00 | |
| OM5KV | 2026-09-06 01:41:57 | 47.49162 | 18.12502 | 134° | 124km/h | 8000m | -13.5m/s | -25.7°C | 45.5% | 0hPa | 2.2V | 08:11:00 | 00:00:00 | 00:00:00 | |
| OM5KV | 2026-09-06 01:41:54 | 47.49224 | 18.12401 | 132° | 124km/h | 8040m | -14.3m/s | -25.9°C | 43.3% | 0hPa | 2.2V | 08:11:00 | 00:00:00 | 00:00:00 | |
| OM5KV | 2026-09-06 01:41:50 | 47.49310 | 18.12260 | 132° | 128km/h | 8094m | -13.9m/s | -26.0°C | 35.1% | 0hPa | 2.2V | 08:11:00 | 00:00:00 | 00:00:00 | |
| OM5KV | 2026-09-06 01:41:49 | 47.49331 | 18.12224 | 134° | 128km/h | 8108m | -14.1m/s | -26.1°C | 34.4% | 0hPa | 2.2V | 08:11:00 | 00:00:00 | 00:00:00 | |
| OM5KV | 2026-09-06 01:41:48 | 47.49353 | 18.12189 | 132° | 124km/h | 8121m | -13.9m/s | -26.2°C | 33.2% | 0hPa | 2.2V | 08:11:00 | 00:00:00 | 00:00:00 | |
| PG1ADW-2 | 2026-09-06 01:41:46 | 47.49416 | 18.12081 | 132° | 137km/h | 8163m | -15.0m/s | -26.2°C | 30.5% | 0hPa | 2.2V | 00:00:00 | 00:00:00 | 00:00:00 | |
| OM5KV | 2026-09-06 01:41:43 | 47.49461 | 18.12008 | 134° | 131km/h | 8191m | -14.2m/s | -26.2°C | 24.9% | 0hPa | 2.2V | 08:12:00 | 00:00:00 | 00:00:00 | |
| OM5KV | 2026-09-06 01:41:39 | 47.49553 | 18.11858 | 135° | 137km/h | 8243m | -14.4m/s | -26.5°C | 23.9% | 0hPa | 2.2V | 08:12:00 | 00:00:00 | 00:00:00 | |
| OM5KV | 2026-09-06 01:41:38 | 47.49577 | 18.11821 | 134° | 135km/h | 8256m | -14.4m/s | -26.6°C | 23.9% | 0hPa | 2.2V | 08:12:00 | 00:00:00 | 00:00:00 | |
| OM5KV | 2026-09-06 01:41:33 | 47.49692 | 18.11630 | 134° | 141km/h | 8323m | -14.2m/s | -27.2°C | 22.8% | 0hPa | 2.2V | 08:12:00 | 00:00:00 | 00:00:00 | |
| OM5KV | 2026-09-06 01:41:32 | 47.49716 | 18.11592 | 133° | 137km/h | 8337m | -14.3m/s | -27.2°C | 21.8% | 0hPa | 2.2V | 08:12:00 | 00:00:00 | 00:00:00 | |
| PETON7-10 | 2026-09-06 01:41:31 | 47.49763 | 18.11515 | 134° | 142km/h | 8364m | -14.5m/s | -27.3°C | 21.7% | 0hPa | 2.2V | 00:00:00 | 00:00:00 | 00:00:00 | |
| OM5KV | 2026-09-06 01:41:30 | 47.49763 | 18.11515 | 135° | 142km/h | 8364m | -14.5m/s | -27.3°C | 19.9% | 0hPa | 2.2V | 08:12:00 | 00:00:00 | 00:00:00 | |
| OM5KV | 2026-09-06 01:41:27 | 47.49836 | 18.11399 | 133° | 139km/h | 8405m | -13.6m/s | -27.6°C | 19.2% | 0hPa | 2.2V | 08:12:00 | 00:00:00 | 00:00:00 | |
| PG1ADW-2 | 2026-09-06 01:41:26 | 47.49884 | 18.11319 | 133° | 144km/h | 8430m | -14.4m/s | -27.7°C | 20.3% | 0hPa | 2.2V | 08:12:00 | 00:00:00 | 00:00:00 | |
| OM5KV | 2026-09-06 01:41:24 | 47.49909 | 18.11280 | 135° | 144km/h | 8444m | -15.2m/s | -27.8°C | 18.6% | 0hPa | 2.2V | 08:12:00 | 00:00:00 | 00:00:00 | |
| OM5KV | 2026-09-06 01:41:21 | 47.49981 | 18.11164 | 133° | 142km/h | 8486m | -14.8m/s | -28.1°C | 18.5% | 0hPa | 2.2V | 08:12:00 | 00:00:00 | 00:00:00 | |
| PETON7-10 | 2026-09-06 01:41:16 | 47.50130 | 18.10926 | 133° | 146km/h | 8570m | -15.0m/s | -28.7°C | 20.0% | 0hPa | 2.2V | 00:00:00 | 02:25:41 | 00:00:00 | |
| OE3OSB-13 | 2026-09-06 01:41:13 | 47.50229 | 18.10765 | 133° | 146km/h | 8626m | -14.2m/s | -29.3°C | 18.3% | -1.0hPa | 2.2V | 00:00:00 | 00:00:00 | 00:00:00 | |
| OM5KV | 2026-09-06 01:41:10 | 47.50254 | 18.10725 | 133° | 144km/h | 8640m | -13.6m/s | -29.4°C | 18.2% | 0hPa | 2.2V | 08:12:00 | 00:00:00 | 00:00:00 | |
| OM5KV | 2026-09-06 01:41:08 | 47.50302 | 18.10646 | 133° | 144km/h | 8668m | -15.9m/s | -29.6°C | 17.4% | 0hPa | 2.2V | 08:12:00 | 00:00:00 | 00:00:00 | |
| PG1ADW-2 | 2026-09-06 01:41:06 | 47.50377 | 18.10525 | 133° | 148km/h | 8709m | -14.3m/s | -29.9°C | 19.0% | 0hPa | 2.2V | 00:00:00 | 00:00:00 | 00:00:00 | |
| OM5KV | 2026-09-06 01:41:03 | 47.50427 | 18.10443 | 133° | 148km/h | 8735m | -13.9m/s | -30.2°C | 17.5% | 0hPa | 2.2V | 08:12:00 | 00:00:00 | 00:00:00 | |
| OM5KV | 2026-09-06 01:41:02 | 47.50451 | 18.10402 | 132° | 150km/h | 8748m | -13.4m/s | -30.3°C | 17.8% | 0hPa | 2.2V | 08:12:00 | 00:00:00 | 00:00:00 | |
| PETON7-10 | 2026-09-06 01:41:01 | 47.50502 | 18.10319 | 132° | 150km/h | 8774m | -12.6m/s | -30.4°C | 20.0% | 0hPa | 2.2V | 08:12:00 | 00:00:00 | 00:00:00 | |
| OM5KV | 2026-09-06 01:40:59 | 47.50527 | 18.10277 | 132° | 148km/h | 8787m | -13.5m/s | -30.5°C | 18.1% | 0hPa | 2.4V | 08:12:00 | 00:00:00 | 00:00:00 | |
| OM5KV | 2026-09-06 01:40:55 | 47.50627 | 18.10110 | 133° | 150km/h | 8839m | -14.0m/s | -30.9°C | 17.0% | 0hPa | 2.4V | 08:12:00 | 00:00:00 | 00:00:00 | |
| HA6NAB-11 | 2026-09-06 01:40:54 | 47.50653 | 18.10068 | 133° | 148km/h | 8852m | -13.2m/s | -31.0°C | 16.5% | 0hPa | 2.4V | 00:00:00 | 00:00:00 | 00:00:00 | |
| S52SK | 2026-09-06 01:40:53 | 47.50677 | 18.10027 | 133° | 146km/h | 8865m | -14.2m/s | -31.1°C | 16.3% | 0hPa | 2.4V | 00:00:00 | 00:00:00 | 00:00:00 | |
| HA6NAB-11 | 2026-09-06 01:40:49 | 47.50780 | 18.09862 | 133° | 148km/h | 8919m | -13.1m/s | -31.6°C | 16.4% | 0hPa | 2.4V | 00:00:00 | 00:00:00 | 00:00:00 | |
| OM5KV | 2026-09-06 01:40:48 | 47.50806 | 18.09821 | 134° | 150km/h | 8932m | -13.5m/s | -31.7°C | 16.4% | 0hPa | 2.4V | 08:13:00 | 00:00:00 | 00:00:00 | |
| PETON7-10 | 2026-09-06 01:40:46 | 47.50881 | 18.09697 | 133° | 148km/h | 8971m | -14.1m/s | -32.1°C | 18.8% | 0hPa | 2.4V | 00:00:00 | 00:00:00 | 00:00:00 | |
| HA6NAB-11 | 2026-09-06 01:40:43 | 47.50932 | 18.09616 | 134° | 151km/h | 8998m | -14.7m/s | -32.4°C | 17.1% | 0hPa | 2.4V | 00:00:00 | 00:00:00 | 00:00:00 | |
| OE3OSB-13 | 2026-09-06 01:40:42 | 47.51008 | 18.09492 | 132° | 146km/h | 9039m | -14.4m/s | -32.8°C | 17.3% | -1.0hPa | 2.4V | 00:00:00 | 00:00:00 | 00:00:00 | |
| HA6NAB-11 | 2026-09-06 01:40:38 | 47.51060 | 18.09411 | 134° | 148km/h | 9066m | -13.5m/s | -33.0°C | 17.6% | 0hPa | 2.4V | 00:00:00 | 00:00:00 | 00:00:00 | |
| OM5KV | 2026-09-06 01:40:37 | 47.51086 | 18.09371 | 134° | 148km/h | 9079m | -14.8m/s | -33.2°C | 17.7% | 0hPa | 2.4V | 08:13:00 | 00:00:00 | 00:00:00 | |
| HA6NAB-11 | 2026-09-06 01:40:32 | 47.51215 | 18.09167 | 135° | 148km/h | 9149m | -13.8m/s | -33.8°C | 17.5% | 0hPa | 2.4V | 00:00:00 | 00:00:00 | 00:00:00 | |
| PETON7-10 | 2026-09-06 01:40:31 | 47.51267 | 18.09087 | 134° | 146km/h | 9177m | -15.2m/s | -34.0°C | 19.2% | 0hPa | 2.4V | 00:00:00 | 02:24:56 | 00:00:00 | |
| OM5KV | 2026-09-06 01:40:29 | 47.51292 | 18.09048 | 135° | 144km/h | 9191m | -14.7m/s | -34.1°C | 16.8% | 0hPa | 2.4V | 08:13:00 | 00:00:00 | 00:00:00 | |
| OM5KV | 2026-09-06 01:40:28 | 47.51318 | 18.09009 | 136° | 148km/h | 9205m | -14.0m/s | -34.2°C | 16.8% | 0hPa | 2.4V | 08:13:00 | 00:00:00 | 00:00:00 | |
| PG1ADW-2 | 2026-09-06 01:40:26 | 47.51395 | 18.08892 | 134° | 148km/h | 9248m | -13.8m/s | -34.6°C | 19.1% | 0hPa | 2.4V | 00:00:00 | 00:00:00 | 00:00:00 | |
| OM5KV | 2026-09-06 01:40:23 | 47.51446 | 18.08814 | 135° | 148km/h | 9274m | -13.4m/s | -34.9°C | 17.0% | 0hPa | 2.2V | 08:13:00 | 00:00:00 | 00:00:00 | |
| OM5KV | 2026-09-06 01:40:20 | 47.51524 | 18.08697 | 135° | 146km/h | 9313m | -13.3m/s | -35.2°C | 16.8% | 0hPa | 2.2V | 08:13:00 | 00:00:00 | 00:00:00 | |
| PETON7-10 | 2026-09-06 01:40:16 | 47.51656 | 18.08504 | 136° | 148km/h | 9380m | -14.0m/s | -35.6°C | 17.7% | 0hPa | 2.2V | 00:00:00 | 00:00:00 | 00:00:00 | |
| OM5KV | 2026-09-06 01:40:14 | 47.51682 | 18.08466 | 136° | 142km/h | 9394m | -14.0m/s | -35.8°C | 15.5% | 0hPa | 2.4V | 08:13:00 | 00:00:00 | 00:00:00 | |
| OM5KV | 2026-09-06 01:40:11 | 47.51762 | 18.08351 | 137° | 150km/h | 9433m | -14.3m/s | -36.1°C | 15.0% | 0hPa | 2.4V | 08:13:00 | 00:00:00 | 00:00:00 | |
| OM5KV | 2026-09-06 01:40:09 | 47.51818 | 18.08274 | 139° | 150km/h | 9462m | -14.9m/s | -36.4°C | 14.9% | 0hPa | 2.4V | 08:13:00 | 00:00:00 | 00:00:00 | |
| OM5KV | 2026-09-06 01:40:08 | 47.51846 | 18.08236 | 138° | 148km/h | 9476m | -13.8m/s | -36.5°C | 14.7% | 0hPa | 2.4V | 08:13:00 | 00:00:00 | 00:00:00 | |
| PG1ADW-2 | 2026-09-06 01:40:05 | 47.51957 | 18.08083 | 137° | 151km/h | 9530m | -14.5m/s | -36.8°C | 17.0% | 0hPa | 2.4V | 00:00:00 | 00:00:00 | 00:00:00 | |
| PETON7-10 | 2026-09-06 01:40:01 | 47.52067 | 18.07929 | 137° | 151km/h | 9586m | -15.3m/s | -37.4°C | 17.2% | 0hPa | 2.4V | 00:00:00 | 00:00:00 | 00:00:00 | |
| OM5KV | 2026-09-06 01:40:00 | 47.52067 | 18.07929 | 138° | 150km/h | 9586m | -15.3m/s | -37.4°C | 14.9% | 0hPa | 2.4V | 08:14:00 | 00:00:00 | 00:00:00 | |
| S52SK | 2026-09-06 01:39:57 | 47.52151 | 18.07814 | 138° | 150km/h | 9629m | -14.6m/s | -37.8°C | 15.4% | 0hPa | 2.4V | 00:00:00 | 00:00:00 | 00:00:00 | |
| S52SK | 2026-09-06 01:39:51 | 47.52319 | 18.07583 | 138° | 151km/h | 9712m | -14.9m/s | -38.6°C | 15.9% | 0hPa | 2.4V | 00:00:00 | 00:00:00 | 00:00:00 | |
| OM5KV | 2026-09-06 01:39:48 | 47.52403 | 18.07466 | 138° | 151km/h | 9754m | -14.2m/s | -38.9°C | 16.6% | 0hPa | 2.4V | 08:14:00 | 00:00:00 | 00:00:00 | |
| PETON7-10 | 2026-09-06 01:39:46 | 47.52488 | 18.07347 | 137° | 155km/h | 9794m | -15.2m/s | -39.2°C | 19.7% | 0hPa | 2.4V | 00:00:00 | 02:24:11 | 00:00:00 | |
| PG1ADW-2 | 2026-09-06 01:39:45 | 47.52517 | 18.07307 | 138° | 153km/h | 9808m | -15.7m/s | -39.3°C | 20.0% | 0hPa | 2.4V | 00:00:00 | 00:00:00 | 00:00:00 | |
| OM5KV | 2026-09-06 01:39:42 | 47.52573 | 18.07228 | 136° | 151km/h | 9837m | -14.7m/s | -39.6°C | 18.5% | 0hPa | 2.4V | 08:14:00 | 00:00:00 | 00:00:00 | |
| OE3JTB-15 | 2026-09-06 01:39:41 | 47.52628 | 18.07147 | 137° | 155km/h | 9865m | -15.0m/s | -39.8°C | 22.7% | 0hPa | 2.4V | 08:13:00 | 00:00:00 | 00:00:00 | |
| OE3OSB-13 | 2026-09-06 01:39:40 | 47.52685 | 18.07066 | 136° | 155km/h | 9893m | -15.6m/s | -40.1°C | 21.2% | -1.0hPa | 2.4V | 00:00:00 | 00:00:00 | 00:00:00 | |
| HA6NAB-11 | 2026-09-06 01:39:35 | 47.52767 | 18.06944 | 136° | 151km/h | 9936m | -14.9m/s | -40.5°C | 23.6% | 0hPa | 2.4V | 00:00:00 | 00:00:00 | 00:00:00 | |
| PETON7-10 | 2026-09-06 01:39:31 | 47.52904 | 18.06737 | 135° | 153km/h | 10006m | -14.0m/s | -41.1°C | 30.0% | 0hPa | 2.4V | 00:00:00 | 00:00:00 | 00:00:00 | |
| OM5KV | 2026-09-06 01:39:30 | 47.52904 | 18.06738 | 136° | 153km/h | 10006m | -14.0m/s | -41.2°C | 26.5% | 0hPa | 2.4V | 08:14:00 | 00:00:00 | 00:00:00 | |
| HA6NAB-11 | 2026-09-06 01:39:29 | 47.52932 | 18.06697 | 135° | 153km/h | 10019m | -14.2m/s | -41.3°C | 26.9% | 0hPa | 2.4V | 00:00:00 | 00:00:00 | 00:00:00 | |
| OM5KV | 2026-09-06 01:39:27 | 47.52986 | 18.06614 | 135° | 155km/h | 10047m | -15.3m/s | -41.5°C | 27.5% | 0hPa | 2.4V | 08:14:00 | 00:00:00 | 00:00:00 | |
| OM5KV | 2026-09-06 01:39:26 | 47.53014 | 18.06572 | 136° | 157km/h | 10062m | -15.8m/s | -41.7°C | 28.0% | 0hPa | 2.4V | 08:14:00 | 00:00:00 | 00:00:00 | |
| PG1ADW-2 | 2026-09-06 01:39:25 | 47.53069 | 18.06490 | 135° | 153km/h | 10092m | -14.0m/s | -41.9°C | 32.6% | 0hPa | 2.4V | 00:00:00 | 02:23:50 | 00:00:00 | |
| OM5KV | 2026-09-06 01:39:24 | 47.53069 | 18.06490 | 136° | 157km/h | 10092m | -14.1m/s | -42.0°C | 28.7% | 0hPa | 2.2V | 08:14:00 | 00:00:00 | 00:00:00 | |
| OM5KV | 2026-09-06 01:39:22 | 47.53123 | 18.06408 | 135° | 151km/h | 10119m | -14.2m/s | -42.2°C | 29.4% | 0hPa | 2.2V | 08:14:00 | 00:00:00 | 00:00:00 | |
| OM5KV | 2026-09-06 01:39:21 | 47.53150 | 18.06367 | 135° | 155km/h | 10132m | -14.6m/s | -42.4°C | 29.9% | 0hPa | 2.2V | 08:14:00 | 00:00:00 | 00:00:00 | |
| PETON7-10 | 2026-09-06 01:39:16 | 47.53312 | 18.06120 | 135° | 153km/h | 10217m | -15.6m/s | -43.1°C | 33.9% | 0hPa | 2.2V | 00:00:00 | 00:00:00 | 00:00:00 | |
| OE3JTB-15 | 2026-09-06 01:39:12 | 47.53422 | 18.05955 | 134° | 155km/h | 10277m | -14.7m/s | -43.5°C | 32.6% | 0hPa | 2.2V | 00:00:00 | 00:00:00 | 00:00:00 | |
| OM5KV | 2026-09-06 01:39:11 | 47.53449 | 18.05913 | 136° | 157km/h | 10290m | -14.2m/s | -43.7°C | 28.7% | 0hPa | 2.2V | 08:15:00 | 00:00:00 | 00:00:00 | |
| OE3OSB-13 | 2026-09-06 01:39:09 | 47.53532 | 18.05789 | 135° | 157km/h | 10332m | -13.8m/s | -44.1°C | 29.1% | -1.0hPa | 2.2V | 00:00:00 | 00:00:00 | 00:00:00 | |
| PG1ADW-2 | 2026-09-06 01:39:05 | 47.53613 | 18.05665 | 135° | 155km/h | 10374m | -15.2m/s | -44.3°C | 33.5% | 0hPa | 2.2V | 00:00:00 | 00:00:00 | 00:00:00 | |
| OM5KV | 2026-09-06 01:39:04 | 47.53613 | 18.05665 | 135° | 157km/h | 10374m | -15.2m/s | -44.4°C | 29.3% | 0hPa | 2.2V | 08:15:00 | 00:00:00 | 00:00:00 | |
| PETON7-10 | 2026-09-06 01:39:01 | 47.53721 | 18.05499 | 134° | 157km/h | 10430m | -13.9m/s | -44.8°C | 34.1% | 0hPa | 2.2V | 00:00:00 | 02:23:26 | 00:00:00 | |
| OM5KV | 2026-09-06 01:38:54 | 47.53885 | 18.05243 | 135° | 157km/h | 10511m | -15.6m/s | -45.6°C | 30.2% | 0hPa | 2.2V | 08:15:00 | 00:00:00 | 00:00:00 | |
| HA6NAB-11 | 2026-09-06 01:38:53 | 47.53912 | 18.05201 | 134° | 155km/h | 10526m | -15.2m/s | -45.7°C | 30.5% | 0hPa | 2.2V | 00:00:00 | 00:00:00 | 00:00:00 | |
| S52SK | 2026-09-06 01:38:50 | 47.53993 | 18.05073 | 134° | 155km/h | 10567m | -14.2m/s | -46.1°C | 31.3% | 0hPa | 2.2V | 00:00:00 | 00:00:00 | 00:00:00 | |
| HA6NAB-11 | 2026-09-06 01:38:48 | 47.54046 | 18.04988 | 134° | 155km/h | 10595m | -14.1m/s | -46.4°C | 31.5% | 0hPa | 2.2V | 00:00:00 | 00:00:00 | 00:00:00 | |
| OM5KV | 2026-09-06 01:38:47 | 47.54073 | 18.04946 | 134° | 155km/h | 10609m | -14.7m/s | -46.5°C | 31.8% | 0hPa | 2.2V | 08:15:00 | 00:00:00 | 00:00:00 | |
| PETON7-10 | 2026-09-06 01:38:46 | 47.54127 | 18.04859 | 134° | 157km/h | 10636m | -14.9m/s | -46.7°C | 36.9% | 0hPa | 2.2V | 08:14:00 | 00:00:00 | 00:00:00 | |
| PG1ADW-2 | 2026-09-06 01:38:45 | 47.54153 | 18.04816 | 133° | 157km/h | 10650m | -14.3m/s | -46.8°C | 37.1% | 0hPa | 2.2V | 00:00:00 | 00:00:00 | 00:00:00 | |
| OE3JTB-15 | 2026-09-06 01:38:43 | 47.54207 | 18.04730 | 134° | 159km/h | 10676m | -14.1m/s | -47.1°C | 37.4% | 0hPa | 2.2V | 00:00:00 | 02:23:08 | 00:00:00 | |
| HA6NAB-11 | 2026-09-06 01:38:42 | 47.54207 | 18.04730 | 134° | 159km/h | 10676m | -14.2m/s | -47.1°C | 32.6% | 0hPa | 2.2V | 00:00:00 | 00:00:00 | 00:00:00 | |
| S52SK | 2026-09-06 01:38:39 | 47.54288 | 18.04602 | 134° | 151km/h | 10718m | -14.9m/s | -47.5°C | 32.7% | 0hPa | 2.2V | 00:00:00 | 00:00:00 | 00:00:00 | |
| OM5KV | 2026-09-06 01:38:38 | 47.54315 | 18.04559 | 134° | 155km/h | 10732m | -15.1m/s | -47.6°C | 33.0% | 0hPa | 2.2V | 08:15:00 | 00:00:00 | 00:00:00 | |
| OE3OSB-13 | 2026-09-06 01:38:37 | 47.54370 | 18.04472 | 134° | 157km/h | 10760m | -14.7m/s | -47.9°C | 32.9% | -1.0hPa | 2.2V | 00:00:00 | 00:00:00 | 00:00:00 | |
| HA6NAB-11 | 2026-09-06 01:38:36 | 47.54370 | 18.04472 | 135° | 159km/h | 10761m | -14.7m/s | -47.9°C | 33.1% | 0hPa | 2.2V | 00:00:00 | 00:00:00 | 00:00:00 | |
| OM5KV | 2026-09-06 01:38:35 | 47.54397 | 18.04430 | 134° | 155km/h | 10775m | -13.8m/s | -48.0°C | 33.2% | 0hPa | 2.2V | 08:15:00 | 00:00:00 | 00:00:00 | |
| OM5KV | 2026-09-06 01:38:34 | 47.54424 | 18.04386 | 134° | 157km/h | 10789m | -13.8m/s | -48.2°C | 33.2% | 0hPa | 2.2V | 08:15:00 | 00:00:00 | 00:00:00 | |
| PETON7-10 | 2026-09-06 01:38:31 | 47.54534 | 18.04215 | 134° | 157km/h | 10844m | -14.9m/s | -48.5°C | 36.8% | 0hPa | 2.2V | 00:00:00 | 00:00:00 | 00:00:00 | |
| OM5KV | 2026-09-06 01:38:28 | 47.54588 | 18.04131 | 134° | 159km/h | 10873m | -14.5m/s | -48.8°C | 32.1% | 0hPa | 2.2V | 08:15:00 | 00:00:00 | 00:00:00 | |
| PG1ADW-2 | 2026-09-06 01:38:25 | 47.54698 | 18.03961 | 134° | 159km/h | 10929m | -14.0m/s | -49.2°C | 38.7% | 0hPa | 2.2V | 08:15:00 | 00:00:00 | 00:00:00 | |
| OM5KV | 2026-09-06 01:38:22 | 47.54753 | 18.03875 | 135° | 159km/h | 10958m | -14.9m/s | -49.5°C | 34.4% | 0hPa | 2.4V | 08:15:00 | 00:00:00 | 00:00:00 | |
| OE5DRO-10 | 2026-09-06 01:38:19 | 47.54864 | 18.03703 | 135° | 161km/h | 11015m | -14.3m/s | -49.9°C | 41.8% | 0hPa | 2.4V | 00:00:00 | 00:00:00 | 00:00:00 | |
| PETON7-10 | 2026-09-06 01:38:16 | 47.54947 | 18.03575 | 134° | 161km/h | 11054m | -12.8m/s | -50.2°C | 43.5% | 0hPa | 2.4V | 00:00:00 | 02:22:41 | 00:00:00 | |
| OM5KV | 2026-09-06 01:38:10 | 47.55088 | 18.03358 | 136° | 162km/h | 11118m | -14.8m/s | -50.9°C | 40.0% | 0hPa | 2.4V | 08:15:00 | 00:00:00 | 00:00:00 | |
| OE3OSB-13 | 2026-09-06 01:38:06 | 47.55230 | 18.03142 | 134° | 162km/h | 11187m | -13.2m/s | -51.4°C | 40.4% | -1.0hPa | 2.4V | 00:00:00 | 00:00:00 | 00:00:00 | |
| PG1ADW-2 | 2026-09-06 01:38:05 | 47.55258 | 18.03099 | 133° | 159km/h | 11200m | -13.1m/s | -51.5°C | 46.7% | 0hPa | 2.4V | 00:00:00 | 02:22:30 | 00:00:00 | |
| OM5KV | 2026-09-06 01:38:04 | 47.55258 | 18.03099 | 134° | 157km/h | 11200m | -13.1m/s | -51.6°C | 40.4% | 0hPa | 2.4V | 08:15:00 | 00:00:00 | 00:00:00 | |
| PETON7-10 | 2026-09-06 01:38:01 | 47.55369 | 18.02924 | 133° | 159km/h | 11252m | -13.6m/s | -52.0°C | 44.9% | 0hPa | 2.4V | 00:00:00 | 00:00:00 | 00:00:00 | |
| OE5DRO-10 | 2026-09-06 01:38:00 | 47.55397 | 18.02880 | 133° | 157km/h | 11265m | -13.9m/s | -52.1°C | 44.4% | 0hPa | 2.4V | 00:00:00 | 00:00:00 | 00:00:00 | |
| OM5KV | 2026-09-06 01:37:59 | 47.55397 | 18.02880 | 134° | 161km/h | 11265m | -13.9m/s | -52.1°C | 38.2% | 0hPa | 2.4V | 08:15:00 | 00:00:00 | 00:00:00 | |
| OM5KV | 2026-09-06 01:37:55 | 47.55506 | 18.02703 | 134° | 159km/h | 11321m | -13.7m/s | -52.5°C | 35.5% | 0hPa | 2.4V | 08:15:00 | 00:00:00 | 00:00:00 | |
| OM5KV | 2026-09-06 01:37:47 | 47.55721 | 18.02356 | 134° | 157km/h | 11428m | -13.8m/s | -53.2°C | 35.9% | 0hPa | 2.4V | 08:15:00 | 00:00:00 | 00:00:00 | |
| PETON7-10 | 2026-09-06 01:37:46 | 47.55773 | 18.02269 | 132° | 155km/h | 11455m | -12.7m/s | -53.4°C | 42.9% | 0hPa | 2.4V | 00:00:00 | 00:00:00 | 00:00:00 | |
| PG1ADW-2 | 2026-09-06 01:37:45 | 47.55800 | 18.02226 | 132° | 155km/h | 11468m | -13.8m/s | -53.5°C | 43.2% | 0hPa | 2.4V | 00:00:00 | 00:00:00 | 00:00:00 | |
| OM5KV | 2026-09-06 01:37:42 | 47.55853 | 18.02139 | 133° | 153km/h | 11496m | -13.4m/s | -53.8°C | 37.5% | 0hPa | 2.4V | 08:15:00 | 00:00:00 | 00:00:00 | |
| OE5DRO-10 | 2026-09-06 01:37:41 | 47.55906 | 18.02052 | 132° | 155km/h | 11522m | -12.7m/s | -54.0°C | 44.4% | 0hPa | 2.4V | 00:00:00 | 00:00:00 | 00:00:00 | |
| S52SK | 2026-09-06 01:37:39 | 47.55931 | 18.02010 | 132° | 151km/h | 11535m | -12.5m/s | -54.1°C | 38.0% | 0hPa | 2.2V | 00:00:00 | 00:00:00 | 00:00:00 | |
| OM5KV | 2026-09-06 01:37:38 | 47.55957 | 18.01967 | 132° | 151km/h | 11549m | -13.6m/s | -54.3°C | 38.1% | 0hPa | 2.2V | 08:15:00 | 00:00:00 | 00:00:00 | |
| OE3OSB-13 | 2026-09-06 01:37:35 | 47.56062 | 18.01794 | 132° | 157km/h | 11605m | -14.3m/s | -54.7°C | 38.8% | -1.0hPa | 2.2V | 00:00:00 | 00:00:00 | 00:00:00 | |
| S52SK | 2026-09-06 01:37:33 | 47.56088 | 18.01750 | 133° | 153km/h | 11618m | -13.1m/s | -54.9°C | 39.4% | 0hPa | 2.2V | 00:00:00 | 00:00:00 | 00:00:00 | |
| PETON7-10 | 2026-09-06 01:37:31 | 47.56168 | 18.01621 | 132° | 157km/h | 11658m | -13.0m/s | -55.1°C | 47.4% | 0hPa | 2.2V | 00:00:00 | 02:21:56 | 00:00:00 | |
| OM5KV | 2026-09-06 01:37:29 | 47.56194 | 18.01579 | 134° | 157km/h | 11671m | -13.2m/s | -55.3°C | 40.6% | 0hPa | 2.2V | 08:16:00 | 00:00:00 | 00:00:00 | |
| OM5KV | 2026-09-06 01:37:27 | 47.56248 | 18.01493 | 134° | 159km/h | 11696m | -12.1m/s | -55.6°C | 41.1% | 0hPa | 2.2V | 08:16:00 | 00:00:00 | 00:00:00 | |
| PG1ADW-2 | 2026-09-06 01:37:25 | 47.56329 | 18.01365 | 133° | 159km/h | 11734m | -12.6m/s | -55.9°C | 49.3% | 0hPa | 2.2V | 00:00:00 | 00:00:00 | 00:00:00 | |
| OM5KV | 2026-09-06 01:37:23 | 47.56356 | 18.01322 | 134° | 159km/h | 11747m | -13.0m/s | -56.0°C | 42.2% | 0hPa | 2.4V | 08:16:00 | 00:00:00 | 00:00:00 | |
| OE5DRO-10 | 2026-09-06 01:37:22 | 47.56410 | 18.01236 | 134° | 161km/h | 11771m | -12.0m/s | -56.2°C | 50.1% | 0hPa | 2.4V | 00:00:00 | 00:00:00 | 00:00:00 | |
| OM5KV | 2026-09-06 01:37:21 | 47.56410 | 18.01236 | 134° | 155km/h | 11771m | -12.0m/s | -56.3°C | 42.6% | 0hPa | 2.4V | 08:16:00 | 00:00:00 | 00:00:00 | |
| OM5KV | 2026-09-06 01:37:17 | 47.56520 | 18.01062 | 134° | 157km/h | 11823m | -14.4m/s | -56.7°C | 42.8% | 0hPa | 2.4V | 08:16:00 | 00:00:00 | 00:00:00 | |
| PETON7-10 | 2026-09-06 01:37:16 | 47.56574 | 18.00975 | 133° | 161km/h | 11853m | -12.6m/s | -56.9°C | 51.2% | 0hPa | 2.4V | 00:00:00 | 00:00:00 | 00:00:00 | |
| OM5KV | 2026-09-06 01:37:11 | 47.56683 | 18.00799 | 134° | 157km/h | 11902m | -12.5m/s | -57.4°C | 44.9% | 0hPa | 2.4V | 08:16:00 | 00:00:00 | 00:00:00 | |
| OM5KV | 2026-09-06 01:37:10 | 47.56711 | 18.00756 | 133° | 161km/h | 11913m | -12.1m/s | -57.5°C | 44.9% | 0hPa | 2.4V | 08:16:00 | 00:00:00 | 00:00:00 | |
| OM5KV | 2026-09-06 01:37:07 | 47.56793 | 18.00623 | 135° | 162km/h | 11952m | -13.4m/s | -57.8°C | 45.0% | 0hPa | 2.4V | 08:16:00 | 00:00:00 | 00:00:00 | |
| OE3JTB-15 | 2026-09-06 01:37:06 | 47.56849 | 18.00536 | 134° | 166km/h | 11978m | -13.3m/s | -57.9°C | 53.2% | 0hPa | 2.4V | 00:00:00 | 00:00:00 | 00:00:00 | |
| OE3OSB-13 | 2026-09-06 01:37:05 | 47.56905 | 18.00447 | 133° | 162km/h | 12003m | -13.3m/s | -58.2°C | 44.2% | -1.0hPa | 2.4V | 00:00:00 | 00:00:00 | 00:00:00 | |
| OE5DRO-10 | 2026-09-06 01:37:03 | 47.56933 | 18.00403 | 133° | 166km/h | 12016m | -12.8m/s | -58.2°C | 52.6% | 0hPa | 2.4V | 00:00:00 | 00:00:00 | 00:00:00 | |
| PETON7-10 | 2026-09-06 01:37:01 | 47.56989 | 18.00313 | 133° | 166km/h | 12041m | -12.9m/s | -58.3°C | 52.5% | 0hPa | 2.4V | 00:00:00 | 00:00:00 | 00:00:00 | |
| OM5KV | 2026-09-06 01:36:53 | 47.57184 | 17.99993 | 132° | 164km/h | 12126m | -11.5m/s | -58.9°C | 42.9% | 0hPa | 2.4V | 08:16:00 | 00:00:00 | 00:00:00 | |
| GYPAP8-17 | 2026-09-06 01:36:50 | 47.57267 | 17.99850 | 131° | 166km/h | 12162m | -12.7m/s | -59.0°C | 40.9% | 0hPa | 2.4V | 00:00:00 | 00:00:00 | 00:00:00 | |
| PETON7-10 | 2026-09-06 01:36:46 | 47.57405 | 17.99608 | 131° | 170km/h | 12221m | -11.5m/s | -59.2°C | 46.3% | 0hPa | 2.4V | 00:00:00 | 02:21:11 | 00:00:00 | |
| PG1ADW-2 | 2026-09-06 01:36:45 | 47.57432 | 17.99559 | 130° | 170km/h | 12233m | -12.9m/s | -59.2°C | 45.8% | 0hPa | 2.4V | 00:00:00 | 02:21:10 | 00:00:00 | |
| OE5DRO-10 | 2026-09-06 01:36:44 | 47.57459 | 17.99510 | 129° | 170km/h | 12245m | -12.4m/s | -59.1°C | 44.9% | 0hPa | 2.4V | 00:00:00 | 00:00:00 | 00:00:00 | |
| OM5KV | 2026-09-06 01:36:43 | 47.57460 | 17.99510 | 129° | 168km/h | 12245m | -12.5m/s | -59.2°C | 37.0% | 0hPa | 2.2V | 08:16:00 | 00:00:00 | 00:00:00 | |
| OM5KV | 2026-09-06 01:36:38 | 47.57593 | 17.99260 | 129° | 170km/h | 12307m | -12.7m/s | -59.0°C | 32.9% | 0hPa | 2.2V | 08:17:00 | 00:00:00 | 00:00:00 | |
| OE3JTB-15 | 2026-09-06 01:36:37 | 47.57647 | 17.99160 | 129° | 172km/h | 12331m | -13.2m/s | -59.1°C | 39.7% | 0hPa | 2.2V | 00:00:00 | 02:21:02 | 00:00:00 | |
| OM5KV | 2026-09-06 01:36:36 | 47.57648 | 17.99160 | 130° | 172km/h | 12331m | -13.3m/s | -59.2°C | 32.4% | 0hPa | 2.2V | 08:17:00 | 00:00:00 | 00:00:00 | |
| OE3OSB-13 | 2026-09-06 01:36:34 | 47.57755 | 17.98960 | 128° | 168km/h | 12381m | -11.9m/s | -59.5°C | 30.8% | -1.0hPa | 2.2V | 00:00:00 | 00:00:00 | 00:00:00 | |
| PETON7-10 | 2026-09-06 01:36:31 | 47.57808 | 17.98861 | 130° | 172km/h | 12406m | -12.7m/s | -59.7°C | 37.7% | 0hPa | 2.2V | 08:16:00 | 00:00:00 | 00:00:00 | |
| OM5KV | 2026-09-06 01:36:30 | 47.57809 | 17.98861 | 130° | 172km/h | 12406m | -12.7m/s | -59.7°C | 30.5% | 0hPa | 2.2V | 08:17:00 | 00:00:00 | 00:00:00 | |
| S52SK | 2026-09-06 01:36:27 | 47.57890 | 17.98711 | 131° | 172km/h | 12443m | -13.1m/s | -60.0°C | 29.5% | 0hPa | 2.2V | 00:00:00 | 00:00:00 | 00:00:00 | |
| OM5KV | 2026-09-06 01:36:26 | 47.57919 | 17.98662 | 130° | 173km/h | 12456m | -12.2m/s | -60.1°C | 29.3% | 0hPa | 2.2V | 08:17:00 | 00:00:00 | 00:00:00 | |
| PG1ADW-2 | 2026-09-06 01:36:25 | 47.57973 | 17.98563 | 130° | 172km/h | 12480m | -12.3m/s | -60.2°C | 36.2% | 0hPa | 2.2V | 00:00:00 | 00:00:00 | 00:00:00 | |
| OM5KV | 2026-09-06 01:36:24 | 47.57973 | 17.98563 | 131° | 170km/h | 12480m | -12.4m/s | -60.3°C | 29.0% | 0hPa | 2.4V | 08:17:00 | 00:00:00 | 00:00:00 | |
| HA6NAB-11 | 2026-09-06 01:36:19 | 47.58113 | 17.98319 | 132° | 173km/h | 12545m | -13.6m/s | -60.8°C | 27.4% | 0hPa | 2.4V | 00:00:00 | 00:00:00 | 00:00:00 | |
| OM5KV | 2026-09-06 01:36:17 | 47.58169 | 17.98222 | 132° | 173km/h | 12572m | -14.3m/s | -61.0°C | 26.7% | 0hPa | 2.4V | 08:17:00 | 00:00:00 | 00:00:00 | |
| PETON7-10 | 2026-09-06 01:36:16 | 47.58227 | 17.98126 | 133° | 173km/h | 12599m | -12.3m/s | -61.1°C | 33.1% | 0hPa | 2.4V | 00:00:00 | 00:00:00 | 00:00:00 | |
| OM5KV | 2026-09-06 01:36:15 | 47.58227 | 17.98126 | 133° | 172km/h | 12599m | -12.4m/s | -61.2°C | 26.0% | 0hPa | 2.4V | 08:17:00 | 00:00:00 | 00:00:00 | |
| HA6NAB-11 | 2026-09-06 01:36:14 | 47.58255 | 17.98078 | 132° | 172km/h | 12612m | -13.2m/s | -61.3°C | 25.3% | 0hPa | 2.4V | 00:00:00 | 00:00:00 | 00:00:00 | |
| OM5KV | 2026-09-06 01:36:12 | 47.58313 | 17.97982 | 134° | 172km/h | 12638m | -14.1m/s | -61.4°C | 24.5% | 0hPa | 2.4V | 08:17:00 | 00:00:00 | 00:00:00 | |
| GYPAP8-17 | 2026-09-06 01:36:09 | 47.58401 | 17.97839 | 133° | 172km/h | 12677m | -14.2m/s | -61.8°C | 23.4% | 0hPa | 2.4V | 00:00:00 | 00:00:00 | 00:00:00 | |
| OE3JTB-15 | 2026-09-06 01:36:08 | 47.58460 | 17.97743 | 132° | 161km/h | 12705m | -12.6m/s | -61.9°C | 30.8% | 0hPa | 2.4V | 00:00:00 | 00:00:00 | 00:00:00 | |
| OE5DRO-10 | 2026-09-06 01:36:06 | 47.58519 | 17.97648 | 134° | 168km/h | 12731m | -13.8m/s | -62.2°C | 30.6% | 0hPa | 2.2V | 00:00:00 | 00:00:00 | 00:00:00 | |
| PG1ADW-2 | 2026-09-06 01:36:05 | 47.58550 | 17.97600 | 134° | 166km/h | 12745m | -13.4m/s | -62.3°C | 30.3% | 0hPa | 2.2V | 00:00:00 | 00:00:00 | 00:00:00 | |
| HA6NAB-11 | 2026-09-06 01:36:03 | 47.58580 | 17.97553 | 135° | 172km/h | 12758m | -14.2m/s | -62.4°C | 22.7% | 0hPa | 2.2V | 00:00:00 | 00:00:00 | 00:00:00 | |
| OE3OSB-13 | 2026-09-06 01:36:02 | 47.58640 | 17.97460 | 133° | 172km/h | 12787m | -14.4m/s | -62.5°C | 21.4% | -1.0hPa | 2.2V | 00:00:00 | 00:00:00 | 00:00:00 | |
| PETON7-10 | 2026-09-06 01:36:01 | 47.58670 | 17.97414 | 135° | 166km/h | 12801m | -13.4m/s | -62.4°C | 28.8% | 0hPa | 2.2V | 00:00:00 | 02:20:26 | 00:00:00 | |
| OM5KV | 2026-09-06 01:35:57 | 47.58763 | 17.97277 | 137° | 172km/h | 12843m | -15.0m/s | -61.9°C | 19.0% | 0hPa | 2.2V | 08:17:00 | 00:00:00 | 00:00:00 | |
| OM5KV | 2026-09-06 01:35:56 | 47.58793 | 17.97232 | 137° | 170km/h | 12859m | -14.7m/s | -61.9°C | 18.6% | 0hPa | 2.2V | 08:17:00 | 00:00:00 | 00:00:00 | |
| OM5KV | 2026-09-06 01:35:55 | 47.58825 | 17.97188 | 139° | 172km/h | 12874m | -13.4m/s | -61.9°C | 18.4% | 0hPa | 2.2V | 08:17:00 | 00:00:00 | 00:00:00 | |
| OM5KV | 2026-09-06 01:35:51 | 47.58949 | 17.97021 | 141° | 164km/h | 12932m | -14.4m/s | -61.0°C | 15.8% | 0hPa | 2.2V | 08:17:00 | 00:00:00 | 00:00:00 | |
| OE5DRO-10 | 2026-09-06 01:35:47 | 47.59103 | 17.96831 | 143° | 133km/h | 13003m | -14.0m/s | -60.2°C | 19.5% | 0hPa | 2.2V | 08:17:00 | 00:00:00 | 00:00:00 | |
| PETON7-10 | 2026-09-06 01:35:46 | 47.59133 | 17.96795 | 142° | 133km/h | 13016m | -14.3m/s | -59.8°C | 18.8% | 0hPa | 2.2V | 00:00:00 | 00:00:00 | 00:00:00 | |
| PG1ADW-2 | 2026-09-06 01:35:45 | 47.59162 | 17.96761 | 141° | 131km/h | 13031m | -14.2m/s | -59.4°C | 17.9% | 0hPa | 2.4V | 00:00:00 | 00:00:00 | 00:00:00 | |
| OE3JTB-15 | 2026-09-06 01:35:39 | 47.59325 | 17.96564 | 140° | 130km/h | 13120m | -14.8m/s | -58.8°C | 16.1% | 0hPa | 2.4V | 00:00:00 | 00:00:00 | 00:00:00 | |
| OM5KV | 2026-09-06 01:35:38 | 47.59325 | 17.96564 | 140° | 131km/h | 13120m | -14.8m/s | -58.8°C | 11.3% | 0hPa | 2.4V | 08:18:00 | 00:00:00 | 00:00:00 | |
| OM5KV | 2026-09-06 01:35:35 | 47.59399 | 17.96468 | 138° | 130km/h | 13163m | -14.3m/s | -58.7°C | 10.2% | 0hPa | 2.4V | 08:18:00 | 00:00:00 | 00:00:00 | |
| OE3OSB-13 | 2026-09-06 01:35:32 | 47.59511 | 17.96302 | 132° | 122km/h | 13239m | -14.6m/s | -58.7°C | 8.5% | -1.0hPa | 2.4V | 00:00:00 | 00:00:00 | 00:00:00 | |
| PETON7-10 | 2026-09-06 01:35:31 | 47.59511 | 17.96302 | 133° | 128km/h | 13239m | -14.6m/s | -58.7°C | 12.9% | 0hPa | 2.4V | 00:00:00 | 00:00:00 | 00:00:00 | |
| S52SK | 2026-09-06 01:35:30 | 47.59511 | 17.96302 | 133° | 124km/h | 13239m | -14.6m/s | -58.7°C | 8.7% | 0hPa | 2.4V | 00:00:00 | 00:00:00 | 00:00:00 | |
| OE5DRO-10 | 2026-09-06 01:35:28 | 47.59573 | 17.96198 | 132° | 130km/h | 13285m | -15.4m/s | -58.7°C | 12.3% | 0hPa | 2.4V | 00:00:00 | 00:00:00 | 00:00:00 | |
| OM5KV | 2026-09-06 01:35:26 | 47.59594 | 17.96162 | 130° | 124km/h | 13300m | -14.8m/s | -58.7°C | 8.1% | 0hPa | 2.4V | 08:18:00 | 00:00:00 | 00:00:00 | |
| PG1ADW-2 | 2026-09-06 01:35:25 | 47.59634 | 17.96088 | 128° | 131km/h | 13330m | -15.2m/s | -58.7°C | 11.7% | 0hPa | 2.4V | 08:18:00 | 02:19:50 | 00:00:00 | |
| HA6NAB-11 | 2026-09-06 01:35:23 | 47.59654 | 17.96050 | 128° | 131km/h | 13346m | -15.4m/s | -58.7°C | 7.5% | 0hPa | 2.4V | 08:18:00 | 00:00:00 | 00:00:00 | |
| S52SK | 2026-09-06 01:35:20 | 47.59713 | 17.95934 | 128° | 130km/h | 13394m | -16.0m/s | -59.1°C | 7.0% | 0hPa | 2.4V | 00:00:00 | 00:00:00 | 00:00:00 | |
| HA6NAB-11 | 2026-09-06 01:35:17 | 47.59771 | 17.95817 | 127° | 133km/h | 13440m | -15.3m/s | -59.5°C | 6.7% | 0hPa | 2.4V | 08:18:00 | 00:00:00 | 00:00:00 | |
| PETON7-10 | 2026-09-06 01:35:16 | 47.59811 | 17.95739 | 128° | 131km/h | 13470m | -14.9m/s | -59.8°C | 10.6% | 0hPa | 2.4V | 00:00:00 | 02:19:41 | 00:00:00 | |
| OM5KV | 2026-09-06 01:35:14 | 47.59831 | 17.95699 | 127° | 133km/h | 13485m | -15.5m/s | -59.9°C | 6.3% | 0hPa | 2.4V | 08:18:00 | 00:00:00 | 00:00:00 | |
| HA6NAB-11 | 2026-09-06 01:35:12 | 47.59872 | 17.95620 | 129° | 135km/h | 13517m | -16.4m/s | -60.2°C | 6.0% | 0hPa | 2.4V | 08:18:00 | 00:00:00 | 00:00:00 | |
| OM5KV | 2026-09-06 01:35:11 | 47.59892 | 17.95580 | 128° | 135km/h | 13533m | -16.2m/s | -60.3°C | 5.8% | 0hPa | 2.4V | 08:18:00 | 00:00:00 | 00:00:00 | |
| OE3JTB-15 | 2026-09-06 01:35:09 | 47.59954 | 17.95460 | 128° | 130km/h | 13581m | -16.6m/s | -60.2°C | 9.2% | 0hPa | 2.4V | 00:00:00 | 02:19:34 | 00:00:00 | |
| OM5KV | 2026-09-06 01:35:08 | 47.59975 | 17.95422 | 130° | 131km/h | 13596m | -15.2m/s | -60.3°C | 5.0% | 0hPa | 2.4V | 08:18:00 | 00:00:00 | 00:00:00 | |
| OM5KV | 2026-09-06 01:35:06 | 47.59995 | 17.95383 | 129° | 131km/h | 13612m | -16.3m/s | -60.2°C | 4.8% | 0hPa | 2.4V | 08:18:00 | 00:00:00 | 00:00:00 | |
| PG1ADW-2 | 2026-09-06 01:35:05 | 47.60036 | 17.95308 | 129° | 113km/h | 13645m | -16.6m/s | -60.2°C | 8.3% | 0hPa | 2.4V | 00:00:00 | 00:00:00 | 00:00:00 | |
| OM5KV | 2026-09-06 01:35:01 | 47.60096 | 17.95197 | 129° | 122km/h | 13695m | -16.8m/s | -60.3°C | 4.0% | 0hPa | 2.4V | 08:18:00 | 00:00:00 | 00:00:00 | |
| OE3OSB-13 | 2026-09-06 01:35:00 | 47.60134 | 17.95125 | 128° | 120km/h | 13729m | -17.0m/s | -60.1°C | 3.5% | -1.0hPa | 2.4V | 00:00:00 | 00:00:00 | 00:00:00 | |
| OM5KV | 2026-09-06 01:34:55 | 47.60201 | 17.94986 | 125° | 111km/h | 13796m | -16.6m/s | -59.0°C | 3.1% | 0hPa | 2.4V | 08:19:00 | 00:00:00 | 00:00:00 | |
| HA6NAB-11 | 2026-09-06 01:34:54 | 47.60217 | 17.94951 | 122° | 110km/h | 13812m | -15.9m/s | -59.0°C | 3.0% | 0hPa | 2.4V | 08:19:00 | 00:00:00 | 00:00:00 | |
| OE5DRO-10 | 2026-09-06 01:34:50 | 47.60281 | 17.94779 | 115° | 108km/h | 13895m | -17.2m/s | -59.3°C | 6.3% | 0hPa | 2.4V | 00:00:00 | 00:00:00 | 00:00:00 | |
| PETON7-10 | 2026-09-06 01:34:46 | 47.60318 | 17.94633 | 105° | 110km/h | 13964m | -16.5m/s | -58.9°C | 6.0% | 0hPa | 2.5V | 00:00:00 | 00:00:00 | 00:00:00 | |
| PG1ADW-2 | 2026-09-06 01:34:45 | 47.60324 | 17.94596 | 105° | 111km/h | 13982m | -17.0m/s | -58.9°C | 6.0% | 0hPa | 2.5V | 00:00:00 | 00:00:00 | 00:00:00 | |
| OM5KV | 2026-09-06 01:34:44 | 47.60324 | 17.94596 | 105° | 106km/h | 13982m | -17.0m/s | -58.9°C | 2.7% | 0hPa | 2.5V | 08:19:00 | 00:00:00 | 00:00:00 | |
| OE3JTB-15 | 2026-09-06 01:34:39 | 47.60358 | 17.94359 | 102° | 108km/h | 14084m | -16.5m/s | -58.1°C | 5.5% | 0hPa | 2.5V | 08:18:00 | 00:00:00 | 00:00:00 | |
| OM5KV | 2026-09-06 01:34:38 | 47.60358 | 17.94358 | 103° | 110km/h | 14084m | -16.5m/s | -58.2°C | 2.4% | 0hPa | 2.2V | 08:19:00 | 00:00:00 | 00:00:00 | |
| OM5KV | 2026-09-06 01:34:32 | 47.60389 | 17.94115 | 102° | 113km/h | 14181m | -16.2m/s | -58.1°C | 2.3% | 0hPa | 2.2V | 08:19:00 | 00:00:00 | 00:00:00 | |
| PETON7-10 | 2026-09-06 01:34:31 | 47.60401 | 17.94033 | 101° | 111km/h | 14213m | -15.6m/s | -58.0°C | 5.3% | 0hPa | 2.2V | 00:00:00 | 02:18:56 | 00:00:00 | |
| OE3OSB-13 | 2026-09-06 01:34:30 | 47.60421 | 17.93909 | 102° | 111km/h | 14260m | -15.7m/s | -58.3°C | 2.1% | -1.0hPa | 2.2V | 00:00:00 | 00:00:00 | 00:00:00 | |
| OM5KV | 2026-09-06 01:34:28 | 47.60421 | 17.93909 | 104° | 111km/h | 14261m | -15.7m/s | -58.3°C | 2.3% | 0hPa | 2.2V | 08:19:00 | 00:00:00 | 00:00:00 | |
| OM5KV | 2026-09-06 01:34:27 | 47.60421 | 17.93909 | 104° | 111km/h | 14261m | -15.7m/s | -58.3°C | 2.3% | 0hPa | 2.2V | 08:19:00 | 00:00:00 | 00:00:00 | |
| PG1ADW-2 | 2026-09-06 01:34:25 | 47.60442 | 17.93785 | 107° | 108km/h | 14309m | -16.4m/s | -58.3°C | 5.3% | 0hPa | 2.2V | 00:00:00 | 00:00:00 | 00:00:00 | |
| OM5KV | 2026-09-06 01:34:22 | 47.60458 | 17.93704 | 107° | 113km/h | 14341m | -15.8m/s | -58.5°C | 2.2% | 0hPa | 2.5V | 08:19:00 | 00:00:00 | 00:00:00 | |
| OM5KV | 2026-09-06 01:34:21 | 47.60465 | 17.93664 | 106° | 110km/h | 14357m | -15.6m/s | -58.5°C | 2.3% | 0hPa | 2.5V | 08:19:00 | 00:00:00 | 00:00:00 | |
| S52SK | 2026-09-06 01:34:19 | 47.60480 | 17.93584 | 109° | 110km/h | 14388m | -16.1m/s | -58.5°C | 2.3% | 0hPa | 2.5V | 00:00:00 | 00:00:00 | 00:00:00 | |
| HA6NAB-11 | 2026-09-06 01:34:18 | 47.60488 | 17.93546 | 107° | 108km/h | 14405m | -16.2m/s | -58.3°C | 2.2% | 0hPa | 2.5V | 08:19:00 | 00:00:00 | 00:00:00 | |
| PETON7-10 | 2026-09-06 01:34:16 | 47.60512 | 17.93431 | 107° | 106km/h | 14451m | -15.4m/s | -58.3°C | 5.4% | 0hPa | 2.5V | 08:19:00 | 00:00:00 | 00:00:00 | |
| S52SK | 2026-09-06 01:34:13 | 47.60528 | 17.93357 | 109° | 104km/h | 14480m | -15.6m/s | -58.3°C | 2.2% | 0hPa | 2.2V | 00:00:00 | 00:00:00 | 00:00:00 | |
| OE5DRO-10 | 2026-09-06 01:34:12 | 47.60545 | 17.93284 | 110° | 104km/h | 14511m | -16.2m/s | -57.9°C | 5.2% | 0hPa | 2.2V | 00:00:00 | 00:00:00 | 00:00:00 | |
| OM5KV | 2026-09-06 01:34:11 | 47.60546 | 17.93283 | 110° | 104km/h | 14511m | -16.3m/s | -58.0°C | 2.1% | 0hPa | 2.2V | 08:19:00 | 00:00:00 | 00:00:00 | |
| OM5KV | 2026-09-06 01:34:10 | 47.60554 | 17.93246 | 109° | 104km/h | 14527m | -16.2m/s | -58.1°C | 2.1% | 0hPa | 2.2V | 08:19:00 | 00:00:00 | 00:00:00 | |
| OM5KV | 2026-09-06 01:34:09 | 47.60563 | 17.93209 | 111° | 106km/h | 14543m | -17.1m/s | -58.1°C | 2.1% | 0hPa | 2.2V | 08:19:00 | 00:00:00 | 00:00:00 | |
| OE5DXL-15 | 2026-09-06 01:34:08 | 47.60583 | 17.93135 | 112° | 97km/h | 14576m | -15.7m/s | -58.2°C | 5.2% | 0hPa | 2.2V | 00:00:00 | 00:00:00 | 00:00:00 | |
| HA6NAB-11 | 2026-09-06 01:34:07 | 47.60583 | 17.93135 | 112° | 110km/h | 14576m | -15.8m/s | -58.3°C | 2.1% | 0hPa | 2.5V | 08:19:00 | 00:00:00 | 00:00:00 | |
| PG1ADW-2 | 2026-09-06 01:34:05 | 47.60614 | 17.93024 | 113° | 99km/h | 14625m | -17.1m/s | -58.5°C | 5.3% | 0hPa | 2.5V | 00:00:00 | 02:18:30 | 00:00:00 | |
| OM5KV | 2026-09-06 01:34:03 | 47.60625 | 17.92986 | 115° | 110km/h | 14642m | -16.7m/s | -58.6°C | 2.2% | 0hPa | 2.5V | 08:20:00 | 00:00:00 | 00:00:00 | |
| HA6NAB-11 | 2026-09-06 01:34:01 | 47.60648 | 17.92914 | 116° | 104km/h | 14676m | -17.1m/s | -58.6°C | 2.2% | 0hPa | 2.5V | 08:20:00 | 00:00:00 | 00:00:00 | |
| OE3OSB-13 | 2026-09-06 01:33:58 | 47.60704 | 17.92740 | 114° | 100km/h | 14761m | -16.9m/s | -58.5°C | 1.9% | -1.0hPa | 2.5V | 00:00:00 | 00:00:00 | 00:00:00 | |
| HA6NAB-11 | 2026-09-06 01:33:56 | 47.60704 | 17.92740 | 115° | 102km/h | 14761m | -16.9m/s | -58.5°C | 2.1% | 0hPa | 2.5V | 08:20:00 | 00:00:00 | 00:00:00 | |
| OM5KV | 2026-09-06 01:33:54 | 47.60725 | 17.92673 | 114° | 100km/h | 14793m | -15.7m/s | -58.6°C | 2.1% | 0hPa | 2.5V | 08:20:00 | 00:00:00 | 00:00:00 | |
| OE5DRO-10 | 2026-09-06 01:33:53 | 47.60744 | 17.92605 | 113° | 89km/h | 14825m | -16.2m/s | -58.6°C | 5.2% | 0hPa | 2.5V | 00:00:00 | 00:00:00 | 00:00:00 | |
| HA6NAB-11 | 2026-09-06 01:33:50 | 47.60760 | 17.92540 | 110° | 95km/h | 14859m | -17.3m/s | -58.7°C | 2.0% | 0hPa | 2.5V | 08:20:00 | 00:00:00 | 00:00:00 | |
| PETON7-10 | 2026-09-06 01:33:46 | 47.60797 | 17.92376 | 107° | 88km/h | 14942m | -17.2m/s | -58.9°C | 5.1% | 0hPa | 2.5V | 00:00:00 | 02:18:11 | 00:00:00 | |
| PG1ADW-2 | 2026-09-06 01:33:45 | 47.60803 | 17.92343 | 107° | 86km/h | 14958m | -17.2m/s | -58.9°C | 5.1% | 0hPa | 2.5V | 00:00:00 | 00:00:00 | 00:00:00 | |
| OM5KV | 2026-09-06 01:33:42 | 47.60814 | 17.92279 | 105° | 88km/h | 14991m | -16.6m/s | -59.0°C | 2.0% | 0hPa | 2.5V | 08:20:00 | 00:00:00 | 00:00:00 | |
| OE5DXL-15 | 2026-09-06 01:33:38 | 47.60843 | 17.92120 | 108° | 88km/h | 15074m | -17.3m/s | -59.0°C | 5.0% | 0hPa | 2.5V | 00:00:00 | 00:00:00 | 00:00:00 | |
| OM5KV | 2026-09-06 01:33:37 | 47.60850 | 17.92089 | 108° | 86km/h | 15092m | -17.1m/s | -58.9°C | 1.9% | 0hPa | 2.5V | 08:20:00 | 00:00:00 | 00:00:00 | |
| OE5DRO-10 | 2026-09-06 01:33:34 | 47.60867 | 17.91998 | 103° | 86km/h | 15143m | -17.2m/s | -59.0°C | 4.8% | 0hPa | 2.5V | 00:00:00 | 00:00:00 | 00:00:00 | |
| OM5KV | 2026-09-06 01:33:32 | 47.60871 | 17.91968 | 103° | 84km/h | 15161m | -17.5m/s | -59.1°C | 1.8% | 0hPa | 2.5V | 08:20:00 | 00:00:00 | 00:00:00 | |
| PETON7-10 | 2026-09-06 01:33:31 | 47.60880 | 17.91907 | 101° | 88km/h | 15195m | -18.3m/s | -59.3°C | 4.9% | 0hPa | 2.5V | 00:00:00 | 00:00:00 | 00:00:00 | |
| OE3JTB-15 | 2026-09-06 01:33:30 | 47.60884 | 17.91875 | 102° | 89km/h | 15213m | -17.9m/s | -59.5°C | 4.9% | 0hPa | 2.4V | 00:00:00 | 02:17:55 | 00:00:00 | |
| OM5KV | 2026-09-06 01:33:29 | 47.60884 | 17.91875 | 102° | 88km/h | 15213m | -18.0m/s | -59.5°C | 1.9% | 0hPa | 2.4V | 08:20:00 | 00:00:00 | 00:00:00 | |
| OE3OSB-13 | 2026-09-06 01:33:27 | 47.60898 | 17.91751 | 98° | 88km/h | 15284m | -17.2m/s | -60.0°C | 1.7% | -1.0hPa | 2.4V | 00:00:00 | 00:00:00 | 00:00:00 | |
| OM5KV | 2026-09-06 01:33:25 | 47.60901 | 17.91718 | 100° | 86km/h | 15301m | -18.3m/s | -60.2°C | 1.9% | 0hPa | 2.4V | 08:20:00 | 00:00:00 | 00:00:00 | |
| 9A1FER-3 | 2026-09-06 01:33:21 | 47.60911 | 17.91589 | 97° | 80km/h | 15371m | -17.7m/s | 0°C | 0% | 0hPa | 2.4V | 00:00:00 | 02:17:46 | 00:00:00 | |
| OM5KV | 2026-09-06 01:33:20 | 47.60911 | 17.91589 | 97° | 89km/h | 15371m | -17.7m/s | -60.7°C | 2.0% | 0hPa | 2.4V | 08:20:00 | 00:00:00 | 00:00:00 | |
| OM5KV | 2026-09-06 01:33:19 | 47.60913 | 17.91555 | 97° | 89km/h | 15388m | -17.9m/s | -60.8°C | 2.0% | 0hPa | 2.4V | 08:20:00 | 00:00:00 | 00:00:00 | |
| PETON7-10 | 2026-09-06 01:33:16 | 47.60924 | 17.91424 | 97° | 91km/h | 15461m | -19.2m/s | -61.3°C | 5.6% | 0hPa | 2.4V | 00:00:00 | 00:00:00 | 00:00:00 | |
| OE5DRO-10 | 2026-09-06 01:33:15 | 47.60926 | 17.91392 | 95° | 91km/h | 15481m | -19.1m/s | -61.4°C | 5.6% | 0hPa | 2.4V | 00:00:00 | 00:00:00 | 00:00:00 | |
| OM5KV | 2026-09-06 01:33:14 | 47.60926 | 17.91392 | 95° | 88km/h | 15481m | -19.2m/s | -61.5°C | 2.0% | 0hPa | 2.4V | 08:21:00 | 00:00:00 | 00:00:00 | |
| S52SK | 2026-09-06 01:33:13 | 47.60929 | 17.91358 | 98° | 91km/h | 15500m | -18.0m/s | -61.5°C | 2.0% | 0hPa | 2.4V | 00:00:00 | 00:00:00 | 00:00:00 | |
| OM5KV | 2026-09-06 01:33:12 | 47.60931 | 17.91325 | 97° | 89km/h | 15517m | -17.3m/s | -61.3°C | 2.0% | 0hPa | 2.4V | 08:21:00 | 00:00:00 | 00:00:00 | |
| HA6NAB-11 | 2026-09-06 01:33:09 | 47.60941 | 17.91224 | 103° | 93km/h | 15569m | -16.6m/s | -61.5°C | 2.0% | 0hPa | 2.4V | 00:00:00 | 00:00:00 | 00:00:00 | |
| OE5DXL-15 | 2026-09-06 01:33:08 | 47.60952 | 17.91157 | 105° | 88km/h | 15605m | -18.1m/s | -61.4°C | 5.6% | 0hPa | 2.4V | 00:00:00 | 00:00:00 | 00:00:00 | |
| OM5KV | 2026-09-06 01:33:07 | 47.60952 | 17.91157 | 105° | 91km/h | 15605m | -18.1m/s | -61.5°C | 2.0% | 0hPa | 2.4V | 08:21:00 | 00:00:00 | 00:00:00 | |
| PG1ADW-2 | 2026-09-06 01:33:05 | 47.60969 | 17.91059 | 107° | 89km/h | 15657m | -17.6m/s | -61.0°C | 5.2% | 0hPa | 2.4V | 00:00:00 | 00:00:00 | 00:00:00 | |
| HA6NAB-11 | 2026-09-06 01:33:03 | 47.60976 | 17.91026 | 108° | 93km/h | 15675m | -18.0m/s | -61.1°C | 1.8% | 0hPa | 2.4V | 00:00:00 | 00:00:00 | 00:00:00 | |
| OM5KV | 2026-09-06 01:33:01 | 47.60991 | 17.90961 | 112° | 93km/h | 15710m | -17.8m/s | -61.4°C | 1.8% | 0hPa | 2.4V | 08:21:00 | 00:00:00 | 00:00:00 | |
| OE3OSB-13 | 2026-09-06 01:32:56 | 47.61058 | 17.90747 | 120° | 89km/h | 15836m | -18.0m/s | -61.2°C | 1.6% | -1.0hPa | 2.4V | 00:00:00 | 00:00:00 | 00:00:00 | |
| HA6NAB-11 | 2026-09-06 01:32:52 | 47.61081 | 17.90689 | 122° | 91km/h | 15871m | -17.7m/s | -61.3°C | 1.8% | 0hPa | 2.4V | 00:00:00 | 00:00:00 | 00:00:00 | |
| OM5KV | 2026-09-06 01:32:50 | 47.61105 | 17.90634 | 124° | 86km/h | 15906m | -18.5m/s | -61.5°C | 1.8% | 0hPa | 2.4V | 08:21:00 | 00:00:00 | 00:00:00 | |
| PETON7-10 | 2026-09-06 01:32:46 | 47.61169 | 17.90504 | 130° | 86km/h | 15995m | -18.9m/s | -61.6°C | 5.6% | 0hPa | 2.4V | 00:00:00 | 00:00:00 | 00:00:00 | |
| PG1ADW-2 | 2026-09-06 01:32:45 | 47.61182 | 17.90480 | 129° | 88km/h | 16014m | -19.6m/s | -61.7°C | 5.6% | 0hPa | 2.2V | 00:00:00 | 02:17:10 | 00:00:00 | |
| OM5KV | 2026-09-06 01:32:44 | 47.61183 | 17.90480 | 130° | 80km/h | 16014m | -19.7m/s | -61.7°C | 1.8% | 0hPa | 2.2V | 08:21:00 | 00:00:00 | 00:00:00 | |
| OM5KV | 2026-09-06 01:32:40 | 47.61234 | 17.90382 | 128° | 82km/h | 16088m | -17.7m/s | -61.9°C | 1.8% | 0hPa | 2.2V | 08:21:00 | 00:00:00 | 00:00:00 | |
| OE5DXL-15 | 2026-09-06 01:32:38 | 47.61274 | 17.90305 | 130° | 89km/h | 16141m | -18.5m/s | -61.8°C | 6.0% | 0hPa | 2.2V | 00:00:00 | 00:00:00 | 00:00:00 | |
| OE5DRO-10 | 2026-09-06 01:32:37 | 47.61288 | 17.90279 | 128° | 89km/h | 16159m | -18.1m/s | -61.7°C | 5.9% | 0hPa | 2.4V | 00:00:00 | 00:00:00 | 00:00:00 | |
| OE3JTB-15 | 2026-09-06 01:32:32 | 47.61360 | 17.90147 | 132° | 88km/h | 16251m | -18.8m/s | -61.0°C | 5.8% | 0hPa | 2.4V | 00:00:00 | 00:00:00 | 00:00:00 | |
| PETON7-10 | 2026-09-06 01:32:31 | 47.61375 | 17.90122 | 131° | 88km/h | 16270m | -18.0m/s | -60.8°C | 5.7% | 0hPa | 2.4V | 00:00:00 | 00:00:00 | 00:00:00 | |
| OM5KV | 2026-09-06 01:32:26 | 47.61435 | 17.90023 | 134° | 88km/h | 16344m | -19.8m/s | -60.6°C | 1.7% | 0hPa | 2.4V | 08:21:00 | 00:00:00 | 00:00:00 | |
| OE3OSB-13 | 2026-09-06 01:32:25 | 47.61479 | 17.89950 | 131° | 89km/h | 16403m | -20.2m/s | -60.2°C | 1.4% | -1.0hPa | 2.4V | 00:00:00 | 00:00:00 | 00:00:00 | |
| OM5KV | 2026-09-06 01:32:21 | 47.61508 | 17.89899 | 129° | 86km/h | 16444m | -20.3m/s | -59.6°C | 1.6% | 0hPa | 2.4V | 08:21:00 | 00:00:00 | 00:00:00 | |
| OM5KV | 2026-09-06 01:32:20 | 47.61522 | 17.89874 | 131° | 88km/h | 16464m | -20.6m/s | -59.6°C | 1.6% | 0hPa | 2.4V | 08:21:00 | 00:00:00 | 00:00:00 | |
| OE5DRO-10 | 2026-09-06 01:32:18 | 47.61566 | 17.89797 | 130° | 82km/h | 16525m | -18.3m/s | -59.9°C | 5.9% | 0hPa | 2.4V | 00:00:00 | 00:00:00 | 00:00:00 | |
| PETON7-10 | 2026-09-06 01:32:16 | 47.61595 | 17.89747 | 130° | 84km/h | 16562m | -19.3m/s | -59.4°C | 5.9% | 0hPa | 2.4V | 00:00:00 | 02:16:41 | 00:00:00 | |
| OM5KV | 2026-09-06 01:32:15 | 47.61595 | 17.89747 | 131° | 88km/h | 16562m | -19.4m/s | -59.5°C | 1.7% | 0hPa | 2.4V | 08:21:00 | 00:00:00 | 00:00:00 | |
| OM5KV | 2026-09-06 01:32:14 | 47.61610 | 17.89721 | 133° | 93km/h | 16581m | -20.3m/s | -58.7°C | 1.5% | 0hPa | 2.4V | 08:21:00 | 00:00:00 | 00:00:00 | |
| HA6NAB-11 | 2026-09-06 01:32:11 | 47.61657 | 17.89649 | 135° | 84km/h | 16642m | -20.7m/s | -56.1°C | 1.2% | 0hPa | 2.4V | 00:00:00 | 00:00:00 | 00:00:00 | |
| GYPAP8-17 | 2026-09-06 01:32:09 | 47.61687 | 17.89603 | 137° | 88km/h | 16683m | -20.6m/s | -55.6°C | 1.1% | 0hPa | 2.4V | 00:00:00 | 00:00:00 | 00:00:00 | |
| OE5DXL-15 | 2026-09-06 01:32:08 | 47.61718 | 17.89558 | 134° | 57km/h | 16722m | -21.0m/s | -55.6°C | 4.3% | 0hPa | 2.4V | 00:00:00 | 00:00:00 | 00:00:00 | |
| S52SK | 2026-09-06 01:32:07 | 47.61718 | 17.89557 | 135° | 86km/h | 16722m | -21.1m/s | -55.6°C | 1.2% | 0hPa | 2.4V | 00:00:00 | 00:00:00 | 00:00:00 | |
| HA6NAB-11 | 2026-09-06 01:32:06 | 47.61733 | 17.89534 | 135° | 88km/h | 16743m | -21.3m/s | -55.5°C | 1.2% | 0hPa | 2.4V | 00:00:00 | 00:00:00 | 00:00:00 | |
| PG1ADW-2 | 2026-09-06 01:32:05 | 47.61763 | 17.89491 | 136° | 57km/h | 16784m | -19.6m/s | -54.9°C | 4.1% | 0hPa | 2.4V | 00:00:00 | 00:00:00 | 00:00:00 | |
| OM5KV | 2026-09-06 01:32:04 | 47.61763 | 17.89491 | 136° | 77km/h | 16784m | -19.7m/s | -54.9°C | 1.1% | 0hPa | 2.4V | 08:21:00 | 00:00:00 | 00:00:00 | |
| OE3JTB-15 | 2026-09-06 01:32:03 | 47.61790 | 17.89452 | 135° | 64km/h | 16821m | -18.3m/s | -53.8°C | 3.7% | 0hPa | 2.4V | 00:00:00 | 02:16:28 | 00:00:00 | |
| S52SK | 2026-09-06 01:32:01 | 47.61802 | 17.89433 | 133° | 71km/h | 16838m | -18.9m/s | -53.7°C | 0.9% | 0hPa | 2.4V | 00:00:00 | 00:00:00 | 00:00:00 | |
| OE3OSB-13 | 2026-09-06 01:31:54 | 47.61873 | 17.89263 | 103° | 49km/h | 17010m | -19.9m/s | -52.4°C | 0.7% | -1.0hPa | 2.4V | 00:00:00 | 00:00:00 | 00:00:00 | |
| OM5KV | 2026-09-06 01:31:51 | 47.61875 | 17.89244 | 101° | 49km/h | 17030m | -19.8m/s | -52.2°C | 0.8% | 0hPa | 2.4V | 08:21:00 | 00:00:00 | 00:00:00 | |
| HA6NAB-11 | 2026-09-06 01:31:48 | 47.61879 | 17.89194 | 89° | 44km/h | 17090m | -20.1m/s | -51.8°C | 0.8% | 0hPa | 2.4V | 00:00:00 | 00:00:00 | 00:00:00 | |
| OM5KV | 2026-09-06 01:31:47 | 47.61879 | 17.89178 | 92° | 40km/h | 17110m | -19.9m/s | -51.8°C | 0.8% | 0hPa | 2.4V | 08:21:00 | 00:00:00 | 00:00:00 | |
| PETON7-10 | 2026-09-06 01:31:46 | 47.61876 | 17.89148 | 80° | 46km/h | 17150m | -22.4m/s | -52.1°C | 2.9% | 0hPa | 2.4V | 00:00:00 | 00:00:00 | 00:00:00 | |
| PG1ADW-2 | 2026-09-06 01:31:45 | 47.61875 | 17.89132 | 83° | 47km/h | 17173m | -22.2m/s | -52.3°C | 3.0% | 0hPa | 2.4V | 00:00:00 | 00:00:00 | 00:00:00 | |
| OM5KV | 2026-09-06 01:31:43 | 47.61873 | 17.89116 | 77° | 42km/h | 17194m | -21.7m/s | -52.6°C | 0.8% | 0hPa | 2.4V | 08:21:00 | 00:00:00 | 00:00:00 | |
| HA6NAB-11 | 2026-09-06 01:31:42 | 47.61870 | 17.89100 | 77° | 44km/h | 17216m | -22.0m/s | -52.8°C | 0.8% | 0hPa | 2.4V | 00:00:00 | 00:00:00 | 00:00:00 | |
| OE5DRO-10 | 2026-09-06 01:31:40 | 47.61863 | 17.89054 | 79° | 53km/h | 17280m | -21.5m/s | -53.3°C | 3.2% | 0hPa | 2.4V | 00:00:00 | 00:00:00 | 00:00:00 | |
| OE5DXL-15 | 2026-09-06 01:31:38 | 47.61857 | 17.89022 | 74° | 58km/h | 17321m | -19.6m/s | -53.7°C | 3.3% | 0hPa | 2.4V | 00:00:00 | 00:00:00 | 00:00:00 | |
| PETON7-10 | 2026-09-06 01:31:31 | 47.61833 | 17.88904 | 73° | 58km/h | 17459m | -20.5m/s | -54.9°C | 3.5% | 0hPa | 2.4V | 00:00:00 | 02:15:56 | 00:00:00 | |
| OM5KV | 2026-09-06 01:31:30 | 47.61833 | 17.88904 | 73° | 51km/h | 17459m | -20.5m/s | -55.0°C | 1.0% | 0hPa | 2.4V | 08:22:00 | 00:00:00 | 00:00:00 | |
| OM5KV | 2026-09-06 01:31:29 | 47.61829 | 17.88885 | 74° | 55km/h | 17479m | -20.0m/s | -55.1°C | 1.0% | 0hPa | 2.4V | 08:22:00 | 00:00:00 | 00:00:00 | |
| PG1ADW-2 | 2026-09-06 01:31:25 | 47.61807 | 17.88785 | 75° | 64km/h | 17579m | -21.4m/s | -55.1°C | 3.6% | 0hPa | 2.4V | 00:00:00 | 02:15:50 | 00:00:00 | |
| OM5KV | 2026-09-06 01:31:24 | 47.61807 | 17.88785 | 76° | 58km/h | 17579m | -21.5m/s | -55.2°C | 1.0% | 0hPa | 2.4V | 08:22:00 | 00:00:00 | 00:00:00 | |
| GYPAP8-17 | 2026-09-06 01:31:23 | 47.61803 | 17.88763 | 73° | 62km/h | 17600m | -20.0m/s | -55.4°C | 0.9% | 0hPa | 2.4V | 00:00:00 | 00:00:00 | 00:00:00 | |
| OE3OSB-13 | 2026-09-06 01:31:22 | 47.61795 | 17.88720 | 75° | 62km/h | 17638m | -17.6m/s | -55.6°C | 0.9% | -1.0hPa | 2.4V | 00:00:00 | 00:00:00 | 00:00:00 | |
| OE5DRO-10 | 2026-09-06 01:31:21 | 47.61790 | 17.88697 | 73° | 66km/h | 17656m | -19.6m/s | -55.6°C | 3.7% | 0hPa | 2.4V | 00:00:00 | 00:00:00 | 00:00:00 | |
| OM5KV | 2026-09-06 01:31:17 | 47.61780 | 17.88630 | 81° | 64km/h | 17713m | -20.7m/s | -55.6°C | 1.0% | 0hPa | 2.4V | 08:22:00 | 00:00:00 | 00:00:00 | |
| PETON7-10 | 2026-09-06 01:31:16 | 47.61775 | 17.88585 | 79° | 68km/h | 17754m | -21.1m/s | -55.8°C | 3.8% | 0hPa | 2.4V | 00:00:00 | 00:00:00 | 00:00:00 | |
| OM5KV | 2026-09-06 01:31:14 | 47.61772 | 17.88562 | 82° | 66km/h | 17775m | -20.4m/s | -56.1°C | 1.0% | 0hPa | 2.5V | 08:22:00 | 00:00:00 | 00:00:00 | |
| OM5KV | 2026-09-06 01:31:12 | 47.61766 | 17.88515 | 85° | 66km/h | 17816m | -20.8m/s | -56.4°C | 1.1% | 0hPa | 2.5V | 08:22:00 | 00:00:00 | 00:00:00 | |
| 9A1FER-3 | 2026-09-06 01:31:09 | 47.61760 | 17.88415 | 88° | 69km/h | 17895m | -20.0m/s | 0°C | 0% | 0hPa | 2.5V | 00:00:00 | 02:15:34 | 00:00:00 | |
| OE5DXL-15 | 2026-09-06 01:31:08 | 47.61759 | 17.88389 | 88° | 64km/h | 17915m | -19.7m/s | -57.1°C | 4.4% | 0hPa | 2.5V | 08:22:00 | 00:00:00 | 00:00:00 | |
| OM5KV | 2026-09-06 01:31:06 | 47.61759 | 17.88363 | 93° | 69km/h | 17934m | -19.1m/s | -57.3°C | 1.2% | 0hPa | 2.5V | 08:22:00 | 00:00:00 | 00:00:00 | |
| PG1ADW-2 | 2026-09-06 01:31:05 | 47.61760 | 17.88311 | 92° | 66km/h | 17975m | -20.6m/s | -57.5°C | 4.6% | 0hPa | 2.5V | 00:00:00 | 00:00:00 | 00:00:00 | |
| OM5KV | 2026-09-06 01:31:04 | 47.61761 | 17.88285 | 94° | 71km/h | 17995m | -20.4m/s | -57.6°C | 1.2% | 0hPa | 2.5V | 08:22:00 | 00:00:00 | 00:00:00 | |
| OE5DRO-10 | 2026-09-06 01:31:02 | 47.61765 | 17.88233 | 95° | 66km/h | 18036m | -19.3m/s | -57.4°C | 4.7% | 0hPa | 2.5V | 00:00:00 | 00:00:00 | 00:00:00 | |
| PETON7-10 | 2026-09-06 01:31:01 | 47.61767 | 17.88206 | 100° | 66km/h | 18055m | -19.4m/s | -57.2°C | 4.5% | 0hPa | 2.5V | 00:00:00 | 00:00:00 | 00:00:00 | |
| S52SK | 2026-09-06 01:31:00 | 47.61767 | 17.88206 | 100° | 73km/h | 18055m | -19.5m/s | -57.2°C | 1.2% | 0hPa | 2.5V | 00:00:00 | 00:00:00 | 00:00:00 | |
| OM5KV | 2026-09-06 01:30:58 | 47.61774 | 17.88154 | 101° | 68km/h | 18094m | -20.0m/s | -56.8°C | 1.1% | 0hPa | 2.5V | 08:22:00 | 00:00:00 | 00:00:00 | |
| OM5KV | 2026-09-06 01:30:55 | 47.61784 | 17.88080 | 100° | 64km/h | 18155m | -21.1m/s | -56.4°C | 1.1% | 0hPa | 2.5V | 08:22:00 | 00:00:00 | 00:00:00 | |
| 9A1FER-3 | 2026-09-06 01:30:54 | 47.61790 | 17.88033 | 101° | 60km/h | 18197m | -21.7m/s | 0°C | 0% | 0hPa | 2.5V | 00:00:00 | 02:15:19 | 00:00:00 | |
| OE3JTB-15 | 2026-09-06 01:30:53 | 47.61793 | 17.88009 | 101° | 35km/h | 18219m | -22.0m/s | -55.5°C | 4.0% | 0hPa | 2.5V | 00:00:00 | 00:00:00 | 00:00:00 | |
| OM5KV | 2026-09-06 01:30:52 | 47.61793 | 17.88009 | 102° | 62km/h | 18219m | -22.0m/s | -55.6°C | 1.0% | 0hPa | 2.5V | 08:22:00 | 00:00:00 | 00:00:00 | |
| DO3MHA-11 | 2026-09-06 01:30:51 | 47.61799 | 17.87964 | 103° | 60km/h | 18262m | -21.9m/s | -55.2°C | 3.9% | 0hPa | 2.5V | 00:00:00 | 02:15:16 | 00:00:00 | |
| OM5KV | 2026-09-06 01:30:48 | 47.61806 | 17.87918 | 108° | 62km/h | 18305m | -22.2m/s | -54.4°C | 0.9% | 0hPa | 2.5V | 08:22:00 | 00:00:00 | 00:00:00 | |
| OM5KV | 2026-09-06 01:30:47 | 47.61811 | 17.87896 | 106° | 64km/h | 18327m | -22.3m/s | -54.4°C | 0.9% | 0hPa | 2.5V | 08:22:00 | 00:00:00 | 00:00:00 | |
| PETON7-10 | 2026-09-06 01:30:46 | 47.61820 | 17.87851 | 111° | 57km/h | 18372m | -22.6m/s | -54.7°C | 3.7% | 0hPa | 2.5V | 00:00:00 | 02:15:11 | 00:00:00 | |
| PG1ADW-2 | 2026-09-06 01:30:45 | 47.61826 | 17.87830 | 114° | 58km/h | 18394m | -22.6m/s | -54.9°C | 3.8% | 0hPa | 2.5V | 00:00:00 | 00:00:00 | 00:00:00 | |
| OE5DRO-10 | 2026-09-06 01:30:43 | 47.61838 | 17.87790 | 115° | 58km/h | 18436m | -21.4m/s | -55.1°C | 3.9% | 0hPa | 2.5V | 00:00:00 | 00:00:00 | 00:00:00 | |
| DO3MHA-11 | 2026-09-06 01:30:41 | 47.61850 | 17.87751 | 117° | 57km/h | 18478m | -21.1m/s | -54.4°C | 3.7% | 0hPa | 2.5V | 00:00:00 | 02:15:06 | 00:00:00 | |
| 9A1FER-3 | 2026-09-06 01:30:39 | 47.61864 | 17.87714 | 120° | 33km/h | 18520m | -22.3m/s | 0°C | 0% | 0hPa | 2.5V | 00:00:00 | 02:15:04 | 00:00:00 | |
| OE5DXL-15 | 2026-09-06 01:30:38 | 47.61870 | 17.87696 | 117° | 51km/h | 18541m | -22.0m/s | -54.3°C | 3.6% | 0hPa | 2.5V | 00:00:00 | 00:00:00 | 00:00:00 | |
| GYPAP8-17 | 2026-09-06 01:30:36 | 47.61877 | 17.87678 | 119° | 55km/h | 18564m | -23.1m/s | -54.3°C | 0.9% | 0hPa | 2.5V | 00:00:00 | 00:00:00 | 00:00:00 | |
| OM5KV | 2026-09-06 01:30:34 | 47.61889 | 17.87641 | 116° | 57km/h | 18609m | -23.3m/s | -54.4°C | 0.9% | 0hPa | 2.5V | 08:23:00 | 00:00:00 | 00:00:00 | |
| PETON7-10 | 2026-09-06 01:30:31 | 47.61914 | 17.87560 | 115° | 55km/h | 18697m | -23.8m/s | -54.2°C | 3.7% | 0hPa | 2.5V | 00:00:00 | 00:00:00 | 00:00:00 | |
| HA6NAB-11 | 2026-09-06 01:30:28 | 47.61927 | 17.87519 | 116° | 62km/h | 18743m | -23.3m/s | -54.4°C | 0.9% | 0hPa | 2.5V | 00:00:00 | 00:00:00 | 00:00:00 | |
| OM5KV | 2026-09-06 01:30:27 | 47.61934 | 17.87499 | 121° | 62km/h | 18766m | -23.4m/s | -54.5°C | 0.9% | 0hPa | 2.5V | 08:23:00 | 00:00:00 | 00:00:00 | |
| PG1ADW-2 | 2026-09-06 01:30:25 | 47.61957 | 17.87442 | 123° | 42km/h | 18832m | -22.3m/s | -54.8°C | 3.9% | 0hPa | 2.5V | 00:00:00 | 00:00:00 | 00:00:00 | |
| OE5DRO-10 | 2026-09-06 01:30:24 | 47.61965 | 17.87423 | 126° | 42km/h | 18854m | -22.4m/s | -54.7°C | 3.8% | 0hPa | 2.4V | 00:00:00 | 00:00:00 | 00:00:00 | |
| HA6NAB-11 | 2026-09-06 01:30:22 | 47.61974 | 17.87407 | 133° | 55km/h | 18876m | -23.0m/s | -54.8°C | 1.0% | 0hPa | 2.4V | 00:00:00 | 00:00:00 | 00:00:00 | |
| OE3OSB-13 | 2026-09-06 01:30:20 | 47.62000 | 17.87366 | 135° | 49km/h | 18942m | -22.2m/s | -54.3°C | 0.8% | -1.0hPa | 2.4V | 00:00:00 | 00:00:00 | 00:00:00 | |
| PETON7-10 | 2026-09-06 01:30:16 | 47.62038 | 17.87330 | 156° | 35km/h | 19031m | -22.2m/s | -53.2°C | 3.3% | 0hPa | 2.4V | 00:00:00 | 00:00:00 | 00:00:00 | |
| OM5KV | 2026-09-06 01:30:12 | 47.62066 | 17.87315 | 162° | 40km/h | 19100m | -23.6m/s | -53.0°C | 0.8% | 0hPa | 2.4V | 08:23:00 | 00:00:00 | 00:00:00 | |
| OM5KV | 2026-09-06 01:30:10 | 47.62085 | 17.87308 | 171° | 38km/h | 19148m | -23.6m/s | -52.8°C | 0.8% | 0hPa | 2.4V | 08:23:00 | 00:00:00 | 00:00:00 | |
| OM5KV | 2026-09-06 01:30:09 | 47.62094 | 17.87305 | 167° | 35km/h | 19171m | -22.4m/s | -52.9°C | 0.8% | 0hPa | 2.4V | 08:23:00 | 00:00:00 | 00:00:00 | |
| OE5DXL-15 | 2026-09-06 01:30:08 | 47.62111 | 17.87299 | 166° | 20km/h | 19214m | -22.0m/s | -53.3°C | 3.2% | 0hPa | 2.4V | 00:00:00 | 00:00:00 | 00:00:00 | |
| OM5KV | 2026-09-06 01:30:06 | 47.62120 | 17.87297 | 170° | 35km/h | 19236m | -24.0m/s | -53.5°C | 0.8% | 0hPa | 2.4V | 08:23:00 | 00:00:00 | 00:00:00 | |
| DO3MHA-11 | 2026-09-06 01:30:05 | 47.62135 | 17.87291 | 164° | 26km/h | 19282m | -22.3m/s | -53.6°C | 3.4% | 0hPa | 2.4V | 00:00:00 | 02:14:30 | 00:00:00 | |
| OE3OSB-13 | 2026-09-06 01:29:49 | 47.62204 | 17.87215 | 116° | 13km/h | 19649m | -24.7m/s | -55.0°C | 0.8% | -1.0hPa | 2.4V | 00:00:00 | 00:00:00 | 00:00:00 | |
| S52SK | 2026-09-06 01:29:47 | 47.62205 | 17.87211 | 95° | 13km/h | 19674m | -24.3m/s | -55.2°C | 0.8% | 0hPa | 2.4V | 00:00:00 | 00:00:00 | 00:00:00 | |
| PETON7-10 | 2026-09-06 01:29:46 | 47.62206 | 17.87201 | 108° | 18km/h | 19722m | -23.6m/s | -55.4°C | 3.8% | 0hPa | 2.4V | 08:23:00 | 00:00:00 | 00:00:00 | |
| GYPAP8-17 | 2026-09-06 01:29:45 | 47.62207 | 17.87195 | 114° | 15km/h | 19746m | -24.9m/s | -55.6°C | 0.9% | 0hPa | 2.5V | 00:00:00 | 00:00:00 | 00:00:00 | |
| DO3MHA-12 | 2026-09-06 01:29:42 | 47.62209 | 17.87178 | 107° | 18km/h | 19817m | -24.9m/s | -55.7°C | 3.9% | 0hPa | 2.5V | 00:00:00 | 02:14:07 | 00:00:00 | |
| OE5DXL-15 | 2026-09-06 01:29:38 | 47.62211 | 17.87154 | 94° | 26km/h | 19917m | -25.6m/s | -55.8°C | 4.0% | 0hPa | 2.5V | 00:00:00 | 02:14:03 | 00:00:00 | |
| HA6NAB-11 | 2026-09-06 01:29:37 | 47.62211 | 17.87154 | 95° | 18km/h | 19917m | -25.6m/s | -55.8°C | 1.0% | 0hPa | 2.4V | 00:00:00 | 00:00:00 | 00:00:00 | |
| DO3MHA-11 | 2026-09-06 01:29:35 | 47.62212 | 17.87133 | 95° | 24km/h | 19991m | -25.1m/s | -55.5°C | 3.9% | 0hPa | 2.4V | 00:00:00 | 02:14:00 | 00:00:00 | |
| OM5KV | 2026-09-06 01:29:34 | 47.62212 | 17.87133 | 95° | 18km/h | 19991m | -25.2m/s | -55.5°C | 0.9% | 0hPa | 2.4V | 08:24:00 | 00:00:00 | 00:00:00 | |
| OM5KV | 2026-09-06 01:29:33 | 47.62212 | 17.87126 | 77° | 20km/h | 20016m | -25.2m/s | -55.5°C | 1.0% | 0hPa | 2.4V | 08:24:00 | 00:00:00 | 00:00:00 | |
| DO3MHA-12 | 2026-09-06 01:29:32 | 47.62211 | 17.87110 | 90° | 24km/h | 20067m | -24.5m/s | -55.2°C | 3.9% | 0hPa | 2.4V | 00:00:00 | 02:13:57 | 00:00:00 | |
| PETON7-10 | 2026-09-06 01:29:31 | 47.62210 | 17.87101 | 74° | 26km/h | 20091m | -23.8m/s | -55.3°C | 3.9% | 0hPa | 2.4V | 00:00:00 | 00:00:00 | 00:00:00 | |
| OM5KV | 2026-09-06 01:29:29 | 47.62209 | 17.87093 | 82° | 26km/h | 20115m | -25.1m/s | -55.6°C | 1.0% | 0hPa | 2.4V | 08:24:00 | 00:00:00 | 00:00:00 | |
| OE5DRO-10 | 2026-09-06 01:29:27 | 47.62208 | 17.87064 | 86° | 27km/h | 20189m | -24.1m/s | -56.2°C | 4.2% | 0hPa | 2.4V | 00:00:00 | 00:00:00 | 00:00:00 | |
| DO3MHA-11 | 2026-09-06 01:29:25 | 47.62208 | 17.87045 | 90° | 26km/h | 20237m | -24.5m/s | -56.5°C | 4.4% | 0hPa | 2.4V | 08:24:00 | 02:13:50 | 00:00:00 | |
| GYPAP8-17 | 2026-09-06 01:29:23 | 47.62208 | 17.87035 | 97° | 27km/h | 20261m | -24.5m/s | -56.6°C | 1.0% | 0hPa | 2.5V | 00:00:00 | 00:00:00 | 00:00:00 | |
| OM5KV | 2026-09-06 01:29:22 | 47.62210 | 17.87025 | 102° | 27km/h | 20284m | -24.2m/s | -56.4°C | 1.0% | 0hPa | 2.5V | 08:24:00 | 00:00:00 | 00:00:00 | |
| OM5KV | 2026-09-06 01:29:19 | 47.62214 | 17.86997 | 96° | 24km/h | 20359m | -24.6m/s | -55.3°C | 0.9% | 0hPa | 2.5V | 08:24:00 | 00:00:00 | 00:00:00 | |
| OE3OSB-13 | 2026-09-06 01:29:18 | 47.62216 | 17.86979 | 103° | 22km/h | 20407m | -25.5m/s | -55.2°C | 0.8% | -1.0hPa | 2.5V | 00:00:00 | 00:00:00 | 00:00:00 | |
| PETON7-10 | 2026-09-06 01:29:16 | 47.62218 | 17.86962 | 98° | 33km/h | 20457m | -25.1m/s | -54.7°C | 3.9% | 0hPa | 2.5V | 00:00:00 | 02:13:41 | 00:00:00 | |
| DO3MHA-11 | 2026-09-06 01:29:15 | 47.62218 | 17.86952 | 84° | 33km/h | 20481m | -25.3m/s | -54.5°C | 3.8% | 0hPa | 2.5V | 00:00:00 | 02:13:40 | 00:00:00 | |
| OM5KV | 2026-09-06 01:29:14 | 47.62218 | 17.86952 | 84° | 26km/h | 20481m | -25.4m/s | -54.5°C | 0.9% | 0hPa | 2.5V | 08:24:00 | 00:00:00 | 00:00:00 | |
| HA6NAB-11 | 2026-09-06 01:29:11 | 47.62217 | 17.86920 | 90° | 31km/h | 20556m | -24.3m/s | -54.2°C | 0.9% | 0hPa | 2.5V | 00:00:00 | 00:00:00 | 00:00:00 | |
| OE5DXL-15 | 2026-09-06 01:29:08 | 47.62217 | 17.86871 | 90° | 27km/h | 20658m | -24.4m/s | -53.8°C | 3.6% | 0hPa | 2.5V | 00:00:00 | 00:00:00 | 00:00:00 | |
| DO3MHA-11 | 2026-09-06 01:29:05 | 47.62220 | 17.86831 | 102° | 35km/h | 20732m | -25.3m/s | -54.3°C | 3.7% | 0hPa | 2.5V | 00:00:00 | 02:13:30 | 00:00:00 | |
| OE3OSB-13 | 2026-09-06 01:28:47 | 47.62258 | 17.86654 | 99° | 18km/h | 21187m | -27.0m/s | -53.6°C | 0.6% | -1.0hPa | 2.5V | 00:00:00 | 00:00:00 | 00:00:00 | |
| PETON7-10 | 2026-09-06 01:28:46 | 47.62260 | 17.86647 | 111° | 22km/h | 21214m | -26.5m/s | -53.4°C | 3.5% | 0hPa | 2.5V | 00:00:00 | 00:00:00 | 00:00:00 | |
| DO3MHA-11 | 2026-09-06 01:28:45 | 47.62262 | 17.86640 | 123° | 24km/h | 21240m | -26.4m/s | -53.3°C | 3.4% | 0hPa | 2.5V | 00:00:00 | 02:13:10 | 00:00:00 | |
| S52SK | 2026-09-06 01:28:42 | 47.62271 | 17.86618 | 124° | 22km/h | 21317m | -26.0m/s | -53.1°C | 0.7% | 0hPa | 2.5V | 00:00:00 | 00:00:00 | 00:00:00 | |
| OM5KV | 2026-09-06 01:28:41 | 47.62271 | 17.86618 | 124° | 22km/h | 21317m | -26.0m/s | -53.1°C | 0.7% | 0hPa | 2.5V | 08:25:00 | 00:00:00 | 00:00:00 | |
| OE5DXL-15 | 2026-09-06 01:28:38 | 47.62286 | 17.86590 | 136° | 18km/h | 21425m | -26.6m/s | -53.5°C | 3.5% | 0hPa | 2.5V | 00:00:00 | 00:00:00 | 00:00:00 | |
| OM5KV | 2026-09-06 01:28:35 | 47.62293 | 17.86577 | 132° | 24km/h | 21476m | -24.8m/s | -53.7°C | 0.8% | 0hPa | 2.5V | 08:25:00 | 00:00:00 | 00:00:00 | |
| OM5KV | 2026-09-06 01:28:34 | 47.62298 | 17.86571 | 140° | 22km/h | 21501m | -25.7m/s | -53.8°C | 0.8% | 0hPa | 2.5V | 08:25:00 | 00:00:00 | 00:00:00 | |
| PETON7-10 | 2026-09-06 01:28:31 | 47.62309 | 17.86550 | 113° | 16km/h | 21602m | -24.6m/s | -53.7°C | 3.6% | 0hPa | 2.5V | 00:00:00 | 02:12:56 | 00:00:00 | |
| OE5DRO-10 | 2026-09-06 01:28:30 | 47.62311 | 17.86544 | 116° | 16km/h | 21627m | -24.8m/s | -53.7°C | 3.6% | 0hPa | 2.5V | 00:00:00 | 00:00:00 | 00:00:00 | |
| OM5KV | 2026-09-06 01:28:29 | 47.62311 | 17.86544 | 117° | 18km/h | 21627m | -24.9m/s | -53.8°C | 0.8% | 0hPa | 2.5V | 08:25:00 | 00:00:00 | 00:00:00 | |
| DO3MHA-11 | 2026-09-06 01:28:25 | 47.62324 | 17.86515 | 136° | 16km/h | 21755m | -25.3m/s | -54.4°C | 3.9% | 0hPa | 2.5V | 00:00:00 | 02:12:50 | 00:00:00 | |
| OM5KV | 2026-09-06 01:28:24 | 47.62324 | 17.86515 | 136° | 18km/h | 21755m | -25.4m/s | -54.5°C | 0.9% | 0hPa | 2.4V | 08:25:00 | 00:00:00 | 00:00:00 | |
| OM5KV | 2026-09-06 01:28:23 | 47.62327 | 17.86511 | 132° | 15km/h | 21781m | -26.0m/s | -54.5°C | 0.9% | 0hPa | 2.4V | 08:25:00 | 00:00:00 | 00:00:00 | |
| OM5KV | 2026-09-06 01:28:18 | 47.62341 | 17.86489 | 132° | 13km/h | 21914m | -25.5m/s | -54.2°C | 0.8% | 0hPa | 2.4V | 08:25:00 | 00:00:00 | 00:00:00 | |
| SP9KGR-15 | 2026-09-06 01:28:17 | 47.62343 | 17.86486 | 121° | 13km/h | 21940m | -25.9m/s | -53.9°C | 0.8% | 0hPa | 2.4V | 00:00:00 | 00:00:00 | 00:00:00 | |
| PETON7-10 | 2026-09-06 01:28:16 | 47.62345 | 17.86477 | 94° | 24km/h | 21993m | -26.5m/s | -53.0°C | 3.5% | 0hPa | 2.4V | 00:00:00 | 00:00:00 | 00:00:00 | |
| OM5KV | 2026-09-06 01:28:12 | 47.62348 | 17.86461 | 102° | 18km/h | 22072m | -27.9m/s | -53.3°C | 0.8% | 0hPa | 2.5V | 08:25:00 | 00:00:00 | 00:00:00 | |
| OM5KV | 2026-09-06 01:28:11 | 47.62351 | 17.86447 | 118° | 22km/h | 22128m | -29.7m/s | -52.8°C | 0.7% | 0hPa | 2.5V | 08:25:00 | 00:00:00 | 00:00:00 | |
| OE5DXL-15 | 2026-09-06 01:28:08 | 47.62360 | 17.86427 | 128° | 18km/h | 22218m | -28.8m/s | -52.8°C | 3.5% | 0hPa | 2.5V | 00:00:00 | 00:00:00 | 00:00:00 | |
| HA6NAB-11 | 2026-09-06 01:28:06 | 47.62364 | 17.86420 | 136° | 26km/h | 22247m | -30.3m/s | -52.9°C | 0.7% | 0hPa | 2.5V | 08:26:00 | 00:00:00 | 00:00:00 | |
| PG1ADW-2 | 2026-09-06 01:28:05 | 47.62375 | 17.86406 | 146° | 20km/h | 22308m | -30.1m/s | -52.6°C | 3.4% | 0hPa | 2.5V | 00:00:00 | 00:00:00 | 00:00:00 | |
| OM5KV | 2026-09-06 01:28:03 | 47.62382 | 17.86400 | 155° | 31km/h | 22337m | -29.0m/s | -52.7°C | 0.7% | 0hPa | 2.5V | 08:26:00 | 00:00:00 | 00:00:00 | |
| PETON7-10 | 2026-09-06 01:28:01 | 47.62401 | 17.86387 | 157° | 18km/h | 22422m | -28.8m/s | -52.8°C | 3.5% | 0hPa | 2.5V | 00:00:00 | 00:00:00 | 00:00:00 | |
| OM5KV | 2026-09-06 01:28:00 | 47.62401 | 17.86387 | 158° | 29km/h | 22422m | -28.8m/s | -52.9°C | 0.7% | 0hPa | 2.5V | 08:26:00 | 00:00:00 | 00:00:00 | |
| OM5KV | 2026-09-06 01:27:55 | 47.62431 | 17.86374 | 164° | 22km/h | 22564m | -28.6m/s | -52.8°C | 0.7% | 0hPa | 2.5V | 08:26:00 | 00:00:00 | 00:00:00 | |
| OE5DRO-10 | 2026-09-06 01:27:52 | 47.62444 | 17.86363 | 131° | 13km/h | 22675m | -28.9m/s | -52.2°C | 3.3% | 0hPa | 2.5V | 00:00:00 | 00:00:00 | 00:00:00 | |
| GYPAP8-17 | 2026-09-06 01:27:50 | 47.62445 | 17.86360 | 121° | 9km/h | 22704m | -29.1m/s | -52.2°C | 0.6% | 0hPa | 2.5V | 00:00:00 | 00:00:00 | 00:00:00 | |
| OM5KV | 2026-09-06 01:27:49 | 47.62447 | 17.86356 | 114° | 13km/h | 22733m | -28.7m/s | -52.2°C | 0.7% | 0hPa | 2.5V | 08:26:00 | 00:00:00 | 00:00:00 | |
| PETON7-10 | 2026-09-06 01:27:46 | 47.62452 | 17.86343 | 146° | 13km/h | 22847m | -29.3m/s | -51.3°C | 3.0% | 0hPa | 2.5V | 00:00:00 | 02:12:11 | 00:00:00 | |
| PG1ADW-2 | 2026-09-06 01:27:45 | 47.62455 | 17.86340 | 154° | 11km/h | 22875m | -29.6m/s | -51.2°C | 2.9% | 0hPa | 2.5V | 00:00:00 | 00:00:00 | 00:00:00 | |
| OM5KV | 2026-09-06 01:27:44 | 47.62455 | 17.86340 | 154° | 15km/h | 22875m | -29.7m/s | -51.2°C | 0.6% | 0hPa | 2.5V | 08:26:00 | 00:00:00 | 00:00:00 | |
| OE5MMP-10 | 2026-09-06 01:27:43 | 47.62461 | 17.86337 | 174° | 13km/h | 22936m | -32.2m/s | -51.1°C | 2.9% | 0hPa | 2.5V | 00:00:00 | 02:12:08 | 00:00:00 | |
| OM5KV | 2026-09-06 01:27:41 | 47.62464 | 17.86337 | 196° | 13km/h | 22967m | -31.7m/s | -51.4°C | 0.6% | 0hPa | 2.5V | 08:26:00 | 00:00:00 | 00:00:00 | |
| S52SK | 2026-09-06 01:27:40 | 47.62467 | 17.86339 | 205° | 9km/h | 22999m | -31.1m/s | -51.7°C | 0.6% | 0hPa | 2.5V | 00:00:00 | 00:00:00 | 00:00:00 | |
| OE5DXL-15 | 2026-09-06 01:27:38 | 47.62475 | 17.86344 | 195° | 15km/h | 23088m | -29.7m/s | -52.3°C | 3.2% | 0hPa | 2.5V | 00:00:00 | 00:00:00 | 00:00:00 | |
| OM5KV | 2026-09-06 01:27:35 | 47.62482 | 17.86347 | 198° | 15km/h | 23147m | -31.0m/s | -52.8°C | 0.7% | 0hPa | 2.5V | 08:26:00 | 00:00:00 | 00:00:00 | |
| S52SK | 2026-09-06 01:27:34 | 47.62486 | 17.86349 | 199° | 15km/h | 23177m | -31.3m/s | -53.0°C | 0.7% | 0hPa | 2.5V | 00:00:00 | 00:00:00 | 00:00:00 | |
| OE5MMP-10 | 2026-09-06 01:27:33 | 47.62491 | 17.86351 | 185° | 9km/h | 23239m | -31.4m/s | -53.3°C | 3.6% | 0hPa | 2.5V | 00:00:00 | 02:11:58 | 00:00:00 | |
| PETON7-10 | 2026-09-06 01:27:31 | 47.62495 | 17.86349 | 144° | 11km/h | 23302m | -32.1m/s | -53.3°C | 3.6% | 0hPa | 2.5V | 08:25:00 | 00:00:00 | 00:00:00 | |
| OM5KV | 2026-09-06 01:27:29 | 47.62497 | 17.86347 | 144° | 7km/h | 23334m | -32.8m/s | -52.9°C | 0.7% | 0hPa | 2.5V | 08:26:00 | 00:00:00 | 00:00:00 | |
| PG1ADW-2 | 2026-09-06 01:27:25 | 47.62497 | 17.86331 | 70° | 18km/h | 23494m | -32.7m/s | -53.5°C | 3.7% | 0hPa | 2.5V | 00:00:00 | 02:11:50 | 00:00:00 | |
| OM5KV | 2026-09-06 01:27:24 | 47.62497 | 17.86331 | 71° | 11km/h | 23494m | -32.8m/s | -53.6°C | 0.8% | 0hPa | 2.5V | 08:26:00 | 00:00:00 | 00:00:00 | |
| OE5MMP-10 | 2026-09-06 01:27:23 | 47.62495 | 17.86321 | 91° | 16km/h | 23558m | -31.9m/s | -53.0°C | 3.6% | 0hPa | 2.5V | 00:00:00 | 02:11:48 | 00:00:00 | |
| HA6NAB-11 | 2026-09-06 01:27:19 | 47.62496 | 17.86307 | 113° | 13km/h | 23649m | -30.8m/s | -52.5°C | 0.7% | 0hPa | 2.5V | 08:26:00 | 00:00:00 | 00:00:00 | |
| PETON7-10 | 2026-09-06 01:27:16 | 47.62501 | 17.86284 | 103° | 22km/h | 23769m | -30.6m/s | -52.4°C | 3.4% | 0hPa | 2.5V | 00:00:00 | 00:00:00 | 00:00:00 | |
| OE3OSB-13 | 2026-09-06 01:27:14 | 47.62503 | 17.86270 | 101° | 22km/h | 23830m | -31.9m/s | -52.4°C | 0.6% | -1.0hPa | 2.5V | 00:00:00 | 00:00:00 | 00:00:00 | |
| OE5MMP-10 | 2026-09-06 01:27:13 | 47.62504 | 17.86262 | 101° | 22km/h | 23862m | -32.4m/s | -52.4°C | 3.4% | 0hPa | 2.5V | 00:00:00 | 02:11:38 | 00:00:00 | |
| SP9KGR-15 | 2026-09-06 01:27:10 | 47.62506 | 17.86246 | 102° | 26km/h | 23926m | -33.1m/s | -52.6°C | 0.7% | 0hPa | 2.5V | 08:27:00 | 00:00:00 | 00:00:00 | |
| OM5KV | 2026-09-06 01:27:09 | 47.62506 | 17.86236 | 94° | 26km/h | 23958m | -32.3m/s | -52.7°C | 0.7% | 0hPa | 2.5V | 08:27:00 | 00:00:00 | 00:00:00 | |
| OM5KV | 2026-09-06 01:27:08 | 47.62508 | 17.86217 | 101° | 27km/h | 24020m | -30.8m/s | -52.8°C | 0.7% | 0hPa | 2.5V | 08:27:00 | 00:00:00 | 00:00:00 | |
| PG1ADW-2 | 2026-09-06 01:27:05 | 47.62511 | 17.86192 | 100° | 9km/h | 24116m | -33.4m/s | -52.6°C | 3.5% | 0hPa | 2.5V | 00:00:00 | 00:00:00 | 00:00:00 | |
| GYPAP8-17 | 2026-09-06 01:27:04 | 47.62511 | 17.86192 | 100° | 20km/h | 24116m | -33.4m/s | -52.6°C | 0.7% | 0hPa | 2.5V | 08:27:00 | 00:00:00 | 00:00:00 | |
| OE5MMP-10 | 2026-09-06 01:27:03 | 47.62513 | 17.86177 | 97° | 9km/h | 24181m | -33.3m/s | -52.5°C | 3.4% | 0hPa | 2.5V | 08:26:00 | 02:11:28 | 00:00:00 | |
| HA6NAB-11 | 2026-09-06 01:27:02 | 47.62513 | 17.86177 | 97° | 16km/h | 24181m | -33.4m/s | -52.6°C | 0.7% | 0hPa | 2.4V | 00:00:00 | 00:00:00 | 00:00:00 | |
| PETON7-10 | 2026-09-06 01:27:01 | 47.62515 | 17.86167 | 108° | 5km/h | 24248m | -34.2m/s | -52.4°C | 3.4% | 0hPa | 2.4V | 00:00:00 | 02:11:26 | 00:00:00 | |
| OM5KV | 2026-09-06 01:26:56 | 47.62519 | 17.86156 | 140° | 5km/h | 24381m | -32.8m/s | -51.9°C | 0.7% | 0hPa | 2.4V | 08:27:00 | 00:00:00 | 00:00:00 | |
| SP9KGR-15 | 2026-09-06 01:26:54 | 47.62521 | 17.86155 | 278° | 2km/h | 24445m | -31.6m/s | -51.6°C | 0.6% | 0hPa | 2.4V | 08:27:00 | 00:00:00 | 00:00:00 | |
| OE5MMP-10 | 2026-09-06 01:26:53 | 47.62519 | 17.86157 | 330° | 5km/h | 24508m | -32.5m/s | -51.4°C | 3.2% | 0hPa | 2.4V | 00:00:00 | 02:11:18 | 00:00:00 | |
| OM5KV | 2026-09-06 01:26:51 | 47.62518 | 17.86158 | 349° | 5km/h | 24540m | -32.1m/s | -51.4°C | 0.6% | 0hPa | 2.4V | 08:27:00 | 00:00:00 | 00:00:00 | |
| OM5KV | 2026-09-06 01:26:50 | 47.62517 | 17.86158 | 350° | 4km/h | 24571m | -31.8m/s | -51.4°C | 0.6% | 0hPa | 2.4V | 08:27:00 | 00:00:00 | 00:00:00 | |
| OM5KV | 2026-09-06 01:26:49 | 47.62516 | 17.86158 | 2° | 4km/h | 24603m | -32.3m/s | -51.5°C | 0.6% | 0hPa | 2.4V | 08:27:00 | 00:00:00 | 00:00:00 | |
| PETON7-10 | 2026-09-06 01:26:46 | 47.62511 | 17.86155 | 78° | 16km/h | 24731m | -32.9m/s | -51.8°C | 3.3% | 0hPa | 2.4V | 00:00:00 | 00:00:00 | 00:00:00 | |
| PG1ADW-2 | 2026-09-06 01:26:45 | 47.62510 | 17.86152 | 62° | 16km/h | 24763m | -31.6m/s | -51.7°C | 3.2% | 0hPa | 2.5V | 00:00:00 | 00:00:00 | 00:00:00 | |
| OM5KV | 2026-09-06 01:26:44 | 47.62510 | 17.86152 | 63° | 11km/h | 24763m | -31.7m/s | -51.8°C | 0.7% | 0hPa | 2.5V | 08:27:00 | 00:00:00 | 00:00:00 | |
| OE5MMP-10 | 2026-09-06 01:26:43 | 47.62509 | 17.86143 | 85° | 16km/h | 24827m | -31.7m/s | -51.7°C | 3.2% | 0hPa | 2.5V | 00:00:00 | 02:11:08 | 00:00:00 | |
| OE5DXL-15 | 2026-09-06 01:26:38 | 47.62505 | 17.86114 | 78° | 18km/h | 24986m | -33.6m/s | -51.7°C | 3.3% | 0hPa | 2.5V | 08:26:00 | 00:00:00 | 00:00:00 | |
| OM5KV | 2026-09-06 01:26:37 | 47.62505 | 17.86114 | 79° | 18km/h | 24986m | -33.6m/s | -51.7°C | 0.7% | 0hPa | 2.5V | 08:27:00 | 00:00:00 | 00:00:00 | |
| OE5DRO-10 | 2026-09-06 01:26:34 | 47.62498 | 17.86092 | 59° | 16km/h | 25120m | -33.8m/s | -51.9°C | 3.3% | 0hPa | 2.5V | 00:00:00 | 00:00:00 | 00:00:00 | |
| OE5MMP-10 | 2026-09-06 01:26:33 | 47.62495 | 17.86086 | 43° | 16km/h | 25153m | -32.3m/s | -52.0°C | 3.4% | 0hPa | 2.5V | 00:00:00 | 02:10:58 | 00:00:00 | |
| OM5KV | 2026-09-06 01:26:32 | 47.62495 | 17.86086 | 44° | 18km/h | 25153m | -32.4m/s | -52.0°C | 0.7% | 0hPa | 2.4V | 08:27:00 | 00:00:00 | 00:00:00 | |
| PETON7-10 | 2026-09-06 01:26:31 | 47.62489 | 17.86075 | 46° | 16km/h | 25217m | -32.8m/s | -52.2°C | 3.4% | 0hPa | 2.4V | 00:00:00 | 00:00:00 | 00:00:00 | |
| DO3MHA-11 | 2026-09-06 01:26:29 | 47.62483 | 17.86066 | 52° | 16km/h | 25281m | -33.1m/s | -52.2°C | 3.5% | 0hPa | 2.4V | 00:00:00 | 02:10:54 | 00:00:00 | |
| S52SK | 2026-09-06 01:26:28 | 47.62483 | 17.86066 | 52° | 18km/h | 25281m | -33.1m/s | -52.3°C | 0.6% | 0hPa | 2.4V | 08:27:00 | 00:00:00 | 00:00:00 | |
| OM5KV | 2026-09-06 01:26:26 | 47.62475 | 17.86050 | 57° | 16km/h | 25376m | -31.6m/s | -52.3°C | 0.7% | 0hPa | 2.4V | 08:27:00 | 00:00:00 | 00:00:00 | |
| OE3MUC-15 | 2026-09-06 01:26:25 | 47.62474 | 17.86045 | 70° | 15km/h | 25408m | -33.3m/s | -52.2°C | 3.6% | 0hPa | 2.4V | 00:00:00 | 02:10:50 | 00:00:00 | |
| OE5MMP-10 | 2026-09-06 01:26:23 | 47.62473 | 17.86035 | 82° | 16km/h | 25472m | -34.0m/s | -52.3°C | 3.7% | 0hPa | 2.4V | 00:00:00 | 02:10:48 | 00:00:00 | |
| SP9KGR-15 | 2026-09-06 01:26:22 | 47.62473 | 17.86035 | 82° | 15km/h | 25472m | -34.0m/s | -52.3°C | 0.7% | 0hPa | 2.4V | 08:27:00 | 00:00:00 | 00:00:00 | |
| OE3MUC-15 | 2026-09-06 01:26:21 | 47.62473 | 17.86023 | 95° | 16km/h | 25537m | -33.2m/s | -52.0°C | 3.7% | 0hPa | 2.4V | 00:00:00 | 00:00:00 | 00:00:00 | |
| DO3MHA-11 | 2026-09-06 01:26:19 | 47.62473 | 17.86012 | 79° | 18km/h | 25602m | -32.7m/s | -51.8°C | 3.6% | 0hPa | 2.4V | 00:00:00 | 02:10:44 | 00:00:00 | |
| OE3MUC-15 | 2026-09-06 01:26:17 | 47.62473 | 17.85999 | 91° | 18km/h | 25668m | -34.4m/s | -51.9°C | 3.6% | 0hPa | 2.4V | 00:00:00 | 00:00:00 | 00:00:00 | |
| PETON7-10 | 2026-09-06 01:26:16 | 47.62473 | 17.85992 | 82° | 22km/h | 25701m | -33.0m/s | -51.9°C | 3.6% | 0hPa | 2.5V | 00:00:00 | 02:10:41 | 00:00:00 | |
| OE5DRO-10 | 2026-09-06 01:26:15 | 47.62472 | 17.85986 | 73° | 24km/h | 25734m | -32.9m/s | -51.7°C | 3.6% | 0hPa | 2.5V | 00:00:00 | 00:00:00 | 00:00:00 | |
| OM5KV | 2026-09-06 01:26:14 | 47.62472 | 17.85986 | 73° | 18km/h | 25734m | -32.9m/s | -51.7°C | 0.7% | 0hPa | 2.5V | 08:27:00 | 00:00:00 | 00:00:00 | |
| OE5MMP-10 | 2026-09-06 01:26:13 | 47.62470 | 17.85973 | 78° | 22km/h | 25801m | -34.4m/s | -51.3°C | 3.5% | 0hPa | 2.5V | 00:00:00 | 02:10:38 | 00:00:00 | |
| OE3OSB-13 | 2026-09-06 01:26:12 | 47.62469 | 17.85958 | 88° | 22km/h | 25870m | -35.6m/s | -50.5°C | 0.5% | -1.0hPa | 2.5V | 00:00:00 | 00:00:00 | 00:00:00 | |
| HA6NAB-11 | 2026-09-06 01:26:10 | 47.62469 | 17.85958 | 89° | 22km/h | 25870m | -35.6m/s | -50.5°C | 0.6% | 0hPa | 2.5V | 00:00:00 | 00:00:00 | 00:00:00 | |
| DO3MHA-11 | 2026-09-06 01:26:09 | 47.62469 | 17.85944 | 92° | 26km/h | 25940m | -34.9m/s | -49.5°C | 3.1% | 0hPa | 2.5V | 08:27:00 | 02:10:34 | 00:00:00 | |
| DB0NH | 2026-09-06 01:26:08 | 47.62470 | 17.85937 | 103° | 24km/h | 25974m | -34.9m/s | 0°C | 0% | 0hPa | 2.5V | 00:00:00 | 02:10:33 | 00:00:00 | |
| SP9KGR-15 | 2026-09-06 01:26:07 | 47.62470 | 17.85937 | 103° | 20km/h | 25974m | -34.9m/s | -49.2°C | 0.5% | 0hPa | 2.5V | 08:27:00 | 00:00:00 | 00:00:00 | |
| HA6NAB-11 | 2026-09-06 01:26:05 | 47.62477 | 17.85914 | 124° | 26km/h | 26080m | -36.6m/s | -48.9°C | 0.5% | 0hPa | 2.5V | 00:00:00 | 00:00:00 | 00:00:00 | |
| OE5MMP-10 | 2026-09-06 01:26:03 | 47.62485 | 17.85898 | 132° | 27km/h | 26153m | -37.1m/s | -48.7°C | 2.8% | 0hPa | 2.5V | 00:00:00 | 02:10:28 | 00:00:00 | |
| OE3MUC-15 | 2026-09-06 01:26:01 | 47.62496 | 17.85884 | 142° | 27km/h | 26226m | -36.9m/s | -48.5°C | 2.7% | 0hPa | 2.5V | 00:00:00 | 00:00:00 | 00:00:00 | |
| DO3MHA-11 | 2026-09-06 01:25:59 | 47.62506 | 17.85870 | 137° | 27km/h | 26298m | -35.4m/s | -48.6°C | 2.8% | 0hPa | 2.5V | 00:00:00 | 02:10:24 | 00:00:00 | |
| OE3MUC-15 | 2026-09-06 01:25:57 | 47.62516 | 17.85858 | 145° | 27km/h | 26369m | -37.3m/s | -48.9°C | 2.8% | 0hPa | 2.5V | 00:00:00 | 00:00:00 | 00:00:00 | |
| OE5DRO-10 | 2026-09-06 01:25:56 | 47.62522 | 17.85853 | 148° | 18km/h | 26406m | -36.8m/s | -49.0°C | 2.9% | 0hPa | 2.5V | 00:00:00 | 00:00:00 | 00:00:00 | |
| OE3MUC-15 | 2026-09-06 01:25:53 | 47.62541 | 17.85840 | 168° | 26km/h | 26515m | -36.2m/s | -48.8°C | 2.8% | 0hPa | 2.4V | 08:27:00 | 00:00:00 | 00:00:00 | |
| SP9KGR-15 | 2026-09-06 01:25:51 | 47.62548 | 17.85838 | 162° | 26km/h | 26551m | -37.3m/s | -48.7°C | 0.5% | 0hPa | 2.4V | 08:27:00 | 00:00:00 | 00:00:00 | |
| OE3MUC-15 | 2026-09-06 01:25:49 | 47.62566 | 17.85833 | 174° | 16km/h | 26657m | -35.7m/s | -48.8°C | 2.9% | 0hPa | 2.4V | 00:00:00 | 00:00:00 | 00:00:00 | |
| OM5KV | 2026-09-06 01:25:48 | 47.62566 | 17.85833 | 174° | 18km/h | 26657m | -35.8m/s | -48.8°C | 0.5% | 0hPa | 2.4V | 08:27:00 | 00:00:00 | 00:00:00 | |
| PETON7-10 | 2026-09-06 01:25:46 | 47.62579 | 17.85830 | 171° | 13km/h | 26762m | -36.5m/s | -49.1°C | 3.0% | 0hPa | 2.4V | 00:00:00 | 00:00:00 | 00:00:00 | |
| OE3MUC-15 | 2026-09-06 01:25:45 | 47.62582 | 17.85829 | 159° | 11km/h | 26798m | -35.7m/s | -49.1°C | 3.1% | 0hPa | 2.4V | 00:00:00 | 00:00:00 | 00:00:00 | |
| OE5MMP-10 | 2026-09-06 01:25:43 | 47.62588 | 17.85827 | 166° | 13km/h | 26869m | -35.3m/s | -48.9°C | 3.0% | 0hPa | 2.4V | 00:00:00 | 02:10:08 | 00:00:00 | |
| OE3OSB-13 | 2026-09-06 01:25:41 | 47.62596 | 17.85821 | 146° | 13km/h | 26977m | -37.2m/s | -49.1°C | 0.5% | -1.0hPa | 2.4V | 00:00:00 | 00:00:00 | 00:00:00 | |
| DO3MHA-11 | 2026-09-06 01:25:39 | 47.62599 | 17.85819 | 161° | 9km/h | 27014m | -37.9m/s | -49.0°C | 3.1% | 0hPa | 2.4V | 00:00:00 | 02:10:04 | 00:00:00 | |
| OE5DXL-15 | 2026-09-06 01:25:38 | 47.62602 | 17.85817 | 149° | 11km/h | 27053m | -39.0m/s | -48.8°C | 3.0% | 0hPa | 2.4V | 00:00:00 | 00:00:00 | 00:00:00 | |
| OE5DRO-10 | 2026-09-06 01:25:37 | 47.62605 | 17.85815 | 151° | 7km/h | 27091m | -38.3m/s | -48.6°C | 3.0% | 0hPa | 2.4V | 00:00:00 | 00:00:00 | 00:00:00 | |
| OE3JTB-15 | 2026-09-06 01:25:36 | 47.62608 | 17.85812 | 154° | 13km/h | 27128m | -36.4m/s | -48.6°C | 3.0% | 0hPa | 2.4V | 00:00:00 | 00:00:00 | 00:00:00 | |
| OM5KV | 2026-09-06 01:25:35 | 47.62608 | 17.85812 | 154° | 11km/h | 27128m | -36.4m/s | -48.6°C | 0.5% | 0hPa | 2.4V | 08:28:00 | 00:00:00 | 00:00:00 | |
| OM5KV | 2026-09-06 01:25:34 | 47.62610 | 17.85810 | 162° | 15km/h | 27164m | -38.1m/s | -48.4°C | 0.5% | 0hPa | 2.4V | 08:28:00 | 00:00:00 | 00:00:00 | |
| OE5MMP-10 | 2026-09-06 01:25:33 | 47.62617 | 17.85809 | 179° | 7km/h | 27238m | -37.0m/s | -48.1°C | 2.9% | 0hPa | 2.4V | 08:27:00 | 02:09:58 | 00:00:00 | |
| PETON7-10 | 2026-09-06 01:25:31 | 47.62621 | 17.85810 | 187° | 5km/h | 27311m | -37.8m/s | -47.9°C | 2.9% | 0hPa | 2.4V | 00:00:00 | 02:09:56 | 00:00:00 | |
| OM5KV | 2026-09-06 01:25:30 | 47.62621 | 17.85810 | 187° | 9km/h | 27311m | -37.8m/s | -47.9°C | 0.5% | 0hPa | 2.4V | 08:28:00 | 00:00:00 | 00:00:00 | |
| S52SK | 2026-09-06 01:25:28 | 47.62625 | 17.85812 | 238° | 5km/h | 27384m | -36.4m/s | -47.6°C | 0.5% | 0hPa | 2.4V | 00:00:00 | 00:00:00 | 00:00:00 | |
| PG1ADW-2 | 2026-09-06 01:25:25 | 47.62626 | 17.85818 | 23° | 13km/h | 27539m | -41.1m/s | -46.9°C | 2.6% | 0hPa | 2.4V | 00:00:00 | 00:00:00 | 00:00:00 | |
| OE5MMP-10 | 2026-09-06 01:25:23 | 47.62625 | 17.85818 | 15° | 9km/h | 27620m | -40.6m/s | -46.9°C | 2.6% | 0hPa | 2.5V | 00:00:00 | 02:09:48 | 00:00:00 | |
| S52SK | 2026-09-06 01:25:22 | 47.62625 | 17.85818 | 15° | 5km/h | 27620m | -40.7m/s | -47.0°C | 0.4% | 0hPa | 2.5V | 00:00:00 | 00:00:00 | 00:00:00 | |
| OE3MUC-15 | 2026-09-06 01:25:21 | 47.62624 | 17.85815 | 91° | 7km/h | 27701m | -40.2m/s | -47.0°C | 2.7% | 0hPa | 2.5V | 00:00:00 | 00:00:00 | 00:00:00 | |
| SP9KGR-15 | 2026-09-06 01:25:20 | 47.62624 | 17.85815 | 91° | 4km/h | 27701m | -40.2m/s | -47.0°C | 0.4% | 0hPa | 2.5V | 08:28:00 | 00:00:00 | 00:00:00 | |
| 9A1FER-3 | 2026-09-06 01:25:19 | 47.62624 | 17.85810 | 102° | 16km/h | 27781m | -40.5m/s | 0°C | 0% | 0hPa | 2.5V | 00:00:00 | 02:09:44 | 00:00:00 | |
| OE5DRO-10 | 2026-09-06 01:25:18 | 47.62624 | 17.85807 | 102° | 16km/h | 27821m | -39.6m/s | -46.9°C | 2.7% | 0hPa | 2.5V | 00:00:00 | 00:00:00 | 00:00:00 | |
| OE3MUC-15 | 2026-09-06 01:25:17 | 47.62625 | 17.85804 | 100° | 15km/h | 27860m | -39.5m/s | -47.1°C | 2.8% | 0hPa | 2.5V | 08:28:00 | 00:00:00 | 00:00:00 | |
| PETON7-10 | 2026-09-06 01:25:16 | 47.62626 | 17.85799 | 113° | 16km/h | 27900m | -40.5m/s | -47.2°C | 2.8% | 0hPa | 2.5V | 08:28:00 | 00:00:00 | 00:00:00 | |
| GYPAP8-17 | 2026-09-06 01:25:15 | 47.62626 | 17.85799 | 114° | 15km/h | 27900m | -40.5m/s | -47.3°C | 0.4% | 0hPa | 2.4V | 00:00:00 | 00:00:00 | 00:00:00 | |
| OM5KV | 2026-09-06 01:25:14 | 47.62627 | 17.85795 | 104° | 13km/h | 27939m | -39.7m/s | -47.5°C | 0.5% | 0hPa | 2.4V | 08:28:00 | 00:00:00 | 00:00:00 | |
| DO3MHA-11 | 2026-09-06 01:25:13 | 47.62631 | 17.85784 | 126° | 18km/h | 28015m | -37.8m/s | -47.4°C | 2.9% | 0hPa | 2.4V | 00:00:00 | 02:09:38 | 00:00:00 | |
| OM5KV | 2026-09-06 01:25:12 | 47.62631 | 17.85784 | 127° | 18km/h | 28015m | -37.8m/s | -47.5°C | 0.5% | 0hPa | 2.4V | 08:28:00 | 00:00:00 | 00:00:00 | |
| HA6NAB-11 | 2026-09-06 01:25:11 | 47.62634 | 17.85780 | 138° | 18km/h | 28051m | -36.4m/s | -47.3°C | 0.5% | 0hPa | 2.4V | 00:00:00 | 00:00:00 | 00:00:00 | |
| OE3OSB-13 | 2026-09-06 01:25:10 | 47.62643 | 17.85765 | 129° | 15km/h | 28167m | -40.4m/s | -46.9°C | 0.4% | -1.0hPa | 2.4V | 00:00:00 | 00:00:00 | 00:00:00 | |
| OE3MUC-15 | 2026-09-06 01:25:09 | 47.62643 | 17.85765 | 130° | 18km/h | 28167m | -40.3m/s | -46.9°C | 2.8% | 0hPa | 2.4V | 00:00:00 | 00:00:00 | 00:00:00 | |
| OE5DXL-15 | 2026-09-06 01:25:08 | 47.62647 | 17.85760 | 138° | 11km/h | 28207m | -41.9m/s | -46.7°C | 2.8% | 0hPa | 2.4V | 00:00:00 | 00:00:00 | 00:00:00 | |
| OE3MUC-15 | 2026-09-06 01:25:05 | 47.62658 | 17.85747 | 150° | 15km/h | 28327m | -38.0m/s | -45.8°C | 2.6% | 0hPa | 2.5V | 00:00:00 | 00:00:00 | 00:00:00 | |
| 9A1FER-3 | 2026-09-06 01:25:04 | 47.62661 | 17.85743 | 141° | 9km/h | 28365m | -38.6m/s | 0°C | 0% | 0hPa | 2.4V | 00:00:00 | 02:09:29 | 00:00:00 | |
| OE5MMP-10 | 2026-09-06 01:25:03 | 47.62664 | 17.85740 | 150° | 9km/h | 28404m | -39.7m/s | -45.3°C | 2.5% | 0hPa | 2.4V | 00:00:00 | 02:09:28 | 00:00:00 | |
| OE3MUC-15 | 2026-09-06 01:25:01 | 47.62671 | 17.85735 | 164° | 13km/h | 28482m | -39.3m/s | -45.0°C | 2.5% | 0hPa | 2.5V | 00:00:00 | 00:00:00 | 00:00:00 | |
| HA6NAB-11 | 2026-09-06 01:25:00 | 47.62671 | 17.85735 | 165° | 15km/h | 28482m | -39.4m/s | -45.0°C | 0.4% | 0hPa | 2.5V | 00:00:00 | 00:00:00 | 00:00:00 | |
| OE5DRO-10 | 2026-09-06 01:24:59 | 47.62676 | 17.85733 | 167° | 9km/h | 28558m | -38.1m/s | -45.0°C | 2.5% | 0hPa | 2.5V | 00:00:00 | 00:00:00 | 00:00:00 | |
| OE3MUC-15 | 2026-09-06 01:24:57 | 47.62681 | 17.85734 | 220° | 5km/h | 28635m | -40.2m/s | -45.0°C | 2.5% | 0hPa | 2.4V | 00:00:00 | 00:00:00 | 00:00:00 | |
| HA6NAB-11 | 2026-09-06 01:24:55 | 47.62682 | 17.85735 | 199° | 5km/h | 28675m | -40.6m/s | -45.0°C | 0.4% | 0hPa | 2.4V | 00:00:00 | 00:00:00 | 00:00:00 | |
| OM5KV | 2026-09-06 01:24:54 | 47.62683 | 17.85736 | 244° | 5km/h | 28715m | -40.9m/s | -44.8°C | 0.4% | 0hPa | 2.4V | 08:28:00 | 00:00:00 | 00:00:00 | |
| OM5KV | 2026-09-06 01:24:53 | 47.62683 | 17.85738 | 0° | 0km/h | 28756m | -41.4m/s | -44.6°C | 0.4% | 0hPa | 2.4V | 08:28:00 | 00:00:00 | 00:00:00 | |
| OE3MUC-15 | 2026-09-06 01:24:49 | 47.62678 | 17.85734 | 31° | 11km/h | 28959m | -38.1m/s | -43.6°C | 2.2% | 0hPa | 2.4V | 00:00:00 | 00:00:00 | 00:00:00 | |
| OM5KV | 2026-09-06 01:24:48 | 47.62679 | 17.85734 | 32° | 9km/h | 28959m | -38.2m/s | -43.7°C | 0.3% | 0hPa | 2.4V | 08:28:00 | 00:00:00 | 00:00:00 | |
| PETON7-10 | 2026-09-06 01:24:46 | 47.62673 | 17.85725 | 79° | 15km/h | 29068m | -37.7m/s | -43.6°C | 2.2% | 0hPa | 2.4V | 00:00:00 | 02:09:11 | 00:00:00 | |
| OE3MUC-15 | 2026-09-06 01:24:45 | 47.62673 | 17.85721 | 82° | 13km/h | 29105m | -38.2m/s | -43.6°C | 2.2% | 0hPa | 2.4V | 00:00:00 | 00:00:00 | 00:00:00 | |
| DO3MHA-11 | 2026-09-06 01:24:43 | 47.62672 | 17.85712 | 107° | 15km/h | 29180m | -38.4m/s | -43.7°C | 2.2% | 0hPa | 2.4V | 00:00:00 | 02:09:08 | 00:00:00 | |
| OM5KV | 2026-09-06 01:24:42 | 47.62672 | 17.85712 | 107° | 13km/h | 29180m | -38.4m/s | -43.7°C | 0.3% | 0hPa | 2.4V | 08:29:00 | 00:00:00 | 00:00:00 | |
| OE3MUC-15 | 2026-09-06 01:24:41 | 47.62673 | 17.85702 | 97° | 15km/h | 29255m | -37.4m/s | -43.8°C | 2.2% | 0hPa | 2.4V | 08:28:00 | 00:00:00 | 00:00:00 | |
| OE5DRO-10 | 2026-09-06 01:24:40 | 47.62673 | 17.85697 | 111° | 13km/h | 29292m | -38.3m/s | -43.8°C | 2.2% | 0hPa | 2.5V | 00:00:00 | 00:00:00 | 00:00:00 | |
| OE3OSB-13 | 2026-09-06 01:24:39 | 47.62674 | 17.85687 | 94° | 15km/h | 29370m | -39.2m/s | -43.5°C | 0.3% | -1.0hPa | 2.5V | 00:00:00 | 00:00:00 | 00:00:00 | |
| OE5DXL-15 | 2026-09-06 01:24:38 | 47.62673 | 17.85687 | 95° | 11km/h | 29370m | -39.1m/s | -43.5°C | 2.2% | 0hPa | 2.5V | 00:00:00 | 00:00:00 | 00:00:00 | |
| OE3MUC-15 | 2026-09-06 01:24:37 | 47.62673 | 17.85681 | 71° | 16km/h | 29410m | -40.2m/s | -43.3°C | 2.1% | 0hPa | 2.5V | 00:00:00 | 00:00:00 | 00:00:00 | |
| OM5KV | 2026-09-06 01:24:36 | 47.62673 | 17.85681 | 72° | 16km/h | 29410m | -40.2m/s | -43.4°C | 0.3% | 0hPa | 2.5V | 08:29:00 | 00:00:00 | 00:00:00 | |
| 9A1FER-3 | 2026-09-06 01:24:34 | 47.62670 | 17.85663 | 79° | 26km/h | 29528m | -38.3m/s | 0°C | 0% | 0hPa | 2.5V | 00:00:00 | 02:08:59 | 00:00:00 | |
| DO3MHA-11 | 2026-09-06 01:24:33 | 47.62669 | 17.85657 | 65° | 11km/h | 29566m | -38.0m/s | -43.6°C | 2.2% | 0hPa | 2.5V | 08:28:00 | 02:08:58 | 00:00:00 | |
| OM5KV | 2026-09-06 01:24:32 | 47.62669 | 17.85657 | 65° | 18km/h | 29566m | -38.1m/s | -43.6°C | 0.3% | 0hPa | 2.4V | 08:29:00 | 00:00:00 | 00:00:00 | |
| OE3JTB-15 | 2026-09-06 01:24:31 | 47.62666 | 17.85645 | 73° | 22km/h | 29640m | -37.5m/s | -43.6°C | 2.2% | 0hPa | 2.4V | 00:00:00 | 00:00:00 | 08:30:00 | |
| OE3MUC-15 | 2026-09-06 01:24:29 | 47.62663 | 17.85634 | 70° | 9km/h | 29708m | -30.9m/s | -43.6°C | 2.2% | 0hPa | 2.5V | 00:00:00 | 00:00:00 | 00:00:00 | |
| DO3MHA-12 | 2026-09-06 01:24:26 | 47.62662 | 17.85623 | 93° | 7km/h | 29808m | -35.8m/s | -43.2°C | 2.1% | 0hPa | 2.4V | 00:00:00 | 02:08:51 | 00:00:00 | |
| DO3MHA-11 | 2026-09-06 01:24:23 | 47.62663 | 17.85619 | 177° | 7km/h | 29926m | -41.2m/s | -43.3°C | 2.1% | 0hPa | 2.5V | 00:00:00 | 02:08:48 | 00:00:00 | |
| OE3MUC-15 | 2026-09-06 01:24:21 | 47.62664 | 17.85618 | 142° | 4km/h | 30009m | -44.1m/s | -43.1°C | 2.1% | 0hPa | 2.5V | 00:00:00 | 00:00:00 | 00:00:00 | |
| OM5KV | 2026-09-06 01:24:20 | 47.62664 | 17.85617 | 143° | 4km/h | 30009m | -44.1m/s | -43.2°C | 0.3% | 0hPa | 2.5V | 08:29:00 | 00:00:00 | 00:00:00 | |
| OM5KV | 2026-09-06 01:24:19 | 47.62665 | 17.85617 | 150° | 4km/h | 30054m | -47.1m/s | -43.2°C | 0.3% | 0hPa | 2.5V | 08:29:00 | 00:00:00 | 00:00:00 | |
| OE3MUC-15 | 2026-09-06 01:24:17 | 47.62662 | 17.85614 | 15° | 11km/h | 30194m | -46.1m/s | -43.5°C | 2.1% | 0hPa | 2.5V | 00:00:00 | 00:00:00 | 00:00:00 | |
| OM5KV | 2026-09-06 01:24:16 | 47.62659 | 17.85612 | 37° | 11km/h | 30240m | -46.8m/s | -43.7°C | 0.3% | 0hPa | 2.5V | 08:29:00 | 00:00:00 | 00:00:00 | |
| HA6NAB-11 | 2026-09-06 01:24:13 | 47.62654 | 17.85608 | 37° | 13km/h | 30334m | -48.1m/s | -44.0°C | 0.3% | 0hPa | 2.5V | 08:29:00 | 00:00:00 | 00:00:00 | |
| OE3MUC-15 | 2026-09-06 01:24:09 | 47.62635 | 17.85595 | 23° | 16km/h | 30572m | -47.3m/s | -44.1°C | 2.3% | 0hPa | 2.5V | 00:00:00 | 00:00:00 | 00:00:00 | |
| OE5DXL-15 | 2026-09-06 01:24:08 | 47.62631 | 17.85593 | 16° | 24km/h | 30619m | -47.2m/s | -44.2°C | 2.3% | 0hPa | 2.5V | 00:00:00 | 00:00:00 | 00:00:00 | |
| HA6NAB-11 | 2026-09-06 01:24:07 | 47.62631 | 17.85593 | 17° | 16km/h | 30619m | -47.2m/s | -44.3°C | 0.3% | 0hPa | 2.5V | 08:29:00 | 00:00:00 | 00:00:00 | |
| OM5KV | 2026-09-06 01:24:06 | 47.62627 | 17.85592 | 11° | 15km/h | 30665m | -45.9m/s | -44.3°C | 0.3% | 0hPa | 2.5V | 08:29:00 | 00:00:00 | 00:00:00 | |
| GYPAP8-17 | 2026-09-06 01:24:05 | 47.62623 | 17.85590 | 23° | 16km/h | 30709m | -43.6m/s | -44.2°C | 0.3% | 0hPa | 2.5V | 00:00:00 | 00:00:00 | 00:00:00 | |
| DO3MHA-11 | 2026-09-06 01:24:03 | 47.62611 | 17.85581 | 37° | 27km/h | 30842m | -46.2m/s | -44.1°C | 2.2% | 0hPa | 2.5V | 00:00:00 | 02:08:28 | 00:00:00 | |
| SP9KGR-15 | 2026-09-06 01:24:02 | 47.62611 | 17.85581 | 38° | 20km/h | 30842m | -46.3m/s | -44.1°C | 0.3% | 0hPa | 2.5V | 00:00:00 | 00:00:00 | 00:00:00 | |
| HA6NAB-11 | 2026-09-06 01:24:01 | 47.62607 | 17.85577 | 40° | 20km/h | 30888m | -45.5m/s | -44.3°C | 0.3% | 0hPa | 2.5V | 08:29:00 | 00:00:00 | 00:00:00 | |
| DO3MHA-12 | 2026-09-06 01:23:58 | 47.62593 | 17.85547 | 63° | 31km/h | 31064m | -41.7m/s | -44.8°C | 2.4% | 0hPa | 2.5V | 00:00:00 | 02:08:23 | 00:00:00 | |
| OE3MUC-15 | 2026-09-06 01:23:57 | 47.62591 | 17.85537 | 77° | 33km/h | 31107m | -45.5m/s | -45.0°C | 2.4% | 0hPa | 2.5V | 00:00:00 | 00:00:00 | 00:00:00 | |
| HA6NAB-11 | 2026-09-06 01:23:56 | 47.62591 | 17.85537 | 77° | 29km/h | 31107m | -45.6m/s | -45.0°C | 0.4% | 0hPa | 2.5V | 08:29:00 | 00:00:00 | 00:00:00 | |
| DO3MHA-11 | 2026-09-06 01:23:53 | 47.62588 | 17.85488 | 93° | 24km/h | 31291m | -49.3m/s | -45.0°C | 2.5% | 0hPa | 2.5V | 00:00:00 | 02:08:18 | 00:00:00 | |
| HA6NAB-11 | 2026-09-06 01:23:51 | 47.62588 | 17.85477 | 102° | 29km/h | 31339m | -48.4m/s | -45.3°C | 0.4% | 0hPa | 2.5V | 00:00:00 | 00:00:00 | 00:00:00 | |
| OE3MUC-15 | 2026-09-06 01:23:49 | 47.62593 | 17.85447 | 109° | 20km/h | 31478m | -47.2m/s | -45.1°C | 2.6% | 0hPa | 2.5V | 00:00:00 | 00:00:00 | 00:00:00 | |
| DO3MHA-12 | 2026-09-06 01:23:48 | 47.62594 | 17.85439 | 108° | 22km/h | 31524m | -47.7m/s | -45.1°C | 2.6% | 0hPa | 2.5V | 00:00:00 | 02:08:13 | 00:00:00 | |
| PETON7-10 | 2026-09-06 01:23:46 | 47.62597 | 17.85426 | 112° | 24km/h | 31616m | -44.5m/s | -45.3°C | 2.7% | 0hPa | 2.5V | 00:00:00 | 00:00:00 | 00:00:00 | |
| OE3MUC-15 | 2026-09-06 01:23:45 | 47.62598 | 17.85420 | 117° | 22km/h | 31658m | -42.3m/s | -45.3°C | 2.7% | 0hPa | 2.4V | 00:00:00 | 00:00:00 | 00:00:00 | |
| OE5MMP-10 | 2026-09-06 01:23:43 | 47.62600 | 17.85406 | 94° | 27km/h | 31741m | -42.1m/s | -45.3°C | 2.8% | 0hPa | 2.4V | 00:00:00 | 02:08:08 | 00:00:00 | |
| SP9KGR-15 | 2026-09-06 01:23:42 | 47.62600 | 17.85406 | 94° | 24km/h | 31741m | -42.1m/s | -45.4°C | 0.4% | 0hPa | 2.4V | 00:00:00 | 00:00:00 | 00:00:00 | |
| DO3MHA-12 | 2026-09-06 01:23:38 | 47.62597 | 17.85354 | 75° | 26km/h | 31954m | -47.9m/s | -44.0°C | 2.5% | 0hPa | 2.4V | 00:00:00 | 02:08:03 | 00:00:00 | |
| OM5KV | 2026-09-06 01:23:36 | 47.62595 | 17.85342 | 81° | 33km/h | 32001m | -47.6m/s | -43.8°C | 0.3% | 0hPa | 2.5V | 00:00:00 | 00:00:00 | 00:00:00 | |
| SONDE2-11 | 2026-09-06 01:23:34 | 47.62593 | 17.85313 | 94° | 20km/h | 32139m | -47.6m/s | -43.0°C | 0.3% | -1.0hPa | 2.5V | 00:00:00 | 00:00:00 | 00:00:00 | |
| DO3MHA-11 | 2026-09-06 01:23:33 | 47.62593 | 17.85305 | 95° | 33km/h | 32186m | -47.2m/s | -42.9°C | 2.3% | 0hPa | 2.5V | 00:00:00 | 02:07:58 | 00:00:00 | |
| OE5DRO-10 | 2026-09-06 01:23:32 | 47.62593 | 17.85298 | 97° | 29km/h | 32234m | -49.2m/s | -42.7°C | 2.2% | 0hPa | 2.4V | 00:00:00 | 00:00:00 | 08:30:00 | |
| PETON7-10 | 2026-09-06 01:23:31 | 47.62594 | 17.85290 | 104° | 33km/h | 32282m | -48.0m/s | -42.4°C | 2.2% | 0hPa | 2.4V | 00:00:00 | 00:00:00 | 00:00:00 | |
| LZ4TU-5 | 2026-09-06 01:23:30 | 47.62595 | 17.85290 | 105° | 24km/h | 32282m | -48.0m/s | 0°C | 0% | 0hPa | 2.4V | 00:00:00 | 00:00:00 | 00:00:00 | |
| OM5KV | 2026-09-06 01:23:29 | 47.62596 | 17.85282 | 104° | 22km/h | 32330m | -48.9m/s | -42.2°C | 0.3% | 0hPa | 2.4V | 00:00:00 | 00:00:00 | 00:00:00 | |
| DO3MHA-12 | 2026-09-06 01:23:28 | 47.62595 | 17.85260 | 88° | 40km/h | 32428m | -49.4m/s | -41.8°C | 2.1% | 0hPa | 2.4V | 00:00:00 | 02:07:53 | 00:00:00 | |
| SP9KGR-15 | 2026-09-06 01:23:27 | 47.62595 | 17.85260 | 88° | 35km/h | 32428m | -49.5m/s | -41.8°C | 0.3% | 0hPa | 2.4V | 00:00:00 | 00:00:00 | 00:00:00 | |
| PG1ADW-2 | 2026-09-06 01:23:25 | 47.62590 | 17.85216 | 74° | 31km/h | 32566m | -42.9m/s | -41.5°C | 2.0% | 0hPa | 2.4V | 00:00:00 | 02:07:50 | 08:30:00 | |
| OM5KV | 2026-09-06 01:23:24 | 47.62590 | 17.85216 | 74° | 44km/h | 32566m | -43.0m/s | -41.5°C | 0.3% | 0hPa | 2.4V | 00:00:00 | 00:00:00 | 00:00:00 | |
| DO3MHA-11 | 2026-09-06 01:23:23 | 47.62585 | 17.85182 | 78° | 27km/h | 32650m | -41.2m/s | -41.2°C | 2.0% | 0hPa | 2.4V | 00:00:00 | 02:07:48 | 00:00:00 | |
| OM5KV | 2026-09-06 01:23:22 | 47.62585 | 17.85182 | 79° | 49km/h | 32650m | -41.3m/s | -41.3°C | 0.3% | 0hPa | 2.4V | 00:00:00 | 00:00:00 | 00:00:00 | |
| OE3MUC-15 | 2026-09-06 01:23:21 | 47.62580 | 17.85151 | 82° | 27km/h | 32728m | -39.1m/s | -41.3°C | 2.0% | 0hPa | 2.4V | 00:00:00 | 00:00:00 | 00:00:00 | |
| S52SK | 2026-09-06 01:23:18 | 47.62580 | 17.85128 | 99° | 26km/h | 32803m | -36.7m/s | -41.4°C | 0.3% | 0hPa | 2.4V | 00:00:00 | 00:00:00 | 00:00:00 | |
| DO3MHA-12 | 2026-09-06 01:23:17 | 47.62584 | 17.85115 | 146° | 24km/h | 32876m | -37.7m/s | -41.0°C | 2.0% | 0hPa | 2.4V | 00:00:00 | 02:07:42 | 00:00:00 | |
| PETON7-10 | 2026-09-06 01:23:16 | 47.62588 | 17.85111 | 148° | 24km/h | 32913m | -36.3m/s | -40.9°C | 1.9% | 0hPa | 2.4V | 00:00:00 | 02:07:41 | 00:00:00 | |
| OM5KV | 2026-09-06 01:23:15 | 47.62588 | 17.85111 | 148° | 16km/h | 32913m | -36.3m/s | -40.9°C | 0.2% | 0hPa | 2.4V | 00:00:00 | 00:00:00 | 00:00:00 | |
| DO3MHA-11 | 2026-09-06 01:23:13 | 47.62596 | 17.85099 | 123° | 29km/h | 33018m | -34.4m/s | -41.3°C | 2.0% | 0hPa | 2.4V | 00:00:00 | 02:07:38 | 00:00:00 | |
| OE5DRO-10 | 2026-09-06 01:23:12 | 47.62597 | 17.85094 | 98° | 29km/h | 33050m | -31.3m/s | -41.4°C | 2.0% | 0hPa | 2.4V | 00:00:00 | 00:00:00 | 00:00:00 | |
| SP9KGR-15 | 2026-09-06 01:23:11 | 47.62597 | 17.85094 | 98° | 16km/h | 33050m | -31.3m/s | -41.4°C | 0.3% | 0hPa | 2.4V | 00:00:00 | 00:00:00 | 00:00:00 | |
| OE3MUC-15 | 2026-09-06 01:23:09 | 47.62590 | 17.85064 | 62° | 42km/h | 33137m | -32.4m/s | -40.9°C | 1.9% | 0hPa | 2.4V | 00:00:00 | 00:00:00 | 00:00:00 | |
| DO3MHA-12 | 2026-09-06 01:23:07 | 47.62577 | 17.85036 | 53° | 29km/h | 33200m | -35.1m/s | -41.0°C | 1.9% | 0hPa | 2.4V | 00:00:00 | 02:07:32 | 08:30:00 | |
| OE3MUC-15 | 2026-09-06 01:23:05 | 47.62564 | 17.85015 | 39° | 16km/h | 33259m | -32.4m/s | -41.2°C | 1.9% | 0hPa | 2.5V | 00:00:00 | 00:00:00 | 00:00:00 | |
| SQ9EZE-14 | 2026-09-06 01:23:04 | 47.62564 | 17.85015 | 40° | 26km/h | 33259m | -32.5m/s | 0°C | 0% | 0hPa | 2.5V | 00:00:00 | 00:00:00 | 00:00:00 | |
| OE5MMP-10 | 2026-09-06 01:23:03 | 47.62556 | 17.85011 | 353° | 15km/h | 33311m | -24.8m/s | -41.5°C | 2.0% | 0hPa | 2.5V | 00:00:00 | 02:07:28 | 00:00:00 | |
| PETON7-10 | 2026-09-06 01:23:01 | 47.62551 | 17.85014 | 314° | 22km/h | 33337m | -9.6m/s | -41.6°C | 2.0% | 0hPa | 2.4V | 00:00:00 | 00:00:00 | 08:30:00 | |
| OM5KV | 2026-09-06 01:22:58 | 47.62548 | 17.85021 | 238° | 13km/h | 33355m | -3.5m/s | -41.6°C | 0.3% | 0hPa | 2.4V | 00:00:00 | 00:00:00 | 00:00:00 | |
| OM5KV | 2026-09-06 01:22:55 | 47.62555 | 17.85024 | 158° | 16km/h | 33343m | 5.5m/s | -41.6°C | 0.3% | 0hPa | 2.4V | 00:00:00 | 00:00:00 | 00:00:00 | |
| OE3MUC-15 | 2026-09-06 01:22:54 | 47.62561 | 17.85012 | 102° | 27km/h | 33332m | 5.4m/s | -41.5°C | 2.0% | 0hPa | 2.4V | 00:00:00 | 00:00:00 | 00:00:00 | |
| DO3MHA-12 | 2026-09-06 01:22:53 | 47.62560 | 17.85004 | 75° | 15km/h | 33326m | 6.5m/s | -41.5°C | 2.0% | 0hPa | 2.4V | 00:00:00 | 02:07:18 | 00:00:00 | |
| HA6NAB-11 | 2026-09-06 01:22:52 | 47.62560 | 17.85004 | 76° | 26km/h | 33326m | 6.5m/s | -41.5°C | 0.3% | 0hPa | 2.4V | 00:00:00 | 00:00:00 | 00:00:00 | |
| OM5KV | 2026-09-06 01:22:51 | 47.62557 | 17.84995 | 54° | 29km/h | 33320m | 6.5m/s | -41.5°C | 0.3% | 0hPa | 2.4V | 00:00:00 | 00:00:00 | 00:00:00 | |
| OE3MUC-15 | 2026-09-06 01:22:50 | 47.62544 | 17.84982 | 17° | 24km/h | 33308m | 5.4m/s | -41.4°C | 2.0% | 0hPa | 2.4V | 00:00:00 | 00:00:00 | 08:30:00 | |
| HA6NAB-11 | 2026-09-06 01:22:47 | 47.62531 | 17.84981 | 342° | 20km/h | 33297m | 5.5m/s | -41.5°C | 0.3% | 0hPa | 2.4V | 00:00:00 | 00:00:00 | 00:00:00 | |
| OE3MUC-15 | 2026-09-06 01:22:46 | 47.62527 | 17.84988 | 261° | 16km/h | 33284m | 6.9m/s | -41.4°C | 2.0% | 0hPa | 2.4V | 00:00:00 | 00:00:00 | 00:00:00 | |
| PETON7-10 | 2026-09-06 01:22:45 | 47.62529 | 17.84991 | 215° | 13km/h | 33277m | 6.9m/s | -41.4°C | 2.0% | 0hPa | 2.4V | 00:00:00 | 00:00:00 | 00:00:00 | |
| OK1ALN | 2026-09-06 01:22:44 | 47.62529 | 17.84991 | 215° | 15km/h | 33277m | 6.9m/s | 0°C | 0% | 0hPa | 2.4V | 00:00:00 | 00:00:00 | 00:00:00 | |
| DO3MHA-11 | 2026-09-06 01:22:43 | 47.62537 | 17.84994 | 182° | 13km/h | 33265m | 5.4m/s | -41.4°C | 2.0% | 0hPa | 2.4V | 00:00:00 | 02:07:08 | 00:00:00 | |
| OE3MUC-15 | 2026-09-06 01:22:42 | 47.62541 | 17.84994 | 174° | 9km/h | 33260m | 5.6m/s | -41.4°C | 2.0% | 0hPa | 2.4V | 00:00:00 | 00:00:00 | 00:00:00 | |
| HA6NAB-11 | 2026-09-06 01:22:41 | 47.62542 | 17.84994 | 174° | 15km/h | 33260m | 5.6m/s | -41.4°C | 0.3% | 0hPa | 2.4V | 00:00:00 | 00:00:00 | 00:00:00 | |
| OM5KV | 2026-09-06 01:22:39 | 47.62545 | 17.84992 | 94° | 4km/h | 33247m | 6.6m/s | -41.4°C | 0.3% | 0hPa | 2.4V | 00:00:00 | 00:00:00 | 00:00:00 | |
| OE3MUC-15 | 2026-09-06 01:22:38 | 47.62542 | 17.84988 | 31° | 16km/h | 33235m | 5.6m/s | -41.3°C | 2.0% | 0hPa | 2.4V | 00:00:00 | 00:00:00 | 00:00:00 | |
| OE3OSB-13 | 2026-09-06 01:22:35 | 47.62531 | 17.84972 | 77° | 13km/h | 33210m | 6.5m/s | -41.3°C | 0.2% | -1.0hPa | 2.5V | 00:00:00 | 00:00:00 | 00:00:00 | |
| OE3MUC-15 | 2026-09-06 01:22:34 | 47.62531 | 17.84972 | 78° | 9km/h | 33210m | 6.5m/s | -41.2°C | 2.0% | 0hPa | 2.5V | 00:00:00 | 00:00:00 | 00:00:00 | |
| DO3MHA-11 | 2026-09-06 01:22:33 | 47.62531 | 17.84968 | 108° | 11km/h | 33204m | 6.1m/s | -41.2°C | 2.0% | 0hPa | 2.5V | 00:00:00 | 02:06:58 | 00:00:00 | |
| SONDE2-11 | 2026-09-06 01:22:32 | 47.62533 | 17.84965 | 152° | 7km/h | 33198m | 5.9m/s | -41.2°C | 0.2% | -1.0hPa | 2.4V | 00:00:00 | 00:00:00 | 00:00:00 | |
| OE3MUC-15 | 2026-09-06 01:22:30 | 47.62536 | 17.84968 | 237° | 15km/h | 33185m | 7.7m/s | -41.1°C | 2.0% | 0hPa | 2.4V | 00:00:00 | 00:00:00 | 00:00:00 | |
| OM5KV | 2026-09-06 01:22:29 | 47.62536 | 17.84968 | 238° | 13km/h | 33185m | 7.7m/s | -41.2°C | 0.3% | 0hPa | 2.4V | 00:00:00 | 00:00:00 | 00:00:00 | |
| LZ4TU-5 | 2026-09-06 01:22:27 | 47.62539 | 17.84978 | 255° | 16km/h | 33172m | 4.9m/s | 0°C | 0% | 0hPa | 2.4V | 00:00:00 | 00:00:00 | 00:00:00 | |
| OE3MUC-15 | 2026-09-06 01:22:26 | 47.62542 | 17.84986 | 207° | 13km/h | 33162m | 6.6m/s | -41.1°C | 2.0% | 0hPa | 2.4V | 00:00:00 | 00:00:00 | 00:00:00 | |
| PG1ADW-2 | 2026-09-06 01:22:25 | 47.62544 | 17.84985 | 142° | 16km/h | 33155m | 6.8m/s | -41.1°C | 2.0% | 0hPa | 2.4V | 00:00:00 | 00:00:00 | 00:00:00 | |
| OM5KV | 2026-09-06 01:22:24 | 47.62544 | 17.84985 | 142° | 9km/h | 33155m | 6.8m/s | -41.1°C | 0.3% | 0hPa | 2.4V | 00:00:00 | 00:00:00 | 00:00:00 | |
| OE5MMP-10 | 2026-09-06 01:22:23 | 47.62547 | 17.84974 | 100° | 15km/h | 33142m | 5.7m/s | -41.1°C | 2.0% | 0hPa | 2.4V | 00:00:00 | 02:06:48 | 00:00:00 | |
| OE3MUC-15 | 2026-09-06 01:22:22 | 47.62547 | 17.84967 | 90° | 16km/h | 33137m | 5.7m/s | -41.2°C | 2.0% | 0hPa | 2.4V | 00:00:00 | 00:00:00 | 00:00:00 | |
| DO3MHA-12 | 2026-09-06 01:22:20 | 47.62545 | 17.84954 | 61° | 13km/h | 33124m | 6.1m/s | -41.3°C | 2.0% | 0hPa | 2.4V | 00:00:00 | 02:06:45 | 00:00:00 | |
| OE3MUC-15 | 2026-09-06 01:22:18 | 47.62542 | 17.84949 | 360° | 9km/h | 33113m | 4.6m/s | -41.5°C | 2.0% | 0hPa | 2.5V | 00:00:00 | 00:00:00 | 00:00:00 | |
| OM5KV | 2026-09-06 01:22:17 | 47.62542 | 17.84949 | 361° | 2km/h | 33113m | 4.7m/s | -41.5°C | 0.3% | 0hPa | 2.5V | 00:00:00 | 00:00:00 | 00:00:00 | |
| PETON7-10 | 2026-09-06 01:22:15 | 47.62549 | 17.84950 | 173° | 22km/h | 33096m | 7.2m/s | -41.6°C | 2.1% | 0hPa | 2.5V | 00:00:00 | 00:00:00 | 00:00:00 | |
| OE3MUC-15 | 2026-09-06 01:22:14 | 47.62554 | 17.84948 | 160° | 26km/h | 33090m | 6.3m/s | -41.6°C | 2.0% | 0hPa | 2.4V | 00:00:00 | 00:00:00 | 08:30:00 | |
| OE5MMP-10 | 2026-09-06 01:22:13 | 47.62560 | 17.84944 | 150° | 18km/h | 33084m | 5.0m/s | -41.6°C | 2.0% | 0hPa | 2.5V | 00:00:00 | 02:06:38 | 00:00:00 | |
| DO3MHA-12 | 2026-09-06 01:22:10 | 47.62572 | 17.84924 | 104° | 24km/h | 33067m | 6.4m/s | -41.7°C | 2.1% | 0hPa | 2.5V | 00:00:00 | 02:06:35 | 00:00:00 | |
| OM5KV | 2026-09-06 01:22:08 | 47.62572 | 17.84918 | 83° | 15km/h | 33061m | 6.0m/s | -41.7°C | 0.3% | 0hPa | 2.5V | 00:00:00 | 00:00:00 | 00:00:00 | |
| HA6NAB-11 | 2026-09-06 01:22:07 | 47.62571 | 17.84913 | 71° | 13km/h | 33055m | 5.1m/s | -41.7°C | 0.3% | 0hPa | 2.5V | 00:00:00 | 00:00:00 | 00:00:00 | |
| OE3MUC-15 | 2026-09-06 01:22:06 | 47.62570 | 17.84904 | 98° | 22km/h | 33045m | 5.5m/s | -41.6°C | 2.1% | 0hPa | 2.5V | 00:00:00 | 00:00:00 | 00:00:00 | |
| PG1ADW-2 | 2026-09-06 01:22:05 | 47.62571 | 17.84899 | 114° | 29km/h | 33039m | 5.9m/s | -41.6°C | 2.1% | 0hPa | 2.5V | 00:00:00 | 02:06:30 | 00:00:00 | |
| DO3MHA-11 | 2026-09-06 01:22:03 | 47.62577 | 17.84883 | 116° | 27km/h | 33027m | 5.6m/s | -41.6°C | 2.1% | 0hPa | 2.5V | 00:00:00 | 02:06:28 | 00:00:00 | |
| OE3MUC-15 | 2026-09-06 01:22:02 | 47.62580 | 17.84872 | 112° | 33km/h | 33021m | 5.5m/s | -41.5°C | 2.1% | 0hPa | 2.4V | 00:00:00 | 00:00:00 | 00:00:00 | |
| OE5DXL-15 | 2026-09-06 01:22:01 | 47.62583 | 17.84859 | 106° | 49km/h | 33016m | 5.7m/s | -41.5°C | 2.0% | 0hPa | 2.4V | 00:00:00 | 00:00:00 | 08:30:00 | |
| DO3MHA-12 | 2026-09-06 01:22:00 | 47.62585 | 17.84847 | 99° | 29km/h | 33010m | 5.6m/s | -41.5°C | 2.1% | 0hPa | 2.4V | 00:00:00 | 02:06:25 | 00:00:00 | |
| OM5KV | 2026-09-06 01:21:59 | 47.62585 | 17.84847 | 99° | 33km/h | 33010m | 5.6m/s | -41.6°C | 0.3% | 0hPa | 2.4V | 00:00:00 | 00:00:00 | 00:00:00 | |
| OE3MUC-15 | 2026-09-06 01:21:58 | 47.62586 | 17.84825 | 89° | 22km/h | 32999m | 5.5m/s | -41.5°C | 2.1% | 0hPa | 2.4V | 00:00:00 | 00:00:00 | 00:00:00 | |
| OE5DRO-10 | 2026-09-06 01:21:56 | 47.62586 | 17.84809 | 99° | 37km/h | 32988m | 5.3m/s | -41.4°C | 2.0% | 0hPa | 2.4V | 00:00:00 | 00:00:00 | 00:00:00 | |
| OE3MUC-15 | 2026-09-06 01:21:54 | 47.62588 | 17.84792 | 104° | 35km/h | 32978m | 5.1m/s | -41.4°C | 2.1% | 0hPa | 2.4V | 00:00:00 | 00:00:00 | 00:00:00 | |
| DO3MHA-11 | 2026-09-06 01:21:53 | 47.62590 | 17.84781 | 98° | 33km/h | 32972m | 5.4m/s | -41.3°C | 2.0% | 0hPa | 2.4V | 00:00:00 | 02:06:18 | 00:00:00 | |
| OM5KV | 2026-09-06 01:21:50 | 47.62590 | 17.84753 | 86° | 40km/h | 32960m | 5.7m/s | -41.3°C | 0.3% | 0hPa | 2.4V | 00:00:00 | 00:00:00 | 00:00:00 | |
| OM5KV | 2026-09-06 01:21:48 | 47.62587 | 17.84724 | 78° | 37km/h | 32949m | 5.3m/s | -41.2°C | 0.2% | 0hPa | 2.4V | 00:00:00 | 00:00:00 | 00:00:00 | |
| OE3MUC-15 | 2026-09-06 01:21:46 | 47.62584 | 17.84691 | 99° | 33km/h | 32933m | 4.9m/s | -41.1°C | 2.0% | 0hPa | 2.4V | 00:00:00 | 00:00:00 | 00:00:00 | |
| PETON7-10 | 2026-09-06 01:21:45 | 47.62586 | 17.84681 | 111° | 40km/h | 32928m | 5.4m/s | -41.1°C | 1.9% | 0hPa | 2.4V | 00:00:00 | 02:06:10 | 00:00:00 | |
| HA6NAB-11 | 2026-09-06 01:21:44 | 47.62586 | 17.84681 | 112° | 29km/h | 32928m | 5.5m/s | -41.2°C | 0.2% | 0hPa | 2.4V | 00:00:00 | 00:00:00 | 00:00:00 | |
| OE5MMP-10 | 2026-09-06 01:21:43 | 47.62593 | 17.84658 | 113° | 42km/h | 32917m | 4.9m/s | -41.1°C | 1.9% | 0hPa | 2.4V | 00:00:00 | 02:06:08 | 00:00:00 | |
| SP9KGR-15 | 2026-09-06 01:21:42 | 47.62593 | 17.84657 | 113° | 42km/h | 32917m | 5.0m/s | -41.2°C | 0.2% | 0hPa | 2.4V | 00:00:00 | 00:00:00 | 00:00:00 | |
| OK1ALN | 2026-09-06 01:21:41 | 47.62596 | 17.84642 | 105° | 47km/h | 32913m | 4.8m/s | 0°C | 0% | 0hPa | 2.4V | 00:00:00 | 00:00:00 | 00:00:00 | |
| DO3MHA-12 | 2026-09-06 01:21:40 | 47.62598 | 17.84604 | 84° | 47km/h | 32902m | 5.3m/s | -41.2°C | 1.9% | 0hPa | 2.4V | 00:00:00 | 02:06:05 | 00:00:00 | |
| OM5KV | 2026-09-06 01:21:38 | 47.62595 | 17.84586 | 73° | 51km/h | 32897m | 5.6m/s | -41.3°C | 0.2% | 0hPa | 2.4V | 00:00:00 | 00:00:00 | 00:00:00 | |
| OE5DRO-10 | 2026-09-06 01:21:37 | 47.62585 | 17.84554 | 59° | 46km/h | 32886m | 4.5m/s | -41.5°C | 2.0% | 0hPa | 2.4V | 00:00:00 | 00:00:00 | 00:00:00 | |
| OM5KV | 2026-09-06 01:21:36 | 47.62585 | 17.84554 | 59° | 42km/h | 32886m | 4.6m/s | -41.5°C | 0.3% | 0hPa | 2.5V | 00:00:00 | 00:00:00 | 00:00:00 | |
| OE5MMP-10 | 2026-09-06 01:21:33 | 47.62578 | 17.84510 | 110° | 49km/h | 32866m | 5.5m/s | -41.7°C | 2.0% | 0hPa | 2.5V | 00:00:00 | 02:05:58 | 00:00:00 | |
| OM5KV | 2026-09-06 01:21:32 | 47.62578 | 17.84510 | 110° | 35km/h | 32866m | 5.6m/s | -41.7°C | 0.3% | 0hPa | 2.4V | 00:00:00 | 00:00:00 | 00:00:00 | |
| OM5KV | 2026-09-06 01:21:31 | 47.62582 | 17.84496 | 115° | 44km/h | 32860m | 5.5m/s | -41.8°C | 0.3% | 0hPa | 2.4V | 00:00:00 | 00:00:00 | 00:00:00 | |
| PETON7-10 | 2026-09-06 01:21:30 | 47.62590 | 17.84460 | 106° | 49km/h | 32850m | 4.5m/s | -41.9°C | 2.1% | 0hPa | 2.4V | 00:00:00 | 00:00:00 | 00:00:00 | |
| DO3MHA-12 | 2026-09-06 01:21:29 | 47.62593 | 17.84440 | 97° | 47km/h | 32846m | 4.8m/s | -42.0°C | 2.1% | 0hPa | 2.4V | 00:00:00 | 02:05:54 | 00:00:00 | |
| OM5KV | 2026-09-06 01:21:26 | 47.62592 | 17.84398 | 77° | 55km/h | 32834m | 6.1m/s | -42.1°C | 0.3% | 0hPa | 2.4V | 00:00:00 | 00:00:00 | 00:00:00 | |
| PG1ADW-2 | 2026-09-06 01:21:25 | 47.62582 | 17.84362 | 64° | 42km/h | 32823m | 4.9m/s | -42.0°C | 2.1% | 0hPa | 2.4V | 00:00:00 | 00:00:00 | 00:00:00 | |
| DO3MHA-11 | 2026-09-06 01:21:23 | 47.62573 | 17.84333 | 72° | 44km/h | 32813m | 5.0m/s | -42.0°C | 2.1% | 0hPa | 2.4V | 00:00:00 | 02:05:48 | 00:00:00 | |
| OK1ALN | 2026-09-06 01:21:20 | 47.62570 | 17.84303 | 88° | 42km/h | 32802m | 5.9m/s | 0°C | 0% | 0hPa | 2.4V | 00:00:00 | 00:00:00 | 00:00:00 | |
| DO3MHA-12 | 2026-09-06 01:21:19 | 47.62569 | 17.84269 | 89° | 40km/h | 32790m | 5.5m/s | -41.9°C | 2.1% | 0hPa | 2.4V | 00:00:00 | 02:05:44 | 08:30:00 | |
| OE3MUC-15 | 2026-09-06 01:21:18 | 47.62569 | 17.84251 | 88° | 46km/h | 32785m | 5.0m/s | -41.9°C | 2.0% | 0hPa | 2.4V | 00:00:00 | 00:00:00 | 00:00:00 | |
| PETON7-10 | 2026-09-06 01:21:15 | 47.62567 | 17.84199 | 87° | 37km/h | 32770m | 5.9m/s | -41.8°C | 2.1% | 0hPa | 2.4V | 00:00:00 | 00:00:00 | 00:00:00 | |
| OE3MUC-15 | 2026-09-06 01:21:14 | 47.62567 | 17.84185 | 89° | 31km/h | 32764m | 6.1m/s | -41.8°C | 2.0% | 0hPa | 2.4V | 00:00:00 | 00:00:00 | 00:00:00 | |
| DO3MHA-11 | 2026-09-06 01:21:13 | 47.62567 | 17.84173 | 92° | 38km/h | 32757m | 5.8m/s | -41.8°C | 2.0% | 0hPa | 2.5V | 00:00:00 | 02:05:38 | 00:00:00 | |
| OM5KV | 2026-09-06 01:21:11 | 47.62567 | 17.84162 | 91° | 29km/h | 32752m | 5.0m/s | -41.8°C | 0.3% | 0hPa | 2.5V | 00:00:00 | 00:00:00 | 00:00:00 | |
| OE3MUC-15 | 2026-09-06 01:21:10 | 47.62565 | 17.84139 | 79° | 46km/h | 32742m | 5.6m/s | -41.7°C | 2.0% | 0hPa | 2.5V | 00:00:00 | 00:00:00 | 00:00:00 | |
| DO3MHA-12 | 2026-09-06 01:21:08 | 47.62559 | 17.84108 | 72° | 38km/h | 32729m | 5.4m/s | -41.7°C | 2.0% | 0hPa | 2.5V | 00:00:00 | 02:05:33 | 00:00:00 | |
| SP9KGR-15 | 2026-09-06 01:21:07 | 47.62559 | 17.84108 | 72° | 49km/h | 32729m | 5.5m/s | -41.7°C | 0.3% | 0hPa | 2.5V | 00:00:00 | 00:00:00 | 00:00:00 | |
| OE3MUC-15 | 2026-09-06 01:21:06 | 47.62551 | 17.84073 | 72° | 37km/h | 32720m | 4.8m/s | -41.7°C | 2.1% | 0hPa | 2.5V | 00:00:00 | 00:00:00 | 00:00:00 | |
| PG1ADW-2 | 2026-09-06 01:21:05 | 47.62547 | 17.84058 | 74° | 29km/h | 32714m | 6.0m/s | -41.7°C | 2.0% | 0hPa | 2.5V | 00:00:00 | 00:00:00 | 00:00:00 | |
| OE5MMP-10 | 2026-09-06 01:21:03 | 47.62544 | 17.84034 | 83° | 29km/h | 32703m | 4.9m/s | -41.7°C | 2.0% | 0hPa | 2.5V | 00:00:00 | 02:05:28 | 08:30:00 | |
| OE3MUC-15 | 2026-09-06 01:21:02 | 47.62543 | 17.84025 | 85° | 27km/h | 32698m | 4.9m/s | -41.8°C | 2.0% | 0hPa | 2.4V | 00:00:00 | 00:00:00 | 08:30:00 | |
| OE3OSB-13 | 2026-09-06 01:21:01 | 47.62543 | 17.84015 | 84° | 26km/h | 32693m | 5.7m/s | -41.8°C | 0.2% | -1.0hPa | 2.4V | 00:00:00 | 00:00:00 | 00:00:00 | |
| PETON7-10 | 2026-09-06 01:21:00 | 47.62542 | 17.84005 | 83° | 29km/h | 32686m | 6.0m/s | -41.8°C | 2.0% | 0hPa | 2.4V | 00:00:00 | 02:05:25 | 00:00:00 | |
| OE5DRO-10 | 2026-09-06 01:20:59 | 47.62541 | 17.83994 | 78° | 26km/h | 32680m | 5.5m/s | -41.9°C | 2.0% | 0hPa | 2.4V | 00:00:00 | 00:00:00 | 00:00:00 | |
| DO3MHA-12 | 2026-09-06 01:20:58 | 47.62539 | 17.83982 | 77° | 29km/h | 32675m | 4.7m/s | -41.9°C | 2.0% | 0hPa | 2.4V | 00:00:00 | 02:05:23 | 00:00:00 | |
| SQ9EZE-14 | 2026-09-06 01:20:57 | 47.62539 | 17.83982 | 77° | 33km/h | 32675m | 4.8m/s | 0°C | 0% | 0hPa | 2.4V | 00:00:00 | 00:00:00 | 00:00:00 | |
| HA6NAB-11 | 2026-09-06 01:20:56 | 47.62536 | 17.83970 | 77° | 33km/h | 32671m | 4.2m/s | -41.9°C | 0.3% | 0hPa | 2.4V | 00:00:00 | 00:00:00 | 00:00:00 | |
| OM5KV | 2026-09-06 01:20:55 | 47.62535 | 17.83958 | 79° | 31km/h | 32666m | 4.9m/s | -41.9°C | 0.3% | 0hPa | 2.4V | 00:00:00 | 00:00:00 | 00:00:00 | |
| OE3MUC-15 | 2026-09-06 01:20:54 | 47.62533 | 17.83937 | 92° | 26km/h | 32655m | 6.1m/s | -41.9°C | 2.0% | 0hPa | 2.4V | 00:00:00 | 00:00:00 | 00:00:00 | |
| OE5MMP-10 | 2026-09-06 01:20:53 | 47.62534 | 17.83929 | 97° | 26km/h | 32649m | 5.4m/s | -41.9°C | 2.0% | 0hPa | 2.4V | 00:00:00 | 02:05:18 | 00:00:00 | |
| OK1ALN | 2026-09-06 01:20:52 | 47.62534 | 17.83928 | 98° | 22km/h | 32649m | 5.5m/s | 0°C | 0% | 0hPa | 2.4V | 00:00:00 | 00:00:00 | 00:00:00 | |
| SP9KGR-15 | 2026-09-06 01:20:51 | 47.62534 | 17.83920 | 98° | 24km/h | 32643m | 4.9m/s | -42.0°C | 0.3% | 0hPa | 2.4V | 00:00:00 | 00:00:00 | 00:00:00 | |
| OE3MUC-15 | 2026-09-06 01:20:50 | 47.62535 | 17.83899 | 86° | 31km/h | 32633m | 6.4m/s | -42.1°C | 2.0% | 0hPa | 2.4V | 00:00:00 | 00:00:00 | 00:00:00 | |
| DO3MHA-12 | 2026-09-06 01:20:48 | 47.62532 | 17.83875 | 78° | 20km/h | 32622m | 4.4m/s | -42.3°C | 2.1% | 0hPa | 2.4V | 00:00:00 | 02:05:13 | 00:00:00 | |
| PETON7-10 | 2026-09-06 01:20:45 | 47.62529 | 17.83847 | 92° | 20km/h | 32604m | 6.1m/s | -42.5°C | 2.1% | 0hPa | 2.5V | 00:00:00 | 00:00:00 | 08:30:00 | |
| OM5KV | 2026-09-06 01:20:44 | 47.62529 | 17.83847 | 93° | 16km/h | 32604m | 6.1m/s | -42.6°C | 0.3% | 0hPa | 2.5V | 00:00:00 | 00:00:00 | 00:00:00 | |
| DO3MHA-11 | 2026-09-06 01:20:43 | 47.62530 | 17.83838 | 109° | 20km/h | 32594m | 4.3m/s | -42.5°C | 2.1% | 0hPa | 2.5V | 00:00:00 | 02:05:08 | 00:00:00 | |
| OE3MUC-15 | 2026-09-06 01:20:42 | 47.62531 | 17.83832 | 103° | 22km/h | 32589m | 5.7m/s | -42.5°C | 2.1% | 0hPa | 2.5V | 00:00:00 | 00:00:00 | 00:00:00 | |
| OE5DRO-10 | 2026-09-06 01:20:40 | 47.62532 | 17.83817 | 96° | 22km/h | 32576m | 5.5m/s | -42.5°C | 2.1% | 0hPa | 2.5V | 00:00:00 | 00:00:00 | 08:30:00 | |
| HA6NAB-11 | 2026-09-06 01:20:39 | 47.62532 | 17.83817 | 96° | 24km/h | 32576m | 5.5m/s | -42.5°C | 0.3% | 0hPa | 2.4V | 00:00:00 | 00:00:00 | 00:00:00 | |
| OE3MUC-15 | 2026-09-06 01:20:38 | 47.62534 | 17.83799 | 103° | 20km/h | 32566m | 6.0m/s | -42.5°C | 2.1% | 0hPa | 2.4V | 00:00:00 | 00:00:00 | 00:00:00 | |
| DO3MHA-12 | 2026-09-06 01:20:36 | 47.62537 | 17.83783 | 108° | 18km/h | 32554m | 5.0m/s | -42.5°C | 2.1% | 0hPa | 2.5V | 00:00:00 | 02:05:01 | 00:00:00 | |
| OE3MUC-15 | 2026-09-06 01:20:34 | 47.62538 | 17.83770 | 84° | 20km/h | 32543m | 6.4m/s | -42.5°C | 2.1% | 0hPa | 2.5V | 00:00:00 | 00:00:00 | 00:00:00 | |
| DO3MHA-11 | 2026-09-06 01:20:33 | 47.62537 | 17.83764 | 69° | 20km/h | 32537m | 6.4m/s | -42.5°C | 2.1% | 0hPa | 2.5V | 00:00:00 | 02:04:58 | 00:00:00 | |
| PETON7-10 | 2026-09-06 01:20:30 | 47.62531 | 17.83744 | 77° | 20km/h | 32523m | 4.1m/s | -42.7°C | 2.1% | 0hPa | 2.4V | 00:00:00 | 00:00:00 | 00:00:00 | |
| GYPAP8-17 | 2026-09-06 01:20:29 | 47.62531 | 17.83744 | 77° | 15km/h | 32523m | 4.2m/s | -42.7°C | 0.3% | 0hPa | 2.4V | 00:00:00 | 00:00:00 | 00:00:00 | |
| SONDE2-11 | 2026-09-06 01:20:28 | 47.62533 | 17.83735 | 139° | 15km/h | 32511m | 6.9m/s | -42.7°C | 0.3% | -1.0hPa | 2.4V | 00:00:00 | 00:00:00 | 00:00:00 | |
| DO3MHA-12 | 2026-09-06 01:20:26 | 47.62542 | 17.83727 | 154° | 22km/h | 32499m | 4.5m/s | -42.7°C | 2.1% | 0hPa | 2.4V | 00:00:00 | 02:04:51 | 00:00:00 | |
| PG1ADW-2 | 2026-09-06 01:20:25 | 47.62548 | 17.83722 | 147° | 22km/h | 32495m | 4.3m/s | -42.7°C | 2.1% | 0hPa | 2.4V | 00:00:00 | 00:00:00 | 08:30:00 | |
| OE5MMP-10 | 2026-09-06 01:20:23 | 47.62556 | 17.83708 | 113° | 20km/h | 32483m | 6.0m/s | -42.8°C | 2.1% | 0hPa | 2.5V | 00:00:00 | 02:04:48 | 00:00:00 | |
| OE3MUC-15 | 2026-09-06 01:20:22 | 47.62558 | 17.83699 | 95° | 18km/h | 32477m | 6.0m/s | -42.7°C | 2.1% | 0hPa | 2.5V | 00:00:00 | 00:00:00 | 00:00:00 | |
| OE5DRO-10 | 2026-09-06 01:20:21 | 47.62558 | 17.83689 | 82° | 20km/h | 32472m | 5.0m/s | -42.8°C | 2.1% | 0hPa | 2.5V | 00:00:00 | 00:00:00 | 00:00:00 | |
| SP9KGR-15 | 2026-09-06 01:20:18 | 47.62556 | 17.83674 | 78° | 15km/h | 32462m | 5.7m/s | -42.8°C | 0.3% | 0hPa | 2.5V | 00:00:00 | 00:00:00 | 00:00:00 | |
| OM5KV | 2026-09-06 01:20:17 | 47.62555 | 17.83670 | 111° | 7km/h | 32456m | 6.5m/s | -42.9°C | 0.3% | 0hPa | 2.5V | 00:00:00 | 00:00:00 | 00:00:00 | |
| DO3MHA-12 | 2026-09-06 01:20:16 | 47.62560 | 17.83667 | 176° | 22km/h | 32444m | 5.3m/s | -42.9°C | 2.1% | 0hPa | 2.5V | 00:00:00 | 02:04:41 | 00:00:00 | |
| OE5DXL-15 | 2026-09-06 01:20:15 | 47.62566 | 17.83667 | 171° | 27km/h | 32439m | 5.3m/s | -42.9°C | 2.1% | 0hPa | 2.5V | 00:00:00 | 00:00:00 | 00:00:00 | |
| OE5MMP-10 | 2026-09-06 01:20:13 | 47.62577 | 17.83660 | 147° | 22km/h | 32427m | 5.9m/s | -43.0°C | 2.2% | 0hPa | 2.5V | 00:00:00 | 02:04:38 | 00:00:00 | |
| LZ4TU-5 | 2026-09-06 01:20:12 | 47.62577 | 17.83660 | 148° | 27km/h | 32427m | 5.9m/s | 0°C | 0% | 0hPa | 2.5V | 00:00:00 | 00:00:00 | 00:00:00 | |
| OE3MUC-15 | 2026-09-06 01:20:11 | 47.62588 | 17.83645 | 127° | 24km/h | 32416m | 4.8m/s | -43.0°C | 2.2% | 0hPa | 2.5V | 00:00:00 | 00:00:00 | 00:00:00 | |
| OM5KV | 2026-09-06 01:20:10 | 47.62588 | 17.83645 | 127° | 27km/h | 32416m | 4.8m/s | -43.1°C | 0.3% | 0hPa | 2.5V | 00:00:00 | 00:00:00 | 00:00:00 | |
| LZ4TU-5 | 2026-09-06 01:20:08 | 47.62595 | 17.83629 | 118° | 22km/h | 32404m | 6.5m/s | 0°C | 0% | 0hPa | 2.5V | 00:00:00 | 00:00:00 | 00:00:00 | |
| OE3MUC-15 | 2026-09-06 01:20:07 | 47.62597 | 17.83617 | 93° | 16km/h | 32393m | 5.2m/s | -43.1°C | 2.2% | 0hPa | 2.5V | 00:00:00 | 00:00:00 | 00:00:00 | |
| DO3MHA-12 | 2026-09-06 01:20:06 | 47.62597 | 17.83611 | 80° | 22km/h | 32387m | 4.9m/s | -43.2°C | 2.1% | 0hPa | 2.5V | 00:00:00 | 02:04:31 | 00:00:00 | |
| PG1ADW-2 | 2026-09-06 01:20:05 | 47.62596 | 17.83605 | 76° | 27km/h | 32381m | 6.7m/s | -43.2°C | 2.2% | 0hPa | 2.5V | 00:00:00 | 00:00:00 | 00:00:00 | |
| DO3MHA-11 | 2026-09-06 01:20:03 | 47.62594 | 17.83590 | 83° | 29km/h | 32369m | 5.7m/s | -43.2°C | 2.2% | 0hPa | 2.5V | 00:00:00 | 02:04:28 | 08:30:00 | |
| OE5DRO-10 | 2026-09-06 01:20:02 | 47.62593 | 17.83582 | 94° | 29km/h | 32363m | 5.2m/s | -43.2°C | 2.2% | 0hPa | 2.5V | 00:00:00 | 00:00:00 | 00:00:00 | |
| OE3OSB-13 | 2026-09-06 01:19:59 | 47.62605 | 17.83558 | 140° | 26km/h | 32339m | 5.2m/s | -43.5°C | 0.3% | -1.0hPa | 2.5V | 00:00:00 | 00:00:00 | 00:00:00 | |
| SONDE2-11 | 2026-09-06 01:19:57 | 47.62611 | 17.83550 | 133° | 31km/h | 32333m | 6.0m/s | -43.6°C | -1.0% | -1.0hPa | 2.5V | 00:00:00 | 00:00:00 | 00:00:00 | |
| DO3MHA-12 | 2026-09-06 01:19:56 | 47.62616 | 17.83540 | 124° | 31km/h | 32327m | 6.8m/s | -43.6°C | 2.2% | 0hPa | 2.5V | 00:00:00 | 02:04:21 | 00:00:00 | |
| OE3MUC-15 | 2026-09-06 01:19:55 | 47.62621 | 17.83527 | 115° | 40km/h | 32321m | 5.6m/s | -43.6°C | 2.3% | 0hPa | 2.5V | 00:00:00 | 00:00:00 | 00:00:00 | |
| HA6NAB-11 | 2026-09-06 01:19:54 | 47.62621 | 17.83527 | 115° | 42km/h | 32321m | 5.7m/s | -43.7°C | 0.3% | 0hPa | 2.5V | 00:00:00 | 00:00:00 | 00:00:00 | |
| DO3MHA-11 | 2026-09-06 01:19:53 | 47.62627 | 17.83496 | 99° | 29km/h | 32311m | 4.7m/s | -43.7°C | 2.3% | 0hPa | 2.5V | 00:00:00 | 02:04:18 | 00:00:00 | |
| S52SK | 2026-09-06 01:19:48 | 47.62627 | 17.83456 | 84° | 16km/h | 32287m | 4.8m/s | -43.8°C | 0.3% | 0hPa | 2.5V | 00:00:00 | 00:00:00 | 00:00:00 | |
| OE3MUC-15 | 2026-09-06 01:19:47 | 47.62627 | 17.83442 | 101° | 33km/h | 32276m | 6.2m/s | -43.8°C | 2.2% | 0hPa | 2.5V | 00:00:00 | 00:00:00 | 08:30:00 | |
| DO3MHA-12 | 2026-09-06 01:19:46 | 47.62629 | 17.83433 | 106° | 33km/h | 32269m | 6.7m/s | -43.8°C | 2.3% | 0hPa | 2.5V | 00:00:00 | 02:04:11 | 08:30:00 | |
| OM5KV | 2026-09-06 01:19:44 | 47.62631 | 17.83421 | 109° | 37km/h | 32263m | 6.6m/s | -43.9°C | 0.3% | 0hPa | 2.5V | 00:00:00 | 00:00:00 | 00:00:00 | |
| OE5MMP-10 | 2026-09-06 01:19:43 | 47.62637 | 17.83392 | 108° | 33km/h | 32251m | 4.7m/s | -43.9°C | 2.2% | 0hPa | 2.5V | 00:00:00 | 02:04:08 | 00:00:00 | |
| HA6NAB-11 | 2026-09-06 01:19:42 | 47.62637 | 17.83392 | 109° | 42km/h | 32251m | 4.8m/s | -43.9°C | 0.3% | 0hPa | 2.5V | 00:00:00 | 00:00:00 | 00:00:00 | |
| OM5KV | 2026-09-06 01:19:37 | 47.62646 | 17.83332 | 87° | 24km/h | 32223m | 4.8m/s | -44.0°C | 0.3% | 0hPa | 2.5V | 00:00:00 | 00:00:00 | 00:00:00 | |
| DO3MHA-12 | 2026-09-06 01:19:36 | 47.62644 | 17.83312 | 82° | 38km/h | 32212m | 6.4m/s | -43.9°C | 2.3% | 0hPa | 2.5V | 00:00:00 | 02:04:01 | 00:00:00 | |
| OM5KV | 2026-09-06 01:19:34 | 47.62642 | 17.83299 | 82° | 38km/h | 32205m | 6.3m/s | -44.0°C | 0.3% | 0hPa | 2.5V | 00:00:00 | 00:00:00 | 00:00:00 | |
| OE5MMP-10 | 2026-09-06 01:19:33 | 47.62638 | 17.83269 | 75° | 37km/h | 32194m | 5.4m/s | -43.9°C | 2.3% | 0hPa | 2.5V | 00:00:00 | 02:03:58 | 08:30:00 | |
| PETON7-10 | 2026-09-06 01:19:30 | 47.62628 | 17.83229 | 69° | 37km/h | 32175m | 4.9m/s | -43.8°C | 2.3% | 0hPa | 2.4V | 00:00:00 | 02:03:55 | 00:00:00 | |
| OE3OSB-13 | 2026-09-06 01:19:28 | 47.62623 | 17.83204 | 82° | 35km/h | 32163m | 7.2m/s | -43.9°C | 0.3% | -1.0hPa | 2.4V | 00:00:00 | 00:00:00 | 00:00:00 | |
| DO3MHA-12 | 2026-09-06 01:19:26 | 47.62623 | 17.83177 | 95° | 38km/h | 32151m | 5.4m/s | -43.8°C | 2.2% | 0hPa | 2.4V | 00:00:00 | 02:03:51 | 00:00:00 | |
| PG1ADW-2 | 2026-09-06 01:19:25 | 47.62623 | 17.83163 | 92° | 38km/h | 32146m | 4.3m/s | -43.9°C | 2.2% | 0hPa | 2.4V | 00:00:00 | 02:03:50 | 00:00:00 | |
| OE5DRO-10 | 2026-09-06 01:19:24 | 47.62623 | 17.83151 | 83° | 35km/h | 32141m | 4.9m/s | -43.9°C | 2.2% | 0hPa | 2.5V | 00:00:00 | 00:00:00 | 00:00:00 | |
| DO3MHA-11 | 2026-09-06 01:19:23 | 47.62621 | 17.83139 | 69° | 40km/h | 32135m | 7.1m/s | -43.9°C | 2.2% | 0hPa | 2.5V | 00:00:00 | 02:03:48 | 00:00:00 | |
| OM5KV | 2026-09-06 01:19:21 | 47.62617 | 17.83129 | 52° | 33km/h | 32128m | 7.2m/s | -44.0°C | 0.4% | 0hPa | 2.5V | 00:00:00 | 00:00:00 | 00:00:00 | |
| OE3MUC-15 | 2026-09-06 01:19:18 | 47.62591 | 17.83085 | 63° | 44km/h | 32106m | 6.2m/s | -44.0°C | 2.2% | 0hPa | 2.5V | 00:00:00 | 00:00:00 | 00:00:00 | |
| OM5KV | 2026-09-06 01:19:17 | 47.62587 | 17.83070 | 78° | 44km/h | 32099m | 6.2m/s | -44.1°C | 0.3% | 0hPa | 2.5V | 00:00:00 | 00:00:00 | 00:00:00 | |
| DO3MHA-12 | 2026-09-06 01:19:16 | 47.62586 | 17.83053 | 91° | 31km/h | 32093m | 5.9m/s | -44.2°C | 2.2% | 0hPa | 2.5V | 00:00:00 | 02:03:41 | 00:00:00 | |
| OE3MUC-15 | 2026-09-06 01:19:14 | 47.62589 | 17.83023 | 106° | 27km/h | 32082m | 5.8m/s | -44.3°C | 2.2% | 0hPa | 2.5V | 00:00:00 | 00:00:00 | 00:00:00 | |
| DO3MHA-11 | 2026-09-06 01:19:13 | 47.62591 | 17.83011 | 106° | 29km/h | 32076m | 6.4m/s | -44.4°C | 2.3% | 0hPa | 2.5V | 00:00:00 | 02:03:38 | 00:00:00 | |
| OM5KV | 2026-09-06 01:19:12 | 47.62591 | 17.83011 | 106° | 31km/h | 32076m | 6.5m/s | -44.5°C | 0.3% | 0hPa | 2.5V | 00:00:00 | 00:00:00 | 00:00:00 | |
| OE3MUC-15 | 2026-09-06 01:19:10 | 47.62592 | 17.82986 | 75° | 29km/h | 32057m | 6.2m/s | -44.7°C | 2.4% | 0hPa | 2.5V | 00:00:00 | 00:00:00 | 08:30:00 | |
| OM5KV | 2026-09-06 01:19:07 | 47.62587 | 17.82968 | 65° | 31km/h | 32044m | 6.4m/s | -44.9°C | 0.3% | 0hPa | 2.5V | 00:00:00 | 00:00:00 | 00:00:00 | |
| DO3MHA-12 | 2026-09-06 01:19:06 | 47.62579 | 17.82945 | 60° | 29km/h | 32032m | 5.5m/s | -44.8°C | 2.4% | 0hPa | 2.5V | 00:00:00 | 02:03:31 | 00:00:00 | |
| PG1ADW-2 | 2026-09-06 01:19:05 | 47.62574 | 17.82934 | 60° | 26km/h | 32026m | 6.3m/s | -44.8°C | 2.4% | 0hPa | 2.5V | 00:00:00 | 00:00:00 | 00:00:00 | |
| DO3MHA-11 | 2026-09-06 01:19:03 | 47.62568 | 17.82914 | 79° | 24km/h | 32014m | 5.6m/s | -44.8°C | 2.3% | 0hPa | 2.5V | 00:00:00 | 02:03:28 | 00:00:00 | |
| OE3MUC-15 | 2026-09-06 01:19:02 | 47.62568 | 17.82906 | 101° | 29km/h | 32008m | 6.1m/s | -44.8°C | 2.4% | 0hPa | 2.5V | 00:00:00 | 00:00:00 | 00:00:00 | |
| OM5KV | 2026-09-06 01:19:01 | 47.62568 | 17.82906 | 101° | 22km/h | 32008m | 6.1m/s | -44.8°C | 0.4% | 0hPa | 2.5V | 00:00:00 | 00:00:00 | 00:00:00 | |
| OE3OSB-13 | 2026-09-06 01:18:57 | 47.62579 | 17.82826 | 64° | 27km/h | 31937m | 5.6m/s | -45.0°C | 0.3% | -1.0hPa | 2.5V | 00:00:00 | 00:00:00 | 00:00:00 | |
| SONDE2-11 | 2026-09-06 01:18:55 | 47.62577 | 17.82817 | 78° | 26km/h | 31931m | 5.0m/s | 0°C | -1.0% | -1.0hPa | 2.5V | 00:00:00 | 00:00:00 | 00:00:00 | |
| OE3MUC-15 | 2026-09-06 01:18:54 | 47.62591 | 17.82849 | 44° | 26km/h | 31956m | 5.9m/s | -44.9°C | 2.4% | 0hPa | 2.5V | 00:00:00 | 00:00:00 | 00:00:00 | |
| OE5MMP-10 | 2026-09-06 01:18:53 | 47.62587 | 17.82843 | 45° | 24km/h | 31950m | 6.9m/s | -44.9°C | 2.4% | 0hPa | 2.5V | 00:00:00 | 02:03:18 | 00:00:00 | |
| OM5KV | 2026-09-06 01:18:51 | 47.62583 | 17.82835 | 54° | 27km/h | 31943m | 6.9m/s | -45.0°C | 0.4% | 0hPa | 2.5V | 00:00:00 | 00:00:00 | 00:00:00 | |
| OE3MUC-15 | 2026-09-06 01:18:50 | 47.62577 | 17.82817 | 79° | 24km/h | 31932m | 5.0m/s | -45.0°C | 2.4% | 0hPa | 2.5V | 00:00:00 | 00:00:00 | 00:00:00 | |
| HA6NAB-11 | 2026-09-06 01:18:48 | 47.62577 | 17.82807 | 95° | 24km/h | 31926m | 5.5m/s | -45.1°C | 0.4% | 0hPa | 2.5V | 00:00:00 | 00:00:00 | 00:00:00 | |
| S52SK | 2026-09-06 01:18:47 | 47.62578 | 17.82799 | 113° | 22km/h | 31920m | 6.4m/s | -45.1°C | 0.4% | 0hPa | 2.5V | 00:00:00 | 00:00:00 | 00:00:00 | |
| DO3MHA-12 | 2026-09-06 01:18:46 | 47.62584 | 17.82788 | 154° | 24km/h | 31907m | 6.8m/s | -45.1°C | 2.4% | 0hPa | 2.5V | 00:00:00 | 02:03:11 | 00:00:00 | |
| PETON7-10 | 2026-09-06 01:18:45 | 47.62589 | 17.82786 | 166° | 20km/h | 31900m | 6.4m/s | -45.2°C | 2.4% | 0hPa | 2.4V | 00:00:00 | 02:03:10 | 00:00:00 | |
| DO3MHA-11 | 2026-09-06 01:18:43 | 47.62601 | 17.82780 | 159° | 20km/h | 31888m | 6.6m/s | -45.3°C | 2.4% | 0hPa | 2.4V | 00:00:00 | 02:03:08 | 00:00:00 | |
| OE5DXL-15 | 2026-09-06 01:18:42 | 47.62608 | 17.82775 | 151° | 22km/h | 31882m | 6.6m/s | -45.3°C | 2.4% | 0hPa | 2.4V | 00:00:00 | 00:00:00 | 00:00:00 | |
| OM5KV | 2026-09-06 01:18:39 | 47.62619 | 17.82762 | 130° | 24km/h | 31870m | 5.4m/s | -45.4°C | 0.4% | 0hPa | 2.5V | 00:00:00 | 00:00:00 | 00:00:00 | |
| OE3MUC-15 | 2026-09-06 01:18:38 | 47.62623 | 17.82750 | 95° | 13km/h | 31856m | 7.8m/s | -45.4°C | 2.4% | 0hPa | 2.5V | 00:00:00 | 00:00:00 | 00:00:00 | |
| DO3MHA-12 | 2026-09-06 01:18:36 | 47.62620 | 17.82742 | 50° | 16km/h | 31843m | 6.0m/s | -45.4°C | 2.4% | 0hPa | 2.5V | 00:00:00 | 02:03:01 | 00:00:00 | |
| OE3MUC-15 | 2026-09-06 01:18:34 | 47.62617 | 17.82733 | 74° | 18km/h | 31829m | 7.0m/s | -45.4°C | 2.4% | 0hPa | 2.5V | 00:00:00 | 00:00:00 | 08:30:00 | |
| DO3MHA-11 | 2026-09-06 01:18:33 | 47.62616 | 17.82726 | 89° | 20km/h | 31822m | 6.1m/s | -45.3°C | 2.4% | 0hPa | 2.5V | 00:00:00 | 02:02:58 | 08:30:00 | |
| OM5KV | 2026-09-06 01:18:32 | 47.62616 | 17.82726 | 90° | 20km/h | 31822m | 6.1m/s | -45.4°C | 0.4% | 0hPa | 2.5V | 00:00:00 | 00:00:00 | 00:00:00 | |
| HA6NAB-11 | 2026-09-06 01:18:31 | 47.62617 | 17.82719 | 104° | 18km/h | 31817m | 5.8m/s | -45.4°C | 0.4% | 0hPa | 2.5V | 00:00:00 | 00:00:00 | 00:00:00 | |
| OE3MUC-15 | 2026-09-06 01:18:30 | 47.62620 | 17.82708 | 133° | 16km/h | 31803m | 7.2m/s | -45.5°C | 2.4% | 0hPa | 2.5V | 00:00:00 | 00:00:00 | 00:00:00 | |
| OE5DRO-10 | 2026-09-06 01:18:27 | 47.62629 | 17.82697 | 129° | 22km/h | 31785m | 6.2m/s | -45.5°C | 2.5% | 0hPa | 2.5V | 00:00:00 | 00:00:00 | 00:00:00 | |
| OE3MUC-15 | 2026-09-06 01:18:26 | 47.62631 | 17.82690 | 117° | 26km/h | 31779m | 7.6m/s | -45.5°C | 2.5% | 0hPa | 2.5V | 00:00:00 | 00:00:00 | 00:00:00 | |
| DO3MHA-12 | 2026-09-06 01:18:25 | 47.62634 | 17.82682 | 104° | 20km/h | 31772m | 6.5m/s | -45.5°C | 2.5% | 0hPa | 2.5V | 00:00:00 | 02:02:50 | 00:00:00 | |
| DO3MHA-11 | 2026-09-06 01:18:23 | 47.62634 | 17.82661 | 86° | 22km/h | 31760m | 5.5m/s | -45.5°C | 2.5% | 0hPa | 2.5V | 00:00:00 | 02:02:48 | 00:00:00 | |
| OE3MUC-15 | 2026-09-06 01:18:22 | 47.62634 | 17.82652 | 77° | 16km/h | 31754m | 6.9m/s | -45.5°C | 2.5% | 0hPa | 2.5V | 00:00:00 | 00:00:00 | 00:00:00 | |
| OM5KV | 2026-09-06 01:18:21 | 47.62634 | 17.82652 | 77° | 24km/h | 31754m | 7.0m/s | -45.6°C | 0.4% | 0hPa | 2.5V | 00:00:00 | 00:00:00 | 00:00:00 | |
| OM5KV | 2026-09-06 01:18:20 | 47.62632 | 17.82645 | 69° | 18km/h | 31747m | 6.9m/s | -45.6°C | 0.4% | 0hPa | 2.5V | 00:00:00 | 00:00:00 | 00:00:00 | |
| OM5KV | 2026-09-06 01:18:19 | 47.62631 | 17.82640 | 70° | 13km/h | 31741m | 6.1m/s | -45.6°C | 0.4% | 0hPa | 2.5V | 00:00:00 | 00:00:00 | 00:00:00 | |
| OE3MUC-15 | 2026-09-06 01:18:18 | 47.62630 | 17.82631 | 104° | 24km/h | 31729m | 6.2m/s | -45.5°C | 2.5% | 0hPa | 2.5V | 00:00:00 | 00:00:00 | 00:00:00 | |
| DO3MHA-12 | 2026-09-06 01:18:15 | 47.62636 | 17.82607 | 108° | 24km/h | 31710m | 5.5m/s | -45.5°C | 2.5% | 0hPa | 2.5V | 00:00:00 | 02:02:40 | 08:30:00 | |
| OE3MUC-15 | 2026-09-06 01:18:14 | 47.62638 | 17.82595 | 109° | 24km/h | 31704m | 5.6m/s | -45.4°C | 2.5% | 0hPa | 2.5V | 00:00:00 | 00:00:00 | 00:00:00 | |
| OE5MMP-10 | 2026-09-06 01:18:13 | 47.62641 | 17.82585 | 109° | 22km/h | 31698m | 6.9m/s | -45.4°C | 2.4% | 0hPa | 2.5V | 00:00:00 | 02:02:38 | 00:00:00 | |
| OE5DXL-15 | 2026-09-06 01:18:12 | 47.62643 | 17.82575 | 110° | 26km/h | 31691m | 7.5m/s | -45.4°C | 2.4% | 0hPa | 2.5V | 00:00:00 | 00:00:00 | 00:00:00 | |
| OE3MUC-15 | 2026-09-06 01:18:09 | 47.62647 | 17.82557 | 107° | 20km/h | 31671m | 5.7m/s | -45.4°C | 2.4% | 0hPa | 2.5V | 00:00:00 | 00:00:00 | 00:00:00 | |
| OE5DRO-10 | 2026-09-06 01:18:08 | 47.62648 | 17.82551 | 101° | 24km/h | 31665m | 6.8m/s | -45.4°C | 2.5% | 0hPa | 2.5V | 00:00:00 | 00:00:00 | 00:00:00 | |
| SP9KGR-15 | 2026-09-06 01:18:06 | 47.62649 | 17.82544 | 100° | 22km/h | 31659m | 6.8m/s | -45.4°C | 0.4% | 0hPa | 2.5V | 00:00:00 | 00:00:00 | 00:00:00 | |
| DO3MHA-12 | 2026-09-06 01:18:05 | 47.62651 | 17.82525 | 104° | 29km/h | 31645m | 5.7m/s | 0°C | 0% | 0hPa | 2.5V | 00:00:00 | 02:02:30 | 00:00:00 | |
| OM5KV | 2026-09-06 01:18:04 | 47.62651 | 17.82525 | 104° | 29km/h | 31645m | 5.7m/s | -45.5°C | 0.4% | 0hPa | 2.5V | 00:00:00 | 00:00:00 | 00:00:00 | |
| DO3MHA-11 | 2026-09-06 01:18:03 | 47.62656 | 17.82506 | 120° | 26km/h | 31633m | 7.0m/s | -45.4°C | 2.5% | 0hPa | 2.5V | 00:00:00 | 02:02:28 | 00:00:00 | |
| OE3MUC-15 | 2026-09-06 01:18:01 | 47.62663 | 17.82493 | 140° | 22km/h | 31619m | 6.1m/s | -45.3°C | 2.5% | 0hPa | 2.5V | 00:00:00 | 00:00:00 | 00:00:00 | |
| PETON7-10 | 2026-09-06 01:18:00 | 47.62667 | 17.82489 | 145° | 27km/h | 31613m | 5.6m/s | -45.3°C | 2.5% | 0hPa | 2.5V | 00:00:00 | 02:02:25 | 00:00:00 | |
| OM5KV | 2026-09-06 01:17:58 | 47.62671 | 17.82484 | 139° | 22km/h | 31607m | 6.2m/s | -45.4°C | 0.4% | 0hPa | 2.5V | 00:00:00 | 00:00:00 | 00:00:00 | |
| OE3MUC-15 | 2026-09-06 01:17:57 | 47.62679 | 17.82468 | 118° | 31km/h | 31594m | 7.0m/s | -45.3°C | 2.5% | 0hPa | 2.5V | 00:00:00 | 00:00:00 | 08:30:00 | |
| OM5KV | 2026-09-06 01:17:56 | 47.62679 | 17.82468 | 119° | 31km/h | 31594m | 7.0m/s | -45.3°C | 0.4% | 0hPa | 2.5V | 00:00:00 | 00:00:00 | 00:00:00 | |
| DO3MHA-12 | 2026-09-06 01:17:55 | 47.62685 | 17.82446 | 110° | 26km/h | 31581m | 5.3m/s | 0°C | 0% | 0hPa | 2.5V | 00:00:00 | 02:02:20 | 00:00:00 | |
| DO3MHA-11 | 2026-09-06 01:17:53 | 47.62690 | 17.82425 | 111° | 27km/h | 31569m | 7.4m/s | -45.2°C | 2.5% | 0hPa | 2.5V | 00:00:00 | 02:02:18 | 00:00:00 | |
| LZ4TU-5 | 2026-09-06 01:17:52 | 47.62690 | 17.82425 | 112° | 24km/h | 31569m | 7.5m/s | 0°C | 0% | 0hPa | 2.5V | 00:00:00 | 00:00:00 | 00:00:00 | |
| OM5KV | 2026-09-06 01:17:50 | 47.62695 | 17.82411 | 118° | 16km/h | 31556m | 5.3m/s | -45.2°C | 0.4% | 0hPa | 2.5V | 00:00:00 | 00:00:00 | 00:00:00 | |
| OE3MUC-15 | 2026-09-06 01:17:49 | 47.62699 | 17.82397 | 117° | 31km/h | 31545m | 7.1m/s | -45.2°C | 2.4% | 0hPa | 2.5V | 00:00:00 | 00:00:00 | 00:00:00 | |
| SP9KGR-15 | 2026-09-06 01:17:48 | 47.62699 | 17.82397 | 117° | 24km/h | 31545m | 7.2m/s | -45.2°C | 0.4% | 0hPa | 2.5V | 00:00:00 | 00:00:00 | 00:00:00 | |
| OM5KV | 2026-09-06 01:17:47 | 47.62702 | 17.82389 | 118° | 29km/h | 31538m | 6.7m/s | -45.2°C | 0.4% | 0hPa | 2.5V | 00:00:00 | 00:00:00 | 00:00:00 | |
| PETON7-10 | 2026-09-06 01:17:45 | 47.62715 | 17.82356 | 127° | 29km/h | 31518m | 6.4m/s | -45.2°C | 2.4% | 0hPa | 2.5V | 00:00:00 | 00:00:00 | 00:00:00 | |
| OE5MMP-10 | 2026-09-06 01:17:43 | 47.62725 | 17.82339 | 135° | 29km/h | 31505m | 6.1m/s | -45.2°C | 2.4% | 0hPa | 2.4V | 00:00:00 | 02:02:08 | 00:00:00 | |
| OE5DXL-15 | 2026-09-06 01:17:42 | 47.62729 | 17.82332 | 131° | 31km/h | 31499m | 4.9m/s | -45.2°C | 2.4% | 0hPa | 2.4V | 00:00:00 | 00:00:00 | 00:00:00 | |
| S52SK | 2026-09-06 01:17:36 | 47.62739 | 17.82280 | 92° | 33km/h | 31468m | 5.6m/s | -45.3°C | 0.4% | 0hPa | 2.4V | 00:00:00 | 00:00:00 | 00:00:00 | |
| DO3MHA-12 | 2026-09-06 01:17:33 | 47.62741 | 17.82237 | 100° | 27km/h | 31443m | 6.4m/s | 0°C | 0% | 0hPa | 2.4V | 00:00:00 | 02:01:58 | 00:00:00 | |
| OM5KV | 2026-09-06 01:17:32 | 47.62741 | 17.82237 | 101° | 27km/h | 31443m | 6.5m/s | -45.3°C | 0.4% | 0hPa | 2.4V | 00:00:00 | 00:00:00 | 00:00:00 | |
| OM5KV | 2026-09-06 01:17:31 | 47.62742 | 17.82226 | 101° | 31km/h | 31436m | 7.0m/s | -45.3°C | 0.4% | 0hPa | 2.4V | 00:00:00 | 00:00:00 | 00:00:00 | |
| PETON7-10 | 2026-09-06 01:17:30 | 47.62744 | 17.82202 | 96° | 31km/h | 31424m | 5.0m/s | -45.3°C | 2.4% | 0hPa | 2.4V | 00:00:00 | 00:00:00 | 00:00:00 | |
| OM5KV | 2026-09-06 01:17:26 | 47.62745 | 17.82170 | 91° | 22km/h | 31406m | 7.5m/s | -45.4°C | 0.4% | 0hPa | 2.4V | 00:00:00 | 00:00:00 | 00:00:00 | |
| PG1ADW-2 | 2026-09-06 01:17:25 | 47.62745 | 17.82156 | 87° | 35km/h | 31394m | 4.8m/s | -45.4°C | 2.4% | 0hPa | 2.4V | 00:00:00 | 00:00:00 | 08:30:00 | |
| DO3MHA-11 | 2026-09-06 01:17:23 | 47.62744 | 17.82139 | 86° | 35km/h | 31383m | 7.0m/s | -45.4°C | 2.5% | 0hPa | 2.5V | 00:00:00 | 02:01:48 | 00:00:00 | |
| OE3MUC-15 | 2026-09-06 01:17:21 | 47.62743 | 17.82110 | 85° | 44km/h | 31370m | 5.6m/s | -45.5°C | 2.5% | 0hPa | 2.5V | 00:00:00 | 00:00:00 | 08:30:00 | |
| OM5KV | 2026-09-06 01:17:20 | 47.62742 | 17.82110 | 86° | 46km/h | 31370m | 5.6m/s | -45.5°C | 0.4% | 0hPa | 2.4V | 00:00:00 | 00:00:00 | 00:00:00 | |
| OE3MUC-15 | 2026-09-06 01:17:17 | 47.62739 | 17.82049 | 85° | 27km/h | 31346m | 6.0m/s | -45.4°C | 2.5% | 0hPa | 2.4V | 00:00:00 | 00:00:00 | 00:00:00 | |
| PETON7-10 | 2026-09-06 01:17:15 | 47.62737 | 17.82028 | 80° | 33km/h | 31335m | 5.1m/s | -45.4°C | 2.5% | 0hPa | 2.4V | 00:00:00 | 02:01:40 | 00:00:00 | |
| SP9KGR-15 | 2026-09-06 01:17:14 | 47.62737 | 17.82028 | 80° | 26km/h | 31335m | 5.2m/s | -45.4°C | 0.4% | 0hPa | 2.4V | 00:00:00 | 00:00:00 | 00:00:00 | |
| DO3MHA-11 | 2026-09-06 01:17:13 | 47.62734 | 17.82008 | 76° | 35km/h | 31323m | 6.5m/s | -45.3°C | 2.5% | 0hPa | 2.4V | 00:00:00 | 02:01:38 | 00:00:00 | |
| OE5DXL-15 | 2026-09-06 01:17:12 | 47.62731 | 17.81995 | 75° | 31km/h | 31316m | 6.1m/s | -45.3°C | 2.5% | 0hPa | 2.4V | 00:00:00 | 00:00:00 | 08:30:00 | |
| DO3MHA-12 | 2026-09-06 01:17:11 | 47.62729 | 17.81981 | 74° | 35km/h | 31311m | 5.6m/s | 0°C | 0% | 0hPa | 2.5V | 00:00:00 | 02:01:36 | 00:00:00 | |
| OM5KV | 2026-09-06 01:17:10 | 47.62725 | 17.81966 | 73° | 42km/h | 31305m | 5.5m/s | -45.3°C | 0.4% | 0hPa | 2.5V | 00:00:00 | 00:00:00 | 00:00:00 | |
| OE3MUC-15 | 2026-09-06 01:17:09 | 47.62722 | 17.81951 | 72° | 33km/h | 31299m | 6.5m/s | -45.3°C | 2.5% | 0hPa | 2.5V | 00:00:00 | 00:00:00 | 00:00:00 | |
| OE3MUC-15 | 2026-09-06 01:17:05 | 47.62712 | 17.81907 | 79° | 29km/h | 31274m | 6.5m/s | -45.2°C | 2.5% | 0hPa | 2.5V | 00:00:00 | 00:00:00 | 00:00:00 | |
| DO3MHA-11 | 2026-09-06 01:17:03 | 47.62710 | 17.81884 | 83° | 33km/h | 31261m | 5.6m/s | -45.1°C | 2.5% | 0hPa | 2.5V | 00:00:00 | 02:01:28 | 08:30:00 | |
| OM5KV | 2026-09-06 01:17:02 | 47.62710 | 17.81884 | 84° | 31km/h | 31261m | 5.7m/s | -45.2°C | 0.4% | 0hPa | 2.5V | 00:00:00 | 00:00:00 | 00:00:00 | |
| OM5KV | 2026-09-06 01:17:01 | 47.62709 | 17.81873 | 80° | 29km/h | 31256m | 5.2m/s | -45.1°C | 0.4% | 0hPa | 2.5V | 00:00:00 | 00:00:00 | 00:00:00 | |
| OE3OSB-13 | 2026-09-06 01:16:53 | 47.62664 | 17.81770 | 72° | 27km/h | 31195m | 7.5m/s | -44.7°C | 0.3% | -1.0hPa | 2.5V | 00:00:00 | 00:00:00 | 00:00:00 | |
| OM5KV | 2026-09-06 01:16:52 | 47.62667 | 17.81781 | 70° | 37km/h | 31202m | 5.1m/s | -44.8°C | 0.4% | 0hPa | 2.5V | 00:00:00 | 00:00:00 | 00:00:00 | |
| OM5KV | 2026-09-06 01:16:51 | 47.62664 | 17.81770 | 73° | 27km/h | 31196m | 7.5m/s | -44.7°C | 0.4% | 0hPa | 2.5V | 00:00:00 | 00:00:00 | 00:00:00 | |
| LZ4TU-5 | 2026-09-06 01:16:50 | 47.62661 | 17.81755 | 80° | 15km/h | 31182m | 6.1m/s | 0°C | 0% | 0hPa | 2.5V | 00:00:00 | 00:00:00 | 00:00:00 | |
| OE3MUC-15 | 2026-09-06 01:16:49 | 47.62660 | 17.81750 | 79° | 18km/h | 31176m | 5.5m/s | -44.6°C | 2.4% | 0hPa | 2.5V | 00:00:00 | 00:00:00 | 00:00:00 | |
| OM5KV | 2026-09-06 01:16:46 | 47.62656 | 17.81730 | 60° | 24km/h | 31157m | 5.7m/s | -44.5°C | 0.4% | 0hPa | 2.5V | 00:00:00 | 00:00:00 | 00:00:00 | |
| DO3MHA-12 | 2026-09-06 01:16:45 | 47.62652 | 17.81723 | 49° | 27km/h | 31151m | 6.2m/s | 0°C | 0% | 0hPa | 2.5V | 00:00:00 | 02:01:10 | 00:00:00 | |
| DO3MHA-11 | 2026-09-06 01:16:43 | 47.62641 | 17.81709 | 37° | 26km/h | 31137m | 5.9m/s | -44.4°C | 2.3% | 0hPa | 2.5V | 00:00:00 | 02:01:08 | 00:00:00 | |
| OE5DXL-15 | 2026-09-06 01:16:42 | 47.62635 | 17.81702 | 39° | 24km/h | 31132m | 4.9m/s | -44.4°C | 2.3% | 0hPa | 2.5V | 00:00:00 | 00:00:00 | 00:00:00 | |
| OE3MUC-15 | 2026-09-06 01:16:41 | 47.62629 | 17.81694 | 47° | 35km/h | 31126m | 5.5m/s | -44.4°C | 2.4% | 0hPa | 2.5V | 00:00:00 | 00:00:00 | 00:00:00 | |
| OM5KV | 2026-09-06 01:16:40 | 47.62623 | 17.81684 | 56° | 37km/h | 31120m | 7.2m/s | -44.5°C | 0.4% | 0hPa | 2.5V | 00:00:00 | 00:00:00 | 00:00:00 | |
| S52SK | 2026-09-06 01:16:37 | 47.62615 | 17.81649 | 88° | 27km/h | 31104m | 4.6m/s | -44.5°C | 0.4% | 0hPa | 2.5V | 00:00:00 | 00:00:00 | 00:00:00 | |
| OM5KV | 2026-09-06 01:16:35 | 47.62615 | 17.81640 | 96° | 20km/h | 31098m | 5.9m/s | -44.6°C | 0.4% | 0hPa | 2.5V | 00:00:00 | 00:00:00 | 00:00:00 | |
| OM5KV | 2026-09-06 01:16:34 | 47.62616 | 17.81634 | 99° | 9km/h | 31092m | 6.8m/s | -44.6°C | 0.4% | 0hPa | 2.5V | 00:00:00 | 00:00:00 | 00:00:00 | |
| DO3MHA-11 | 2026-09-06 01:16:33 | 47.62614 | 17.81633 | 346° | 29km/h | 31079m | 5.6m/s | -44.6°C | 2.4% | 0hPa | 2.5V | 00:00:00 | 02:00:58 | 00:00:00 | |
| OE5DRO-10 | 2026-09-06 01:16:32 | 47.62610 | 17.81634 | 360° | 29km/h | 31074m | 5.7m/s | -44.6°C | 2.4% | 0hPa | 2.4V | 00:00:00 | 00:00:00 | 00:00:00 | |
| OE3JTB-15 | 2026-09-06 01:16:31 | 47.62604 | 17.81632 | 17° | 22km/h | 31068m | 6.0m/s | -44.7°C | 2.4% | 0hPa | 2.5V | 00:00:00 | 00:00:00 | 00:00:00 | |
| PETON7-10 | 2026-09-06 01:16:30 | 47.62598 | 17.81628 | 30° | 24km/h | 31062m | 6.0m/s | -44.7°C | 2.4% | 0hPa | 2.5V | 00:00:00 | 02:00:55 | 00:00:00 | |
| OE3MUC-15 | 2026-09-06 01:16:29 | 47.62591 | 17.81621 | 44° | 37km/h | 31055m | 6.5m/s | -44.7°C | 2.4% | 0hPa | 2.5V | 00:00:00 | 00:00:00 | 00:00:00 | |
| SP9KGR-15 | 2026-09-06 01:16:26 | 47.62579 | 17.81599 | 59° | 37km/h | 31042m | 7.0m/s | -44.7°C | 0.4% | 0hPa | 2.5V | 00:00:00 | 00:00:00 | 00:00:00 | |
| OE3MUC-15 | 2026-09-06 01:16:25 | 47.62571 | 17.81577 | 67° | 24km/h | 31029m | 5.4m/s | -44.6°C | 2.4% | 0hPa | 2.5V | 00:00:00 | 00:00:00 | 00:00:00 | |
| DO3MHA-11 | 2026-09-06 01:16:23 | 47.62566 | 17.81560 | 62° | 18km/h | 31017m | 6.0m/s | -44.6°C | 2.4% | 0hPa | 2.5V | 00:00:00 | 02:00:48 | 00:00:00 | |
| OE3OSB-13 | 2026-09-06 01:16:22 | 47.62559 | 17.81549 | 36° | 20km/h | 31005m | 6.2m/s | -44.6°C | 0.3% | -1.0hPa | 2.5V | 00:00:00 | 00:00:00 | 00:00:00 | |
| OE3MUC-15 | 2026-09-06 01:16:21 | 47.62559 | 17.81549 | 37° | 16km/h | 31005m | 6.2m/s | -44.5°C | 2.4% | 0hPa | 2.5V | 00:00:00 | 00:00:00 | 00:00:00 | |
| HA6NAB-11 | 2026-09-06 01:16:19 | 47.62555 | 17.81545 | 26° | 18km/h | 30999m | 5.6m/s | -44.5°C | 0.4% | 0hPa | 2.5V | 00:00:00 | 00:00:00 | 00:00:00 | |
| OE3MUC-15 | 2026-09-06 01:16:17 | 47.62545 | 17.81540 | 18° | 16km/h | 30980m | 6.0m/s | -44.4°C | 2.4% | 0hPa | 2.5V | 00:00:00 | 00:00:00 | 00:00:00 | |
| OM5KV | 2026-09-06 01:16:16 | 47.62545 | 17.81540 | 19° | 11km/h | 30980m | 6.0m/s | 0°C | 0% | 0hPa | 2.5V | 00:00:00 | 00:00:00 | 00:00:00 | |
| PETON7-10 | 2026-09-06 01:16:15 | 47.62539 | 17.81535 | 33° | 16km/h | 30968m | 6.5m/s | -44.4°C | 2.4% | 0hPa | 2.5V | 00:00:00 | 00:00:00 | 08:30:00 | |
| OM5KV | 2026-09-06 01:16:13 | 47.62529 | 17.81524 | 41° | 31km/h | 30955m | 5.9m/s | 0°C | 0% | 0hPa | 2.5V | 00:00:00 | 00:00:00 | 00:00:00 | |
| OE5DXL-15 | 2026-09-06 01:16:12 | 47.62523 | 17.81516 | 46° | 16km/h | 30949m | 5.0m/s | -44.3°C | 2.4% | 0hPa | 2.5V | 00:00:00 | 00:00:00 | 00:00:00 | |
| SP9KGR-15 | 2026-09-06 01:16:11 | 47.62518 | 17.81508 | 53° | 29km/h | 30943m | 6.2m/s | -44.3°C | 0.4% | 0hPa | 2.5V | 00:00:00 | 00:00:00 | 00:00:00 | |
| OE3MUC-15 | 2026-09-06 01:16:09 | 47.62512 | 17.81493 | 62° | 13km/h | 30930m | 6.1m/s | -44.3°C | 2.4% | 0hPa | 2.5V | 00:00:00 | 00:00:00 | 08:30:00 | |
| OM5KV | 2026-09-06 01:16:07 | 47.62508 | 17.81485 | 42° | 11km/h | 30917m | 6.6m/s | 0°C | 0% | 0hPa | 2.5V | 00:00:00 | 00:00:00 | 00:00:00 | |
| OE3MUC-15 | 2026-09-06 01:16:05 | 47.62502 | 17.81482 | 2° | 11km/h | 30904m | 5.3m/s | -44.3°C | 2.4% | 0hPa | 2.5V | 00:00:00 | 00:00:00 | 00:00:00 | |
| DO3MHA-11 | 2026-09-06 01:16:03 | 47.62496 | 17.81484 | 343° | 18km/h | 30893m | 6.6m/s | -44.3°C | 2.3% | 0hPa | 2.5V | 00:00:00 | 02:00:28 | 00:00:00 | |
| HA6NAB-11 | 2026-09-06 01:16:01 | 47.62493 | 17.81485 | 334° | 7km/h | 30887m | 6.6m/s | -44.3°C | 0.4% | 0hPa | 2.4V | 00:00:00 | 00:00:00 | 00:00:00 | |
| OE3OSB-13 | 2026-09-06 01:15:51 | 47.62464 | 17.81435 | 291° | 11km/h | 30814m | 6.2m/s | -44.3°C | 0.3% | -1.0hPa | 2.4V | 00:00:00 | 00:00:00 | 00:00:00 | |
| OM5KV | 2026-09-06 01:15:50 | 47.62465 | 17.81432 | 283° | 7km/h | 30820m | 5.8m/s | 0°C | 0% | 0hPa | 2.4V | 00:00:00 | 00:00:00 | 00:00:00 | |
| OE3MUC-15 | 2026-09-06 01:15:49 | 47.62462 | 17.81439 | 312° | 18km/h | 30808m | 6.4m/s | -44.2°C | 2.3% | 0hPa | 2.4V | 00:00:00 | 00:00:00 | 00:00:00 | |
| OM5KV | 2026-09-06 01:15:46 | 47.62455 | 17.81444 | 357° | 18km/h | 30796m | 5.3m/s | 0°C | 0% | 0hPa | 2.4V | 00:00:00 | 00:00:00 | 00:00:00 | |
| PETON7-10 | 2026-09-06 01:15:45 | 47.62445 | 17.81441 | 27° | 18km/h | 30784m | 6.4m/s | -44.3°C | 2.3% | 0hPa | 2.4V | 00:00:00 | 02:00:10 | 00:00:00 | |
| DO3MHA-11 | 2026-09-06 01:15:43 | 47.62438 | 17.81432 | 51° | 18km/h | 30771m | 5.6m/s | -44.4°C | 2.3% | 0hPa | 2.4V | 00:00:00 | 02:00:08 | 00:00:00 | |
| OE5DXL-15 | 2026-09-06 01:15:42 | 47.62435 | 17.81426 | 53° | 15km/h | 30766m | 5.4m/s | -44.4°C | 2.3% | 0hPa | 2.4V | 00:00:00 | 00:00:00 | 00:00:00 | |
| OM5KV | 2026-09-06 01:15:41 | 47.62435 | 17.81426 | 53° | 20km/h | 30766m | 5.4m/s | 0°C | 0% | 0hPa | 2.4V | 00:00:00 | 00:00:00 | 00:00:00 | |
| GYPAP8-17 | 2026-09-06 01:15:40 | 47.62431 | 17.81419 | 52° | 22km/h | 30760m | 5.9m/s | -44.5°C | 0.4% | 0hPa | 2.4V | 00:00:00 | 00:00:00 | 00:00:00 | |
| SP9KGR-15 | 2026-09-06 01:15:37 | 47.62412 | 17.81397 | 37° | 18km/h | 30735m | 6.0m/s | -44.6°C | 0.4% | 0hPa | 2.4V | 00:00:00 | 00:00:00 | 00:00:00 | |
| OM5KV | 2026-09-06 01:15:35 | 47.62409 | 17.81393 | 41° | 15km/h | 30728m | 7.7m/s | 0°C | 0% | 0hPa | 2.4V | 00:00:00 | 00:00:00 | 00:00:00 | |
| S52SK | 2026-09-06 01:15:34 | 47.62406 | 17.81390 | 40° | 9km/h | 30721m | 6.2m/s | -44.8°C | 0.3% | 0hPa | 2.4V | 00:00:00 | 00:00:00 | 00:00:00 | |
| PG1ADW-2 | 2026-09-06 01:15:25 | 47.62380 | 17.81378 | 24° | 11km/h | 30659m | 6.9m/s | -44.8°C | 2.4% | 0hPa | 2.4V | 00:00:00 | 01:59:50 | 00:00:00 | |
| DO3MHA-11 | 2026-09-06 01:15:23 | 47.62370 | 17.81374 | 11° | 11km/h | 30646m | 5.5m/s | -44.8°C | 2.4% | 0hPa | 2.5V | 00:00:00 | 01:59:48 | 00:00:00 | |
| OE3MUC-15 | 2026-09-06 01:15:21 | 47.62361 | 17.81372 | 10° | 5km/h | 30635m | 7.3m/s | -44.8°C | 2.4% | 0hPa | 2.5V | 00:00:00 | 00:00:00 | 00:00:00 | |
| OE3OSB-13 | 2026-09-06 01:15:20 | 47.62358 | 17.81371 | 82° | 2km/h | 30621m | 4.8m/s | -44.9°C | 0.3% | -1.0hPa | 2.5V | 00:00:00 | 00:00:00 | 00:00:00 | |
| HA6NAB-11 | 2026-09-06 01:15:17 | 47.62358 | 17.81369 | 51° | 5km/h | 30610m | 6.8m/s | -44.8°C | 0.4% | 0hPa | 2.5V | 00:00:00 | 00:00:00 | 00:00:00 | |
| PETON7-10 | 2026-09-06 01:15:15 | 47.62354 | 17.81366 | 18° | 15km/h | 30597m | 6.0m/s | -44.8°C | 2.4% | 0hPa | 2.5V | 00:00:00 | 00:00:00 | 00:00:00 | |
| DO3MHA-11 | 2026-09-06 01:15:13 | 47.62346 | 17.81363 | 9° | 11km/h | 30586m | 5.2m/s | -44.8°C | 2.4% | 0hPa | 2.5V | 00:00:00 | 01:59:38 | 00:00:00 | |
| OE5DXL-15 | 2026-09-06 01:15:12 | 47.62342 | 17.81363 | 5° | 13km/h | 30580m | 6.3m/s | -44.7°C | 2.4% | 0hPa | 2.5V | 00:00:00 | 00:00:00 | 00:00:00 | |
| HA6NAB-11 | 2026-09-06 01:15:11 | 47.62342 | 17.81363 | 6° | 13km/h | 30580m | 6.3m/s | -44.8°C | 0.4% | 0hPa | 2.5V | 00:00:00 | 00:00:00 | 00:00:00 | |
| OE3MUC-15 | 2026-09-06 01:15:09 | 47.62337 | 17.81363 | 338° | 9km/h | 30560m | 5.7m/s | -44.6°C | 2.4% | 0hPa | 2.5V | 00:00:00 | 00:00:00 | 00:00:00 | |
| HA6NAB-11 | 2026-09-06 01:15:06 | 47.62334 | 17.81363 | 7° | 11km/h | 30548m | 7.1m/s | -44.6°C | 0.4% | 0hPa | 2.5V | 00:00:00 | 00:00:00 | 00:00:00 | |
| OE3MUC-15 | 2026-09-06 01:15:05 | 47.62327 | 17.81359 | 32° | 20km/h | 30536m | 5.0m/s | -44.6°C | 2.4% | 0hPa | 2.5V | 00:00:00 | 00:00:00 | 00:00:00 | |
| SQ9EZE-14 | 2026-09-06 01:15:02 | 47.62317 | 17.81343 | 67° | 20km/h | 30516m | 6.3m/s | 0°C | 0% | 0hPa | 2.5V | 00:00:00 | 00:00:00 | 00:00:00 | |
| OE3OSB-13 | 2026-09-06 01:14:48 | 47.62290 | 17.81326 | 50° | 16km/h | 30426m | 6.3m/s | -44.8°C | 0.3% | -1.0hPa | 2.5V | 00:00:00 | 00:00:00 | 00:00:00 | |
| GYPAP8-17 | 2026-09-06 01:14:47 | 47.62287 | 17.81321 | 67° | 18km/h | 30420m | 6.9m/s | -44.8°C | 0.4% | 0hPa | 2.5V | 00:00:00 | 00:00:00 | 00:00:00 | |
| OE3MUC-15 | 2026-09-06 01:14:45 | 47.62285 | 17.81308 | 80° | 13km/h | 30408m | 4.8m/s | -44.8°C | 2.4% | 0hPa | 2.5V | 00:00:00 | 00:00:00 | 00:00:00 | |
| SP9KGR-15 | 2026-09-06 01:14:44 | 47.62285 | 17.81308 | 80° | 16km/h | 30408m | 4.8m/s | -44.8°C | 0.4% | 0hPa | 2.5V | 00:00:00 | 00:00:00 | 00:00:00 | |
| DO3MHA-11 | 2026-09-06 01:14:43 | 47.62282 | 17.81299 | 45° | 7km/h | 30396m | 7.0m/s | -44.8°C | 2.4% | 0hPa | 2.5V | 00:00:00 | 01:59:08 | 00:00:00 | |
| OE5DXL-15 | 2026-09-06 01:14:42 | 47.62280 | 17.81297 | 14° | 7km/h | 30389m | 6.4m/s | -44.8°C | 2.5% | 0hPa | 2.5V | 00:00:00 | 00:00:00 | 00:00:00 | |
| OE3MUC-15 | 2026-09-06 01:14:41 | 47.62277 | 17.81297 | 354° | 7km/h | 30383m | 5.6m/s | -44.8°C | 2.5% | 0hPa | 2.5V | 00:00:00 | 00:00:00 | 00:00:00 | |
| OE3MUC-15 | 2026-09-06 01:14:37 | 47.62273 | 17.81301 | 168° | 4km/h | 30358m | 6.2m/s | -44.8°C | 2.4% | 0hPa | 2.5V | 00:00:00 | 00:00:00 | 00:00:00 | |
| DO3MHA-11 | 2026-09-06 01:14:33 | 47.62272 | 17.81296 | 42° | 7km/h | 30332m | 5.6m/s | -44.7°C | 2.5% | 0hPa | 2.5V | 00:00:00 | 01:58:58 | 00:00:00 | |
| PETON7-10 | 2026-09-06 01:14:30 | 47.62269 | 17.81286 | 95° | 5km/h | 30313m | 6.2m/s | -44.6°C | 2.4% | 0hPa | 2.4V | 00:00:00 | 00:00:00 | 00:00:00 | |
| OE3MUC-15 | 2026-09-06 01:14:29 | 47.62269 | 17.81283 | 110° | 5km/h | 30307m | 5.0m/s | -44.5°C | 2.4% | 0hPa | 2.4V | 00:00:00 | 00:00:00 | 00:00:00 | |
| OE3MUC-15 | 2026-09-06 01:14:25 | 47.62267 | 17.81282 | 320° | 4km/h | 30282m | 5.3m/s | -44.3°C | 2.4% | 0hPa | 2.4V | 00:00:00 | 00:00:00 | 00:00:00 | |
| OE5MMP-10 | 2026-09-06 01:14:23 | 47.62266 | 17.81284 | 305° | 7km/h | 30269m | 7.2m/s | -44.3°C | 2.4% | 0hPa | 2.4V | 00:00:00 | 01:58:48 | 00:00:00 | |
| OE3MUC-15 | 2026-09-06 01:14:21 | 47.62266 | 17.81282 | 73° | 7km/h | 30257m | 5.2m/s | -44.3°C | 2.4% | 0hPa | 2.4V | 00:00:00 | 00:00:00 | 08:30:00 | |
| OE3MUC-15 | 2026-09-06 01:14:17 | 47.62262 | 17.81274 | 87° | 9km/h | 30231m | 6.1m/s | -44.2°C | 2.3% | 0hPa | 2.5V | 00:00:00 | 00:00:00 | 00:00:00 | |
| PETON7-10 | 2026-09-06 01:14:15 | 47.62264 | 17.81270 | 146° | 7km/h | 30217m | 6.0m/s | -44.1°C | 2.3% | 0hPa | 2.5V | 00:00:00 | 01:58:40 | 00:00:00 | |
| SP9KGR-15 | 2026-09-06 01:14:14 | 47.62266 | 17.81268 | 161° | 11km/h | 30211m | 5.2m/s | -44.1°C | 0.4% | 0hPa | 2.5V | 00:00:00 | 00:00:00 | 00:00:00 | |
| OE5MMP-10 | 2026-09-06 01:14:13 | 47.62268 | 17.81267 | 179° | 5km/h | 30205m | 6.0m/s | -44.0°C | 2.3% | 0hPa | 2.5V | 00:00:00 | 01:58:38 | 00:00:00 | |
| OE5DXL-15 | 2026-09-06 01:14:12 | 47.62269 | 17.81268 | 233° | 9km/h | 30199m | 7.1m/s | -44.0°C | 2.3% | 0hPa | 2.5V | 00:00:00 | 00:00:00 | 00:00:00 | |
| OE3MUC-15 | 2026-09-06 01:14:09 | 47.62268 | 17.81270 | 46° | 7km/h | 30181m | 6.9m/s | -43.9°C | 2.3% | 0hPa | 2.4V | 00:00:00 | 00:00:00 | 00:00:00 | |
| HA6NAB-11 | 2026-09-06 01:14:05 | 47.62271 | 17.81260 | 131° | 7km/h | 30154m | 7.0m/s | -44.0°C | 0.4% | 0hPa | 2.4V | 00:00:00 | 00:00:00 | 00:00:00 | |
| DO3MHA-11 | 2026-09-06 01:14:03 | 47.62274 | 17.81258 | 183° | 11km/h | 30142m | 5.4m/s | -44.0°C | 2.3% | 0hPa | 2.4V | 00:00:00 | 01:58:28 | 08:30:00 | |
| OE3OSB-13 | 2026-09-06 01:13:46 | 47.62306 | 17.81240 | 144° | 5km/h | 30036m | 4.8m/s | -43.9°C | 0.3% | -1.0hPa | 2.4V | 00:00:00 | 00:00:00 | 00:00:00 | |
| DO3MHA-11 | 2026-09-06 01:13:43 | 47.62311 | 17.81232 | 124° | 5km/h | 30017m | 4.9m/s | -43.9°C | 2.3% | 0hPa | 2.4V | 00:00:00 | 01:58:08 | 00:00:00 | |
| OE5DXL-15 | 2026-09-06 01:13:42 | 47.62312 | 17.81230 | 110° | 9km/h | 30012m | 6.3m/s | -43.8°C | 2.3% | 0hPa | 2.4V | 00:00:00 | 00:00:00 | 00:00:00 | |
| HA6NAB-11 | 2026-09-06 01:13:41 | 47.62312 | 17.81230 | 111° | 4km/h | 30012m | 6.3m/s | -43.9°C | 0.4% | 0hPa | 2.4V | 00:00:00 | 00:00:00 | 00:00:00 | |
| SP9KGR-15 | 2026-09-06 01:13:34 | 47.62312 | 17.81224 | 147° | 5km/h | 29966m | 6.6m/s | -43.9°C | 0.4% | 0hPa | 2.4V | 00:00:00 | 00:00:00 | 00:00:00 | |
| OE5MMP-10 | 2026-09-06 01:13:33 | 47.62314 | 17.81223 | 177° | 11km/h | 29952m | 5.8m/s | -43.9°C | 2.3% | 0hPa | 2.4V | 00:00:00 | 01:57:58 | 08:30:00 | |
| PETON7-10 | 2026-09-06 01:13:30 | 47.62318 | 17.81218 | 116° | 11km/h | 29933m | 5.8m/s | -43.9°C | 2.3% | 0hPa | 2.5V | 00:00:00 | 01:57:55 | 00:00:00 | |
| PG1ADW-2 | 2026-09-06 01:13:25 | 47.62311 | 17.81205 | 8° | 13km/h | 29902m | 5.2m/s | -43.7°C | 2.3% | 0hPa | 2.5V | 00:00:00 | 00:00:00 | 00:00:00 | |
| DO3MHA-11 | 2026-09-06 01:13:23 | 47.62303 | 17.81201 | 40° | 11km/h | 29890m | 6.8m/s | -43.7°C | 2.3% | 0hPa | 2.5V | 00:00:00 | 01:57:48 | 00:00:00 | |
| OE3MUC-15 | 2026-09-06 01:13:21 | 47.62299 | 17.81192 | 76° | 9km/h | 29877m | 5.9m/s | -43.6°C | 2.3% | 0hPa | 2.5V | 00:00:00 | 00:00:00 | 00:00:00 | |
| SP9KGR-15 | 2026-09-06 01:13:19 | 47.62299 | 17.81185 | 101° | 7km/h | 29864m | 7.3m/s | -43.7°C | 0.4% | 0hPa | 2.5V | 00:00:00 | 00:00:00 | 00:00:00 | |
| OE3MUC-15 | 2026-09-06 01:13:17 | 47.62301 | 17.81181 | 142° | 11km/h | 29852m | 4.6m/s | -43.6°C | 2.2% | 0hPa | 2.5V | 00:00:00 | 00:00:00 | 00:00:00 | |
| PETON7-10 | 2026-09-06 01:13:15 | 47.62304 | 17.81175 | 115° | 15km/h | 29839m | 6.4m/s | -43.6°C | 2.3% | 0hPa | 2.5V | 00:00:00 | 00:00:00 | 00:00:00 | |
| S52SK | 2026-09-06 01:13:14 | 47.62304 | 17.81175 | 116° | 13km/h | 29839m | 6.5m/s | -43.6°C | 0.4% | 0hPa | 2.5V | 00:00:00 | 00:00:00 | 00:00:00 | |
| DO3MHA-11 | 2026-09-06 01:13:13 | 47.62305 | 17.81167 | 69° | 15km/h | 29827m | 6.7m/s | -43.6°C | 2.2% | 0hPa | 2.5V | 00:00:00 | 01:57:38 | 00:00:00 | |
| OE5DXL-15 | 2026-09-06 01:13:12 | 47.62303 | 17.81164 | 38° | 16km/h | 29820m | 7.1m/s | -43.6°C | 2.3% | 0hPa | 2.5V | 00:00:00 | 00:00:00 | 00:00:00 | |
| OE3MUC-15 | 2026-09-06 01:13:09 | 47.62293 | 17.81155 | 41° | 20km/h | 29801m | 7.0m/s | -43.7°C | 2.3% | 0hPa | 2.5V | 00:00:00 | 00:00:00 | 08:30:00 | |
| HA6NAB-11 | 2026-09-06 01:13:06 | 47.62287 | 17.81143 | 66° | 20km/h | 29788m | 6.0m/s | -43.7°C | 0.4% | 0hPa | 2.5V | 00:00:00 | 00:00:00 | 00:00:00 | |
| OE3MUC-15 | 2026-09-06 01:13:05 | 47.62284 | 17.81132 | 76° | 11km/h | 29775m | 6.7m/s | -43.8°C | 2.3% | 0hPa | 2.5V | 00:00:00 | 00:00:00 | 00:00:00 | |
| SP9KGR-15 | 2026-09-06 01:13:03 | 47.62284 | 17.81124 | 102° | 11km/h | 29763m | 5.0m/s | -43.9°C | 0.4% | 0hPa | 2.5V | 00:00:00 | 00:00:00 | 00:00:00 | |
| OE3OSB-13 | 2026-09-06 01:12:44 | 47.62267 | 17.81010 | 74° | 22km/h | 29645m | 4.7m/s | -44.1°C | 0.3% | -1.0hPa | 2.5V | 00:00:00 | 00:00:00 | 00:00:00 | |
| DO3MHA-11 | 2026-09-06 01:12:43 | 47.62265 | 17.81002 | 59° | 16km/h | 29638m | 7.3m/s | -44.0°C | 2.3% | 0hPa | 2.5V | 00:00:00 | 01:57:08 | 00:00:00 | |
| OE5DXL-15 | 2026-09-06 01:12:42 | 47.62262 | 17.80996 | 40° | 16km/h | 29631m | 6.9m/s | -44.1°C | 2.3% | 0hPa | 2.5V | 00:00:00 | 00:00:00 | 08:30:00 | |
| OE3MUC-15 | 2026-09-06 01:12:41 | 47.62257 | 17.80991 | 29° | 20km/h | 29625m | 5.8m/s | -44.1°C | 2.3% | 0hPa | 2.4V | 00:00:00 | 00:00:00 | 00:00:00 | |
| HA6NAB-11 | 2026-09-06 01:12:38 | 47.62244 | 17.80978 | 51° | 18km/h | 29607m | 5.6m/s | -44.2°C | 0.4% | 0hPa | 2.4V | 00:00:00 | 00:00:00 | 00:00:00 | |
| OE3MUC-15 | 2026-09-06 01:12:37 | 47.62242 | 17.80973 | 66° | 9km/h | 29601m | 5.0m/s | -44.2°C | 2.4% | 0hPa | 2.4V | 00:00:00 | 00:00:00 | 00:00:00 | |
| SP9KGR-15 | 2026-09-06 01:12:36 | 47.62240 | 17.80968 | 75° | 11km/h | 29596m | 5.6m/s | -44.2°C | 0.4% | 0hPa | 2.4V | 00:00:00 | 00:00:00 | 00:00:00 | |
| DO3MHA-11 | 2026-09-06 01:12:33 | 47.62240 | 17.80961 | 91° | 15km/h | 29577m | 5.1m/s | -44.2°C | 2.3% | 0hPa | 2.4V | 00:00:00 | 01:56:58 | 08:30:00 | |
| OE5DRO-10 | 2026-09-06 01:12:32 | 47.62240 | 17.80958 | 101° | 16km/h | 29572m | 4.6m/s | -44.1°C | 2.4% | 0hPa | 2.5V | 00:00:00 | 00:00:00 | 00:00:00 | |
| PETON7-10 | 2026-09-06 01:12:30 | 47.62241 | 17.80947 | 97° | 16km/h | 29559m | 6.5m/s | -44.1°C | 2.4% | 0hPa | 2.5V | 00:00:00 | 00:00:00 | 00:00:00 | |
| OE3MUC-15 | 2026-09-06 01:12:29 | 47.62242 | 17.80938 | 95° | 22km/h | 29553m | 4.5m/s | -44.1°C | 2.3% | 0hPa | 2.4V | 00:00:00 | 00:00:00 | 00:00:00 | |
| OE3MUC-15 | 2026-09-06 01:12:25 | 47.62240 | 17.80910 | 75° | 9km/h | 29530m | 5.3m/s | -44.0°C | 2.3% | 0hPa | 2.4V | 00:00:00 | 00:00:00 | 00:00:00 | |
| DO3MHA-11 | 2026-09-06 01:12:23 | 47.62240 | 17.80904 | 88° | 16km/h | 29519m | 5.9m/s | -44.0°C | 2.3% | 0hPa | 2.4V | 00:00:00 | 01:56:48 | 00:00:00 | |
| GYPAP8-17 | 2026-09-06 01:12:22 | 47.62239 | 17.80900 | 95° | 13km/h | 29513m | 6.2m/s | -44.1°C | 0.4% | 0hPa | 2.4V | 00:00:00 | 00:00:00 | 00:00:00 | |
| OE3MUC-15 | 2026-09-06 01:12:21 | 47.62240 | 17.80895 | 93° | 16km/h | 29506m | 5.9m/s | -44.0°C | 2.3% | 0hPa | 2.4V | 00:00:00 | 00:00:00 | 00:00:00 | |
| OE3MUC-15 | 2026-09-06 01:12:17 | 47.62241 | 17.80870 | 107° | 16km/h | 29482m | 5.5m/s | -44.0°C | 2.3% | 0hPa | 2.4V | 00:00:00 | 00:00:00 | 00:00:00 | |
| SP9KGR-15 | 2026-09-06 01:12:16 | 47.62241 | 17.80870 | 107° | 13km/h | 29482m | 5.5m/s | -44.0°C | 0.4% | 0hPa | 2.4V | 00:00:00 | 00:00:00 | 00:00:00 | |
| PETON7-10 | 2026-09-06 01:12:15 | 47.62244 | 17.80860 | 123° | 15km/h | 29471m | 6.4m/s | -44.0°C | 2.3% | 0hPa | 2.4V | 00:00:00 | 00:00:00 | 00:00:00 | |
| OE5MMP-10 | 2026-09-06 01:12:13 | 47.62251 | 17.80846 | 123° | 15km/h | 29458m | 5.3m/s | -44.0°C | 2.3% | 0hPa | 2.4V | 00:00:00 | 01:56:38 | 00:00:00 | |
| SQ9EZE-14 | 2026-09-06 01:12:12 | 47.62254 | 17.80839 | 123° | 22km/h | 29453m | 4.6m/s | 0°C | 0% | 0hPa | 2.4V | 00:00:00 | 00:00:00 | 00:00:00 | |
| OE3MUC-15 | 2026-09-06 01:12:09 | 47.62259 | 17.80823 | 102° | 13km/h | 29434m | 5.2m/s | -44.1°C | 2.3% | 0hPa | 2.4V | 00:00:00 | 00:00:00 | 00:00:00 | |
| S52SK | 2026-09-06 01:12:08 | 47.62260 | 17.80820 | 92° | 11km/h | 29428m | 6.3m/s | -44.2°C | 0.4% | 0hPa | 2.4V | 00:00:00 | 00:00:00 | 00:00:00 | |
| DO3MHA-11 | 2026-09-06 01:12:03 | 47.62259 | 17.80796 | 78° | 16km/h | 29397m | 6.2m/s | -44.4°C | 2.4% | 0hPa | 2.4V | 00:00:00 | 01:56:28 | 00:00:00 | |
| S52SK | 2026-09-06 01:12:02 | 47.62259 | 17.80796 | 78° | 7km/h | 29397m | 6.3m/s | -44.4°C | 0.4% | 0hPa | 2.4V | 00:00:00 | 00:00:00 | 00:00:00 | |
| OE3MUC-15 | 2026-09-06 01:12:01 | 47.62259 | 17.80791 | 117° | 18km/h | 29387m | 4.3m/s | -44.4°C | 2.4% | 0hPa | 2.4V | 00:00:00 | 00:00:00 | 00:00:00 | |
| SP9KGR-15 | 2026-09-06 01:12:00 | 47.62261 | 17.80787 | 120° | 15km/h | 29381m | 6.6m/s | -44.5°C | 0.4% | 0hPa | 2.4V | 00:00:00 | 00:00:00 | 00:00:00 | |
| OE3MUC-15 | 2026-09-06 01:11:57 | 47.62270 | 17.80765 | 124° | 20km/h | 29363m | 4.3m/s | -44.5°C | 2.4% | 0hPa | 2.4V | 00:00:00 | 00:00:00 | 08:30:00 | |
| OE5DRO-10 | 2026-09-06 01:11:54 | 47.62278 | 17.80747 | 123° | 13km/h | 29344m | 5.2m/s | -44.5°C | 2.4% | 0hPa | 2.5V | 00:00:00 | 00:00:00 | 00:00:00 | |
| DO3MHA-11 | 2026-09-06 01:11:53 | 47.62280 | 17.80742 | 111° | 15km/h | 29339m | 5.3m/s | -44.5°C | 2.4% | 0hPa | 2.5V | 00:00:00 | 01:56:18 | 00:00:00 | |
| OE3MUC-15 | 2026-09-06 01:11:49 | 47.62285 | 17.80715 | 97° | 11km/h | 29316m | 6.9m/s | -44.6°C | 2.4% | 0hPa | 2.5V | 00:00:00 | 00:00:00 | 00:00:00 | |
| OE3MUC-15 | 2026-09-06 01:11:45 | 47.62285 | 17.80699 | 93° | 11km/h | 29290m | 6.9m/s | -44.5°C | 2.4% | 0hPa | 2.5V | 00:00:00 | 00:00:00 | 00:00:00 | |
| PETON7-10 | 2026-09-06 01:11:44 | 47.62285 | 17.80694 | 95° | 11km/h | 29284m | 5.4m/s | -44.5°C | 2.4% | 0hPa | 2.5V | 00:00:00 | 00:00:00 | 08:30:00 | |
| DO3MHA-11 | 2026-09-06 01:11:43 | 47.62285 | 17.80689 | 96° | 11km/h | 29279m | 4.0m/s | -44.5°C | 2.4% | 0hPa | 2.4V | 00:00:00 | 01:56:08 | 00:00:00 | |
| OE5DXL-15 | 2026-09-06 01:11:42 | 47.62286 | 17.80685 | 93° | 9km/h | 29273m | 7.1m/s | -44.5°C | 2.4% | 0hPa | 2.4V | 00:00:00 | 00:00:00 | 00:00:00 | |
| OE5DRO-10 | 2026-09-06 01:11:35 | 47.62280 | 17.80657 | 51° | 9km/h | 29231m | 7.0m/s | -44.3°C | 2.4% | 0hPa | 2.4V | 00:00:00 | 00:00:00 | 00:00:00 | |
| OE5MMP-10 | 2026-09-06 01:11:33 | 47.62275 | 17.80652 | 17° | 7km/h | 29218m | 5.1m/s | -44.3°C | 2.4% | 0hPa | 2.4V | 00:00:00 | 01:55:58 | 00:00:00 | |
| GYPAP8-17 | 2026-09-06 01:11:31 | 47.62271 | 17.80649 | 51° | 9km/h | 29207m | 6.7m/s | -44.3°C | 0.4% | 0hPa | 2.4V | 00:00:00 | 00:00:00 | 00:00:00 | |
| PETON7-10 | 2026-09-06 01:11:29 | 47.62269 | 17.80642 | 87° | 9km/h | 29195m | 5.3m/s | -44.2°C | 2.3% | 0hPa | 2.4V | 00:00:00 | 00:00:00 | 00:00:00 | |
| PG1ADW-2 | 2026-09-06 01:11:25 | 47.62271 | 17.80639 | 258° | 9km/h | 29170m | 5.3m/s | -44.3°C | 2.4% | 0hPa | 2.4V | 00:00:00 | 01:55:50 | 08:30:00 | |
| HA6NAB-11 | 2026-09-06 01:11:24 | 47.62271 | 17.80639 | 258° | 7km/h | 29170m | 5.4m/s | -44.3°C | 0.4% | 0hPa | 2.4V | 00:00:00 | 00:00:00 | 00:00:00 | |
| DO3MHA-11 | 2026-09-06 01:11:23 | 47.62271 | 17.80644 | 310° | 9km/h | 29158m | 6.9m/s | -44.2°C | 2.4% | 0hPa | 2.4V | 00:00:00 | 01:55:48 | 00:00:00 | |
| OE3MUC-15 | 2026-09-06 01:11:21 | 47.62268 | 17.80644 | 16° | 13km/h | 29146m | 4.9m/s | -44.2°C | 2.3% | 0hPa | 2.4V | 00:00:00 | 00:00:00 | 08:30:00 | |
| HA6NAB-11 | 2026-09-06 01:11:19 | 47.62262 | 17.80643 | 353° | 13km/h | 29134m | 7.2m/s | -44.3°C | 0.4% | 0hPa | 2.4V | 00:00:00 | 00:00:00 | 00:00:00 | |
| OE3MUC-15 | 2026-09-06 01:11:17 | 47.62256 | 17.80645 | 357° | 9km/h | 29122m | 4.9m/s | -44.3°C | 2.4% | 0hPa | 2.4V | 00:00:00 | 00:00:00 | 00:00:00 | |
| OE3JTB-15 | 2026-09-06 01:11:15 | 47.62252 | 17.80642 | 65° | 11km/h | 29109m | 6.3m/s | -44.2°C | 2.3% | 0hPa | 2.4V | 00:00:00 | 01:55:40 | 00:00:00 | |
| PETON7-10 | 2026-09-06 01:11:14 | 47.62251 | 17.80639 | 82° | 9km/h | 29103m | 5.0m/s | -44.2°C | 2.4% | 0hPa | 2.4V | 00:00:00 | 01:55:39 | 00:00:00 | |
| DO3MHA-11 | 2026-09-06 01:11:13 | 47.62251 | 17.80637 | 102° | 11km/h | 29098m | 4.7m/s | -44.2°C | 2.4% | 0hPa | 2.4V | 00:00:00 | 01:55:38 | 00:00:00 | |
| OE5DXL-15 | 2026-09-06 01:11:12 | 47.62251 | 17.80637 | 278° | 11km/h | 29092m | 6.7m/s | -44.1°C | 2.3% | 0hPa | 2.4V | 00:00:00 | 00:00:00 | 00:00:00 | |
| OE3OSB-13 | 2026-09-06 01:11:11 | 47.62250 | 17.80644 | 289° | 15km/h | 29079m | 5.0m/s | -44.2°C | 0.4% | -1.0hPa | 2.5V | 00:00:00 | 00:00:00 | 00:00:00 | |
| HA6NAB-11 | 2026-09-06 01:11:09 | 47.62249 | 17.80649 | 298° | 15km/h | 29074m | 4.6m/s | -44.2°C | 0.4% | 0hPa | 2.5V | 00:00:00 | 00:00:00 | 00:00:00 | |
| OE3MUC-15 | 2026-09-06 01:11:05 | 47.62240 | 17.80655 | 25° | 11km/h | 29050m | 4.6m/s | -44.1°C | 2.3% | 0hPa | 2.5V | 00:00:00 | 00:00:00 | 00:00:00 | |
| OE5MMP-10 | 2026-09-06 01:11:03 | 47.62234 | 17.80652 | 9° | 11km/h | 29039m | 6.2m/s | -44.1°C | 2.3% | 0hPa | 2.5V | 00:00:00 | 01:55:28 | 00:00:00 | |
| OE3MUC-15 | 2026-09-06 01:11:01 | 47.62231 | 17.80654 | 300° | 7km/h | 29027m | 5.4m/s | -44.1°C | 2.3% | 0hPa | 2.4V | 00:00:00 | 00:00:00 | 00:00:00 | |
| PETON7-10 | 2026-09-06 01:10:59 | 47.62232 | 17.80658 | 217° | 9km/h | 29017m | 5.6m/s | -44.1°C | 2.3% | 0hPa | 2.4V | 00:00:00 | 00:00:00 | 00:00:00 | |
| S52SK | 2026-09-06 01:10:57 | 47.62237 | 17.80660 | 188° | 13km/h | 29004m | 5.6m/s | -44.1°C | 0.4% | 0hPa | 2.4V | 00:00:00 | 00:00:00 | 00:00:00 | |
| OE5MMP-10 | 2026-09-06 01:10:53 | 47.62248 | 17.80671 | 250° | 9km/h | 28980m | 5.4m/s | -44.1°C | 2.3% | 0hPa | 2.4V | 00:00:00 | 01:55:18 | 00:00:00 | |
| OE3MUC-15 | 2026-09-06 01:10:49 | 47.62250 | 17.80679 | 125° | 5km/h | 28956m | 5.1m/s | -44.2°C | 2.3% | 0hPa | 2.4V | 00:00:00 | 00:00:00 | 00:00:00 | |
| OE3MUC-15 | 2026-09-06 01:10:45 | 47.62256 | 17.80684 | 200° | 16km/h | 28933m | 4.9m/s | -44.5°C | 2.3% | 0hPa | 2.4V | 00:00:00 | 00:00:00 | 08:30:00 | |
| PETON7-10 | 2026-09-06 01:10:44 | 47.62260 | 17.80685 | 186° | 11km/h | 28927m | 6.1m/s | -44.5°C | 2.4% | 0hPa | 2.4V | 00:00:00 | 00:00:00 | 00:00:00 | |
| DO3MHA-11 | 2026-09-06 01:10:43 | 47.62265 | 17.80685 | 172° | 9km/h | 28920m | 6.5m/s | -44.6°C | 2.3% | 0hPa | 2.4V | 00:00:00 | 01:55:08 | 00:00:00 | |
| OE5DXL-15 | 2026-09-06 01:10:42 | 47.62269 | 17.80683 | 166° | 11km/h | 28915m | 5.4m/s | -44.5°C | 2.4% | 0hPa | 2.4V | 00:00:00 | 00:00:00 | 00:00:00 | |
| OE3MUC-15 | 2026-09-06 01:10:41 | 47.62272 | 17.80682 | 170° | 7km/h | 28909m | 5.0m/s | -44.5°C | 2.4% | 0hPa | 2.4V | 00:00:00 | 00:00:00 | 00:00:00 | |
| OE3OSB-13 | 2026-09-06 01:10:40 | 47.62275 | 17.80684 | 247° | 5km/h | 28895m | 6.3m/s | -44.6°C | 0.4% | -1.0hPa | 2.4V | 00:00:00 | 00:00:00 | 00:00:00 | |
| SP9KGR-15 | 2026-09-06 01:10:37 | 47.62276 | 17.80689 | 255° | 5km/h | 28884m | 5.8m/s | -44.6°C | 0.4% | 0hPa | 2.4V | 00:00:00 | 00:00:00 | 00:00:00 | |
| OE5DRO-10 | 2026-09-06 01:10:34 | 47.62281 | 17.80688 | 164° | 15km/h | 28865m | 5.4m/s | -44.6°C | 2.4% | 0hPa | 2.4V | 00:00:00 | 00:00:00 | 00:00:00 | |
| DO3MHA-11 | 2026-09-06 01:10:33 | 47.62284 | 17.80687 | 169° | 13km/h | 28859m | 5.7m/s | -44.6°C | 2.4% | 0hPa | 2.4V | 00:00:00 | 01:54:58 | 00:00:00 | |
| PETON7-10 | 2026-09-06 01:10:29 | 47.62296 | 17.80687 | 169° | 15km/h | 28835m | 6.0m/s | -44.6°C | 2.3% | 0hPa | 2.5V | 00:00:00 | 01:54:54 | 00:00:00 | |
| OE3MUC-15 | 2026-09-06 01:10:25 | 47.62308 | 17.80673 | 126° | 9km/h | 28812m | 5.2m/s | -44.7°C | 2.4% | 0hPa | 2.5V | 00:00:00 | 00:00:00 | 00:00:00 | |
| DO3MHA-11 | 2026-09-06 01:10:23 | 47.62310 | 17.80672 | 241° | 15km/h | 28799m | 6.1m/s | -44.7°C | 2.4% | 0hPa | 2.5V | 00:00:00 | 01:54:48 | 00:00:00 | |
| OE3MUC-15 | 2026-09-06 01:10:21 | 47.62313 | 17.80682 | 238° | 20km/h | 28787m | 5.3m/s | -44.8°C | 2.4% | 0hPa | 2.5V | 00:00:00 | 00:00:00 | 00:00:00 | |
| SP9KGR-15 | 2026-09-06 01:10:20 | 47.62313 | 17.80682 | 238° | 20km/h | 28787m | 5.4m/s | 0°C | 0% | 0hPa | 2.4V | 00:00:00 | 00:00:00 | 00:00:00 | |
| OE3MUC-15 | 2026-09-06 01:10:17 | 47.62330 | 17.80695 | 170° | 11km/h | 28763m | 5.7m/s | -44.8°C | 2.4% | 0hPa | 2.4V | 00:00:00 | 00:00:00 | 00:00:00 | |
| OE5DRO-10 | 2026-09-06 01:10:15 | 47.62337 | 17.80691 | 139° | 13km/h | 28751m | 6.7m/s | -44.9°C | 2.5% | 0hPa | 2.4V | 00:00:00 | 00:00:00 | 00:00:00 | |
| PETON7-10 | 2026-09-06 01:10:14 | 47.62338 | 17.80689 | 135° | 13km/h | 28744m | 6.0m/s | -44.9°C | 2.4% | 0hPa | 2.4V | 00:00:00 | 00:00:00 | 00:00:00 | |
| OE5MMP-10 | 2026-09-06 01:10:13 | 47.62339 | 17.80688 | 132° | 11km/h | 28737m | 5.2m/s | -45.0°C | 2.5% | 0hPa | 2.4V | 00:00:00 | 01:54:38 | 00:00:00 | |
| OE5DXL-15 | 2026-09-06 01:10:12 | 47.62339 | 17.80688 | 220° | 16km/h | 28732m | 5.3m/s | -45.0°C | 2.5% | 0hPa | 2.4V | 00:00:00 | 00:00:00 | 00:00:00 | |
| OE3OSB-13 | 2026-09-06 01:10:09 | 47.62348 | 17.80690 | 183° | 15km/h | 28707m | 5.3m/s | -45.1°C | 0.4% | -1.0hPa | 2.4V | 00:00:00 | 00:00:00 | 00:00:00 | |
| OE3JTB-15 | 2026-09-06 01:10:08 | 47.62348 | 17.80690 | 184° | 16km/h | 28708m | 5.3m/s | -45.1°C | 2.5% | 0hPa | 2.4V | 00:00:00 | 00:00:00 | 00:00:00 | |
| GYPAP8-17 | 2026-09-06 01:10:06 | 47.62352 | 17.80691 | 198° | 16km/h | 28702m | 5.5m/s | -45.1°C | 0.5% | 0hPa | 2.4V | 00:00:00 | 00:00:00 | 00:00:00 | |
| OE3MUC-15 | 2026-09-06 01:10:05 | 47.62358 | 17.80697 | 228° | 16km/h | 28688m | 5.9m/s | -45.0°C | 2.5% | 0hPa | 2.4V | 00:00:00 | 00:00:00 | 00:00:00 | |
| DO3MHA-11 | 2026-09-06 01:10:03 | 47.62364 | 17.80706 | 217° | 15km/h | 28677m | 6.0m/s | -44.9°C | 2.5% | 0hPa | 2.4V | 00:00:00 | 01:54:28 | 00:00:00 | |
| SP9KGR-15 | 2026-09-06 01:10:01 | 47.62372 | 17.80710 | 186° | 18km/h | 28664m | 5.9m/s | 0°C | 0% | 0hPa | 2.5V | 00:00:00 | 00:00:00 | 00:00:00 | |
| PETON7-10 | 2026-09-06 01:09:59 | 47.62380 | 17.80710 | 181° | 16km/h | 28652m | 6.3m/s | -44.9°C | 2.4% | 0hPa | 2.5V | 00:00:00 | 00:00:00 | 00:00:00 | |
| OE3MUC-15 | 2026-09-06 01:09:57 | 47.62386 | 17.80712 | 205° | 13km/h | 28639m | 5.5m/s | -44.9°C | 2.4% | 0hPa | 2.5V | 00:00:00 | 00:00:00 | 00:00:00 | |
| OE5DRO-10 | 2026-09-06 01:09:56 | 47.62389 | 17.80713 | 201° | 18km/h | 28633m | 5.1m/s | -44.9°C | 2.4% | 0hPa | 2.5V | 00:00:00 | 00:00:00 | 08:30:00 | |
| S52SK | 2026-09-06 01:09:55 | 47.62389 | 17.80713 | 201° | 11km/h | 28633m | 5.2m/s | -44.9°C | 0.4% | 0hPa | 2.4V | 00:00:00 | 00:00:00 | 00:00:00 | |
| DO3MHA-11 | 2026-09-06 01:09:53 | 47.62399 | 17.80712 | 162° | 20km/h | 28613m | 6.4m/s | -44.8°C | 2.4% | 0hPa | 2.4V | 00:00:00 | 01:54:18 | 00:00:00 | |
| OE3MUC-15 | 2026-09-06 01:09:49 | 47.62417 | 17.80711 | 208° | 20km/h | 28587m | 5.5m/s | -44.7°C | 2.4% | 0hPa | 2.4V | 00:00:00 | 00:00:00 | 00:00:00 | |
| SP9KGR-15 | 2026-09-06 01:09:46 | 47.62430 | 17.80720 | 188° | 20km/h | 28570m | 7.1m/s | 0°C | 0% | 0hPa | 2.4V | 00:00:00 | 00:00:00 | 00:00:00 | |
| OE3MUC-15 | 2026-09-06 01:09:45 | 47.62436 | 17.80720 | 171° | 20km/h | 28563m | 6.3m/s | -44.8°C | 2.4% | 0hPa | 2.4V | 00:00:00 | 00:00:00 | 00:00:00 | |
| PETON7-10 | 2026-09-06 01:09:44 | 47.62441 | 17.80717 | 156° | 20km/h | 28557m | 5.3m/s | -44.7°C | 2.4% | 0hPa | 2.5V | 00:00:00 | 01:54:09 | 00:00:00 | |
| OE5MMP-10 | 2026-09-06 01:09:43 | 47.62446 | 17.80714 | 149° | 20km/h | 28552m | 5.7m/s | -44.7°C | 2.4% | 0hPa | 2.5V | 00:00:00 | 01:54:08 | 00:00:00 | |
| OE5DXL-15 | 2026-09-06 01:09:42 | 47.62449 | 17.80710 | 142° | 22km/h | 28545m | 7.1m/s | -44.8°C | 2.4% | 0hPa | 2.5V | 00:00:00 | 00:00:00 | 00:00:00 | |
| OE3JTB-15 | 2026-09-06 01:09:39 | 47.62458 | 17.80702 | 161° | 20km/h | 28527m | 5.3m/s | -44.9°C | 2.4% | 0hPa | 2.4V | 00:00:00 | 01:54:04 | 00:00:00 | |
| OE3OSB-13 | 2026-09-06 01:09:38 | 47.62467 | 17.80698 | 166° | 22km/h | 28514m | 6.6m/s | -44.9°C | 0.4% | -1.0hPa | 2.4V | 00:00:00 | 00:00:00 | 00:00:00 | |
| OE5DRO-10 | 2026-09-06 01:09:37 | 47.62467 | 17.80698 | 167° | 26km/h | 28514m | 6.6m/s | -44.9°C | 2.4% | 0hPa | 2.4V | 00:00:00 | 00:00:00 | 00:00:00 | |
| OE5MMP-10 | 2026-09-06 01:09:33 | 47.62492 | 17.80695 | 183° | 24km/h | 28488m | 5.3m/s | -44.9°C | 2.4% | 0hPa | 2.4V | 00:00:00 | 01:53:58 | 00:00:00 | |
| PETON7-10 | 2026-09-06 01:09:30 | 47.62511 | 17.80682 | 129° | 26km/h | 28463m | 6.6m/s | -44.9°C | 2.4% | 0hPa | 2.4V | 00:00:00 | 00:00:00 | 08:30:00 | |
| SP9KGR-15 | 2026-09-06 01:09:27 | 47.62519 | 17.80664 | 120° | 27km/h | 28450m | 6.8m/s | 0°C | 0% | 0hPa | 2.4V | 00:00:00 | 00:00:00 | 00:00:00 | |
| PG1ADW-2 | 2026-09-06 01:09:25 | 47.62526 | 17.80650 | 138° | 22km/h | 28438m | 4.6m/s | -45.0°C | 2.4% | 0hPa | 2.4V | 00:00:00 | 00:00:00 | 00:00:00 | |
| OE5MMP-10 | 2026-09-06 01:09:23 | 47.62536 | 17.80640 | 153° | 24km/h | 28427m | 6.4m/s | -45.1°C | 2.4% | 0hPa | 2.5V | 00:00:00 | 01:53:48 | 00:00:00 | |
| DO3MHA-11 | 2026-09-06 01:09:22 | 47.62542 | 17.80635 | 154° | 24km/h | 28421m | 6.9m/s | -45.1°C | 2.4% | 0hPa | 2.5V | 00:00:00 | 01:53:47 | 00:00:00 | |
| OE3MUC-15 | 2026-09-06 01:09:21 | 47.62550 | 17.80630 | 154° | 27km/h | 28414m | 5.3m/s | -45.2°C | 2.4% | 0hPa | 2.5V | 00:00:00 | 00:00:00 | 00:00:00 | |
| HA6NAB-11 | 2026-09-06 01:09:17 | 47.62570 | 17.80609 | 118° | 15km/h | 28390m | 6.4m/s | -45.4°C | 0.4% | 0hPa | 2.4V | 00:00:00 | 00:00:00 | 00:00:00 | |
| OE5MMP-10 | 2026-09-06 01:09:14 | 47.62576 | 17.80584 | 114° | 22km/h | 28364m | 5.1m/s | -45.4°C | 2.4% | 0hPa | 2.4V | 00:00:00 | 01:53:38 | 00:00:00 | |
| DO3MHA-11 | 2026-09-06 01:09:12 | 47.62578 | 17.80579 | 115° | 24km/h | 28358m | 7.1m/s | -45.4°C | 2.4% | 0hPa | 2.4V | 00:00:00 | 01:53:37 | 00:00:00 | |
| HA6NAB-11 | 2026-09-06 01:09:11 | 47.62578 | 17.80579 | 115° | 13km/h | 28358m | 7.1m/s | -45.5°C | 0.4% | 0hPa | 2.4V | 00:00:00 | 00:00:00 | 00:00:00 | |
| SP9KGR-15 | 2026-09-06 01:09:10 | 47.62579 | 17.80575 | 130° | 11km/h | 28351m | 6.3m/s | 0°C | 0% | 0hPa | 2.4V | 00:00:00 | 00:00:00 | 00:00:00 | |
| OE3MUC-15 | 2026-09-06 01:09:09 | 47.62585 | 17.80569 | 150° | 27km/h | 28339m | 6.3m/s | -45.6°C | 2.4% | 0hPa | 2.4V | 00:00:00 | 00:00:00 | 00:00:00 | |
| OE3JTB-15 | 2026-09-06 01:09:06 | 47.62603 | 17.80551 | 142° | 20km/h | 28319m | 4.8m/s | -45.7°C | 2.4% | 0hPa | 2.5V | 00:00:00 | 00:00:00 | 08:30:00 | |
| OE3MUC-15 | 2026-09-06 01:09:05 | 47.62609 | 17.80543 | 139° | 20km/h | 28314m | 4.6m/s | -45.8°C | 2.4% | 0hPa | 2.4V | 00:00:00 | 00:00:00 | 00:00:00 | |
| OE5MMP-10 | 2026-09-06 01:09:03 | 47.62617 | 17.80531 | 122° | 15km/h | 28302m | 6.4m/s | -46.0°C | 2.4% | 0hPa | 2.4V | 00:00:00 | 01:53:28 | 08:30:00 | |
| DO3MHA-11 | 2026-09-06 01:09:02 | 47.62618 | 17.80526 | 95° | 18km/h | 28295m | 5.8m/s | -46.1°C | 2.4% | 0hPa | 2.5V | 00:00:00 | 01:53:27 | 00:00:00 | |
| OE3MUC-15 | 2026-09-06 01:09:01 | 47.62618 | 17.80522 | 80° | 15km/h | 28289m | 6.2m/s | -46.2°C | 2.5% | 0hPa | 2.4V | 00:00:00 | 00:00:00 | 00:00:00 | |
| PETON7-10 | 2026-09-06 01:08:59 | 47.62618 | 17.80512 | 98° | 22km/h | 28276m | 6.0m/s | -46.5°C | 2.5% | 0hPa | 2.4V | 00:00:00 | 01:53:24 | 00:00:00 | |
| OE3MUC-15 | 2026-09-06 01:08:57 | 47.62620 | 17.80501 | 123° | 16km/h | 28265m | 5.5m/s | -46.7°C | 2.6% | 0hPa | 2.4V | 00:00:00 | 00:00:00 | 08:30:00 | |
| GYPAP8-17 | 2026-09-06 01:08:56 | 47.62621 | 17.80501 | 124° | 15km/h | 28265m | 5.6m/s | -46.7°C | 0.5% | 0hPa | 2.5V | 00:00:00 | 00:00:00 | 00:00:00 | |
| HA6NAB-11 | 2026-09-06 01:08:54 | 47.62625 | 17.80492 | 149° | 16km/h | 28251m | 6.4m/s | -47.0°C | 0.5% | 0hPa | 2.5V | 00:00:00 | 00:00:00 | 00:00:00 | |
| OE5MMP-10 | 2026-09-06 01:08:53 | 47.62634 | 17.80484 | 143° | 26km/h | 28238m | 7.4m/s | -47.1°C | 2.7% | 0hPa | 2.5V | 00:00:00 | 01:53:18 | 00:00:00 | |
| DO3MHA-11 | 2026-09-06 01:08:51 | 47.62645 | 17.80470 | 131° | 27km/h | 28226m | 3.5m/s | -47.1°C | 2.7% | 0hPa | 2.5V | 00:00:00 | 01:53:16 | 00:00:00 | |
| OE5DRO-10 | 2026-09-06 01:08:50 | 47.62649 | 17.80462 | 130° | 24km/h | 28221m | 6.4m/s | -47.1°C | 2.7% | 0hPa | 2.5V | 00:00:00 | 00:00:00 | 00:00:00 | |
| OE3MUC-15 | 2026-09-06 01:08:49 | 47.62653 | 17.80454 | 123° | 24km/h | 28214m | 7.2m/s | -47.1°C | 2.6% | 0hPa | 2.5V | 00:00:00 | 00:00:00 | 00:00:00 | |
| HA6NAB-11 | 2026-09-06 01:08:48 | 47.62653 | 17.80454 | 123° | 24km/h | 28214m | 7.2m/s | -47.2°C | 0.5% | 0hPa | 2.5V | 00:00:00 | 00:00:00 | 00:00:00 | |
| OE3MUC-15 | 2026-09-06 01:08:45 | 47.62658 | 17.80420 | 96° | 24km/h | 28187m | 5.5m/s | -47.3°C | 2.7% | 0hPa | 2.5V | 00:00:00 | 00:00:00 | 00:00:00 | |
| PETON7-10 | 2026-09-06 01:08:44 | 47.62659 | 17.80410 | 98° | 24km/h | 28182m | 5.0m/s | -47.3°C | 2.7% | 0hPa | 2.4V | 00:00:00 | 00:00:00 | 00:00:00 | |
| OE5MMP-10 | 2026-09-06 01:08:43 | 47.62660 | 17.80401 | 101° | 22km/h | 28176m | 7.2m/s | -47.4°C | 2.7% | 0hPa | 2.5V | 00:00:00 | 01:53:08 | 00:00:00 | |
| OE5DXL-15 | 2026-09-06 01:08:42 | 47.62662 | 17.80394 | 113° | 16km/h | 28169m | 6.3m/s | -47.4°C | 2.7% | 0hPa | 2.5V | 00:00:00 | 00:00:00 | 00:00:00 | |
| S52SK | 2026-09-06 01:08:39 | 47.62667 | 17.80382 | 133° | 24km/h | 28156m | 7.5m/s | -47.5°C | 0.5% | 0hPa | 2.5V | 00:00:00 | 00:00:00 | 00:00:00 | |
| OE3MUC-15 | 2026-09-06 01:08:37 | 47.62680 | 17.80362 | 131° | 20km/h | 28138m | 5.1m/s | -47.5°C | 2.7% | 0hPa | 2.5V | 00:00:00 | 00:00:00 | 00:00:00 | |
| DO3MHA-11 | 2026-09-06 01:08:36 | 47.62683 | 17.80356 | 121° | 22km/h | 28132m | 6.8m/s | -47.5°C | 2.7% | 0hPa | 2.5V | 00:00:00 | 01:53:01 | 00:00:00 | |
| OE3OSB-13 | 2026-09-06 01:08:35 | 47.62685 | 17.80349 | 97° | 16km/h | 28125m | 5.7m/s | -47.5°C | 0.5% | -1.0hPa | 2.5V | 00:00:00 | 00:00:00 | 00:00:00 | |
| S52SK | 2026-09-06 01:08:34 | 47.62684 | 17.80349 | 99° | 16km/h | 28125m | 5.7m/s | -47.5°C | 0.5% | 0hPa | 2.5V | 00:00:00 | 00:00:00 | 00:00:00 | |
| OE5MMP-10 | 2026-09-06 01:08:33 | 47.62684 | 17.80334 | 81° | 18km/h | 28113m | 7.0m/s | -47.6°C | 2.7% | 0hPa | 2.5V | 00:00:00 | 01:52:58 | 00:00:00 | |
| OE5DRO-10 | 2026-09-06 01:08:31 | 47.62681 | 17.80314 | 81° | 13km/h | 28101m | 4.7m/s | -47.7°C | 2.7% | 0hPa | 2.4V | 00:00:00 | 00:00:00 | 00:00:00 | |
| PETON7-10 | 2026-09-06 01:08:29 | 47.62678 | 17.80295 | 70° | 11km/h | 28089m | 7.3m/s | -47.8°C | 2.7% | 0hPa | 2.4V | 00:00:00 | 00:00:00 | 00:00:00 | |
| DO3MHA-11 | 2026-09-06 01:08:26 | 47.62676 | 17.80282 | 122° | 9km/h | 28070m | 6.7m/s | -47.9°C | 2.8% | 0hPa | 2.4V | 00:00:00 | 01:52:51 | 00:00:00 | |
| OE3MUC-15 | 2026-09-06 01:08:25 | 47.62677 | 17.80280 | 146° | 9km/h | 28063m | 6.7m/s | -48.0°C | 2.8% | 0hPa | 2.4V | 00:00:00 | 00:00:00 | 00:00:00 | |
| OE5MMP-10 | 2026-09-06 01:08:23 | 47.62682 | 17.80276 | 159° | 11km/h | 28052m | 4.5m/s | -48.0°C | 2.8% | 0hPa | 2.4V | 00:00:00 | 01:52:48 | 00:00:00 | |
| OE3MUC-15 | 2026-09-06 01:08:21 | 47.62686 | 17.80274 | 148° | 5km/h | 28040m | 5.5m/s | -48.2°C | 2.8% | 0hPa | 2.4V | 00:00:00 | 00:00:00 | 08:30:00 | |
| OE3MUC-15 | 2026-09-06 01:08:17 | 47.62685 | 17.80264 | 104° | 18km/h | 28017m | 6.3m/s | -48.2°C | 2.9% | 0hPa | 2.5V | 00:00:00 | 00:00:00 | 00:00:00 | |
| DO3MHA-11 | 2026-09-06 01:08:16 | 47.62686 | 17.80257 | 107° | 16km/h | 28011m | 5.7m/s | -48.2°C | 2.9% | 0hPa | 2.5V | 00:00:00 | 01:52:41 | 00:00:00 | |
| PETON7-10 | 2026-09-06 01:08:14 | 47.62688 | 17.80244 | 93° | 13km/h | 28000m | 6.1m/s | -48.2°C | 2.9% | 0hPa | 2.5V | 00:00:00 | 01:52:39 | 00:00:00 | |
| OE5MMP-10 | 2026-09-06 01:08:13 | 47.62688 | 17.80237 | 79° | 13km/h | 27993m | 7.3m/s | -48.2°C | 2.9% | 0hPa | 2.5V | 00:00:00 | 01:52:38 | 00:00:00 | |
| OE5DXL-15 | 2026-09-06 01:08:12 | 47.62687 | 17.80232 | 67° | 11km/h | 27986m | 6.0m/s | -48.2°C | 2.9% | 0hPa | 2.5V | 00:00:00 | 00:00:00 | 08:30:00 | |
| OE5DRO-10 | 2026-09-06 01:08:11 | 47.62686 | 17.80227 | 70° | 11km/h | 27980m | 5.4m/s | -48.1°C | 2.9% | 0hPa | 2.4V | 00:00:00 | 00:00:00 | 00:00:00 | |
| OE3MUC-15 | 2026-09-06 01:08:09 | 47.62685 | 17.80217 | 94° | 15km/h | 27968m | 5.4m/s | -48.1°C | 2.9% | 0hPa | 2.4V | 00:00:00 | 00:00:00 | 00:00:00 | |
| DO3MHA-11 | 2026-09-06 01:08:06 | 47.62684 | 17.80202 | 60° | 11km/h | 27951m | 6.6m/s | -48.0°C | 2.8% | 0hPa | 2.5V | 00:00:00 | 01:52:31 | 00:00:00 | |
| PG1ADW-2 | 2026-09-06 01:08:05 | 47.62682 | 17.80199 | 47° | 9km/h | 27945m | 5.5m/s | -48.0°C | 2.8% | 0hPa | 2.5V | 00:00:00 | 00:00:00 | 00:00:00 | |
| OE3OSB-13 | 2026-09-06 01:08:04 | 47.62680 | 17.80196 | 39° | 9km/h | 27939m | 5.3m/s | -48.0°C | 0.5% | -1.0hPa | 2.5V | 00:00:00 | 00:00:00 | 00:00:00 | |
| OE5MMP-10 | 2026-09-06 01:08:03 | 47.62678 | 17.80193 | 58° | 11km/h | 27933m | 6.3m/s | -47.9°C | 2.8% | 0hPa | 2.5V | 00:00:00 | 01:52:28 | 00:00:00 | |
| OE3MUC-15 | 2026-09-06 01:08:01 | 47.62678 | 17.80187 | 108° | 9km/h | 27921m | 5.1m/s | -47.8°C | 2.8% | 0hPa | 2.5V | 00:00:00 | 00:00:00 | 00:00:00 | |
| PETON7-10 | 2026-09-06 01:07:59 | 47.62679 | 17.80180 | 86° | 9km/h | 27910m | 6.2m/s | -47.8°C | 2.8% | 0hPa | 2.5V | 00:00:00 | 00:00:00 | 00:00:00 | |
| OE3MUC-15 | 2026-09-06 01:07:57 | 47.62677 | 17.80173 | 52° | 13km/h | 27898m | 5.6m/s | -47.7°C | 2.8% | 0hPa | 2.5V | 00:00:00 | 00:00:00 | 00:00:00 | |
| DO3MHA-11 | 2026-09-06 01:07:54 | 47.62673 | 17.80159 | 85° | 9km/h | 27879m | 5.6m/s | -47.7°C | 2.7% | 0hPa | 2.4V | 00:00:00 | 01:52:19 | 08:30:00 | |
| OE5DRO-10 | 2026-09-06 01:07:51 | 47.62671 | 17.80148 | 36° | 9km/h | 27861m | 6.3m/s | -47.6°C | 2.7% | 0hPa | 2.5V | 00:00:00 | 00:00:00 | 00:00:00 | |
| OE3MUC-15 | 2026-09-06 01:07:49 | 47.62667 | 17.80146 | 14° | 4km/h | 27850m | 5.2m/s | -47.6°C | 2.7% | 0hPa | 2.4V | 00:00:00 | 00:00:00 | 00:00:00 | |
| OE3MUC-15 | 2026-09-06 01:07:45 | 47.62667 | 17.80142 | 129° | 7km/h | 27827m | 4.6m/s | -47.7°C | 2.8% | 0hPa | 2.4V | 00:00:00 | 00:00:00 | 08:30:00 | |
| PETON7-10 | 2026-09-06 01:07:44 | 47.62667 | 17.80140 | 74° | 5km/h | 27821m | 6.0m/s | -47.8°C | 2.8% | 0hPa | 2.4V | 00:00:00 | 00:00:00 | 00:00:00 | |
| OE5MMP-10 | 2026-09-06 01:07:43 | 47.62666 | 17.80139 | 25° | 5km/h | 27815m | 7.1m/s | -47.8°C | 2.8% | 0hPa | 2.4V | 00:00:00 | 01:52:08 | 00:00:00 | |
| OE5DXL-15 | 2026-09-06 01:07:42 | 47.62664 | 17.80138 | 11° | 7km/h | 27808m | 5.7m/s | -47.8°C | 2.8% | 0hPa | 2.4V | 00:00:00 | 00:00:00 | 00:00:00 | |
| SP9KGR-15 | 2026-09-06 01:07:41 | 47.62664 | 17.80138 | 11° | 13km/h | 27808m | 5.7m/s | 0°C | 0% | 0hPa | 2.4V | 00:00:00 | 00:00:00 | 00:00:00 | |
| GYPAP8-17 | 2026-09-06 01:07:39 | 47.62657 | 17.80136 | 32° | 4km/h | 27792m | 6.6m/s | -47.8°C | 0.5% | 0hPa | 2.4V | 00:00:00 | 00:00:00 | 00:00:00 | |
| DO3MHA-11 | 2026-09-06 01:07:35 | 47.62656 | 17.80135 | 315° | 5km/h | 27767m | 6.1m/s | -47.7°C | 2.8% | 0hPa | 2.4V | 00:00:00 | 01:52:00 | 00:00:00 | |
| OE5MMP-10 | 2026-09-06 01:07:33 | 47.62654 | 17.80138 | 326° | 7km/h | 27757m | 4.1m/s | -47.7°C | 2.7% | 0hPa | 2.4V | 00:00:00 | 01:51:58 | 08:30:00 | |
| PETON7-10 | 2026-09-06 01:07:29 | 47.62651 | 17.80144 | 314° | 9km/h | 27733m | 6.3m/s | -47.7°C | 2.7% | 0hPa | 2.5V | 00:00:00 | 01:51:54 | 00:00:00 | |
| PG1ADW-2 | 2026-09-06 01:07:25 | 47.62641 | 17.80150 | 16° | 7km/h | 27710m | 7.1m/s | -47.8°C | 2.7% | 0hPa | 2.5V | 00:00:00 | 01:51:50 | 00:00:00 | |
| OE5MMP-10 | 2026-09-06 01:07:23 | 47.62639 | 17.80146 | 70° | 7km/h | 27697m | 4.9m/s | -47.8°C | 2.8% | 0hPa | 2.5V | 00:00:00 | 01:51:48 | 00:00:00 | |
| OE3MUC-15 | 2026-09-06 01:07:21 | 47.62636 | 17.80141 | 35° | 11km/h | 27685m | 6.5m/s | -47.8°C | 2.8% | 0hPa | 2.5V | 00:00:00 | 00:00:00 | 00:00:00 | |
| OE3MUC-15 | 2026-09-06 01:07:17 | 47.62626 | 17.80138 | 5° | 2km/h | 27663m | 6.4m/s | -47.8°C | 2.8% | 0hPa | 2.4V | 00:00:00 | 00:00:00 | 00:00:00 | |
| PETON7-10 | 2026-09-06 01:07:14 | 47.62626 | 17.80138 | 213° | 9km/h | 27646m | 4.9m/s | -47.8°C | 2.8% | 0hPa | 2.4V | 00:00:00 | 00:00:00 | 08:30:00 | |
| OE5MMP-10 | 2026-09-06 01:07:13 | 47.62626 | 17.80138 | 313° | 5km/h | 27640m | 6.9m/s | -47.8°C | 2.8% | 0hPa | 2.5V | 00:00:00 | 01:51:38 | 00:00:00 | |
| OE5DXL-15 | 2026-09-06 01:07:12 | 47.62625 | 17.80140 | 323° | 11km/h | 27633m | 5.9m/s | -47.8°C | 2.8% | 0hPa | 2.5V | 00:00:00 | 01:51:37 | 00:00:00 | |
| DO3MHA-11 | 2026-09-06 01:07:10 | 47.62621 | 17.80145 | 320° | 9km/h | 27623m | 4.9m/s | -47.8°C | 2.8% | 0hPa | 2.5V | 00:00:00 | 01:51:35 | 00:00:00 | |
| OE3MUC-15 | 2026-09-06 01:07:09 | 47.62620 | 17.80147 | 297° | 4km/h | 27617m | 6.8m/s | -47.9°C | 2.8% | 0hPa | 2.5V | 00:00:00 | 00:00:00 | 08:30:00 | |
| HA6NAB-11 | 2026-09-06 01:07:07 | 47.62619 | 17.80149 | 257° | 4km/h | 27611m | 6.5m/s | -47.9°C | 0.5% | 0hPa | 2.4V | 00:00:00 | 00:00:00 | 00:00:00 | |
| OE3MUC-15 | 2026-09-06 01:07:05 | 47.62621 | 17.80152 | 268° | 9km/h | 27591m | 6.5m/s | -47.8°C | 2.8% | 0hPa | 2.4V | 00:00:00 | 00:00:00 | 00:00:00 | |
| OE5MMP-10 | 2026-09-06 01:07:03 | 47.62622 | 17.80157 | 243° | 15km/h | 27581m | 4.9m/s | -47.8°C | 2.7% | 0hPa | 2.4V | 00:00:00 | 01:51:28 | 00:00:00 | |
| OE3OSB-13 | 2026-09-06 01:07:02 | 47.62624 | 17.80160 | 226° | 13km/h | 27574m | 7.6m/s | -47.9°C | 0.4% | -1.0hPa | 2.4V | 00:00:00 | 00:00:00 | 00:00:00 | |
| OE3MUC-15 | 2026-09-06 01:07:01 | 47.62627 | 17.80164 | 223° | 18km/h | 27567m | 6.5m/s | -47.8°C | 2.8% | 0hPa | 2.4V | 00:00:00 | 00:00:00 | 00:00:00 | |
| DO3MHA-11 | 2026-09-06 01:07:00 | 47.62630 | 17.80169 | 226° | 22km/h | 27561m | 5.7m/s | -47.8°C | 2.7% | 0hPa | 2.4V | 00:00:00 | 01:51:25 | 00:00:00 | |
| PETON7-10 | 2026-09-06 01:06:59 | 47.62633 | 17.80174 | 240° | 11km/h | 27555m | 6.5m/s | -47.8°C | 2.7% | 0hPa | 2.4V | 00:00:00 | 00:00:00 | 00:00:00 | |
| OE3MUC-15 | 2026-09-06 01:06:57 | 47.62635 | 17.80186 | 265° | 15km/h | 27542m | 4.3m/s | -47.9°C | 2.8% | 0hPa | 2.4V | 00:00:00 | 00:00:00 | 00:00:00 | |
| HA6NAB-11 | 2026-09-06 01:06:56 | 47.62635 | 17.80186 | 265° | 16km/h | 27542m | 4.4m/s | -47.9°C | 0.5% | 0hPa | 2.5V | 00:00:00 | 00:00:00 | 00:00:00 | |
| S52SK | 2026-09-06 01:06:55 | 47.62636 | 17.80192 | 258° | 15km/h | 27538m | 4.7m/s | -47.9°C | 0.5% | 0hPa | 2.5V | 00:00:00 | 00:00:00 | 00:00:00 | |
| OE5MMP-10 | 2026-09-06 01:06:53 | 47.62642 | 17.80201 | 190° | 9km/h | 27519m | 4.9m/s | -47.9°C | 2.8% | 0hPa | 2.5V | 00:00:00 | 01:51:18 | 00:00:00 | |
| OE5DRO-10 | 2026-09-06 01:06:50 | 47.62646 | 17.80201 | 32° | 13km/h | 27501m | 5.9m/s | -47.9°C | 2.8% | 0hPa | 2.5V | 00:00:00 | 00:00:00 | 08:30:00 | |
| OE3MUC-15 | 2026-09-06 01:06:49 | 47.62645 | 17.80201 | 355° | 5km/h | 27496m | 4.7m/s | -48.0°C | 2.8% | 0hPa | 2.4V | 00:00:00 | 00:00:00 | 00:00:00 | |
| OE3MUC-15 | 2026-09-06 01:06:45 | 47.62650 | 17.80204 | 193° | 22km/h | 27473m | 6.6m/s | -48.1°C | 2.8% | 0hPa | 2.4V | 00:00:00 | 00:00:00 | 00:00:00 | |
| OE5MMP-10 | 2026-09-06 01:06:43 | 47.62661 | 17.80209 | 204° | 16km/h | 27461m | 5.6m/s | -48.1°C | 2.7% | 0hPa | 2.4V | 00:00:00 | 01:51:08 | 00:00:00 | |
| OE5DXL-15 | 2026-09-06 01:06:42 | 47.62667 | 17.80213 | 213° | 16km/h | 27455m | 7.1m/s | -48.1°C | 2.7% | 0hPa | 2.4V | 00:00:00 | 00:00:00 | 00:00:00 | |
| OE3MUC-15 | 2026-09-06 01:06:41 | 47.62671 | 17.80218 | 223° | 16km/h | 27448m | 5.5m/s | -48.1°C | 2.7% | 0hPa | 2.5V | 00:00:00 | 00:00:00 | 00:00:00 | |
| OE3MUC-15 | 2026-09-06 01:06:37 | 47.62684 | 17.80231 | 189° | 11km/h | 27424m | 5.4m/s | -48.2°C | 2.8% | 0hPa | 2.5V | 00:00:00 | 00:00:00 | 00:00:00 | |
| GYPAP8-17 | 2026-09-06 01:06:35 | 47.62687 | 17.80231 | 180° | 13km/h | 27420m | 3.9m/s | -48.3°C | 0.5% | 0hPa | 2.5V | 00:00:00 | 00:00:00 | 00:00:00 | |
| SP9KGR-15 | 2026-09-06 01:06:34 | 47.62690 | 17.80231 | 182° | 9km/h | 27414m | 6.9m/s | 0°C | 0% | 0hPa | 2.5V | 00:00:00 | 00:00:00 | 00:00:00 | |
| OE3MUC-15 | 2026-09-06 01:06:33 | 47.62695 | 17.80232 | 197° | 20km/h | 27402m | 4.7m/s | -48.4°C | 2.8% | 0hPa | 2.5V | 00:00:00 | 00:00:00 | 08:30:00 | |
| OE5DRO-10 | 2026-09-06 01:06:31 | 47.62703 | 17.80235 | 195° | 18km/h | 27389m | 6.9m/s | -48.5°C | 2.8% | 0hPa | 2.4V | 00:00:00 | 00:00:00 | 00:00:00 | |
| OE3MUC-15 | 2026-09-06 01:06:29 | 47.62716 | 17.80240 | 196° | 18km/h | 27379m | 4.2m/s | -48.6°C | 2.8% | 0hPa | 2.4V | 00:00:00 | 00:00:00 | 00:00:00 | |
| PETON7-10 | 2026-09-06 01:06:28 | 47.62721 | 17.80243 | 197° | 16km/h | 27373m | 6.5m/s | -48.6°C | 2.8% | 0hPa | 2.4V | 00:00:00 | 00:00:00 | 00:00:00 | |
| OE3MUC-15 | 2026-09-06 01:06:25 | 47.62731 | 17.80242 | 131° | 13km/h | 27355m | 5.0m/s | -48.7°C | 2.9% | 0hPa | 2.4V | 00:00:00 | 00:00:00 | 00:00:00 | |
| OE5MMP-10 | 2026-09-06 01:06:23 | 47.62735 | 17.80234 | 132° | 16km/h | 27343m | 6.0m/s | -48.7°C | 2.9% | 0hPa | 2.4V | 00:00:00 | 01:50:48 | 00:00:00 | |
| OE3MUC-15 | 2026-09-06 01:06:21 | 47.62741 | 17.80227 | 157° | 15km/h | 27332m | 5.0m/s | -48.7°C | 2.8% | 0hPa | 2.4V | 00:00:00 | 00:00:00 | 00:00:00 | |
| SP9KGR-15 | 2026-09-06 01:06:18 | 47.62749 | 17.80225 | 175° | 13km/h | 27321m | 7.0m/s | 0°C | 0% | 0hPa | 2.4V | 00:00:00 | 00:00:00 | 00:00:00 | |
| OE3MUC-15 | 2026-09-06 01:06:17 | 47.62755 | 17.80224 | 172° | 20km/h | 27309m | 4.9m/s | -48.7°C | 2.8% | 0hPa | 2.4V | 00:00:00 | 00:00:00 | 00:00:00 | |
| OE5MMP-10 | 2026-09-06 01:06:13 | 47.62775 | 17.80212 | 152° | 16km/h | 27285m | 4.5m/s | -48.9°C | 2.9% | 0hPa | 2.4V | 00:00:00 | 01:50:38 | 00:00:00 | |
| OE5DXL-15 | 2026-09-06 01:06:12 | 47.62780 | 17.80208 | 149° | 15km/h | 27279m | 7.3m/s | -48.9°C | 2.9% | 0hPa | 2.4V | 00:00:00 | 00:00:00 | 00:00:00 | |
| OE3MUC-15 | 2026-09-06 01:06:09 | 47.62792 | 17.80197 | 152° | 16km/h | 27259m | 6.4m/s | -49.0°C | 2.9% | 0hPa | 2.4V | 00:00:00 | 00:00:00 | 00:00:00 | |
| PG1ADW-2 | 2026-09-06 01:06:05 | 47.62806 | 17.80186 | 144° | 13km/h | 27235m | 7.6m/s | -49.1°C | 3.0% | 0hPa | 2.4V | 00:00:00 | 01:50:30 | 00:00:00 | |
| OE3JTB-15 | 2026-09-06 01:06:04 | 47.62808 | 17.80184 | 133° | 13km/h | 27228m | 5.8m/s | -49.1°C | 3.0% | 0hPa | 2.4V | 00:00:00 | 00:00:00 | 00:00:00 | |
| OE5MMP-10 | 2026-09-06 01:06:03 | 47.62810 | 17.80181 | 129° | 16km/h | 27223m | 4.4m/s | -49.1°C | 3.0% | 0hPa | 2.4V | 00:00:00 | 01:50:28 | 08:30:00 | |
| SP9KGR-15 | 2026-09-06 01:06:02 | 47.62809 | 17.80181 | 130° | 9km/h | 27223m | 4.5m/s | 0°C | 0% | 0hPa | 2.4V | 00:00:00 | 00:00:00 | 00:00:00 | |
| OE3OSB-13 | 2026-09-06 01:06:00 | 47.62818 | 17.80170 | 143° | 22km/h | 27205m | 5.7m/s | -49.1°C | 0.5% | -1.0hPa | 2.4V | 00:00:00 | 00:00:00 | 00:00:00 | |
| PETON7-10 | 2026-09-06 01:05:58 | 47.62827 | 17.80159 | 139° | 11km/h | 27194m | 6.5m/s | -49.1°C | 2.9% | 0hPa | 2.4V | 00:00:00 | 01:50:23 | 00:00:00 | |
| OE3MUC-15 | 2026-09-06 01:05:57 | 47.62831 | 17.80154 | 132° | 15km/h | 27187m | 6.5m/s | -49.1°C | 3.0% | 0hPa | 2.4V | 00:00:00 | 00:00:00 | 08:30:00 | |
| OE3MUC-15 | 2026-09-06 01:05:53 | 47.62840 | 17.80140 | 144° | 9km/h | 27162m | 5.9m/s | -49.1°C | 3.0% | 0hPa | 2.5V | 00:00:00 | 00:00:00 | 00:00:00 | |
| OE3MUC-15 | 2026-09-06 01:05:49 | 47.62845 | 17.80131 | 75° | 7km/h | 27138m | 4.7m/s | -49.2°C | 3.0% | 0hPa | 2.5V | 00:00:00 | 00:00:00 | 00:00:00 | |
| SP9KGR-15 | 2026-09-06 01:05:46 | 47.62847 | 17.80128 | 144° | 7km/h | 27127m | 7.3m/s | 0°C | 0% | 0hPa | 2.5V | 00:00:00 | 00:00:00 | 00:00:00 | |
| OE3MUC-15 | 2026-09-06 01:05:45 | 47.62851 | 17.80123 | 137° | 13km/h | 27114m | 5.3m/s | -49.1°C | 2.9% | 0hPa | 2.5V | 00:00:00 | 01:50:10 | 00:00:00 | |
| OE5MMP-10 | 2026-09-06 01:05:43 | 47.62855 | 17.80116 | 113° | 11km/h | 27101m | 5.8m/s | -49.1°C | 2.9% | 0hPa | 2.5V | 00:00:00 | 01:50:08 | 00:00:00 | |
| OE5DXL-15 | 2026-09-06 01:05:42 | 47.62857 | 17.80111 | 125° | 11km/h | 27096m | 4.8m/s | -49.1°C | 2.9% | 0hPa | 2.5V | 00:00:00 | 00:00:00 | 00:00:00 | |
| HA6NAB-11 | 2026-09-06 01:05:37 | 47.62863 | 17.80106 | 315° | 4km/h | 27071m | 8.0m/s | -49.4°C | 0.6% | 0hPa | 2.5V | 00:00:00 | 00:00:00 | 00:00:00 | |
| OE5DRO-10 | 2026-09-06 01:05:34 | 47.62856 | 17.80117 | 280° | 9km/h | 27046m | 5.9m/s | -49.5°C | 3.0% | 0hPa | 2.5V | 00:00:00 | 00:00:00 | 00:00:00 | |
| OE5MMP-10 | 2026-09-06 01:05:33 | 47.62856 | 17.80120 | 251° | 11km/h | 27040m | 4.8m/s | -49.5°C | 3.1% | 0hPa | 2.5V | 00:00:00 | 01:49:58 | 00:00:00 | |
| HA6NAB-11 | 2026-09-06 01:05:32 | 47.62856 | 17.80120 | 252° | 7km/h | 27040m | 4.8m/s | -49.6°C | 0.6% | 0hPa | 2.5V | 00:00:00 | 00:00:00 | 00:00:00 | |
| SP9KGR-15 | 2026-09-06 01:05:30 | 47.62858 | 17.80123 | 151° | 5km/h | 27028m | 6.7m/s | 0°C | 0% | 0hPa | 2.5V | 00:00:00 | 00:00:00 | 00:00:00 | |
| OE3OSB-13 | 2026-09-06 01:05:29 | 47.62861 | 17.80118 | 128° | 9km/h | 27015m | 5.4m/s | -49.5°C | 0.5% | -1.0hPa | 2.5V | 00:00:00 | 00:00:00 | 00:00:00 | |
| PETON7-10 | 2026-09-06 01:05:28 | 47.62864 | 17.80115 | 145° | 11km/h | 27010m | 5.5m/s | -49.5°C | 3.0% | 0hPa | 2.5V | 00:00:00 | 00:00:00 | 00:00:00 | |
| HA6NAB-11 | 2026-09-06 01:05:27 | 47.62864 | 17.80115 | 146° | 15km/h | 27010m | 5.5m/s | -49.5°C | 0.6% | 0hPa | 2.5V | 00:00:00 | 00:00:00 | 00:00:00 | |
| PG1ADW-2 | 2026-09-06 01:05:25 | 47.62875 | 17.80109 | 171° | 13km/h | 26992m | 4.3m/s | -49.4°C | 3.0% | 0hPa | 2.5V | 00:00:00 | 00:00:00 | 08:30:00 | |
| OE5MMP-10 | 2026-09-06 01:05:23 | 47.62880 | 17.80107 | 174° | 9km/h | 26980m | 6.2m/s | -49.4°C | 3.0% | 0hPa | 2.4V | 00:00:00 | 01:49:48 | 00:00:00 | |
| HA6NAB-11 | 2026-09-06 01:05:22 | 47.62880 | 17.80107 | 175° | 5km/h | 26980m | 6.3m/s | -49.4°C | 0.6% | 0hPa | 2.4V | 00:00:00 | 00:00:00 | 00:00:00 | |
| OE3MUC-15 | 2026-09-06 01:05:21 | 47.62882 | 17.80109 | 238° | 9km/h | 26968m | 5.9m/s | -49.3°C | 3.0% | 0hPa | 2.4V | 00:00:00 | 00:00:00 | 08:30:00 | |
| OE3MUC-15 | 2026-09-06 01:05:17 | 47.62889 | 17.80115 | 169° | 13km/h | 26946m | 6.7m/s | -49.2°C | 3.0% | 0hPa | 2.5V | 00:00:00 | 00:00:00 | 00:00:00 | |
| HA6NAB-11 | 2026-09-06 01:05:16 | 47.62889 | 17.80115 | 169° | 9km/h | 26946m | 6.7m/s | -49.3°C | 0.6% | 0hPa | 2.5V | 00:00:00 | 00:00:00 | 00:00:00 | |
| OE5DRO-10 | 2026-09-06 01:05:15 | 47.62894 | 17.80111 | 136° | 20km/h | 26933m | 5.7m/s | -49.2°C | 3.0% | 0hPa | 2.5V | 00:00:00 | 00:00:00 | 00:00:00 | |
| GYPAP8-17 | 2026-09-06 01:05:14 | 47.62894 | 17.80111 | 137° | 15km/h | 26933m | 5.8m/s | -49.2°C | 0.6% | 0hPa | 2.5V | 00:00:00 | 00:00:00 | 00:00:00 | |
| PETON7-10 | 2026-09-06 01:05:13 | 47.62902 | 17.80104 | 160° | 18km/h | 26921m | 7.1m/s | -49.1°C | 2.9% | 0hPa | 2.5V | 00:00:00 | 01:49:38 | 00:00:00 | |
| OE5DXL-15 | 2026-09-06 01:05:12 | 47.62907 | 17.80102 | 169° | 22km/h | 26914m | 5.4m/s | -49.0°C | 2.9% | 0hPa | 2.5V | 00:00:00 | 00:00:00 | 00:00:00 | |
| HA6NAB-11 | 2026-09-06 01:05:10 | 47.62913 | 17.80100 | 175° | 22km/h | 26910m | 4.1m/s | -49.1°C | 0.6% | 0hPa | 2.4V | 00:00:00 | 00:00:00 | 00:00:00 | |
| OE3MUC-15 | 2026-09-06 01:05:09 | 47.62922 | 17.80098 | 169° | 15km/h | 26898m | 6.6m/s | -49.0°C | 2.9% | 0hPa | 2.4V | 00:00:00 | 00:00:00 | 00:00:00 | |
| OE3MUC-15 | 2026-09-06 01:05:05 | 47.62936 | 17.80100 | 203° | 15km/h | 26873m | 5.6m/s | -49.0°C | 2.9% | 0hPa | 2.4V | 00:00:00 | 00:00:00 | 00:00:00 | |
| OE3MUC-15 | 2026-09-06 01:05:01 | 47.62951 | 17.80097 | 153° | 26km/h | 26849m | 5.3m/s | -49.2°C | 2.9% | 0hPa | 2.4V | 00:00:00 | 00:00:00 | 00:00:00 | |
| SP9KGR-15 | 2026-09-06 01:04:59 | 47.62956 | 17.80093 | 159° | 26km/h | 26843m | 7.3m/s | 0°C | 0% | 0hPa | 2.4V | 00:00:00 | 00:00:00 | 00:00:00 | |
| PETON7-10 | 2026-09-06 01:04:58 | 47.62969 | 17.80087 | 166° | 22km/h | 26830m | 5.3m/s | -49.3°C | 3.0% | 0hPa | 2.4V | 00:00:00 | 00:00:00 | 08:30:00 | |
| OE3MUC-15 | 2026-09-06 01:04:57 | 47.62976 | 17.80084 | 159° | 22km/h | 26824m | 6.5m/s | -49.3°C | 3.0% | 0hPa | 2.4V | 00:00:00 | 00:00:00 | 00:00:00 | |
| OE5DRO-10 | 2026-09-06 01:04:56 | 47.62982 | 17.80080 | 154° | 24km/h | 26817m | 6.7m/s | -49.3°C | 3.0% | 0hPa | 2.5V | 00:00:00 | 00:00:00 | 00:00:00 | |
| OE3MUC-15 | 2026-09-06 01:04:53 | 47.62994 | 17.80073 | 182° | 15km/h | 26799m | 7.3m/s | -49.3°C | 3.0% | 0hPa | 2.5V | 00:00:00 | 00:00:00 | 00:00:00 | |
| OE3MUC-15 | 2026-09-06 01:04:49 | 47.63008 | 17.80074 | 146° | 24km/h | 26776m | 6.2m/s | -49.3°C | 3.0% | 0hPa | 2.5V | 00:00:00 | 00:00:00 | 00:00:00 | |
| OE3MUC-15 | 2026-09-06 01:04:45 | 47.63029 | 17.80049 | 152° | 35km/h | 26753m | 6.0m/s | -49.3°C | 3.0% | 0hPa | 2.5V | 00:00:00 | 00:00:00 | 08:30:00 | |
| OE5MMP-10 | 2026-09-06 01:04:43 | 47.63046 | 17.80038 | 158° | 24km/h | 26742m | 4.5m/s | -49.3°C | 3.0% | 0hPa | 2.5V | 00:00:00 | 01:49:08 | 00:00:00 | |
| OE5DXL-15 | 2026-09-06 01:04:42 | 47.63053 | 17.80032 | 153° | 24km/h | 26736m | 6.2m/s | -49.3°C | 3.0% | 0hPa | 2.5V | 00:00:00 | 00:00:00 | 00:00:00 | |
| OE3MUC-15 | 2026-09-06 01:04:41 | 47.63060 | 17.80027 | 148° | 22km/h | 26730m | 6.3m/s | -49.3°C | 2.9% | 0hPa | 2.5V | 00:00:00 | 00:00:00 | 00:00:00 | |
| OE3MUC-15 | 2026-09-06 01:04:37 | 47.63079 | 17.80010 | 161° | 18km/h | 26705m | 5.4m/s | -49.2°C | 2.9% | 0hPa | 2.5V | 00:00:00 | 00:00:00 | 00:00:00 | |
| OE5MMP-10 | 2026-09-06 01:04:33 | 47.63095 | 17.79995 | 142° | 27km/h | 26682m | 4.8m/s | -49.2°C | 2.9% | 0hPa | 2.5V | 00:00:00 | 01:48:58 | 08:30:00 | |
| OE3MUC-15 | 2026-09-06 01:04:29 | 47.63122 | 17.79975 | 155° | 29km/h | 26659m | 4.1m/s | -49.2°C | 2.9% | 0hPa | 2.5V | 00:00:00 | 00:00:00 | 00:00:00 | |
| PETON7-10 | 2026-09-06 01:04:28 | 47.63129 | 17.79969 | 148° | 22km/h | 26653m | 6.6m/s | -49.2°C | 2.9% | 0hPa | 2.5V | 00:00:00 | 01:48:53 | 00:00:00 | |
| OE3OSB-13 | 2026-09-06 01:04:27 | 47.63139 | 17.79956 | 128° | 22km/h | 26640m | 5.6m/s | -49.3°C | 0.5% | -1.0hPa | 2.5V | 00:00:00 | 00:00:00 | 00:00:00 | |
| OE3MUC-15 | 2026-09-06 01:04:25 | 47.63142 | 17.79950 | 130° | 16km/h | 26635m | 5.5m/s | -49.2°C | 2.9% | 0hPa | 2.5V | 00:00:00 | 00:00:00 | 00:00:00 | |
| OE5MMP-10 | 2026-09-06 01:04:23 | 47.63149 | 17.79941 | 148° | 18km/h | 26622m | 5.6m/s | -49.4°C | 2.9% | 0hPa | 2.5V | 00:00:00 | 01:48:48 | 00:00:00 | |
| OE3MUC-15 | 2026-09-06 01:04:21 | 47.63155 | 17.79936 | 141° | 15km/h | 26611m | 5.9m/s | -49.5°C | 2.9% | 0hPa | 2.5V | 00:00:00 | 00:00:00 | 00:00:00 | |
| OE5DRO-10 | 2026-09-06 01:04:18 | 47.63162 | 17.79924 | 135° | 26km/h | 26594m | 5.0m/s | -49.7°C | 3.0% | 0hPa | 2.5V | 00:00:00 | 00:00:00 | 00:00:00 | |
| OE3MUC-15 | 2026-09-06 01:04:17 | 47.63166 | 17.79919 | 144° | 27km/h | 26588m | 6.5m/s | -49.7°C | 3.0% | 0hPa | 2.5V | 00:00:00 | 00:00:00 | 00:00:00 | |
| OE5MMP-10 | 2026-09-06 01:04:13 | 47.63191 | 17.79897 | 140° | 22km/h | 26568m | 5.6m/s | -49.9°C | 3.0% | 0hPa | 2.5V | 00:00:00 | 01:48:38 | 00:00:00 | |
| OE5DXL-15 | 2026-09-06 01:04:12 | 47.63195 | 17.79890 | 126° | 27km/h | 26562m | 6.5m/s | -50.0°C | 3.1% | 0hPa | 2.5V | 00:00:00 | 00:00:00 | 00:00:00 | |
| OE3MUC-15 | 2026-09-06 01:04:09 | 47.63200 | 17.79870 | 105° | 18km/h | 26544m | 6.2m/s | -50.2°C | 3.1% | 0hPa | 2.5V | 00:00:00 | 00:00:00 | 08:30:00 | |
| OE3MUC-15 | 2026-09-06 01:04:05 | 47.63209 | 17.79842 | 122° | 35km/h | 26521m | 5.8m/s | -50.2°C | 3.1% | 0hPa | 2.4V | 00:00:00 | 00:00:00 | 00:00:00 | |
| OE5MMP-10 | 2026-09-06 01:04:03 | 47.63219 | 17.79823 | 137° | 26km/h | 26510m | 6.3m/s | -50.1°C | 3.1% | 0hPa | 2.4V | 00:00:00 | 01:48:28 | 00:00:00 | |
| OE3OSB-13 | 2026-09-06 01:03:56 | 47.63253 | 17.79766 | 128° | 16km/h | 26464m | 5.2m/s | -50.1°C | 0.6% | -1.0hPa | 2.4V | 00:00:00 | 00:00:00 | 00:00:00 | |
| S52SK | 2026-09-06 01:03:55 | 47.63251 | 17.79771 | 114° | 16km/h | 26470m | 6.0m/s | -50.1°C | 0.6% | 0hPa | 2.4V | 00:00:00 | 00:00:00 | 00:00:00 | |
| OE3MUC-15 | 2026-09-06 01:03:53 | 47.63260 | 17.79755 | 139° | 31km/h | 26454m | 5.2m/s | -50.0°C | 3.1% | 0hPa | 2.4V | 00:00:00 | 00:00:00 | 00:00:00 | |
| OE5MMP-10 | 2026-09-06 01:03:51 | 47.63270 | 17.79739 | 127° | 31km/h | 26442m | 5.7m/s | -50.0°C | 3.1% | 0hPa | 2.4V | 00:00:00 | 01:48:16 | 00:00:00 | |
| S52SK | 2026-09-06 01:03:50 | 47.63271 | 17.79739 | 127° | 33km/h | 26442m | 5.8m/s | -50.1°C | 0.6% | 0hPa | 2.4V | 00:00:00 | 00:00:00 | 00:00:00 | |
| OE3MUC-15 | 2026-09-06 01:03:49 | 47.63280 | 17.79718 | 126° | 35km/h | 26432m | 4.4m/s | -50.0°C | 3.1% | 0hPa | 2.4V | 00:00:00 | 00:00:00 | 00:00:00 | |
| DO3MHA-11 | 2026-09-06 01:03:46 | 47.63297 | 17.79689 | 134° | 29km/h | 26415m | 5.0m/s | -50.0°C | 3.1% | 0hPa | 2.4V | 00:00:00 | 01:48:11 | 00:00:00 | |
| OE3MUC-15 | 2026-09-06 01:03:45 | 47.63302 | 17.79680 | 124° | 29km/h | 26409m | 5.8m/s | -50.0°C | 3.1% | 0hPa | 2.4V | 00:00:00 | 00:00:00 | 00:00:00 | |
| PETON7-10 | 2026-09-06 01:03:43 | 47.63308 | 17.79660 | 103° | 26km/h | 26397m | 4.9m/s | -49.9°C | 3.1% | 0hPa | 2.5V | 00:00:00 | 01:48:08 | 00:00:00 | |
| OE5DXL-15 | 2026-09-06 01:03:42 | 47.63310 | 17.79650 | 101° | 24km/h | 26392m | 4.1m/s | -49.9°C | 3.1% | 0hPa | 2.5V | 00:00:00 | 00:00:00 | 08:30:00 | |
| OE5MMP-10 | 2026-09-06 01:03:40 | 47.63314 | 17.79630 | 117° | 26km/h | 26381m | 6.1m/s | -49.8°C | 3.1% | 0hPa | 2.5V | 00:00:00 | 01:48:05 | 00:00:00 | |
| HA6NAB-11 | 2026-09-06 01:03:37 | 47.63322 | 17.79614 | 132° | 29km/h | 26371m | 4.2m/s | -49.8°C | 0.6% | 0hPa | 2.5V | 00:00:00 | 00:00:00 | 00:00:00 | |
| DO3MHA-11 | 2026-09-06 01:03:36 | 47.63330 | 17.79596 | 123° | 26km/h | 26359m | 5.8m/s | -49.7°C | 3.1% | 0hPa | 2.5V | 00:00:00 | 01:48:01 | 00:00:00 | |
| OE3JTB-15 | 2026-09-06 01:03:31 | 47.63350 | 17.79562 | 142° | 24km/h | 26331m | 4.7m/s | -49.8°C | 3.1% | 0hPa | 2.5V | 00:00:00 | 00:00:00 | 08:30:00 | |
| OE5MMP-10 | 2026-09-06 01:03:30 | 47.63354 | 17.79557 | 127° | 27km/h | 26325m | 6.8m/s | -49.8°C | 3.0% | 0hPa | 2.5V | 00:00:00 | 01:47:55 | 00:00:00 | |
| PETON7-10 | 2026-09-06 01:03:28 | 47.63360 | 17.79541 | 111° | 24km/h | 26313m | 4.9m/s | -49.9°C | 3.1% | 0hPa | 2.4V | 00:00:00 | 00:00:00 | 00:00:00 | |
| DO3MHA-11 | 2026-09-06 01:03:26 | 47.63366 | 17.79522 | 123° | 24km/h | 26301m | 6.5m/s | -49.9°C | 3.1% | 0hPa | 2.4V | 00:00:00 | 01:47:51 | 00:00:00 | |
| OE3OSB-13 | 2026-09-06 01:03:25 | 47.63374 | 17.79505 | 125° | 27km/h | 26290m | 4.4m/s | -50.1°C | 0.6% | -1.0hPa | 2.4V | 00:00:00 | 00:00:00 | 00:00:00 | |
| OE3MUC-15 | 2026-09-06 01:03:21 | 47.63384 | 17.79479 | 113° | 18km/h | 26273m | 4.6m/s | -50.0°C | 3.1% | 0hPa | 2.4V | 00:00:00 | 00:00:00 | 00:00:00 | |
| OE5MMP-10 | 2026-09-06 01:03:20 | 47.63386 | 17.79472 | 121° | 20km/h | 26267m | 6.8m/s | -50.0°C | 3.1% | 0hPa | 2.4V | 00:00:00 | 01:47:45 | 00:00:00 | |
| OE3MUC-15 | 2026-09-06 01:03:17 | 47.63394 | 17.79457 | 116° | 20km/h | 26249m | 5.4m/s | -49.9°C | 3.1% | 0hPa | 2.4V | 00:00:00 | 00:00:00 | 00:00:00 | |
| DO3MHA-11 | 2026-09-06 01:03:16 | 47.63395 | 17.79451 | 105° | 22km/h | 26243m | 7.0m/s | -49.9°C | 3.1% | 0hPa | 2.4V | 00:00:00 | 01:47:41 | 00:00:00 | |
| PETON7-10 | 2026-09-06 01:03:13 | 47.63399 | 17.79425 | 108° | 20km/h | 26226m | 6.6m/s | -49.9°C | 3.1% | 0hPa | 2.4V | 00:00:00 | 00:00:00 | 00:00:00 | |
| OE5DXL-15 | 2026-09-06 01:03:12 | 47.63401 | 17.79417 | 114° | 18km/h | 26219m | 5.5m/s | -49.9°C | 3.0% | 0hPa | 2.4V | 00:00:00 | 00:00:00 | 00:00:00 | |
| OE5MMP-10 | 2026-09-06 01:03:10 | 47.63406 | 17.79401 | 115° | 18km/h | 26209m | 5.9m/s | -49.9°C | 3.1% | 0hPa | 2.4V | 00:00:00 | 01:47:35 | 00:00:00 | |
| OE3MUC-15 | 2026-09-06 01:03:09 | 47.63408 | 17.79393 | 105° | 18km/h | 26202m | 6.1m/s | -49.9°C | 3.1% | 0hPa | 2.4V | 00:00:00 | 00:00:00 | 00:00:00 | |
| DO3MHA-11 | 2026-09-06 01:03:05 | 47.63413 | 17.79368 | 126° | 13km/h | 26180m | 6.2m/s | -50.0°C | 3.1% | 0hPa | 2.5V | 00:00:00 | 01:47:30 | 08:30:00 | |
| OE3OSB-13 | 2026-09-06 01:02:54 | 47.63405 | 17.79286 | 56° | 16km/h | 26112m | 4.7m/s | -49.8°C | 0.5% | -1.0hPa | 2.4V | 00:00:00 | 00:00:00 | 00:00:00 | |
| OE3MUC-15 | 2026-09-06 01:02:53 | 47.63405 | 17.79286 | 57° | 13km/h | 26112m | 4.7m/s | -49.8°C | 3.0% | 0hPa | 2.4V | 00:00:00 | 00:00:00 | 00:00:00 | |
| OE3MUC-15 | 2026-09-06 01:02:49 | 47.63402 | 17.79268 | 89° | 20km/h | 26089m | 4.9m/s | -49.9°C | 3.0% | 0hPa | 2.4V | 00:00:00 | 01:47:14 | 00:00:00 | |
| OE5MMP-10 | 2026-09-06 01:02:48 | 47.63402 | 17.79262 | 75° | 20km/h | 26083m | 7.1m/s | -49.9°C | 3.0% | 0hPa | 2.4V | 00:00:00 | 01:47:13 | 00:00:00 | |
| OE3JTB-15 | 2026-09-06 01:02:47 | 47.63400 | 17.79255 | 66° | 24km/h | 26077m | 5.4m/s | -49.9°C | 3.0% | 0hPa | 2.4V | 00:00:00 | 00:00:00 | 00:00:00 | |
| OE3MUC-15 | 2026-09-06 01:02:45 | 47.63395 | 17.79240 | 61° | 18km/h | 26067m | 5.6m/s | -50.0°C | 3.0% | 0hPa | 2.4V | 00:00:00 | 00:00:00 | 00:00:00 | |
| PETON7-10 | 2026-09-06 01:02:43 | 47.63390 | 17.79226 | 68° | 16km/h | 26055m | 5.6m/s | -50.0°C | 2.9% | 0hPa | 2.5V | 00:00:00 | 00:00:00 | 08:30:00 | |
| OE5DXL-15 | 2026-09-06 01:02:42 | 47.63389 | 17.79221 | 68° | 16km/h | 26050m | 4.7m/s | -50.0°C | 3.0% | 0hPa | 2.5V | 00:00:00 | 00:00:00 | 00:00:00 | |
| OE3MUC-15 | 2026-09-06 01:02:41 | 47.63387 | 17.79216 | 49° | 18km/h | 26045m | 5.2m/s | -50.0°C | 2.9% | 0hPa | 2.5V | 00:00:00 | 00:00:00 | 00:00:00 | |
| OE5MMP-10 | 2026-09-06 01:02:38 | 47.63375 | 17.79204 | 27° | 15km/h | 26027m | 4.9m/s | -50.2°C | 3.0% | 0hPa | 2.5V | 00:00:00 | 01:47:03 | 00:00:00 | |
| OE3MUC-15 | 2026-09-06 01:02:37 | 47.63371 | 17.79201 | 34° | 15km/h | 26021m | 7.1m/s | -50.3°C | 3.0% | 0hPa | 2.5V | 00:00:00 | 00:00:00 | 00:00:00 | |
| OE3MUC-15 | 2026-09-06 01:02:33 | 47.63362 | 17.79184 | 51° | 16km/h | 25997m | 5.9m/s | -50.8°C | 3.1% | 0hPa | 2.5V | 00:00:00 | 00:00:00 | 00:00:00 | |
| OE3MUC-15 | 2026-09-06 01:02:29 | 47.63354 | 17.79164 | 86° | 13km/h | 25975m | 6.3m/s | -50.9°C | 3.1% | 0hPa | 2.4V | 00:00:00 | 00:00:00 | 00:00:00 | |
| OE5MMP-10 | 2026-09-06 01:02:28 | 47.63354 | 17.79160 | 94° | 15km/h | 25969m | 5.2m/s | -50.9°C | 3.1% | 0hPa | 2.4V | 00:00:00 | 01:46:53 | 00:00:00 | |
| OE3MUC-15 | 2026-09-06 01:02:25 | 47.63350 | 17.79147 | 42° | 18km/h | 25950m | 5.7m/s | -51.0°C | 3.1% | 0hPa | 2.4V | 00:00:00 | 00:00:00 | 00:00:00 | |
| OE5DRO-10 | 2026-09-06 01:02:24 | 47.63346 | 17.79142 | 44° | 13km/h | 25945m | 4.8m/s | -51.1°C | 3.1% | 0hPa | 2.4V | 00:00:00 | 00:00:00 | 00:00:00 | |
| OE3OSB-13 | 2026-09-06 01:02:23 | 47.63340 | 17.79132 | 55° | 15km/h | 25933m | 5.4m/s | -51.3°C | 0.6% | -1.0hPa | 2.4V | 00:00:00 | 00:00:00 | 00:00:00 | |
| OE3MUC-15 | 2026-09-06 01:02:21 | 47.63338 | 17.79128 | 61° | 15km/h | 25928m | 3.5m/s | -51.4°C | 3.2% | 0hPa | 2.4V | 00:00:00 | 00:00:00 | 08:30:00 | |
| HA6NAB-11 | 2026-09-06 01:02:19 | 47.63336 | 17.79123 | 51° | 15km/h | 25923m | 6.2m/s | -51.5°C | 0.7% | 0hPa | 2.4V | 00:00:00 | 00:00:00 | 00:00:00 | |
| OE5MMP-10 | 2026-09-06 01:02:18 | 47.63332 | 17.79114 | 68° | 13km/h | 25912m | 4.5m/s | -51.5°C | 3.2% | 0hPa | 2.4V | 00:00:00 | 01:46:43 | 00:00:00 | |
| OE3MUC-15 | 2026-09-06 01:02:17 | 47.63332 | 17.79109 | 93° | 18km/h | 25906m | 6.1m/s | -51.6°C | 3.3% | 0hPa | 2.4V | 00:00:00 | 00:00:00 | 00:00:00 | |
| HA6NAB-11 | 2026-09-06 01:02:14 | 47.63334 | 17.79096 | 120° | 20km/h | 25894m | 5.1m/s | -51.8°C | 0.7% | 0hPa | 2.4V | 00:00:00 | 00:00:00 | 00:00:00 | |
| OE3MUC-15 | 2026-09-06 01:02:13 | 47.63339 | 17.79085 | 118° | 7km/h | 25883m | 6.6m/s | -51.8°C | 3.3% | 0hPa | 2.4V | 00:00:00 | 00:00:00 | 00:00:00 | |
| OE5DXL-15 | 2026-09-06 01:02:12 | 47.63340 | 17.79081 | 104° | 13km/h | 25877m | 5.3m/s | -51.8°C | 3.3% | 0hPa | 2.4V | 00:00:00 | 00:00:00 | 00:00:00 | |
| OE3MUC-15 | 2026-09-06 01:02:09 | 47.63339 | 17.79076 | 80° | 7km/h | 25860m | 6.0m/s | -52.0°C | 3.4% | 0hPa | 2.5V | 00:00:00 | 00:00:00 | 00:00:00 | |
| OE5MMP-10 | 2026-09-06 01:02:08 | 47.63339 | 17.79074 | 79° | 13km/h | 25855m | 5.7m/s | -52.0°C | 3.4% | 0hPa | 2.4V | 00:00:00 | 01:46:33 | 00:00:00 | |
| PG1ADW-2 | 2026-09-06 01:02:05 | 47.63335 | 17.79065 | 43° | 15km/h | 25837m | 5.6m/s | -52.0°C | 3.4% | 0hPa | 2.4V | 00:00:00 | 01:46:30 | 00:00:00 | |
| HA6NAB-11 | 2026-09-06 01:02:04 | 47.63335 | 17.79065 | 43° | 9km/h | 25837m | 5.7m/s | -52.0°C | 0.7% | 0hPa | 2.4V | 00:00:00 | 00:00:00 | 00:00:00 | |
| OE3OSB-13 | 2026-09-06 01:01:52 | 47.63365 | 17.79035 | 96° | 5km/h | 25758m | 4.2m/s | -51.9°C | 0.6% | -1.0hPa | 2.4V | 00:00:00 | 00:00:00 | 00:00:00 | |
| OE3MUC-15 | 2026-09-06 01:01:49 | 47.63367 | 17.79027 | 127° | 22km/h | 25748m | 6.9m/s | -51.8°C | 3.4% | 0hPa | 2.4V | 00:00:00 | 00:00:00 | 00:00:00 | |
| OE5MMP-10 | 2026-09-06 01:01:48 | 47.63370 | 17.79022 | 140° | 22km/h | 25741m | 6.2m/s | -51.8°C | 3.3% | 0hPa | 2.4V | 00:00:00 | 01:46:13 | 00:00:00 | |
| HA6NAB-11 | 2026-09-06 01:01:47 | 47.63370 | 17.79022 | 140° | 22km/h | 25741m | 6.2m/s | -51.8°C | 0.7% | 0hPa | 2.4V | 00:00:00 | 00:00:00 | 00:00:00 | |
| OE5DRO-10 | 2026-09-06 01:01:46 | 47.63380 | 17.79013 | 160° | 18km/h | 25729m | 6.9m/s | -51.8°C | 3.3% | 0hPa | 2.4V | 00:00:00 | 00:00:00 | 00:00:00 | |
| OE3MUC-15 | 2026-09-06 01:01:45 | 47.63386 | 17.79011 | 167° | 22km/h | 25723m | 5.1m/s | -51.9°C | 3.4% | 0hPa | 2.4V | 00:00:00 | 00:00:00 | 08:30:00 | |
| PETON7-10 | 2026-09-06 01:01:43 | 47.63397 | 17.79006 | 154° | 16km/h | 25714m | 4.8m/s | -52.0°C | 3.4% | 0hPa | 2.4V | 00:00:00 | 00:00:00 | 00:00:00 | |
| OE5DXL-15 | 2026-09-06 01:01:42 | 47.63401 | 17.79001 | 137° | 13km/h | 25708m | 6.2m/s | -52.0°C | 3.4% | 0hPa | 2.4V | 00:00:00 | 00:00:00 | 00:00:00 | |
| OE5MMP-10 | 2026-09-06 01:01:38 | 47.63409 | 17.78975 | 95° | 15km/h | 25684m | 6.4m/s | -51.9°C | 3.4% | 0hPa | 2.4V | 00:00:00 | 01:46:03 | 00:00:00 | |
| DO3MHA-11 | 2026-09-06 01:01:32 | 47.63416 | 17.78943 | 130° | 13km/h | 25650m | 6.8m/s | -51.8°C | 3.4% | 0hPa | 2.4V | 00:00:00 | 01:45:57 | 00:00:00 | |
| OE5MMP-10 | 2026-09-06 01:01:28 | 47.63427 | 17.78931 | 143° | 11km/h | 25626m | 6.5m/s | -51.7°C | 3.3% | 0hPa | 2.5V | 00:00:00 | 01:45:53 | 08:30:00 | |
| OE5DRO-10 | 2026-09-06 01:01:26 | 47.63432 | 17.78922 | 122° | 7km/h | 25615m | 5.3m/s | -51.6°C | 3.3% | 0hPa | 2.5V | 00:00:00 | 00:00:00 | 00:00:00 | |
| PG1ADW-2 | 2026-09-06 01:01:25 | 47.63434 | 17.78918 | 113° | 7km/h | 25608m | 7.3m/s | -51.6°C | 3.3% | 0hPa | 2.5V | 00:00:00 | 00:00:00 | 00:00:00 | |
| DO3MHA-11 | 2026-09-06 01:01:22 | 47.63434 | 17.78908 | 86° | 11km/h | 25591m | 6.7m/s | -51.5°C | 3.3% | 0hPa | 2.5V | 00:00:00 | 01:45:47 | 00:00:00 | |
| OE3OSB-13 | 2026-09-06 01:01:21 | 47.63434 | 17.78899 | 103° | 9km/h | 25579m | 4.4m/s | -51.5°C | 0.6% | -1.0hPa | 2.5V | 00:00:00 | 00:00:00 | 00:00:00 | |
| OE5MMP-10 | 2026-09-06 01:01:18 | 47.63435 | 17.78894 | 138° | 7km/h | 25567m | 5.8m/s | -51.5°C | 3.3% | 0hPa | 2.5V | 00:00:00 | 01:45:43 | 00:00:00 | |
| OE3MUC-15 | 2026-09-06 01:01:17 | 47.63436 | 17.78893 | 160° | 9km/h | 25562m | 4.9m/s | -51.5°C | 3.3% | 0hPa | 2.5V | 00:00:00 | 00:00:00 | 00:00:00 | |
| PETON7-10 | 2026-09-06 01:01:13 | 47.63444 | 17.78884 | 134° | 5km/h | 25540m | 5.0m/s | -51.7°C | 3.3% | 0hPa | 2.5V | 00:00:00 | 00:00:00 | 00:00:00 | |
| DO3MHA-11 | 2026-09-06 01:01:12 | 47.63445 | 17.78882 | 136° | 4km/h | 25534m | 6.4m/s | -51.7°C | 3.3% | 0hPa | 2.5V | 00:00:00 | 01:45:37 | 00:00:00 | |
| OE3MUC-15 | 2026-09-06 01:01:09 | 47.63447 | 17.78879 | 101° | 4km/h | 25517m | 6.6m/s | -51.6°C | 3.3% | 0hPa | 2.5V | 00:00:00 | 00:00:00 | 08:30:00 | |
| OE5MMP-10 | 2026-09-06 01:01:08 | 47.63447 | 17.78877 | 108° | 5km/h | 25510m | 5.9m/s | -51.6°C | 3.3% | 0hPa | 2.4V | 00:00:00 | 01:45:33 | 00:00:00 | |
| PG1ADW-2 | 2026-09-06 01:01:05 | 47.63447 | 17.78874 | 339° | 7km/h | 25493m | 6.2m/s | -51.6°C | 3.4% | 0hPa | 2.4V | 00:00:00 | 00:00:00 | 00:00:00 | |
| GYPAP8-17 | 2026-09-06 01:01:03 | 47.63445 | 17.78875 | 357° | 4km/h | 25487m | 4.1m/s | -51.6°C | 0.7% | 0hPa | 2.4V | 00:00:00 | 00:00:00 | 00:00:00 | |
| OE3OSB-13 | 2026-09-06 01:00:49 | 47.63443 | 17.78856 | 94° | 15km/h | 25401m | 5.9m/s | -51.6°C | 0.6% | -1.0hPa | 2.4V | 00:00:00 | 00:00:00 | 00:00:00 | |
| OE5MMP-10 | 2026-09-06 01:00:48 | 47.63443 | 17.78850 | 91° | 11km/h | 25395m | 5.4m/s | -51.6°C | 3.4% | 0hPa | 2.4V | 00:00:00 | 01:45:13 | 00:00:00 | |
| OE3MUC-15 | 2026-09-06 01:00:47 | 47.63443 | 17.78845 | 86° | 11km/h | 25389m | 7.0m/s | -51.5°C | 3.3% | 0hPa | 2.4V | 00:00:00 | 00:00:00 | 00:00:00 | |
| PG1ADW-2 | 2026-09-06 01:00:45 | 47.63442 | 17.78836 | 84° | 11km/h | 25378m | 3.6m/s | -51.5°C | 3.3% | 0hPa | 2.4V | 00:00:00 | 01:45:10 | 00:00:00 | |
| PETON7-10 | 2026-09-06 01:00:43 | 47.63442 | 17.78827 | 92° | 11km/h | 25367m | 6.2m/s | -51.4°C | 3.3% | 0hPa | 2.4V | 00:00:00 | 01:45:08 | 00:00:00 | |
| DO3MHA-11 | 2026-09-06 01:00:42 | 47.63442 | 17.78821 | 96° | 11km/h | 25361m | 4.8m/s | -51.4°C | 3.3% | 0hPa | 2.4V | 00:00:00 | 01:45:07 | 00:00:00 | |
| OE3MUC-15 | 2026-09-06 01:00:39 | 47.63444 | 17.78812 | 142° | 7km/h | 25344m | 5.5m/s | -51.3°C | 3.3% | 0hPa | 2.4V | 00:00:00 | 00:00:00 | 00:00:00 | |
| OE5MMP-10 | 2026-09-06 01:00:38 | 47.63445 | 17.78811 | 132° | 11km/h | 25339m | 4.2m/s | -51.3°C | 3.3% | 0hPa | 2.4V | 00:00:00 | 01:45:03 | 00:00:00 | |
| HA6NAB-11 | 2026-09-06 01:00:37 | 47.63445 | 17.78811 | 133° | 5km/h | 25339m | 4.2m/s | -51.4°C | 0.7% | 0hPa | 2.4V | 00:00:00 | 00:00:00 | 00:00:00 | |
| OE3MUC-15 | 2026-09-06 01:00:35 | 47.63447 | 17.78800 | 93° | 15km/h | 25322m | 5.2m/s | -51.3°C | 3.3% | 0hPa | 2.4V | 00:00:00 | 00:00:00 | 00:00:00 | |
| DO3MHA-11 | 2026-09-06 01:00:32 | 47.63447 | 17.78784 | 88° | 11km/h | 25306m | 5.7m/s | -51.3°C | 3.3% | 0hPa | 2.4V | 00:00:00 | 01:44:57 | 08:30:00 | |
| OE3MUC-15 | 2026-09-06 01:00:31 | 47.63447 | 17.78780 | 94° | 9km/h | 25301m | 3.9m/s | -51.3°C | 3.3% | 0hPa | 2.4V | 00:00:00 | 00:00:00 | 08:30:00 | |
| OE5MMP-10 | 2026-09-06 01:00:28 | 47.63448 | 17.78768 | 102° | 9km/h | 25284m | 4.8m/s | -51.2°C | 3.2% | 0hPa | 2.5V | 00:00:00 | 01:44:53 | 00:00:00 | |
| HA6NAB-11 | 2026-09-06 01:00:27 | 47.63448 | 17.78765 | 105° | 5km/h | 25279m | 6.0m/s | -51.2°C | 0.7% | 0hPa | 2.5V | 00:00:00 | 00:00:00 | 00:00:00 | |
| OE3MUC-15 | 2026-09-06 01:00:26 | 47.63448 | 17.78764 | 56° | 5km/h | 25272m | 6.2m/s | -51.2°C | 3.3% | 0hPa | 2.5V | 00:00:00 | 00:00:00 | 00:00:00 | |
| PG1ADW-2 | 2026-09-06 01:00:25 | 47.63448 | 17.78764 | 343° | 13km/h | 25267m | 4.7m/s | -51.2°C | 3.2% | 0hPa | 2.5V | 00:00:00 | 00:00:00 | 00:00:00 | |
| S52SK | 2026-09-06 01:00:24 | 47.63447 | 17.78764 | 344° | 4km/h | 25267m | 4.8m/s | -51.3°C | 0.7% | 0hPa | 2.4V | 00:00:00 | 00:00:00 | 00:00:00 | |
| OE3MUC-15 | 2026-09-06 01:00:22 | 47.63442 | 17.78759 | 41° | 15km/h | 25250m | 5.2m/s | -51.2°C | 3.2% | 0hPa | 2.4V | 00:00:00 | 00:00:00 | 00:00:00 | |
| HA6NAB-11 | 2026-09-06 01:00:21 | 47.63439 | 17.78756 | 43° | 16km/h | 25245m | 4.6m/s | -51.3°C | 0.7% | 0hPa | 2.4V | 00:00:00 | 00:00:00 | 00:00:00 | |
| S57NTA-12 | 2026-09-06 01:00:19 | 47.63436 | 17.78752 | 36° | 15km/h | 25240m | 6.6m/s | 0°C | 0% | 0hPa | 2.4V | 00:00:00 | 00:00:00 | 00:00:00 | |
| DO3MHA-11 | 2026-09-06 01:00:18 | 47.63429 | 17.78738 | 83° | 15km/h | 25217m | 6.2m/s | -51.2°C | 3.3% | 0hPa | 2.4V | 00:00:00 | 01:44:41 | 00:00:00 | |
| HA6NAB-11 | 2026-09-06 01:00:15 | 47.63429 | 17.78738 | 83° | 15km/h | 25217m | 6.2m/s | -51.3°C | 0.7% | 0hPa | 2.4V | 00:00:00 | 00:00:00 | 00:00:00 | |
| OE3MUC-15 | 2026-09-06 01:00:14 | 47.63428 | 17.78726 | 87° | 15km/h | 25206m | 4.3m/s | -51.3°C | 3.3% | 0hPa | 2.4V | 00:00:00 | 00:00:00 | 00:00:00 | |
| OE5DXL-15 | 2026-09-06 01:00:12 | 47.63427 | 17.78718 | 56° | 13km/h | 25195m | 6.0m/s | -51.4°C | 3.3% | 0hPa | 2.4V | 00:00:00 | 00:00:00 | 00:00:00 | |
| HA6NAB-11 | 2026-09-06 01:00:10 | 47.63423 | 17.78714 | 37° | 13km/h | 25184m | 6.0m/s | -51.5°C | 0.7% | 0hPa | 2.4V | 00:00:00 | 00:00:00 | 00:00:00 | |
| OE5MMP-10 | 2026-09-06 01:00:08 | 47.63417 | 17.78707 | 43° | 13km/h | 25173m | 4.3m/s | -51.4°C | 3.3% | 0hPa | 2.4V | 00:00:00 | 01:44:33 | 00:00:00 | |
| OE3MUC-15 | 2026-09-06 01:00:06 | 47.63411 | 17.78699 | 44° | 15km/h | 25161m | 5.9m/s | -51.4°C | 3.3% | 0hPa | 2.4V | 00:00:00 | 00:00:00 | 00:00:00 | |
| PG1ADW-2 | 2026-09-06 01:00:05 | 47.63409 | 17.78695 | 61° | 15km/h | 25155m | 4.4m/s | -51.4°C | 3.3% | 0hPa | 2.5V | 00:00:00 | 00:00:00 | 00:00:00 | |
| DO3MHA-11 | 2026-09-06 01:00:04 | 47.63408 | 17.78690 | 78° | 13km/h | 25149m | 6.9m/s | -51.4°C | 3.3% | 0hPa | 2.5V | 00:00:00 | 01:44:29 | 00:00:00 | |
| OE3MUC-15 | 2026-09-06 01:00:02 | 47.63408 | 17.78679 | 99° | 11km/h | 25137m | 4.9m/s | -51.4°C | 3.3% | 0hPa | 2.5V | 00:00:00 | 00:00:00 | 00:00:00 | |
| OE5MMP-10 | 2026-09-06 00:59:58 | 47.63408 | 17.78664 | 65° | 16km/h | 25115m | 6.2m/s | -51.4°C | 3.3% | 0hPa | 2.5V | 00:00:00 | 01:44:23 | 08:30:00 | |
| OE3MUC-15 | 2026-09-06 00:59:57 | 47.63406 | 17.78660 | 65° | 15km/h | 25109m | 6.0m/s | -51.4°C | 3.3% | 0hPa | 2.5V | 00:00:00 | 00:00:00 | 00:00:00 | |
| OE3MUC-15 | 2026-09-06 00:59:52 | 47.63394 | 17.78638 | 44° | 16km/h | 25082m | 4.1m/s | -51.3°C | 3.3% | 0hPa | 2.5V | 00:00:00 | 00:00:00 | 08:30:00 | |
| GYPAP8-17 | 2026-09-06 00:59:50 | 47.63392 | 17.78634 | 55° | 16km/h | 25077m | 5.8m/s | -51.3°C | 0.7% | 0hPa | 2.4V | 00:00:00 | 00:00:00 | 00:00:00 | |
| OE5MMP-10 | 2026-09-06 00:59:48 | 47.63388 | 17.78616 | 87° | 15km/h | 25061m | 4.2m/s | -51.3°C | 3.4% | 0hPa | 2.4V | 00:00:00 | 01:44:13 | 00:00:00 | |
| OE3MUC-15 | 2026-09-06 00:59:47 | 47.63388 | 17.78610 | 96° | 9km/h | 25056m | 6.0m/s | -51.3°C | 3.3% | 0hPa | 2.4V | 00:00:00 | 01:44:12 | 00:00:00 | |
| PG1ADW-2 | 2026-09-06 00:59:45 | 47.63388 | 17.78603 | 103° | 15km/h | 25045m | 4.3m/s | -51.3°C | 3.3% | 0hPa | 2.4V | 00:00:00 | 00:00:00 | 00:00:00 | |
| PETON7-10 | 2026-09-06 00:59:43 | 47.63388 | 17.78597 | 71° | 15km/h | 25036m | 5.5m/s | -51.3°C | 3.3% | 0hPa | 2.4V | 00:00:00 | 00:00:00 | 00:00:00 | |
| OE5DXL-15 | 2026-09-06 00:59:42 | 47.63387 | 17.78592 | 69° | 18km/h | 25030m | 5.8m/s | -51.3°C | 3.3% | 0hPa | 2.5V | 00:00:00 | 00:00:00 | 00:00:00 | |
| DO3MHA-11 | 2026-09-06 00:59:41 | 47.63385 | 17.78586 | 68° | 13km/h | 25024m | 5.1m/s | -51.2°C | 3.4% | 0hPa | 2.5V | 00:00:00 | 01:44:06 | 00:00:00 | |
| OE5MMP-10 | 2026-09-06 00:59:38 | 47.63382 | 17.78565 | 86° | 13km/h | 25008m | 5.2m/s | -51.2°C | 3.3% | 0hPa | 2.5V | 00:00:00 | 01:44:03 | 00:00:00 | |
| S57NTA-12 | 2026-09-06 00:59:35 | 47.63380 | 17.78553 | 81° | 16km/h | 24997m | 6.3m/s | 0°C | 0% | 0hPa | 2.5V | 00:00:00 | 00:00:00 | 00:00:00 | |
| DO3MHA-11 | 2026-09-06 00:59:29 | 47.63374 | 17.78524 | 74° | 24km/h | 24958m | 5.8m/s | -51.1°C | 3.2% | 0hPa | 2.5V | 00:00:00 | 01:43:54 | 00:00:00 | |
| OE5MMP-10 | 2026-09-06 00:59:28 | 47.63373 | 17.78517 | 77° | 24km/h | 24953m | 5.2m/s | -51.1°C | 3.2% | 0hPa | 2.5V | 00:00:00 | 01:43:53 | 00:00:00 | |
| PG1ADW-2 | 2026-09-06 00:59:25 | 47.63371 | 17.78490 | 96° | 18km/h | 24936m | 4.3m/s | -51.1°C | 3.2% | 0hPa | 2.4V | 00:00:00 | 01:43:50 | 08:30:00 | |
| DO3MHA-11 | 2026-09-06 00:59:19 | 47.63375 | 17.78434 | 104° | 16km/h | 24905m | 6.8m/s | -51.1°C | 3.2% | 0hPa | 2.4V | 00:00:00 | 01:43:44 | 00:00:00 | |
| OE5MMP-10 | 2026-09-06 00:59:18 | 47.63376 | 17.78428 | 111° | 16km/h | 24899m | 4.5m/s | -51.2°C | 3.2% | 0hPa | 2.4V | 00:00:00 | 01:43:43 | 00:00:00 | |
| OE3OSB-13 | 2026-09-06 00:59:16 | 47.63378 | 17.78415 | 92° | 16km/h | 24888m | 6.3m/s | -51.3°C | 0.6% | -1.0hPa | 2.4V | 00:00:00 | 00:00:00 | 00:00:00 | |
| S57NTA-12 | 2026-09-06 00:59:15 | 47.63378 | 17.78408 | 84° | 16km/h | 24883m | 3.7m/s | 0°C | 0% | 0hPa | 2.4V | 00:00:00 | 00:00:00 | 00:00:00 | |
| OE5DRO-10 | 2026-09-06 00:59:14 | 47.63377 | 17.78403 | 80° | 15km/h | 24878m | 5.8m/s | -51.2°C | 3.2% | 0hPa | 2.4V | 00:00:00 | 00:00:00 | 00:00:00 | |
| PETON7-10 | 2026-09-06 00:59:13 | 47.63377 | 17.78399 | 69° | 15km/h | 24872m | 6.7m/s | -51.3°C | 3.2% | 0hPa | 2.4V | 00:00:00 | 01:43:38 | 00:00:00 | |
| OE5DXL-15 | 2026-09-06 00:59:12 | 47.63375 | 17.78395 | 60° | 13km/h | 24866m | 4.7m/s | -51.3°C | 3.2% | 0hPa | 2.4V | 00:00:00 | 00:00:00 | 08:30:00 | |
| OE3MUC-15 | 2026-09-06 00:59:10 | 47.63372 | 17.78386 | 59° | 18km/h | 24855m | 5.8m/s | -51.4°C | 3.3% | 0hPa | 2.5V | 00:00:00 | 00:00:00 | 00:00:00 | |
| DO3MHA-11 | 2026-09-06 00:59:09 | 47.63369 | 17.78380 | 63° | 16km/h | 24849m | 4.8m/s | -51.4°C | 3.3% | 0hPa | 2.5V | 00:00:00 | 01:43:34 | 00:00:00 | |
| OE5MMP-10 | 2026-09-06 00:59:08 | 47.63367 | 17.78373 | 68° | 15km/h | 24844m | 5.4m/s | -51.4°C | 3.3% | 0hPa | 2.5V | 00:00:00 | 01:43:33 | 00:00:00 | |
| OE3MUC-15 | 2026-09-06 00:59:06 | 47.63365 | 17.78363 | 85° | 15km/h | 24833m | 5.3m/s | -51.5°C | 3.3% | 0hPa | 2.5V | 00:00:00 | 00:00:00 | 00:00:00 | |
| PG1ADW-2 | 2026-09-06 00:59:05 | 47.63365 | 17.78358 | 94° | 15km/h | 24828m | 3.8m/s | -51.5°C | 3.3% | 0hPa | 2.5V | 00:00:00 | 00:00:00 | 00:00:00 | |
| OE3MUC-15 | 2026-09-06 00:59:02 | 47.63365 | 17.78340 | 82° | 13km/h | 24812m | 3.8m/s | -51.5°C | 3.2% | 0hPa | 2.5V | 00:00:00 | 00:00:00 | 00:00:00 | |
| HA6NAB-11 | 2026-09-06 00:59:00 | 47.63364 | 17.78334 | 83° | 15km/h | 24807m | 5.6m/s | -51.5°C | 0.7% | 0hPa | 2.5V | 00:00:00 | 00:00:00 | 00:00:00 | |
| DO3MHA-11 | 2026-09-06 00:58:59 | 47.63362 | 17.78326 | 56° | 15km/h | 24795m | 5.0m/s | -51.5°C | 3.3% | 0hPa | 2.5V | 00:00:00 | 01:43:24 | 00:00:00 | |
| PETON7-10 | 2026-09-06 00:58:58 | 47.63361 | 17.78323 | 51° | 13km/h | 24790m | 5.3m/s | -51.5°C | 3.2% | 0hPa | 2.5V | 00:00:00 | 00:00:00 | 00:00:00 | |
| HA6NAB-11 | 2026-09-06 00:58:55 | 47.63358 | 17.78308 | 92° | 16km/h | 24775m | 4.5m/s | -51.7°C | 0.7% | 0hPa | 2.4V | 00:00:00 | 00:00:00 | 00:00:00 | |
| S57NTA-12 | 2026-09-06 00:58:54 | 47.63358 | 17.78301 | 111° | 15km/h | 24770m | 6.0m/s | 0°C | 0% | 0hPa | 2.4V | 00:00:00 | 00:00:00 | 00:00:00 | |
| OE3MUC-15 | 2026-09-06 00:58:50 | 47.63367 | 17.78284 | 112° | 15km/h | 24750m | 6.1m/s | -51.9°C | 3.2% | 0hPa | 2.4V | 00:00:00 | 00:00:00 | 00:00:00 | |
| HA6NAB-11 | 2026-09-06 00:58:49 | 47.63367 | 17.78279 | 90° | 15km/h | 24744m | 5.6m/s | -52.0°C | 0.7% | 0hPa | 2.4V | 00:00:00 | 00:00:00 | 00:00:00 | |
| OE5MMP-10 | 2026-09-06 00:58:48 | 47.63367 | 17.78274 | 78° | 9km/h | 24739m | 4.9m/s | -52.0°C | 3.3% | 0hPa | 2.4V | 00:00:00 | 01:43:13 | 00:00:00 | |
| OE3MUC-15 | 2026-09-06 00:58:46 | 47.63364 | 17.78265 | 55° | 7km/h | 24728m | 6.3m/s | -52.3°C | 3.4% | 0hPa | 2.4V | 00:00:00 | 00:00:00 | 00:00:00 | |
| PG1ADW-2 | 2026-09-06 00:58:45 | 47.63362 | 17.78263 | 28° | 7km/h | 24722m | 5.2m/s | -52.4°C | 3.4% | 0hPa | 2.4V | 00:00:00 | 00:00:00 | 00:00:00 | |
| PETON7-10 | 2026-09-06 00:58:43 | 47.63360 | 17.78262 | 14° | 7km/h | 24711m | 5.5m/s | -52.4°C | 3.4% | 0hPa | 2.4V | 00:00:00 | 00:00:00 | 00:00:00 | |
| OE5DXL-15 | 2026-09-06 00:58:42 | 47.63358 | 17.78261 | 28° | 7km/h | 24706m | 6.4m/s | -52.4°C | 3.4% | 0hPa | 2.4V | 00:00:00 | 00:00:00 | 00:00:00 | |
| OE3MUC-15 | 2026-09-06 00:58:41 | 47.63357 | 17.78260 | 33° | 5km/h | 24700m | 5.1m/s | -52.4°C | 3.4% | 0hPa | 2.4V | 00:00:00 | 00:00:00 | 00:00:00 | |
| DO3MHA-11 | 2026-09-06 00:58:39 | 47.63354 | 17.78257 | 12° | 9km/h | 24689m | 6.5m/s | -52.4°C | 3.4% | 0hPa | 2.4V | 00:00:00 | 01:43:04 | 00:00:00 | |
| OE5MMP-10 | 2026-09-06 00:58:38 | 47.63353 | 17.78257 | 337° | 9km/h | 24683m | 5.0m/s | -52.4°C | 3.5% | 0hPa | 2.4V | 00:00:00 | 01:43:03 | 00:00:00 | |
| HA6NAB-11 | 2026-09-06 00:58:37 | 47.63351 | 17.78258 | 329° | 7km/h | 24678m | 4.7m/s | -52.5°C | 0.7% | 0hPa | 2.4V | 00:00:00 | 00:00:00 | 00:00:00 | |
| OE5DRO-10 | 2026-09-06 00:58:35 | 47.63346 | 17.78260 | 4° | 7km/h | 24667m | 6.1m/s | -52.4°C | 3.4% | 0hPa | 2.4V | 00:00:00 | 00:00:00 | 00:00:00 | |
| HA6NAB-11 | 2026-09-06 00:58:31 | 47.63335 | 17.78253 | 45° | 4km/h | 24647m | 5.8m/s | -52.4°C | 0.7% | 0hPa | 2.4V | 00:00:00 | 00:00:00 | 00:00:00 | |
| DO3MHA-11 | 2026-09-06 00:58:29 | 47.63336 | 17.78252 | 162° | 7km/h | 24637m | 3.7m/s | -52.4°C | 3.4% | 0hPa | 2.4V | 00:00:00 | 01:42:54 | 00:00:00 | |
| PETON7-10 | 2026-09-06 00:58:28 | 47.63337 | 17.78251 | 129° | 7km/h | 24632m | 5.6m/s | -52.4°C | 3.4% | 0hPa | 2.4V | 00:00:00 | 01:42:53 | 00:00:00 | |
| OE3MUC-15 | 2026-09-06 00:58:27 | 47.63337 | 17.78249 | 109° | 4km/h | 24627m | 5.4m/s | -52.4°C | 3.4% | 0hPa | 2.4V | 00:00:00 | 00:00:00 | 00:00:00 | |
| PG1ADW-2 | 2026-09-06 00:58:25 | 47.63337 | 17.78247 | 334° | 7km/h | 24616m | 6.5m/s | -52.4°C | 3.4% | 0hPa | 2.4V | 00:00:00 | 00:00:00 | 00:00:00 | |
| OE3MUC-15 | 2026-09-06 00:58:23 | 47.63335 | 17.78250 | 314° | 7km/h | 24605m | 4.2m/s | -52.5°C | 3.4% | 0hPa | 2.4V | 00:00:00 | 00:00:00 | 00:00:00 | |
| OE3MUC-15 | 2026-09-06 00:58:19 | 47.63331 | 17.78245 | 92° | 9km/h | 24584m | 4.0m/s | -52.6°C | 3.4% | 0hPa | 2.5V | 00:00:00 | 00:00:00 | 00:00:00 | |
| OE5MMP-10 | 2026-09-06 00:58:18 | 47.63332 | 17.78241 | 105° | 7km/h | 24579m | 5.9m/s | -52.6°C | 3.4% | 0hPa | 2.5V | 00:00:00 | 01:42:43 | 00:00:00 | |
| DO3MHA-11 | 2026-09-06 00:58:17 | 47.63332 | 17.78238 | 132° | 7km/h | 24573m | 6.3m/s | -52.6°C | 3.4% | 0hPa | 2.5V | 00:00:00 | 01:42:42 | 00:00:00 | |
| OE5DRO-10 | 2026-09-06 00:58:16 | 47.63334 | 17.78237 | 160° | 7km/h | 24567m | 5.3m/s | -52.6°C | 3.4% | 0hPa | 2.5V | 00:00:00 | 00:00:00 | 00:00:00 | |
| OE3MUC-15 | 2026-09-06 00:58:14 | 47.63338 | 17.78234 | 147° | 7km/h | 24557m | 6.4m/s | -52.6°C | 3.4% | 0hPa | 2.5V | 00:00:00 | 00:00:00 | 00:00:00 | |
| PETON7-10 | 2026-09-06 00:58:13 | 47.63340 | 17.78232 | 135° | 7km/h | 24551m | 5.1m/s | -52.6°C | 3.4% | 0hPa | 2.5V | 00:00:00 | 00:00:00 | 08:30:00 | |
| OE5DXL-15 | 2026-09-06 00:58:12 | 47.63341 | 17.78230 | 124° | 9km/h | 24547m | 3.7m/s | -52.6°C | 3.5% | 0hPa | 2.4V | 00:00:00 | 00:00:00 | 00:00:00 | |
| OE3MUC-15 | 2026-09-06 00:58:09 | 47.63343 | 17.78227 | 317° | 4km/h | 24531m | 5.3m/s | -52.7°C | 3.4% | 0hPa | 2.4V | 00:00:00 | 00:00:00 | 00:00:00 | |
| OE5MMP-10 | 2026-09-06 00:58:08 | 47.63343 | 17.78227 | 31° | 7km/h | 24525m | 5.1m/s | -52.7°C | 3.4% | 0hPa | 2.5V | 00:00:00 | 01:42:33 | 00:00:00 | |
| S57NTA-12 | 2026-09-06 00:58:07 | 47.63342 | 17.78226 | 32° | 5km/h | 24525m | 5.1m/s | 0°C | 0% | 0hPa | 2.5V | 00:00:00 | 00:00:00 | 00:00:00 | |
| OE3MUC-15 | 2026-09-06 00:58:05 | 47.63340 | 17.78218 | 78° | 9km/h | 24509m | 4.8m/s | -52.9°C | 3.5% | 0hPa | 2.5V | 00:00:00 | 00:00:00 | 00:00:00 | |
| OE3MUC-15 | 2026-09-06 00:57:59 | 47.63343 | 17.78202 | 123° | 9km/h | 24477m | 4.1m/s | -53.0°C | 3.5% | 0hPa | 2.5V | 00:00:00 | 00:00:00 | 00:00:00 | |
| OE5MMP-10 | 2026-09-06 00:57:58 | 47.63345 | 17.78199 | 137° | 11km/h | 24471m | 6.6m/s | -53.0°C | 3.5% | 0hPa | 2.5V | 00:00:00 | 01:42:23 | 00:00:00 | |
| OE5DRO-10 | 2026-09-06 00:57:57 | 47.63346 | 17.78198 | 157° | 11km/h | 24465m | 4.9m/s | -53.0°C | 3.5% | 0hPa | 2.5V | 00:00:00 | 00:00:00 | 08:30:00 | |
| OE3MUC-15 | 2026-09-06 00:57:54 | 47.63353 | 17.78190 | 125° | 16km/h | 24450m | 6.0m/s | -53.0°C | 3.5% | 0hPa | 2.4V | 00:00:00 | 00:00:00 | 08:30:00 | |
| OE3MUC-15 | 2026-09-06 00:57:50 | 47.63358 | 17.78169 | 102° | 5km/h | 24429m | 6.3m/s | -53.1°C | 3.5% | 0hPa | 2.5V | 00:00:00 | 00:00:00 | 00:00:00 | |
| OE5MMP-10 | 2026-09-06 00:57:48 | 47.63359 | 17.78165 | 90° | 9km/h | 24418m | 5.2m/s | -53.3°C | 3.5% | 0hPa | 2.5V | 00:00:00 | 01:42:13 | 00:00:00 | |
| DO3MHA-11 | 2026-09-06 00:57:47 | 47.63359 | 17.78164 | 116° | 15km/h | 24412m | 5.9m/s | -53.3°C | 3.6% | 0hPa | 2.5V | 00:00:00 | 01:42:12 | 00:00:00 | |
| OE3MUC-15 | 2026-09-06 00:57:46 | 47.63360 | 17.78162 | 124° | 7km/h | 24406m | 5.3m/s | -53.4°C | 3.6% | 0hPa | 2.5V | 00:00:00 | 00:00:00 | 00:00:00 | |
| PG1ADW-2 | 2026-09-06 00:57:45 | 47.63361 | 17.78159 | 126° | 16km/h | 24402m | 3.8m/s | -53.4°C | 3.6% | 0hPa | 2.5V | 00:00:00 | 00:00:00 | 00:00:00 | |
| PETON7-10 | 2026-09-06 00:57:43 | 47.63363 | 17.78154 | 119° | 18km/h | 24392m | 5.6m/s | -53.5°C | 3.6% | 0hPa | 2.5V | 00:00:00 | 01:42:08 | 00:00:00 | |
| OE5DXL-15 | 2026-09-06 00:57:42 | 47.63364 | 17.78152 | 126° | 22km/h | 24387m | 4.2m/s | -53.5°C | 3.6% | 0hPa | 2.5V | 00:00:00 | 00:00:00 | 00:00:00 | |
| OE5MMP-10 | 2026-09-06 00:57:38 | 47.63371 | 17.78132 | 105° | 22km/h | 24365m | 6.2m/s | -53.6°C | 3.7% | 0hPa | 2.4V | 00:00:00 | 01:42:03 | 00:00:00 | |
| DO3MHA-11 | 2026-09-06 00:57:35 | 47.63371 | 17.78106 | 85° | 18km/h | 24349m | 6.2m/s | -53.6°C | 3.7% | 0hPa | 2.4V | 00:00:00 | 01:42:00 | 00:00:00 | |
| GYPAP8-17 | 2026-09-06 00:57:34 | 47.63370 | 17.78096 | 85° | 29km/h | 24343m | 5.4m/s | -53.7°C | 0.8% | 0hPa | 2.4V | 00:00:00 | 00:00:00 | 00:00:00 | |
| DO3MHA-11 | 2026-09-06 00:57:25 | 47.63367 | 17.78039 | 83° | 27km/h | 24297m | 5.7m/s | -53.5°C | 3.7% | 0hPa | 2.4V | 00:00:00 | 01:41:50 | 00:00:00 | |
| S52SK | 2026-09-06 00:57:22 | 47.63364 | 17.78026 | 71° | 22km/h | 24287m | 4.3m/s | -53.6°C | 0.8% | 0hPa | 2.4V | 00:00:00 | 00:00:00 | 00:00:00 | |
| HA6NAB-11 | 2026-09-06 00:57:20 | 47.63360 | 17.77995 | 87° | 33km/h | 24272m | 5.0m/s | -53.6°C | 0.8% | 0hPa | 2.4V | 00:00:00 | 00:00:00 | 00:00:00 | |
| OE5DRO-10 | 2026-09-06 00:57:19 | 47.63360 | 17.77982 | 89° | 24km/h | 24267m | 3.3m/s | -53.5°C | 3.6% | 0hPa | 2.4V | 00:00:00 | 00:00:00 | 00:00:00 | |
| OE3MUC-15 | 2026-09-06 00:57:18 | 47.63359 | 17.77969 | 83° | 29km/h | 24263m | 5.0m/s | -53.5°C | 3.6% | 0hPa | 2.4V | 00:00:00 | 00:00:00 | 08:30:00 | |
| S52SK | 2026-09-06 00:57:16 | 47.63358 | 17.77958 | 79° | 31km/h | 24258m | 5.6m/s | -53.6°C | 0.9% | 0hPa | 2.5V | 00:00:00 | 00:00:00 | 00:00:00 | |
| DO3MHA-11 | 2026-09-06 00:57:15 | 47.63354 | 17.77938 | 75° | 18km/h | 24247m | 4.7m/s | -53.5°C | 3.6% | 0hPa | 2.5V | 00:00:00 | 01:41:40 | 00:00:00 | |
| OE3MUC-15 | 2026-09-06 00:57:14 | 47.63353 | 17.77929 | 80° | 18km/h | 24242m | 6.3m/s | -53.5°C | 3.6% | 0hPa | 2.5V | 00:00:00 | 00:00:00 | 00:00:00 | |
| PETON7-10 | 2026-09-06 00:57:13 | 47.63352 | 17.77921 | 83° | 22km/h | 24236m | 4.6m/s | -53.5°C | 3.6% | 0hPa | 2.5V | 00:00:00 | 00:00:00 | 00:00:00 | |
| OE5DXL-15 | 2026-09-06 00:57:12 | 47.63351 | 17.77914 | 80° | 20km/h | 24232m | 4.5m/s | -53.5°C | 3.6% | 0hPa | 2.5V | 00:00:00 | 00:00:00 | 00:00:00 | |
| OE3MUC-15 | 2026-09-06 00:57:10 | 47.63349 | 17.77906 | 65° | 15km/h | 24220m | 4.9m/s | -53.6°C | 3.6% | 0hPa | 2.5V | 00:00:00 | 00:00:00 | 00:00:00 | |
| HA6NAB-11 | 2026-09-06 00:57:09 | 47.63348 | 17.77901 | 76° | 11km/h | 24215m | 4.2m/s | -53.6°C | 0.8% | 0hPa | 2.5V | 00:00:00 | 00:00:00 | 00:00:00 | |
| OE5MMP-10 | 2026-09-06 00:57:08 | 47.63348 | 17.77897 | 90° | 26km/h | 24210m | 6.2m/s | -53.6°C | 3.7% | 0hPa | 2.5V | 00:00:00 | 01:41:33 | 00:00:00 | |
| OE3MUC-15 | 2026-09-06 00:57:06 | 47.63349 | 17.77882 | 96° | 26km/h | 24199m | 4.3m/s | -53.5°C | 3.6% | 0hPa | 2.5V | 00:00:00 | 00:00:00 | 00:00:00 | |
| DO3MHA-11 | 2026-09-06 00:57:05 | 47.63349 | 17.77873 | 89° | 29km/h | 24195m | 4.7m/s | -53.5°C | 3.6% | 0hPa | 2.4V | 00:00:00 | 01:41:30 | 00:00:00 | |
| HA6NAB-11 | 2026-09-06 00:57:03 | 47.63348 | 17.77863 | 82° | 27km/h | 24190m | 5.8m/s | -53.6°C | 0.8% | 0hPa | 2.4V | 00:00:00 | 00:00:00 | 00:00:00 | |
| OE3MUC-15 | 2026-09-06 00:57:02 | 47.63345 | 17.77843 | 73° | 27km/h | 24180m | 3.7m/s | -53.5°C | 3.6% | 0hPa | 2.4V | 00:00:00 | 00:00:00 | 00:00:00 | |
| OE5MMP-10 | 2026-09-06 00:56:58 | 47.63340 | 17.77798 | 89° | 18km/h | 24160m | 4.0m/s | -53.6°C | 3.6% | 0hPa | 2.4V | 00:00:00 | 01:41:23 | 08:30:00 | |
| HA6NAB-11 | 2026-09-06 00:56:57 | 47.63340 | 17.77798 | 89° | 29km/h | 24160m | 4.1m/s | -53.6°C | 0.8% | 0hPa | 2.5V | 00:00:00 | 00:00:00 | 00:00:00 | |
| DO3MHA-11 | 2026-09-06 00:56:55 | 47.63337 | 17.77772 | 69° | 15km/h | 24145m | 4.9m/s | -53.6°C | 3.7% | 0hPa | 2.5V | 00:00:00 | 01:41:20 | 08:30:00 | |
| OE3MUC-15 | 2026-09-06 00:56:53 | 47.63334 | 17.77761 | 79° | 15km/h | 24135m | 5.7m/s | -53.6°C | 3.6% | 0hPa | 2.4V | 00:00:00 | 00:00:00 | 00:00:00 | |
| HA6NAB-11 | 2026-09-06 00:56:52 | 47.63334 | 17.77756 | 97° | 15km/h | 24129m | 6.3m/s | -53.6°C | 0.8% | 0hPa | 2.4V | 00:00:00 | 00:00:00 | 00:00:00 | |
| OE3MUC-15 | 2026-09-06 00:56:49 | 47.63338 | 17.77740 | 114° | 15km/h | 24114m | 5.2m/s | -53.7°C | 3.7% | 0hPa | 2.4V | 00:00:00 | 00:00:00 | 00:00:00 | |
| OE5MMP-10 | 2026-09-06 00:56:48 | 47.63339 | 17.77735 | 113° | 16km/h | 24109m | 5.2m/s | -53.7°C | 3.7% | 0hPa | 2.4V | 00:00:00 | 01:41:13 | 00:00:00 | |
| DO3MHA-11 | 2026-09-06 00:56:45 | 47.63342 | 17.77723 | 114° | 20km/h | 24093m | 6.0m/s | -53.8°C | 3.7% | 0hPa | 2.4V | 00:00:00 | 01:41:10 | 00:00:00 | |
| OE3MUC-15 | 2026-09-06 00:56:44 | 47.63344 | 17.77716 | 104° | 20km/h | 24088m | 4.1m/s | -53.8°C | 3.7% | 0hPa | 2.4V | 00:00:00 | 00:00:00 | 00:00:00 | |
| PETON7-10 | 2026-09-06 00:56:43 | 47.63345 | 17.77709 | 91° | 20km/h | 24084m | 3.9m/s | -53.8°C | 3.7% | 0hPa | 2.4V | 00:00:00 | 00:00:00 | 00:00:00 | |
| OE5DXL-15 | 2026-09-06 00:56:42 | 47.63344 | 17.77701 | 78° | 16km/h | 24079m | 6.3m/s | -53.7°C | 3.7% | 0hPa | 2.5V | 00:00:00 | 00:00:00 | 00:00:00 | |
| OE3OSB-13 | 2026-09-06 00:56:41 | 47.63340 | 17.77687 | 64° | 20km/h | 24068m | 4.1m/s | -53.7°C | 0.7% | -1.0hPa | 2.5V | 00:00:00 | 00:00:00 | 00:00:00 | |
| OE3MUC-15 | 2026-09-06 00:56:40 | 47.63340 | 17.77687 | 65° | 22km/h | 24068m | 4.1m/s | -53.7°C | 3.7% | 0hPa | 2.5V | 00:00:00 | 00:00:00 | 00:00:00 | |
| OE5MMP-10 | 2026-09-06 00:56:38 | 47.63336 | 17.77671 | 80° | 18km/h | 24057m | 5.5m/s | -53.6°C | 3.7% | 0hPa | 2.5V | 00:00:00 | 01:41:03 | 00:00:00 | |
| DO3MHA-11 | 2026-09-06 00:56:35 | 47.63335 | 17.77648 | 81° | 18km/h | 24042m | 6.2m/s | -53.5°C | 3.6% | 0hPa | 2.5V | 00:00:00 | 01:41:00 | 00:00:00 | |
| OE3MUC-15 | 2026-09-06 00:56:32 | 47.63331 | 17.77631 | 74° | 18km/h | 24025m | 6.0m/s | -53.5°C | 3.7% | 0hPa | 2.5V | 00:00:00 | 00:00:00 | 00:00:00 | |
| PETON7-10 | 2026-09-06 00:56:28 | 47.63324 | 17.77607 | 47° | 15km/h | 24004m | 5.4m/s | -53.5°C | 3.7% | 0hPa | 2.5V | 00:00:00 | 00:00:00 | 00:00:00 | |
| PG1ADW-2 | 2026-09-06 00:56:25 | 47.63318 | 17.77592 | 70° | 13km/h | 23987m | 4.9m/s | -53.4°C | 3.6% | 0hPa | 2.5V | 00:00:00 | 00:00:00 | 08:30:00 | |
| OE3MUC-15 | 2026-09-06 00:56:24 | 47.63317 | 17.77586 | 79° | 18km/h | 23983m | 4.1m/s | -53.4°C | 3.7% | 0hPa | 2.4V | 00:00:00 | 00:00:00 | 00:00:00 | |
| OE5DRO-10 | 2026-09-06 00:56:22 | 47.63315 | 17.77575 | 76° | 11km/h | 23972m | 5.6m/s | -53.3°C | 3.6% | 0hPa | 2.4V | 00:00:00 | 00:00:00 | 00:00:00 | |
| OE3MUC-15 | 2026-09-06 00:56:19 | 47.63313 | 17.77561 | 82° | 15km/h | 23957m | 6.0m/s | -53.3°C | 3.6% | 0hPa | 2.4V | 00:00:00 | 00:00:00 | 00:00:00 | |
| OE5MMP-10 | 2026-09-06 00:56:18 | 47.63312 | 17.77555 | 83° | 11km/h | 23951m | 5.0m/s | -53.3°C | 3.6% | 0hPa | 2.4V | 00:00:00 | 01:40:43 | 00:00:00 | |
| OE3MUC-15 | 2026-09-06 00:56:14 | 47.63310 | 17.77538 | 89° | 11km/h | 23929m | 5.5m/s | -53.3°C | 3.6% | 0hPa | 2.4V | 00:00:00 | 00:00:00 | 00:00:00 | |
| PETON7-10 | 2026-09-06 00:56:13 | 47.63310 | 17.77534 | 99° | 9km/h | 23923m | 6.1m/s | -53.3°C | 3.6% | 0hPa | 2.4V | 00:00:00 | 01:40:38 | 00:00:00 | |
| OE5DXL-15 | 2026-09-06 00:56:12 | 47.63311 | 17.77529 | 113° | 7km/h | 23918m | 4.2m/s | -53.3°C | 3.6% | 0hPa | 2.4V | 00:00:00 | 00:00:00 | 00:00:00 | |
| OE3OSB-13 | 2026-09-06 00:56:10 | 47.63315 | 17.77520 | 121° | 7km/h | 23901m | 3.7m/s | -53.3°C | 0.7% | -1.0hPa | 2.4V | 00:00:00 | 00:00:00 | 00:00:00 | |
| OE5MMP-10 | 2026-09-06 00:56:08 | 47.63316 | 17.77516 | 108° | 9km/h | 23896m | 6.4m/s | -53.3°C | 3.6% | 0hPa | 2.4V | 00:00:00 | 01:40:33 | 00:00:00 | |
| PG1ADW-2 | 2026-09-06 00:56:05 | 47.63317 | 17.77503 | 81° | 7km/h | 23880m | 6.5m/s | -53.3°C | 3.6% | 0hPa | 2.4V | 00:00:00 | 00:00:00 | 00:00:00 | |
| OE5DRO-10 | 2026-09-06 00:56:03 | 47.63317 | 17.77498 | 101° | 7km/h | 23868m | 4.5m/s | -53.3°C | 3.6% | 0hPa | 2.4V | 00:00:00 | 00:00:00 | 00:00:00 | |
| OE5MMP-10 | 2026-09-06 00:55:58 | 47.63324 | 17.77490 | 202° | 7km/h | 23841m | 5.2m/s | -53.3°C | 3.6% | 0hPa | 2.4V | 00:00:00 | 01:40:23 | 00:00:00 | |
| S52SK | 2026-09-06 00:55:54 | 47.63328 | 17.77489 | 57° | 7km/h | 23819m | 4.7m/s | -53.3°C | 0.8% | 0hPa | 2.4V | 00:00:00 | 00:00:00 | 00:00:00 | |
| OE5MMP-10 | 2026-09-06 00:55:48 | 47.63321 | 17.77473 | 105° | 7km/h | 23786m | 5.3m/s | -53.3°C | 3.6% | 0hPa | 2.4V | 00:00:00 | 01:40:13 | 00:00:00 | |
| S52SK | 2026-09-06 00:55:47 | 47.63321 | 17.77473 | 105° | 5km/h | 23786m | 5.4m/s | -53.3°C | 0.8% | 0hPa | 2.4V | 00:00:00 | 00:00:00 | 00:00:00 | |
| PG1ADW-2 | 2026-09-06 00:55:45 | 47.63324 | 17.77473 | 192° | 7km/h | 23769m | 5.5m/s | -53.3°C | 3.6% | 0hPa | 2.4V | 00:00:00 | 00:00:00 | 00:00:00 | |
| OE5DRO-10 | 2026-09-06 00:55:44 | 47.63326 | 17.77473 | 179° | 7km/h | 23763m | 5.8m/s | -53.3°C | 3.6% | 0hPa | 2.4V | 00:00:00 | 00:00:00 | 00:00:00 | |
| PETON7-10 | 2026-09-06 00:55:43 | 47.63327 | 17.77473 | 131° | 9km/h | 23758m | 4.1m/s | -53.3°C | 3.7% | 0hPa | 2.4V | 00:00:00 | 00:00:00 | 00:00:00 | |
| OE5DXL-15 | 2026-09-06 00:55:42 | 47.63327 | 17.77473 | 3° | 11km/h | 23753m | 5.1m/s | -53.3°C | 3.6% | 0hPa | 2.4V | 00:00:00 | 00:00:00 | 00:00:00 | |
| OE3OSB-13 | 2026-09-06 00:55:39 | 47.63317 | 17.77470 | 33° | 15km/h | 23730m | 6.0m/s | -53.3°C | 0.7% | -1.0hPa | 2.4V | 00:00:00 | 00:00:00 | 00:00:00 | |
| OE5MMP-10 | 2026-09-06 00:55:38 | 47.63317 | 17.77470 | 34° | 9km/h | 23731m | 6.0m/s | -53.2°C | 3.6% | 0hPa | 2.4V | 00:00:00 | 01:40:03 | 00:00:00 | |
| OE5MMP-10 | 2026-09-06 00:55:28 | 47.63311 | 17.77450 | 276° | 11km/h | 23675m | 4.1m/s | -52.9°C | 3.5% | 0hPa | 2.4V | 00:00:00 | 01:39:53 | 08:30:00 | |
| OE5MMP-10 | 2026-09-06 00:55:18 | 47.63289 | 17.77430 | 74° | 11km/h | 23620m | 5.9m/s | -52.8°C | 3.5% | 0hPa | 2.4V | 00:00:00 | 01:39:43 | 00:00:00 | |
| OE3MUC-15 | 2026-09-06 00:55:17 | 47.63288 | 17.77424 | 79° | 9km/h | 23615m | 4.4m/s | -52.8°C | 3.5% | 0hPa | 2.4V | 00:00:00 | 00:00:00 | 00:00:00 | |
| PETON7-10 | 2026-09-06 00:55:13 | 47.63283 | 17.77414 | 350° | 7km/h | 23593m | 4.6m/s | -52.8°C | 3.4% | 0hPa | 2.4V | 00:00:00 | 00:00:00 | 00:00:00 | |
| OE5DXL-15 | 2026-09-06 00:55:12 | 47.63280 | 17.77415 | 356° | 5km/h | 23588m | 5.4m/s | -52.9°C | 3.5% | 0hPa | 2.4V | 00:00:00 | 00:00:00 | 00:00:00 | |
| OE3OSB-13 | 2026-09-06 00:55:08 | 47.63269 | 17.77415 | 1° | 0km/h | 23560m | 4.5m/s | -53.2°C | 0.7% | -1.0hPa | 2.4V | 00:00:00 | 00:00:00 | 00:00:00 | |
| OE3MUC-15 | 2026-09-06 00:55:06 | 47.63269 | 17.77414 | 65° | 5km/h | 23554m | 6.6m/s | -53.2°C | 3.6% | 0hPa | 2.4V | 00:00:00 | 00:00:00 | 08:30:00 | |
| PG1ADW-2 | 2026-09-06 00:55:05 | 47.63268 | 17.77413 | 65° | 5km/h | 23548m | 5.7m/s | -53.3°C | 3.7% | 0hPa | 2.4V | 00:00:00 | 00:00:00 | 00:00:00 | |
| GYPAP8-17 | 2026-09-06 00:55:04 | 47.63267 | 17.77410 | 62° | 7km/h | 23543m | 4.4m/s | -53.4°C | 0.8% | 0hPa | 2.4V | 00:00:00 | 00:00:00 | 00:00:00 | |
| OE3MUC-15 | 2026-09-06 00:55:02 | 47.63266 | 17.77407 | 17° | 4km/h | 23531m | 6.0m/s | -53.5°C | 3.7% | 0hPa | 2.4V | 00:00:00 | 00:00:00 | 00:00:00 | |
| OE3MUC-15 | 2026-09-06 00:54:58 | 47.63259 | 17.77410 | 355° | 7km/h | 23508m | 5.6m/s | -53.7°C | 3.8% | 0hPa | 2.4V | 00:00:00 | 00:00:00 | 00:00:00 | |
| OE3MUC-15 | 2026-09-06 00:54:52 | 47.63249 | 17.77417 | 16° | 2km/h | 23474m | 5.7m/s | -53.5°C | 3.8% | 0hPa | 2.4V | 00:00:00 | 00:00:00 | 00:00:00 | |
| OE5MMP-10 | 2026-09-06 00:54:48 | 47.63247 | 17.77416 | 223° | 4km/h | 23451m | 5.1m/s | -53.3°C | 3.7% | 0hPa | 2.4V | 00:00:00 | 01:39:13 | 00:00:00 | |
| OE5DRO-10 | 2026-09-06 00:54:47 | 47.63247 | 17.77416 | 218° | 4km/h | 23446m | 4.6m/s | -53.3°C | 3.7% | 0hPa | 2.4V | 00:00:00 | 00:00:00 | 00:00:00 | |
| PG1ADW-2 | 2026-09-06 00:54:45 | 47.63248 | 17.77417 | 17° | 5km/h | 23433m | 5.4m/s | -53.2°C | 3.7% | 0hPa | 2.4V | 00:00:00 | 00:00:00 | 00:00:00 | |
| OE3MUC-15 | 2026-09-06 00:54:44 | 47.63247 | 17.77417 | 276° | 7km/h | 23428m | 4.9m/s | -53.2°C | 3.7% | 0hPa | 2.4V | 00:00:00 | 00:00:00 | 00:00:00 | |
| PETON7-10 | 2026-09-06 00:54:43 | 47.63248 | 17.77418 | 246° | 5km/h | 23422m | 6.7m/s | -53.1°C | 3.6% | 0hPa | 2.4V | 00:00:00 | 01:39:08 | 00:00:00 | |
| OE5DXL-15 | 2026-09-06 00:54:42 | 47.63248 | 17.77419 | 241° | 7km/h | 23416m | 5.3m/s | -53.1°C | 3.7% | 0hPa | 2.4V | 00:00:00 | 00:00:00 | 08:30:00 | |
| OE5MMP-10 | 2026-09-06 00:54:38 | 47.63248 | 17.77426 | 277° | 5km/h | 23393m | 5.7m/s | -52.9°C | 3.7% | 0hPa | 2.5V | 00:00:00 | 01:39:03 | 00:00:00 | |
| OE3OSB-13 | 2026-09-06 00:54:37 | 47.63249 | 17.77432 | 245° | 7km/h | 23382m | 4.4m/s | -52.9°C | 0.8% | -1.0hPa | 2.5V | 00:00:00 | 00:00:00 | 00:00:00 | |
| S52SK | 2026-09-06 00:54:30 | 47.63253 | 17.77438 | 229° | 7km/h | 23347m | 4.2m/s | -52.6°C | 0.8% | 0hPa | 2.5V | 00:00:00 | 00:00:00 | 00:00:00 | |
| OE5MMP-10 | 2026-09-06 00:54:28 | 47.63254 | 17.77442 | 258° | 9km/h | 23335m | 6.7m/s | -52.5°C | 3.5% | 0hPa | 2.5V | 00:00:00 | 01:38:53 | 00:00:00 | |
| PG1ADW-2 | 2026-09-06 00:54:25 | 47.63255 | 17.77448 | 244° | 13km/h | 23317m | 6.7m/s | -52.4°C | 3.5% | 0hPa | 2.4V | 00:00:00 | 00:00:00 | 00:00:00 | |
| S52SK | 2026-09-06 00:54:24 | 47.63256 | 17.77451 | 236° | 13km/h | 23311m | 4.9m/s | -52.4°C | 0.8% | 0hPa | 2.4V | 00:00:00 | 00:00:00 | 00:00:00 | |
| OE5MMP-10 | 2026-09-06 00:54:18 | 47.63267 | 17.77469 | 200° | 15km/h | 23278m | 6.5m/s | -52.2°C | 3.4% | 0hPa | 2.4V | 00:00:00 | 01:38:43 | 00:00:00 | |
| PETON7-10 | 2026-09-06 00:54:13 | 47.63280 | 17.77475 | 213° | 18km/h | 23250m | 5.0m/s | -52.6°C | 3.6% | 0hPa | 2.4V | 00:00:00 | 00:00:00 | 00:00:00 | |
| OE5DXL-15 | 2026-09-06 00:54:12 | 47.63282 | 17.77477 | 215° | 22km/h | 23244m | 7.4m/s | -52.6°C | 3.6% | 0hPa | 2.4V | 00:00:00 | 00:00:00 | 00:00:00 | |
| OE5DRO-10 | 2026-09-06 00:54:09 | 47.63293 | 17.77493 | 238° | 18km/h | 23228m | 6.2m/s | -52.5°C | 3.5% | 0hPa | 2.4V | 00:00:00 | 00:00:00 | 00:00:00 | |
| OE5MMP-10 | 2026-09-06 00:54:08 | 47.63295 | 17.77499 | 249° | 18km/h | 23221m | 5.8m/s | -52.5°C | 3.5% | 0hPa | 2.4V | 00:00:00 | 01:38:33 | 00:00:00 | |
| OE3OSB-13 | 2026-09-06 00:54:06 | 47.63300 | 17.77512 | 208° | 13km/h | 23206m | 6.2m/s | -52.4°C | 0.7% | -1.0hPa | 2.4V | 00:00:00 | 00:00:00 | 00:00:00 | |
| PG1ADW-2 | 2026-09-06 00:54:05 | 47.63300 | 17.77512 | 209° | 22km/h | 23206m | 6.2m/s | -52.3°C | 3.6% | 0hPa | 2.4V | 00:00:00 | 01:38:30 | 00:00:00 | |
| OE3MUC-15 | 2026-09-06 00:54:01 | 47.63320 | 17.77520 | 201° | 20km/h | 23184m | 6.0m/s | -52.2°C | 3.6% | 0hPa | 2.4V | 00:00:00 | 00:00:00 | 00:00:00 | |
| OE5MMP-10 | 2026-09-06 00:53:58 | 47.63334 | 17.77532 | 210° | 22km/h | 23168m | 6.2m/s | -52.1°C | 3.5% | 0hPa | 2.4V | 00:00:00 | 01:38:23 | 08:30:00 | |
| OE3MUC-15 | 2026-09-06 00:53:54 | 47.63352 | 17.77554 | 240° | 22km/h | 23146m | 6.1m/s | -52.1°C | 3.5% | 0hPa | 2.4V | 00:00:00 | 00:00:00 | 00:00:00 | |
| OE5DRO-10 | 2026-09-06 00:53:50 | 47.63364 | 17.77571 | 202° | 22km/h | 23126m | 5.5m/s | -51.9°C | 3.5% | 0hPa | 2.4V | 00:00:00 | 00:00:00 | 00:00:00 | |
| OE5MMP-10 | 2026-09-06 00:53:48 | 47.63378 | 17.77579 | 200° | 26km/h | 23116m | 4.6m/s | -51.9°C | 3.5% | 0hPa | 2.4V | 00:00:00 | 01:38:13 | 00:00:00 | |
| PG1ADW-2 | 2026-09-06 00:53:45 | 47.63399 | 17.77593 | 206° | 20km/h | 23100m | 4.0m/s | -51.8°C | 3.5% | 0hPa | 2.4V | 00:00:00 | 00:00:00 | 00:00:00 | |
| OE3MUC-15 | 2026-09-06 00:53:44 | 47.63405 | 17.77597 | 198° | 22km/h | 23095m | 5.5m/s | -51.8°C | 3.5% | 0hPa | 2.4V | 00:00:00 | 00:00:00 | 00:00:00 | |
| PETON7-10 | 2026-09-06 00:53:43 | 47.63411 | 17.77599 | 194° | 20km/h | 23090m | 6.1m/s | -51.8°C | 3.5% | 0hPa | 2.4V | 00:00:00 | 00:00:00 | 08:30:00 | |
| OE5DXL-15 | 2026-09-06 00:53:42 | 47.63417 | 17.77600 | 188° | 18km/h | 23083m | 5.1m/s | -51.7°C | 3.4% | 0hPa | 2.4V | 00:00:00 | 00:00:00 | 00:00:00 | |
| OE5MMP-10 | 2026-09-06 00:53:38 | 47.63434 | 17.77611 | 207° | 20km/h | 23062m | 3.6m/s | -51.6°C | 3.3% | 0hPa | 2.4V | 00:00:00 | 01:38:03 | 00:00:00 | |
| HA6NAB-11 | 2026-09-06 00:53:36 | 47.63438 | 17.77614 | 198° | 18km/h | 23057m | 6.4m/s | -51.6°C | 0.7% | 0hPa | 2.4V | 00:00:00 | 00:00:00 | 00:00:00 | |
| OE3OSB-13 | 2026-09-06 00:53:34 | 47.63454 | 17.77618 | 193° | 22km/h | 23040m | 6.7m/s | -51.5°C | 0.7% | -1.0hPa | 2.4V | 00:00:00 | 00:00:00 | 00:00:00 | |
| OE5DRO-10 | 2026-09-06 00:53:31 | 47.63470 | 17.77623 | 181° | 18km/h | 23025m | 6.6m/s | -51.3°C | 3.4% | 0hPa | 2.4V | 00:00:00 | 00:00:00 | 00:00:00 | |
| GYPAP8-17 | 2026-09-06 00:53:28 | 47.63481 | 17.77621 | 174° | 20km/h | 23014m | 3.4m/s | -51.4°C | 0.8% | 0hPa | 2.4V | 00:00:00 | 00:00:00 | 00:00:00 | |
| PG1ADW-2 | 2026-09-06 00:53:25 | 47.63496 | 17.77626 | 196° | 16km/h | 22993m | 5.2m/s | -51.1°C | 3.3% | 0hPa | 2.4V | 00:00:00 | 00:00:00 | 08:30:00 | |
| HA6NAB-11 | 2026-09-06 00:53:19 | 47.63515 | 17.77628 | 193° | 20km/h | 22965m | 5.4m/s | -50.9°C | 0.8% | 0hPa | 2.4V | 00:00:00 | 00:00:00 | 00:00:00 | |
| OE5MMP-10 | 2026-09-06 00:53:18 | 47.63525 | 17.77629 | 174° | 18km/h | 22953m | 6.1m/s | 0°C | 0% | 0hPa | 2.4V | 00:00:00 | 01:37:43 | 00:00:00 | |
| HA6NAB-11 | 2026-09-06 00:53:14 | 47.63544 | 17.77623 | 180° | 16km/h | 22931m | 4.6m/s | -50.7°C | 0.8% | 0hPa | 2.4V | 00:00:00 | 00:00:00 | 00:00:00 | |
| PETON7-10 | 2026-09-06 00:53:13 | 47.63548 | 17.77622 | 163° | 15km/h | 22927m | 4.7m/s | -50.6°C | 3.2% | 0hPa | 2.4V | 00:00:00 | 01:37:38 | 00:00:00 | |
| OE5DRO-10 | 2026-09-06 00:53:12 | 47.63552 | 17.77620 | 156° | 26km/h | 22921m | 6.4m/s | -50.6°C | 3.2% | 0hPa | 2.4V | 00:00:00 | 00:00:00 | 00:00:00 | |
| OE3MUC-15 | 2026-09-06 00:53:10 | 47.63559 | 17.77614 | 154° | 16km/h | 22909m | 5.4m/s | -50.6°C | 3.3% | 0hPa | 2.5V | 00:00:00 | 00:00:00 | 00:00:00 | |
| HA6NAB-11 | 2026-09-06 00:53:08 | 47.63567 | 17.77610 | 171° | 15km/h | 22898m | 4.9m/s | -50.6°C | 0.8% | 0hPa | 2.5V | 00:00:00 | 00:00:00 | 00:00:00 | |
| PG1ADW-2 | 2026-09-06 00:53:05 | 47.63578 | 17.77603 | 150° | 13km/h | 22881m | 5.2m/s | -50.4°C | 3.1% | 0hPa | 2.5V | 00:00:00 | 00:00:00 | 00:00:00 | |
| OE3OSB-13 | 2026-09-06 00:53:03 | 47.63585 | 17.77598 | 166° | 13km/h | 22871m | 6.7m/s | -50.4°C | 0.7% | -1.0hPa | 2.5V | 00:00:00 | 00:00:00 | 00:00:00 | |
| OE3MUC-15 | 2026-09-06 00:53:01 | 47.63590 | 17.77597 | 166° | 11km/h | 22860m | 3.9m/s | -50.3°C | 3.1% | 0hPa | 2.5V | 00:00:00 | 00:00:00 | 08:30:00 | |
| OE5MMP-10 | 2026-09-06 00:52:58 | 47.63594 | 17.77587 | 109° | 13km/h | 22844m | 4.7m/s | 0°C | 0% | 0hPa | 2.5V | 00:00:00 | 01:37:23 | 00:00:00 | |
| OE3MUC-15 | 2026-09-06 00:52:57 | 47.63595 | 17.77581 | 116° | 18km/h | 22840m | 4.1m/s | -50.3°C | 3.0% | 0hPa | 2.5V | 00:00:00 | 00:00:00 | 00:00:00 | |
| OE3MUC-15 | 2026-09-06 00:52:53 | 47.63609 | 17.77567 | 177° | 9km/h | 22819m | 5.4m/s | -50.5°C | 3.1% | 0hPa | 2.5V | 00:00:00 | 00:00:00 | 00:00:00 | |
| OE3MUC-15 | 2026-09-06 00:52:49 | 47.63616 | 17.77563 | 128° | 11km/h | 22797m | 5.7m/s | -50.6°C | 3.1% | 0hPa | 2.5V | 00:00:00 | 00:00:00 | 00:00:00 | |
| OE5MMP-10 | 2026-09-06 00:52:48 | 47.63618 | 17.77559 | 119° | 9km/h | 22791m | 5.1m/s | 0°C | 0% | 0hPa | 2.4V | 00:00:00 | 01:37:13 | 00:00:00 | |
| OE3MUC-15 | 2026-09-06 00:52:45 | 47.63620 | 17.77547 | 87° | 9km/h | 22776m | 5.4m/s | -50.6°C | 3.0% | 0hPa | 2.4V | 00:00:00 | 00:00:00 | 00:00:00 | |
| PETON7-10 | 2026-09-06 00:52:43 | 47.63620 | 17.77542 | 108° | 11km/h | 22765m | 6.0m/s | -50.7°C | 3.1% | 0hPa | 2.4V | 00:00:00 | 00:00:00 | 00:00:00 | |
| OE5DXL-15 | 2026-09-06 00:52:42 | 47.63621 | 17.77539 | 125° | 11km/h | 22759m | 6.1m/s | -50.7°C | 3.1% | 0hPa | 2.4V | 00:00:00 | 00:00:00 | 00:00:00 | |
| OE3MUC-15 | 2026-09-06 00:52:41 | 47.63622 | 17.77536 | 127° | 9km/h | 22754m | 3.7m/s | -50.8°C | 3.1% | 0hPa | 2.4V | 00:00:00 | 00:00:00 | 00:00:00 | |
| OE5MMP-10 | 2026-09-06 00:52:38 | 47.63625 | 17.77528 | 95° | 13km/h | 22738m | 4.4m/s | 0°C | 0% | 0hPa | 2.4V | 00:00:00 | 01:37:03 | 00:00:00 | |
| OE3MUC-15 | 2026-09-06 00:52:37 | 47.63625 | 17.77525 | 103° | 13km/h | 22733m | 6.4m/s | -51.3°C | 3.1% | 0hPa | 2.4V | 00:00:00 | 00:00:00 | 00:00:00 | |
| OE3MUC-15 | 2026-09-06 00:52:33 | 47.63623 | 17.77506 | 54° | 15km/h | 22711m | 6.1m/s | -51.7°C | 3.3% | 0hPa | 2.4V | 00:00:00 | 00:00:00 | 00:00:00 | |
| OE3OSB-13 | 2026-09-06 00:52:32 | 47.63620 | 17.77502 | 39° | 15km/h | 22706m | 3.8m/s | -51.7°C | 0.6% | -1.0hPa | 2.4V | 00:00:00 | 00:00:00 | 00:00:00 | |
| OE5MMP-10 | 2026-09-06 00:52:28 | 47.63612 | 17.77487 | 64° | 9km/h | 22686m | 5.3m/s | 0°C | 0% | 0hPa | 2.4V | 00:00:00 | 01:36:53 | 00:00:00 | |
| PG1ADW-2 | 2026-09-06 00:52:25 | 47.63610 | 17.77482 | 75° | 15km/h | 22670m | 5.4m/s | -52.1°C | 3.2% | 0hPa | 2.4V | 00:00:00 | 00:00:00 | 00:00:00 | |
| OE3MUC-15 | 2026-09-06 00:52:24 | 47.63610 | 17.77480 | 89° | 9km/h | 22664m | 6.6m/s | -52.2°C | 3.3% | 0hPa | 2.5V | 00:00:00 | 00:00:00 | 08:30:00 | |
| S52SK | 2026-09-06 00:52:23 | 47.63610 | 17.77477 | 86° | 9km/h | 22659m | 4.9m/s | -52.4°C | 0.7% | 0hPa | 2.5V | 00:00:00 | 00:00:00 | 00:00:00 | |
| OE3MUC-15 | 2026-09-06 00:52:20 | 47.63606 | 17.77465 | 56° | 15km/h | 22643m | 4.2m/s | -52.4°C | 3.3% | 0hPa | 2.5V | 00:00:00 | 00:00:00 | 00:00:00 | |
| OE3MUC-15 | 2026-09-06 00:52:16 | 47.63605 | 17.77445 | 112° | 13km/h | 22622m | 5.5m/s | -52.5°C | 3.4% | 0hPa | 2.5V | 00:00:00 | 00:00:00 | 00:00:00 | |
| PETON7-10 | 2026-09-06 00:52:13 | 47.63611 | 17.77436 | 142° | 18km/h | 22605m | 5.9m/s | -52.6°C | 3.2% | 0hPa | 2.5V | 00:00:00 | 00:00:00 | 00:00:00 | |
| OE3MUC-15 | 2026-09-06 00:52:12 | 47.63614 | 17.77432 | 140° | 20km/h | 22599m | 6.4m/s | -52.6°C | 3.4% | 0hPa | 2.5V | 00:00:00 | 00:00:00 | 00:00:00 | |
| OE3MUC-15 | 2026-09-06 00:52:08 | 47.63628 | 17.77412 | 128° | 18km/h | 22577m | 4.4m/s | -52.9°C | 3.3% | 0hPa | 2.4V | 00:00:00 | 00:00:00 | 00:00:00 | |
| PG1ADW-2 | 2026-09-06 00:52:05 | 47.63636 | 17.77394 | 125° | 26km/h | 22560m | 3.6m/s | -53.2°C | 3.4% | 0hPa | 2.4V | 00:00:00 | 00:00:00 | 00:00:00 | |
| OE3MUC-15 | 2026-09-06 00:52:04 | 47.63639 | 17.77389 | 130° | 16km/h | 22555m | 6.2m/s | -53.3°C | 3.5% | 0hPa | 2.4V | 00:00:00 | 00:00:00 | 00:00:00 | |
| OE3OSB-13 | 2026-09-06 00:52:01 | 47.63649 | 17.77381 | 159° | 18km/h | 22538m | 6.2m/s | -53.6°C | 0.8% | -1.0hPa | 2.4V | 00:00:00 | 00:00:00 | 00:00:00 | |
| OE3MUC-15 | 2026-09-06 00:52:00 | 47.63654 | 17.77377 | 160° | 27km/h | 22533m | 5.5m/s | -53.6°C | 3.7% | 0hPa | 2.4V | 00:00:00 | 00:00:00 | 00:00:00 | |
| OE3MUC-15 | 2026-09-06 00:51:56 | 47.63682 | 17.77364 | 156° | 33km/h | 22512m | 5.2m/s | -53.8°C | 3.8% | 0hPa | 2.4V | 00:00:00 | 00:00:00 | 00:00:00 | |
| OE3MUC-15 | 2026-09-06 00:51:52 | 47.63708 | 17.77334 | 126° | 31km/h | 22490m | 5.7m/s | -53.6°C | 3.6% | 0hPa | 2.4V | 00:00:00 | 01:36:17 | 00:00:00 | |
| OE3MUC-15 | 2026-09-06 00:51:48 | 47.63719 | 17.77292 | 108° | 26km/h | 22469m | 3.9m/s | -53.6°C | 3.6% | 0hPa | 2.4V | 00:00:00 | 00:00:00 | 08:30:00 | |
| PG1ADW-2 | 2026-09-06 00:51:45 | 47.63727 | 17.77270 | 146° | 26km/h | 22453m | 4.1m/s | -53.7°C | 3.7% | 0hPa | 2.4V | 00:00:00 | 00:00:00 | 00:00:00 | |
| PETON7-10 | 2026-09-06 00:51:43 | 47.63738 | 17.77260 | 151° | 26km/h | 22442m | 5.4m/s | -53.7°C | 3.6% | 0hPa | 2.4V | 00:00:00 | 01:36:08 | 00:00:00 | |
| OE3OSB-13 | 2026-09-06 00:51:30 | 47.63781 | 17.77155 | 125° | 22km/h | 22375m | 6.1m/s | -53.8°C | 0.8% | -1.0hPa | 2.4V | 00:00:00 | 00:00:00 | 00:00:00 | |
| PETON7-10 | 2026-09-06 00:51:28 | 47.63788 | 17.77142 | 134° | 22km/h | 22365m | 4.6m/s | -53.8°C | 3.6% | 0hPa | 2.4V | 00:00:00 | 00:00:00 | 08:30:00 | |
| PG1ADW-2 | 2026-09-06 00:51:25 | 47.63797 | 17.77122 | 109° | 22km/h | 22349m | 4.4m/s | -53.9°C | 3.7% | 0hPa | 2.5V | 00:00:00 | 01:35:50 | 00:00:00 | |
| OE3MUC-15 | 2026-09-06 00:51:21 | 47.63804 | 17.77085 | 108° | 22km/h | 22328m | 5.7m/s | -53.9°C | 3.6% | 0hPa | 2.5V | 00:00:00 | 00:00:00 | 00:00:00 | |
| OE3MUC-15 | 2026-09-06 00:51:17 | 47.63811 | 17.77055 | 110° | 20km/h | 22305m | 5.0m/s | -53.7°C | 3.6% | 0hPa | 2.4V | 00:00:00 | 00:00:00 | 00:00:00 | |
| PETON7-10 | 2026-09-06 00:51:13 | 47.63812 | 17.77024 | 82° | 20km/h | 22285m | 3.9m/s | -53.7°C | 3.5% | 0hPa | 2.4V | 00:00:00 | 00:00:00 | 00:00:00 | |
| OE5DXL-15 | 2026-09-06 00:51:12 | 47.63811 | 17.77016 | 86° | 18km/h | 22280m | 6.0m/s | -53.7°C | 3.6% | 0hPa | 2.4V | 00:00:00 | 00:00:00 | 00:00:00 | |
| OE3MUC-15 | 2026-09-06 00:51:09 | 47.63812 | 17.76990 | 95° | 20km/h | 22264m | 6.5m/s | -53.6°C | 3.7% | 0hPa | 2.4V | 00:00:00 | 00:00:00 | 08:30:00 | |
| PG1ADW-2 | 2026-09-06 00:51:05 | 47.63816 | 17.76960 | 109° | 18km/h | 22242m | 4.5m/s | -53.6°C | 3.6% | 0hPa | 2.4V | 00:00:00 | 00:00:00 | 00:00:00 | |
| OE3MUC-15 | 2026-09-06 00:51:04 | 47.63817 | 17.76952 | 94° | 20km/h | 22237m | 4.3m/s | -53.5°C | 3.6% | 0hPa | 2.4V | 00:00:00 | 00:00:00 | 00:00:00 | |
| OE3OSB-13 | 2026-09-06 00:50:59 | 47.63810 | 17.76919 | 74° | 16km/h | 22210m | 5.1m/s | -53.7°C | 0.7% | -1.0hPa | 2.4V | 00:00:00 | 00:00:00 | 00:00:00 | |
| PETON7-10 | 2026-09-06 00:50:58 | 47.63809 | 17.76912 | 70° | 16km/h | 22205m | 5.3m/s | -53.7°C | 3.6% | 0hPa | 2.4V | 00:00:00 | 01:35:23 | 00:00:00 | |
| OE3MUC-15 | 2026-09-06 00:50:52 | 47.63808 | 17.76873 | 100° | 16km/h | 22174m | 4.4m/s | -54.2°C | 3.7% | 0hPa | 2.4V | 00:00:00 | 00:00:00 | 00:00:00 | |
| OE3MUC-15 | 2026-09-06 00:50:48 | 47.63803 | 17.76850 | 56° | 13km/h | 22153m | 6.1m/s | -54.2°C | 3.8% | 0hPa | 2.5V | 00:00:00 | 00:00:00 | 00:00:00 | |
| OE3MUC-15 | 2026-09-06 00:50:44 | 47.63794 | 17.76833 | 52° | 16km/h | 22133m | 5.5m/s | -54.1°C | 3.7% | 0hPa | 2.5V | 00:00:00 | 00:00:00 | 00:00:00 | |
| PETON7-10 | 2026-09-06 00:50:43 | 47.63792 | 17.76828 | 60° | 15km/h | 22128m | 4.0m/s | -54.1°C | 3.7% | 0hPa | 2.5V | 00:00:00 | 00:00:00 | 00:00:00 | |
| S52SK | 2026-09-06 00:50:42 | 47.63790 | 17.76822 | 74° | 15km/h | 22124m | 3.9m/s | -54.2°C | 0.9% | 0hPa | 2.5V | 00:00:00 | 00:00:00 | 00:00:00 | |
| OE3MUC-15 | 2026-09-06 00:50:40 | 47.63790 | 17.76813 | 119° | 5km/h | 22113m | 5.0m/s | -54.1°C | 3.7% | 0hPa | 2.5V | 00:00:00 | 00:00:00 | 00:00:00 | |
| GYPAP8-17 | 2026-09-06 00:50:38 | 47.63792 | 17.76811 | 143° | 7km/h | 22109m | 4.0m/s | -54.1°C | 0% | 0hPa | 2.4V | 00:00:00 | 00:00:00 | 00:00:00 | |
| OE3MUC-15 | 2026-09-06 00:50:36 | 47.63791 | 17.76807 | 40° | 15km/h | 22094m | 4.2m/s | -53.9°C | 3.7% | 0hPa | 2.4V | 00:00:00 | 00:00:00 | 00:00:00 | |
| S52SK | 2026-09-06 00:50:35 | 47.63791 | 17.76807 | 41° | 9km/h | 22094m | 4.3m/s | -54.0°C | 0.9% | 0hPa | 2.4V | 00:00:00 | 00:00:00 | 00:00:00 | |
| OE3MUC-15 | 2026-09-06 00:50:32 | 47.63786 | 17.76786 | 89° | 20km/h | 22074m | 4.8m/s | -53.8°C | 3.7% | 0hPa | 2.4V | 00:00:00 | 00:00:00 | 00:00:00 | |
| PETON7-10 | 2026-09-06 00:50:28 | 47.63786 | 17.76757 | 97° | 15km/h | 22054m | 4.3m/s | -53.7°C | 3.6% | 0hPa | 2.4V | 00:00:00 | 00:00:00 | 00:00:00 | |
| PG1ADW-2 | 2026-09-06 00:50:25 | 47.63792 | 17.76742 | 142° | 16km/h | 22038m | 4.9m/s | -53.5°C | 3.5% | 0hPa | 2.4V | 00:00:00 | 00:00:00 | 08:30:00 | |
| OE3MUC-15 | 2026-09-06 00:50:21 | 47.63801 | 17.76728 | 110° | 16km/h | 22018m | 3.9m/s | -53.5°C | 3.4% | 0hPa | 2.5V | 00:00:00 | 00:00:00 | 00:00:00 | |
| HA6NAB-11 | 2026-09-06 00:50:17 | 47.63808 | 17.76705 | 109° | 16km/h | 21997m | 5.4m/s | -53.8°C | 0.8% | 0hPa | 2.5V | 00:00:00 | 00:00:00 | 00:00:00 | |
| OE3MUC-15 | 2026-09-06 00:50:13 | 47.63813 | 17.76687 | 122° | 16km/h | 21976m | 6.2m/s | -54.3°C | 3.7% | 0hPa | 2.5V | 00:00:00 | 00:00:00 | 00:00:00 | |
| HA6NAB-11 | 2026-09-06 00:50:12 | 47.63815 | 17.76682 | 131° | 18km/h | 21971m | 4.5m/s | -54.4°C | 0.9% | 0hPa | 2.4V | 00:00:00 | 00:00:00 | 00:00:00 | |
| OE3MUC-15 | 2026-09-06 00:50:09 | 47.63825 | 17.76670 | 145° | 24km/h | 21955m | 3.6m/s | -54.5°C | 3.7% | 0hPa | 2.4V | 00:00:00 | 00:00:00 | 00:00:00 | |
| HA6NAB-11 | 2026-09-06 00:50:06 | 47.63838 | 17.76653 | 138° | 27km/h | 21939m | 4.6m/s | -54.5°C | 0.9% | 0hPa | 2.4V | 00:00:00 | 00:00:00 | 00:00:00 | |
| OE3MUC-15 | 2026-09-06 00:50:05 | 47.63843 | 17.76646 | 138° | 22km/h | 21933m | 5.8m/s | -54.4°C | 3.8% | 0hPa | 2.4V | 00:00:00 | 00:00:00 | 00:00:00 | |
| OE3MUC-15 | 2026-09-06 00:50:01 | 47.63857 | 17.76622 | 124° | 22km/h | 21912m | 5.3m/s | -54.3°C | 3.8% | 0hPa | 2.4V | 00:00:00 | 00:00:00 | 00:00:00 | |
| HA6NAB-11 | 2026-09-06 00:50:00 | 47.63856 | 17.76622 | 125° | 22km/h | 21912m | 5.4m/s | -54.4°C | 0.9% | 0hPa | 2.5V | 00:00:00 | 00:00:00 | 00:00:00 | |
| PETON7-10 | 2026-09-06 00:49:58 | 47.63866 | 17.76603 | 126° | 22km/h | 21897m | 5.6m/s | -54.3°C | 3.8% | 0hPa | 2.5V | 00:00:00 | 00:00:00 | 00:00:00 | |
| OE3MUC-15 | 2026-09-06 00:49:57 | 47.63869 | 17.76597 | 127° | 24km/h | 21892m | 4.5m/s | -54.2°C | 3.7% | 0hPa | 2.4V | 00:00:00 | 00:00:00 | 00:00:00 | |
| HA6NAB-11 | 2026-09-06 00:49:54 | 47.63875 | 17.76584 | 127° | 26km/h | 21881m | 5.8m/s | -54.2°C | 0.9% | 0hPa | 2.4V | 00:00:00 | 00:00:00 | 00:00:00 | |
| OE3MUC-15 | 2026-09-06 00:49:53 | 47.63884 | 17.76568 | 128° | 24km/h | 21872m | 3.8m/s | -54.1°C | 3.7% | 0hPa | 2.4V | 00:00:00 | 00:00:00 | 00:00:00 | |
| OE3MUC-15 | 2026-09-06 00:49:49 | 47.63898 | 17.76540 | 123° | 24km/h | 21852m | 6.0m/s | -54.0°C | 3.6% | 0hPa | 2.4V | 00:00:00 | 00:00:00 | 08:30:00 | |
| HA6NAB-11 | 2026-09-06 00:49:48 | 47.63898 | 17.76540 | 124° | 24km/h | 21852m | 6.1m/s | -54.0°C | 0.8% | 0hPa | 2.5V | 00:00:00 | 00:00:00 | 00:00:00 | |
| OE3MUC-15 | 2026-09-06 00:49:45 | 47.63908 | 17.76510 | 104° | 22km/h | 21830m | 4.5m/s | -53.9°C | 3.6% | 0hPa | 2.5V | 00:00:00 | 00:00:00 | 00:00:00 | |
| PETON7-10 | 2026-09-06 00:49:43 | 47.63911 | 17.76494 | 108° | 22km/h | 21820m | 5.7m/s | -54.0°C | 3.7% | 0hPa | 2.5V | 00:00:00 | 00:00:00 | 00:00:00 | |
| OE5DXL-15 | 2026-09-06 00:49:42 | 47.63913 | 17.76486 | 109° | 18km/h | 21815m | 4.2m/s | -54.0°C | 3.7% | 0hPa | 2.5V | 00:00:00 | 00:00:00 | 00:00:00 | |
| GYPAP8-17 | 2026-09-06 00:49:31 | 47.63938 | 17.76404 | 104° | 20km/h | 21758m | 4.6m/s | -54.3°C | 0% | 0hPa | 2.5V | 00:00:00 | 00:00:00 | 00:00:00 | |
| PETON7-10 | 2026-09-06 00:49:28 | 47.63940 | 17.76386 | 93° | 16km/h | 21742m | 4.7m/s | -54.2°C | 3.8% | 0hPa | 2.5V | 00:00:00 | 01:33:53 | 00:00:00 | |
| OE3OSB-13 | 2026-09-06 00:49:26 | 47.63941 | 17.76368 | 92° | 18km/h | 21726m | 4.6m/s | -54.2°C | 0.8% | -1.0hPa | 2.5V | 00:00:00 | 00:00:00 | 00:00:00 | |
| PG1ADW-2 | 2026-09-06 00:49:25 | 47.63940 | 17.76368 | 93° | 16km/h | 21726m | 4.6m/s | -54.1°C | 3.8% | 0hPa | 2.5V | 00:00:00 | 00:00:00 | 00:00:00 | |
| OE3MUC-15 | 2026-09-06 00:49:21 | 47.63938 | 17.76343 | 75° | 18km/h | 21706m | 3.7m/s | -54.0°C | 3.8% | 0hPa | 2.4V | 00:00:00 | 00:00:00 | 00:00:00 | |
| OE3MUC-15 | 2026-09-06 00:49:16 | 47.63932 | 17.76312 | 65° | 15km/h | 21679m | 5.5m/s | -53.9°C | 3.7% | 0hPa | 2.4V | 00:00:00 | 00:00:00 | 00:00:00 | |
| PETON7-10 | 2026-09-06 00:49:13 | 47.63928 | 17.76297 | 74° | 16km/h | 21664m | 5.2m/s | -53.8°C | 3.7% | 0hPa | 2.4V | 00:00:00 | 00:00:00 | 08:30:00 | |
| OE3MUC-15 | 2026-09-06 00:49:12 | 47.63927 | 17.76291 | 73° | 13km/h | 21659m | 4.1m/s | -53.8°C | 3.6% | 0hPa | 2.4V | 00:00:00 | 00:00:00 | 08:30:00 | |
| OE3MUC-15 | 2026-09-06 00:49:08 | 47.63921 | 17.76272 | 67° | 16km/h | 21637m | 6.6m/s | -53.7°C | 3.6% | 0hPa | 2.5V | 00:00:00 | 00:00:00 | 00:00:00 | |
| OE3MUC-15 | 2026-09-06 00:49:04 | 47.63919 | 17.76249 | 91° | 16km/h | 21615m | 4.4m/s | -53.7°C | 3.7% | 0hPa | 2.5V | 00:00:00 | 00:00:00 | 00:00:00 | |
| OE3MUC-15 | 2026-09-06 00:49:00 | 47.63919 | 17.76224 | 90° | 15km/h | 21593m | 4.9m/s | -53.7°C | 3.7% | 0hPa | 2.5V | 00:00:00 | 00:00:00 | 00:00:00 | |
| PETON7-10 | 2026-09-06 00:48:58 | 47.63919 | 17.76212 | 92° | 20km/h | 21582m | 3.8m/s | -53.6°C | 3.6% | 0hPa | 2.5V | 00:00:00 | 00:00:00 | 00:00:00 | |
| OE3MUC-15 | 2026-09-06 00:48:56 | 47.63919 | 17.76201 | 95° | 20km/h | 21574m | 5.4m/s | -53.6°C | 3.6% | 0hPa | 2.5V | 00:00:00 | 00:00:00 | 00:00:00 | |
| S52SK | 2026-09-06 00:48:55 | 47.63920 | 17.76194 | 97° | 22km/h | 21568m | 5.0m/s | -53.7°C | 0.9% | 0hPa | 2.5V | 00:00:00 | 00:00:00 | 00:00:00 | |
| OE3MUC-15 | 2026-09-06 00:48:52 | 47.63921 | 17.76173 | 102° | 18km/h | 21553m | 5.2m/s | -53.6°C | 3.6% | 0hPa | 2.5V | 00:00:00 | 00:00:00 | 00:00:00 | |
| S52SK | 2026-09-06 00:48:50 | 47.63923 | 17.76160 | 100° | 18km/h | 21542m | 6.0m/s | -53.6°C | 0.8% | 0hPa | 2.5V | 00:00:00 | 00:00:00 | 00:00:00 | |
| OE3MUC-15 | 2026-09-06 00:48:48 | 47.63925 | 17.76145 | 108° | 22km/h | 21532m | 3.9m/s | -53.5°C | 3.6% | 0hPa | 2.5V | 00:00:00 | 00:00:00 | 00:00:00 | |
| PG1ADW-2 | 2026-09-06 00:48:45 | 47.63933 | 17.76124 | 127° | 26km/h | 21518m | 3.4m/s | -53.5°C | 3.5% | 0hPa | 2.5V | 00:00:00 | 01:33:10 | 00:00:00 | |
| OE3MUC-15 | 2026-09-06 00:48:44 | 47.63937 | 17.76116 | 126° | 24km/h | 21512m | 5.9m/s | -53.5°C | 3.6% | 0hPa | 2.5V | 00:00:00 | 01:33:09 | 00:00:00 | |
| PETON7-10 | 2026-09-06 00:48:43 | 47.63941 | 17.76108 | 120° | 26km/h | 21507m | 4.6m/s | -53.5°C | 3.5% | 0hPa | 2.5V | 00:00:00 | 01:33:08 | 00:00:00 | |
| OE5DXL-15 | 2026-09-06 00:48:42 | 47.63944 | 17.76099 | 121° | 29km/h | 21503m | 4.0m/s | -53.5°C | 3.6% | 0hPa | 2.5V | 00:00:00 | 00:00:00 | 00:00:00 | |
| OE3MUC-15 | 2026-09-06 00:48:40 | 47.63949 | 17.76084 | 117° | 22km/h | 21493m | 4.6m/s | -53.4°C | 3.6% | 0hPa | 2.4V | 00:00:00 | 00:00:00 | 00:00:00 | |
| OE3MUC-15 | 2026-09-06 00:48:36 | 47.63956 | 17.76051 | 106° | 26km/h | 21472m | 4.2m/s | -53.5°C | 3.6% | 0hPa | 2.4V | 00:00:00 | 00:00:00 | 08:30:00 | |
| OE3MUC-15 | 2026-09-06 00:48:32 | 47.63966 | 17.76015 | 113° | 29km/h | 21452m | 6.0m/s | -53.6°C | 3.6% | 0hPa | 2.4V | 00:00:00 | 00:00:00 | 00:00:00 | |
| OE3MUC-15 | 2026-09-06 00:48:28 | 47.63978 | 17.75976 | 115° | 33km/h | 21431m | 3.5m/s | -53.5°C | 3.6% | 0hPa | 2.4V | 00:00:00 | 00:00:00 | 00:00:00 | |
| PG1ADW-2 | 2026-09-06 00:48:25 | 47.63987 | 17.75942 | 113° | 33km/h | 21416m | 3.3m/s | -53.5°C | 3.6% | 0hPa | 2.4V | 00:00:00 | 00:00:00 | 00:00:00 | |
| OE3OSB-13 | 2026-09-06 00:48:24 | 47.63995 | 17.75918 | 116° | 35km/h | 21405m | 4.2m/s | -53.5°C | 0.7% | -1.0hPa | 2.5V | 00:00:00 | 00:00:00 | 00:00:00 | |
| OE3MUC-15 | 2026-09-06 00:48:23 | 47.63995 | 17.75918 | 117° | 37km/h | 21405m | 4.1m/s | -53.4°C | 3.6% | 0hPa | 2.5V | 00:00:00 | 00:00:00 | 00:00:00 | |
| OE3MUC-15 | 2026-09-06 00:48:19 | 47.64006 | 17.75867 | 103° | 31km/h | 21387m | 3.9m/s | -53.3°C | 3.6% | 0hPa | 2.5V | 00:00:00 | 00:00:00 | 00:00:00 | |
| OE3MUC-15 | 2026-09-06 00:48:15 | 47.64015 | 17.75823 | 106° | 31km/h | 21367m | 4.7m/s | -53.2°C | 3.6% | 0hPa | 2.5V | 00:00:00 | 00:00:00 | 00:00:00 | |
| PETON7-10 | 2026-09-06 00:48:13 | 47.64019 | 17.75801 | 103° | 29km/h | 21357m | 4.4m/s | -53.1°C | 3.6% | 0hPa | 2.5V | 00:00:00 | 00:00:00 | 00:00:00 | |
| OE5DXL-15 | 2026-09-06 00:48:12 | 47.64021 | 17.75790 | 108° | 29km/h | 21353m | 4.6m/s | -53.1°C | 3.6% | 0hPa | 2.5V | 00:00:00 | 00:00:00 | 00:00:00 | |
| OE3MUC-15 | 2026-09-06 00:48:11 | 47.64023 | 17.75778 | 110° | 33km/h | 21347m | 5.8m/s | -53.0°C | 3.5% | 0hPa | 2.5V | 00:00:00 | 00:00:00 | 00:00:00 | |
| OE3MUC-15 | 2026-09-06 00:48:07 | 47.64033 | 17.75732 | 99° | 29km/h | 21327m | 3.7m/s | -52.9°C | 3.5% | 0hPa | 2.4V | 00:00:00 | 00:00:00 | 00:00:00 | |
| PG1ADW-2 | 2026-09-06 00:48:05 | 47.64036 | 17.75711 | 104° | 27km/h | 21317m | 5.7m/s | -52.8°C | 3.5% | 0hPa | 2.4V | 00:00:00 | 00:00:00 | 00:00:00 | |
| OE3MUC-15 | 2026-09-06 00:48:03 | 47.64038 | 17.75692 | 100° | 27km/h | 21307m | 5.1m/s | -52.8°C | 3.5% | 0hPa | 2.4V | 00:00:00 | 00:00:00 | 00:00:00 | |
| OE3OSB-13 | 2026-09-06 00:47:53 | 47.64050 | 17.75578 | 102° | 27km/h | 21251m | 3.2m/s | -52.6°C | 0.7% | -1.0hPa | 2.4V | 00:00:00 | 00:00:00 | 00:00:00 | |
| OE3MUC-15 | 2026-09-06 00:47:50 | 47.64052 | 17.75557 | 93° | 29km/h | 21241m | 5.4m/s | -52.5°C | 3.4% | 0hPa | 2.4V | 00:00:00 | 00:00:00 | 00:00:00 | |
| OE3MUC-15 | 2026-09-06 00:47:46 | 47.64055 | 17.75515 | 102° | 27km/h | 21222m | 4.2m/s | -52.4°C | 3.3% | 0hPa | 2.4V | 00:00:00 | 00:00:00 | 00:00:00 | |
| PG1ADW-2 | 2026-09-06 00:47:45 | 47.64056 | 17.75505 | 97° | 24km/h | 21217m | 4.4m/s | -52.4°C | 3.3% | 0hPa | 2.5V | 00:00:00 | 00:00:00 | 00:00:00 | |
| PETON7-10 | 2026-09-06 00:47:43 | 47.64056 | 17.75485 | 83° | 24km/h | 21207m | 5.0m/s | -52.5°C | 3.3% | 0hPa | 2.5V | 00:00:00 | 00:00:00 | 00:00:00 | |
| OE5DXL-15 | 2026-09-06 00:47:42 | 47.64055 | 17.75474 | 82° | 24km/h | 21202m | 3.8m/s | -52.6°C | 3.3% | 0hPa | 2.4V | 00:00:00 | 00:00:00 | 00:00:00 | |
| PETON7-10 | 2026-09-06 00:47:28 | 47.64042 | 17.75356 | 77° | 22km/h | 21129m | 3.8m/s | -52.9°C | 3.4% | 0hPa | 2.4V | 00:00:00 | 00:00:00 | 00:00:00 | |
| PG1ADW-2 | 2026-09-06 00:47:25 | 47.64035 | 17.75329 | 67° | 26km/h | 21115m | 5.1m/s | -53.1°C | 3.4% | 0hPa | 2.4V | 00:00:00 | 01:31:50 | 08:30:00 | |
| HA6NAB-11 | 2026-09-06 00:47:24 | 47.64032 | 17.75318 | 71° | 29km/h | 21110m | 4.7m/s | -53.2°C | 0.8% | 0hPa | 2.4V | 00:00:00 | 00:00:00 | 00:00:00 | |
| OE3OSB-13 | 2026-09-06 00:47:22 | 47.64027 | 17.75291 | 77° | 22km/h | 21095m | 3.5m/s | -53.3°C | 0.7% | -1.0hPa | 2.4V | 00:00:00 | 00:00:00 | 00:00:00 | |
| OE3MUC-15 | 2026-09-06 00:47:21 | 47.64027 | 17.75290 | 78° | 22km/h | 21095m | 3.4m/s | -53.2°C | 3.4% | 0hPa | 2.4V | 00:00:00 | 00:00:00 | 08:30:00 | |
| HA6NAB-11 | 2026-09-06 00:47:19 | 47.64023 | 17.75275 | 65° | 20km/h | 21085m | 4.7m/s | -53.3°C | 0.8% | 0hPa | 2.5V | 00:00:00 | 00:00:00 | 00:00:00 | |
| OE3MUC-15 | 2026-09-06 00:47:17 | 47.64019 | 17.75262 | 66° | 27km/h | 21075m | 5.7m/s | -53.4°C | 3.5% | 0hPa | 2.5V | 00:00:00 | 00:00:00 | 00:00:00 | |
| HA6NAB-11 | 2026-09-06 00:47:13 | 47.64015 | 17.75236 | 77° | 26km/h | 21055m | 6.0m/s | -53.7°C | 0.9% | 0hPa | 2.5V | 00:00:00 | 00:00:00 | 00:00:00 | |
| OE5DXL-15 | 2026-09-06 00:47:12 | 47.64013 | 17.75226 | 73° | 35km/h | 21049m | 4.9m/s | -53.7°C | 3.6% | 0hPa | 2.5V | 00:00:00 | 00:00:00 | 00:00:00 | |
| HA6NAB-11 | 2026-09-06 00:47:07 | 47.64010 | 17.75165 | 104° | 29km/h | 21025m | 5.3m/s | -53.9°C | 0.8% | 0hPa | 2.4V | 00:00:00 | 00:00:00 | 00:00:00 | |
| PG1ADW-2 | 2026-09-06 00:47:05 | 47.64013 | 17.75145 | 105° | 35km/h | 21014m | 5.3m/s | -53.9°C | 3.5% | 0hPa | 2.4V | 00:00:00 | 00:00:00 | 00:00:00 | |
| OE3OSB-13 | 2026-09-06 00:46:51 | 47.64051 | 17.74964 | 103° | 38km/h | 20933m | 5.2m/s | -54.6°C | 0.8% | -1.0hPa | 2.4V | 00:00:00 | 00:00:00 | 00:00:00 | |
| S52SK | 2026-09-06 00:46:50 | 47.64051 | 17.74964 | 105° | 40km/h | 20933m | 5.2m/s | -54.6°C | 0.9% | 0hPa | 2.4V | 00:00:00 | 00:00:00 | 00:00:00 | |
| OE3MUC-15 | 2026-09-06 00:46:48 | 47.64056 | 17.74936 | 105° | 38km/h | 20921m | 6.1m/s | -54.9°C | 3.8% | 0hPa | 2.4V | 00:00:00 | 00:00:00 | 00:00:00 | |
| PG1ADW-2 | 2026-09-06 00:46:45 | 47.64062 | 17.74897 | 103° | 42km/h | 20906m | 5.9m/s | -55.2°C | 3.9% | 0hPa | 2.4V | 00:00:00 | 00:00:00 | 00:00:00 | |
| S52SK | 2026-09-06 00:46:44 | 47.64062 | 17.74897 | 104° | 38km/h | 20906m | 6.0m/s | -55.2°C | 1.0% | 0hPa | 2.4V | 00:00:00 | 00:00:00 | 00:00:00 | |
| OE3MUC-15 | 2026-09-06 00:46:43 | 47.64067 | 17.74869 | 107° | 42km/h | 20896m | 5.6m/s | -55.3°C | 3.9% | 0hPa | 2.4V | 00:00:00 | 00:00:00 | 00:00:00 | |
| OE5DXL-15 | 2026-09-06 00:46:42 | 47.64070 | 17.74855 | 108° | 42km/h | 20890m | 4.9m/s | -55.3°C | 4.0% | 0hPa | 2.5V | 00:00:00 | 00:00:00 | 00:00:00 | |
| OE5DRO-10 | 2026-09-06 00:46:40 | 47.64077 | 17.74825 | 110° | 44km/h | 20880m | 5.5m/s | -55.3°C | 3.9% | 0hPa | 2.5V | 00:00:00 | 00:00:00 | 00:00:00 | |
| OE3MUC-15 | 2026-09-06 00:46:39 | 47.64081 | 17.74809 | 112° | 47km/h | 20875m | 5.7m/s | -55.3°C | 3.9% | 0hPa | 2.5V | 00:00:00 | 00:00:00 | 00:00:00 | |
| DO3MHA-11 | 2026-09-06 00:46:37 | 47.64089 | 17.74774 | 109° | 42km/h | 20865m | 4.9m/s | -55.2°C | 3.9% | 0hPa | 2.5V | 00:00:00 | 01:31:02 | 00:00:00 | |
| OE3MUC-15 | 2026-09-06 00:46:35 | 47.64095 | 17.74742 | 102° | 40km/h | 20854m | 4.4m/s | -55.2°C | 3.9% | 0hPa | 2.5V | 00:00:00 | 00:00:00 | 00:00:00 | |
| OE3MUC-15 | 2026-09-06 00:46:31 | 47.64099 | 17.74681 | 96° | 38km/h | 20834m | 5.7m/s | -55.1°C | 3.9% | 0hPa | 2.5V | 00:00:00 | 00:00:00 | 00:00:00 | |
| PETON7-10 | 2026-09-06 00:46:28 | 47.64103 | 17.74639 | 99° | 40km/h | 20818m | 5.6m/s | -55.0°C | 3.9% | 0hPa | 2.5V | 00:00:00 | 01:30:53 | 00:00:00 | |
| PG1ADW-2 | 2026-09-06 00:46:25 | 47.64109 | 17.74591 | 101° | 40km/h | 20804m | 4.6m/s | -54.9°C | 3.9% | 0hPa | 2.5V | 00:00:00 | 00:00:00 | 00:00:00 | |
| DO3MHA-11 | 2026-09-06 00:46:24 | 47.64111 | 17.74575 | 101° | 40km/h | 20799m | 5.9m/s | -54.8°C | 3.8% | 0hPa | 2.5V | 00:00:00 | 01:30:49 | 00:00:00 | |
| OE3MUC-15 | 2026-09-06 00:46:21 | 47.64116 | 17.74530 | 97° | 38km/h | 20783m | 5.6m/s | -54.8°C | 3.8% | 0hPa | 2.5V | 00:00:00 | 00:00:00 | 00:00:00 | |
| OE3OSB-13 | 2026-09-06 00:46:20 | 47.64118 | 17.74501 | 98° | 37km/h | 20773m | 6.3m/s | -54.8°C | 0.9% | -1.0hPa | 2.5V | 00:00:00 | 00:00:00 | 00:00:00 | |
| OE3MUC-15 | 2026-09-06 00:46:16 | 47.64123 | 17.74460 | 102° | 42km/h | 20757m | 5.9m/s | -54.7°C | 3.7% | 0hPa | 2.5V | 00:00:00 | 00:00:00 | 00:00:00 | |
| PETON7-10 | 2026-09-06 00:46:13 | 47.64128 | 17.74414 | 99° | 38km/h | 20740m | 5.9m/s | -54.6°C | 3.7% | 0hPa | 2.5V | 00:00:00 | 00:00:00 | 00:00:00 | |
| OE3MUC-15 | 2026-09-06 00:46:12 | 47.64130 | 17.74399 | 98° | 40km/h | 20735m | 5.5m/s | -54.6°C | 3.7% | 0hPa | 2.4V | 00:00:00 | 00:00:00 | 08:30:00 | |
| OE3MUC-15 | 2026-09-06 00:46:07 | 47.64131 | 17.74310 | 95° | 37km/h | 20704m | 4.6m/s | -54.5°C | 3.8% | 0hPa | 2.5V | 00:00:00 | 00:00:00 | 00:00:00 | |
| PG1ADW-2 | 2026-09-06 00:46:05 | 47.64132 | 17.74297 | 98° | 33km/h | 20699m | 4.5m/s | -54.5°C | 3.7% | 0hPa | 2.5V | 00:00:00 | 01:30:30 | 00:00:00 | |
| OE3OSB-13 | 2026-09-06 00:45:48 | 47.64148 | 17.74082 | 102° | 27km/h | 20611m | 5.2m/s | -55.3°C | 0.9% | -1.0hPa | 2.5V | 00:00:00 | 00:00:00 | 00:00:00 | |
| DO3MHA-11 | 2026-09-06 00:45:47 | 47.64149 | 17.74072 | 110° | 29km/h | 20606m | 4.8m/s | -55.3°C | 3.8% | 0hPa | 2.5V | 00:00:00 | 01:30:12 | 08:30:00 | |
| PG1ADW-2 | 2026-09-06 00:45:45 | 47.64154 | 17.74053 | 109° | 31km/h | 20596m | 5.7m/s | -55.5°C | 3.8% | 0hPa | 2.5V | 00:00:00 | 00:00:00 | 00:00:00 | |
| OE3MUC-15 | 2026-09-06 00:45:43 | 47.64158 | 17.74032 | 103° | 29km/h | 20586m | 4.2m/s | -55.7°C | 3.9% | 0hPa | 2.5V | 00:00:00 | 00:00:00 | 00:00:00 | |
| OE5DXL-15 | 2026-09-06 00:45:42 | 47.64160 | 17.74021 | 104° | 29km/h | 20581m | 5.9m/s | -55.7°C | 4.0% | 0hPa | 2.5V | 00:00:00 | 00:00:00 | 08:30:00 | |
| DO3MHA-11 | 2026-09-06 00:45:37 | 47.64169 | 17.73963 | 103° | 31km/h | 20557m | 3.8m/s | -55.7°C | 4.0% | 0hPa | 2.5V | 00:00:00 | 01:30:02 | 00:00:00 | |
| PETON7-10 | 2026-09-06 00:45:28 | 47.64182 | 17.73859 | 95° | 29km/h | 20512m | 4.1m/s | -55.9°C | 3.9% | 0hPa | 2.5V | 00:00:00 | 00:00:00 | 00:00:00 | |
| DO3MHA-11 | 2026-09-06 00:45:27 | 47.64182 | 17.73850 | 102° | 29km/h | 20507m | 4.6m/s | -56.0°C | 3.9% | 0hPa | 2.4V | 00:00:00 | 01:29:52 | 00:00:00 | |
| PG1ADW-2 | 2026-09-06 00:45:25 | 47.64187 | 17.73830 | 116° | 27km/h | 20497m | 4.3m/s | -56.1°C | 3.9% | 0hPa | 2.4V | 00:00:00 | 00:00:00 | 00:00:00 | |
| OE5DRO-10 | 2026-09-06 00:45:24 | 47.64190 | 17.73821 | 117° | 27km/h | 20492m | 3.7m/s | -56.2°C | 3.9% | 0hPa | 2.4V | 00:00:00 | 00:00:00 | 00:00:00 | |
| OE3MUC-15 | 2026-09-06 00:45:19 | 47.64200 | 17.73768 | 99° | 33km/h | 20468m | 5.2m/s | -56.3°C | 3.9% | 0hPa | 2.4V | 00:00:00 | 00:00:00 | 08:30:00 | |
| DO3MHA-11 | 2026-09-06 00:45:17 | 47.64203 | 17.73742 | 99° | 26km/h | 20458m | 4.3m/s | -56.4°C | 3.9% | 0hPa | 2.5V | 00:00:00 | 01:29:42 | 00:00:00 | |
| OE3MUC-15 | 2026-09-06 00:45:15 | 47.64204 | 17.73721 | 98° | 26km/h | 20448m | 4.2m/s | -56.5°C | 4.0% | 0hPa | 2.5V | 00:00:00 | 00:00:00 | 00:00:00 | |
| HA6NAB-11 | 2026-09-06 00:45:13 | 47.64207 | 17.73703 | 111° | 26km/h | 20439m | 5.9m/s | -57.0°C | 1.1% | 0hPa | 2.5V | 00:00:00 | 00:00:00 | 00:00:00 | |
| OE5DXL-15 | 2026-09-06 00:45:12 | 47.64210 | 17.73695 | 114° | 26km/h | 20433m | 4.3m/s | -57.0°C | 4.2% | 0hPa | 2.5V | 00:00:00 | 01:29:37 | 00:00:00 | |
| OE3MUC-15 | 2026-09-06 00:45:11 | 47.64212 | 17.73686 | 114° | 24km/h | 20429m | 4.1m/s | -57.1°C | 4.3% | 0hPa | 2.5V | 00:00:00 | 00:00:00 | 00:00:00 | |
| DO3MHA-11 | 2026-09-06 00:45:07 | 47.64219 | 17.73652 | 105° | 27km/h | 20411m | 4.2m/s | -57.3°C | 4.3% | 0hPa | 2.5V | 00:00:00 | 01:29:32 | 00:00:00 | |
| OE3MUC-15 | 2026-09-06 00:45:06 | 47.64221 | 17.73643 | 106° | 27km/h | 20406m | 5.4m/s | -57.3°C | 4.3% | 0hPa | 2.5V | 00:00:00 | 00:00:00 | 00:00:00 | |
| PG1ADW-2 | 2026-09-06 00:45:05 | 47.64223 | 17.73633 | 108° | 26km/h | 20401m | 4.0m/s | -57.3°C | 4.4% | 0hPa | 2.4V | 00:00:00 | 00:00:00 | 00:00:00 | |
| PETON7-10 | 2026-09-06 00:44:58 | 47.64232 | 17.73563 | 89° | 26km/h | 20366m | 6.1m/s | -57.5°C | 4.3% | 0hPa | 2.4V | 00:00:00 | 01:29:23 | 00:00:00 | |
| HA6NAB-11 | 2026-09-06 00:44:57 | 47.64231 | 17.73553 | 85° | 26km/h | 20361m | 4.6m/s | -57.5°C | 1.1% | 0hPa | 2.4V | 00:00:00 | 00:00:00 | 00:00:00 | |
| HA6NAB-11 | 2026-09-06 00:44:51 | 47.64228 | 17.73504 | 83° | 24km/h | 20335m | 5.1m/s | -57.4°C | 1.2% | 0hPa | 2.4V | 00:00:00 | 00:00:00 | 00:00:00 | |
| DO3MHA-11 | 2026-09-06 00:44:47 | 47.64228 | 17.73456 | 94° | 20km/h | 20311m | 5.3m/s | -57.2°C | 4.3% | 0hPa | 2.4V | 00:00:00 | 01:29:12 | 00:00:00 | |
| OE5DRO-10 | 2026-09-06 00:44:46 | 47.64229 | 17.73447 | 94° | 20km/h | 20305m | 5.1m/s | -57.2°C | 4.4% | 0hPa | 2.4V | 00:00:00 | 00:00:00 | 00:00:00 | |
| PG1ADW-2 | 2026-09-06 00:44:45 | 47.64229 | 17.73440 | 96° | 20km/h | 20300m | 4.3m/s | -57.1°C | 4.4% | 0hPa | 2.4V | 00:00:00 | 01:29:10 | 00:00:00 | |
| PETON7-10 | 2026-09-06 00:44:43 | 47.64230 | 17.73423 | 96° | 20km/h | 20290m | 4.2m/s | -57.0°C | 4.3% | 0hPa | 2.4V | 00:00:00 | 00:00:00 | 08:30:00 | |
| OE5DXL-15 | 2026-09-06 00:44:42 | 47.64231 | 17.73416 | 91° | 20km/h | 20285m | 4.1m/s | -57.0°C | 4.3% | 0hPa | 2.4V | 00:00:00 | 00:00:00 | 00:00:00 | |
| HA6NAB-11 | 2026-09-06 00:44:40 | 47.64231 | 17.73410 | 86° | 16km/h | 20280m | 5.8m/s | -57.0°C | 1.1% | 0hPa | 2.4V | 00:00:00 | 00:00:00 | 00:00:00 | |
| DO3MHA-11 | 2026-09-06 00:44:37 | 47.64228 | 17.73380 | 87° | 20km/h | 20260m | 3.9m/s | -56.8°C | 4.3% | 0hPa | 2.4V | 00:00:00 | 01:29:02 | 00:00:00 | |
| S52SK | 2026-09-06 00:44:30 | 47.64228 | 17.73329 | 98° | 22km/h | 20230m | 3.8m/s | -56.6°C | 1.0% | 0hPa | 2.4V | 00:00:00 | 00:00:00 | 00:00:00 | |
| PETON7-10 | 2026-09-06 00:44:28 | 47.64231 | 17.73311 | 110° | 20km/h | 20215m | 4.1m/s | -56.4°C | 4.3% | 0hPa | 2.4V | 00:00:00 | 00:00:00 | 00:00:00 | |
| DO3MHA-11 | 2026-09-06 00:44:27 | 47.64232 | 17.73306 | 109° | 22km/h | 20210m | 5.2m/s | -56.4°C | 4.3% | 0hPa | 2.4V | 00:00:00 | 01:28:52 | 00:00:00 | |
| S52SK | 2026-09-06 00:44:26 | 47.64233 | 17.73301 | 102° | 16km/h | 20205m | 4.9m/s | -56.4°C | 1.0% | 0hPa | 2.4V | 00:00:00 | 00:00:00 | 00:00:00 | |
| PG1ADW-2 | 2026-09-06 00:44:25 | 47.64233 | 17.73294 | 94° | 16km/h | 20200m | 4.0m/s | -56.3°C | 4.2% | 0hPa | 2.4V | 00:00:00 | 00:00:00 | 08:30:00 | |
| DO3MHA-11 | 2026-09-06 00:44:17 | 47.64230 | 17.73227 | 97° | 15km/h | 20161m | 5.6m/s | -56.0°C | 4.1% | 0hPa | 2.4V | 00:00:00 | 01:28:42 | 08:30:00 | |
| OE3OSB-13 | 2026-09-06 00:44:15 | 47.64233 | 17.73215 | 117° | 15km/h | 20152m | 4.0m/s | -55.9°C | 0.9% | -1.0hPa | 2.4V | 00:00:00 | 00:00:00 | 00:00:00 | |
| PETON7-10 | 2026-09-06 00:44:13 | 47.64236 | 17.73204 | 111° | 15km/h | 20140m | 6.1m/s | -55.8°C | 4.1% | 0hPa | 2.4V | 00:00:00 | 01:28:38 | 00:00:00 | |
| OE5DXL-15 | 2026-09-06 00:44:12 | 47.64238 | 17.73195 | 116° | 13km/h | 20130m | 5.0m/s | -55.7°C | 4.1% | 0hPa | 2.4V | 00:00:00 | 00:00:00 | 00:00:00 | |
| OE5DRO-10 | 2026-09-06 00:44:08 | 47.64242 | 17.73186 | 110° | 15km/h | 20114m | 5.1m/s | -55.5°C | 4.1% | 0hPa | 2.5V | 00:00:00 | 00:00:00 | 00:00:00 | |
| DO3MHA-11 | 2026-09-06 00:44:07 | 47.64242 | 17.73182 | 103° | 16km/h | 20108m | 6.1m/s | -55.5°C | 4.0% | 0hPa | 2.5V | 00:00:00 | 01:28:32 | 00:00:00 | |
| PG1ADW-2 | 2026-09-06 00:44:05 | 47.64245 | 17.73170 | 110° | 15km/h | 20099m | 4.0m/s | -55.4°C | 4.0% | 0hPa | 2.5V | 00:00:00 | 00:00:00 | 00:00:00 | |
| OE3MUC-15 | 2026-09-06 00:44:02 | 47.64251 | 17.73153 | 120° | 15km/h | 20084m | 4.3m/s | -55.2°C | 4.0% | 0hPa | 2.5V | 00:00:00 | 00:00:00 | 00:00:00 | |
| OE3OSB-13 | 2026-09-06 00:43:44 | 47.64278 | 17.73072 | 154° | 13km/h | 19992m | 4.2m/s | -54.7°C | 0.8% | -1.0hPa | 2.5V | 00:00:00 | 00:00:00 | 00:00:00 | |
| PETON7-10 | 2026-09-06 00:43:43 | 47.64281 | 17.73070 | 154° | 15km/h | 19988m | 5.2m/s | -54.6°C | 3.7% | 0hPa | 2.5V | 00:00:00 | 00:00:00 | 00:00:00 | |
| OE5DXL-15 | 2026-09-06 00:43:42 | 47.64283 | 17.73068 | 149° | 15km/h | 19982m | 5.4m/s | -54.7°C | 3.8% | 0hPa | 2.5V | 00:00:00 | 00:00:00 | 00:00:00 | |
| DO3MHA-11 | 2026-09-06 00:43:37 | 47.64297 | 17.73053 | 141° | 16km/h | 19959m | 3.7m/s | -54.9°C | 3.8% | 0hPa | 2.5V | 00:00:00 | 01:28:02 | 00:00:00 | |
| OE5DRO-10 | 2026-09-06 00:43:30 | 47.64319 | 17.73030 | 156° | 15km/h | 19922m | 4.7m/s | -54.9°C | 3.9% | 0hPa | 2.5V | 00:00:00 | 00:00:00 | 08:30:00 | |
| PETON7-10 | 2026-09-06 00:43:28 | 47.64327 | 17.73023 | 149° | 15km/h | 19912m | 4.7m/s | -54.9°C | 3.9% | 0hPa | 2.5V | 00:00:00 | 01:27:53 | 00:00:00 | |
| DO3MHA-11 | 2026-09-06 00:43:27 | 47.64331 | 17.73019 | 146° | 15km/h | 19906m | 5.3m/s | -54.9°C | 3.9% | 0hPa | 2.5V | 00:00:00 | 01:27:52 | 00:00:00 | |
| PG1ADW-2 | 2026-09-06 00:43:25 | 47.64340 | 17.73010 | 145° | 15km/h | 19897m | 3.2m/s | -54.9°C | 3.8% | 0hPa | 2.5V | 00:00:00 | 01:27:50 | 00:00:00 | |
| DO3MHA-11 | 2026-09-06 00:43:17 | 47.64361 | 17.72989 | 147° | 15km/h | 19856m | 3.7m/s | -54.9°C | 3.9% | 0hPa | 2.4V | 00:00:00 | 01:27:42 | 00:00:00 | |
| PETON7-10 | 2026-09-06 00:43:13 | 47.64372 | 17.72980 | 154° | 13km/h | 19838m | 4.2m/s | -54.7°C | 3.8% | 0hPa | 2.5V | 00:00:00 | 00:00:00 | 00:00:00 | |
| OE5DXL-15 | 2026-09-06 00:43:12 | 47.64376 | 17.72977 | 156° | 13km/h | 19833m | 4.7m/s | -54.7°C | 3.8% | 0hPa | 2.4V | 00:00:00 | 00:00:00 | 00:00:00 | |
| OE5DRO-10 | 2026-09-06 00:43:11 | 47.64380 | 17.72975 | 163° | 13km/h | 19828m | 4.6m/s | -54.8°C | 3.8% | 0hPa | 2.4V | 00:00:00 | 00:00:00 | 00:00:00 | |
| DO3MHA-11 | 2026-09-06 00:43:07 | 47.64396 | 17.72972 | 181° | 11km/h | 19809m | 4.1m/s | -54.8°C | 3.9% | 0hPa | 2.4V | 00:00:00 | 01:27:32 | 00:00:00 | |
| PG1ADW-2 | 2026-09-06 00:43:05 | 47.64402 | 17.72972 | 183° | 11km/h | 19799m | 5.4m/s | -54.8°C | 3.9% | 0hPa | 2.4V | 00:00:00 | 00:00:00 | 00:00:00 | |
| OE3MUC-15 | 2026-09-06 00:42:59 | 47.64415 | 17.72960 | 161° | 9km/h | 19770m | 4.2m/s | -54.7°C | 3.9% | 0hPa | 2.4V | 00:00:00 | 00:00:00 | 00:00:00 | |
| PETON7-10 | 2026-09-06 00:42:58 | 47.64418 | 17.72959 | 172° | 13km/h | 19766m | 3.9m/s | -54.6°C | 3.8% | 0hPa | 2.4V | 00:00:00 | 00:00:00 | 00:00:00 | |
| DO3MHA-11 | 2026-09-06 00:42:57 | 47.64421 | 17.72959 | 175° | 13km/h | 19761m | 5.5m/s | -54.6°C | 3.8% | 0hPa | 2.4V | 00:00:00 | 01:27:22 | 00:00:00 | |
| HA6NAB-11 | 2026-09-06 00:42:54 | 47.64433 | 17.72957 | 175° | 15km/h | 19747m | 5.5m/s | -54.6°C | 0.9% | 0hPa | 2.4V | 00:00:00 | 00:00:00 | 00:00:00 | |
| OE5DRO-10 | 2026-09-06 00:42:52 | 47.64440 | 17.72954 | 153° | 13km/h | 19737m | 4.8m/s | -54.5°C | 3.8% | 0hPa | 2.4V | 00:00:00 | 00:00:00 | 00:00:00 | |
| OE3MUC-15 | 2026-09-06 00:42:50 | 47.64445 | 17.72949 | 141° | 11km/h | 19728m | 3.9m/s | -54.4°C | 3.8% | 0hPa | 2.4V | 00:00:00 | 00:00:00 | 08:30:00 | |
| HA6NAB-11 | 2026-09-06 00:42:48 | 47.64449 | 17.72942 | 124° | 7km/h | 19718m | 4.7m/s | -54.5°C | 1.0% | 0hPa | 2.5V | 00:00:00 | 00:00:00 | 00:00:00 | |
| DO3MHA-11 | 2026-09-06 00:42:47 | 47.64450 | 17.72940 | 131° | 15km/h | 19714m | 3.5m/s | -54.4°C | 3.8% | 0hPa | 2.5V | 00:00:00 | 01:27:12 | 08:30:00 | |
| OE3MUC-15 | 2026-09-06 00:42:46 | 47.64452 | 17.72938 | 152° | 15km/h | 19709m | 4.4m/s | -54.4°C | 3.7% | 0hPa | 2.4V | 00:00:00 | 00:00:00 | 00:00:00 | |
| PG1ADW-2 | 2026-09-06 00:42:45 | 47.64455 | 17.72936 | 157° | 15km/h | 19705m | 4.7m/s | -54.3°C | 3.7% | 0hPa | 2.4V | 00:00:00 | 00:00:00 | 00:00:00 | |
| PETON7-10 | 2026-09-06 00:42:43 | 47.64462 | 17.72930 | 142° | 15km/h | 19696m | 4.5m/s | -54.3°C | 3.7% | 0hPa | 2.4V | 00:00:00 | 01:27:08 | 00:00:00 | |
| OE3MUC-15 | 2026-09-06 00:42:42 | 47.64466 | 17.72926 | 141° | 15km/h | 19691m | 5.1m/s | -54.3°C | 3.7% | 0hPa | 2.4V | 00:00:00 | 00:00:00 | 00:00:00 | |
| HA6NAB-11 | 2026-09-06 00:42:41 | 47.64466 | 17.72926 | 141° | 16km/h | 19691m | 5.2m/s | -54.3°C | 0.9% | 0hPa | 2.4V | 00:00:00 | 00:00:00 | 00:00:00 | |
| DO3MHA-12 | 2026-09-06 00:42:37 | 47.64482 | 17.72912 | 156° | 13km/h | 19668m | 4.1m/s | 0°C | 0% | 0hPa | 2.4V | 00:00:00 | 01:27:02 | 00:00:00 | |
| HA6NAB-11 | 2026-09-06 00:42:36 | 47.64485 | 17.72910 | 156° | 11km/h | 19664m | 5.4m/s | -54.3°C | 1.0% | 0hPa | 2.4V | 00:00:00 | 00:00:00 | 00:00:00 | |
| OE5DRO-10 | 2026-09-06 00:42:33 | 47.64493 | 17.72903 | 152° | 15km/h | 19650m | 4.7m/s | -54.3°C | 3.8% | 0hPa | 2.4V | 00:00:00 | 00:00:00 | 00:00:00 | |
| HA6NAB-11 | 2026-09-06 00:42:30 | 47.64499 | 17.72897 | 129° | 16km/h | 19641m | 5.2m/s | -54.3°C | 0.9% | 0hPa | 2.6V | 00:00:00 | 00:00:00 | 00:00:00 | |
| PETON7-10 | 2026-09-06 00:42:28 | 47.64505 | 17.72880 | 126° | 15km/h | 19627m | 5.0m/s | -54.2°C | 3.7% | 0hPa | 2.6V | 00:00:00 | 00:00:00 | 08:30:00 | |
| DO3MHA-11 | 2026-09-06 00:42:27 | 47.64508 | 17.72875 | 134° | 13km/h | 19622m | 4.6m/s | -54.2°C | 3.8% | 0hPa | 2.6V | 00:00:00 | 01:26:52 | 00:00:00 | |
| DO3MHA-12 | 2026-09-06 00:42:26 | 47.64510 | 17.72872 | 146° | 15km/h | 19618m | 3.7m/s | 0°C | 0% | 0hPa | 2.6V | 00:00:00 | 01:26:51 | 00:00:00 | |
| HA6NAB-11 | 2026-09-06 00:42:25 | 47.64513 | 17.72869 | 141° | 13km/h | 19614m | 3.7m/s | -54.2°C | 1.0% | 0hPa | 2.6V | 00:00:00 | 00:00:00 | 00:00:00 | |
| DO3MHA-11 | 2026-09-06 00:42:17 | 47.64531 | 17.72841 | 123° | 15km/h | 19576m | 4.2m/s | -54.0°C | 3.7% | 0hPa | 2.6V | 00:00:00 | 01:26:42 | 00:00:00 | |
| OE5DRO-10 | 2026-09-06 00:42:14 | 47.64539 | 17.72827 | 132° | 15km/h | 19562m | 3.5m/s | -53.9°C | 3.7% | 0hPa | 2.5V | 00:00:00 | 00:00:00 | 00:00:00 | |
| PETON7-10 | 2026-09-06 00:42:13 | 47.64542 | 17.72822 | 121° | 15km/h | 19557m | 4.9m/s | -53.9°C | 3.7% | 0hPa | 2.5V | 00:00:00 | 00:00:00 | 00:00:00 | |
| DO3MHA-12 | 2026-09-06 00:42:12 | 47.64544 | 17.72816 | 113° | 13km/h | 19552m | 4.8m/s | 0°C | 0% | 0hPa | 2.5V | 00:00:00 | 01:26:37 | 00:00:00 | |
| OE3OSB-13 | 2026-09-06 00:42:11 | 47.64547 | 17.72805 | 119° | 13km/h | 19542m | 5.8m/s | -53.8°C | 0.8% | -1.0hPa | 2.5V | 00:00:00 | 00:00:00 | 00:00:00 | |
| DO3MHA-11 | 2026-09-06 00:42:07 | 47.64552 | 17.72796 | 129° | 15km/h | 19527m | 5.3m/s | -53.6°C | 3.6% | 0hPa | 2.5V | 00:00:00 | 01:26:32 | 00:00:00 | |
| PG1ADW-2 | 2026-09-06 00:42:05 | 47.64556 | 17.72790 | 135° | 16km/h | 19517m | 3.2m/s | -53.6°C | 3.7% | 0hPa | 2.5V | 00:00:00 | 01:26:30 | 00:00:00 | |
| DO3MHA-12 | 2026-09-06 00:42:02 | 47.64564 | 17.72780 | 139° | 16km/h | 19503m | 3.9m/s | 0°C | 0% | 0hPa | 2.5V | 00:00:00 | 01:26:27 | 00:00:00 | |
| PETON7-10 | 2026-09-06 00:41:58 | 47.64576 | 17.72763 | 144° | 18km/h | 19484m | 5.3m/s | -53.6°C | 3.6% | 0hPa | 2.5V | 00:00:00 | 01:26:23 | 00:00:00 | |
| DO3MHA-11 | 2026-09-06 00:41:57 | 47.64579 | 17.72759 | 150° | 18km/h | 19479m | 4.1m/s | -53.5°C | 3.6% | 0hPa | 2.5V | 00:00:00 | 01:26:22 | 00:00:00 | |
| OE5DRO-10 | 2026-09-06 00:41:55 | 47.64586 | 17.72751 | 131° | 27km/h | 19468m | 5.6m/s | -53.4°C | 3.6% | 0hPa | 2.5V | 00:00:00 | 00:00:00 | 00:00:00 | |
| DO3MHA-12 | 2026-09-06 00:41:52 | 47.64593 | 17.72737 | 136° | 20km/h | 19456m | 5.3m/s | 0°C | 0% | 0hPa | 2.5V | 00:00:00 | 01:26:17 | 00:00:00 | |
| OE3MUC-15 | 2026-09-06 00:41:48 | 47.64607 | 17.72720 | 133° | 24km/h | 19436m | 4.3m/s | -53.4°C | 3.5% | 0hPa | 2.5V | 00:00:00 | 00:00:00 | 00:00:00 | |
| DO3MHA-11 | 2026-09-06 00:41:47 | 47.64611 | 17.72714 | 137° | 22km/h | 19431m | 4.4m/s | -53.4°C | 3.5% | 0hPa | 2.4V | 00:00:00 | 01:26:12 | 00:00:00 | |
| PG1ADW-2 | 2026-09-06 00:41:45 | 47.64620 | 17.72703 | 142° | 24km/h | 19422m | 4.1m/s | -53.4°C | 3.6% | 0hPa | 2.6V | 00:00:00 | 00:00:00 | 00:00:00 | |
| PETON7-10 | 2026-09-06 00:41:43 | 47.64629 | 17.72691 | 132° | 24km/h | 19411m | 5.3m/s | -53.4°C | 3.6% | 0hPa | 2.6V | 00:00:00 | 00:00:00 | 00:00:00 | |
| OE5DXL-15 | 2026-09-06 00:41:42 | 47.64640 | 17.72673 | 140° | 29km/h | 19396m | 4.7m/s | -53.3°C | 3.6% | 0hPa | 2.4V | 00:00:00 | 00:00:00 | 00:00:00 | |
| OE3OSB-13 | 2026-09-06 00:41:40 | 47.64643 | 17.72668 | 128° | 18km/h | 19391m | 3.7m/s | -53.3°C | 0.7% | -1.0hPa | 2.4V | 00:00:00 | 00:00:00 | 00:00:00 | |
| DO3MHA-11 | 2026-09-06 00:41:37 | 47.64649 | 17.72657 | 121° | 26km/h | 19382m | 4.5m/s | -53.2°C | 3.5% | 0hPa | 2.4V | 00:00:00 | 01:26:02 | 00:00:00 | |
| DO3MHA-12 | 2026-09-06 00:41:32 | 47.64665 | 17.72624 | 125° | 29km/h | 19358m | 5.6m/s | 0°C | 0% | 0hPa | 2.4V | 00:00:00 | 01:25:57 | 00:00:00 | |
| PETON7-10 | 2026-09-06 00:41:28 | 47.64684 | 17.72587 | 127° | 33km/h | 19340m | 3.5m/s | -53.5°C | 3.6% | 0hPa | 2.4V | 00:00:00 | 00:00:00 | 00:00:00 | |
| DO3MHA-11 | 2026-09-06 00:41:27 | 47.64688 | 17.72577 | 123° | 31km/h | 19335m | 5.7m/s | -53.5°C | 3.6% | 0hPa | 2.4V | 00:00:00 | 01:25:52 | 00:00:00 | |
| PG1ADW-2 | 2026-09-06 00:41:25 | 47.64696 | 17.72559 | 130° | 31km/h | 19326m | 4.2m/s | -53.4°C | 3.7% | 0hPa | 2.4V | 00:00:00 | 00:00:00 | 08:30:00 | |
| DO3MHA-11 | 2026-09-06 00:41:17 | 47.64739 | 17.72487 | 129° | 33km/h | 19286m | 5.7m/s | -53.1°C | 3.6% | 0hPa | 2.5V | 00:00:00 | 01:25:42 | 08:30:00 | |
| OE5DRO-10 | 2026-09-06 00:41:16 | 47.64745 | 17.72476 | 130° | 31km/h | 19281m | 3.9m/s | -53.1°C | 3.6% | 0hPa | 2.4V | 00:00:00 | 00:00:00 | 00:00:00 | |
| PETON7-10 | 2026-09-06 00:41:13 | 47.64760 | 17.72442 | 121° | 29km/h | 19267m | 4.3m/s | -53.0°C | 3.5% | 0hPa | 2.4V | 00:00:00 | 01:25:38 | 00:00:00 | |
| DO3MHA-12 | 2026-09-06 00:41:12 | 47.64764 | 17.72432 | 126° | 27km/h | 19262m | 5.7m/s | 0°C | 0% | 0hPa | 2.4V | 00:00:00 | 01:25:37 | 00:00:00 | |
| OE5DXL-15 | 2026-09-06 00:41:11 | 47.64774 | 17.72416 | 139° | 33km/h | 19252m | 3.9m/s | -52.9°C | 3.6% | 0hPa | 2.4V | 00:00:00 | 00:00:00 | 08:30:00 | |
| OE3OSB-13 | 2026-09-06 00:41:09 | 47.64783 | 17.72402 | 131° | 24km/h | 19242m | 5.3m/s | -52.9°C | 0.8% | -1.0hPa | 2.4V | 00:00:00 | 00:00:00 | 00:00:00 | |
| DO3MHA-11 | 2026-09-06 00:41:07 | 47.64788 | 17.72395 | 136° | 31km/h | 19237m | 4.6m/s | -52.8°C | 3.5% | 0hPa | 2.4V | 00:00:00 | 01:25:32 | 00:00:00 | |
| PG1ADW-2 | 2026-09-06 00:41:05 | 47.64799 | 17.72381 | 142° | 33km/h | 19226m | 5.1m/s | -52.8°C | 3.5% | 0hPa | 2.4V | 00:00:00 | 00:00:00 | 00:00:00 | |
| PETON7-10 | 2026-09-06 00:40:58 | 47.64839 | 17.72323 | 142° | 35km/h | 19192m | 4.0m/s | -52.7°C | 3.4% | 0hPa | 2.4V | 00:00:00 | 00:00:00 | 00:00:00 | |
| DO3MHA-11 | 2026-09-06 00:40:57 | 47.64845 | 17.72315 | 136° | 35km/h | 19187m | 5.3m/s | -52.7°C | 3.4% | 0hPa | 2.4V | 00:00:00 | 01:25:22 | 00:00:00 | |
| DO3MHA-11 | 2026-09-06 00:40:47 | 47.64910 | 17.72230 | 140° | 38km/h | 19141m | 4.4m/s | -52.7°C | 3.4% | 0hPa | 2.4V | 00:00:00 | 01:25:12 | 00:00:00 | |
| PG1ADW-2 | 2026-09-06 00:40:45 | 47.64926 | 17.72213 | 148° | 40km/h | 19131m | 4.7m/s | -52.6°C | 3.4% | 0hPa | 2.6V | 00:00:00 | 01:25:10 | 00:00:00 | |
| PETON7-10 | 2026-09-06 00:40:43 | 47.64941 | 17.72199 | 144° | 40km/h | 19122m | 5.4m/s | -52.6°C | 3.4% | 0hPa | 2.6V | 00:00:00 | 00:00:00 | 00:00:00 | |
| S52SK | 2026-09-06 00:40:40 | 47.64954 | 17.72183 | 144° | 37km/h | 19113m | 3.7m/s | -52.6°C | 0.9% | 0hPa | 2.6V | 00:00:00 | 00:00:00 | 00:00:00 | |
| OE3MUC-15 | 2026-09-06 00:40:39 | 47.64970 | 17.72166 | 147° | 42km/h | 19103m | 4.7m/s | -52.5°C | 3.4% | 0hPa | 2.6V | 00:00:00 | 00:00:00 | 08:30:00 | |
| OE3OSB-13 | 2026-09-06 00:40:38 | 47.64989 | 17.72147 | 142° | 44km/h | 19093m | 5.6m/s | -52.5°C | 0.8% | -1.0hPa | 2.4V | 00:00:00 | 00:00:00 | 00:00:00 | |
| DO3MHA-11 | 2026-09-06 00:40:37 | 47.64989 | 17.72147 | 143° | 42km/h | 19093m | 5.6m/s | -52.5°C | 3.4% | 0hPa | 2.4V | 00:00:00 | 01:25:02 | 00:00:00 | |
| S52SK | 2026-09-06 00:40:34 | 47.65007 | 17.72126 | 142° | 42km/h | 19083m | 3.7m/s | -52.5°C | 0.9% | 0hPa | 2.4V | 00:00:00 | 00:00:00 | 00:00:00 | |
| OE3MUC-15 | 2026-09-06 00:40:32 | 47.65034 | 17.72101 | 152° | 40km/h | 19069m | 3.7m/s | -52.5°C | 3.3% | 0hPa | 2.4V | 00:00:00 | 00:00:00 | 00:00:00 | |
| PETON7-10 | 2026-09-06 00:40:28 | 47.65068 | 17.72069 | 147° | 49km/h | 19049m | 5.3m/s | -52.9°C | 3.3% | 0hPa | 2.4V | 00:00:00 | 01:24:53 | 00:00:00 | |
| DO3MHA-11 | 2026-09-06 00:40:27 | 47.65077 | 17.72060 | 149° | 49km/h | 19044m | 5.2m/s | -53.0°C | 3.3% | 0hPa | 2.4V | 00:00:00 | 01:24:52 | 00:00:00 | |
| PG1ADW-2 | 2026-09-06 00:40:25 | 47.65097 | 17.72042 | 145° | 51km/h | 19035m | 5.8m/s | -53.3°C | 3.4% | 0hPa | 2.4V | 00:00:00 | 00:00:00 | 00:00:00 | |
| OE3MUC-15 | 2026-09-06 00:40:23 | 47.65117 | 17.72019 | 145° | 51km/h | 19024m | 3.8m/s | -53.5°C | 3.5% | 0hPa | 2.6V | 00:00:00 | 00:00:00 | 00:00:00 | |
| HA6NAB-11 | 2026-09-06 00:40:22 | 47.65117 | 17.72019 | 145° | 51km/h | 19024m | 3.8m/s | -53.6°C | 0.9% | 0hPa | 2.6V | 00:00:00 | 00:00:00 | 00:00:00 | |
| OE3MUC-15 | 2026-09-06 00:40:19 | 47.65160 | 17.71977 | 143° | 47km/h | 19005m | 5.9m/s | -53.6°C | 3.4% | 0hPa | 2.6V | 00:00:00 | 00:00:00 | 00:00:00 | |
| DO3MHA-11 | 2026-09-06 00:40:17 | 47.65178 | 17.71953 | 138° | 49km/h | 18995m | 3.7m/s | -53.7°C | 3.5% | 0hPa | 2.6V | 00:00:00 | 01:24:42 | 00:00:00 | |
| HA6NAB-11 | 2026-09-06 00:40:16 | 47.65178 | 17.71953 | 138° | 46km/h | 18995m | 3.7m/s | -53.7°C | 0.9% | 0hPa | 2.4V | 00:00:00 | 00:00:00 | 00:00:00 | |
| OE3MUC-15 | 2026-09-06 00:40:15 | 47.65197 | 17.71930 | 142° | 47km/h | 18985m | 4.7m/s | -53.8°C | 3.5% | 0hPa | 2.4V | 00:00:00 | 00:00:00 | 00:00:00 | |
| PETON7-10 | 2026-09-06 00:40:13 | 47.65215 | 17.71908 | 140° | 55km/h | 18976m | 4.2m/s | -53.8°C | 3.5% | 0hPa | 2.4V | 00:00:00 | 00:00:00 | 08:30:00 | |
| HA6NAB-11 | 2026-09-06 00:40:11 | 47.65232 | 17.71882 | 129° | 47km/h | 18966m | 5.5m/s | -54.0°C | 1.0% | 0hPa | 2.4V | 00:00:00 | 00:00:00 | 00:00:00 | |
| OE5DXL-15 | 2026-09-06 00:40:10 | 47.65240 | 17.71867 | 127° | 66km/h | 18960m | 4.7m/s | -54.0°C | 3.6% | 0hPa | 2.4V | 00:00:00 | 00:00:00 | 00:00:00 | |
| OE3OSB-13 | 2026-09-06 00:40:07 | 47.65278 | 17.71805 | 135° | 58km/h | 18940m | 4.8m/s | -54.4°C | 0.8% | -1.0hPa | 2.4V | 00:00:00 | 00:00:00 | 00:00:00 | |
| PG1ADW-2 | 2026-09-06 00:40:05 | 47.65289 | 17.71789 | 133° | 66km/h | 18935m | 4.4m/s | -54.4°C | 3.7% | 0hPa | 2.4V | 00:00:00 | 00:00:00 | 00:00:00 | |
| HA6NAB-11 | 2026-09-06 00:40:04 | 47.65289 | 17.71789 | 134° | 58km/h | 18935m | 4.5m/s | -54.5°C | 1.0% | 0hPa | 2.4V | 00:00:00 | 00:00:00 | 00:00:00 | |
| OE3MUC-15 | 2026-09-06 00:40:03 | 47.65307 | 17.71755 | 125° | 55km/h | 18924m | 5.2m/s | -54.8°C | 3.7% | 0hPa | 2.4V | 00:00:00 | 00:00:00 | 00:00:00 | |
| OE3MUC-15 | 2026-09-06 00:39:59 | 47.65338 | 17.71686 | 124° | 69km/h | 18904m | 3.7m/s | -55.0°C | 3.8% | 0hPa | 2.4V | 00:00:00 | 00:00:00 | 08:30:00 | |
| PETON7-10 | 2026-09-06 00:39:58 | 47.65347 | 17.71666 | 123° | 71km/h | 18899m | 5.4m/s | -55.0°C | 3.8% | 0hPa | 2.4V | 00:00:00 | 00:00:00 | 00:00:00 | |
| DO3MHA-11 | 2026-09-06 00:39:57 | 47.65356 | 17.71644 | 120° | 73km/h | 18893m | 5.7m/s | -55.1°C | 3.8% | 0hPa | 2.4V | 00:00:00 | 01:24:22 | 00:00:00 | |
| OE3MUC-15 | 2026-09-06 00:39:55 | 47.65375 | 17.71596 | 123° | 77km/h | 18883m | 5.9m/s | -55.2°C | 3.9% | 0hPa | 2.4V | 00:00:00 | 00:00:00 | 00:00:00 | |
| HA6NAB-11 | 2026-09-06 00:39:54 | 47.65386 | 17.71572 | 126° | 78km/h | 18877m | 4.8m/s | -55.2°C | 1.1% | 0hPa | 2.4V | 00:00:00 | 00:00:00 | 00:00:00 | |
| OE3MUC-15 | 2026-09-06 00:39:51 | 47.65418 | 17.71501 | 122° | 69km/h | 18863m | 5.4m/s | -55.1°C | 3.9% | 0hPa | 2.4V | 00:00:00 | 00:00:00 | 00:00:00 | |
| DO3MHA-11 | 2026-09-06 00:39:47 | 47.65454 | 17.71414 | 119° | 71km/h | 18843m | 4.2m/s | -55.1°C | 3.8% | 0hPa | 2.4V | 00:00:00 | 01:24:12 | 08:30:00 | |
| OE3MUC-15 | 2026-09-06 00:39:45 | 47.65468 | 17.71369 | 113° | 73km/h | 18833m | 4.5m/s | -55.0°C | 3.8% | 0hPa | 2.6V | 00:00:00 | 00:00:00 | 00:00:00 | |
| PETON7-10 | 2026-09-06 00:39:43 | 47.65484 | 17.71320 | 117° | 71km/h | 18823m | 5.2m/s | -55.1°C | 3.9% | 0hPa | 2.5V | 00:00:00 | 01:24:08 | 00:00:00 | |
| OE5DRO-10 | 2026-09-06 00:39:41 | 47.65501 | 17.71271 | 117° | 71km/h | 18813m | 5.5m/s | -55.1°C | 3.9% | 0hPa | 2.5V | 00:00:00 | 00:00:00 | 00:00:00 | |
| OE5DXL-15 | 2026-09-06 00:39:40 | 47.65509 | 17.71246 | 117° | 69km/h | 18808m | 4.5m/s | -55.1°C | 3.9% | 0hPa | 2.5V | 00:00:00 | 00:00:00 | 00:00:00 | |
| DO3MHA-11 | 2026-09-06 00:39:37 | 47.65536 | 17.71175 | 122° | 71km/h | 18794m | 3.8m/s | -55.2°C | 3.9% | 0hPa | 2.4V | 00:00:00 | 01:24:02 | 00:00:00 | |
| OE3OSB-13 | 2026-09-06 00:39:36 | 47.65554 | 17.71129 | 115° | 69km/h | 18785m | 5.3m/s | -55.3°C | 0.9% | -1.0hPa | 2.4V | 00:00:00 | 00:00:00 | 00:00:00 | |
| PETON7-10 | 2026-09-06 00:39:28 | 47.65612 | 17.70967 | 118° | 71km/h | 18756m | 4.6m/s | -55.3°C | 4.0% | 0hPa | 2.4V | 00:00:00 | 00:00:00 | 00:00:00 | |
| DO3MHA-11 | 2026-09-06 00:39:27 | 47.65621 | 17.70942 | 116° | 71km/h | 18751m | 3.8m/s | -55.3°C | 3.9% | 0hPa | 2.6V | 00:00:00 | 01:23:52 | 00:00:00 | |
| PG1ADW-2 | 2026-09-06 00:39:25 | 47.65637 | 17.70893 | 116° | 68km/h | 18742m | 5.0m/s | -55.3°C | 3.8% | 0hPa | 2.6V | 00:00:00 | 01:23:50 | 00:00:00 | |
| OE5DRO-10 | 2026-09-06 00:39:22 | 47.65658 | 17.70821 | 111° | 68km/h | 18728m | 4.9m/s | -55.2°C | 3.8% | 0hPa | 2.6V | 00:00:00 | 00:00:00 | 00:00:00 | |
| OE3MUC-15 | 2026-09-06 00:39:21 | 47.65664 | 17.70797 | 112° | 69km/h | 18724m | 3.6m/s | -55.2°C | 3.8% | 0hPa | 2.6V | 00:00:00 | 00:00:00 | 08:30:00 | |
| OE3MUC-15 | 2026-09-06 00:39:18 | 47.65691 | 17.70700 | 110° | 69km/h | 18707m | 4.6m/s | -55.2°C | 3.7% | 0hPa | 2.4V | 00:00:00 | 00:00:00 | 00:00:00 | |
| OE3MUC-15 | 2026-09-06 00:39:13 | 47.65715 | 17.70604 | 112° | 66km/h | 18690m | 2.6m/s | -55.6°C | 4.0% | 0hPa | 2.4V | 00:00:00 | 00:00:00 | 00:00:00 | |
| OE5DXL-15 | 2026-09-06 00:39:10 | 47.65731 | 17.70535 | 108° | 66km/h | 18678m | 3.7m/s | -55.8°C | 4.0% | 0hPa | 2.4V | 00:00:00 | 00:00:00 | 00:00:00 | |
| OE3MUC-15 | 2026-09-06 00:39:09 | 47.65736 | 17.70512 | 110° | 62km/h | 18674m | 3.4m/s | -55.8°C | 4.0% | 0hPa | 2.4V | 00:00:00 | 00:00:00 | 00:00:00 | |
| DO3MHA-11 | 2026-09-06 00:39:07 | 47.65748 | 17.70470 | 116° | 68km/h | 18666m | 3.7m/s | -55.9°C | 4.0% | 0hPa | 2.4V | 00:00:00 | 01:23:32 | 00:00:00 | |
| OE3OSB-13 | 2026-09-06 00:39:05 | 47.65771 | 17.70403 | 118° | 69km/h | 18654m | 3.0m/s | -56.1°C | 1.0% | -1.0hPa | 2.4V | 00:00:00 | 00:00:00 | 00:00:00 | |
| OE5DRO-10 | 2026-09-06 00:39:03 | 47.65779 | 17.70380 | 120° | 66km/h | 18650m | 3.8m/s | -56.1°C | 4.0% | 0hPa | 2.4V | 00:00:00 | 00:00:00 | 00:00:00 | |
| OE3MUC-15 | 2026-09-06 00:39:01 | 47.65797 | 17.70337 | 122° | 68km/h | 18642m | 3.5m/s | -56.1°C | 4.0% | 0hPa | 2.4V | 00:00:00 | 00:00:00 | 00:00:00 | |
| PETON7-10 | 2026-09-06 00:38:58 | 47.65821 | 17.70269 | 116° | 64km/h | 18631m | 3.9m/s | -56.2°C | 4.0% | 0hPa | 2.4V | 00:00:00 | 01:23:23 | 00:00:00 | |
| DO3MHA-11 | 2026-09-06 00:38:57 | 47.65828 | 17.70247 | 115° | 62km/h | 18626m | 4.4m/s | -56.3°C | 4.0% | 0hPa | 2.4V | 00:00:00 | 01:23:22 | 00:00:00 | |
| OE3MUC-15 | 2026-09-06 00:38:53 | 47.65853 | 17.70161 | 111° | 60km/h | 18607m | 5.2m/s | -56.5°C | 4.1% | 0hPa | 2.4V | 00:00:00 | 00:00:00 | 00:00:00 | |
| OE3MUC-15 | 2026-09-06 00:38:49 | 47.65874 | 17.70075 | 108° | 68km/h | 18588m | 2.9m/s | -56.6°C | 4.2% | 0hPa | 2.4V | 00:00:00 | 00:00:00 | 00:00:00 | |
| DO3MHA-11 | 2026-09-06 00:38:47 | 47.65883 | 17.70028 | 104° | 66km/h | 18578m | 4.4m/s | -56.7°C | 4.2% | 0hPa | 2.4V | 00:00:00 | 01:23:12 | 00:00:00 | |
| OE3MUC-15 | 2026-09-06 00:38:45 | 47.65889 | 17.69978 | 99° | 64km/h | 18570m | 4.6m/s | -56.7°C | 4.2% | 0hPa | 2.5V | 00:00:00 | 00:00:00 | 08:30:00 | |
| OE5DRO-10 | 2026-09-06 00:38:44 | 47.65892 | 17.69954 | 102° | 66km/h | 18565m | 5.1m/s | -56.7°C | 4.2% | 0hPa | 2.5V | 00:00:00 | 00:00:00 | 00:00:00 | |
| S52SK | 2026-09-06 00:38:43 | 47.65895 | 17.69931 | 104° | 62km/h | 18560m | 4.2m/s | -56.7°C | 1.2% | 0hPa | 2.5V | 00:00:00 | 00:00:00 | 00:00:00 | |
| OE3MUC-15 | 2026-09-06 00:38:40 | 47.65908 | 17.69862 | 105° | 68km/h | 18546m | 4.4m/s | -56.6°C | 4.2% | 0hPa | 2.5V | 00:00:00 | 00:00:00 | 00:00:00 | |
| DO3MHA-11 | 2026-09-06 00:38:37 | 47.65919 | 17.69786 | 100° | 66km/h | 18533m | 4.8m/s | -56.5°C | 4.2% | 0hPa | 2.5V | 00:00:00 | 01:23:02 | 00:00:00 | |
| OE3MUC-15 | 2026-09-06 00:38:35 | 47.65923 | 17.69737 | 96° | 68km/h | 18525m | 3.0m/s | -56.5°C | 4.2% | 0hPa | 2.5V | 00:00:00 | 00:00:00 | 00:00:00 | |
| S52SK | 2026-09-06 00:38:31 | 47.65927 | 17.69662 | 95° | 66km/h | 18513m | 3.6m/s | -56.4°C | 1.2% | 0hPa | 2.5V | 00:00:00 | 00:00:00 | 00:00:00 | |
| PETON7-10 | 2026-09-06 00:38:28 | 47.65932 | 17.69564 | 94° | 68km/h | 18496m | 5.2m/s | -56.3°C | 4.2% | 0hPa | 2.5V | 00:00:00 | 00:00:00 | 00:00:00 | |
| DO3MHA-11 | 2026-09-06 00:38:27 | 47.65933 | 17.69539 | 94° | 68km/h | 18491m | 4.0m/s | -56.3°C | 4.1% | 0hPa | 2.5V | 00:00:00 | 01:22:52 | 00:00:00 | |
| PG1ADW-2 | 2026-09-06 00:38:25 | 47.65934 | 17.69488 | 93° | 66km/h | 18482m | 4.4m/s | -56.3°C | 4.1% | 0hPa | 2.5V | 00:00:00 | 00:00:00 | 08:30:00 | |
| OE3MUC-15 | 2026-09-06 00:38:23 | 47.65936 | 17.69440 | 95° | 68km/h | 18473m | 5.0m/s | -56.3°C | 4.1% | 0hPa | 2.5V | 00:00:00 | 01:22:48 | 00:00:00 | |
| OE3MUC-15 | 2026-09-06 00:38:19 | 47.65944 | 17.69339 | 100° | 66km/h | 18454m | 4.3m/s | -56.5°C | 4.2% | 0hPa | 2.5V | 00:00:00 | 00:00:00 | 00:00:00 | |
| DO3MHA-11 | 2026-09-06 00:38:17 | 47.65949 | 17.69289 | 100° | 66km/h | 18443m | 4.6m/s | -56.5°C | 4.1% | 0hPa | 2.6V | 00:00:00 | 01:22:42 | 08:30:00 | |
| PETON7-10 | 2026-09-06 00:38:13 | 47.65960 | 17.69193 | 99° | 62km/h | 18427m | 4.0m/s | -56.5°C | 4.2% | 0hPa | 2.5V | 00:00:00 | 01:22:38 | 00:00:00 | |
| OE5DXL-15 | 2026-09-06 00:38:10 | 47.65963 | 17.69118 | 90° | 60km/h | 18414m | 3.5m/s | -56.6°C | 4.2% | 0hPa | 2.5V | 00:00:00 | 00:00:00 | 00:00:00 | |
| OE3MUC-15 | 2026-09-06 00:38:09 | 47.65963 | 17.69094 | 91° | 64km/h | 18410m | 5.1m/s | -56.7°C | 4.3% | 0hPa | 2.5V | 00:00:00 | 00:00:00 | 00:00:00 | |
| DO3MHA-11 | 2026-09-06 00:38:07 | 47.65963 | 17.69049 | 91° | 62km/h | 18401m | 2.8m/s | -56.6°C | 4.2% | 0hPa | 2.5V | 00:00:00 | 01:22:32 | 00:00:00 | |
| OE5DRO-10 | 2026-09-06 00:38:06 | 47.65964 | 17.69027 | 93° | 60km/h | 18397m | 4.6m/s | -56.6°C | 4.2% | 0hPa | 2.5V | 00:00:00 | 00:00:00 | 00:00:00 | |
| OE3MUC-15 | 2026-09-06 00:38:05 | 47.65965 | 17.69004 | 95° | 62km/h | 18393m | 4.5m/s | -56.6°C | 4.2% | 0hPa | 2.5V | 00:00:00 | 00:00:00 | 00:00:00 | |
| OE3OSB-13 | 2026-09-06 00:38:02 | 47.65968 | 17.68935 | 94° | 58km/h | 18379m | 4.3m/s | -56.7°C | 1.0% | -1.0hPa | 2.5V | 00:00:00 | 00:00:00 | 00:00:00 | |
| PETON7-10 | 2026-09-06 00:37:58 | 47.65974 | 17.68842 | 97° | 58km/h | 18362m | 4.6m/s | -56.6°C | 4.2% | 0hPa | 2.5V | 00:00:00 | 00:00:00 | 08:30:00 | |
| DO3MHA-11 | 2026-09-06 00:37:57 | 47.65975 | 17.68821 | 94° | 58km/h | 18357m | 5.2m/s | -56.6°C | 4.2% | 0hPa | 2.6V | 00:00:00 | 01:22:22 | 00:00:00 | |
| OE3MUC-15 | 2026-09-06 00:37:52 | 47.65978 | 17.68716 | 94° | 58km/h | 18333m | 4.8m/s | -56.7°C | 4.1% | 0hPa | 2.6V | 00:00:00 | 00:00:00 | 00:00:00 | |
| OE3MUC-15 | 2026-09-06 00:37:48 | 47.65981 | 17.68627 | 93° | 62km/h | 18315m | 4.0m/s | -56.7°C | 4.1% | 0hPa | 2.6V | 00:00:00 | 00:00:00 | 00:00:00 | |
| OE5DRO-10 | 2026-09-06 00:37:47 | 47.65982 | 17.68604 | 95° | 62km/h | 18310m | 4.8m/s | -56.8°C | 4.1% | 0hPa | 2.6V | 00:00:00 | 00:00:00 | 00:00:00 | |
| DO3MHA-11 | 2026-09-06 00:37:45 | 47.65986 | 17.68559 | 100° | 62km/h | 18301m | 3.2m/s | -56.8°C | 4.1% | 0hPa | 2.6V | 00:00:00 | 01:22:10 | 00:00:00 | |
| OE3MUC-15 | 2026-09-06 00:37:44 | 47.65988 | 17.68536 | 99° | 62km/h | 18297m | 4.0m/s | -56.8°C | 4.0% | 0hPa | 2.5V | 00:00:00 | 00:00:00 | 00:00:00 | |
| PETON7-10 | 2026-09-06 00:37:43 | 47.65990 | 17.68513 | 98° | 62km/h | 18293m | 4.8m/s | -56.9°C | 4.0% | 0hPa | 2.6V | 00:00:00 | 00:00:00 | 00:00:00 | |
| OE5DXL-15 | 2026-09-06 00:37:40 | 47.65997 | 17.68445 | 100° | 66km/h | 18278m | 5.0m/s | -56.9°C | 4.0% | 0hPa | 2.6V | 00:00:00 | 00:00:00 | 00:00:00 | |
| OE3OSB-13 | 2026-09-06 00:37:31 | 47.66014 | 17.68239 | 99° | 64km/h | 18236m | 6.2m/s | -58.0°C | 1.1% | -1.0hPa | 2.6V | 00:00:00 | 00:00:00 | 00:00:00 | |
| PETON7-10 | 2026-09-06 00:37:28 | 47.66022 | 17.68166 | 101° | 68km/h | 18221m | 5.9m/s | -58.1°C | 4.4% | 0hPa | 2.6V | 00:00:00 | 01:21:53 | 00:00:00 | |
| PG1ADW-2 | 2026-09-06 00:37:25 | 47.66031 | 17.68094 | 98° | 66km/h | 18207m | 4.6m/s | -58.3°C | 4.4% | 0hPa | 2.6V | 00:00:00 | 00:00:00 | 00:00:00 | |
| OE3MUC-15 | 2026-09-06 00:37:17 | 47.66040 | 17.67885 | 93° | 60km/h | 18163m | 4.6m/s | -58.6°C | 4.6% | 0hPa | 2.6V | 00:00:00 | 00:00:00 | 00:00:00 | |
| PETON7-10 | 2026-09-06 00:37:13 | 47.66045 | 17.67790 | 97° | 62km/h | 18143m | 4.9m/s | -58.8°C | 4.7% | 0hPa | 2.6V | 00:00:00 | 00:00:00 | 00:00:00 | |
| OE5DXL-15 | 2026-09-06 00:37:10 | 47.66051 | 17.67720 | 95° | 58km/h | 18126m | 5.5m/s | -58.8°C | 4.7% | 0hPa | 2.5V | 00:00:00 | 00:00:00 | 00:00:00 | |
| OE5DRO-10 | 2026-09-06 00:37:09 | 47.66051 | 17.67697 | 92° | 60km/h | 18121m | 5.2m/s | -58.8°C | 4.7% | 0hPa | 2.5V | 00:00:00 | 00:00:00 | 00:00:00 | |
| PG1ADW-2 | 2026-09-06 00:37:05 | 47.66050 | 17.67601 | 85° | 58km/h | 18100m | 6.4m/s | -58.7°C | 4.7% | 0hPa | 2.5V | 00:00:00 | 00:00:00 | 00:00:00 | |
| OE3OSB-13 | 2026-09-06 00:37:00 | 47.66047 | 17.67486 | 90° | 62km/h | 18075m | 3.9m/s | -58.7°C | 1.2% | -1.0hPa | 2.5V | 00:00:00 | 00:00:00 | 00:00:00 | |
| PETON7-10 | 2026-09-06 00:36:58 | 47.66048 | 17.67440 | 92° | 57km/h | 18066m | 6.2m/s | -58.6°C | 4.8% | 0hPa | 2.5V | 00:00:00 | 00:00:00 | 00:00:00 | |
| OE5DRO-10 | 2026-09-06 00:36:50 | 47.66047 | 17.67269 | 84° | 55km/h | 18024m | 5.0m/s | -58.2°C | 4.6% | 0hPa | 2.5V | 00:00:00 | 00:00:00 | 00:00:00 | |
| S52SK | 2026-09-06 00:36:46 | 47.66040 | 17.67207 | 82° | 55km/h | 18008m | 5.6m/s | -58.2°C | 1.3% | 0hPa | 2.5V | 00:00:00 | 00:00:00 | 00:00:00 | |
| PG1ADW-2 | 2026-09-06 00:36:45 | 47.66036 | 17.67167 | 84° | 53km/h | 17997m | 3.9m/s | -58.0°C | 4.5% | 0hPa | 2.5V | 00:00:00 | 01:21:10 | 00:00:00 | |
| DO3MHA-11 | 2026-09-06 00:36:43 | 47.66034 | 17.67125 | 86° | 53km/h | 17987m | 6.0m/s | -58.0°C | 4.5% | 0hPa | 2.5V | 00:00:00 | 01:21:08 | 00:00:00 | |
| S52SK | 2026-09-06 00:36:42 | 47.66033 | 17.67104 | 86° | 57km/h | 17981m | 4.5m/s | -58.0°C | 1.3% | 0hPa | 2.5V | 00:00:00 | 00:00:00 | 00:00:00 | |
| OE5DXL-15 | 2026-09-06 00:36:40 | 47.66031 | 17.67063 | 88° | 51km/h | 17971m | 4.1m/s | -57.8°C | 4.5% | 0hPa | 2.5V | 00:00:00 | 00:00:00 | 08:30:00 | |
| DO3MHA-11 | 2026-09-06 00:36:31 | 47.66019 | 17.66887 | 87° | 53km/h | 17926m | 3.6m/s | -57.5°C | 4.5% | 0hPa | 2.6V | 00:00:00 | 01:20:56 | 00:00:00 | |
| OE3OSB-13 | 2026-09-06 00:36:29 | 47.66018 | 17.66847 | 85° | 51km/h | 17915m | 6.3m/s | -57.5°C | 1.1% | -1.0hPa | 2.6V | 00:00:00 | 00:00:00 | 00:00:00 | |
| PETON7-10 | 2026-09-06 00:36:28 | 47.66017 | 17.66828 | 86° | 49km/h | 17910m | 4.5m/s | -57.4°C | 4.4% | 0hPa | 2.6V | 00:00:00 | 00:00:00 | 00:00:00 | |
| PG1ADW-2 | 2026-09-06 00:36:25 | 47.66014 | 17.66769 | 83° | 51km/h | 17893m | 6.1m/s | -57.2°C | 4.4% | 0hPa | 2.5V | 00:00:00 | 00:00:00 | 00:00:00 | |
| DO3MHA-11 | 2026-09-06 00:36:21 | 47.66006 | 17.66693 | 82° | 49km/h | 17870m | 5.8m/s | -57.1°C | 4.4% | 0hPa | 2.6V | 00:00:00 | 01:20:46 | 00:00:00 | |
| PETON7-10 | 2026-09-06 00:36:13 | 47.65992 | 17.66550 | 82° | 47km/h | 17828m | 3.6m/s | -56.8°C | 4.2% | 0hPa | 2.6V | 00:00:00 | 00:00:00 | 00:00:00 | |
| OE5DRO-10 | 2026-09-06 00:36:12 | 47.65990 | 17.66530 | 81° | 46km/h | 17823m | 6.3m/s | -56.8°C | 4.2% | 0hPa | 2.6V | 00:00:00 | 00:00:00 | 00:00:00 | |
| DO3MHA-11 | 2026-09-06 00:36:11 | 47.65987 | 17.66508 | 76° | 47km/h | 17818m | 4.9m/s | -56.7°C | 4.3% | 0hPa | 2.6V | 00:00:00 | 01:20:36 | 00:00:00 | |
| OE5DXL-15 | 2026-09-06 00:36:10 | 47.65983 | 17.66488 | 74° | 42km/h | 17813m | 3.6m/s | -56.7°C | 4.3% | 0hPa | 2.6V | 00:00:00 | 00:00:00 | 00:00:00 | |
| PG1ADW-2 | 2026-09-06 00:36:05 | 47.65973 | 17.66401 | 90° | 40km/h | 17788m | 4.8m/s | -56.5°C | 4.3% | 0hPa | 2.6V | 00:00:00 | 00:00:00 | 00:00:00 | |
| DO3MHA-11 | 2026-09-06 00:36:00 | 47.65964 | 17.66319 | 70° | 40km/h | 17763m | 6.4m/s | -56.2°C | 4.2% | 0hPa | 2.6V | 00:00:00 | 01:20:25 | 00:00:00 | |
| PETON7-10 | 2026-09-06 00:35:58 | 47.65956 | 17.66290 | 66° | 38km/h | 17752m | 3.8m/s | -56.2°C | 4.2% | 0hPa | 2.6V | 00:00:00 | 01:20:23 | 00:00:00 | |
| OE5DRO-10 | 2026-09-06 00:35:53 | 47.65937 | 17.66215 | 72° | 38km/h | 17725m | 6.1m/s | -56.0°C | 4.2% | 0hPa | 2.6V | 00:00:00 | 00:00:00 | 00:00:00 | |
| DO3MHA-11 | 2026-09-06 00:35:50 | 47.65931 | 17.66175 | 79° | 37km/h | 17709m | 6.3m/s | -55.8°C | 4.1% | 0hPa | 2.6V | 00:00:00 | 01:20:15 | 08:30:00 | |
| OE3MUC-15 | 2026-09-06 00:35:49 | 47.65929 | 17.66161 | 78° | 37km/h | 17703m | 4.3m/s | -55.8°C | 4.2% | 0hPa | 2.5V | 00:00:00 | 00:00:00 | 00:00:00 | |
| PG1ADW-2 | 2026-09-06 00:35:45 | 47.65920 | 17.66111 | 72° | 40km/h | 17681m | 3.8m/s | -55.6°C | 4.1% | 0hPa | 2.5V | 00:00:00 | 00:00:00 | 00:00:00 | |
| PETON7-10 | 2026-09-06 00:35:43 | 47.65913 | 17.66085 | 66° | 40km/h | 17670m | 4.9m/s | -55.5°C | 4.1% | 0hPa | 2.5V | 00:00:00 | 00:00:00 | 08:30:00 | |
| DO3MHA-11 | 2026-09-06 00:35:40 | 47.65901 | 17.66044 | 70° | 40km/h | 17653m | 4.9m/s | -55.3°C | 4.1% | 0hPa | 2.6V | 00:00:00 | 01:20:05 | 00:00:00 | |
| GYPAP8-17 | 2026-09-06 00:35:37 | 47.65895 | 17.66015 | 76° | 44km/h | 17642m | 5.7m/s | -55.2°C | 0% | 0hPa | 2.6V | 00:00:00 | 00:00:00 | 00:00:00 | |
| DO3MHA-11 | 2026-09-06 00:35:30 | 47.65867 | 17.65903 | 60° | 38km/h | 17601m | 3.6m/s | -54.8°C | 3.9% | 0hPa | 2.6V | 00:00:00 | 01:19:55 | 00:00:00 | |
| PETON7-10 | 2026-09-06 00:35:28 | 47.65858 | 17.65875 | 72° | 37km/h | 17592m | 5.2m/s | -54.7°C | 3.9% | 0hPa | 2.6V | 00:00:00 | 00:00:00 | 00:00:00 | |
| OE3OSB-13 | 2026-09-06 00:35:27 | 47.65856 | 17.65862 | 76° | 35km/h | 17588m | 3.8m/s | -54.7°C | 0.9% | -1.0hPa | 2.6V | 00:00:00 | 00:00:00 | 00:00:00 | |
| PG1ADW-2 | 2026-09-06 00:35:25 | 47.65851 | 17.65836 | 74° | 38km/h | 17577m | 6.1m/s | -54.5°C | 3.9% | 0hPa | 2.6V | 00:00:00 | 01:19:50 | 08:30:00 | |
| DO3MHA-11 | 2026-09-06 00:35:20 | 47.65839 | 17.65768 | 79° | 38km/h | 17552m | 4.0m/s | -54.3°C | 3.8% | 0hPa | 2.6V | 00:00:00 | 01:19:45 | 00:00:00 | |
| OE3MUC-15 | 2026-09-06 00:35:18 | 47.65836 | 17.65739 | 83° | 38km/h | 17543m | 5.2m/s | -54.2°C | 3.8% | 0hPa | 2.5V | 00:00:00 | 00:00:00 | 08:30:00 | |
| GYPAP8-17 | 2026-09-06 00:35:16 | 47.65835 | 17.65727 | 86° | 33km/h | 17538m | 3.7m/s | 0°C | 0% | 0hPa | 2.5V | 00:00:00 | 00:00:00 | 00:00:00 | |
| OE5DRO-10 | 2026-09-06 00:35:15 | 47.65832 | 17.65703 | 73° | 40km/h | 17531m | 4.3m/s | -54.1°C | 3.8% | 0hPa | 2.5V | 00:00:00 | 00:00:00 | 00:00:00 | |
| PETON7-10 | 2026-09-06 00:35:13 | 47.65827 | 17.65677 | 69° | 42km/h | 17522m | 4.0m/s | -54.0°C | 3.7% | 0hPa | 2.5V | 00:00:00 | 01:19:38 | 00:00:00 | |
| OE3MUC-15 | 2026-09-06 00:35:12 | 47.65823 | 17.65664 | 70° | 42km/h | 17517m | 5.2m/s | -54.0°C | 3.7% | 0hPa | 2.5V | 00:00:00 | 00:00:00 | 00:00:00 | |
| DO3MHA-11 | 2026-09-06 00:35:10 | 47.65817 | 17.65633 | 76° | 44km/h | 17506m | 4.0m/s | -53.8°C | 3.7% | 0hPa | 2.5V | 00:00:00 | 01:19:35 | 00:00:00 | |
| PG1ADW-2 | 2026-09-06 00:35:05 | 47.65797 | 17.65556 | 69° | 42km/h | 17481m | 4.1m/s | -53.6°C | 3.7% | 0hPa | 2.5V | 00:00:00 | 00:00:00 | 00:00:00 | |
| OE3JTB-15 | 2026-09-06 00:35:03 | 47.65790 | 17.65526 | 75° | 44km/h | 17473m | 4.0m/s | -53.5°C | 3.7% | 0hPa | 2.5V | 00:00:00 | 01:19:28 | 00:00:00 | |
| OE3MUC-15 | 2026-09-06 00:35:02 | 47.65786 | 17.65510 | 68° | 38km/h | 17469m | 3.3m/s | -53.5°C | 3.7% | 0hPa | 2.5V | 00:00:00 | 00:00:00 | 00:00:00 | |
| DO3MHA-11 | 2026-09-06 00:35:00 | 47.65779 | 17.65484 | 65° | 42km/h | 17458m | 5.5m/s | -53.4°C | 3.6% | 0hPa | 2.5V | 00:00:00 | 01:19:25 | 00:00:00 | |
| PETON7-10 | 2026-09-06 00:34:58 | 47.65771 | 17.65460 | 64° | 42km/h | 17449m | 4.2m/s | -53.3°C | 3.6% | 0hPa | 2.5V | 00:00:00 | 00:00:00 | 00:00:00 | |
| OE3MUC-15 | 2026-09-06 00:34:57 | 47.65767 | 17.65447 | 68° | 42km/h | 17444m | 5.4m/s | -53.3°C | 3.6% | 0hPa | 2.5V | 00:00:00 | 00:00:00 | 00:00:00 | |
| S52SK | 2026-09-06 00:34:56 | 47.65763 | 17.65433 | 72° | 44km/h | 17440m | 4.0m/s | -53.3°C | 1.0% | 0hPa | 2.5V | 00:00:00 | 00:00:00 | 00:00:00 | |
| OE3MUC-15 | 2026-09-06 00:34:53 | 47.65752 | 17.65387 | 71° | 46km/h | 17425m | 3.4m/s | -53.1°C | 3.6% | 0hPa | 2.5V | 00:00:00 | 00:00:00 | 00:00:00 | |
| OE3MUC-15 | 2026-09-06 00:34:50 | 47.65736 | 17.65323 | 72° | 44km/h | 17410m | 1.4m/s | -52.9°C | 3.6% | 0hPa | 2.5V | 00:00:00 | 00:00:00 | 00:00:00 | |
| OE3MUC-15 | 2026-09-06 00:34:45 | 47.65729 | 17.65261 | 89° | 37km/h | 17387m | 5.6m/s | -52.7°C | 3.5% | 0hPa | 2.5V | 00:00:00 | 00:00:00 | 00:00:00 | |
| S52SK | 2026-09-06 00:34:44 | 47.65729 | 17.65261 | 90° | 37km/h | 17387m | 5.6m/s | -52.8°C | 1.0% | 0hPa | 2.5V | 00:00:00 | 00:00:00 | 00:00:00 | |
| PETON7-10 | 2026-09-06 00:34:43 | 47.65727 | 17.65234 | 85° | 42km/h | 17377m | 3.5m/s | -52.6°C | 3.6% | 0hPa | 2.5V | 00:00:00 | 00:00:00 | 00:00:00 | |
| OE3MUC-15 | 2026-09-06 00:34:41 | 47.65727 | 17.65207 | 91° | 44km/h | 17368m | 5.6m/s | -52.6°C | 3.5% | 0hPa | 2.5V | 00:00:00 | 00:00:00 | 00:00:00 | |
| DO3MHA-11 | 2026-09-06 00:34:40 | 47.65727 | 17.65191 | 93° | 44km/h | 17363m | 5.9m/s | -52.5°C | 3.5% | 0hPa | 2.5V | 00:00:00 | 01:19:05 | 00:00:00 | |
| OE3MUC-15 | 2026-09-06 00:34:37 | 47.65725 | 17.65136 | 79° | 49km/h | 17348m | 3.2m/s | -52.4°C | 3.5% | 0hPa | 2.5V | 00:00:00 | 00:00:00 | 00:00:00 | |
| HA6NAB-11 | 2026-09-06 00:34:35 | 47.65719 | 17.65102 | 69° | 44km/h | 17338m | 5.0m/s | -52.4°C | 1.0% | 0hPa | 2.5V | 00:00:00 | 00:00:00 | 00:00:00 | |
| OE3MUC-15 | 2026-09-06 00:34:32 | 47.65706 | 17.65062 | 63° | 38km/h | 17325m | 4.7m/s | -52.3°C | 3.5% | 0hPa | 2.5V | 00:00:00 | 00:00:00 | 08:30:00 | |
| DO3MHA-11 | 2026-09-06 00:34:30 | 47.65699 | 17.65036 | 80° | 38km/h | 17314m | 4.8m/s | -52.3°C | 3.4% | 0hPa | 2.5V | 00:00:00 | 01:18:55 | 00:00:00 | |
| HA6NAB-11 | 2026-09-06 00:34:29 | 47.65699 | 17.65036 | 80° | 38km/h | 17314m | 4.9m/s | -52.3°C | 1.0% | 0hPa | 2.5V | 00:00:00 | 00:00:00 | 00:00:00 | |
| OE3MUC-15 | 2026-09-06 00:34:28 | 47.65698 | 17.65006 | 92° | 42km/h | 17306m | 5.1m/s | -52.3°C | 3.4% | 0hPa | 2.5V | 00:00:00 | 00:00:00 | 00:00:00 | |
| PG1ADW-2 | 2026-09-06 00:34:25 | 47.65697 | 17.64962 | 78° | 44km/h | 17286m | 5.3m/s | -52.4°C | 3.4% | 0hPa | 2.5V | 00:00:00 | 00:00:00 | 00:00:00 | |
| HA6NAB-11 | 2026-09-06 00:34:23 | 47.65695 | 17.64949 | 82° | 33km/h | 17281m | 3.5m/s | -52.4°C | 1.0% | 0hPa | 2.5V | 00:00:00 | 00:00:00 | 00:00:00 | |
| DO3MHA-11 | 2026-09-06 00:34:20 | 47.65699 | 17.64895 | 114° | 49km/h | 17257m | 5.5m/s | -52.1°C | 3.3% | 0hPa | 2.5V | 00:00:00 | 01:18:45 | 08:30:00 | |
| OE5DRO-10 | 2026-09-06 00:34:18 | 47.65709 | 17.64863 | 118° | 47km/h | 17246m | 6.1m/s | -52.0°C | 3.2% | 0hPa | 2.6V | 00:00:00 | 00:00:00 | 00:00:00 | |
| HA6NAB-11 | 2026-09-06 00:34:17 | 47.65709 | 17.64863 | 119° | 49km/h | 17246m | 6.2m/s | -52.0°C | 0.9% | 0hPa | 2.6V | 00:00:00 | 00:00:00 | 00:00:00 | |
| PETON7-10 | 2026-09-06 00:34:13 | 47.65722 | 17.64769 | 92° | 46km/h | 17218m | 4.7m/s | -51.8°C | 3.1% | 0hPa | 2.6V | 00:00:00 | 00:00:00 | 00:00:00 | |
| HA6NAB-11 | 2026-09-06 00:34:11 | 47.65722 | 17.64751 | 96° | 47km/h | 17213m | 5.1m/s | -51.9°C | 0.9% | 0hPa | 2.6V | 00:00:00 | 00:00:00 | 00:00:00 | |
| DO3MHA-11 | 2026-09-06 00:34:10 | 47.65727 | 17.64718 | 110° | 44km/h | 17203m | 5.4m/s | -52.5°C | 3.4% | 0hPa | 2.6V | 00:00:00 | 01:18:35 | 00:00:00 | |
| PG1ADW-2 | 2026-09-06 00:34:05 | 47.65752 | 17.64649 | 117° | 53km/h | 17173m | 6.2m/s | -53.0°C | 3.5% | 0hPa | 2.6V | 00:00:00 | 01:18:30 | 00:00:00 | |
| OE3OSB-13 | 2026-09-06 00:33:54 | 47.65840 | 17.64463 | 133° | 57km/h | 17112m | 5.7m/s | -53.6°C | 0.9% | -1.0hPa | 2.6V | 00:00:00 | 00:00:00 | 00:00:00 | |
| HA6NAB-11 | 2026-09-06 00:33:50 | 47.65872 | 17.64419 | 144° | 57km/h | 17097m | 4.8m/s | -53.8°C | 1.1% | 0hPa | 2.6V | 00:00:00 | 00:00:00 | 00:00:00 | |
| OE3MUC-15 | 2026-09-06 00:33:47 | 47.65907 | 17.64382 | 146° | 58km/h | 17084m | 4.5m/s | -53.8°C | 3.6% | 0hPa | 2.6V | 00:00:00 | 00:00:00 | 00:00:00 | |
| HA6NAB-11 | 2026-09-06 00:33:45 | 47.65931 | 17.64357 | 144° | 57km/h | 17075m | 5.6m/s | -53.9°C | 1.1% | 0hPa | 2.6V | 00:00:00 | 00:00:00 | 00:00:00 | |
| PETON7-10 | 2026-09-06 00:33:43 | 47.65953 | 17.64330 | 139° | 68km/h | 17065m | 4.4m/s | -54.0°C | 3.7% | 0hPa | 2.6V | 00:00:00 | 01:18:08 | 00:00:00 | |
| OE3JTB-15 | 2026-09-06 00:33:41 | 47.65976 | 17.64297 | 137° | 100km/h | 17056m | 3.8m/s | -54.2°C | 3.8% | 0hPa | 2.6V | 00:00:00 | 00:00:00 | 00:00:00 | |
| GYPAP8-17 | 2026-09-06 00:33:40 | 47.65988 | 17.64280 | 136° | 68km/h | 17052m | 4.4m/s | 0°C | 0% | 0hPa | 2.5V | 00:00:00 | 00:00:00 | 00:00:00 | |
| HA6NAB-11 | 2026-09-06 00:33:38 | 47.66000 | 17.64262 | 137° | 64km/h | 17047m | 5.4m/s | -54.3°C | 1.2% | 0hPa | 2.5V | 00:00:00 | 00:00:00 | 00:00:00 | |
| DO3MHA-11 | 2026-09-06 00:33:30 | 47.66118 | 17.64107 | 140° | 77km/h | 17005m | 5.1m/s | -54.6°C | 4.0% | 0hPa | 2.5V | 00:00:00 | 01:17:55 | 00:00:00 | |
| PETON7-10 | 2026-09-06 00:33:28 | 47.66146 | 17.64071 | 139° | 77km/h | 16995m | 4.8m/s | -54.6°C | 3.9% | 0hPa | 2.5V | 00:00:00 | 00:00:00 | 08:30:00 | |
| PG1ADW-2 | 2026-09-06 00:33:25 | 47.66187 | 17.64011 | 134° | 75km/h | 16981m | 5.4m/s | -54.4°C | 3.9% | 0hPa | 2.6V | 00:00:00 | 00:00:00 | 00:00:00 | |
| OE3OSB-13 | 2026-09-06 00:33:24 | 47.66226 | 17.63944 | 129° | 77km/h | 16967m | 4.3m/s | -54.4°C | 1.0% | -1.0hPa | 2.6V | 00:00:00 | 00:00:00 | 00:00:00 | |
| OE5DRO-10 | 2026-09-06 00:33:21 | 47.66239 | 17.63922 | 131° | 73km/h | 16962m | 4.0m/s | -54.3°C | 3.8% | 0hPa | 2.6V | 00:00:00 | 00:00:00 | 00:00:00 | |
| DO3MHA-11 | 2026-09-06 00:33:20 | 47.66252 | 17.63900 | 133° | 75km/h | 16958m | 4.9m/s | -54.3°C | 3.8% | 0hPa | 2.6V | 00:00:00 | 01:17:45 | 00:00:00 | |
| OE3MUC-15 | 2026-09-06 00:33:19 | 47.66266 | 17.63878 | 134° | 77km/h | 16953m | 3.6m/s | -54.2°C | 3.8% | 0hPa | 2.6V | 00:00:00 | 00:00:00 | 00:00:00 | |
| OE3MUC-15 | 2026-09-06 00:33:15 | 47.66321 | 17.63797 | 138° | 75km/h | 16935m | 5.0m/s | -54.2°C | 3.7% | 0hPa | 2.6V | 00:00:00 | 00:00:00 | 08:30:00 | |
| PETON7-10 | 2026-09-06 00:33:13 | 47.66350 | 17.63759 | 138° | 71km/h | 16927m | 2.9m/s | -54.3°C | 3.8% | 0hPa | 2.5V | 00:00:00 | 00:00:00 | 00:00:00 | |
| OE3MUC-15 | 2026-09-06 00:33:11 | 47.66376 | 17.63721 | 133° | 71km/h | 16918m | 3.4m/s | -54.4°C | 3.8% | 0hPa | 2.5V | 00:00:00 | 00:00:00 | 00:00:00 | |
| DO3MHA-11 | 2026-09-06 00:33:10 | 47.66388 | 17.63702 | 130° | 71km/h | 16915m | 3.0m/s | -54.5°C | 3.8% | 0hPa | 2.5V | 00:00:00 | 01:17:35 | 00:00:00 | |
| OE5DRO-10 | 2026-09-06 00:33:02 | 47.66489 | 17.63558 | 146° | 80km/h | 16883m | 4.7m/s | -54.8°C | 3.9% | 0hPa | 2.5V | 00:00:00 | 00:00:00 | 00:00:00 | |
| OE3OSB-13 | 2026-09-06 00:32:52 | 47.66653 | 17.63350 | 141° | 78km/h | 16837m | 2.9m/s | -55.8°C | 1.2% | -1.0hPa | 2.5V | 00:00:00 | 00:00:00 | 00:00:00 | |
| S52SK | 2026-09-06 00:32:51 | 47.66638 | 17.63368 | 142° | 78km/h | 16841m | 3.2m/s | -55.7°C | 1.4% | 0hPa | 2.5V | 00:00:00 | 00:00:00 | 00:00:00 | |
| DO3MHA-11 | 2026-09-06 00:32:50 | 47.66669 | 17.63330 | 141° | 86km/h | 16834m | 4.7m/s | -55.8°C | 4.1% | 0hPa | 2.5V | 00:00:00 | 01:17:15 | 08:30:00 | |
| PG1ADW-2 | 2026-09-06 00:32:45 | 47.66749 | 17.63225 | 137° | 91km/h | 16813m | 4.6m/s | -56.3°C | 4.3% | 0hPa | 2.6V | 00:00:00 | 01:17:10 | 00:00:00 | |
| PETON7-10 | 2026-09-06 00:32:43 | 47.66781 | 17.63177 | 134° | 91km/h | 16805m | 4.1m/s | -56.3°C | 4.2% | 0hPa | 2.6V | 00:00:00 | 00:00:00 | 00:00:00 | |
| DO3MHA-11 | 2026-09-06 00:32:40 | 47.66827 | 17.63106 | 135° | 89km/h | 16793m | 4.7m/s | -56.5°C | 4.2% | 0hPa | 2.5V | 00:00:00 | 01:17:05 | 00:00:00 | |
| OE5DXL-15 | 2026-09-06 00:32:39 | 47.66842 | 17.63083 | 136° | 89km/h | 16788m | 3.8m/s | -56.5°C | 4.3% | 0hPa | 2.5V | 00:00:00 | 00:00:00 | 00:00:00 | |
| DO3MHA-11 | 2026-09-06 00:32:30 | 47.66980 | 17.62853 | 129° | 93km/h | 16754m | 3.2m/s | -56.7°C | 4.3% | 0hPa | 2.5V | 00:00:00 | 01:16:55 | 00:00:00 | |
| PETON7-10 | 2026-09-06 00:32:28 | 47.67011 | 17.62797 | 130° | 91km/h | 16747m | 3.1m/s | -56.9°C | 4.3% | 0hPa | 2.5V | 00:00:00 | 00:00:00 | 00:00:00 | |
| PG1ADW-2 | 2026-09-06 00:32:25 | 47.67056 | 17.62716 | 130° | 88km/h | 16736m | 2.6m/s | -57.1°C | 4.3% | 0hPa | 2.5V | 00:00:00 | 00:00:00 | 08:30:00 | |
| OE3MUC-15 | 2026-09-06 00:32:24 | 47.67071 | 17.62689 | 130° | 86km/h | 16732m | 3.9m/s | -57.1°C | 4.3% | 0hPa | 2.5V | 00:00:00 | 00:00:00 | 00:00:00 | |
| OE3OSB-13 | 2026-09-06 00:32:21 | 47.67126 | 17.62581 | 124° | 88km/h | 16718m | 2.6m/s | -57.7°C | 1.4% | -1.0hPa | 2.5V | 00:00:00 | 00:00:00 | 00:00:00 | |
| DO3MHA-11 | 2026-09-06 00:32:20 | 47.67126 | 17.62581 | 125° | 88km/h | 16718m | 2.6m/s | -57.7°C | 4.5% | 0hPa | 2.5V | 00:00:00 | 01:16:45 | 00:00:00 | |
| PETON7-10 | 2026-09-06 00:32:13 | 47.67220 | 17.62396 | 131° | 82km/h | 16693m | 3.9m/s | -58.9°C | 4.8% | 0hPa | 2.5V | 00:00:00 | 01:16:38 | 00:00:00 | |
| DO3MHA-11 | 2026-09-06 00:32:10 | 47.67260 | 17.62325 | 129° | 82km/h | 16681m | 3.7m/s | -59.0°C | 4.8% | 0hPa | 2.5V | 00:00:00 | 01:16:35 | 00:00:00 | |
| OE5DXL-15 | 2026-09-06 00:32:09 | 47.67273 | 17.62301 | 126° | 82km/h | 16678m | 2.7m/s | -59.0°C | 4.8% | 0hPa | 2.5V | 00:00:00 | 00:00:00 | 08:30:00 | |
| OE3MUC-15 | 2026-09-06 00:32:06 | 47.67308 | 17.62224 | 124° | 86km/h | 16666m | 3.5m/s | -59.4°C | 5.0% | 0hPa | 2.5V | 00:00:00 | 00:00:00 | 00:00:00 | |
| PG1ADW-2 | 2026-09-06 00:32:05 | 47.67320 | 17.62197 | 122° | 82km/h | 16663m | 3.7m/s | -59.5°C | 5.1% | 0hPa | 2.6V | 00:00:00 | 00:00:00 | 00:00:00 | |
| OE3OSB-13 | 2026-09-06 00:31:50 | 47.67487 | 17.61773 | 119° | 78km/h | 16600m | 4.2m/s | -60.6°C | 1.8% | -1.0hPa | 2.6V | 00:00:00 | 00:00:00 | 00:00:00 | |
| OE3MUC-15 | 2026-09-06 00:31:48 | 47.67497 | 17.61747 | 120° | 78km/h | 16596m | 3.2m/s | -60.5°C | 5.6% | 0hPa | 2.6V | 00:00:00 | 00:00:00 | 00:00:00 | |
| OE5DRO-10 | 2026-09-06 00:31:47 | 47.67516 | 17.61695 | 118° | 75km/h | 16588m | 3.8m/s | -60.4°C | 5.6% | 0hPa | 2.6V | 00:00:00 | 00:00:00 | 08:30:00 | |
| HA6NAB-11 | 2026-09-06 00:31:46 | 47.67516 | 17.61695 | 118° | 80km/h | 16588m | 3.8m/s | -60.5°C | 2.0% | 0hPa | 2.5V | 00:00:00 | 00:00:00 | 00:00:00 | |
| PG1ADW-2 | 2026-09-06 00:31:45 | 47.67525 | 17.61668 | 117° | 75km/h | 16585m | 2.8m/s | -60.4°C | 5.6% | 0hPa | 2.5V | 00:00:00 | 00:00:00 | 00:00:00 | |
| PETON7-10 | 2026-09-06 00:31:43 | 47.67543 | 17.61616 | 119° | 75km/h | 16577m | 3.8m/s | -60.4°C | 5.6% | 0hPa | 2.5V | 00:00:00 | 00:00:00 | 00:00:00 | |
| HA6NAB-11 | 2026-09-06 00:31:40 | 47.67571 | 17.61538 | 121° | 78km/h | 16565m | 3.4m/s | -60.5°C | 2.0% | 0hPa | 2.5V | 00:00:00 | 00:00:00 | 00:00:00 | |
| OE5DXL-15 | 2026-09-06 00:31:39 | 47.67582 | 17.61514 | 123° | 75km/h | 16562m | 4.1m/s | -60.4°C | 5.6% | 0hPa | 2.5V | 00:00:00 | 00:00:00 | 00:00:00 | |
| HA6NAB-11 | 2026-09-06 00:31:34 | 47.67621 | 17.61424 | 121° | 69km/h | 16545m | 4.0m/s | -60.4°C | 2.0% | 0hPa | 2.5V | 00:00:00 | 00:00:00 | 00:00:00 | |
| GYPAP8-17 | 2026-09-06 00:31:31 | 47.67658 | 17.61330 | 122° | 77km/h | 16529m | 4.1m/s | 0°C | 0% | 0hPa | 2.5V | 00:00:00 | 00:00:00 | 00:00:00 | |
| HA6NAB-11 | 2026-09-06 00:31:30 | 47.67668 | 17.61306 | 122° | 75km/h | 16524m | 4.9m/s | -60.3°C | 2.0% | 0hPa | 2.5V | 00:00:00 | 00:00:00 | 00:00:00 | |
| PETON7-10 | 2026-09-06 00:31:28 | 47.67688 | 17.61257 | 122° | 75km/h | 16516m | 3.4m/s | -60.3°C | 5.5% | 0hPa | 2.5V | 00:00:00 | 01:15:53 | 00:00:00 | |
| OE5DRO-10 | 2026-09-06 00:31:27 | 47.67698 | 17.61233 | 123° | 75km/h | 16512m | 4.8m/s | -60.3°C | 5.5% | 0hPa | 2.5V | 00:00:00 | 00:00:00 | 00:00:00 | |
| PG1ADW-2 | 2026-09-06 00:31:25 | 47.67720 | 17.61184 | 123° | 75km/h | 16504m | 4.1m/s | -60.3°C | 5.5% | 0hPa | 2.5V | 00:00:00 | 01:15:50 | 00:00:00 | |
| HA6NAB-11 | 2026-09-06 00:31:23 | 47.67730 | 17.61161 | 124° | 73km/h | 16499m | 4.5m/s | -60.3°C | 2.0% | 0hPa | 2.5V | 00:00:00 | 00:00:00 | 00:00:00 | |
| DO3MHA-11 | 2026-09-06 00:31:20 | 47.67769 | 17.61068 | 123° | 77km/h | 16482m | 3.9m/s | 0°C | 0% | 0hPa | 2.5V | 00:00:00 | 01:15:45 | 08:30:00 | |
| OE3OSB-13 | 2026-09-06 00:31:19 | 47.67789 | 17.61022 | 122° | 73km/h | 16473m | 3.8m/s | -60.4°C | 1.7% | -1.0hPa | 2.5V | 00:00:00 | 00:00:00 | 00:00:00 | |
| PETON7-10 | 2026-09-06 00:31:13 | 47.67842 | 17.60902 | 124° | 78km/h | 16451m | 4.3m/s | -60.4°C | 5.5% | 0hPa | 2.5V | 00:00:00 | 00:00:00 | 08:30:00 | |
| S52SK | 2026-09-06 00:31:10 | 47.67874 | 17.60829 | 124° | 78km/h | 16437m | 3.6m/s | -60.5°C | 2.0% | 0hPa | 2.6V | 00:00:00 | 00:00:00 | 00:00:00 | |
| OE5DXL-15 | 2026-09-06 00:31:09 | 47.67885 | 17.60805 | 125° | 80km/h | 16433m | 4.4m/s | -60.5°C | 5.5% | 0hPa | 2.6V | 00:00:00 | 00:00:00 | 00:00:00 | |
| OE5DRO-10 | 2026-09-06 00:31:08 | 47.67896 | 17.60782 | 126° | 80km/h | 16428m | 4.6m/s | -60.5°C | 5.6% | 0hPa | 2.6V | 00:00:00 | 00:00:00 | 00:00:00 | |
| PG1ADW-2 | 2026-09-06 00:31:05 | 47.67930 | 17.60710 | 125° | 82km/h | 16415m | 4.1m/s | -60.5°C | 5.6% | 0hPa | 2.6V | 00:00:00 | 00:00:00 | 00:00:00 | |
| S52SK | 2026-09-06 00:31:03 | 47.67942 | 17.60686 | 126° | 80km/h | 16411m | 4.5m/s | -60.5°C | 2.0% | 0hPa | 2.6V | 00:00:00 | 00:00:00 | 00:00:00 | |
| OE3OSB-13 | 2026-09-06 00:30:48 | 47.68142 | 17.60260 | 123° | 84km/h | 16331m | 4.4m/s | -60.5°C | 1.9% | -1.0hPa | 2.6V | 00:00:00 | 00:00:00 | 00:00:00 | |
| OE3MUC-15 | 2026-09-06 00:30:46 | 47.68154 | 17.60234 | 123° | 84km/h | 16327m | 4.3m/s | -60.5°C | 5.6% | 0hPa | 2.6V | 00:00:00 | 00:00:00 | 00:00:00 | |
| PG1ADW-2 | 2026-09-06 00:30:45 | 47.68165 | 17.60207 | 122° | 86km/h | 16322m | 5.9m/s | -60.4°C | 5.6% | 0hPa | 2.6V | 00:00:00 | 00:00:00 | 00:00:00 | |
| PETON7-10 | 2026-09-06 00:30:43 | 47.68188 | 17.60155 | 125° | 88km/h | 16313m | 3.7m/s | -60.4°C | 5.5% | 0hPa | 2.6V | 00:00:00 | 01:15:08 | 00:00:00 | |
| OE3MUC-15 | 2026-09-06 00:30:40 | 47.68225 | 17.60081 | 127° | 86km/h | 16299m | 4.3m/s | -60.3°C | 5.4% | 0hPa | 2.6V | 00:00:00 | 00:00:00 | 00:00:00 | |
| DO3MHA-11 | 2026-09-06 00:30:39 | 47.68237 | 17.60056 | 126° | 89km/h | 16295m | 5.3m/s | 0°C | 0% | 0hPa | 2.6V | 00:00:00 | 01:15:04 | 00:00:00 | |
| OE5DRO-10 | 2026-09-06 00:30:30 | 47.68336 | 17.59794 | 119° | 86km/h | 16251m | 4.5m/s | -60.2°C | 5.4% | 0hPa | 2.6V | 00:00:00 | 00:00:00 | 00:00:00 | |
| DO3MHA-11 | 2026-09-06 00:30:29 | 47.68347 | 17.59765 | 119° | 86km/h | 16247m | 3.6m/s | 0°C | 0% | 0hPa | 2.6V | 00:00:00 | 01:14:54 | 00:00:00 | |
| PETON7-10 | 2026-09-06 00:30:28 | 47.68357 | 17.59736 | 119° | 86km/h | 16242m | 5.3m/s | -60.2°C | 5.4% | 0hPa | 2.6V | 00:00:00 | 00:00:00 | 00:00:00 | |
| DO3MHA-11 | 2026-09-06 00:30:19 | 47.68456 | 17.59490 | 120° | 84km/h | 16201m | 4.9m/s | 0°C | 0% | 0hPa | 2.6V | 00:00:00 | 01:14:44 | 00:00:00 | |
| OE3OSB-13 | 2026-09-06 00:30:17 | 47.68486 | 17.59404 | 114° | 86km/h | 16186m | 5.4m/s | -60.5°C | 1.9% | -1.0hPa | 2.6V | 00:00:00 | 00:00:00 | 00:00:00 | |
| PETON7-10 | 2026-09-06 00:30:13 | 47.68513 | 17.59317 | 117° | 78km/h | 16171m | 5.4m/s | -60.4°C | 5.6% | 0hPa | 2.6V | 00:00:00 | 00:00:00 | 00:00:00 | |
| OE5DRO-10 | 2026-09-06 00:30:11 | 47.68530 | 17.59264 | 116° | 78km/h | 16160m | 6.2m/s | -60.5°C | 5.6% | 0hPa | 2.6V | 00:00:00 | 00:00:00 | 00:00:00 | |
| OE3MUC-15 | 2026-09-06 00:30:10 | 47.68538 | 17.59238 | 116° | 73km/h | 16155m | 4.5m/s | -60.5°C | 5.6% | 0hPa | 2.6V | 00:00:00 | 00:00:00 | 00:00:00 | |
| DO3MHA-11 | 2026-09-06 00:30:09 | 47.68547 | 17.59214 | 118° | 77km/h | 16150m | 5.2m/s | 0°C | 0% | 0hPa | 2.6V | 00:00:00 | 01:14:34 | 00:00:00 | |
| OE3MUC-15 | 2026-09-06 00:30:06 | 47.68574 | 17.59141 | 118° | 78km/h | 16135m | 5.8m/s | -60.5°C | 5.6% | 0hPa | 2.6V | 00:00:00 | 00:00:00 | 00:00:00 | |
| PG1ADW-2 | 2026-09-06 00:30:05 | 47.68582 | 17.59116 | 117° | 78km/h | 16130m | 4.2m/s | -60.5°C | 5.7% | 0hPa | 2.6V | 00:00:00 | 01:14:30 | 00:00:00 | |
| DO3MHA-11 | 2026-09-06 00:29:59 | 47.68630 | 17.58948 | 109° | 78km/h | 16102m | 4.2m/s | 0°C | 0% | 0hPa | 2.6V | 00:00:00 | 01:14:24 | 00:00:00 | |
| PETON7-10 | 2026-09-06 00:29:58 | 47.68636 | 17.58920 | 111° | 77km/h | 16097m | 5.5m/s | -60.4°C | 5.6% | 0hPa | 2.6V | 00:00:00 | 01:14:23 | 00:00:00 | |
| OE3MUC-15 | 2026-09-06 00:29:57 | 47.68644 | 17.58892 | 112° | 78km/h | 16092m | 4.7m/s | -60.3°C | 5.6% | 0hPa | 2.6V | 00:00:00 | 00:00:00 | 00:00:00 | |
| OE5DRO-10 | 2026-09-06 00:29:52 | 47.68679 | 17.58758 | 112° | 73km/h | 16067m | 5.2m/s | -60.4°C | 5.6% | 0hPa | 2.6V | 00:00:00 | 00:00:00 | 00:00:00 | |
| OE3MUC-15 | 2026-09-06 00:29:50 | 47.68693 | 17.58704 | 111° | 73km/h | 16058m | 5.2m/s | -60.4°C | 5.6% | 0hPa | 2.6V | 00:00:00 | 00:00:00 | 00:00:00 | |
| OE3MUC-15 | 2026-09-06 00:29:46 | 47.68718 | 17.58600 | 107° | 75km/h | 16039m | 5.2m/s | -60.3°C | 5.6% | 0hPa | 2.6V | 00:00:00 | 00:00:00 | 00:00:00 | |
| PG1ADW-2 | 2026-09-06 00:29:45 | 47.68723 | 17.58573 | 106° | 73km/h | 16034m | 4.7m/s | -60.3°C | 5.5% | 0hPa | 2.5V | 00:00:00 | 00:00:00 | 00:00:00 | |
| PETON7-10 | 2026-09-06 00:29:43 | 47.68732 | 17.58519 | 106° | 71km/h | 16024m | 4.7m/s | -60.2°C | 5.6% | 0hPa | 2.5V | 00:00:00 | 00:00:00 | 00:00:00 | |
| OE5DXL-15 | 2026-09-06 00:29:39 | 47.68749 | 17.58413 | 103° | 73km/h | 16005m | 3.5m/s | -60.0°C | 5.5% | 0hPa | 2.5V | 00:00:00 | 00:00:00 | 00:00:00 | |
| OE5DRO-10 | 2026-09-06 00:29:33 | 47.68775 | 17.58259 | 106° | 73km/h | 15979m | 4.1m/s | -59.9°C | 5.3% | 0hPa | 2.5V | 00:00:00 | 00:00:00 | 00:00:00 | |
| HA6NAB-11 | 2026-09-06 00:29:31 | 47.68780 | 17.58234 | 109° | 71km/h | 15974m | 5.8m/s | -59.9°C | 1.9% | 0hPa | 2.5V | 00:00:00 | 00:00:00 | 00:00:00 | |
| PETON7-10 | 2026-09-06 00:29:28 | 47.68800 | 17.58130 | 107° | 73km/h | 15954m | 3.8m/s | -59.8°C | 5.4% | 0hPa | 2.5V | 00:00:00 | 00:00:00 | 00:00:00 | |
| S52SK | 2026-09-06 00:29:25 | 47.68817 | 17.58053 | 107° | 69km/h | 15940m | 5.2m/s | -59.8°C | 1.9% | 0hPa | 2.5V | 00:00:00 | 00:00:00 | 00:00:00 | |
| HA6NAB-11 | 2026-09-06 00:29:19 | 47.68842 | 17.57929 | 110° | 77km/h | 15917m | 3.9m/s | -59.6°C | 1.9% | 0hPa | 2.5V | 00:00:00 | 00:00:00 | 00:00:00 | |
| S52SK | 2026-09-06 00:29:18 | 47.68847 | 17.57901 | 109° | 77km/h | 15913m | 4.6m/s | -59.7°C | 2.0% | 0hPa | 2.5V | 00:00:00 | 00:00:00 | 00:00:00 | |
| OE3MUC-15 | 2026-09-06 00:29:17 | 47.68858 | 17.57846 | 106° | 77km/h | 15904m | 3.9m/s | -59.6°C | 5.3% | 0hPa | 2.5V | 00:00:00 | 00:00:00 | 00:00:00 | |
| HA6NAB-11 | 2026-09-06 00:29:14 | 47.68875 | 17.57764 | 108° | 75km/h | 15890m | 4.3m/s | -59.6°C | 1.9% | 0hPa | 2.5V | 00:00:00 | 00:00:00 | 00:00:00 | |
| PETON7-10 | 2026-09-06 00:29:13 | 47.68880 | 17.57737 | 107° | 75km/h | 15885m | 5.1m/s | -59.6°C | 5.3% | 0hPa | 2.5V | 00:00:00 | 01:13:38 | 00:00:00 | |
| OE5DXL-15 | 2026-09-06 00:29:09 | 47.68906 | 17.57632 | 114° | 75km/h | 15868m | 5.0m/s | -59.5°C | 5.3% | 0hPa | 2.5V | 00:00:00 | 00:00:00 | 00:00:00 | |
| HA6NAB-11 | 2026-09-06 00:29:08 | 47.68914 | 17.57604 | 114° | 78km/h | 15863m | 4.2m/s | -59.5°C | 1.9% | 0hPa | 2.5V | 00:00:00 | 00:00:00 | 00:00:00 | |
| PG1ADW-2 | 2026-09-06 00:29:05 | 47.68934 | 17.57527 | 110° | 73km/h | 15848m | 4.3m/s | -59.4°C | 5.3% | 0hPa | 2.5V | 00:00:00 | 00:00:00 | 00:00:00 | |
| HA6NAB-11 | 2026-09-06 00:29:02 | 47.68953 | 17.57450 | 112° | 73km/h | 15835m | 2.4m/s | -59.4°C | 1.9% | 0hPa | 2.5V | 00:00:00 | 00:00:00 | 00:00:00 | |
| PETON7-10 | 2026-09-06 00:28:58 | 47.68986 | 17.57349 | 118° | 73km/h | 15817m | 4.4m/s | -59.2°C | 5.2% | 0hPa | 2.5V | 00:00:00 | 00:00:00 | 08:30:00 | |
| OE5DRO-10 | 2026-09-06 00:28:55 | 47.69011 | 17.57273 | 115° | 73km/h | 15804m | 4.2m/s | -59.1°C | 5.1% | 0hPa | 2.6V | 00:00:00 | 00:00:00 | 08:30:00 | |
| PG1ADW-2 | 2026-09-06 00:28:45 | 47.69080 | 17.57021 | 114° | 75km/h | 15758m | 4.6m/s | -59.0°C | 5.1% | 0hPa | 2.6V | 00:00:00 | 01:13:10 | 00:00:00 | |
| PETON7-10 | 2026-09-06 00:28:43 | 47.69095 | 17.56969 | 113° | 75km/h | 15748m | 4.0m/s | -58.9°C | 5.1% | 0hPa | 2.6V | 00:00:00 | 00:00:00 | 00:00:00 | |
| OE5DXL-15 | 2026-09-06 00:28:39 | 47.69122 | 17.56863 | 111° | 77km/h | 15730m | 4.5m/s | -58.9°C | 5.2% | 0hPa | 2.6V | 00:00:00 | 00:00:00 | 00:00:00 | |
| OE5DRO-10 | 2026-09-06 00:28:36 | 47.69140 | 17.56785 | 110° | 77km/h | 15717m | 3.6m/s | -58.8°C | 5.2% | 0hPa | 2.6V | 00:00:00 | 00:00:00 | 00:00:00 | |
| PETON7-10 | 2026-09-06 00:28:28 | 47.69206 | 17.56580 | 116° | 77km/h | 15683m | 4.7m/s | -58.8°C | 5.0% | 0hPa | 2.6V | 00:00:00 | 01:12:53 | 00:00:00 | |
| PG1ADW-2 | 2026-09-06 00:28:25 | 47.69230 | 17.56501 | 112° | 77km/h | 15669m | 4.5m/s | -58.8°C | 5.1% | 0hPa | 2.6V | 00:00:00 | 00:00:00 | 00:00:00 | |
| OE5DRO-10 | 2026-09-06 00:28:17 | 47.69286 | 17.56288 | 108° | 77km/h | 15632m | 4.2m/s | -58.4°C | 5.1% | 0hPa | 2.6V | 00:00:00 | 00:00:00 | 00:00:00 | |
| PETON7-10 | 2026-09-06 00:28:13 | 47.69307 | 17.56178 | 103° | 77km/h | 15613m | 5.2m/s | -58.2°C | 5.0% | 0hPa | 2.6V | 00:00:00 | 00:00:00 | 00:00:00 | |
| OE3OSB-13 | 2026-09-06 00:28:12 | 47.69312 | 17.56149 | 103° | 78km/h | 15609m | 3.9m/s | -58.2°C | 1.6% | -1.0hPa | 2.5V | 00:00:00 | 00:00:00 | 00:00:00 | |
| OE5DXL-15 | 2026-09-06 00:28:09 | 47.69327 | 17.56064 | 106° | 77km/h | 15595m | 4.4m/s | -58.1°C | 4.9% | 0hPa | 2.5V | 00:00:00 | 00:00:00 | 00:00:00 | |
| PG1ADW-2 | 2026-09-06 00:28:05 | 47.69351 | 17.55957 | 110° | 75km/h | 15577m | 4.0m/s | -58.0°C | 4.8% | 0hPa | 2.5V | 00:00:00 | 00:00:00 | 00:00:00 | |
| OE3MUC-15 | 2026-09-06 00:28:03 | 47.69362 | 17.55905 | 106° | 77km/h | 15568m | 5.1m/s | -57.9°C | 4.9% | 0hPa | 2.5V | 00:00:00 | 00:00:00 | 00:00:00 | |
| OE3MUC-15 | 2026-09-06 00:27:59 | 47.69383 | 17.55792 | 105° | 78km/h | 15547m | 4.9m/s | -57.7°C | 4.9% | 0hPa | 2.6V | 00:00:00 | 00:00:00 | 00:00:00 | |
| PETON7-10 | 2026-09-06 00:27:58 | 47.69388 | 17.55764 | 105° | 77km/h | 15542m | 4.9m/s | -57.6°C | 4.9% | 0hPa | 2.6V | 00:00:00 | 00:00:00 | 00:00:00 | |
| OE3MUC-15 | 2026-09-06 00:27:55 | 47.69405 | 17.55680 | 109° | 77km/h | 15527m | 3.9m/s | -57.5°C | 4.8% | 0hPa | 2.6V | 00:00:00 | 00:00:00 | 00:00:00 | |
| OE3MUC-15 | 2026-09-06 00:27:46 | 47.69449 | 17.55438 | 104° | 78km/h | 15481m | 6.4m/s | -57.2°C | 4.6% | 0hPa | 2.6V | 00:00:00 | 00:00:00 | 00:00:00 | |
| PG1ADW-2 | 2026-09-06 00:27:45 | 47.69453 | 17.55410 | 103° | 78km/h | 15476m | 4.4m/s | -57.2°C | 4.6% | 0hPa | 2.5V | 00:00:00 | 00:00:00 | 00:00:00 | |
| PETON7-10 | 2026-09-06 00:27:43 | 47.69461 | 17.55352 | 101° | 78km/h | 15465m | 5.6m/s | -57.2°C | 4.6% | 0hPa | 2.5V | 00:00:00 | 01:12:08 | 00:00:00 | |
| OE3OSB-13 | 2026-09-06 00:27:41 | 47.69468 | 17.55294 | 99° | 80km/h | 15455m | 4.7m/s | -57.2°C | 1.4% | -1.0hPa | 2.5V | 00:00:00 | 00:00:00 | 00:00:00 | |
| OE5DXL-15 | 2026-09-06 00:27:39 | 47.69475 | 17.55234 | 100° | 78km/h | 15447m | 4.0m/s | -57.2°C | 4.6% | 0hPa | 2.5V | 00:00:00 | 00:00:00 | 08:30:00 | |
| PETON7-10 | 2026-09-06 00:27:28 | 47.69506 | 17.54916 | 99° | 80km/h | 15397m | 4.7m/s | -56.8°C | 4.6% | 0hPa | 2.5V | 00:00:00 | 00:00:00 | 00:00:00 | |
| PG1ADW-2 | 2026-09-06 00:27:25 | 47.69516 | 17.54826 | 100° | 78km/h | 15383m | 4.3m/s | -56.7°C | 4.6% | 0hPa | 2.6V | 00:00:00 | 01:11:50 | 00:00:00 | |
| OE3MUC-15 | 2026-09-06 00:27:20 | 47.69530 | 17.54679 | 95° | 78km/h | 15361m | 4.5m/s | -56.6°C | 4.6% | 0hPa | 2.6V | 00:00:00 | 00:00:00 | 00:00:00 | |
| PETON7-10 | 2026-09-06 00:27:13 | 47.69537 | 17.54471 | 96° | 80km/h | 15327m | 4.1m/s | 0°C | 0% | 0hPa | 2.6V | 00:00:00 | 00:00:00 | 00:00:00 | |
| DO3MHA-11 | 2026-09-06 00:27:12 | 47.69539 | 17.54440 | 99° | 82km/h | 15322m | 5.3m/s | 0°C | 0% | 0hPa | 2.6V | 00:00:00 | 01:11:37 | 00:00:00 | |
| OE3OSB-13 | 2026-09-06 00:27:11 | 47.69548 | 17.54351 | 96° | 77km/h | 15308m | 4.5m/s | -56.1°C | 1.4% | -1.0hPa | 2.6V | 00:00:00 | 00:00:00 | 00:00:00 | |
| OE5DXL-15 | 2026-09-06 00:27:09 | 47.69548 | 17.54351 | 97° | 80km/h | 15308m | 4.4m/s | -56.1°C | 4.4% | 0hPa | 2.6V | 00:00:00 | 00:00:00 | 00:00:00 | |
| HA6NAB-11 | 2026-09-06 00:27:08 | 47.69550 | 17.54323 | 97° | 75km/h | 15304m | 4.1m/s | -56.1°C | 1.5% | 0hPa | 2.6V | 00:00:00 | 00:00:00 | 00:00:00 | |
| PG1ADW-2 | 2026-09-06 00:27:05 | 47.69554 | 17.54239 | 92° | 80km/h | 15288m | 5.4m/s | -55.9°C | 4.4% | 0hPa | 2.6V | 00:00:00 | 00:00:00 | 00:00:00 | |
| HA6NAB-11 | 2026-09-06 00:27:02 | 47.69553 | 17.54183 | 88° | 77km/h | 15277m | 5.6m/s | -55.8°C | 1.5% | 0hPa | 2.6V | 00:00:00 | 00:00:00 | 00:00:00 | |
| OE3MUC-15 | 2026-09-06 00:27:01 | 47.69551 | 17.54123 | 88° | 80km/h | 15268m | 4.7m/s | -55.7°C | 4.4% | 0hPa | 2.6V | 00:00:00 | 00:00:00 | 00:00:00 | |
| PETON7-10 | 2026-09-06 00:26:58 | 47.69552 | 17.54024 | 95° | 80km/h | 15255m | 4.7m/s | -55.6°C | 4.3% | 0hPa | 2.6V | 00:00:00 | 01:11:23 | 00:00:00 | |
| HA6NAB-11 | 2026-09-06 00:26:56 | 47.69554 | 17.53992 | 96° | 84km/h | 15250m | 4.9m/s | -55.6°C | 1.6% | 0hPa | 2.6V | 00:00:00 | 00:00:00 | 00:00:00 | |
| OE3MUC-15 | 2026-09-06 00:26:50 | 47.69557 | 17.53788 | 90° | 75km/h | 15219m | 4.3m/s | -55.4°C | 4.4% | 0hPa | 2.6V | 00:00:00 | 00:00:00 | 00:00:00 | |
| HA6NAB-11 | 2026-09-06 00:26:45 | 47.69552 | 17.53639 | 89° | 86km/h | 15195m | 4.5m/s | -55.3°C | 1.6% | 0hPa | 2.6V | 00:00:00 | 00:00:00 | 00:00:00 | |
| PETON7-10 | 2026-09-06 00:26:43 | 47.69550 | 17.53575 | 88° | 82km/h | 15185m | 5.2m/s | -55.1°C | 4.2% | 0hPa | 2.6V | 00:00:00 | 00:00:00 | 08:30:00 | |
| OE3MUC-15 | 2026-09-06 00:26:42 | 47.69549 | 17.53543 | 89° | 84km/h | 15180m | 4.0m/s | -55.1°C | 4.2% | 0hPa | 2.5V | 00:00:00 | 00:00:00 | 00:00:00 | |
| OE5DXL-15 | 2026-09-06 00:26:39 | 47.69547 | 17.53450 | 88° | 80km/h | 15165m | 8.3m/s | -55.0°C | 4.2% | 0hPa | 2.5V | 00:00:00 | 00:00:00 | 00:00:00 | |
| HA6NAB-11 | 2026-09-06 00:26:38 | 47.69547 | 17.53450 | 88° | 82km/h | 15165m | 8.4m/s | -55.0°C | 1.5% | 0hPa | 2.5V | 00:00:00 | 00:00:00 | 00:00:00 | |
| OE3MUC-15 | 2026-09-06 00:26:33 | 47.69540 | 17.53274 | 88° | 82km/h | 15138m | 3.9m/s | -54.9°C | 4.2% | 0hPa | 2.5V | 00:00:00 | 00:00:00 | 00:00:00 | |
| OE3MUC-15 | 2026-09-06 00:26:29 | 47.69538 | 17.53149 | 92° | 82km/h | 15121m | 5.1m/s | -55.0°C | 4.2% | 0hPa | 2.5V | 00:00:00 | 00:00:00 | 00:00:00 | |
| PETON7-10 | 2026-09-06 00:26:28 | 47.69539 | 17.53118 | 92° | 78km/h | 15116m | 4.9m/s | -55.1°C | 4.4% | 0hPa | 2.5V | 00:00:00 | 00:00:00 | 00:00:00 | |
| PG1ADW-2 | 2026-09-06 00:26:25 | 47.69540 | 17.53028 | 90° | 82km/h | 15103m | 4.9m/s | -55.3°C | 4.4% | 0hPa | 2.5V | 00:00:00 | 00:00:00 | 08:30:00 | |
| OE5DRO-10 | 2026-09-06 00:26:23 | 47.69539 | 17.52967 | 90° | 82km/h | 15095m | 3.4m/s | -55.3°C | 4.3% | 0hPa | 2.7V | 00:00:00 | 00:00:00 | 00:00:00 | |
| PETON7-10 | 2026-09-06 00:26:13 | 47.69546 | 17.52671 | 91° | 86km/h | 15051m | 3.4m/s | -55.3°C | 4.3% | 0hPa | 2.7V | 00:00:00 | 01:10:38 | 00:00:00 | |
| OE5DXL-15 | 2026-09-06 00:26:09 | 47.69548 | 17.52540 | 95° | 88km/h | 15034m | 5.0m/s | -55.3°C | 4.2% | 0hPa | 2.7V | 00:00:00 | 00:00:00 | 00:00:00 | |
| OE3OSB-13 | 2026-09-06 00:26:08 | 47.69553 | 17.52475 | 97° | 86km/h | 15025m | 4.3m/s | -55.3°C | 1.4% | -1.0hPa | 2.7V | 00:00:00 | 00:00:00 | 00:00:00 | |
| PG1ADW-2 | 2026-09-06 00:26:05 | 47.69559 | 17.52412 | 99° | 86km/h | 15017m | 2.8m/s | -55.2°C | 4.2% | 0hPa | 2.7V | 00:00:00 | 01:10:30 | 00:00:00 | |
| OE5DRO-10 | 2026-09-06 00:26:04 | 47.69562 | 17.52381 | 99° | 86km/h | 15014m | 4.0m/s | -55.2°C | 4.2% | 0hPa | 2.7V | 00:00:00 | 00:00:00 | 08:30:00 | |
| S52SK | 2026-09-06 00:26:00 | 47.69570 | 17.52255 | 94° | 82km/h | 14997m | 3.7m/s | -55.3°C | 1.6% | 0hPa | 2.7V | 00:00:00 | 00:00:00 | 00:00:00 | |
| PETON7-10 | 2026-09-06 00:25:58 | 47.69573 | 17.52195 | 96° | 88km/h | 14989m | 3.5m/s | -55.4°C | 4.2% | 0hPa | 2.7V | 00:00:00 | 00:00:00 | 00:00:00 | |
| S52SK | 2026-09-06 00:25:53 | 47.69583 | 17.52067 | 99° | 86km/h | 14974m | 3.9m/s | -55.7°C | 1.7% | 0hPa | 2.6V | 00:00:00 | 00:00:00 | 00:00:00 | |
| PETON7-10 | 2026-09-06 00:25:43 | 47.69597 | 17.51701 | 94° | 95km/h | 14928m | 3.7m/s | -56.6°C | 4.8% | 0hPa | 2.6V | 00:00:00 | 00:00:00 | 00:00:00 | |
| OE3OSB-13 | 2026-09-06 00:25:39 | 47.69611 | 17.51458 | 97° | 93km/h | 14901m | 4.4m/s | -56.5°C | 1.7% | -1.0hPa | 2.6V | 00:00:00 | 00:00:00 | 00:00:00 | |
| PETON7-10 | 2026-09-06 00:25:32 | 47.69638 | 17.51167 | 100° | 95km/h | 14867m | 4.1m/s | -56.2°C | 4.7% | 0hPa | 2.6V | 00:00:00 | 01:09:53 | 00:00:00 | |
| OE5DRO-10 | 2026-09-06 00:25:26 | 47.69647 | 17.51096 | 102° | 95km/h | 14858m | 3.5m/s | -56.2°C | 4.6% | 0hPa | 2.6V | 00:00:00 | 00:00:00 | 00:00:00 | |
| PG1ADW-2 | 2026-09-06 00:25:25 | 47.69651 | 17.51062 | 101° | 95km/h | 14854m | 4.4m/s | -56.1°C | 4.7% | 0hPa | 2.6V | 00:00:00 | 00:00:00 | 00:00:00 | |
| PETON7-10 | 2026-09-06 00:25:13 | 47.69696 | 17.50641 | 98° | 95km/h | 14804m | 4.5m/s | -55.7°C | 4.7% | 0hPa | 2.7V | 00:00:00 | 00:00:00 | 00:00:00 | |
| OE5DXL-15 | 2026-09-06 00:25:09 | 47.69710 | 17.50497 | 100° | 95km/h | 14788m | 4.6m/s | -55.8°C | 4.6% | 0hPa | 2.7V | 00:00:00 | 00:00:00 | 00:00:00 | |
| OE5DRO-10 | 2026-09-06 00:25:07 | 47.69719 | 17.50426 | 101° | 95km/h | 14779m | 4.7m/s | -55.8°C | 4.6% | 0hPa | 2.7V | 00:00:00 | 00:00:00 | 00:00:00 | |
| OE3OSB-13 | 2026-09-06 00:25:06 | 47.69728 | 17.50360 | 102° | 86km/h | 14769m | 3.6m/s | -55.8°C | 1.6% | -1.0hPa | 2.5V | 00:00:00 | 00:00:00 | 00:00:00 | |
| PG1ADW-2 | 2026-09-06 00:25:05 | 47.69728 | 17.50360 | 103° | 95km/h | 14769m | 3.6m/s | -55.8°C | 4.6% | 0hPa | 2.5V | 00:00:00 | 00:00:00 | 00:00:00 | |
| PETON7-10 | 2026-09-06 00:24:58 | 47.69759 | 17.50115 | 103° | 97km/h | 14738m | 3.7m/s | -55.6°C | 4.6% | 0hPa | 2.5V | 00:00:00 | 00:00:00 | 00:00:00 | |
| HA6NAB-11 | 2026-09-06 00:24:52 | 47.69780 | 17.49940 | 100° | 95km/h | 14716m | 4.7m/s | -55.6°C | 1.9% | 0hPa | 2.5V | 00:00:00 | 00:00:00 | 00:00:00 | |
| OE5DRO-10 | 2026-09-06 00:24:48 | 47.69809 | 17.49765 | 106° | 99km/h | 14692m | 4.2m/s | -56.9°C | 5.1% | 0hPa | 2.5V | 00:00:00 | 00:00:00 | 00:00:00 | |
| HA6NAB-11 | 2026-09-06 00:24:47 | 47.69808 | 17.49765 | 107° | 95km/h | 14692m | 4.3m/s | -56.9°C | 2.1% | 0hPa | 2.5V | 00:00:00 | 00:00:00 | 00:00:00 | |
| PG1ADW-2 | 2026-09-06 00:24:45 | 47.69826 | 17.49658 | 102° | 99km/h | 14679m | 4.0m/s | -56.9°C | 5.1% | 0hPa | 2.5V | 00:00:00 | 01:09:10 | 00:00:00 | |
| PETON7-10 | 2026-09-06 00:24:43 | 47.69837 | 17.49584 | 105° | 99km/h | 14671m | 5.1m/s | -56.8°C | 5.0% | 0hPa | 2.5V | 00:00:00 | 01:09:08 | 00:00:00 | |
| HA6NAB-11 | 2026-09-06 00:24:41 | 47.69844 | 17.49549 | 108° | 97km/h | 14665m | 6.1m/s | -56.8°C | 2.0% | 0hPa | 2.5V | 00:00:00 | 00:00:00 | 00:00:00 | |
| HA6NAB-11 | 2026-09-06 00:24:35 | 47.69899 | 17.49367 | 122° | 97km/h | 14632m | 6.6m/s | -56.6°C | 2.0% | 0hPa | 2.5V | 00:00:00 | 00:00:00 | 00:00:00 | |
| OE3OSB-13 | 2026-09-06 00:24:34 | 47.69925 | 17.49298 | 117° | 110km/h | 14620m | 6.6m/s | -56.6°C | 1.8% | -1.0hPa | 2.5V | 00:00:00 | 00:00:00 | 00:00:00 | |
| OE5DRO-10 | 2026-09-06 00:24:29 | 47.69982 | 17.49119 | 119° | 106km/h | 14589m | 5.8m/s | -56.3°C | 4.9% | 0hPa | 2.5V | 00:00:00 | 00:00:00 | 00:00:00 | |
| PETON7-10 | 2026-09-06 00:24:28 | 47.69995 | 17.49086 | 121° | 106km/h | 14583m | 5.6m/s | -56.3°C | 5.0% | 0hPa | 2.5V | 00:00:00 | 00:00:00 | 08:30:00 | |
| PG1ADW-2 | 2026-09-06 00:24:25 | 47.70032 | 17.48986 | 117° | 110km/h | 14568m | 4.7m/s | -56.2°C | 5.0% | 0hPa | 2.7V | 00:00:00 | 00:00:00 | 00:00:00 | |
| HA6NAB-11 | 2026-09-06 00:24:23 | 47.70044 | 17.48952 | 117° | 102km/h | 14563m | 4.2m/s | -56.2°C | 2.1% | 0hPa | 2.6V | 00:00:00 | 00:00:00 | 00:00:00 | |
| S52SK | 2026-09-06 00:24:15 | 47.70141 | 17.48675 | 120° | 111km/h | 14522m | 4.2m/s | -56.0°C | 2.1% | 0hPa | 2.6V | 00:00:00 | 00:00:00 | 00:00:00 | |
| PETON7-10 | 2026-09-06 00:24:13 | 47.70182 | 17.48562 | 118° | 117km/h | 14507m | 5.7m/s | -55.9°C | 4.9% | 0hPa | 2.6V | 00:00:00 | 00:00:00 | 00:00:00 | |
| S52SK | 2026-09-06 00:24:10 | 47.70223 | 17.48450 | 121° | 115km/h | 14493m | 5.6m/s | -55.9°C | 2.1% | 0hPa | 2.6V | 00:00:00 | 00:00:00 | 00:00:00 | |
| OE5DXL-15 | 2026-09-06 00:24:09 | 47.70238 | 17.48413 | 121° | 117km/h | 14487m | 4.7m/s | -55.8°C | 4.9% | 0hPa | 2.6V | 00:00:00 | 00:00:00 | 00:00:00 | |
| PG1ADW-2 | 2026-09-06 00:24:05 | 47.70295 | 17.48264 | 120° | 119km/h | 14468m | 5.5m/s | -55.7°C | 5.0% | 0hPa | 2.6V | 00:00:00 | 00:00:00 | 00:00:00 | |
| OE3OSB-13 | 2026-09-06 00:24:03 | 47.70325 | 17.48185 | 118° | 119km/h | 14458m | 4.7m/s | -55.7°C | 2.0% | -1.0hPa | 2.6V | 00:00:00 | 00:00:00 | 00:00:00 | |
| PETON7-10 | 2026-09-06 00:23:58 | 47.70399 | 17.47986 | 120° | 119km/h | 14434m | 4.5m/s | -55.7°C | 5.0% | 0hPa | 2.6V | 00:00:00 | 01:08:23 | 00:00:00 | |
| OE5DRO-10 | 2026-09-06 00:23:51 | 47.70502 | 17.47718 | 120° | 117km/h | 14400m | 4.4m/s | -55.7°C | 5.2% | 0hPa | 2.6V | 00:00:00 | 00:00:00 | 00:00:00 | |
| PG1ADW-2 | 2026-09-06 00:23:45 | 47.70591 | 17.47485 | 120° | 115km/h | 14371m | 4.7m/s | -55.5°C | 5.2% | 0hPa | 2.6V | 00:00:00 | 00:00:00 | 00:00:00 | |
| PETON7-10 | 2026-09-06 00:23:43 | 47.70620 | 17.47410 | 119° | 115km/h | 14362m | 4.7m/s | -55.5°C | 5.1% | 0hPa | 2.6V | 00:00:00 | 00:00:00 | 00:00:00 | |
| OE5DXL-15 | 2026-09-06 00:23:39 | 47.70675 | 17.47263 | 120° | 115km/h | 14343m | 5.0m/s | -55.4°C | 5.2% | 0hPa | 2.6V | 00:00:00 | 00:00:00 | 00:00:00 | |
| OE5DRO-10 | 2026-09-06 00:23:32 | 47.70775 | 17.46988 | 117° | 113km/h | 14309m | 5.3m/s | -55.4°C | 5.4% | 0hPa | 2.6V | 00:00:00 | 00:00:00 | 00:00:00 | |
| PETON7-10 | 2026-09-06 00:23:28 | 47.70827 | 17.46839 | 118° | 113km/h | 14290m | 5.1m/s | -55.5°C | 5.5% | 0hPa | 2.6V | 00:00:00 | 00:00:00 | 00:00:00 | |
| PG1ADW-2 | 2026-09-06 00:23:25 | 47.70864 | 17.46732 | 119° | 117km/h | 14276m | 4.6m/s | -55.7°C | 5.7% | 0hPa | 2.6V | 00:00:00 | 01:07:50 | 08:30:00 | |
| PETON7-10 | 2026-09-06 00:23:13 | 47.71029 | 17.46279 | 117° | 120km/h | 14221m | 5.2m/s | -56.2°C | 6.1% | 0hPa | 2.6V | 00:00:00 | 01:07:38 | 00:00:00 | |
| OE5DXL-15 | 2026-09-06 00:23:09 | 47.71083 | 17.46120 | 117° | 122km/h | 14201m | 5.2m/s | -56.4°C | 6.4% | 0hPa | 2.6V | 00:00:00 | 01:07:34 | 08:30:00 | |
| PG1ADW-2 | 2026-09-06 00:23:05 | 47.71140 | 17.45955 | 119° | 120km/h | 14182m | 4.4m/s | -56.4°C | 6.6% | 0hPa | 2.6V | 00:00:00 | 00:00:00 | 00:00:00 | |
| OE3OSB-13 | 2026-09-06 00:23:01 | 47.71199 | 17.45796 | 118° | 115km/h | 14163m | 5.2m/s | -56.6°C | 3.5% | -1.0hPa | 2.6V | 00:00:00 | 00:00:00 | 00:00:00 | |
| PETON7-10 | 2026-09-06 00:22:58 | 47.71238 | 17.45681 | 117° | 122km/h | 14150m | 4.3m/s | -56.8°C | 6.9% | 0hPa | 2.6V | 00:00:00 | 00:00:00 | 00:00:00 | |
| OE5DRO-10 | 2026-09-06 00:22:54 | 47.71292 | 17.45524 | 117° | 126km/h | 14132m | 5.4m/s | -57.6°C | 7.6% | 0hPa | 2.6V | 00:00:00 | 00:00:00 | 00:00:00 | |
| PG1ADW-2 | 2026-09-06 00:22:45 | 47.71420 | 17.45151 | 117° | 128km/h | 14090m | 4.4m/s | -59.1°C | 9.0% | 0hPa | 2.6V | 00:00:00 | 00:00:00 | 00:00:00 | |
| HA6NAB-11 | 2026-09-06 00:22:44 | 47.71420 | 17.45151 | 118° | 128km/h | 14090m | 4.5m/s | -59.1°C | 5.3% | 0hPa | 2.6V | 00:00:00 | 00:00:00 | 00:00:00 | |
| PETON7-10 | 2026-09-06 00:22:43 | 47.71449 | 17.45064 | 117° | 128km/h | 14081m | 3.9m/s | -59.3°C | 9.5% | 0hPa | 2.6V | 00:00:00 | 00:00:00 | 00:00:00 | |
| OE5DXL-15 | 2026-09-06 00:22:39 | 47.71504 | 17.44894 | 116° | 126km/h | 14062m | 4.0m/s | -59.4°C | 9.8% | 0hPa | 2.6V | 00:00:00 | 00:00:00 | 00:00:00 | |
| HA6NAB-11 | 2026-09-06 00:22:38 | 47.71504 | 17.44894 | 116° | 126km/h | 14062m | 4.1m/s | -59.5°C | 5.8% | 0hPa | 2.6V | 00:00:00 | 00:00:00 | 00:00:00 | |
| OE5DRO-10 | 2026-09-06 00:22:35 | 47.71561 | 17.44723 | 117° | 126km/h | 14044m | 5.1m/s | -59.8°C | 10.4% | 0hPa | 2.6V | 00:00:00 | 00:00:00 | 00:00:00 | |
| HA6NAB-11 | 2026-09-06 00:22:33 | 47.71576 | 17.44679 | 118° | 131km/h | 14040m | 3.6m/s | -59.8°C | 6.3% | 0hPa | 2.6V | 00:00:00 | 00:00:00 | 00:00:00 | |
| OE3OSB-13 | 2026-09-06 00:22:30 | 47.71637 | 17.44508 | 118° | 126km/h | 14020m | 4.5m/s | -59.9°C | 6.6% | -1.0hPa | 2.6V | 00:00:00 | 00:00:00 | 00:00:00 | |
| PETON7-10 | 2026-09-06 00:22:28 | 47.71667 | 17.44427 | 121° | 126km/h | 14012m | 4.4m/s | -59.9°C | 11.4% | 0hPa | 2.6V | 00:00:00 | 01:06:53 | 00:00:00 | |
| PG1ADW-2 | 2026-09-06 00:22:25 | 47.71714 | 17.44307 | 120° | 126km/h | 13999m | 3.5m/s | -59.9°C | 11.7% | 0hPa | 2.6V | 00:00:00 | 00:00:00 | 00:00:00 | |
| HA6NAB-11 | 2026-09-06 00:22:22 | 47.71745 | 17.44226 | 121° | 124km/h | 13989m | 5.5m/s | -60.0°C | 7.5% | 0hPa | 2.6V | 00:00:00 | 00:00:00 | 00:00:00 | |
| OE5DRO-10 | 2026-09-06 00:22:16 | 47.71860 | 17.43942 | 125° | 126km/h | 13956m | 5.9m/s | -59.9°C | 12.6% | 0hPa | 2.6V | 00:00:00 | 00:00:00 | 00:00:00 | |
| PETON7-10 | 2026-09-06 00:22:13 | 47.71916 | 17.43827 | 126° | 126km/h | 13941m | 5.0m/s | -59.9°C | 13.1% | 0hPa | 2.6V | 00:00:00 | 00:00:00 | 08:30:00 | |
| OE5DXL-15 | 2026-09-06 00:22:09 | 47.71992 | 17.43674 | 128° | 131km/h | 13923m | 3.9m/s | -60.0°C | 13.9% | 0hPa | 2.7V | 00:00:00 | 00:00:00 | 00:00:00 | |
| PG1ADW-2 | 2026-09-06 00:22:05 | 47.72068 | 17.43522 | 128° | 130km/h | 13907m | 4.4m/s | -60.1°C | 14.3% | 0hPa | 2.7V | 00:00:00 | 01:06:30 | 00:00:00 | |
| OE3OSB-13 | 2026-09-06 00:21:59 | 47.72187 | 17.43299 | 128° | 126km/h | 13880m | 5.1m/s | -60.2°C | 10.2% | -1.0hPa | 2.7V | 00:00:00 | 00:00:00 | 00:00:00 | |
| PETON7-10 | 2026-09-06 00:21:58 | 47.72207 | 17.43262 | 130° | 131km/h | 13875m | 4.4m/s | -60.1°C | 15.6% | 0hPa | 2.7V | 00:00:00 | 00:00:00 | 00:00:00 | |
| OE5DRO-10 | 2026-09-06 00:21:57 | 47.72227 | 17.43226 | 131° | 133km/h | 13871m | 3.0m/s | -60.1°C | 15.7% | 0hPa | 2.7V | 00:00:00 | 00:00:00 | 00:00:00 | |
| PG1ADW-2 | 2026-09-06 00:21:45 | 47.72498 | 17.42788 | 134° | 142km/h | 13821m | 4.0m/s | -60.7°C | 18.1% | 0hPa | 2.7V | 00:00:00 | 00:00:00 | 00:00:00 | |
| PETON7-10 | 2026-09-06 00:21:43 | 47.72544 | 17.42713 | 132° | 142km/h | 13812m | 4.2m/s | -60.9°C | 18.8% | 0hPa | 2.7V | 00:00:00 | 01:06:08 | 00:00:00 | |
| OE5DXL-15 | 2026-09-06 00:21:39 | 47.72637 | 17.42558 | 133° | 144km/h | 13796m | 3.2m/s | -61.0°C | 19.6% | 0hPa | 2.7V | 00:00:00 | 00:00:00 | 00:00:00 | |
| OE5DRO-10 | 2026-09-06 00:21:38 | 47.72662 | 17.42518 | 133° | 146km/h | 13793m | 4.3m/s | -61.0°C | 19.6% | 0hPa | 2.6V | 00:00:00 | 00:00:00 | 00:00:00 | |
| OE3JTB-15 | 2026-09-06 00:21:29 | 47.72889 | 17.42164 | 133° | 146km/h | 13755m | 3.7m/s | -61.0°C | 20.6% | 0hPa | 2.6V | 00:00:00 | 01:05:54 | 00:00:00 | |
| PETON7-10 | 2026-09-06 00:21:28 | 47.72914 | 17.42124 | 132° | 146km/h | 13751m | 3.5m/s | -61.0°C | 20.8% | 0hPa | 2.6V | 00:00:00 | 00:00:00 | 00:00:00 | |
| PG1ADW-2 | 2026-09-06 00:21:25 | 47.72986 | 17.42001 | 132° | 146km/h | 13739m | 3.7m/s | -61.0°C | 21.0% | 0hPa | 2.6V | 00:00:00 | 00:00:00 | 00:00:00 | |
| OE5DRO-10 | 2026-09-06 00:21:19 | 47.73132 | 17.41748 | 131° | 144km/h | 13714m | 3.6m/s | -61.0°C | 21.8% | 0hPa | 2.7V | 00:00:00 | 00:00:00 | 00:00:00 | |
| PETON7-10 | 2026-09-06 00:21:13 | 47.73274 | 17.41497 | 129° | 144km/h | 13689m | 4.3m/s | -60.9°C | 22.6% | 0hPa | 2.7V | 00:00:00 | 00:00:00 | 00:00:00 | |
| OE5DXL-15 | 2026-09-06 00:21:09 | 47.73361 | 17.41334 | 129° | 144km/h | 13672m | 3.3m/s | -60.8°C | 23.6% | 0hPa | 2.7V | 00:00:00 | 00:00:00 | 00:00:00 | |
| PG1ADW-2 | 2026-09-06 00:21:05 | 47.73450 | 17.41158 | 127° | 144km/h | 13657m | 3.9m/s | -60.7°C | 23.7% | 0hPa | 2.7V | 00:00:00 | 00:00:00 | 00:00:00 | |
| OE3OSB-13 | 2026-09-06 00:20:57 | 47.73631 | 17.40814 | 127° | 144km/h | 13624m | 4.0m/s | -60.7°C | 18.8% | -1.0hPa | 2.7V | 00:00:00 | 00:00:00 | 00:00:00 | |
| PG1ADW-2 | 2026-09-06 00:20:45 | 47.73881 | 17.40291 | 126° | 139km/h | 13574m | 4.5m/s | -61.1°C | 29.0% | 0hPa | 2.7V | 00:00:00 | 01:05:10 | 00:00:00 | |
| PETON7-10 | 2026-09-06 00:20:43 | 47.73923 | 17.40204 | 126° | 139km/h | 13565m | 4.6m/s | -61.2°C | 29.7% | 0hPa | 2.7V | 00:00:00 | 00:00:00 | 00:00:00 | |
| OE5DRO-10 | 2026-09-06 00:20:42 | 47.73965 | 17.40116 | 126° | 139km/h | 13558m | 3.4m/s | -61.3°C | 30.2% | 0hPa | 2.6V | 00:00:00 | 00:00:00 | 00:00:00 | |
| OE5DXL-15 | 2026-09-06 00:20:39 | 47.74006 | 17.40030 | 125° | 137km/h | 13549m | 2.6m/s | -61.3°C | 30.6% | 0hPa | 2.6V | 00:00:00 | 00:00:00 | 00:00:00 | |
| OE3JTB-15 | 2026-09-06 00:20:31 | 47.74165 | 17.39693 | 127° | 141km/h | 13517m | 4.2m/s | -61.3°C | 30.9% | 0hPa | 2.6V | 00:00:00 | 00:00:00 | 00:00:00 | |
| S52SK | 2026-09-06 00:20:29 | 47.74186 | 17.39652 | 128° | 137km/h | 13513m | 4.4m/s | -61.4°C | 24.0% | 0hPa | 2.6V | 00:00:00 | 00:00:00 | 00:00:00 | |
| PETON7-10 | 2026-09-06 00:20:28 | 47.74228 | 17.39569 | 126° | 135km/h | 13504m | 4.4m/s | -61.3°C | 31.5% | 0hPa | 2.6V | 00:00:00 | 00:00:00 | 00:00:00 | |
| OE3OSB-13 | 2026-09-06 00:20:26 | 47.74270 | 17.39484 | 126° | 139km/h | 13496m | 5.0m/s | -61.3°C | 0% | -1.0hPa | 2.6V | 00:00:00 | 00:00:00 | 00:00:00 | |
| PG1ADW-2 | 2026-09-06 00:20:25 | 47.74290 | 17.39442 | 127° | 137km/h | 13492m | 3.9m/s | -61.3°C | 32.3% | 0hPa | 2.6V | 00:00:00 | 00:00:00 | 08:30:00 | |
| S52SK | 2026-09-06 00:20:23 | 47.74311 | 17.39400 | 127° | 139km/h | 13489m | 3.4m/s | -61.3°C | 25.3% | 0hPa | 2.6V | 00:00:00 | 00:00:00 | 00:00:00 | |
| OE5DRO-10 | 2026-09-06 00:20:22 | 47.74353 | 17.39316 | 127° | 137km/h | 13481m | 3.7m/s | -61.3°C | 33.3% | 0hPa | 2.6V | 00:00:00 | 00:00:00 | 08:30:00 | |
| HA6NAB-11 | 2026-09-06 00:20:20 | 47.74373 | 17.39274 | 129° | 137km/h | 13478m | 2.6m/s | -61.3°C | 26.0% | 0hPa | 2.6V | 00:00:00 | 00:00:00 | 00:00:00 | |
| HA6NAB-11 | 2026-09-06 00:20:14 | 47.74499 | 17.39045 | 130° | 135km/h | 13453m | 3.4m/s | -61.3°C | 27.5% | 0hPa | 2.6V | 00:00:00 | 00:00:00 | 00:00:00 | |
| PETON7-10 | 2026-09-06 00:20:13 | 47.74543 | 17.38965 | 129° | 139km/h | 13445m | 4.2m/s | -61.2°C | 35.2% | 0hPa | 2.6V | 00:00:00 | 01:04:38 | 00:00:00 | |
| HA6NAB-11 | 2026-09-06 00:20:10 | 47.74608 | 17.38835 | 126° | 144km/h | 13433m | 3.2m/s | -61.2°C | 28.1% | 0hPa | 2.6V | 00:00:00 | 00:00:00 | 00:00:00 | |
| OE5DXL-15 | 2026-09-06 00:20:09 | 47.74629 | 17.38791 | 126° | 139km/h | 13429m | 3.9m/s | -61.1°C | 35.8% | 0hPa | 2.6V | 00:00:00 | 00:00:00 | 00:00:00 | |
| PG1ADW-2 | 2026-09-06 00:20:05 | 47.74720 | 17.38635 | 136° | 139km/h | 13410m | 6.1m/s | -61.0°C | 36.0% | 0hPa | 2.6V | 00:00:00 | 00:00:00 | 00:00:00 | |
| OE5DRO-10 | 2026-09-06 00:20:03 | 47.74769 | 17.38564 | 135° | 139km/h | 13400m | 6.0m/s | -60.9°C | 36.0% | 0hPa | 2.6V | 00:00:00 | 00:00:00 | 00:00:00 | |
| OE3OSB-13 | 2026-09-06 00:19:55 | 47.74987 | 17.38221 | 135° | 141km/h | 13353m | 5.3m/s | -60.9°C | 29.7% | -1.0hPa | 2.6V | 00:00:00 | 00:00:00 | 00:00:00 | |
| OE3MUC-15 | 2026-09-06 00:19:53 | 47.75012 | 17.38184 | 134° | 141km/h | 13349m | 4.0m/s | -60.8°C | 38.4% | 0hPa | 2.6V | 00:00:00 | 00:00:00 | 00:00:00 | |
| HA6NAB-11 | 2026-09-06 00:19:51 | 47.75036 | 17.38145 | 134° | 139km/h | 13345m | 3.7m/s | -60.9°C | 30.7% | 0hPa | 2.6V | 00:00:00 | 00:00:00 | 00:00:00 | |
| OE3MUC-15 | 2026-09-06 00:19:49 | 47.75108 | 17.38030 | 134° | 141km/h | 13332m | 5.6m/s | -60.8°C | 39.0% | 0hPa | 2.6V | 00:00:00 | 00:00:00 | 00:00:00 | |
| OE3JTB-15 | 2026-09-06 00:19:48 | 47.75133 | 17.37993 | 136° | 159km/h | 13327m | 3.9m/s | -60.8°C | 38.8% | 0hPa | 2.7V | 00:00:00 | 01:04:13 | 00:00:00 | |
| PG1ADW-2 | 2026-09-06 00:19:45 | 47.75209 | 17.37888 | 139° | 150km/h | 13313m | 3.7m/s | -61.4°C | 40.0% | 0hPa | 2.7V | 00:00:00 | 00:00:00 | 00:00:00 | |
| OE5DRO-10 | 2026-09-06 00:19:44 | 47.75234 | 17.37854 | 137° | 150km/h | 13309m | 4.0m/s | -61.4°C | 39.5% | 0hPa | 2.7V | 00:00:00 | 00:00:00 | 00:00:00 | |
| PETON7-10 | 2026-09-06 00:19:43 | 47.75259 | 17.37819 | 136° | 150km/h | 13305m | 3.5m/s | -61.5°C | 39.8% | 0hPa | 2.7V | 00:00:00 | 00:00:00 | 00:00:00 | |
| OE5DXL-15 | 2026-09-06 00:19:39 | 47.75358 | 17.37666 | 133° | 162km/h | 13290m | 4.4m/s | -61.7°C | 41.7% | 0hPa | 2.7V | 00:00:00 | 00:00:00 | 00:00:00 | |
| PETON7-10 | 2026-09-06 00:19:28 | 47.75680 | 17.37251 | 141° | 168km/h | 13235m | 3.3m/s | -62.8°C | 51.1% | 0hPa | 2.7V | 00:00:00 | 01:03:53 | 00:00:00 | |
| PG1ADW-2 | 2026-09-06 00:19:25 | 47.75775 | 17.37140 | 143° | 170km/h | 13222m | 3.5m/s | -63.1°C | 51.8% | 0hPa | 2.7V | 00:00:00 | 01:03:50 | 00:00:00 | |
| OE3OSB-13 | 2026-09-06 00:19:24 | 47.75841 | 17.37063 | 140° | 162km/h | 13210m | 6.3m/s | -63.6°C | 43.5% | -1.0hPa | 2.7V | 00:00:00 | 00:00:00 | 00:00:00 | |
| OE3MUC-15 | 2026-09-06 00:19:17 | 47.76037 | 17.36819 | 139° | 181km/h | 13182m | 4.7m/s | -63.7°C | 55.2% | 0hPa | 2.7V | 00:00:00 | 00:00:00 | 00:00:00 | |
| OE3JTB-15 | 2026-09-06 00:19:16 | 47.76071 | 17.36773 | 137° | 173km/h | 13177m | 4.8m/s | -63.7°C | 55.2% | 0hPa | 2.7V | 00:00:00 | 00:00:00 | 08:30:00 | |
| PETON7-10 | 2026-09-06 00:19:13 | 47.76167 | 17.36632 | 134° | 172km/h | 13163m | 4.0m/s | -63.5°C | 55.7% | 0hPa | 2.6V | 00:00:00 | 00:00:00 | 00:00:00 | |
| OE5DXL-15 | 2026-09-06 00:19:09 | 47.76281 | 17.36453 | 134° | 173km/h | 13147m | 4.8m/s | -63.5°C | 57.4% | 0hPa | 2.7V | 00:00:00 | 00:00:00 | 00:00:00 | |
| OE5DRO-10 | 2026-09-06 00:19:06 | 47.76368 | 17.36311 | 131° | 173km/h | 13136m | 4.1m/s | -63.6°C | 59.0% | 0hPa | 2.7V | 00:00:00 | 00:00:00 | 00:00:00 | |
| PG1ADW-2 | 2026-09-06 00:19:05 | 47.76397 | 17.36261 | 131° | 173km/h | 13133m | 2.8m/s | -63.6°C | 59.6% | 0hPa | 2.7V | 00:00:00 | 00:00:00 | 00:00:00 | |
| OE3OSB-13 | 2026-09-06 00:18:53 | 47.76779 | 17.35637 | 131° | 172km/h | 13085m | 4.5m/s | -64.5°C | 51.0% | -1.0hPa | 2.7V | 00:00:00 | 00:00:00 | 00:00:00 | |
| OE3MUC-15 | 2026-09-06 00:18:50 | 47.76836 | 17.35540 | 131° | 173km/h | 13075m | 5.1m/s | -64.4°C | 64.6% | 0hPa | 2.7V | 00:00:00 | 00:00:00 | 08:30:00 | |
| OE5DRO-10 | 2026-09-06 00:18:47 | 47.76919 | 17.35388 | 129° | 172km/h | 13064m | 3.0m/s | -64.4°C | 66.4% | 0hPa | 2.7V | 00:00:00 | 00:00:00 | 00:00:00 | |
| OE3MUC-15 | 2026-09-06 00:18:45 | 47.76973 | 17.35284 | 127° | 172km/h | 13059m | 3.6m/s | -64.3°C | 66.3% | 0hPa | 2.7V | 00:00:00 | 00:00:00 | 00:00:00 | |
| OE3JTB-15 | 2026-09-06 00:18:44 | 47.76998 | 17.35232 | 127° | 173km/h | 13056m | 2.7m/s | -64.3°C | 66.4% | 0hPa | 2.7V | 00:00:00 | 00:00:00 | 00:00:00 | |
| PETON7-10 | 2026-09-06 00:18:43 | 47.77024 | 17.35180 | 127° | 172km/h | 13053m | 2.5m/s | -64.3°C | 65.6% | 0hPa | 2.7V | 00:00:00 | 01:03:08 | 00:00:00 | |
| S52SK | 2026-09-06 00:18:42 | 47.77024 | 17.35180 | 127° | 172km/h | 13053m | 2.5m/s | -64.3°C | 54.1% | 0hPa | 2.7V | 00:00:00 | 00:00:00 | 00:00:00 | |
| OE5DXL-15 | 2026-09-06 00:18:39 | 47.77128 | 17.34973 | 129° | 173km/h | 13041m | 4.0m/s | -64.1°C | 65.3% | 0hPa | 2.7V | 00:00:00 | 00:00:00 | 08:30:00 | |
| OE3MUC-15 | 2026-09-06 00:18:37 | 47.77209 | 17.34823 | 129° | 172km/h | 13030m | 3.8m/s | -64.1°C | 66.2% | 0hPa | 2.7V | 00:00:00 | 00:00:00 | 00:00:00 | |
| PETON7-10 | 2026-09-06 00:18:28 | 47.77423 | 17.34413 | 127° | 173km/h | 13003m | 3.8m/s | -64.5°C | 71.2% | 0hPa | 2.7V | 00:00:00 | 00:00:00 | 00:00:00 | |
| OE3MUC-15 | 2026-09-06 00:18:26 | 47.77476 | 17.34309 | 128° | 173km/h | 12995m | 4.8m/s | -64.5°C | 72.3% | 0hPa | 2.6V | 00:00:00 | 01:02:51 | 00:00:00 | |
| PG1ADW-2 | 2026-09-06 00:18:25 | 47.77503 | 17.34258 | 128° | 172km/h | 12991m | 2.8m/s | -64.4°C | 73.1% | 0hPa | 2.6V | 00:00:00 | 00:00:00 | 00:00:00 | |
| OE3OSB-13 | 2026-09-06 00:18:22 | 47.77609 | 17.34052 | 126° | 170km/h | 12979m | 4.2m/s | -64.4°C | 58.9% | -1.0hPa | 2.6V | 00:00:00 | 00:00:00 | 00:00:00 | |
| OE3MUC-15 | 2026-09-06 00:18:18 | 47.77685 | 17.33897 | 126° | 173km/h | 12966m | 4.6m/s | -64.3°C | 71.3% | 0hPa | 2.6V | 00:00:00 | 00:00:00 | 00:00:00 | |
| OE3JTB-15 | 2026-09-06 00:18:15 | 47.77763 | 17.33736 | 127° | 170km/h | 12952m | 5.4m/s | -64.2°C | 72.2% | 0hPa | 2.6V | 00:00:00 | 01:02:40 | 00:00:00 | |
| PETON7-10 | 2026-09-06 00:18:13 | 47.77814 | 17.33629 | 124° | 168km/h | 12943m | 4.6m/s | -64.1°C | 72.4% | 0hPa | 2.6V | 00:00:00 | 00:00:00 | 00:00:00 | |
| OE5DRO-10 | 2026-09-06 00:18:09 | 47.77912 | 17.33412 | 126° | 170km/h | 12925m | 2.4m/s | -64.0°C | 73.6% | 0hPa | 2.6V | 00:00:00 | 00:00:00 | 00:00:00 | |
| OE3MUC-15 | 2026-09-06 00:18:08 | 47.77937 | 17.33360 | 127° | 162km/h | 12922m | 2.9m/s | -64.0°C | 72.5% | 0hPa | 2.6V | 00:00:00 | 00:00:00 | 00:00:00 | |
| PG1ADW-2 | 2026-09-06 00:18:06 | 47.78011 | 17.33212 | 126° | 168km/h | 12909m | 4.4m/s | -63.9°C | 72.6% | 0hPa | 2.7V | 00:00:00 | 01:02:30 | 00:00:00 | |
| OE3MUC-15 | 2026-09-06 00:18:03 | 47.78056 | 17.33112 | 122° | 168km/h | 12900m | 4.0m/s | -63.8°C | 75.2% | 0hPa | 2.7V | 00:00:00 | 00:00:00 | 00:00:00 | |
| OE3OSB-13 | 2026-09-06 00:17:51 | 47.78359 | 17.32408 | 123° | 170km/h | 12840m | 6.7m/s | -63.5°C | 60.2% | -1.0hPa | 2.7V | 00:00:00 | 00:00:00 | 00:00:00 | |
| OE3MUC-15 | 2026-09-06 00:17:50 | 47.78359 | 17.32408 | 124° | 168km/h | 12840m | 6.6m/s | -63.4°C | 72.5% | 0hPa | 2.7V | 00:00:00 | 00:00:00 | 00:00:00 | |
| OE3MUC-15 | 2026-09-06 00:17:46 | 47.78451 | 17.32200 | 125° | 164km/h | 12820m | 4.0m/s | -63.3°C | 74.2% | 0hPa | 2.7V | 00:00:00 | 00:00:00 | 00:00:00 | |
| PG1ADW-2 | 2026-09-06 00:17:45 | 47.78474 | 17.32150 | 125° | 166km/h | 12816m | 4.9m/s | -63.3°C | 74.0% | 0hPa | 2.7V | 00:00:00 | 00:00:00 | 00:00:00 | |
| PETON7-10 | 2026-09-06 00:17:43 | 47.78519 | 17.32046 | 122° | 166km/h | 12808m | 3.1m/s | -63.2°C | 74.2% | 0hPa | 2.7V | 00:00:00 | 00:00:00 | 08:30:00 | |
| OE5DXL-15 | 2026-09-06 00:17:39 | 47.78603 | 17.31827 | 120° | 166km/h | 12790m | 4.6m/s | -63.2°C | 74.2% | 0hPa | 2.6V | 00:00:00 | 00:00:00 | 00:00:00 | |
| OE5DRO-10 | 2026-09-06 00:17:31 | 47.78779 | 17.31398 | 122° | 166km/h | 12756m | 3.6m/s | -63.0°C | 73.6% | 0hPa | 2.6V | 00:00:00 | 00:00:00 | 08:30:00 | |
| PETON7-10 | 2026-09-06 00:17:28 | 47.78845 | 17.31240 | 123° | 166km/h | 12744m | 4.8m/s | -62.9°C | 74.0% | 0hPa | 2.6V | 00:00:00 | 00:00:00 | 00:00:00 | |
| PG1ADW-2 | 2026-09-06 00:17:25 | 47.78912 | 17.31080 | 122° | 168km/h | 12731m | 2.8m/s | -62.8°C | 76.2% | 0hPa | 2.6V | 00:00:00 | 00:00:00 | 08:30:00 | |
| OE3MUC-15 | 2026-09-06 00:17:21 | 47.79001 | 17.30868 | 123° | 166km/h | 12716m | 3.9m/s | -62.9°C | 76.7% | 0hPa | 2.7V | 00:00:00 | 00:00:00 | 00:00:00 | |
| OE3OSB-13 | 2026-09-06 00:17:20 | 47.79046 | 17.30765 | 123° | 162km/h | 12707m | 3.4m/s | -62.8°C | 63.8% | -1.0hPa | 2.7V | 00:00:00 | 00:00:00 | 00:00:00 | |
| OE3JTB-15 | 2026-09-06 00:17:16 | 47.79116 | 17.30610 | 123° | 168km/h | 12694m | 4.8m/s | -62.8°C | 75.0% | 0hPa | 2.7V | 00:00:00 | 00:00:00 | 00:00:00 | |
| OE3MUC-15 | 2026-09-06 00:17:15 | 47.79138 | 17.30556 | 122° | 168km/h | 12689m | 4.4m/s | -62.8°C | 75.3% | 0hPa | 2.7V | 00:00:00 | 00:00:00 | 08:30:00 | |
| PETON7-10 | 2026-09-06 00:17:13 | 47.79182 | 17.30448 | 121° | 170km/h | 12681m | 5.6m/s | -62.9°C | 75.0% | 0hPa | 2.6V | 00:00:00 | 01:01:38 | 00:00:00 | |
| OE5DRO-10 | 2026-09-06 00:17:12 | 47.79204 | 17.30394 | 122° | 170km/h | 12676m | 4.1m/s | -62.9°C | 75.9% | 0hPa | 2.6V | 00:00:00 | 00:00:00 | 00:00:00 | |
| OE3MUC-15 | 2026-09-06 00:17:11 | 47.79226 | 17.30341 | 123° | 168km/h | 12673m | 2.4m/s | -62.9°C | 75.9% | 0hPa | 2.6V | 00:00:00 | 00:00:00 | 00:00:00 | |
| OE5DXL-15 | 2026-09-06 00:17:09 | 47.79272 | 17.30234 | 124° | 168km/h | 12665m | 4.8m/s | -62.9°C | 75.1% | 0hPa | 2.6V | 00:00:00 | 00:00:00 | 00:00:00 | |
| OE3MUC-15 | 2026-09-06 00:17:07 | 47.79320 | 17.30128 | 125° | 170km/h | 12656m | 5.8m/s | -62.8°C | 75.0% | 0hPa | 2.6V | 00:00:00 | 00:00:00 | 00:00:00 | |
| PG1ADW-2 | 2026-09-06 00:17:05 | 47.79368 | 17.30024 | 125° | 168km/h | 12647m | 3.2m/s | -62.8°C | 75.1% | 0hPa | 2.6V | 00:00:00 | 00:00:00 | 00:00:00 | |
| OE3MUC-15 | 2026-09-06 00:17:03 | 47.79417 | 17.29919 | 125° | 170km/h | 12638m | 3.5m/s | -62.7°C | 75.5% | 0hPa | 2.6V | 00:00:00 | 00:00:00 | 00:00:00 | |
| OE3OSB-13 | 2026-09-06 00:16:49 | 47.79765 | 17.29122 | 121° | 164km/h | 12574m | 5.4m/s | -62.3°C | 62.0% | -1.0hPa | 2.7V | 00:00:00 | 00:00:00 | 00:00:00 | |
| OE3MUC-15 | 2026-09-06 00:16:47 | 47.79786 | 17.29069 | 122° | 166km/h | 12569m | 3.7m/s | -62.2°C | 74.2% | 0hPa | 2.7V | 00:00:00 | 00:00:00 | 00:00:00 | |
| PG1ADW-2 | 2026-09-06 00:16:45 | 47.79831 | 17.28962 | 123° | 166km/h | 12561m | 4.3m/s | -62.1°C | 73.0% | 0hPa | 2.7V | 00:00:00 | 01:01:10 | 00:00:00 | |
| PETON7-10 | 2026-09-06 00:16:43 | 47.79877 | 17.28858 | 123° | 166km/h | 12553m | 4.2m/s | -62.0°C | 71.5% | 0hPa | 2.7V | 00:00:00 | 00:00:00 | 00:00:00 | |
| OE5DXL-15 | 2026-09-06 00:16:39 | 47.79965 | 17.28645 | 122° | 164km/h | 12532m | 4.8m/s | -61.9°C | 71.3% | 0hPa | 2.7V | 00:00:00 | 00:00:00 | 00:00:00 | |
| OE3MUC-15 | 2026-09-06 00:16:38 | 47.79987 | 17.28591 | 121° | 166km/h | 12528m | 4.0m/s | -61.8°C | 70.7% | 0hPa | 2.7V | 00:00:00 | 00:00:00 | 08:30:00 | |
| OE3MUC-15 | 2026-09-06 00:16:34 | 47.80073 | 17.28376 | 121° | 164km/h | 12509m | 4.2m/s | -61.7°C | 70.2% | 0hPa | 2.6V | 00:00:00 | 00:00:00 | 00:00:00 | |
| OE3MUC-15 | 2026-09-06 00:16:29 | 47.80180 | 17.28113 | 122° | 162km/h | 12485m | 4.5m/s | -61.5°C | 69.4% | 0hPa | 2.6V | 00:00:00 | 00:00:00 | 00:00:00 | |
| PETON7-10 | 2026-09-06 00:16:28 | 47.80202 | 17.28060 | 122° | 164km/h | 12481m | 4.9m/s | -61.4°C | 68.6% | 0hPa | 2.6V | 00:00:00 | 01:00:53 | 00:00:00 | |
| OE3MUC-15 | 2026-09-06 00:16:25 | 47.80265 | 17.27903 | 121° | 162km/h | 12466m | 5.9m/s | -61.3°C | 68.0% | 0hPa | 2.6V | 00:00:00 | 00:00:00 | 00:00:00 | |
| OE3MUC-15 | 2026-09-06 00:16:21 | 47.80347 | 17.27692 | 120° | 164km/h | 12446m | 5.0m/s | -61.1°C | 68.2% | 0hPa | 2.6V | 00:00:00 | 00:00:00 | 00:00:00 | |
| OE3MUC-15 | 2026-09-06 00:16:17 | 47.80432 | 17.27482 | 124° | 168km/h | 12424m | 5.1m/s | -61.0°C | 69.8% | 0hPa | 2.6V | 00:00:00 | 00:00:00 | 00:00:00 | |
| OE5DRO-10 | 2026-09-06 00:16:15 | 47.80479 | 17.27379 | 125° | 166km/h | 12414m | 6.4m/s | -60.9°C | 68.8% | 0hPa | 2.6V | 00:00:00 | 00:00:00 | 00:00:00 | |
| PETON7-10 | 2026-09-06 00:16:13 | 47.80527 | 17.27272 | 123° | 166km/h | 12403m | 5.7m/s | -60.8°C | 67.5% | 0hPa | 2.6V | 00:00:00 | 00:00:00 | 00:00:00 | |
| OE5DXL-15 | 2026-09-06 00:16:09 | 47.80609 | 17.27058 | 119° | 164km/h | 12383m | 4.8m/s | -60.6°C | 65.1% | 0hPa | 2.6V | 00:00:00 | 00:00:00 | 00:00:00 | |
| OE3MUC-15 | 2026-09-06 00:16:08 | 47.80629 | 17.27006 | 121° | 162km/h | 12377m | 6.2m/s | -60.5°C | 65.4% | 0hPa | 2.6V | 00:00:00 | 00:00:00 | 00:00:00 | |
| PG1ADW-2 | 2026-09-06 00:16:05 | 47.80696 | 17.26853 | 125° | 164km/h | 12359m | 7.1m/s | -60.4°C | 65.0% | 0hPa | 2.6V | 00:00:00 | 00:00:00 | 00:00:00 | |
| OE3MUC-15 | 2026-09-06 00:16:04 | 47.80720 | 17.26801 | 125° | 170km/h | 12352m | 5.7m/s | -60.3°C | 65.0% | 0hPa | 2.6V | 00:00:00 | 00:00:00 | 00:00:00 | |
| OE3OSB-13 | 2026-09-06 00:15:46 | 47.81137 | 17.25883 | 123° | 166km/h | 12247m | 7.2m/s | -59.4°C | 50.9% | -1.0hPa | 2.6V | 00:00:00 | 00:00:00 | 00:00:00 | |
| PG1ADW-2 | 2026-09-06 00:15:45 | 47.81160 | 17.25830 | 124° | 164km/h | 12241m | 7.1m/s | -59.3°C | 61.0% | 0hPa | 2.6V | 00:00:00 | 00:00:00 | 00:00:00 | |
| OE3MUC-15 | 2026-09-06 00:15:43 | 47.81209 | 17.25723 | 124° | 166km/h | 12229m | 5.5m/s | -59.2°C | 60.8% | 0hPa | 2.6V | 00:00:00 | 00:00:00 | 00:00:00 | |
| OE5DXL-15 | 2026-09-06 00:15:39 | 47.81304 | 17.25521 | 128° | 162km/h | 12206m | 4.8m/s | -59.0°C | 60.4% | 0hPa | 2.7V | 00:00:00 | 00:00:00 | 00:00:00 | |
| OE5DRO-10 | 2026-09-06 00:15:37 | 47.81354 | 17.25425 | 128° | 164km/h | 12196m | 5.6m/s | -59.0°C | 60.1% | 0hPa | 2.6V | 00:00:00 | 00:00:00 | 00:00:00 | |
| S52SK | 2026-09-06 00:15:29 | 47.81520 | 17.25071 | 126° | 162km/h | 12156m | 5.4m/s | -58.7°C | 51.6% | 0hPa | 2.6V | 00:00:00 | 00:00:00 | 00:00:00 | |
| PETON7-10 | 2026-09-06 00:15:28 | 47.81567 | 17.24972 | 126° | 162km/h | 12145m | 4.6m/s | -58.6°C | 61.8% | 0hPa | 2.6V | 00:00:00 | 00:00:00 | 08:30:00 | |
| PG1ADW-2 | 2026-09-06 00:15:25 | 47.81640 | 17.24823 | 126° | 162km/h | 12129m | 5.7m/s | -58.7°C | 61.6% | 0hPa | 2.7V | 00:00:00 | 00:59:50 | 00:00:00 | |
| S52SK | 2026-09-06 00:15:23 | 47.81664 | 17.24772 | 125° | 164km/h | 12123m | 5.8m/s | -58.8°C | 52.7% | 0hPa | 2.7V | 00:00:00 | 00:00:00 | 00:00:00 | |
| OE3MUC-15 | 2026-09-06 00:15:19 | 47.81779 | 17.24517 | 125° | 162km/h | 12096m | 5.8m/s | -58.7°C | 62.3% | 0hPa | 2.7V | 00:00:00 | 00:00:00 | 08:30:00 | |
| OE5DRO-10 | 2026-09-06 00:15:18 | 47.81802 | 17.24467 | 125° | 161km/h | 12091m | 5.3m/s | -58.7°C | 62.8% | 0hPa | 2.6V | 00:00:00 | 00:00:00 | 00:00:00 | |
| OE3OSB-13 | 2026-09-06 00:15:17 | 47.81873 | 17.24319 | 126° | 161km/h | 12074m | 5.4m/s | -58.6°C | 53.4% | -1.0hPa | 2.6V | 00:00:00 | 00:00:00 | 00:00:00 | |
| OE3JTB-15 | 2026-09-06 00:15:16 | 47.81873 | 17.24319 | 127° | 159km/h | 12074m | 5.3m/s | -58.6°C | 63.3% | 0hPa | 2.6V | 00:00:00 | 00:00:00 | 00:00:00 | |
| OE3MUC-15 | 2026-09-06 00:15:15 | 47.81873 | 17.24319 | 127° | 162km/h | 12074m | 5.3m/s | -58.6°C | 63.3% | 0hPa | 2.6V | 00:00:00 | 00:00:00 | 00:00:00 | |
| PETON7-10 | 2026-09-06 00:15:13 | 47.81921 | 17.24221 | 127° | 161km/h | 12063m | 4.7m/s | -58.5°C | 64.0% | 0hPa | 2.6V | 00:00:00 | 00:00:00 | 00:00:00 | |
| OE3MUC-15 | 2026-09-06 00:15:11 | 47.81971 | 17.24123 | 128° | 162km/h | 12053m | 5.5m/s | -58.5°C | 63.2% | 0hPa | 2.6V | 00:00:00 | 00:59:36 | 00:00:00 | |
| OE5DXL-15 | 2026-09-06 00:15:09 | 47.82021 | 17.24027 | 128° | 161km/h | 12042m | 4.6m/s | -58.5°C | 63.5% | 0hPa | 2.6V | 00:00:00 | 00:00:00 | 00:00:00 | |
| OE3MUC-15 | 2026-09-06 00:15:07 | 47.82071 | 17.23929 | 127° | 168km/h | 12032m | 5.2m/s | -58.5°C | 63.8% | 0hPa | 2.6V | 00:00:00 | 00:00:00 | 00:00:00 | |
| PG1ADW-2 | 2026-09-06 00:15:05 | 47.82120 | 17.23832 | 127° | 162km/h | 12021m | 5.5m/s | -58.4°C | 64.1% | 0hPa | 2.7V | 00:00:00 | 00:00:00 | 00:00:00 | |
| OE3OSB-13 | 2026-09-06 00:14:44 | 47.82635 | 17.22809 | 126° | 157km/h | 11908m | 5.4m/s | -57.6°C | 50.6% | -1.0hPa | 2.7V | 00:00:00 | 00:00:00 | 00:00:00 | |
| PETON7-10 | 2026-09-06 00:14:43 | 47.82658 | 17.22761 | 126° | 157km/h | 11903m | 5.2m/s | -57.5°C | 59.5% | 0hPa | 2.7V | 00:00:00 | 00:00:00 | 00:00:00 | |
| OE3MUC-15 | 2026-09-06 00:14:42 | 47.82682 | 17.22712 | 126° | 157km/h | 11897m | 6.4m/s | -57.5°C | 59.3% | 0hPa | 2.6V | 00:00:00 | 00:00:00 | 00:00:00 | |
| OE5DRO-10 | 2026-09-06 00:14:40 | 47.82730 | 17.22617 | 128° | 157km/h | 11886m | 6.0m/s | -57.4°C | 59.2% | 0hPa | 2.6V | 00:00:00 | 00:00:00 | 08:30:00 | |
| OE5DXL-15 | 2026-09-06 00:14:39 | 47.82754 | 17.22571 | 129° | 157km/h | 11881m | 3.7m/s | -57.3°C | 59.4% | 0hPa | 2.6V | 00:00:00 | 00:00:00 | 00:00:00 | |
| OE3MUC-15 | 2026-09-06 00:14:38 | 47.82778 | 17.22525 | 128° | 155km/h | 11876m | 5.7m/s | -57.3°C | 58.1% | 0hPa | 2.6V | 00:00:00 | 00:00:00 | 00:00:00 | |
| OE3MUC-15 | 2026-09-06 00:14:34 | 47.82871 | 17.22336 | 126° | 155km/h | 11854m | 5.7m/s | -57.1°C | 56.5% | 0hPa | 2.6V | 00:00:00 | 00:00:00 | 08:30:00 | |
| OE3MUC-15 | 2026-09-06 00:14:30 | 47.82963 | 17.22144 | 126° | 161km/h | 11832m | 5.5m/s | -56.9°C | 55.8% | 0hPa | 2.7V | 00:00:00 | 00:00:00 | 00:00:00 | |
| OE3JTB-15 | 2026-09-06 00:14:29 | 47.82987 | 17.22095 | 127° | 157km/h | 11827m | 5.3m/s | -56.9°C | 55.3% | 0hPa | 2.7V | 00:00:00 | 00:58:54 | 00:00:00 | |
| PETON7-10 | 2026-09-06 00:14:28 | 47.83012 | 17.22047 | 128° | 157km/h | 11821m | 6.4m/s | -56.8°C | 55.3% | 0hPa | 2.7V | 00:00:00 | 00:00:00 | 00:00:00 | |
| OE3MUC-15 | 2026-09-06 00:14:26 | 47.83062 | 17.21954 | 129° | 157km/h | 11810m | 5.1m/s | -56.7°C | 54.9% | 0hPa | 2.7V | 00:00:00 | 00:00:00 | 00:00:00 | |
| PG1ADW-2 | 2026-09-06 00:14:25 | 47.83087 | 17.21907 | 129° | 157km/h | 11805m | 6.1m/s | -56.7°C | 55.0% | 0hPa | 2.7V | 00:00:00 | 00:00:00 | 08:30:00 | |
| OE3MUC-15 | 2026-09-06 00:14:22 | 47.83156 | 17.21768 | 126° | 155km/h | 11789m | 4.4m/s | -56.5°C | 54.9% | 0hPa | 2.7V | 00:00:00 | 00:00:00 | 00:00:00 | |
| OE5DRO-10 | 2026-09-06 00:14:21 | 47.83179 | 17.21721 | 126° | 157km/h | 11784m | 4.8m/s | -56.5°C | 53.9% | 0hPa | 2.7V | 00:00:00 | 00:00:00 | 00:00:00 | |
| OE3MUC-15 | 2026-09-06 00:14:18 | 47.83249 | 17.21578 | 126° | 161km/h | 11768m | 5.4m/s | -56.3°C | 52.6% | 0hPa | 2.7V | 00:00:00 | 00:00:00 | 00:00:00 | |
| OE3MUC-15 | 2026-09-06 00:14:14 | 47.83342 | 17.21382 | 127° | 153km/h | 11744m | 5.0m/s | -56.1°C | 52.0% | 0hPa | 2.7V | 00:00:00 | 00:00:00 | 00:00:00 | |
| PETON7-10 | 2026-09-06 00:14:13 | 47.83366 | 17.21337 | 128° | 157km/h | 11738m | 5.8m/s | -56.0°C | 51.3% | 0hPa | 2.7V | 00:00:00 | 00:58:38 | 00:00:00 | |
| OE3MUC-15 | 2026-09-06 00:14:10 | 47.83437 | 17.21199 | 127° | 161km/h | 11720m | 5.8m/s | -55.9°C | 49.8% | 0hPa | 2.7V | 00:00:00 | 00:00:00 | 00:00:00 | |
| OE5DXL-15 | 2026-09-06 00:14:09 | 47.83460 | 17.21151 | 126° | 155km/h | 11715m | 6.2m/s | -55.8°C | 49.4% | 0hPa | 2.7V | 00:00:00 | 00:00:00 | 08:30:00 | |
| OE3MUC-15 | 2026-09-06 00:14:06 | 47.83531 | 17.21003 | 126° | 159km/h | 11697m | 6.0m/s | -55.7°C | 48.6% | 0hPa | 2.7V | 00:00:00 | 00:00:00 | 00:00:00 | |
| PG1ADW-2 | 2026-09-06 00:14:05 | 47.83554 | 17.20954 | 126° | 155km/h | 11691m | 5.6m/s | -55.6°C | 48.8% | 0hPa | 2.7V | 00:00:00 | 00:58:30 | 00:00:00 | |
| OE3MUC-15 | 2026-09-06 00:14:02 | 47.83626 | 17.20812 | 128° | 153km/h | 11676m | 4.2m/s | -55.5°C | 47.8% | 0hPa | 2.7V | 00:00:00 | 00:00:00 | 00:00:00 | |
| OE3JTB-15 | 2026-09-06 00:13:59 | 47.83697 | 17.20674 | 128° | 157km/h | 11659m | 5.6m/s | -55.3°C | 46.8% | 0hPa | 2.7V | 00:00:00 | 00:00:00 | 08:30:00 | |
| PETON7-10 | 2026-09-06 00:13:58 | 47.83720 | 17.20628 | 128° | 155km/h | 11654m | 5.2m/s | -55.2°C | 46.8% | 0hPa | 2.7V | 00:00:00 | 00:00:00 | 00:00:00 | |
| OE3MUC-15 | 2026-09-06 00:13:54 | 47.83811 | 17.20444 | 127° | 155km/h | 11632m | 6.0m/s | -55.0°C | 45.3% | 0hPa | 2.6V | 00:00:00 | 00:00:00 | 00:00:00 | |
| OE3MUC-15 | 2026-09-06 00:13:50 | 47.83904 | 17.20256 | 126° | 161km/h | 11611m | 5.2m/s | -54.9°C | 44.4% | 0hPa | 2.6V | 00:00:00 | 00:00:00 | 00:00:00 | |
| OE3MUC-15 | 2026-09-06 00:13:46 | 47.84001 | 17.20063 | 129° | 153km/h | 11592m | 4.9m/s | -54.7°C | 42.6% | 0hPa | 2.6V | 00:00:00 | 00:00:00 | 00:00:00 | |
| PG1ADW-2 | 2026-09-06 00:13:45 | 47.84025 | 17.20018 | 129° | 155km/h | 11586m | 5.1m/s | -54.6°C | 42.5% | 0hPa | 2.7V | 00:00:00 | 00:00:00 | 00:00:00 | |
| PETON7-10 | 2026-09-06 00:13:43 | 47.84072 | 17.19927 | 127° | 157km/h | 11576m | 5.2m/s | -54.6°C | 42.0% | 0hPa | 2.7V | 00:00:00 | 00:00:00 | 00:00:00 | |
| OE3OSB-13 | 2026-09-06 00:13:42 | 47.84095 | 17.19881 | 125° | 153km/h | 11571m | 5.7m/s | -54.6°C | 34.8% | -1.0hPa | 2.7V | 00:00:00 | 00:00:00 | 00:00:00 | |
| OE5DXL-15 | 2026-09-06 00:13:39 | 47.84162 | 17.19738 | 126° | 157km/h | 11556m | 4.7m/s | -54.3°C | 41.3% | 0hPa | 2.7V | 00:00:00 | 00:00:00 | 00:00:00 | |
| S52SK | 2026-09-06 00:13:38 | 47.84162 | 17.19738 | 126° | 155km/h | 11556m | 4.7m/s | -54.4°C | 34.7% | 0hPa | 2.7V | 00:00:00 | 00:00:00 | 00:00:00 | |
| S52SK | 2026-09-06 00:13:33 | 47.84285 | 17.19500 | 128° | 162km/h | 11530m | 5.8m/s | -54.2°C | 33.7% | 0hPa | 2.7V | 00:00:00 | 00:00:00 | 00:00:00 | |
| OE3JTB-15 | 2026-09-06 00:13:30 | 47.84377 | 17.19305 | 125° | 153km/h | 11508m | 5.0m/s | -53.9°C | 40.8% | 0hPa | 2.7V | 00:00:00 | 00:00:00 | 00:00:00 | |
| PETON7-10 | 2026-09-06 00:13:28 | 47.84422 | 17.19213 | 128° | 153km/h | 11498m | 5.7m/s | -53.8°C | 40.3% | 0hPa | 2.7V | 00:00:00 | 00:57:53 | 00:00:00 | |
| PG1ADW-2 | 2026-09-06 00:13:25 | 47.84493 | 17.19076 | 127° | 153km/h | 11482m | 5.8m/s | -53.7°C | 40.3% | 0hPa | 2.7V | 00:00:00 | 00:00:00 | 00:00:00 | |
| OE5DRO-10 | 2026-09-06 00:13:24 | 47.84517 | 17.19029 | 127° | 153km/h | 11477m | 4.5m/s | -53.6°C | 40.4% | 0hPa | 2.6V | 00:00:00 | 00:00:00 | 00:00:00 | |
| OE3MUC-15 | 2026-09-06 00:13:19 | 47.84634 | 17.18797 | 128° | 159km/h | 11448m | 5.7m/s | -53.5°C | 40.3% | 0hPa | 2.6V | 00:00:00 | 00:00:00 | 08:30:00 | |
| PETON7-10 | 2026-09-06 00:13:13 | 47.84775 | 17.18520 | 127° | 151km/h | 11415m | 6.7m/s | -53.3°C | 38.3% | 0hPa | 2.6V | 00:00:00 | 00:00:00 | 08:30:00 | |
| OE3MUC-15 | 2026-09-06 00:13:12 | 47.84799 | 17.18473 | 128° | 151km/h | 11408m | 5.5m/s | -53.2°C | 38.4% | 0hPa | 2.7V | 00:00:00 | 00:00:00 | 00:00:00 | |
| OE3OSB-13 | 2026-09-06 00:13:11 | 47.84823 | 17.18425 | 126° | 159km/h | 11403m | 4.1m/s | -53.2°C | 31.8% | -1.0hPa | 2.7V | 00:00:00 | 00:00:00 | 00:00:00 | |
| OE5DXL-15 | 2026-09-06 00:13:09 | 47.84871 | 17.18330 | 127° | 153km/h | 11393m | 5.5m/s | -53.1°C | 37.8% | 0hPa | 2.7V | 00:00:00 | 00:00:00 | 00:00:00 | |
| PG1ADW-2 | 2026-09-06 00:13:05 | 47.84966 | 17.18155 | 131° | 153km/h | 11372m | 6.2m/s | -52.9°C | 36.7% | 0hPa | 2.7V | 00:00:00 | 00:00:00 | 00:00:00 | |
| OE3MUC-15 | 2026-09-06 00:13:04 | 47.84990 | 17.18113 | 132° | 151km/h | 11366m | 5.5m/s | -52.8°C | 36.8% | 0hPa | 2.7V | 00:00:00 | 00:00:00 | 00:00:00 | |
| OE3JTB-15 | 2026-09-06 00:13:01 | 47.85065 | 17.17983 | 130° | 153km/h | 11351m | 4.7m/s | -52.7°C | 36.2% | 0hPa | 2.7V | 00:00:00 | 00:57:26 | 00:00:00 | |
| OE3MUC-15 | 2026-09-06 00:13:00 | 47.85089 | 17.17939 | 130° | 151km/h | 11345m | 5.9m/s | -52.6°C | 35.7% | 0hPa | 2.7V | 00:00:00 | 00:00:00 | 00:00:00 | |
| PETON7-10 | 2026-09-06 00:12:58 | 47.85136 | 17.17852 | 129° | 157km/h | 11334m | 4.2m/s | -52.5°C | 35.6% | 0hPa | 2.7V | 00:00:00 | 00:00:00 | 00:00:00 | |
| OE3MUC-15 | 2026-09-06 00:12:56 | 47.85184 | 17.17760 | 127° | 157km/h | 11324m | 4.9m/s | -52.4°C | 35.1% | 0hPa | 2.7V | 00:00:00 | 00:00:00 | 00:00:00 | |
| OE3MUC-15 | 2026-09-06 00:12:52 | 47.85279 | 17.17574 | 130° | 155km/h | 11302m | 4.3m/s | -52.2°C | 34.3% | 0hPa | 2.7V | 00:00:00 | 00:00:00 | 00:00:00 | |
| OE3MUC-15 | 2026-09-06 00:12:48 | 47.85382 | 17.17397 | 131° | 155km/h | 11281m | 5.8m/s | -52.0°C | 33.7% | 0hPa | 2.7V | 00:00:00 | 00:00:00 | 00:00:00 | |
| OE5DRO-10 | 2026-09-06 00:12:46 | 47.85434 | 17.17304 | 130° | 153km/h | 11271m | 4.9m/s | -51.9°C | 33.3% | 0hPa | 2.7V | 00:00:00 | 00:00:00 | 00:00:00 | |
| PG1ADW-2 | 2026-09-06 00:12:45 | 47.85459 | 17.17258 | 129° | 153km/h | 11265m | 5.8m/s | -51.8°C | 33.3% | 0hPa | 2.7V | 00:00:00 | 00:57:10 | 00:00:00 | |
| PETON7-10 | 2026-09-06 00:12:43 | 47.85508 | 17.17167 | 130° | 151km/h | 11254m | 5.2m/s | -51.7°C | 33.2% | 0hPa | 2.7V | 00:00:00 | 00:57:08 | 00:00:00 | |
| OE3MUC-15 | 2026-09-06 00:12:42 | 47.85532 | 17.17123 | 131° | 150km/h | 11249m | 5.3m/s | -51.7°C | 33.0% | 0hPa | 2.7V | 00:00:00 | 00:00:00 | 00:00:00 | |
| OE3OSB-13 | 2026-09-06 00:12:40 | 47.85606 | 17.16996 | 131° | 148km/h | 11232m | 5.1m/s | -51.6°C | 27.6% | -1.0hPa | 2.7V | 00:00:00 | 00:00:00 | 00:00:00 | |
| OE5DXL-15 | 2026-09-06 00:12:39 | 47.85606 | 17.16996 | 132° | 153km/h | 11232m | 5.1m/s | -51.5°C | 33.3% | 0hPa | 2.7V | 00:00:00 | 00:00:00 | 00:00:00 | |
| OE3MUC-15 | 2026-09-06 00:12:38 | 47.85631 | 17.16953 | 130° | 150km/h | 11228m | 4.3m/s | -51.5°C | 33.2% | 0hPa | 2.7V | 00:00:00 | 00:00:00 | 00:00:00 | |
| OE3MUC-15 | 2026-09-06 00:12:34 | 47.85724 | 17.16773 | 128° | 151km/h | 11207m | 6.2m/s | -51.3°C | 32.9% | 0hPa | 2.7V | 00:00:00 | 00:00:00 | 08:30:00 | |
| OE3JTB-15 | 2026-09-06 00:12:32 | 47.85774 | 17.16681 | 130° | 153km/h | 11197m | 5.5m/s | -51.2°C | 32.6% | 0hPa | 2.7V | 00:00:00 | 00:00:00 | 00:00:00 | |
| PETON7-10 | 2026-09-06 00:12:28 | 47.85874 | 17.16504 | 131° | 153km/h | 11175m | 5.3m/s | -51.0°C | 31.5% | 0hPa | 2.7V | 00:00:00 | 00:00:00 | 00:00:00 | |
| OE5DRO-10 | 2026-09-06 00:12:27 | 47.85898 | 17.16459 | 130° | 153km/h | 11168m | 6.7m/s | -50.9°C | 31.0% | 0hPa | 2.7V | 00:00:00 | 00:00:00 | 00:00:00 | |
| PG1ADW-2 | 2026-09-06 00:12:25 | 47.85947 | 17.16368 | 130° | 153km/h | 11156m | 5.4m/s | -50.8°C | 30.8% | 0hPa | 2.7V | 00:00:00 | 00:00:00 | 00:00:00 | |
| HA6NAB-11 | 2026-09-06 00:12:24 | 47.85947 | 17.16368 | 130° | 155km/h | 11156m | 5.4m/s | -50.9°C | 25.8% | 0hPa | 2.7V | 00:00:00 | 00:00:00 | 00:00:00 | |
| HA6NAB-11 | 2026-09-06 00:12:20 | 47.86071 | 17.16150 | 131° | 148km/h | 11128m | 5.6m/s | -50.8°C | 25.4% | 0hPa | 2.7V | 00:00:00 | 00:00:00 | 00:00:00 | |
| HA6NAB-11 | 2026-09-06 00:12:14 | 47.86195 | 17.15929 | 132° | 153km/h | 11102m | 5.0m/s | -50.6°C | 25.3% | 0hPa | 2.7V | 00:00:00 | 00:00:00 | 00:00:00 | |
| PETON7-10 | 2026-09-06 00:12:13 | 47.86246 | 17.15842 | 132° | 153km/h | 11091m | 4.8m/s | -50.4°C | 30.3% | 0hPa | 2.7V | 00:00:00 | 00:00:00 | 00:00:00 | |
| OE5DXL-15 | 2026-09-06 00:12:09 | 47.86347 | 17.15668 | 130° | 153km/h | 11071m | 5.4m/s | -50.3°C | 30.3% | 0hPa | 2.7V | 00:00:00 | 00:00:00 | 00:00:00 | |
| OE5DRO-10 | 2026-09-06 00:12:08 | 47.86371 | 17.15625 | 130° | 153km/h | 11066m | 4.3m/s | -50.2°C | 30.6% | 0hPa | 2.7V | 00:00:00 | 00:00:00 | 00:00:00 | |
| PG1ADW-2 | 2026-09-06 00:12:05 | 47.86445 | 17.15491 | 130° | 151km/h | 11053m | 3.6m/s | -50.1°C | 30.3% | 0hPa | 2.7V | 00:00:00 | 00:00:00 | 00:00:00 | |
| OE3JTB-15 | 2026-09-06 00:12:03 | 47.86494 | 17.15403 | 131° | 153km/h | 11044m | 4.7m/s | -50.0°C | 30.2% | 0hPa | 2.7V | 00:00:00 | 00:00:00 | 00:00:00 | |
| PETON7-10 | 2026-09-06 00:11:58 | 47.86621 | 17.15185 | 130° | 151km/h | 11019m | 4.2m/s | -49.8°C | 30.5% | 0hPa | 2.7V | 00:00:00 | 00:56:23 | 00:00:00 | |
| S52SK | 2026-09-06 00:11:50 | 47.86793 | 17.14878 | 132° | 153km/h | 10988m | 4.4m/s | -49.6°C | 24.1% | 0hPa | 2.7V | 00:00:00 | 00:00:00 | 00:00:00 | |
| OE5WHR-10 | 2026-09-06 00:11:49 | 47.86844 | 17.14792 | 132° | 150km/h | 10978m | 5.1m/s | -49.5°C | 28.7% | 0hPa | 2.7V | 00:00:00 | 00:00:00 | 08:30:00 | |
| PG1ADW-2 | 2026-09-06 00:11:45 | 47.86944 | 17.14618 | 130° | 151km/h | 10959m | 4.8m/s | -49.3°C | 28.4% | 0hPa | 2.7V | 00:00:00 | 00:00:00 | 00:00:00 | |
| PETON7-10 | 2026-09-06 00:11:43 | 47.86994 | 17.14527 | 129° | 151km/h | 10950m | 4.2m/s | -49.2°C | 28.6% | 0hPa | 2.7V | 00:00:00 | 00:00:00 | 00:00:00 | |
| S52SK | 2026-09-06 00:11:40 | 47.87045 | 17.14436 | 131° | 157km/h | 10940m | 4.1m/s | -49.2°C | 24.6% | 0hPa | 2.7V | 00:00:00 | 00:00:00 | 00:00:00 | |
| OE5DXL-15 | 2026-09-06 00:11:39 | 47.87095 | 17.14348 | 131° | 150km/h | 10931m | 5.2m/s | -49.1°C | 29.2% | 0hPa | 2.7V | 00:00:00 | 00:00:00 | 00:00:00 | |
| OE3OSB-13 | 2026-09-06 00:11:38 | 47.87145 | 17.14263 | 131° | 148km/h | 10922m | 4.8m/s | -49.0°C | 24.7% | -1.0hPa | 2.7V | 00:00:00 | 00:00:00 | 00:00:00 | |
| OE3JTB-15 | 2026-09-06 00:11:34 | 47.87222 | 17.14135 | 132° | 141km/h | 10908m | 4.9m/s | -48.9°C | 29.8% | 0hPa | 2.7V | 00:00:00 | 00:55:59 | 00:00:00 | |
| OE5DRO-10 | 2026-09-06 00:11:30 | 47.87319 | 17.13961 | 130° | 150km/h | 10887m | 4.4m/s | -48.7°C | 30.3% | 0hPa | 2.7V | 00:00:00 | 00:00:00 | 00:00:00 | |
| PETON7-10 | 2026-09-06 00:11:28 | 47.87367 | 17.13876 | 130° | 151km/h | 10877m | 4.5m/s | -48.6°C | 30.2% | 0hPa | 2.7V | 00:00:00 | 00:00:00 | 00:00:00 | |
| PG1ADW-2 | 2026-09-06 00:11:25 | 47.87440 | 17.13748 | 131° | 150km/h | 10863m | 3.8m/s | -48.5°C | 30.4% | 0hPa | 2.7V | 00:00:00 | 00:55:50 | 08:30:00 | |
| OE5WHR-10 | 2026-09-06 00:11:21 | 47.87538 | 17.13576 | 131° | 153km/h | 10844m | 3.0m/s | -48.3°C | 30.4% | 0hPa | 2.7V | 00:00:00 | 00:00:00 | 00:00:00 | |
| OE3MUC-15 | 2026-09-06 00:11:15 | 47.87685 | 17.13310 | 130° | 150km/h | 10813m | 5.7m/s | -48.0°C | 29.7% | 0hPa | 2.7V | 00:00:00 | 00:00:00 | 00:00:00 | |
| PETON7-10 | 2026-09-06 00:11:13 | 47.87733 | 17.13224 | 130° | 148km/h | 10804m | 4.0m/s | -47.9°C | 29.3% | 0hPa | 2.7V | 00:00:00 | 00:55:38 | 00:00:00 | |
| OE5DRO-10 | 2026-09-06 00:11:11 | 47.87779 | 17.13138 | 129° | 146km/h | 10793m | 5.1m/s | -47.8°C | 29.0% | 0hPa | 2.7V | 00:00:00 | 00:00:00 | 00:00:00 | |
| OE5DXL-15 | 2026-09-06 00:11:09 | 47.87825 | 17.13053 | 130° | 148km/h | 10783m | 4.6m/s | -47.7°C | 28.9% | 0hPa | 2.7V | 00:00:00 | 00:00:00 | 00:00:00 | |
| OE3OSB-13 | 2026-09-06 00:11:07 | 47.87896 | 17.12922 | 128° | 148km/h | 10769m | 4.6m/s | -47.6°C | 24.1% | -1.0hPa | 2.7V | 00:00:00 | 00:00:00 | 00:00:00 | |
| PG1ADW-2 | 2026-09-06 00:11:05 | 47.87919 | 17.12879 | 130° | 148km/h | 10764m | 4.7m/s | -47.5°C | 28.5% | 0hPa | 2.7V | 00:00:00 | 00:00:00 | 00:00:00 | |
| OE3MUC-15 | 2026-09-06 00:11:00 | 47.88037 | 17.12664 | 129° | 146km/h | 10740m | 4.9m/s | -47.3°C | 28.6% | 0hPa | 2.7V | 00:00:00 | 00:00:00 | 00:00:00 | |
| PETON7-10 | 2026-09-06 00:10:58 | 47.88083 | 17.12579 | 130° | 148km/h | 10730m | 6.2m/s | -47.2°C | 28.4% | 0hPa | 2.7V | 00:00:00 | 00:00:00 | 08:30:00 | |
| OE5WHR-10 | 2026-09-06 00:10:57 | 47.88106 | 17.12535 | 129° | 146km/h | 10725m | 4.1m/s | -47.1°C | 28.8% | 0hPa | 2.7V | 00:00:00 | 00:55:22 | 00:00:00 | |
| OE3MUC-15 | 2026-09-06 00:10:56 | 47.88130 | 17.12492 | 128° | 146km/h | 10721m | 4.5m/s | -47.1°C | 28.6% | 0hPa | 2.7V | 00:00:00 | 00:00:00 | 00:00:00 | |
| OE3MUC-15 | 2026-09-06 00:10:52 | 47.88219 | 17.12319 | 130° | 148km/h | 10701m | 5.1m/s | -46.9°C | 29.0% | 0hPa | 2.7V | 00:00:00 | 00:00:00 | 00:00:00 | |
| OE3MUC-15 | 2026-09-06 00:10:47 | 47.88338 | 17.12099 | 130° | 151km/h | 10676m | 5.3m/s | -46.7°C | 28.8% | 0hPa | 2.7V | 00:00:00 | 00:00:00 | 00:00:00 | |
| PG1ADW-2 | 2026-09-06 00:10:45 | 47.88386 | 17.12010 | 128° | 144km/h | 10667m | 6.3m/s | -46.6°C | 28.4% | 0hPa | 2.7V | 00:00:00 | 00:00:00 | 00:00:00 | |
| OE3MUC-15 | 2026-09-06 00:10:43 | 47.88430 | 17.11920 | 126° | 142km/h | 10656m | 3.2m/s | -46.5°C | 28.5% | 0hPa | 2.7V | 00:00:00 | 00:00:00 | 08:30:00 | |
| OE3MUC-15 | 2026-09-06 00:10:39 | 47.88517 | 17.11750 | 130° | 142km/h | 10636m | 5.0m/s | -46.3°C | 28.2% | 0hPa | 2.7V | 00:00:00 | 00:55:04 | 00:00:00 | |
| OE3OSB-13 | 2026-09-06 00:10:36 | 47.88607 | 17.11582 | 126° | 141km/h | 10617m | 4.1m/s | -46.2°C | 23.1% | -1.0hPa | 2.7V | 00:00:00 | 00:00:00 | 00:00:00 | |
| OE3MUC-15 | 2026-09-06 00:10:35 | 47.88607 | 17.11582 | 127° | 141km/h | 10618m | 4.0m/s | -46.1°C | 27.3% | 0hPa | 2.7V | 00:00:00 | 00:00:00 | 00:00:00 | |
| OE5DRO-10 | 2026-09-06 00:10:33 | 47.88649 | 17.11497 | 127° | 142km/h | 10608m | 5.5m/s | -46.0°C | 27.0% | 0hPa | 2.7V | 00:00:00 | 00:00:00 | 00:00:00 | |
| OE3MUC-15 | 2026-09-06 00:10:31 | 47.88691 | 17.11412 | 127° | 146km/h | 10599m | 4.7m/s | -45.9°C | 26.6% | 0hPa | 2.7V | 00:00:00 | 00:00:00 | 00:00:00 | |
| PETON7-10 | 2026-09-06 00:10:28 | 47.88759 | 17.11280 | 128° | 142km/h | 10585m | 3.9m/s | -45.8°C | 26.5% | 0hPa | 2.7V | 00:00:00 | 00:54:53 | 00:00:00 | |
| OE3MUC-15 | 2026-09-06 00:10:27 | 47.88782 | 17.11236 | 128° | 142km/h | 10581m | 5.4m/s | -45.7°C | 26.6% | 0hPa | 2.7V | 00:00:00 | 00:00:00 | 00:00:00 | |
| PG1ADW-2 | 2026-09-06 00:10:25 | 47.88826 | 17.11151 | 129° | 142km/h | 10571m | 4.3m/s | -45.7°C | 27.3% | 0hPa | 2.7V | 00:00:00 | 00:00:00 | 00:00:00 | |
| OE3MUC-15 | 2026-09-06 00:10:23 | 47.88870 | 17.11069 | 128° | 137km/h | 10564m | 3.9m/s | -45.6°C | 27.1% | 0hPa | 2.7V | 00:00:00 | 00:00:00 | 00:00:00 | |
| OE3MUC-15 | 2026-09-06 00:10:19 | 47.88952 | 17.10903 | 129° | 146km/h | 10547m | 4.6m/s | -45.4°C | 27.1% | 0hPa | 2.7V | 00:00:00 | 00:00:00 | 00:00:00 | |
| OE3MUC-15 | 2026-09-06 00:10:15 | 47.89049 | 17.10737 | 131° | 150km/h | 10526m | 6.0m/s | -45.3°C | 26.7% | 0hPa | 2.7V | 00:00:00 | 00:00:00 | 00:00:00 | |
| OE5DRO-10 | 2026-09-06 00:10:14 | 47.89074 | 17.10693 | 130° | 139km/h | 10521m | 5.3m/s | -45.2°C | 27.1% | 0hPa | 2.7V | 00:00:00 | 00:00:00 | 00:00:00 | |
| PETON7-10 | 2026-09-06 00:10:13 | 47.89098 | 17.10649 | 129° | 141km/h | 10516m | 4.1m/s | -45.2°C | 27.2% | 0hPa | 2.7V | 00:00:00 | 00:00:00 | 00:00:00 | |
| OE3MUC-15 | 2026-09-06 00:10:11 | 47.89143 | 17.10563 | 127° | 139km/h | 10509m | 4.8m/s | -45.1°C | 26.9% | 0hPa | 2.7V | 00:00:00 | 00:00:00 | 00:00:00 | |
| OE5DXL-15 | 2026-09-06 00:10:09 | 47.89185 | 17.10480 | 128° | 139km/h | 10500m | 4.3m/s | -45.0°C | 26.6% | 0hPa | 2.7V | 00:00:00 | 00:00:00 | 00:00:00 | |
| OE3MUC-15 | 2026-09-06 00:10:07 | 47.89227 | 17.10397 | 128° | 139km/h | 10491m | 3.3m/s | -45.0°C | 26.6% | 0hPa | 2.7V | 00:00:00 | 00:00:00 | 08:30:00 | |
| PG1ADW-2 | 2026-09-06 00:10:05 | 47.89270 | 17.10315 | 129° | 139km/h | 10481m | 4.1m/s | -44.9°C | 26.5% | 0hPa | 2.7V | 00:00:00 | 00:54:30 | 00:00:00 | |
| OE3OSB-13 | 2026-09-06 00:10:04 | 47.89292 | 17.10274 | 130° | 139km/h | 10477m | 4.8m/s | -44.9°C | 22.5% | -1.0hPa | 2.7V | 00:00:00 | 00:00:00 | 00:00:00 | |
| OE3MUC-15 | 2026-09-06 00:09:59 | 47.89408 | 17.10073 | 130° | 137km/h | 10457m | 3.6m/s | -44.7°C | 26.0% | 0hPa | 2.7V | 00:00:00 | 00:00:00 | 00:00:00 | |
| PETON7-10 | 2026-09-06 00:09:58 | 47.89429 | 17.10034 | 130° | 137km/h | 10453m | 3.2m/s | -44.7°C | 25.8% | 0hPa | 2.7V | 00:00:00 | 00:00:00 | 00:00:00 | |
| OE3JTB-15 | 2026-09-06 00:09:56 | 47.89472 | 17.09958 | 130° | 139km/h | 10445m | 3.9m/s | -44.6°C | 25.7% | 0hPa | 2.7V | 00:00:00 | 00:00:00 | 00:00:00 | |
| OE5DRO-10 | 2026-09-06 00:09:55 | 47.89494 | 17.09919 | 131° | 139km/h | 10442m | 4.3m/s | -44.5°C | 25.7% | 0hPa | 2.7V | 00:00:00 | 00:00:00 | 00:00:00 | |
| PG1ADW-2 | 2026-09-06 00:09:45 | 47.89716 | 17.09514 | 129° | 141km/h | 10403m | 3.8m/s | -44.2°C | 24.9% | 0hPa | 2.7V | 00:00:00 | 00:00:00 | 00:00:00 | |
| PETON7-10 | 2026-09-06 00:09:43 | 47.89760 | 17.09433 | 131° | 141km/h | 10396m | 2.4m/s | -44.1°C | 25.0% | 0hPa | 2.7V | 00:00:00 | 00:54:08 | 00:00:00 | |
| OE5DXL-15 | 2026-09-06 00:09:39 | 47.89851 | 17.09273 | 131° | 141km/h | 10382m | 4.3m/s | -44.0°C | 24.2% | 0hPa | 2.7V | 00:00:00 | 00:00:00 | 08:30:00 | |
| OE5DRO-10 | 2026-09-06 00:09:36 | 47.89923 | 17.09151 | 131° | 141km/h | 10369m | 4.4m/s | -43.9°C | 24.2% | 0hPa | 2.7V | 00:00:00 | 00:00:00 | 00:00:00 | |
| OE3OSB-13 | 2026-09-06 00:09:34 | 47.89992 | 17.09029 | 130° | 139km/h | 10357m | 2.8m/s | -43.8°C | 20.7% | -1.0hPa | 2.7V | 00:00:00 | 00:00:00 | 00:00:00 | |
| HA6NAB-11 | 2026-09-06 00:09:31 | 47.90014 | 17.08989 | 132° | 137km/h | 10354m | 3.4m/s | -43.8°C | 20.7% | 0hPa | 2.7V | 00:00:00 | 00:00:00 | 00:00:00 | |
| PETON7-10 | 2026-09-06 00:09:28 | 47.90105 | 17.08830 | 131° | 141km/h | 10340m | 4.0m/s | -43.6°C | 24.2% | 0hPa | 2.7V | 00:00:00 | 00:00:00 | 00:00:00 | |
| OE3JTB-15 | 2026-09-06 00:09:27 | 47.90128 | 17.08790 | 131° | 141km/h | 10336m | 3.2m/s | -43.6°C | 24.2% | 0hPa | 2.7V | 00:00:00 | 00:00:00 | 00:00:00 | |
| PG1ADW-2 | 2026-09-06 00:09:25 | 47.90174 | 17.08709 | 131° | 141km/h | 10329m | 3.6m/s | -43.5°C | 23.8% | 0hPa | 2.7V | 00:00:00 | 00:00:00 | 00:00:00 | |
| HA6NAB-11 | 2026-09-06 00:09:20 | 47.90265 | 17.08542 | 129° | 144km/h | 10315m | 4.5m/s | -43.4°C | 20.0% | 0hPa | 2.7V | 00:00:00 | 00:00:00 | 00:00:00 | |
| OE5DRO-10 | 2026-09-06 00:09:18 | 47.90353 | 17.08378 | 131° | 139km/h | 10299m | 3.9m/s | -43.2°C | 23.1% | 0hPa | 2.7V | 00:00:00 | 00:00:00 | 00:00:00 | |
| HA6NAB-11 | 2026-09-06 00:09:15 | 47.90376 | 17.08339 | 132° | 137km/h | 10296m | 4.0m/s | -43.2°C | 19.8% | 0hPa | 2.7V | 00:00:00 | 00:00:00 | 00:00:00 | |
| OE3MUC-15 | 2026-09-06 00:09:14 | 47.90421 | 17.08260 | 130° | 137km/h | 10288m | 4.0m/s | -43.1°C | 23.2% | 0hPa | 2.7V | 00:00:00 | 00:00:00 | 00:00:00 | |
| PETON7-10 | 2026-09-06 00:09:13 | 47.90442 | 17.08221 | 130° | 139km/h | 10284m | 3.5m/s | -43.1°C | 23.3% | 0hPa | 2.7V | 00:00:00 | 00:00:00 | 00:00:00 | |
| OE5DXL-15 | 2026-09-06 00:09:09 | 47.90531 | 17.08066 | 130° | 142km/h | 10271m | 4.1m/s | -42.9°C | 22.8% | 0hPa | 2.7V | 00:00:00 | 00:00:00 | 00:00:00 | |
| OE3MUC-15 | 2026-09-06 00:09:06 | 47.90601 | 17.07942 | 131° | 144km/h | 10259m | 2.7m/s | -42.8°C | 22.5% | 0hPa | 2.7V | 00:00:00 | 00:00:00 | 00:00:00 | |
| PG1ADW-2 | 2026-09-06 00:09:05 | 47.90625 | 17.07900 | 132° | 141km/h | 10255m | 5.5m/s | -42.8°C | 22.3% | 0hPa | 2.7V | 00:00:00 | 00:00:00 | 00:00:00 | |
| HA6NAB-11 | 2026-09-06 00:09:04 | 47.90625 | 17.07900 | 133° | 146km/h | 10255m | 5.6m/s | -42.8°C | 19.0% | 0hPa | 2.7V | 00:00:00 | 00:00:00 | 00:00:00 | |
| OE3MUC-15 | 2026-09-06 00:09:02 | 47.90697 | 17.07781 | 132° | 139km/h | 10242m | 4.4m/s | -42.7°C | 22.0% | 0hPa | 2.7V | 00:00:00 | 00:00:00 | 08:30:00 | |
| OE3MUC-15 | 2026-09-06 00:08:58 | 47.90784 | 17.07620 | 129° | 141km/h | 10225m | 3.8m/s | -42.5°C | 21.8% | 0hPa | 2.7V | 00:00:00 | 00:00:00 | 00:00:00 | |
| OE3MUC-15 | 2026-09-06 00:08:54 | 47.90873 | 17.07456 | 130° | 141km/h | 10208m | 4.6m/s | -42.3°C | 21.7% | 0hPa | 2.7V | 00:00:00 | 00:00:00 | 00:00:00 | |
| HA6NAB-11 | 2026-09-06 00:08:52 | 47.90896 | 17.07415 | 132° | 142km/h | 10203m | 3.6m/s | -42.4°C | 18.6% | 0hPa | 2.7V | 00:00:00 | 00:00:00 | 00:00:00 | |
| OE3MUC-15 | 2026-09-06 00:08:49 | 47.90985 | 17.07252 | 128° | 144km/h | 10189m | 3.7m/s | -42.2°C | 20.9% | 0hPa | 2.7V | 00:00:00 | 00:00:00 | 00:00:00 | |
| HA6NAB-11 | 2026-09-06 00:08:46 | 47.91029 | 17.07168 | 130° | 146km/h | 10182m | 4.6m/s | -42.1°C | 17.7% | 0hPa | 2.7V | 00:00:00 | 00:00:00 | 00:00:00 | |
| OE3MUC-15 | 2026-09-06 00:08:45 | 47.91077 | 17.07083 | 131° | 146km/h | 10175m | 2.1m/s | -42.0°C | 20.7% | 0hPa | 2.7V | 00:00:00 | 00:00:00 | 00:00:00 | |
| PETON7-10 | 2026-09-06 00:08:43 | 47.91125 | 17.07001 | 131° | 141km/h | 10168m | 4.1m/s | -42.0°C | 20.5% | 0hPa | 2.7V | 00:00:00 | 00:00:00 | 08:30:00 | |
| OE3MUC-15 | 2026-09-06 00:08:41 | 47.91172 | 17.06919 | 130° | 142km/h | 10160m | 3.1m/s | -41.9°C | 20.7% | 0hPa | 2.7V | 00:00:00 | 00:00:00 | 00:00:00 | |
| OE5DRO-10 | 2026-09-06 00:08:39 | 47.91217 | 17.06837 | 130° | 142km/h | 10153m | 2.6m/s | -41.8°C | 20.6% | 0hPa | 2.7V | 00:00:00 | 00:00:00 | 00:00:00 | |
| OE3MUC-15 | 2026-09-06 00:08:37 | 47.91264 | 17.06754 | 130° | 142km/h | 10147m | 2.4m/s | -41.8°C | 20.7% | 0hPa | 2.7V | 00:00:00 | 00:00:00 | 00:00:00 | |
| HA6NAB-11 | 2026-09-06 00:08:35 | 47.91287 | 17.06713 | 131° | 142km/h | 10144m | 3.8m/s | -41.8°C | 17.6% | 0hPa | 2.7V | 00:00:00 | 00:00:00 | 00:00:00 | |
| S52SK | 2026-09-06 00:08:34 | 47.91310 | 17.06672 | 130° | 141km/h | 10140m | 2.7m/s | -41.8°C | 17.7% | 0hPa | 2.7V | 00:00:00 | 00:00:00 | 00:00:00 | |
| OE3OSB-13 | 2026-09-06 00:08:32 | 47.91402 | 17.06510 | 131° | 137km/h | 10127m | 4.1m/s | -41.6°C | 17.3% | -1.0hPa | 2.7V | 00:00:00 | 00:00:00 | 00:00:00 | |
| PETON7-10 | 2026-09-06 00:08:28 | 47.91468 | 17.06393 | 130° | 142km/h | 10118m | 3.5m/s | -41.5°C | 20.3% | 0hPa | 2.7V | 00:00:00 | 00:00:00 | 00:00:00 | |
| PG1ADW-2 | 2026-09-06 00:08:25 | 47.91538 | 17.06269 | 132° | 142km/h | 10107m | 3.1m/s | -41.4°C | 20.3% | 0hPa | 2.7V | 00:00:00 | 00:00:00 | 08:30:00 | |
| OE3MUC-15 | 2026-09-06 00:08:24 | 47.91562 | 17.06227 | 132° | 148km/h | 10103m | 3.3m/s | -41.4°C | 20.4% | 0hPa | 2.7V | 00:00:00 | 00:00:00 | 08:30:00 | |
| OE3MUC-15 | 2026-09-06 00:08:20 | 47.91658 | 17.06062 | 129° | 137km/h | 10089m | 3.6m/s | -41.2°C | 20.2% | 0hPa | 2.7V | 00:00:00 | 00:00:00 | 00:00:00 | |
| OE3MUC-15 | 2026-09-06 00:08:16 | 47.91745 | 17.05901 | 130° | 148km/h | 10076m | 3.3m/s | -41.1°C | 19.9% | 0hPa | 2.7V | 00:00:00 | 00:00:00 | 00:00:00 | |
| PETON7-10 | 2026-09-06 00:08:13 | 47.91817 | 17.05772 | 130° | 142km/h | 10066m | 3.7m/s | -41.0°C | 19.5% | 0hPa | 2.7V | 00:00:00 | 00:52:38 | 00:00:00 | |
| OE3MUC-15 | 2026-09-06 00:08:12 | 47.91840 | 17.05730 | 130° | 142km/h | 10062m | 3.9m/s | -41.0°C | 19.6% | 0hPa | 2.7V | 00:00:00 | 00:00:00 | 00:00:00 | |
| OE5DXL-15 | 2026-09-06 00:08:09 | 47.91910 | 17.05608 | 131° | 142km/h | 10053m | 3.4m/s | -40.9°C | 19.3% | 0hPa | 2.7V | 00:00:00 | 00:00:00 | 00:00:00 | |
| OE3MUC-15 | 2026-09-06 00:08:08 | 47.91932 | 17.05568 | 130° | 141km/h | 10049m | 4.1m/s | -40.9°C | 19.3% | 0hPa | 2.7V | 00:00:00 | 00:00:00 | 00:00:00 | |
| PG1ADW-2 | 2026-09-06 00:08:05 | 47.92000 | 17.05446 | 131° | 142km/h | 10039m | 2.9m/s | -40.8°C | 19.4% | 0hPa | 2.7V | 00:00:00 | 00:00:00 | 00:00:00 | |
| OE3MUC-15 | 2026-09-06 00:08:04 | 47.92023 | 17.05405 | 131° | 144km/h | 10036m | 4.0m/s | -40.8°C | 19.2% | 0hPa | 2.7V | 00:00:00 | 00:00:00 | 00:00:00 | |
| OE5DRO-10 | 2026-09-06 00:08:01 | 47.92094 | 17.05282 | 133° | 142km/h | 10025m | 3.2m/s | -40.8°C | 20.0% | 0hPa | 2.7V | 00:00:00 | 00:00:00 | 00:00:00 | |
| OE3MUC-15 | 2026-09-06 00:08:00 | 47.92118 | 17.05242 | 132° | 142km/h | 10022m | 2.0m/s | -40.7°C | 20.1% | 0hPa | 2.7V | 00:00:00 | 00:00:00 | 00:00:00 | |
| PETON7-10 | 2026-09-06 00:07:58 | 47.92164 | 17.05160 | 129° | 142km/h | 10015m | 2.7m/s | -40.7°C | 20.4% | 0hPa | 2.7V | 00:00:00 | 00:00:00 | 00:00:00 | |
| OE3MUC-15 | 2026-09-06 00:07:55 | 47.92233 | 17.05035 | 131° | 144km/h | 10004m | 3.7m/s | -40.7°C | 20.5% | 0hPa | 2.7V | 00:00:00 | 00:00:00 | 00:00:00 | |
| OE3JTB-15 | 2026-09-06 00:07:52 | 47.92303 | 17.04915 | 132° | 144km/h | 9993m | 4.1m/s | -40.6°C | 20.4% | 0hPa | 2.7V | 00:00:00 | 00:00:00 | 08:30:00 | |
| PG1ADW-2 | 2026-09-06 00:07:45 | 47.92458 | 17.04625 | 130° | 144km/h | 9964m | 3.6m/s | -40.4°C | 20.7% | 0hPa | 2.7V | 00:00:00 | 00:00:00 | 00:00:00 | |
| PETON7-10 | 2026-09-06 00:07:43 | 47.92506 | 17.04540 | 130° | 144km/h | 9956m | 3.9m/s | -40.4°C | 20.9% | 0hPa | 2.7V | 00:00:00 | 00:00:00 | 00:00:00 | |
| OE5DRO-10 | 2026-09-06 00:07:42 | 47.92529 | 17.04499 | 130° | 144km/h | 9952m | 3.0m/s | -40.4°C | 20.9% | 0hPa | 2.7V | 00:00:00 | 00:00:00 | 00:00:00 | |
| OE5DXL-15 | 2026-09-06 00:07:39 | 47.92595 | 17.04374 | 129° | 144km/h | 9943m | 2.9m/s | -40.3°C | 21.0% | 0hPa | 2.7V | 00:00:00 | 00:00:00 | 00:00:00 | |
| PETON7-10 | 2026-09-06 00:07:28 | 47.92840 | 17.03894 | 128° | 144km/h | 9905m | 3.8m/s | -40.0°C | 20.9% | 0hPa | 2.7V | 00:00:00 | 00:51:53 | 00:00:00 | |
| OE5DRO-10 | 2026-09-06 00:07:23 | 47.92951 | 17.03687 | 129° | 148km/h | 9886m | 3.2m/s | -39.8°C | 20.9% | 0hPa | 2.7V | 00:00:00 | 00:00:00 | 00:00:00 | |
| OE3JTB-15 | 2026-09-06 00:07:19 | 47.93041 | 17.03516 | 130° | 148km/h | 9872m | 3.4m/s | -39.7°C | 20.6% | 0hPa | 2.7V | 00:00:00 | 00:00:00 | 00:00:00 | |
| PETON7-10 | 2026-09-06 00:07:13 | 47.93178 | 17.03256 | 127° | 148km/h | 9850m | 4.5m/s | -39.5°C | 20.8% | 0hPa | 2.7V | 00:00:00 | 00:00:00 | 00:00:00 | |
| OE5DXL-15 | 2026-09-06 00:07:09 | 47.93270 | 17.03082 | 130° | 148km/h | 9835m | 2.8m/s | -39.4°C | 21.1% | 0hPa | 2.7V | 00:00:00 | 00:00:00 | 00:00:00 | |
| PG1ADW-2 | 2026-09-06 00:07:05 | 47.93365 | 17.02904 | 129° | 148km/h | 9820m | 2.9m/s | -39.3°C | 21.2% | 0hPa | 2.7V | 00:00:00 | 00:00:00 | 00:00:00 | |
| OE5DRO-10 | 2026-09-06 00:07:04 | 47.93388 | 17.02860 | 129° | 148km/h | 9816m | 3.7m/s | -39.2°C | 21.2% | 0hPa | 2.7V | 00:00:00 | 00:00:00 | 00:00:00 | |
| PETON7-10 | 2026-09-06 00:06:58 | 47.93530 | 17.02608 | 130° | 148km/h | 9796m | 2.0m/s | -39.1°C | 21.2% | 0hPa | 2.7V | 00:00:00 | 00:00:00 | 00:00:00 | |
| S52SK | 2026-09-06 00:06:54 | 47.93600 | 17.02482 | 132° | 148km/h | 9785m | 2.5m/s | -39.0°C | 18.5% | 0hPa | 2.7V | 00:00:00 | 00:00:00 | 00:00:00 | |
| OE3JTB-15 | 2026-09-06 00:06:50 | 47.93723 | 17.02267 | 129° | 146km/h | 9769m | 3.2m/s | -38.8°C | 21.3% | 0hPa | 2.7V | 00:00:00 | 00:51:15 | 00:00:00 | |
| S52SK | 2026-09-06 00:06:48 | 47.93747 | 17.02223 | 129° | 151km/h | 9765m | 3.3m/s | -38.9°C | 18.7% | 0hPa | 2.7V | 00:00:00 | 00:00:00 | 00:00:00 | |
| OE3MUC-15 | 2026-09-06 00:06:46 | 47.93817 | 17.02093 | 131° | 144km/h | 9755m | 3.5m/s | -38.7°C | 21.6% | 0hPa | 2.7V | 00:00:00 | 00:00:00 | 00:00:00 | |
| OE5DRO-10 | 2026-09-06 00:06:45 | 47.93841 | 17.02052 | 132° | 144km/h | 9752m | 2.7m/s | -38.7°C | 21.6% | 0hPa | 2.7V | 00:00:00 | 00:00:00 | 00:00:00 | |
| PETON7-10 | 2026-09-06 00:06:43 | 47.93889 | 17.01972 | 132° | 144km/h | 9745m | 4.1m/s | -38.7°C | 21.5% | 0hPa | 2.7V | 00:00:00 | 00:51:08 | 00:00:00 | |
| HA6NAB-11 | 2026-09-06 00:06:42 | 47.93890 | 17.01972 | 132° | 142km/h | 9745m | 4.1m/s | -38.7°C | 18.7% | 0hPa | 2.7V | 00:00:00 | 00:00:00 | 00:00:00 | |
| OE5DXL-15 | 2026-09-06 00:06:39 | 47.93983 | 17.01808 | 130° | 148km/h | 9731m | 3.1m/s | -38.6°C | 21.6% | 0hPa | 2.7V | 00:00:00 | 00:00:00 | 00:00:00 | |
| HA6NAB-11 | 2026-09-06 00:06:36 | 47.94029 | 17.01722 | 130° | 146km/h | 9724m | 2.8m/s | -38.5°C | 18.9% | 0hPa | 2.7V | 00:00:00 | 00:00:00 | 00:00:00 | |
| HA6NAB-11 | 2026-09-06 00:06:30 | 47.94176 | 17.01473 | 135° | 144km/h | 9701m | 3.4m/s | -38.4°C | 19.3% | 0hPa | 2.7V | 00:00:00 | 00:00:00 | 00:00:00 | |
| PETON7-10 | 2026-09-06 00:06:28 | 47.94248 | 17.01353 | 131° | 150km/h | 9690m | 3.3m/s | -38.3°C | 22.3% | 0hPa | 2.7V | 00:00:00 | 00:00:00 | 08:30:00 | |
| OE3OSB-13 | 2026-09-06 00:06:27 | 47.94272 | 17.01311 | 130° | 146km/h | 9686m | 3.0m/s | -38.3°C | 19.1% | -1.0hPa | 2.7V | 00:00:00 | 00:00:00 | 00:00:00 | |
| OE5DRO-10 | 2026-09-06 00:06:26 | 47.94297 | 17.01269 | 132° | 148km/h | 9683m | 4.5m/s | -38.2°C | 21.8% | 0hPa | 2.7V | 00:00:00 | 00:00:00 | 00:00:00 | |
| PG1ADW-2 | 2026-09-06 00:06:25 | 47.94322 | 17.01227 | 133° | 148km/h | 9678m | 3.8m/s | -38.1°C | 21.8% | 0hPa | 2.7V | 00:00:00 | 00:00:00 | 00:00:00 | |
| HA6NAB-11 | 2026-09-06 00:06:24 | 47.94322 | 17.01227 | 134° | 151km/h | 9678m | 3.9m/s | -38.2°C | 19.0% | 0hPa | 2.7V | 00:00:00 | 00:00:00 | 00:00:00 | |
| OE3JTB-15 | 2026-09-06 00:06:21 | 47.94425 | 17.01064 | 132° | 150km/h | 9663m | 4.0m/s | -38.0°C | 21.4% | 0hPa | 2.7V | 00:00:00 | 00:00:00 | 00:00:00 | |
| HA6NAB-11 | 2026-09-06 00:06:14 | 47.94599 | 17.00756 | 131° | 146km/h | 9634m | 4.8m/s | -37.7°C | 18.3% | 0hPa | 2.7V | 00:00:00 | 00:00:00 | 00:00:00 | |
| PETON7-10 | 2026-09-06 00:06:13 | 47.94622 | 17.00714 | 129° | 148km/h | 9630m | 3.3m/s | -37.6°C | 20.9% | 0hPa | 2.7V | 00:00:00 | 00:00:00 | 00:00:00 | |
| OE3MUC-15 | 2026-09-06 00:06:10 | 47.94714 | 17.00550 | 133° | 148km/h | 9613m | 3.4m/s | -37.5°C | 20.6% | 0hPa | 2.7V | 00:00:00 | 00:00:00 | 08:30:00 | |
| OE5DRO-10 | 2026-09-06 00:06:08 | 47.94765 | 17.00469 | 134° | 151km/h | 9605m | 3.0m/s | -37.4°C | 20.5% | 0hPa | 2.7V | 00:00:00 | 00:00:00 | 08:30:00 | |
| PG1ADW-2 | 2026-09-06 00:06:06 | 47.94816 | 17.00384 | 131° | 150km/h | 9598m | 2.8m/s | -37.3°C | 20.5% | 0hPa | 2.7V | 00:00:00 | 00:50:30 | 00:00:00 | |
| OE3MUC-15 | 2026-09-06 00:06:05 | 47.94816 | 17.00384 | 131° | 150km/h | 9598m | 2.8m/s | -37.3°C | 20.5% | 0hPa | 2.7V | 00:00:00 | 00:00:00 | 00:00:00 | |
| OE3OSB-13 | 2026-09-06 00:05:57 | 47.95030 | 16.99986 | 126° | 150km/h | 9557m | 5.5m/s | -37.0°C | 17.1% | -1.0hPa | 2.7V | 00:00:00 | 00:00:00 | 00:00:00 | |
| OE3MUC-15 | 2026-09-06 00:05:53 | 47.95100 | 16.99853 | 131° | 144km/h | 9545m | 5.5m/s | -36.8°C | 19.7% | 0hPa | 2.7V | 00:00:00 | 00:00:00 | 00:00:00 | |
| OE3JTB-15 | 2026-09-06 00:05:52 | 47.95125 | 16.99810 | 132° | 144km/h | 9540m | 3.4m/s | -36.8°C | 19.9% | 0hPa | 2.7V | 00:00:00 | 00:00:00 | 00:00:00 | |
| OE5DRO-10 | 2026-09-06 00:05:50 | 47.95227 | 16.99639 | 132° | 144km/h | 9524m | 5.1m/s | -36.6°C | 19.3% | 0hPa | 2.7V | 00:00:00 | 00:00:00 | 00:00:00 | |
| PG1ADW-2 | 2026-09-06 00:05:45 | 47.95296 | 16.99519 | 130° | 144km/h | 9509m | 4.8m/s | -36.5°C | 19.1% | 0hPa | 2.7V | 00:00:00 | 00:00:00 | 00:00:00 | |
| PETON7-10 | 2026-09-06 00:05:43 | 47.95339 | 16.99439 | 130° | 146km/h | 9501m | 2.9m/s | -36.4°C | 19.3% | 0hPa | 2.7V | 00:00:00 | 00:00:00 | 00:00:00 | |
| OE5DXL-15 | 2026-09-06 00:05:39 | 47.95432 | 16.99275 | 131° | 148km/h | 9485m | 5.8m/s | -36.3°C | 18.5% | 0hPa | 2.7V | 00:00:00 | 00:00:00 | 00:00:00 | |
| PETON7-10 | 2026-09-06 00:05:28 | 47.95695 | 16.98812 | 128° | 146km/h | 9438m | 4.0m/s | -35.8°C | 18.0% | 0hPa | 2.7V | 00:00:00 | 00:00:00 | 00:00:00 | |
| PG1ADW-2 | 2026-09-06 00:05:26 | 47.95764 | 16.98688 | 132° | 150km/h | 9424m | 4.2m/s | -35.7°C | 18.0% | 0hPa | 2.7V | 00:00:00 | 00:00:00 | 08:30:00 | |
| OE3JTB-15 | 2026-09-06 00:05:24 | 47.95813 | 16.98607 | 133° | 150km/h | 9416m | 3.5m/s | -35.6°C | 18.1% | 0hPa | 2.7V | 00:00:00 | 00:49:48 | 00:00:00 | |
| OE3MUC-15 | 2026-09-06 00:05:17 | 47.95950 | 16.98347 | 126° | 153km/h | 9388m | 6.2m/s | -35.3°C | 17.3% | 0hPa | 2.7V | 00:00:00 | 00:49:42 | 08:30:00 | |
| PETON7-10 | 2026-09-06 00:05:13 | 47.96045 | 16.98163 | 130° | 151km/h | 9368m | 4.9m/s | -35.1°C | 17.2% | 0hPa | 2.7V | 00:00:00 | 00:49:38 | 00:00:00 | |
| OE5DRO-10 | 2026-09-06 00:05:10 | 47.96119 | 16.98027 | 130° | 150km/h | 9354m | 4.4m/s | -35.0°C | 17.0% | 0hPa | 2.7V | 00:00:00 | 00:00:00 | 00:00:00 | |
| OE3MUC-15 | 2026-09-06 00:05:09 | 47.96144 | 16.97982 | 129° | 153km/h | 9349m | 3.9m/s | -34.9°C | 17.0% | 0hPa | 2.7V | 00:00:00 | 00:00:00 | 00:00:00 | |
| OE3MUC-15 | 2026-09-06 00:05:05 | 47.96242 | 16.97804 | 132° | 150km/h | 9329m | 4.4m/s | -34.8°C | 16.9% | 0hPa | 2.7V | 00:00:00 | 00:00:00 | 00:00:00 | |
| HA6NAB-11 | 2026-09-06 00:05:04 | 47.96242 | 16.97804 | 132° | 151km/h | 9329m | 4.5m/s | -34.8°C | 14.8% | 0hPa | 2.7V | 00:00:00 | 00:00:00 | 00:00:00 | |
| OE3OSB-13 | 2026-09-06 00:04:54 | 47.96521 | 16.97282 | 127° | 148km/h | 9280m | 4.3m/s | -34.4°C | 15.0% | -1.0hPa | 2.7V | 00:00:00 | 00:00:00 | 00:00:00 | |
| OE3MUC-15 | 2026-09-06 00:04:53 | 47.96521 | 16.97282 | 128° | 148km/h | 9281m | 4.2m/s | -34.4°C | 17.2% | 0hPa | 2.7V | 00:00:00 | 00:00:00 | 00:00:00 | |
| HA6NAB-11 | 2026-09-06 00:04:52 | 47.96521 | 16.97282 | 129° | 150km/h | 9281m | 4.3m/s | -34.4°C | 15.1% | 0hPa | 2.7V | 00:00:00 | 00:00:00 | 00:00:00 | |
| OE5DRO-10 | 2026-09-06 00:04:51 | 47.96567 | 16.97194 | 129° | 151km/h | 9272m | 3.1m/s | -34.3°C | 17.3% | 0hPa | 2.7V | 00:00:00 | 00:00:00 | 00:00:00 | |
| OE3MUC-15 | 2026-09-06 00:04:49 | 47.96616 | 16.97104 | 130° | 153km/h | 9263m | 4.0m/s | -34.2°C | 17.3% | 0hPa | 2.7V | 00:00:00 | 00:00:00 | 00:00:00 | |
| HA6NAB-11 | 2026-09-06 00:04:47 | 47.96665 | 16.97014 | 130° | 151km/h | 9256m | 5.6m/s | -34.2°C | 15.1% | 0hPa | 2.7V | 00:00:00 | 00:00:00 | 00:00:00 | |
| PG1ADW-2 | 2026-09-06 00:04:46 | 47.96712 | 16.96927 | 129° | 151km/h | 9246m | 3.4m/s | -34.1°C | 17.4% | 0hPa | 2.7V | 00:00:00 | 00:49:10 | 00:00:00 | |
| PETON7-10 | 2026-09-06 00:04:43 | 47.96757 | 16.96841 | 129° | 151km/h | 9239m | 4.5m/s | -34.0°C | 17.3% | 0hPa | 2.7V | 00:00:00 | 00:00:00 | 00:00:00 | |
| HA6NAB-11 | 2026-09-06 00:04:40 | 47.96804 | 16.96753 | 130° | 153km/h | 9229m | 4.8m/s | -34.0°C | 15.6% | 0hPa | 2.7V | 00:00:00 | 00:00:00 | 00:00:00 | |
| OE5DXL-15 | 2026-09-06 00:04:39 | 47.96853 | 16.96663 | 130° | 151km/h | 9221m | 3.3m/s | -33.9°C | 17.9% | 0hPa | 2.7V | 00:00:00 | 00:00:00 | 00:00:00 | |
| OE3MUC-15 | 2026-09-06 00:04:34 | 47.96972 | 16.96440 | 128° | 151km/h | 9200m | 3.8m/s | -33.7°C | 18.4% | 0hPa | 2.7V | 00:00:00 | 00:00:00 | 00:00:00 | |
| OE5DRO-10 | 2026-09-06 00:04:32 | 47.97018 | 16.96348 | 127° | 150km/h | 9192m | 3.8m/s | -33.6°C | 18.6% | 0hPa | 2.7V | 00:00:00 | 00:00:00 | 00:00:00 | |
| PETON7-10 | 2026-09-06 00:04:29 | 47.97112 | 16.96168 | 130° | 150km/h | 9170m | 3.8m/s | -33.5°C | 18.5% | 0hPa | 2.7V | 00:00:00 | 00:48:53 | 00:00:00 | |
| PG1ADW-2 | 2026-09-06 00:04:25 | 47.97184 | 16.96034 | 128° | 150km/h | 9155m | 5.4m/s | -33.3°C | 18.6% | 0hPa | 2.7V | 00:00:00 | 00:00:00 | 00:00:00 | |
| OE3OSB-13 | 2026-09-06 00:04:24 | 47.97251 | 16.95898 | 125° | 151km/h | 9139m | 6.5m/s | -33.2°C | 16.2% | -1.0hPa | 2.7V | 00:00:00 | 00:00:00 | 00:00:00 | |
| OE3MUC-15 | 2026-09-06 00:04:21 | 47.97273 | 16.95851 | 126° | 153km/h | 9134m | 5.4m/s | -33.1°C | 18.6% | 0hPa | 2.7V | 00:00:00 | 00:00:00 | 08:30:00 | |
| OE3MUC-15 | 2026-09-06 00:04:17 | 47.97364 | 16.95667 | 126° | 146km/h | 9114m | 5.5m/s | -33.0°C | 18.4% | 0hPa | 2.7V | 00:00:00 | 00:00:00 | 00:00:00 | |
| OE3MUC-15 | 2026-09-06 00:04:13 | 47.97448 | 16.95484 | 125° | 148km/h | 9092m | 5.3m/s | -32.8°C | 18.4% | 0hPa | 2.7V | 00:00:00 | 00:00:00 | 00:00:00 | |
| OE3MUC-15 | 2026-09-06 00:04:09 | 47.97534 | 16.95302 | 126° | 150km/h | 9072m | 4.8m/s | -32.7°C | 18.5% | 0hPa | 2.7V | 00:00:00 | 00:00:00 | 00:00:00 | |
| OE5DXL-15 | 2026-09-06 00:04:08 | 47.97555 | 16.95256 | 125° | 146km/h | 9067m | 5.5m/s | -32.7°C | 18.4% | 0hPa | 2.7V | 00:00:00 | 00:00:00 | 00:00:00 | |
| PG1ADW-2 | 2026-09-06 00:04:06 | 47.97621 | 16.95117 | 126° | 148km/h | 9053m | 4.3m/s | -32.5°C | 18.4% | 0hPa | 2.7V | 00:00:00 | 00:00:00 | 00:00:00 | |
| OE3MUC-15 | 2026-09-06 00:04:05 | 47.97621 | 16.95117 | 126° | 146km/h | 9053m | 4.3m/s | -32.5°C | 18.4% | 0hPa | 2.7V | 00:00:00 | 00:00:00 | 00:00:00 | |
| OE3OSB-13 | 2026-09-06 00:03:52 | 47.97923 | 16.94487 | 126° | 148km/h | 8991m | 3.4m/s | -32.1°C | 16.0% | -1.0hPa | 2.7V | 00:00:00 | 00:00:00 | 00:00:00 | |
| OE3MUC-15 | 2026-09-06 00:03:49 | 47.97968 | 16.94395 | 126° | 151km/h | 8982m | 4.6m/s | -31.9°C | 17.9% | 0hPa | 2.7V | 00:00:00 | 00:00:00 | 00:00:00 | |
| OE3MUC-15 | 2026-09-06 00:03:45 | 47.98056 | 16.94207 | 124° | 146km/h | 8964m | 4.3m/s | -31.8°C | 17.9% | 0hPa | 2.7V | 00:00:00 | 00:00:00 | 08:30:00 | |
| PETON7-10 | 2026-09-06 00:03:43 | 47.98097 | 16.94115 | 124° | 144km/h | 8956m | 2.5m/s | -31.7°C | 17.9% | 0hPa | 2.7V | 00:00:00 | 00:48:08 | 00:00:00 | |
| OE5DRO-10 | 2026-09-06 00:03:36 | 47.98269 | 16.93762 | 126° | 142km/h | 8915m | 5.2m/s | -31.3°C | 17.5% | 0hPa | 2.7V | 00:00:00 | 00:00:00 | 00:00:00 | |
| OE5DXL-15 | 2026-09-06 00:03:32 | 47.98333 | 16.93634 | 129° | 144km/h | 8901m | 5.3m/s | 0°C | 0% | 0hPa | 2.7V | 00:00:00 | 00:00:00 | 00:00:00 | |
| PETON7-10 | 2026-09-06 00:03:28 | 47.98421 | 16.93462 | 126° | 144km/h | 8881m | 5.6m/s | -31.1°C | 18.8% | 0hPa | 2.7V | 00:00:00 | 00:00:00 | 00:00:00 | |
| PG1ADW-2 | 2026-09-06 00:03:27 | 47.98483 | 16.93330 | 126° | 144km/h | 8865m | 4.5m/s | -31.0°C | 19.4% | 0hPa | 2.7V | 00:00:00 | 00:47:50 | 00:00:00 | |
| OE3OSB-13 | 2026-09-06 00:03:23 | 47.98590 | 16.93110 | 125° | 142km/h | 8840m | 4.6m/s | -30.9°C | 17.5% | -1.0hPa | 2.7V | 00:00:00 | 00:00:00 | 00:00:00 | |
| OE5DRO-10 | 2026-09-06 00:03:20 | 47.98676 | 16.92936 | 128° | 144km/h | 8821m | 4.5m/s | -30.6°C | 19.6% | 0hPa | 2.7V | 00:00:00 | 00:00:00 | 08:30:00 | |
| OE3MUC-15 | 2026-09-06 00:03:17 | 47.98764 | 16.92761 | 128° | 144km/h | 8801m | 6.2m/s | -30.5°C | 19.4% | 0hPa | 2.7V | 00:00:00 | 00:00:00 | 00:00:00 | |
| S52SK | 2026-09-06 00:03:15 | 47.98810 | 16.92674 | 129° | 146km/h | 8791m | 3.5m/s | -30.4°C | 17.7% | 0hPa | 2.7V | 00:00:00 | 00:00:00 | 00:00:00 | |
| PG1ADW-2 | 2026-09-06 00:03:13 | 47.98920 | 16.92456 | 128° | 146km/h | 8767m | 4.1m/s | -30.2°C | 19.6% | 0hPa | 2.7V | 00:00:00 | 00:00:00 | 00:00:00 | |
| S52SK | 2026-09-06 00:03:12 | 47.98942 | 16.92413 | 129° | 142km/h | 8763m | 5.0m/s | -30.2°C | 17.7% | 0hPa | 2.7V | 00:00:00 | 00:00:00 | 00:00:00 | |
| OE5DXL-15 | 2026-09-06 00:03:10 | 47.98987 | 16.92328 | 128° | 146km/h | 8754m | 3.6m/s | 0°C | 0% | 0hPa | 2.7V | 00:00:00 | 00:00:00 | 00:00:00 | |
| HA6NAB-11 | 2026-09-06 00:03:08 | 47.99051 | 16.92196 | 126° | 144km/h | 8740m | 3.9m/s | -29.9°C | 17.3% | 0hPa | 2.7V | 00:00:00 | 00:00:00 | 00:00:00 | |
| OE3MUC-15 | 2026-09-06 00:03:07 | 47.99072 | 16.92152 | 127° | 146km/h | 8736m | 4.9m/s | -29.9°C | 19.0% | 0hPa | 2.7V | 00:00:00 | 00:00:00 | 00:00:00 | |
| OE5DRO-10 | 2026-09-06 00:03:06 | 47.99094 | 16.92108 | 128° | 148km/h | 8730m | 5.7m/s | -29.8°C | 19.0% | 0hPa | 2.7V | 00:00:00 | 00:00:00 | 00:00:00 | |
| OE3MUC-15 | 2026-09-06 00:03:02 | 47.99164 | 16.91978 | 129° | 148km/h | 8717m | 4.7m/s | -29.7°C | 19.1% | 0hPa | 2.7V | 00:00:00 | 00:00:00 | 00:00:00 | |
| OE3OSB-13 | 2026-09-06 00:02:59 | 47.99277 | 16.91758 | 127° | 148km/h | 8691m | 5.5m/s | -29.5°C | 17.3% | -1.0hPa | 2.7V | 00:00:00 | 00:00:00 | 00:00:00 | |
| HA6NAB-11 | 2026-09-06 00:02:57 | 47.99277 | 16.91758 | 129° | 148km/h | 8691m | 5.5m/s | -29.5°C | 17.4% | 0hPa | 2.7V | 00:00:00 | 00:00:00 | 00:00:00 | |
| OE3MUC-15 | 2026-09-06 00:02:55 | 47.99345 | 16.91627 | 129° | 148km/h | 8677m | 4.0m/s | -29.4°C | 19.3% | 0hPa | 2.7V | 00:00:00 | 00:00:00 | 00:00:00 | |
| PG1ADW-2 | 2026-09-06 00:02:54 | 47.99368 | 16.91585 | 129° | 146km/h | 8673m | 4.3m/s | -29.3°C | 19.3% | 0hPa | 2.7V | 00:00:00 | 00:00:00 | 00:00:00 | |
| PETON7-10 | 2026-09-06 00:02:53 | 47.99413 | 16.91498 | 127° | 146km/h | 8662m | 5.0m/s | -29.2°C | 19.4% | 0hPa | 2.7V | 00:00:00 | 00:00:00 | 00:00:00 | |
| HA6NAB-11 | 2026-09-06 00:02:52 | 47.99413 | 16.91498 | 128° | 148km/h | 8662m | 5.0m/s | -29.3°C | 17.6% | 0hPa | 2.7V | 00:00:00 | 00:00:00 | 00:00:00 | |
| OE3MUC-15 | 2026-09-06 00:02:50 | 47.99458 | 16.91408 | 126° | 150km/h | 8653m | 4.5m/s | -29.1°C | 19.4% | 0hPa | 2.7V | 00:00:00 | 00:00:00 | 00:00:00 | |
| OE5DRO-10 | 2026-09-06 00:02:48 | 47.99524 | 16.91269 | 126° | 146km/h | 8639m | 4.6m/s | -29.0°C | 19.3% | 0hPa | 2.7V | 00:00:00 | 00:00:00 | 00:00:00 | |
| OE3JTB-15 | 2026-09-06 00:02:47 | 47.99546 | 16.91223 | 126° | 144km/h | 8634m | 4.7m/s | -29.0°C | 19.5% | 0hPa | 2.7V | 00:00:00 | 00:47:02 | 00:00:00 | |
| OE3MUC-15 | 2026-09-06 00:02:44 | 47.99546 | 16.91223 | 126° | 146km/h | 8634m | 4.7m/s | -29.0°C | 19.5% | 0hPa | 2.7V | 00:00:00 | 00:00:00 | 00:00:00 | |
| HA6NAB-11 | 2026-09-06 00:02:38 | 47.99633 | 16.91048 | 128° | 142km/h | 8615m | 5.0m/s | -28.9°C | 18.2% | 0hPa | 2.7V | 00:00:00 | 00:00:00 | 00:00:00 | |
| OE5DXL-15 | 2026-09-06 00:02:37 | 47.99655 | 16.91005 | 128° | 144km/h | 8611m | 3.5m/s | 0°C | 0% | 0hPa | 2.7V | 00:00:00 | 00:00:00 | 00:00:00 | |
| OE3MUC-15 | 2026-09-06 00:02:32 | 47.99716 | 16.90877 | 124° | 146km/h | 8597m | 4.5m/s | -28.7°C | 21.2% | 0hPa | 2.7V | 00:00:00 | 00:00:00 | 00:00:00 | |
| PETON7-10 | 2026-09-06 00:02:31 | 47.99736 | 16.90832 | 124° | 146km/h | 8592m | 5.2m/s | -28.7°C | 21.6% | 0hPa | 2.7V | 00:00:00 | 00:00:00 | 00:00:00 | |
| HA6NAB-11 | 2026-09-06 00:02:29 | 47.99756 | 16.90786 | 126° | 148km/h | 8588m | 3.3m/s | -28.7°C | 20.1% | 0hPa | 2.7V | 00:00:00 | 00:00:00 | 00:00:00 | |
| PG1ADW-2 | 2026-09-06 00:02:27 | 47.99800 | 16.90693 | 126° | 144km/h | 8580m | 4.8m/s | -28.6°C | 21.9% | 0hPa | 2.7V | 00:00:00 | 00:00:00 | 08:30:00 | |
| OE3MUC-15 | 2026-09-06 00:02:24 | 47.99867 | 16.90556 | 127° | 144km/h | 8567m | 4.0m/s | -28.5°C | 22.0% | 0hPa | 2.7V | 00:00:00 | 00:00:00 | 00:00:00 | |
| OE5DRO-10 | 2026-09-06 00:02:20 | 47.99931 | 16.90425 | 126° | 142km/h | 8555m | 4.0m/s | -28.4°C | 22.2% | 0hPa | 2.7V | 00:00:00 | 00:00:00 | 00:00:00 | |
| OE3OSB-13 | 2026-09-06 00:02:19 | 47.99953 | 16.90382 | 126° | 142km/h | 8550m | 3.9m/s | -28.4°C | 20.1% | -1.0hPa | 2.7V | 00:00:00 | 00:00:00 | 00:00:00 | |
| OE3MUC-15 | 2026-09-06 00:02:17 | 47.99996 | 16.90295 | 128° | 142km/h | 8542m | 3.2m/s | -28.3°C | 22.2% | 0hPa | 2.7V | 00:00:00 | 00:00:00 | 00:00:00 | |
| PETON7-10 | 2026-09-06 00:02:14 | 48.00062 | 16.90168 | 128° | 142km/h | 8529m | 4.9m/s | -28.2°C | 22.0% | 0hPa | 2.7V | 00:00:00 | 00:46:38 | 00:00:00 | |
| OE3MUC-15 | 2026-09-06 00:02:13 | 48.00084 | 16.90125 | 128° | 144km/h | 8524m | 4.6m/s | -28.1°C | 22.0% | 0hPa | 2.7V | 00:00:00 | 00:00:00 | 00:00:00 | |
| OE3MUC-15 | 2026-09-06 00:02:08 | 48.00170 | 16.89951 | 128° | 142km/h | 8505m | 4.3m/s | -28.0°C | 22.0% | 0hPa | 2.7V | 00:00:00 | 00:00:00 | 00:00:00 | |
| PG1ADW-2 | 2026-09-06 00:02:05 | 48.00238 | 16.89826 | 129° | 141km/h | 8491m | 4.3m/s | -27.9°C | 22.4% | 0hPa | 2.7V | 00:00:00 | 00:46:30 | 00:00:00 | |
| OE3MUC-15 | 2026-09-06 00:02:04 | 48.00260 | 16.89784 | 128° | 142km/h | 8486m | 5.1m/s | -27.8°C | 22.5% | 0hPa | 2.7V | 00:00:00 | 00:00:00 | 00:00:00 | |
| OE5DRO-10 | 2026-09-06 00:02:01 | 48.00348 | 16.89611 | 128° | 141km/h | 8467m | 5.1m/s | -27.6°C | 22.7% | 0hPa | 2.7V | 00:00:00 | 00:00:00 | 00:00:00 | |
| C-15 | 2026-09-06 00:02:00 | 48.00348 | 16.89611 | 128° | 142km/h | 8467m | 5.1m/s | -27.6°C | 22.7% | 0hPa | 2.7V | 00:00:00 | 00:00:00 | 00:00:00 | |
| PETON7-10 | 2026-09-06 00:01:59 | 48.00391 | 16.89526 | 127° | 141km/h | 8457m | 4.8m/s | -27.6°C | 22.8% | 0hPa | 2.7V | 00:00:00 | 00:00:00 | 08:30:00 | |
| OE3MUC-15 | 2026-09-06 00:01:58 | 48.00454 | 16.89398 | 127° | 139km/h | 8443m | 3.8m/s | -27.5°C | 22.3% | 0hPa | 2.7V | 00:00:00 | 00:00:00 | 00:00:00 | |
| OE3MUC-15 | 2026-09-06 00:01:56 | 48.00543 | 16.89236 | 131° | 139km/h | 8425m | 5.1m/s | -27.3°C | 21.3% | 0hPa | 2.7V | 00:00:00 | 00:00:00 | 08:30:00 | |
| OE3OSB-13 | 2026-09-06 00:01:53 | 48.00631 | 16.89073 | 127° | 137km/h | 8403m | 5.0m/s | -27.1°C | 19.0% | -1.0hPa | 2.7V | 00:00:00 | 00:00:00 | 00:00:00 | |
| OE3MUC-15 | 2026-09-06 00:01:51 | 48.00631 | 16.89073 | 128° | 141km/h | 8403m | 4.9m/s | -27.1°C | 20.9% | 0hPa | 2.7V | 00:00:00 | 00:00:00 | 00:00:00 | |
| PG1ADW-2 | 2026-09-06 00:01:49 | 48.00674 | 16.88990 | 128° | 141km/h | 8393m | 5.4m/s | -27.0°C | 20.6% | 0hPa | 2.7V | 00:00:00 | 00:00:00 | 00:00:00 | |
| OE3MUC-15 | 2026-09-06 00:01:47 | 48.00718 | 16.88903 | 127° | 146km/h | 8381m | 5.1m/s | -26.9°C | 20.7% | 0hPa | 2.7V | 00:00:00 | 00:00:00 | 00:00:00 | |
| OE5DRO-10 | 2026-09-06 00:01:45 | 48.00761 | 16.88814 | 126° | 141km/h | 8371m | 5.1m/s | -26.8°C | 20.9% | 0hPa | 2.7V | 00:00:00 | 00:00:00 | 00:00:00 | |
| OE3JTB-15 | 2026-09-06 00:01:42 | 48.00827 | 16.88684 | 128° | 139km/h | 8357m | 4.5m/s | -26.6°C | 20.9% | 0hPa | 2.7V | 00:00:00 | 00:00:00 | 00:00:00 | |
| OE5WHR-10 | 2026-09-06 00:01:40 | 48.00849 | 16.88642 | 128° | 142km/h | 8353m | 4.7m/s | 0°C | 0% | 0hPa | 2.7V | 00:00:00 | 00:46:02 | 00:00:00 | |
| OE5DXL-15 | 2026-09-06 00:01:32 | 48.01040 | 16.88271 | 129° | 137km/h | 8308m | 5.8m/s | 0°C | 0% | 0hPa | 2.7V | 00:00:00 | 00:00:00 | 00:00:00 | |
| PETON7-10 | 2026-09-06 00:01:31 | 48.01040 | 16.88271 | 129° | 142km/h | 8308m | 5.8m/s | -26.2°C | 20.6% | 0hPa | 2.7V | 00:00:00 | 00:45:53 | 00:00:00 | |
| PG1ADW-2 | 2026-09-06 00:01:28 | 48.01107 | 16.88141 | 128° | 142km/h | 8293m | 5.1m/s | -26.0°C | 20.5% | 0hPa | 2.7V | 00:00:00 | 00:00:00 | 00:00:00 | |
| OE5DRO-10 | 2026-09-06 00:01:25 | 48.01173 | 16.88012 | 129° | 141km/h | 8278m | 4.6m/s | -25.9°C | 20.6% | 0hPa | 2.7V | 00:00:00 | 00:00:00 | 00:00:00 | |
| OE3MUC-15 | 2026-09-06 00:01:23 | 48.01242 | 16.87886 | 130° | 146km/h | 8265m | 5.1m/s | -25.8°C | 20.5% | 0hPa | 2.7V | 00:00:00 | 00:45:44 | 00:00:00 | |
| OE3OSB-13 | 2026-09-06 00:01:19 | 48.01310 | 16.87760 | 127° | 137km/h | 8250m | 5.4m/s | -25.7°C | 18.4% | -1.0hPa | 2.7V | 00:00:00 | 00:00:00 | 00:00:00 | |
| OE5WHR-10 | 2026-09-06 00:01:18 | 48.01310 | 16.87760 | 128° | 141km/h | 8250m | 5.4m/s | 0°C | 0% | 0hPa | 2.7V | 00:00:00 | 00:00:00 | 00:00:00 | |
| PETON7-10 | 2026-09-06 00:01:16 | 48.01374 | 16.87639 | 130° | 142km/h | 8236m | 5.5m/s | -25.5°C | 20.0% | 0hPa | 2.7V | 00:00:00 | 00:00:00 | 00:00:00 | |
| OE3MUC-15 | 2026-09-06 00:01:13 | 48.01442 | 16.87515 | 130° | 142km/h | 8221m | 4.3m/s | -25.4°C | 19.9% | 0hPa | 2.7V | 00:00:00 | 00:00:00 | 08:30:00 | |
| OE3JTB-15 | 2026-09-06 00:01:11 | 48.01464 | 16.87474 | 130° | 142km/h | 8217m | 4.8m/s | -25.3°C | 19.9% | 0hPa | 2.7V | 00:00:00 | 00:45:34 | 00:00:00 | |
| PG1ADW-2 | 2026-09-06 00:01:08 | 48.01554 | 16.87310 | 130° | 142km/h | 8198m | 4.5m/s | -25.2°C | 19.8% | 0hPa | 2.7V | 00:00:00 | 00:00:00 | 00:00:00 | |
| OE3MUC-15 | 2026-09-06 00:01:07 | 48.01577 | 16.87269 | 131° | 144km/h | 8193m | 5.2m/s | -25.1°C | 19.7% | 0hPa | 2.7V | 00:00:00 | 00:00:00 | 00:00:00 | |
| OE5DRO-10 | 2026-09-06 00:01:04 | 48.01601 | 16.87227 | 130° | 142km/h | 8188m | 4.3m/s | -25.1°C | 19.6% | 0hPa | 2.7V | 00:00:00 | 00:00:00 | 00:00:00 | |
| OE3MUC-15 | 2026-09-06 00:01:01 | 48.01671 | 16.87100 | 130° | 142km/h | 8173m | 4.3m/s | -25.0°C | 19.6% | 0hPa | 2.7V | 00:00:00 | 00:00:00 | 00:00:00 | |
| PETON7-10 | 2026-09-06 00:00:59 | 48.01717 | 16.87017 | 130° | 142km/h | 8163m | 4.9m/s | -24.9°C | 19.5% | 0hPa | 2.7V | 00:00:00 | 00:00:00 | 00:00:00 | |
| OE3MUC-15 | 2026-09-06 00:00:56 | 48.01762 | 16.86936 | 130° | 141km/h | 8153m | 3.1m/s | -24.9°C | 19.7% | 0hPa | 2.7V | 00:00:00 | 00:00:00 | 00:00:00 | |
| OE5WHR-10 | 2026-09-06 00:00:55 | 48.01784 | 16.86896 | 130° | 142km/h | 8149m | 4.7m/s | 0°C | 0% | 0hPa | 2.7V | 00:00:00 | 00:00:00 | 00:00:00 | |
| S52SK | 2026-09-06 00:00:53 | 48.01806 | 16.86855 | 130° | 141km/h | 8145m | 4.2m/s | -24.8°C | 18.2% | 0hPa | 2.7V | 00:00:00 | 00:00:00 | 00:00:00 | |
| OE3MUC-15 | 2026-09-06 00:00:52 | 48.01853 | 16.86774 | 132° | 144km/h | 8136m | 4.9m/s | -24.7°C | 20.1% | 0hPa | 2.7V | 00:00:00 | 00:00:00 | 00:00:00 | |
| S52SK | 2026-09-06 00:00:48 | 48.01950 | 16.86610 | 131° | 144km/h | 8116m | 4.7m/s | -24.7°C | 19.3% | 0hPa | 2.7V | 00:00:00 | 00:00:00 | 00:00:00 | |
| PG1ADW-2 | 2026-09-06 00:00:47 | 48.02019 | 16.86486 | 132° | 139km/h | 8101m | 6.1m/s | -24.6°C | 21.8% | 0hPa | 2.7V | 00:00:00 | 00:45:10 | 00:00:00 | |
| OE3MUC-15 | 2026-09-06 00:00:46 | 48.02115 | 16.86327 | 131° | 141km/h | 8080m | 5.3m/s | -24.5°C | 22.8% | 0hPa | 2.7V | 00:00:00 | 00:00:00 | 00:00:00 | |
| OE3MUC-15 | 2026-09-06 00:00:42 | 48.02207 | 16.86164 | 132° | 139km/h | 8061m | 4.8m/s | -24.5°C | 24.4% | 0hPa | 2.7V | 00:00:00 | 00:00:00 | 00:00:00 | |
| OE3MUC-15 | 2026-09-06 00:00:31 | 48.02366 | 16.85886 | 132° | 135km/h | 8026m | 5.7m/s | -24.2°C | 24.7% | 0hPa | 2.7V | 00:00:00 | 00:00:00 | 00:00:00 | |
| PETON7-10 | 2026-09-06 00:00:28 | 48.02410 | 16.85810 | 132° | 137km/h | 8016m | 5.2m/s | -24.2°C | 24.8% | 0hPa | 2.7V | 00:00:00 | 00:00:00 | 00:00:00 | |
| PG1ADW-2 | 2026-09-06 00:00:25 | 48.02479 | 16.85692 | 132° | 135km/h | 8001m | 4.9m/s | -24.1°C | 25.5% | 0hPa | 2.7V | 00:00:00 | 00:00:00 | 00:00:00 | |
| OE3MUC-15 | 2026-09-06 00:00:20 | 48.02658 | 16.85377 | 132° | 135km/h | 7961m | 4.8m/s | -24.0°C | 27.1% | 0hPa | 2.7V | 00:00:00 | 00:00:00 | 08:30:00 | |
| OE3OSB-13 | 2026-09-06 00:00:17 | 48.02726 | 16.85264 | 131° | 131km/h | 7946m | 3.7m/s | -23.9°C | 25.8% | -1.0hPa | 2.7V | 00:00:00 | 00:00:00 | 00:00:00 | |
| PETON7-10 | 2026-09-06 00:00:13 | 48.02748 | 16.85226 | 132° | 133km/h | 7941m | 5.8m/s | -23.8°C | 28.1% | 0hPa | 2.7V | 00:00:00 | 00:00:00 | 00:00:00 | |
| OE5WHR-10 | 2026-09-06 00:00:12 | 48.02770 | 16.85187 | 131° | 135km/h | 7935m | 5.9m/s | 0°C | 0% | 0hPa | 2.7V | 00:00:00 | 00:00:00 | 00:00:00 | |
| OE3MUC-15 | 2026-09-06 00:00:10 | 48.02837 | 16.85071 | 133° | 133km/h | 7921m | 5.7m/s | -23.7°C | 28.9% | 0hPa | 2.7V | 00:00:00 | 00:00:00 | 00:00:00 | |
| OE5DRO-10 | 2026-09-06 00:00:08 | 48.02906 | 16.84961 | 133° | 131km/h | 7905m | 5.2m/s | -23.6°C | 28.5% | 0hPa | 2.7V | 00:00:00 | 00:00:00 | 00:00:00 | |
| PG1ADW-2 | 2026-09-06 00:00:06 | 48.02928 | 16.84923 | 132° | 131km/h | 7899m | 5.7m/s | -23.5°C | 28.4% | 0hPa | 2.7V | 00:00:00 | 00:00:00 | 00:00:00 | |
| OE3MUC-15 | 2026-09-06 00:00:05 | 48.02928 | 16.84923 | 132° | 135km/h | 7899m | 5.7m/s | -23.5°C | 28.4% | 0hPa | 2.7V | 00:00:00 | 00:00:00 | 00:00:00 | |
| OE3JTB-15 | 2026-09-06 00:00:04 | 48.03018 | 16.84771 | 133° | 130km/h | 7879m | 6.8m/s | -23.3°C | 28.2% | 0hPa | 2.7V | 00:00:00 | 00:00:00 | 00:00:00 | |
| OE3MUC-15 | 2026-09-06 00:00:00 | 48.03040 | 16.84734 | 133° | 130km/h | 7873m | 4.2m/s | -23.3°C | 28.6% | 0hPa | 2.7V | 00:00:00 | 00:00:00 | 00:00:00 | |
| PETON7-10 | 2026-09-05 23:59:58 | 48.03085 | 16.84664 | 133° | 131km/h | 7862m | 5.6m/s | -23.2°C | 28.8% | 0hPa | 2.7V | 00:00:00 | 00:44:23 | 00:00:00 | |
| OE3MUC-15 | 2026-09-05 23:59:56 | 48.03129 | 16.84590 | 131° | 128km/h | 7851m | 4.9m/s | -23.2°C | 29.1% | 0hPa | 2.7V | 00:00:00 | 00:00:00 | 00:00:00 | |
| OE3MUC-15 | 2026-09-05 23:59:52 | 48.03214 | 16.84442 | 133° | 133km/h | 7830m | 5.2m/s | -23.0°C | 29.4% | 0hPa | 2.7V | 00:00:00 | 00:00:00 | 00:00:00 | |
| OE3MUC-15 | 2026-09-05 23:59:48 | 48.03306 | 16.84293 | 132° | 135km/h | 7808m | 5.3m/s | -22.8°C | 30.2% | 0hPa | 2.7V | 00:00:00 | 00:00:00 | 00:00:00 | |
| OE5DRO-10 | 2026-09-05 23:59:47 | 48.03329 | 16.84255 | 132° | 130km/h | 7803m | 4.4m/s | -22.8°C | 30.2% | 0hPa | 2.7V | 00:00:00 | 00:00:00 | 00:00:00 | |
| PG1ADW-2 | 2026-09-05 23:59:45 | 48.03373 | 16.84180 | 132° | 128km/h | 7792m | 5.5m/s | -22.7°C | 30.6% | 0hPa | 2.7V | 00:00:00 | 00:00:00 | 00:00:00 | |
| OE3MUC-15 | 2026-09-05 23:59:44 | 48.03395 | 16.84143 | 132° | 126km/h | 7787m | 4.1m/s | -22.7°C | 31.1% | 0hPa | 2.7V | 00:00:00 | 00:00:00 | 00:00:00 | |
| PETON7-10 | 2026-09-05 23:59:43 | 48.03417 | 16.84107 | 133° | 128km/h | 7782m | 5.7m/s | -22.7°C | 31.3% | 0hPa | 2.7V | 00:00:00 | 00:00:00 | 08:30:00 | |
| PETON7-10 | 2026-09-05 23:59:28 | 48.03752 | 16.83583 | 138° | 128km/h | 7704m | 4.8m/s | -22.1°C | 33.1% | 0hPa | 2.7V | 00:00:00 | 00:00:00 | 00:00:00 | |
| PG1ADW-2 | 2026-09-05 23:59:25 | 48.03823 | 16.83487 | 137° | 126km/h | 7687m | 5.6m/s | -22.0°C | 33.6% | 0hPa | 2.7V | 00:00:00 | 00:43:50 | 08:30:00 | |
| OE3MUC-15 | 2026-09-05 23:59:20 | 48.03938 | 16.83321 | 137° | 128km/h | 7661m | 5.3m/s | -21.8°C | 34.2% | 0hPa | 2.7V | 00:00:00 | 00:00:00 | 00:00:00 | |
| S52SK | 2026-09-05 23:59:19 | 48.03962 | 16.83288 | 137° | 128km/h | 7656m | 5.0m/s | -21.8°C | 32.0% | 0hPa | 2.7V | 00:00:00 | 00:00:00 | 00:00:00 | |
| OE3MUC-15 | 2026-09-05 23:59:16 | 48.04032 | 16.83187 | 137° | 128km/h | 7641m | 5.3m/s | -21.6°C | 34.0% | 0hPa | 2.7V | 00:00:00 | 00:00:00 | 00:00:00 | |
| PETON7-10 | 2026-09-05 23:59:13 | 48.04102 | 16.83087 | 136° | 126km/h | 7625m | 4.2m/s | -21.5°C | 33.8% | 0hPa | 2.7V | 00:00:00 | 00:43:38 | 00:00:00 | |
| OE3MUC-15 | 2026-09-05 23:59:12 | 48.04125 | 16.83054 | 137° | 122km/h | 7620m | 5.3m/s | -21.5°C | 33.7% | 0hPa | 2.7V | 00:00:00 | 00:00:00 | 00:00:00 | |
| OE5DRO-10 | 2026-09-05 23:59:09 | 48.04192 | 16.82958 | 137° | 126km/h | 7605m | 5.6m/s | -21.3°C | 33.5% | 0hPa | 2.7V | 00:00:00 | 00:00:00 | 00:00:00 | |
| OE3MUC-15 | 2026-09-05 23:59:08 | 48.04215 | 16.82926 | 136° | 126km/h | 7600m | 4.5m/s | -21.3°C | 33.5% | 0hPa | 2.7V | 00:00:00 | 00:00:00 | 00:00:00 | |
| PG1ADW-2 | 2026-09-05 23:59:05 | 48.04283 | 16.82825 | 136° | 126km/h | 7584m | 4.6m/s | -21.1°C | 33.1% | 0hPa | 2.7V | 00:00:00 | 00:00:00 | 00:00:00 | |
| OE3MUC-15 | 2026-09-05 23:59:04 | 48.04306 | 16.82790 | 136° | 128km/h | 7579m | 5.4m/s | -21.1°C | 32.9% | 0hPa | 2.7V | 00:00:00 | 00:00:00 | 08:30:00 | |
| OE3MUC-15 | 2026-09-05 23:59:00 | 48.04402 | 16.82662 | 140° | 122km/h | 7557m | 6.1m/s | -20.8°C | 32.4% | 0hPa | 2.7V | 00:00:00 | 00:00:00 | 00:00:00 | |
| PETON7-10 | 2026-09-05 23:58:58 | 48.04448 | 16.82601 | 138° | 126km/h | 7547m | 5.1m/s | -20.8°C | 32.3% | 0hPa | 2.7V | 00:00:00 | 00:00:00 | 00:00:00 | |
| OE3MUC-15 | 2026-09-05 23:58:56 | 48.04493 | 16.82536 | 135° | 128km/h | 7536m | 5.0m/s | -20.6°C | 32.1% | 0hPa | 2.7V | 00:00:00 | 00:00:00 | 00:00:00 | |
| OE3MUC-15 | 2026-09-05 23:58:51 | 48.04609 | 16.82367 | 139° | 126km/h | 7507m | 5.2m/s | -20.4°C | 31.4% | 0hPa | 2.7V | 00:00:00 | 00:00:00 | 00:00:00 | |
| OE5DRO-10 | 2026-09-05 23:58:50 | 48.04633 | 16.82335 | 139° | 126km/h | 7501m | 6.3m/s | -20.3°C | 31.1% | 0hPa | 2.7V | 00:00:00 | 00:00:00 | 00:00:00 | |
| OE3MUC-15 | 2026-09-05 23:58:47 | 48.04705 | 16.82242 | 139° | 126km/h | 7482m | 5.2m/s | -20.1°C | 30.9% | 0hPa | 2.7V | 00:00:00 | 00:00:00 | 00:00:00 | |
| PG1ADW-2 | 2026-09-05 23:58:45 | 48.04753 | 16.82179 | 138° | 126km/h | 7471m | 5.7m/s | -20.0°C | 30.7% | 0hPa | 2.7V | 00:00:00 | 00:00:00 | 00:00:00 | |
| PETON7-10 | 2026-09-05 23:58:43 | 48.04799 | 16.82113 | 137° | 126km/h | 7460m | 4.3m/s | -20.0°C | 30.8% | 0hPa | 2.7V | 00:00:00 | 00:00:00 | 00:00:00 | |
| OE3OSB-13 | 2026-09-05 23:58:41 | 48.04845 | 16.82048 | 135° | 122km/h | 7449m | 5.6m/s | -19.9°C | 28.4% | -1.0hPa | 2.7V | 00:00:00 | 00:00:00 | 00:00:00 | |
| OE3MUC-15 | 2026-09-05 23:58:39 | 48.04889 | 16.81982 | 135° | 128km/h | 7439m | 4.6m/s | -19.7°C | 30.0% | 0hPa | 2.7V | 00:00:00 | 00:00:00 | 00:00:00 | |
| HA6NAB-11 | 2026-09-05 23:58:37 | 48.04935 | 16.81916 | 138° | 130km/h | 7428m | 3.9m/s | -19.7°C | 28.0% | 0hPa | 2.7V | 00:00:00 | 00:00:00 | 00:00:00 | |
| OE3MUC-15 | 2026-09-05 23:58:35 | 48.04984 | 16.81851 | 141° | 126km/h | 7418m | 5.2m/s | -19.5°C | 29.2% | 0hPa | 2.7V | 00:00:00 | 00:00:00 | 00:00:00 | |
| OE3MUC-15 | 2026-09-05 23:58:31 | 48.05079 | 16.81725 | 136° | 124km/h | 7398m | 4.0m/s | -19.4°C | 28.6% | 0hPa | 2.7V | 00:00:00 | 00:00:00 | 00:00:00 | |
| PETON7-10 | 2026-09-05 23:58:28 | 48.05144 | 16.81624 | 134° | 122km/h | 7381m | 6.5m/s | -19.2°C | 28.6% | 0hPa | 2.7V | 00:00:00 | 00:42:53 | 00:00:00 | |
| OE3MUC-15 | 2026-09-05 23:58:27 | 48.05166 | 16.81590 | 135° | 124km/h | 7376m | 4.0m/s | -19.2°C | 28.8% | 0hPa | 2.7V | 00:00:00 | 00:00:00 | 08:30:00 | |
| HA6NAB-11 | 2026-09-05 23:58:26 | 48.05188 | 16.81556 | 137° | 124km/h | 7371m | 6.1m/s | -19.2°C | 26.8% | 0hPa | 2.9V | 00:00:00 | 00:00:00 | 00:00:00 | |
| PG1ADW-2 | 2026-09-05 23:58:25 | 48.05211 | 16.81524 | 137° | 122km/h | 7365m | 5.7m/s | -19.1°C | 28.5% | 0hPa | 2.9V | 00:00:00 | 00:00:00 | 00:00:00 | |
| OE3MUC-15 | 2026-09-05 23:58:23 | 48.05257 | 16.81462 | 139° | 122km/h | 7355m | 4.4m/s | -19.0°C | 28.3% | 0hPa | 2.7V | 00:00:00 | 00:00:00 | 00:00:00 | |
| HA6NAB-11 | 2026-09-05 23:58:20 | 48.05302 | 16.81401 | 138° | 122km/h | 7344m | 5.9m/s | -19.0°C | 26.1% | 0hPa | 2.7V | 00:00:00 | 00:00:00 | 00:00:00 | |
| OE3MUC-15 | 2026-09-05 23:58:19 | 48.05348 | 16.81337 | 138° | 122km/h | 7334m | 4.4m/s | -18.8°C | 27.4% | 0hPa | 2.7V | 00:00:00 | 00:00:00 | 00:00:00 | |
| HA6NAB-11 | 2026-09-05 23:58:15 | 48.05438 | 16.81210 | 136° | 122km/h | 7313m | 5.3m/s | -18.7°C | 24.8% | 0hPa | 2.7V | 00:00:00 | 00:00:00 | 00:00:00 | |
| PETON7-10 | 2026-09-05 23:58:13 | 48.05483 | 16.81145 | 137° | 122km/h | 7303m | 5.2m/s | -18.6°C | 26.3% | 0hPa | 2.7V | 00:00:00 | 00:00:00 | 00:00:00 | |
| OE5DRO-10 | 2026-09-05 23:58:12 | 48.05506 | 16.81113 | 138° | 122km/h | 7298m | 4.5m/s | -18.5°C | 26.4% | 0hPa | 2.9V | 00:00:00 | 00:00:00 | 00:00:00 | |
| OE3MUC-15 | 2026-09-05 23:58:10 | 48.05551 | 16.81049 | 137° | 122km/h | 7289m | 5.2m/s | -18.5°C | 26.1% | 0hPa | 2.9V | 00:00:00 | 00:00:00 | 00:00:00 | |
| HA6NAB-11 | 2026-09-05 23:58:08 | 48.05573 | 16.81017 | 138° | 122km/h | 7284m | 4.6m/s | -18.5°C | 24.6% | 0hPa | 2.9V | 00:00:00 | 00:00:00 | 00:00:00 | |
| OE3MUC-15 | 2026-09-05 23:58:06 | 48.05641 | 16.80922 | 137° | 122km/h | 7269m | 5.2m/s | -18.3°C | 25.6% | 0hPa | 2.9V | 00:00:00 | 00:00:00 | 00:00:00 | |
| PG1ADW-2 | 2026-09-05 23:58:05 | 48.05663 | 16.80891 | 137° | 120km/h | 7263m | 4.8m/s | -18.3°C | 25.5% | 0hPa | 2.9V | 00:00:00 | 00:42:30 | 00:00:00 | |
| OE3MUC-15 | 2026-09-05 23:58:02 | 48.05730 | 16.80793 | 137° | 122km/h | 7248m | 5.2m/s | -18.2°C | 25.4% | 0hPa | 2.9V | 00:00:00 | 00:00:00 | 00:00:00 | |
| OE3MUC-15 | 2026-09-05 23:57:58 | 48.05818 | 16.80663 | 134° | 120km/h | 7228m | 5.1m/s | -18.2°C | 27.1% | 0hPa | 2.9V | 00:00:00 | 00:42:23 | 00:00:00 | |
| OE3MUC-15 | 2026-09-05 23:57:54 | 48.05903 | 16.80531 | 135° | 119km/h | 7208m | 4.6m/s | -18.1°C | 26.7% | 0hPa | 2.9V | 00:00:00 | 00:00:00 | 00:00:00 | |
| OE3JTB-15 | 2026-09-05 23:57:53 | 48.05988 | 16.80404 | 134° | 117km/h | 7187m | 4.0m/s | -18.1°C | 30.6% | 0hPa | 2.9V | 00:00:00 | 00:42:15 | 00:00:00 | |
| OE3MUC-15 | 2026-09-05 23:57:50 | 48.05988 | 16.80404 | 134° | 120km/h | 7187m | 4.0m/s | -18.1°C | 30.6% | 0hPa | 2.9V | 00:00:00 | 00:00:00 | 08:30:00 | |
| OE3MUC-15 | 2026-09-05 23:57:46 | 48.06070 | 16.80269 | 134° | 122km/h | 7167m | 4.5m/s | -18.2°C | 31.3% | 0hPa | 2.9V | 00:00:00 | 00:00:00 | 00:00:00 | |
| PG1ADW-2 | 2026-09-05 23:57:45 | 48.06092 | 16.80235 | 134° | 117km/h | 7163m | 4.6m/s | -18.2°C | 31.3% | 0hPa | 2.9V | 00:00:00 | 00:00:00 | 00:00:00 | |
| PETON7-10 | 2026-09-05 23:57:43 | 48.06134 | 16.80169 | 135° | 117km/h | 7153m | 4.2m/s | -18.2°C | 31.7% | 0hPa | 2.9V | 00:00:00 | 00:42:08 | 00:00:00 | |
| OE3OSB-13 | 2026-09-05 23:57:39 | 48.06242 | 16.80008 | 135° | 117km/h | 7129m | 5.4m/s | -18.2°C | 30.3% | -1.0hPa | 2.9V | 00:00:00 | 00:00:00 | 00:00:00 | |
| OE5DRO-10 | 2026-09-05 23:57:34 | 48.06325 | 16.79882 | 134° | 113km/h | 7108m | 5.6m/s | -18.2°C | 32.3% | 0hPa | 2.9V | 00:00:00 | 00:00:00 | 08:30:00 | |
| PETON7-10 | 2026-09-05 23:57:28 | 48.06442 | 16.79693 | 135° | 111km/h | 7078m | 4.0m/s | -18.1°C | 33.2% | 0hPa | 2.9V | 00:00:00 | 00:00:00 | 08:30:00 | |
| PG1ADW-2 | 2026-09-05 23:57:26 | 48.06500 | 16.79603 | 134° | 111km/h | 7064m | 4.5m/s | -18.0°C | 33.3% | 0hPa | 2.9V | 00:00:00 | 00:00:00 | 00:00:00 | |
| OE3JTB-15 | 2026-09-05 23:57:23 | 48.06578 | 16.79477 | 132° | 111km/h | 7046m | 5.2m/s | -17.9°C | 33.6% | 0hPa | 2.9V | 00:00:00 | 00:00:00 | 08:30:00 | |
| OE3MUC-15 | 2026-09-05 23:57:18 | 48.06633 | 16.79386 | 134° | 113km/h | 7031m | 4.8m/s | -17.8°C | 33.9% | 0hPa | 2.9V | 00:00:00 | 00:00:00 | 00:00:00 | |
| OE5DRO-10 | 2026-09-05 23:57:15 | 48.06692 | 16.79293 | 133° | 111km/h | 7018m | 4.9m/s | -17.7°C | 34.1% | 0hPa | 2.9V | 00:00:00 | 00:00:00 | 00:00:00 | |
| OE3MUC-15 | 2026-09-05 23:57:14 | 48.06711 | 16.79261 | 132° | 113km/h | 7013m | 4.7m/s | -17.7°C | 34.5% | 0hPa | 2.9V | 00:00:00 | 00:00:00 | 08:30:00 | |
| PETON7-10 | 2026-09-05 23:57:13 | 48.06730 | 16.79229 | 132° | 111km/h | 7009m | 3.8m/s | -17.7°C | 34.8% | 0hPa | 2.9V | 00:00:00 | 00:00:00 | 00:00:00 | |
| OE3MUC-15 | 2026-09-05 23:57:09 | 48.06804 | 16.79100 | 129° | 110km/h | 6988m | 5.1m/s | -17.6°C | 35.1% | 0hPa | 2.9V | 00:00:00 | 00:00:00 | 00:00:00 | |
| OE3OSB-13 | 2026-09-05 23:57:08 | 48.06838 | 16.79034 | 127° | 106km/h | 6979m | 4.9m/s | -17.6°C | 33.1% | -1.0hPa | 2.9V | 00:00:00 | 00:00:00 | 00:00:00 | |
| OE3MUC-15 | 2026-09-05 23:57:05 | 48.06872 | 16.78970 | 130° | 111km/h | 6970m | 4.3m/s | -17.5°C | 35.1% | 0hPa | 2.9V | 00:00:00 | 00:00:00 | 00:00:00 | |
| OE3MUC-15 | 2026-09-05 23:57:01 | 48.06942 | 16.78835 | 127° | 115km/h | 6952m | 4.3m/s | -17.3°C | 35.2% | 0hPa | 2.9V | 00:00:00 | 00:00:00 | 00:00:00 | |
| PETON7-10 | 2026-09-05 23:56:58 | 48.06994 | 16.78731 | 129° | 113km/h | 6937m | 3.8m/s | -17.3°C | 35.8% | 0hPa | 2.7V | 00:00:00 | 00:41:23 | 00:00:00 | |
| OE3MUC-15 | 2026-09-05 23:56:57 | 48.07012 | 16.78698 | 130° | 113km/h | 6933m | 3.7m/s | -17.2°C | 35.9% | 0hPa | 2.7V | 00:00:00 | 00:00:00 | 00:00:00 | |
| OE5DRO-10 | 2026-09-05 23:56:56 | 48.07029 | 16.78666 | 130° | 115km/h | 6929m | 4.3m/s | -17.2°C | 36.2% | 0hPa | 2.7V | 00:00:00 | 00:00:00 | 00:00:00 | |
| OE3JTB-15 | 2026-09-05 23:56:54 | 48.07116 | 16.78494 | 126° | 115km/h | 6906m | 3.8m/s | -17.1°C | 37.0% | 0hPa | 2.7V | 00:00:00 | 00:00:00 | 00:00:00 | |
| OE3MUC-15 | 2026-09-05 23:56:51 | 48.07116 | 16.78494 | 126° | 117km/h | 6906m | 3.8m/s | -17.1°C | 37.0% | 0hPa | 2.7V | 00:00:00 | 00:00:00 | 00:00:00 | |
| PG1ADW-2 | 2026-09-05 23:56:45 | 48.07213 | 16.78284 | 124° | 119km/h | 6878m | 5.6m/s | -17.1°C | 37.9% | 0hPa | 2.7V | 00:00:00 | 00:41:10 | 00:00:00 | |
| PETON7-10 | 2026-09-05 23:56:43 | 48.07247 | 16.78210 | 126° | 119km/h | 6868m | 3.4m/s | -17.1°C | 38.4% | 0hPa | 2.7V | 00:00:00 | 00:00:00 | 00:00:00 | |
| OE3MUC-15 | 2026-09-05 23:56:39 | 48.07318 | 16.78068 | 129° | 113km/h | 6850m | 4.9m/s | -17.2°C | 38.5% | 0hPa | 2.9V | 00:00:00 | 00:00:00 | 00:00:00 | |
| OE3OSB-13 | 2026-09-05 23:56:37 | 48.07369 | 16.77966 | 125° | 113km/h | 6836m | 4.2m/s | -17.4°C | 37.1% | -1.0hPa | 2.9V | 00:00:00 | 00:00:00 | 00:00:00 | |
| OE3MUC-15 | 2026-09-05 23:56:35 | 48.07386 | 16.77930 | 126° | 120km/h | 6831m | 4.3m/s | -17.4°C | 39.2% | 0hPa | 2.9V | 00:00:00 | 00:00:00 | 00:00:00 | |
| OE3MUC-15 | 2026-09-05 23:56:31 | 48.07458 | 16.77782 | 127° | 122km/h | 6816m | 4.0m/s | -17.3°C | 39.1% | 0hPa | 2.9V | 00:00:00 | 00:00:00 | 08:30:00 | |
| PETON7-10 | 2026-09-05 23:56:28 | 48.07511 | 16.77669 | 123° | 111km/h | 6803m | 3.8m/s | -17.3°C | 37.9% | 0hPa | 2.9V | 00:00:00 | 00:00:00 | 00:00:00 | |
| OE3MUC-15 | 2026-09-05 23:56:27 | 48.07527 | 16.77631 | 123° | 111km/h | 6799m | 4.5m/s | -17.3°C | 36.7% | 0hPa | 2.9V | 00:00:00 | 00:00:00 | 00:00:00 | |
| PG1ADW-2 | 2026-09-05 23:56:25 | 48.07558 | 16.77560 | 124° | 111km/h | 6788m | 5.1m/s | -17.3°C | 35.2% | 0hPa | 2.9V | 00:00:00 | 00:00:00 | 08:30:00 | |
| OE3MUC-15 | 2026-09-05 23:56:23 | 48.07587 | 16.77491 | 123° | 110km/h | 6778m | 4.8m/s | -17.3°C | 34.2% | 0hPa | 2.9V | 00:00:00 | 00:00:00 | 00:00:00 | |
| OE3MUC-15 | 2026-09-05 23:56:19 | 48.07647 | 16.77350 | 123° | 111km/h | 6760m | 4.4m/s | -17.4°C | 29.2% | 0hPa | 2.9V | 00:00:00 | 00:00:00 | 00:00:00 | |
| OE5DRO-10 | 2026-09-05 23:56:18 | 48.07662 | 16.77315 | 124° | 111km/h | 6755m | 5.0m/s | -17.4°C | 28.0% | 0hPa | 2.9V | 00:00:00 | 00:00:00 | 00:00:00 | |
| OE3MUC-15 | 2026-09-05 23:56:15 | 48.07711 | 16.77210 | 126° | 113km/h | 6742m | 3.7m/s | -17.3°C | 27.0% | 0hPa | 2.9V | 00:00:00 | 00:00:00 | 00:00:00 | |
| PETON7-10 | 2026-09-05 23:56:13 | 48.07745 | 16.77139 | 125° | 110km/h | 6733m | 4.9m/s | -17.3°C | 26.1% | 0hPa | 2.9V | 00:00:00 | 00:40:38 | 00:00:00 | |
| OE3MUC-15 | 2026-09-05 23:56:11 | 48.07777 | 16.77069 | 125° | 110km/h | 6724m | 4.7m/s | -17.2°C | 25.0% | 0hPa | 2.9V | 00:00:00 | 00:00:00 | 00:00:00 | |
| OE3MUC-15 | 2026-09-05 23:56:07 | 48.07839 | 16.76933 | 126° | 110km/h | 6706m | 5.0m/s | -17.1°C | 22.4% | 0hPa | 2.9V | 00:00:00 | 00:00:00 | 00:00:00 | |
| PG1ADW-2 | 2026-09-05 23:56:05 | 48.07871 | 16.76866 | 126° | 106km/h | 6697m | 2.6m/s | -17.1°C | 21.7% | 0hPa | 2.9V | 00:00:00 | 00:00:00 | 00:00:00 | |
| OE3MUC-15 | 2026-09-05 23:56:03 | 48.07903 | 16.76799 | 124° | 110km/h | 6688m | 5.2m/s | -17.0°C | 21.3% | 0hPa | 2.9V | 00:00:00 | 00:00:00 | 00:00:00 | |
| OE3MUC-15 | 2026-09-05 23:55:59 | 48.07963 | 16.76659 | 125° | 106km/h | 6670m | 4.4m/s | -16.9°C | 21.1% | 0hPa | 2.9V | 00:00:00 | 00:00:00 | 00:00:00 | |
| PETON7-10 | 2026-09-05 23:55:58 | 48.07979 | 16.76626 | 125° | 104km/h | 6665m | 4.2m/s | -16.9°C | 21.0% | 0hPa | 2.9V | 00:00:00 | 00:00:00 | 00:00:00 | |
| OE3MUC-15 | 2026-09-05 23:55:55 | 48.08021 | 16.76526 | 122° | 106km/h | 6653m | 3.3m/s | -16.8°C | 20.2% | 0hPa | 2.9V | 00:00:00 | 00:00:00 | 08:30:00 | |
| HA6NAB-11 | 2026-09-05 23:55:51 | 48.08078 | 16.76390 | 124° | 104km/h | 6636m | 3.7m/s | -16.7°C | 18.9% | 0hPa | 2.9V | 00:00:00 | 00:00:00 | 00:00:00 | |
| OE3MUC-15 | 2026-09-05 23:55:47 | 48.08132 | 16.76257 | 121° | 102km/h | 6620m | 4.0m/s | -16.5°C | 18.5% | 0hPa | 2.9V | 00:00:00 | 00:00:00 | 00:00:00 | |
| PG1ADW-2 | 2026-09-05 23:55:45 | 48.08159 | 16.76192 | 122° | 108km/h | 6611m | 4.0m/s | -16.4°C | 17.3% | 0hPa | 2.9V | 00:00:00 | 00:00:00 | 00:00:00 | |
| HA6NAB-11 | 2026-09-05 23:55:44 | 48.08159 | 16.76192 | 123° | 102km/h | 6611m | 4.1m/s | -16.5°C | 16.3% | 0hPa | 2.9V | 00:00:00 | 00:00:00 | 00:00:00 | |
| PETON7-10 | 2026-09-05 23:55:43 | 48.08186 | 16.76125 | 122° | 110km/h | 6603m | 3.4m/s | -16.4°C | 16.8% | 0hPa | 2.9V | 00:00:00 | 00:00:00 | 00:00:00 | |
| OE5DRO-10 | 2026-09-05 23:55:40 | 48.08229 | 16.76021 | 124° | 108km/h | 6591m | 3.2m/s | -16.3°C | 16.0% | 0hPa | 2.9V | 00:00:00 | 00:00:00 | 00:00:00 | |
| HA6NAB-11 | 2026-09-05 23:55:38 | 48.08244 | 16.75987 | 125° | 108km/h | 6586m | 5.3m/s | -16.3°C | 14.7% | 0hPa | 2.9V | 00:00:00 | 00:00:00 | 00:00:00 | |
| OE3OSB-13 | 2026-09-05 23:55:35 | 48.08315 | 16.75806 | 119° | 108km/h | 6564m | 3.4m/s | -16.1°C | 13.2% | -1.0hPa | 2.9V | 00:00:00 | 00:00:00 | 00:00:00 | |
| HA6NAB-11 | 2026-09-05 23:55:32 | 48.08329 | 16.75771 | 122° | 110km/h | 6560m | 5.2m/s | 0°C | 0% | 0hPa | 2.9V | 00:00:00 | 00:00:00 | 00:00:00 | |
| PETON7-10 | 2026-09-05 23:55:28 | 48.08401 | 16.75601 | 123° | 106km/h | 6537m | 3.2m/s | -15.8°C | 13.1% | 0hPa | 2.9V | 00:00:00 | 00:39:53 | 00:00:00 | |
| HA6NAB-11 | 2026-09-05 23:55:27 | 48.08401 | 16.75601 | 123° | 104km/h | 6537m | 3.2m/s | 0°C | 0% | 0hPa | 2.9V | 00:00:00 | 00:00:00 | 00:00:00 | |
| PG1ADW-2 | 2026-09-05 23:55:25 | 48.08442 | 16.75499 | 120° | 104km/h | 6524m | 5.2m/s | -15.7°C | 12.7% | 0hPa | 2.9V | 00:00:00 | 00:39:50 | 00:00:00 | |
| OE3MUC-15 | 2026-09-05 23:55:19 | 48.08526 | 16.75292 | 121° | 106km/h | 6500m | 4.6m/s | -15.5°C | 12.0% | 0hPa | 2.9V | 00:00:00 | 00:00:00 | 08:30:00 | |
| OE3JTB-15 | 2026-09-05 23:55:17 | 48.08577 | 16.75154 | 120° | 104km/h | 6483m | 4.8m/s | -15.3°C | 11.5% | 0hPa | 2.9V | 00:00:00 | 00:00:00 | 00:00:00 | |
| OE3MUC-15 | 2026-09-05 23:55:15 | 48.08577 | 16.75154 | 120° | 102km/h | 6483m | 4.8m/s | -15.3°C | 11.5% | 0hPa | 2.9V | 00:00:00 | 00:00:00 | 00:00:00 | |
| PETON7-10 | 2026-09-05 23:55:13 | 48.08602 | 16.75088 | 121° | 106km/h | 6475m | 3.8m/s | -15.3°C | 11.6% | 0hPa | 2.9V | 00:00:00 | 00:00:00 | 08:30:00 | |
| OE3MUC-15 | 2026-09-05 23:55:06 | 48.08697 | 16.74852 | 121° | 110km/h | 6447m | 4.3m/s | -15.1°C | 12.2% | 0hPa | 2.9V | 00:00:00 | 00:00:00 | 00:00:00 | |
| PG1ADW-2 | 2026-09-05 23:55:05 | 48.08711 | 16.74816 | 120° | 106km/h | 6443m | 3.7m/s | -15.0°C | 12.0% | 0hPa | 2.9V | 00:00:00 | 00:00:00 | 00:00:00 | |
| OE3OSB-13 | 2026-09-05 23:55:04 | 48.08738 | 16.74744 | 120° | 108km/h | 6436m | 3.2m/s | -15.0°C | 11.1% | -1.0hPa | 2.9V | 00:00:00 | 00:00:00 | 00:00:00 | |
| OE3MUC-15 | 2026-09-05 23:55:02 | 48.08751 | 16.74710 | 122° | 104km/h | 6432m | 4.3m/s | -14.9°C | 11.9% | 0hPa | 2.9V | 00:00:00 | 00:00:00 | 00:00:00 | |
| S52SK | 2026-09-05 23:55:01 | 48.08752 | 16.74710 | 122° | 106km/h | 6432m | 4.4m/s | -15.0°C | 11.1% | 0hPa | 2.9V | 00:00:00 | 00:00:00 | 00:00:00 | |
| OE3MUC-15 | 2026-09-05 23:54:58 | 48.08804 | 16.74573 | 120° | 106km/h | 6416m | 3.0m/s | -14.8°C | 11.7% | 0hPa | 2.9V | 00:00:00 | 00:00:00 | 00:00:00 | |
| S52SK | 2026-09-05 23:54:55 | 48.08829 | 16.74503 | 118° | 106km/h | 6407m | 3.6m/s | -14.8°C | 0% | 0hPa | 2.9V | 00:00:00 | 00:00:00 | 00:00:00 | |
| OE3MUC-15 | 2026-09-05 23:54:54 | 48.08853 | 16.74432 | 116° | 104km/h | 6399m | 3.9m/s | -14.7°C | 11.6% | 0hPa | 2.9V | 00:00:00 | 00:39:19 | 00:00:00 | |
| OE3MUC-15 | 2026-09-05 23:54:50 | 48.08900 | 16.74292 | 118° | 106km/h | 6384m | 4.2m/s | -14.5°C | 11.4% | 0hPa | 2.9V | 00:00:00 | 00:00:00 | 00:00:00 | |
| OE3JTB-15 | 2026-09-05 23:54:48 | 48.08938 | 16.74184 | 117° | 106km/h | 6371m | 4.9m/s | -14.4°C | 11.4% | 0hPa | 2.9V | 00:00:00 | 00:39:12 | 00:00:00 | |
| OE3MUC-15 | 2026-09-05 23:54:46 | 48.08950 | 16.74149 | 118° | 106km/h | 6366m | 3.6m/s | -14.4°C | 11.3% | 0hPa | 2.9V | 00:00:00 | 00:00:00 | 00:00:00 | |
| PG1ADW-2 | 2026-09-05 23:54:45 | 48.08962 | 16.74113 | 118° | 106km/h | 6362m | 4.5m/s | -14.3°C | 11.3% | 0hPa | 2.9V | 00:00:00 | 00:00:00 | 00:00:00 | |
| PETON7-10 | 2026-09-05 23:54:43 | 48.08988 | 16.74043 | 119° | 106km/h | 6354m | 4.3m/s | -14.3°C | 11.3% | 0hPa | 2.9V | 00:00:00 | 00:39:08 | 00:00:00 | |
| OE3MUC-15 | 2026-09-05 23:54:42 | 48.09000 | 16.74008 | 119° | 106km/h | 6350m | 2.8m/s | -14.2°C | 11.3% | 0hPa | 2.9V | 00:00:00 | 00:00:00 | 08:30:00 | |
| OE3MUC-15 | 2026-09-05 23:54:38 | 48.09054 | 16.73868 | 122° | 106km/h | 6335m | 3.6m/s | -14.1°C | 11.1% | 0hPa | 2.9V | 00:00:00 | 00:00:00 | 00:00:00 | |
| OE3MUC-15 | 2026-09-05 23:54:34 | 48.09107 | 16.73730 | 117° | 108km/h | 6319m | 4.1m/s | -13.9°C | 10.9% | 0hPa | 2.9V | 00:00:00 | 00:00:00 | 00:00:00 | |
| OE3OSB-13 | 2026-09-05 23:54:33 | 48.09132 | 16.73658 | 117° | 108km/h | 6311m | 3.9m/s | -13.9°C | 10.2% | -1.0hPa | 2.9V | 00:00:00 | 00:00:00 | 00:00:00 | |
| HA6NAB-11 | 2026-09-05 23:54:31 | 48.09132 | 16.73658 | 119° | 108km/h | 6311m | 3.9m/s | 0°C | 0% | 0hPa | 2.9V | 00:00:00 | 00:00:00 | 00:00:00 | |
| OE3MUC-15 | 2026-09-05 23:54:30 | 48.09157 | 16.73587 | 120° | 102km/h | 6304m | 5.3m/s | -13.8°C | 10.8% | 0hPa | 2.9V | 00:00:00 | 00:00:00 | 00:00:00 | |
| PETON7-10 | 2026-09-05 23:54:28 | 48.09183 | 16.73520 | 119° | 108km/h | 6295m | 3.5m/s | -13.7°C | 10.8% | 0hPa | 2.9V | 00:00:00 | 00:00:00 | 00:00:00 | |
| OE3MUC-15 | 2026-09-05 23:54:26 | 48.09207 | 16.73452 | 119° | 108km/h | 6287m | 3.5m/s | -13.6°C | 10.7% | 0hPa | 2.9V | 00:00:00 | 00:00:00 | 00:00:00 | |
| PG1ADW-2 | 2026-09-05 23:54:25 | 48.09220 | 16.73416 | 119° | 110km/h | 6283m | 4.4m/s | -13.6°C | 10.7% | 0hPa | 2.9V | 00:00:00 | 00:00:00 | 00:00:00 | |
| OE5DRO-10 | 2026-09-05 23:54:24 | 48.09234 | 16.73381 | 120° | 110km/h | 6279m | 3.6m/s | -13.6°C | 10.6% | 0hPa | 2.9V | 00:00:00 | 00:00:00 | 00:00:00 | |
| OE3MUC-15 | 2026-09-05 23:54:22 | 48.09262 | 16.73310 | 122° | 110km/h | 6271m | 4.3m/s | -13.5°C | 10.5% | 0hPa | 2.9V | 00:00:00 | 00:00:00 | 00:00:00 | |
| HA6NAB-11 | 2026-09-05 23:54:19 | 48.09290 | 16.73237 | 119° | 110km/h | 6264m | 4.8m/s | 0°C | 0% | 0hPa | 2.9V | 00:00:00 | 00:00:00 | 00:00:00 | |
| OE3MUC-15 | 2026-09-05 23:54:18 | 48.09315 | 16.73163 | 116° | 110km/h | 6255m | 3.5m/s | -13.4°C | 10.4% | 0hPa | 2.9V | 00:00:00 | 00:00:00 | 00:00:00 | |
| OE3MUC-15 | 2026-09-05 23:54:14 | 48.09361 | 16.73013 | 116° | 108km/h | 6240m | 3.0m/s | -13.2°C | 10.3% | 0hPa | 2.9V | 00:00:00 | 00:00:00 | 00:00:00 | |
| PETON7-10 | 2026-09-05 23:54:13 | 48.09373 | 16.72977 | 118° | 108km/h | 6237m | 4.3m/s | -13.2°C | 10.3% | 0hPa | 2.9V | 00:00:00 | 00:00:00 | 00:00:00 | |
| OE3MUC-15 | 2026-09-05 23:54:10 | 48.09413 | 16.72869 | 121° | 111km/h | 6225m | 2.6m/s | -13.1°C | 10.2% | 0hPa | 2.9V | 00:00:00 | 00:00:00 | 00:00:00 | |
| HA6NAB-11 | 2026-09-05 23:54:08 | 48.09440 | 16.72796 | 119° | 111km/h | 6218m | 4.0m/s | 0°C | 0% | 0hPa | 2.9V | 00:00:00 | 00:00:00 | 00:00:00 | |
| OE3MUC-15 | 2026-09-05 23:54:06 | 48.09466 | 16.72721 | 118° | 108km/h | 6210m | 3.2m/s | -13.0°C | 10.1% | 0hPa | 2.9V | 00:00:00 | 00:00:00 | 08:30:00 | |
| PG1ADW-2 | 2026-09-05 23:54:05 | 48.09479 | 16.72685 | 119° | 108km/h | 6206m | 4.0m/s | -12.9°C | 10.1% | 0hPa | 2.9V | 00:00:00 | 00:38:30 | 00:00:00 | |
| HA6NAB-11 | 2026-09-05 23:54:02 | 48.09519 | 16.72580 | 121° | 108km/h | 6195m | 4.4m/s | 0°C | 0% | 0hPa | 2.9V | 00:00:00 | 00:00:00 | 00:00:00 | |
| OE3OSB-13 | 2026-09-05 23:54:01 | 48.09533 | 16.72544 | 119° | 106km/h | 6191m | 3.2m/s | -12.8°C | 9.4% | -1.0hPa | 2.9V | 00:00:00 | 00:00:00 | 00:00:00 | |
| OE3MUC-15 | 2026-09-05 23:53:54 | 48.09623 | 16.72296 | 120° | 111km/h | 6163m | 3.9m/s | -12.5°C | 9.7% | 0hPa | 2.9V | 00:00:00 | 00:00:00 | 00:00:00 | |
| OE3MUC-15 | 2026-09-05 23:53:50 | 48.09675 | 16.72148 | 117° | 108km/h | 6147m | 5.1m/s | -12.4°C | 9.7% | 0hPa | 2.9V | 00:00:00 | 00:00:00 | 00:00:00 | |
| OE3JTB-15 | 2026-09-05 23:53:49 | 48.09688 | 16.72112 | 119° | 110km/h | 6143m | 4.3m/s | -12.3°C | 9.6% | 0hPa | 2.9V | 00:00:00 | 00:00:00 | 00:00:00 | |
| OE3MUC-15 | 2026-09-05 23:53:46 | 48.09730 | 16.72006 | 122° | 110km/h | 6130m | 3.8m/s | -12.2°C | 9.6% | 0hPa | 2.9V | 00:00:00 | 00:00:00 | 00:00:00 | |
| PG1ADW-2 | 2026-09-05 23:53:45 | 48.09745 | 16.71971 | 122° | 110km/h | 6126m | 4.6m/s | -12.2°C | 9.5% | 0hPa | 2.9V | 00:00:00 | 00:00:00 | 00:00:00 | |
| PETON7-10 | 2026-09-05 23:53:43 | 48.09773 | 16.71899 | 120° | 110km/h | 6117m | 3.7m/s | -12.1°C | 9.5% | 0hPa | 2.9V | 00:00:00 | 00:00:00 | 00:00:00 | |
| S52SK | 2026-09-05 23:53:36 | 48.09853 | 16.71675 | 117° | 113km/h | 6092m | 4.2m/s | -11.9°C | 0% | 0hPa | 2.9V | 00:00:00 | 00:00:00 | 00:00:00 | |
| S52SK | 2026-09-05 23:53:31 | 48.09933 | 16.71457 | 121° | 108km/h | 6068m | 3.5m/s | -11.7°C | 0% | 0hPa | 2.9V | 00:00:00 | 00:00:00 | 00:00:00 | |
| OE3OSB-13 | 2026-09-05 23:53:30 | 48.09946 | 16.71422 | 118° | 106km/h | 6064m | 5.2m/s | -11.7°C | 8.5% | -1.0hPa | 2.9V | 00:00:00 | 00:00:00 | 00:00:00 | |
| PETON7-10 | 2026-09-05 23:53:28 | 48.09972 | 16.71350 | 119° | 111km/h | 6055m | 4.2m/s | -11.5°C | 9.0% | 0hPa | 2.9V | 00:00:00 | 00:00:00 | 00:00:00 | |
| OE5DRO-10 | 2026-09-05 23:53:27 | 48.09985 | 16.71314 | 120° | 111km/h | 6050m | 4.6m/s | -11.5°C | 9.0% | 0hPa | 2.9V | 00:00:00 | 00:00:00 | 00:00:00 | |
| PG1ADW-2 | 2026-09-05 23:53:25 | 48.10013 | 16.71241 | 120° | 111km/h | 6041m | 4.5m/s | -11.4°C | 8.9% | 0hPa | 2.9V | 00:00:00 | 00:00:00 | 08:30:00 | |
| OE3MUC-15 | 2026-09-05 23:53:18 | 48.10111 | 16.70992 | 122° | 113km/h | 6010m | 4.8m/s | -11.1°C | 8.5% | 0hPa | 2.9V | 00:00:00 | 00:00:00 | 00:00:00 | |
| PETON7-10 | 2026-09-05 23:53:14 | 48.10182 | 16.70806 | 120° | 111km/h | 5988m | 4.1m/s | -10.9°C | 8.4% | 0hPa | 2.9V | 00:00:00 | 00:37:38 | 00:00:00 | |
| OE3MUC-15 | 2026-09-05 23:53:10 | 48.10225 | 16.70696 | 120° | 111km/h | 5975m | 3.8m/s | -10.8°C | 8.4% | 0hPa | 2.9V | 00:00:00 | 00:00:00 | 00:00:00 | |
| OE5DRO-10 | 2026-09-05 23:53:08 | 48.10251 | 16.70623 | 118° | 111km/h | 5966m | 3.2m/s | -10.8°C | 8.5% | 0hPa | 2.9V | 00:00:00 | 00:00:00 | 00:00:00 | |
| OE3MUC-15 | 2026-09-05 23:53:06 | 48.10277 | 16.70547 | 117° | 115km/h | 5958m | 4.3m/s | -10.7°C | 8.4% | 0hPa | 2.9V | 00:00:00 | 00:00:00 | 00:00:00 | |
| PG1ADW-2 | 2026-09-05 23:53:05 | 48.10290 | 16.70508 | 118° | 111km/h | 5954m | 3.7m/s | -10.7°C | 8.3% | 0hPa | 2.9V | 00:00:00 | 00:00:00 | 00:00:00 | |
| OE3MUC-15 | 2026-09-05 23:53:02 | 48.10331 | 16.70394 | 120° | 108km/h | 5943m | 4.3m/s | -10.6°C | 8.3% | 0hPa | 2.9V | 00:00:00 | 00:00:00 | 00:00:00 | |
| OE3OSB-13 | 2026-09-05 23:52:59 | 48.10372 | 16.70290 | 122° | 108km/h | 5930m | 4.0m/s | -10.5°C | 7.8% | -1.0hPa | 2.9V | 00:00:00 | 00:00:00 | 00:00:00 | |
| OE3MUC-15 | 2026-09-05 23:52:54 | 48.10445 | 16.70108 | 119° | 110km/h | 5910m | 3.6m/s | -10.3°C | 7.5% | 0hPa | 2.9V | 00:00:00 | 00:00:00 | 08:30:00 | |
| OE3MUC-15 | 2026-09-05 23:52:50 | 48.10499 | 16.69962 | 121° | 111km/h | 5895m | 3.5m/s | -10.2°C | 7.9% | 0hPa | 2.9V | 00:00:00 | 00:00:00 | 00:00:00 | |
| OE3JTB-15 | 2026-09-05 23:52:49 | 48.10513 | 16.69926 | 120° | 113km/h | 5891m | 4.8m/s | -10.2°C | 7.7% | 0hPa | 2.9V | 00:00:00 | 00:00:00 | 08:30:00 | |
| PG1ADW-2 | 2026-09-05 23:52:46 | 48.10569 | 16.69777 | 118° | 113km/h | 5873m | 4.7m/s | -10.0°C | 8.1% | 0hPa | 2.9V | 00:00:00 | 00:37:10 | 00:00:00 | |
| PETON7-10 | 2026-09-05 23:52:43 | 48.10595 | 16.69701 | 118° | 113km/h | 5865m | 4.4m/s | -10.0°C | 8.5% | 0hPa | 2.9V | 00:00:00 | 00:00:00 | 00:00:00 | |
| OE3MUC-15 | 2026-09-05 23:52:42 | 48.10608 | 16.69664 | 119° | 115km/h | 5860m | 3.7m/s | -10.0°C | 8.5% | 0hPa | 2.9V | 00:00:00 | 00:00:00 | 00:00:00 | |
| OE3MUC-15 | 2026-09-05 23:52:38 | 48.10666 | 16.69511 | 119° | 113km/h | 5844m | 5.1m/s | -9.9°C | 8.3% | 0hPa | 2.9V | 00:00:00 | 00:00:00 | 00:00:00 | |
| OE3MUC-15 | 2026-09-05 23:52:34 | 48.10722 | 16.69362 | 121° | 115km/h | 5825m | 4.5m/s | -9.7°C | 7.6% | 0hPa | 2.9V | 00:00:00 | 00:00:00 | 00:00:00 | |
| OE3MUC-15 | 2026-09-05 23:52:30 | 48.10778 | 16.69210 | 118° | 111km/h | 5808m | 3.5m/s | -9.6°C | 6.9% | 0hPa | 2.9V | 00:00:00 | 00:00:00 | 00:00:00 | |
| OE3OSB-13 | 2026-09-05 23:52:29 | 48.10805 | 16.69135 | 118° | 110km/h | 5799m | 3.6m/s | -9.6°C | 6.0% | -1.0hPa | 2.7V | 00:00:00 | 00:00:00 | 00:00:00 | |
| PETON7-10 | 2026-09-05 23:52:28 | 48.10805 | 16.69135 | 119° | 111km/h | 5799m | 3.6m/s | -9.5°C | 6.4% | 0hPa | 2.7V | 00:00:00 | 00:36:53 | 00:00:00 | |
| OE3MUC-15 | 2026-09-05 23:52:26 | 48.10832 | 16.69061 | 120° | 110km/h | 5791m | 4.3m/s | -9.4°C | 5.7% | 0hPa | 2.7V | 00:00:00 | 00:00:00 | 00:00:00 | |
| PG1ADW-2 | 2026-09-05 23:52:25 | 48.10846 | 16.69025 | 122° | 111km/h | 5787m | 3.7m/s | -9.4°C | 5.5% | 0hPa | 2.7V | 00:00:00 | 00:00:00 | 00:00:00 | |
| OE3JTB-15 | 2026-09-05 23:52:20 | 48.10923 | 16.68850 | 124° | 113km/h | 5765m | 3.3m/s | -9.3°C | 5.1% | 0hPa | 2.9V | 00:00:00 | 00:00:00 | 00:00:00 | |
| OE3MUC-15 | 2026-09-05 23:52:18 | 48.10954 | 16.68775 | 121° | 113km/h | 5756m | 5.1m/s | -9.2°C | 5.1% | 0hPa | 2.9V | 00:00:00 | 00:00:00 | 08:30:00 | |
| OE3MUC-15 | 2026-09-05 23:52:14 | 48.11014 | 16.68632 | 124° | 111km/h | 5736m | 3.7m/s | -9.1°C | 5.2% | 0hPa | 2.9V | 00:00:00 | 00:00:00 | 00:00:00 | |
| PETON7-10 | 2026-09-05 23:52:13 | 48.11029 | 16.68597 | 123° | 113km/h | 5732m | 3.3m/s | -9.0°C | 5.2% | 0hPa | 2.9V | 00:00:00 | 00:00:00 | 00:00:00 | |
| OE5DRO-10 | 2026-09-05 23:52:11 | 48.11058 | 16.68525 | 121° | 113km/h | 5723m | 4.5m/s | -8.9°C | 5.2% | 0hPa | 2.9V | 00:00:00 | 00:00:00 | 00:00:00 | |
| HA6NAB-11 | 2026-09-05 23:52:10 | 48.11073 | 16.68488 | 121° | 115km/h | 5719m | 3.0m/s | 0°C | 0% | 0hPa | 2.9V | 00:00:00 | 00:00:00 | 00:00:00 | |
| OE3MUC-15 | 2026-09-05 23:52:06 | 48.11131 | 16.68342 | 122° | 111km/h | 5701m | 3.9m/s | -8.8°C | 5.2% | 0hPa | 2.9V | 00:00:00 | 00:00:00 | 00:00:00 | |
| PG1ADW-2 | 2026-09-05 23:52:05 | 48.11146 | 16.68307 | 122° | 111km/h | 5696m | 5.0m/s | -8.7°C | 5.3% | 0hPa | 2.9V | 00:00:00 | 00:00:00 | 00:00:00 | |
| HA6NAB-11 | 2026-09-05 23:52:04 | 48.11146 | 16.68307 | 123° | 110km/h | 5696m | 5.1m/s | 0°C | 0% | 0hPa | 2.9V | 00:00:00 | 00:00:00 | 00:00:00 | |
| OE3MUC-15 | 2026-09-05 23:52:02 | 48.11188 | 16.68197 | 119° | 117km/h | 5684m | 4.6m/s | -8.6°C | 5.2% | 0hPa | 2.9V | 00:00:00 | 00:00:00 | 00:00:00 | |
| OE3MUC-15 | 2026-09-05 23:51:58 | 48.11248 | 16.68045 | 123° | 110km/h | 5667m | 4.3m/s | -8.5°C | 5.1% | 0hPa | 2.9V | 00:00:00 | 00:36:23 | 00:00:00 | |
| PETON7-10 | 2026-09-05 23:51:57 | 48.11263 | 16.68010 | 123° | 111km/h | 5662m | 4.2m/s | -8.4°C | 5.1% | 0hPa | 2.9V | 00:00:00 | 00:00:00 | 00:00:00 | |
| HA6NAB-11 | 2026-09-05 23:51:54 | 48.11308 | 16.67908 | 124° | 110km/h | 5650m | 4.4m/s | 0°C | 0% | 0hPa | 2.9V | 00:00:00 | 00:00:00 | 00:00:00 | |
| OE5DRO-10 | 2026-09-05 23:51:52 | 48.11339 | 16.67836 | 123° | 111km/h | 5640m | 4.1m/s | -8.2°C | 5.0% | 0hPa | 2.9V | 00:00:00 | 00:00:00 | 08:30:00 | |
| OE3JTB-15 | 2026-09-05 23:51:51 | 48.11355 | 16.67799 | 122° | 110km/h | 5636m | 3.0m/s | -8.2°C | 4.9% | 0hPa | 2.9V | 00:00:00 | 00:36:16 | 00:00:00 | |
| OE3MUC-15 | 2026-09-05 23:51:50 | 48.11370 | 16.67763 | 122° | 110km/h | 5632m | 4.6m/s | -8.2°C | 4.8% | 0hPa | 2.9V | 00:00:00 | 00:00:00 | 00:00:00 | |
| HA6NAB-11 | 2026-09-05 23:51:47 | 48.11399 | 16.67692 | 124° | 108km/h | 5624m | 3.4m/s | 0°C | 0% | 0hPa | 2.9V | 00:00:00 | 00:00:00 | 00:00:00 | |
| OE3MUC-15 | 2026-09-05 23:51:46 | 48.11430 | 16.67623 | 123° | 110km/h | 5616m | 3.6m/s | -8.1°C | 4.6% | 0hPa | 2.9V | 00:00:00 | 00:00:00 | 00:00:00 | |
| PG1ADW-2 | 2026-09-05 23:51:45 | 48.11444 | 16.67588 | 122° | 111km/h | 5612m | 4.8m/s | -8.0°C | 4.5% | 0hPa | 2.9V | 00:00:00 | 00:00:00 | 00:00:00 | |
| OE3MUC-15 | 2026-09-05 23:51:42 | 48.11487 | 16.67480 | 121° | 113km/h | 5599m | 4.4m/s | -7.9°C | 4.5% | 0hPa | 2.9V | 00:00:00 | 00:00:00 | 08:30:00 | |
| PETON7-10 | 2026-09-05 23:51:41 | 48.11501 | 16.67444 | 121° | 111km/h | 5595m | 4.1m/s | -7.9°C | 4.4% | 0hPa | 2.9V | 00:00:00 | 00:36:06 | 00:00:00 | |
| HA6NAB-11 | 2026-09-05 23:51:40 | 48.11501 | 16.67444 | 121° | 111km/h | 5595m | 4.2m/s | 0°C | 0% | 0hPa | 2.9V | 00:00:00 | 00:00:00 | 00:00:00 | |
| HA6NAB-11 | 2026-09-05 23:51:35 | 48.11590 | 16.67225 | 125° | 110km/h | 5569m | 4.2m/s | 0°C | 0% | 0hPa | 2.9V | 00:00:00 | 00:00:00 | 00:00:00 | |
| OE5DRO-10 | 2026-09-05 23:51:33 | 48.11621 | 16.67157 | 124° | 108km/h | 5561m | 4.0m/s | -7.6°C | 4.1% | 0hPa | 2.9V | 00:00:00 | 00:00:00 | 00:00:00 | |
| HA6NAB-11 | 2026-09-05 23:51:29 | 48.11665 | 16.67053 | 123° | 110km/h | 5549m | 5.0m/s | 0°C | 0% | 0hPa | 2.9V | 00:00:00 | 00:00:00 | 00:00:00 | |
| PETON7-10 | 2026-09-05 23:51:26 | 48.11723 | 16.66910 | 121° | 106km/h | 5531m | 4.7m/s | -7.4°C | 3.9% | 0hPa | 2.9V | 00:00:00 | 00:00:00 | 00:00:00 | |
| PG1ADW-2 | 2026-09-05 23:51:25 | 48.11737 | 16.66876 | 122° | 102km/h | 5526m | 3.8m/s | -7.4°C | 4.0% | 0hPa | 2.9V | 00:00:00 | 00:35:50 | 00:00:00 | |
| HA6NAB-11 | 2026-09-05 23:51:23 | 48.11751 | 16.66842 | 124° | 104km/h | 5522m | 4.6m/s | 0°C | 0% | 0hPa | 2.9V | 00:00:00 | 00:00:00 | 00:00:00 | |
| OE3JTB-15 | 2026-09-05 23:51:22 | 48.11780 | 16.66775 | 124° | 104km/h | 5513m | 4.7m/s | -7.3°C | 4.3% | 0hPa | 2.9V | 00:00:00 | 00:00:00 | 00:00:00 | |
| OE3MUC-15 | 2026-09-05 23:51:18 | 48.11838 | 16.66638 | 123° | 106km/h | 5494m | 4.2m/s | -7.3°C | 5.2% | 0hPa | 2.9V | 00:00:00 | 00:00:00 | 00:00:00 | |
| OE3MUC-15 | 2026-09-05 23:51:14 | 48.11897 | 16.66505 | 123° | 100km/h | 5477m | 3.8m/s | -7.3°C | 5.7% | 0hPa | 2.9V | 00:00:00 | 00:00:00 | 00:00:00 | |
| PETON7-10 | 2026-09-05 23:51:11 | 48.11938 | 16.66407 | 123° | 104km/h | 5464m | 5.3m/s | -7.2°C | 5.5% | 0hPa | 2.9V | 00:00:00 | 00:00:00 | 00:00:00 | |
| OE3MUC-15 | 2026-09-05 23:51:10 | 48.11951 | 16.66376 | 123° | 97km/h | 5460m | 3.8m/s | -7.2°C | 5.5% | 0hPa | 2.9V | 00:00:00 | 00:00:00 | 00:00:00 | |
| OE3MUC-15 | 2026-09-05 23:51:06 | 48.12005 | 16.66253 | 124° | 104km/h | 5441m | 4.4m/s | -7.0°C | 5.5% | 0hPa | 2.9V | 00:00:00 | 00:00:00 | 08:30:00 | |
| PG1ADW-2 | 2026-09-05 23:51:05 | 48.12019 | 16.66221 | 124° | 104km/h | 5436m | 4.9m/s | -7.0°C | 5.5% | 0hPa | 2.9V | 00:00:00 | 00:00:00 | 00:00:00 | |
| OE3MUC-15 | 2026-09-05 23:51:02 | 48.12064 | 16.66120 | 123° | 111km/h | 5421m | 4.5m/s | -6.9°C | 5.6% | 0hPa | 2.9V | 00:00:00 | 00:00:00 | 00:00:00 | |
| OE3MUC-15 | 2026-09-05 23:50:58 | 48.12121 | 16.65976 | 121° | 106km/h | 5403m | 4.4m/s | -6.7°C | 5.8% | 0hPa | 2.9V | 00:00:00 | 00:00:00 | 00:00:00 | |
| PETON7-10 | 2026-09-05 23:50:56 | 48.12148 | 16.65906 | 121° | 102km/h | 5394m | 5.0m/s | -6.7°C | 5.9% | 0hPa | 2.9V | 00:00:00 | 00:35:21 | 00:00:00 | |
| OE5DRO-10 | 2026-09-05 23:50:55 | 48.12162 | 16.65873 | 122° | 104km/h | 5389m | 4.6m/s | -6.7°C | 6.0% | 0hPa | 2.9V | 00:00:00 | 00:00:00 | 00:00:00 | |
| OE3MUC-15 | 2026-09-05 23:50:54 | 48.12175 | 16.65840 | 122° | 100km/h | 5384m | 3.9m/s | -6.6°C | 6.0% | 0hPa | 2.9V | 00:00:00 | 00:00:00 | 00:00:00 | |
| OE3JTB-15 | 2026-09-05 23:50:53 | 48.12188 | 16.65808 | 123° | 106km/h | 5380m | 4.0m/s | -6.6°C | 6.0% | 0hPa | 2.9V | 00:00:00 | 00:00:00 | 00:00:00 | |
| OE3MUC-15 | 2026-09-05 23:50:50 | 48.12227 | 16.65709 | 119° | 100km/h | 5365m | 4.7m/s | -6.5°C | 6.1% | 0hPa | 2.9V | 00:00:00 | 00:00:00 | 00:00:00 | |
| OE3MUC-15 | 2026-09-05 23:50:46 | 48.12275 | 16.65575 | 120° | 102km/h | 5348m | 4.5m/s | -6.4°C | 6.1% | 0hPa | 2.9V | 00:00:00 | 00:00:00 | 00:00:00 | |
| PG1ADW-2 | 2026-09-05 23:50:45 | 48.12288 | 16.65543 | 120° | 108km/h | 5343m | 4.1m/s | -6.4°C | 6.2% | 0hPa | 2.9V | 00:00:00 | 00:00:00 | 00:00:00 | |
| OE3MUC-15 | 2026-09-05 23:50:42 | 48.12327 | 16.65441 | 120° | 110km/h | 5330m | 4.9m/s | -6.3°C | 6.3% | 0hPa | 2.9V | 00:00:00 | 00:00:00 | 00:00:00 | |
| PETON7-10 | 2026-09-05 23:50:41 | 48.12340 | 16.65406 | 118° | 110km/h | 5324m | 5.4m/s | -6.4°C | 6.6% | 0hPa | 2.9V | 00:00:00 | 00:00:00 | 08:30:00 | |
| OE3MUC-15 | 2026-09-05 23:50:38 | 48.12378 | 16.65293 | 117° | 110km/h | 5310m | 4.5m/s | -6.4°C | 7.1% | 0hPa | 2.9V | 00:00:00 | 00:00:00 | 00:00:00 | |
| OE5DRO-10 | 2026-09-05 23:50:36 | 48.12403 | 16.65218 | 116° | 110km/h | 5299m | 5.2m/s | -6.4°C | 7.4% | 0hPa | 2.9V | 00:00:00 | 00:00:00 | 00:00:00 | |
| OE3MUC-15 | 2026-09-05 23:50:34 | 48.12426 | 16.65145 | 118° | 106km/h | 5290m | 3.7m/s | -6.3°C | 7.5% | 0hPa | 2.9V | 00:00:00 | 00:00:00 | 00:00:00 | |
| OE3MUC-15 | 2026-09-05 23:50:26 | 48.12535 | 16.64856 | 120° | 113km/h | 5257m | 5.0m/s | -6.1°C | 7.1% | 0hPa | 2.9V | 00:00:00 | 00:00:00 | 00:00:00 | |
| PG1ADW-2 | 2026-09-05 23:50:25 | 48.12549 | 16.64820 | 121° | 110km/h | 5253m | 3.7m/s | -6.0°C | 7.2% | 0hPa | 2.9V | 00:00:00 | 00:00:00 | 08:30:00 | |
| OE3JTB-15 | 2026-09-05 23:50:24 | 48.12564 | 16.64783 | 121° | 110km/h | 5249m | 4.0m/s | -6.0°C | 7.2% | 0hPa | 2.9V | 00:00:00 | 00:34:49 | 00:00:00 | |
| OE3MUC-15 | 2026-09-05 23:50:22 | 48.12592 | 16.64709 | 120° | 110km/h | 5241m | 4.1m/s | -5.9°C | 7.0% | 0hPa | 2.9V | 00:00:00 | 00:00:00 | 00:00:00 | |
| OE3MUC-15 | 2026-09-05 23:50:18 | 48.12646 | 16.64567 | 121° | 108km/h | 5226m | 4.3m/s | -5.8°C | 6.8% | 0hPa | 2.9V | 00:00:00 | 00:00:00 | 00:00:00 | |
| OE5DRO-10 | 2026-09-05 23:50:17 | 48.12660 | 16.64532 | 121° | 110km/h | 5222m | 2.4m/s | -5.8°C | 6.9% | 0hPa | 2.9V | 00:00:00 | 00:00:00 | 00:00:00 | |
| OE3MUC-15 | 2026-09-05 23:50:14 | 48.12701 | 16.64425 | 119° | 110km/h | 5211m | 3.1m/s | -5.7°C | 6.6% | 0hPa | 2.9V | 00:00:00 | 00:00:00 | 00:00:00 | |
| PETON7-10 | 2026-09-05 23:50:11 | 48.12742 | 16.64317 | 121° | 110km/h | 5200m | 3.3m/s | -5.7°C | 6.7% | 0hPa | 2.9V | 00:00:00 | 00:34:36 | 00:00:00 | |
| OE3MUC-15 | 2026-09-05 23:50:10 | 48.12757 | 16.64281 | 122° | 113km/h | 5196m | 3.9m/s | -5.6°C | 6.6% | 0hPa | 2.9V | 00:00:00 | 00:00:00 | 00:00:00 | |
| OE3MUC-15 | 2026-09-05 23:50:07 | 48.12818 | 16.64138 | 124° | 108km/h | 5180m | 3.8m/s | -5.5°C | 6.7% | 0hPa | 2.9V | 00:00:00 | 00:00:00 | 00:00:00 | |
| PG1ADW-2 | 2026-09-05 23:50:05 | 48.12833 | 16.64103 | 126° | 110km/h | 5176m | 4.5m/s | -5.5°C | 6.6% | 0hPa | 2.9V | 00:00:00 | 00:34:30 | 00:00:00 | |
| OE3MUC-15 | 2026-09-05 23:50:02 | 48.12877 | 16.64003 | 122° | 106km/h | 5165m | 3.6m/s | -5.4°C | 6.9% | 0hPa | 2.9V | 00:00:00 | 00:00:00 | 00:00:00 | |
| OE3OSB-13 | 2026-09-05 23:49:53 | 48.13017 | 16.63643 | 123° | 113km/h | 5124m | 5.0m/s | -5.2°C | 5.4% | -1.0hPa | 2.9V | 00:00:00 | 00:00:00 | 00:00:00 | |
| OE3MUC-15 | 2026-09-05 23:49:50 | 48.13048 | 16.63572 | 123° | 111km/h | 5114m | 4.2m/s | -5.1°C | 5.6% | 0hPa | 2.9V | 00:00:00 | 00:00:00 | 00:00:00 | |
| S52SK | 2026-09-05 23:49:48 | 48.13063 | 16.63537 | 124° | 111km/h | 5110m | 3.6m/s | -5.1°C | 0% | 0hPa | 2.9V | 00:00:00 | 00:00:00 | 00:00:00 | |
| OE3MUC-15 | 2026-09-05 23:49:46 | 48.13108 | 16.63430 | 123° | 115km/h | 5097m | 3.5m/s | -5.0°C | 5.5% | 0hPa | 2.9V | 00:00:00 | 00:00:00 | 00:00:00 | |
| PG1ADW-2 | 2026-09-05 23:49:45 | 48.13123 | 16.63393 | 122° | 111km/h | 5094m | 3.5m/s | -5.0°C | 5.4% | 0hPa | 2.9V | 00:00:00 | 00:00:00 | 00:00:00 | |
| S52SK | 2026-09-05 23:49:42 | 48.13153 | 16.63318 | 121° | 113km/h | 5085m | 4.7m/s | -5.0°C | 0% | 0hPa | 2.9V | 00:00:00 | 00:00:00 | 00:00:00 | |
| PETON7-10 | 2026-09-05 23:49:41 | 48.13182 | 16.63246 | 123° | 111km/h | 5078m | 4.0m/s | -4.9°C | 5.4% | 0hPa | 2.9V | 00:00:00 | 00:00:00 | 00:00:00 | |
| OE5DRO-10 | 2026-09-05 23:49:39 | 48.13212 | 16.63176 | 123° | 110km/h | 5072m | 3.3m/s | -4.9°C | 5.4% | 0hPa | 2.9V | 00:00:00 | 00:00:00 | 00:00:00 | |
| PETON7-10 | 2026-09-05 23:49:26 | 48.13404 | 16.62714 | 121° | 111km/h | 5025m | 3.2m/s | -4.8°C | 5.1% | 0hPa | 2.9V | 00:00:00 | 00:33:51 | 00:00:00 | |
| PG1ADW-2 | 2026-09-05 23:49:25 | 48.13417 | 16.62680 | 119° | 110km/h | 5021m | 4.2m/s | -4.7°C | 4.9% | 0hPa | 2.9V | 00:00:00 | 00:00:00 | 00:00:00 | |
| OE3OSB-13 | 2026-09-05 23:49:22 | 48.13470 | 16.62537 | 122° | 111km/h | 5008m | 2.9m/s | -4.7°C | 4.5% | -1.0hPa | 2.9V | 00:00:00 | 00:00:00 | 00:00:00 | |
| OE5DRO-10 | 2026-09-05 23:49:20 | 48.13486 | 16.62501 | 124° | 110km/h | 5005m | 3.2m/s | -4.6°C | 4.6% | 0hPa | 2.9V | 00:00:00 | 00:00:00 | 00:00:00 | |
| OE3MUC-15 | 2026-09-05 23:49:18 | 48.13518 | 16.62430 | 124° | 113km/h | 4998m | 3.0m/s | -4.6°C | 4.5% | 0hPa | 2.9V | 00:00:00 | 00:00:00 | 08:30:00 | |
| OE3MUC-15 | 2026-09-05 23:49:14 | 48.13576 | 16.62283 | 121° | 111km/h | 4983m | 2.9m/s | -4.6°C | 3.6% | 0hPa | 2.9V | 00:00:00 | 00:00:00 | 00:00:00 | |
| PETON7-10 | 2026-09-05 23:49:11 | 48.13621 | 16.62175 | 123° | 106km/h | 4973m | 3.3m/s | -4.5°C | 2.6% | 0hPa | 2.9V | 00:00:00 | 00:00:00 | 00:00:00 | |
| OE3MUC-15 | 2026-09-05 23:49:10 | 48.13636 | 16.62140 | 124° | 106km/h | 4969m | 3.3m/s | -4.5°C | 2.6% | 0hPa | 2.9V | 00:00:00 | 00:00:00 | 00:00:00 | |
| OE3MUC-15 | 2026-09-05 23:49:06 | 48.13691 | 16.62006 | 121° | 106km/h | 4955m | 2.5m/s | -4.5°C | 3.0% | 0hPa | 2.9V | 00:00:00 | 00:00:00 | 00:00:00 | |
| PG1ADW-2 | 2026-09-05 23:49:05 | 48.13705 | 16.61972 | 122° | 110km/h | 4952m | 4.5m/s | -4.5°C | 3.2% | 0hPa | 2.9V | 00:00:00 | 00:00:00 | 00:00:00 | |
| OE3MUC-15 | 2026-09-05 23:49:02 | 48.13747 | 16.61869 | 123° | 108km/h | 4941m | 2.5m/s | -4.5°C | 3.4% | 0hPa | 2.9V | 00:00:00 | 00:33:27 | 00:00:00 | |
| OE3OSB-13 | 2026-09-05 23:48:51 | 48.13918 | 16.61453 | 121° | 113km/h | 4901m | 2.3m/s | -4.7°C | 2.5% | -1.0hPa | 2.9V | 00:00:00 | 00:00:00 | 00:00:00 | |
| OE3MUC-15 | 2026-09-05 23:48:48 | 48.13949 | 16.61379 | 123° | 111km/h | 4894m | 2.9m/s | -4.6°C | 2.7% | 0hPa | 2.9V | 00:00:00 | 00:00:00 | 00:00:00 | |
| PG1ADW-2 | 2026-09-05 23:48:45 | 48.13993 | 16.61271 | 120° | 104km/h | 4884m | 3.0m/s | -4.7°C | 2.8% | 0hPa | 2.9V | 00:00:00 | 00:33:10 | 00:00:00 | |
| OE3MUC-15 | 2026-09-05 23:48:44 | 48.14007 | 16.61236 | 119° | 104km/h | 4880m | 3.2m/s | -4.7°C | 2.8% | 0hPa | 2.9V | 00:00:00 | 00:00:00 | 00:00:00 | |
| OE5DRO-10 | 2026-09-05 23:48:42 | 48.14033 | 16.61168 | 121° | 104km/h | 4873m | 3.6m/s | -4.7°C | 2.8% | 0hPa | 2.9V | 00:00:00 | 00:00:00 | 00:00:00 | |
| PETON7-10 | 2026-09-05 23:48:41 | 48.14046 | 16.61134 | 122° | 104km/h | 4870m | 2.0m/s | -4.7°C | 2.8% | 0hPa | 2.9V | 00:00:00 | 00:33:06 | 00:00:00 | |
| OE3MUC-15 | 2026-09-05 23:48:40 | 48.14060 | 16.61100 | 122° | 106km/h | 4867m | 3.5m/s | -4.7°C | 2.7% | 0hPa | 2.9V | 00:00:00 | 00:00:00 | 08:30:00 | |
| OE3MUC-15 | 2026-09-05 23:48:36 | 48.14114 | 16.60963 | 121° | 104km/h | 4853m | 3.7m/s | -4.7°C | 2.8% | 0hPa | 2.9V | 00:00:00 | 00:00:00 | 00:00:00 | |
| OE3MUC-15 | 2026-09-05 23:48:31 | 48.14180 | 16.60795 | 120° | 102km/h | 4837m | 3.1m/s | -4.7°C | 2.8% | 0hPa | 2.9V | 00:00:00 | 00:00:00 | 00:00:00 | |
| OE3MUC-15 | 2026-09-05 23:48:27 | 48.14234 | 16.60662 | 123° | 104km/h | 4823m | 2.9m/s | -4.8°C | 2.5% | 0hPa | 2.9V | 00:00:00 | 00:00:00 | 00:00:00 | |
| PETON7-10 | 2026-09-05 23:48:26 | 48.14248 | 16.60629 | 123° | 106km/h | 4820m | 3.5m/s | -4.8°C | 2.5% | 0hPa | 2.9V | 00:00:00 | 00:00:00 | 08:30:00 | |
| PG1ADW-2 | 2026-09-05 23:48:25 | 48.14262 | 16.60596 | 122° | 106km/h | 4816m | 3.3m/s | -4.8°C | 2.6% | 0hPa | 2.9V | 00:00:00 | 00:00:00 | 00:00:00 | |
| OE3MUC-15 | 2026-09-05 23:48:23 | 48.14289 | 16.60529 | 122° | 104km/h | 4809m | 3.0m/s | -4.7°C | 2.6% | 0hPa | 2.9V | 00:00:00 | 00:00:00 | 00:00:00 | |
| OE3OSB-13 | 2026-09-05 23:48:20 | 48.14347 | 16.60396 | 122° | 108km/h | 4796m | 3.7m/s | -4.8°C | 2.4% | -1.0hPa | 2.9V | 00:00:00 | 00:00:00 | 00:00:00 | |
| OE3MUC-15 | 2026-09-05 23:48:19 | 48.14347 | 16.60395 | 123° | 106km/h | 4796m | 3.7m/s | -4.8°C | 2.5% | 0hPa | 2.9V | 00:00:00 | 00:00:00 | 00:00:00 | |
| OE3MUC-15 | 2026-09-05 23:48:15 | 48.14406 | 16.60263 | 124° | 108km/h | 4783m | 3.4m/s | -4.8°C | 2.6% | 0hPa | 2.9V | 00:00:00 | 00:00:00 | 00:00:00 | |
| PETON7-10 | 2026-09-05 23:48:11 | 48.14463 | 16.60126 | 120° | 104km/h | 4771m | 2.6m/s | -4.8°C | 2.7% | 0hPa | 2.9V | 00:00:00 | 00:00:00 | 00:00:00 | |
| OE3MUC-15 | 2026-09-05 23:48:07 | 48.14518 | 16.59990 | 123° | 104km/h | 4759m | 3.8m/s | -4.9°C | 3.6% | 0hPa | 2.9V | 00:00:00 | 00:00:00 | 00:00:00 | |
| PG1ADW-2 | 2026-09-05 23:48:05 | 48.14547 | 16.59925 | 124° | 104km/h | 4752m | 4.1m/s | -4.9°C | 4.0% | 0hPa | 2.9V | 00:00:00 | 00:00:00 | 00:00:00 | |
| OE5DRO-10 | 2026-09-05 23:48:04 | 48.14560 | 16.59893 | 122° | 104km/h | 4748m | 2.2m/s | -4.9°C | 4.1% | 0hPa | 2.9V | 00:00:00 | 00:00:00 | 00:00:00 | |
| OE3MUC-15 | 2026-09-05 23:48:03 | 48.14574 | 16.59861 | 121° | 104km/h | 4745m | 3.9m/s | -5.0°C | 4.2% | 0hPa | 2.9V | 00:00:00 | 00:00:00 | 08:30:00 | |
| OE3OSB-13 | 2026-09-05 23:47:49 | 48.14771 | 16.59354 | 118° | 104km/h | 4696m | 2.6m/s | -5.1°C | 6.7% | -1.0hPa | 2.9V | 00:00:00 | 00:00:00 | 00:00:00 | |
| OE3MUC-15 | 2026-09-05 23:47:47 | 48.14784 | 16.59319 | 120° | 106km/h | 4693m | 2.2m/s | -5.0°C | 7.0% | 0hPa | 2.9V | 00:00:00 | 00:00:00 | 00:00:00 | |
| PG1ADW-2 | 2026-09-05 23:47:45 | 48.14812 | 16.59250 | 123° | 108km/h | 4686m | 3.0m/s | -4.9°C | 7.0% | 0hPa | 2.9V | 00:00:00 | 00:00:00 | 00:00:00 | |
| PETON7-10 | 2026-09-05 23:47:41 | 48.14871 | 16.59117 | 124° | 110km/h | 4674m | 4.0m/s | -4.9°C | 6.9% | 0hPa | 2.9V | 00:00:00 | 00:00:00 | 00:00:00 | |
| OE3JTB-15 | 2026-09-05 23:47:29 | 48.15045 | 16.58695 | 123° | 106km/h | 4635m | 3.7m/s | -4.7°C | 7.3% | 0hPa | 2.9V | 00:00:00 | 00:31:54 | 00:00:00 | |
| PETON7-10 | 2026-09-05 23:47:26 | 48.15087 | 16.58591 | 120° | 106km/h | 4624m | 3.0m/s | -4.7°C | 7.5% | 0hPa | 2.9V | 00:00:00 | 00:00:00 | 00:00:00 | |
| PG1ADW-2 | 2026-09-05 23:47:25 | 48.15100 | 16.58556 | 118° | 106km/h | 4621m | 3.9m/s | -4.6°C | 7.5% | 0hPa | 2.9V | 00:00:00 | 00:31:50 | 08:30:00 | |
| OE3MUC-15 | 2026-09-05 23:47:19 | 48.15176 | 16.58345 | 119° | 104km/h | 4601m | 2.3m/s | -4.5°C | 7.2% | 0hPa | 2.9V | 00:00:00 | 00:00:00 | 00:00:00 | |
| OE3OSB-13 | 2026-09-05 23:47:18 | 48.15201 | 16.58274 | 118° | 104km/h | 4595m | 1.4m/s | -4.5°C | 7.0% | -1.0hPa | 2.9V | 00:00:00 | 00:00:00 | 00:00:00 | |
| OE3MUC-15 | 2026-09-05 23:47:15 | 48.15226 | 16.58206 | 121° | 106km/h | 4589m | 3.1m/s | -4.4°C | 7.6% | 0hPa | 2.9V | 00:00:00 | 00:00:00 | 00:00:00 | |
| PETON7-10 | 2026-09-05 23:47:11 | 48.15280 | 16.58066 | 120° | 106km/h | 4577m | 3.1m/s | -4.4°C | 7.6% | 0hPa | 2.9V | 00:00:00 | 00:31:36 | 00:00:00 | |
| OE3MUC-15 | 2026-09-05 23:47:07 | 48.15336 | 16.57929 | 125° | 108km/h | 4563m | 2.5m/s | -4.3°C | 7.5% | 0hPa | 2.9V | 00:00:00 | 00:00:00 | 00:00:00 | |
| PG1ADW-2 | 2026-09-05 23:47:05 | 48.15366 | 16.57861 | 123° | 106km/h | 4557m | 2.9m/s | -4.3°C | 7.7% | 0hPa | 2.9V | 00:00:00 | 00:00:00 | 00:00:00 | |
| OE3MUC-15 | 2026-09-05 23:47:03 | 48.15395 | 16.57792 | 122° | 108km/h | 4550m | 2.5m/s | -4.2°C | 7.7% | 0hPa | 2.9V | 00:00:00 | 00:00:00 | 00:00:00 | |
| OE3OSB-13 | 2026-09-05 23:46:46 | 48.15627 | 16.57211 | 123° | 102km/h | 4490m | 3.0m/s | -3.9°C | 6.7% | -1.0hPa | 2.9V | 00:00:00 | 00:00:00 | 00:00:00 | |
| PG1ADW-2 | 2026-09-05 23:46:45 | 48.15642 | 16.57179 | 123° | 104km/h | 4486m | 4.1m/s | -3.8°C | 6.8% | 0hPa | 2.9V | 00:00:00 | 00:00:00 | 00:00:00 | |
| OE3MUC-15 | 2026-09-05 23:46:43 | 48.15669 | 16.57112 | 121° | 104km/h | 4479m | 2.8m/s | -3.8°C | 6.8% | 0hPa | 2.9V | 00:00:00 | 00:00:00 | 00:00:00 | |
| PETON7-10 | 2026-09-05 23:46:41 | 48.15696 | 16.57045 | 122° | 104km/h | 4474m | 2.2m/s | -3.7°C | 6.5% | 0hPa | 2.9V | 00:00:00 | 00:00:00 | 00:00:00 | |
| OE3MUC-15 | 2026-09-05 23:46:39 | 48.15725 | 16.56978 | 124° | 104km/h | 4467m | 2.2m/s | -3.7°C | 6.5% | 0hPa | 2.9V | 00:00:00 | 00:00:00 | 00:00:00 | |
| OE3MUC-15 | 2026-09-05 23:46:35 | 48.15780 | 16.56845 | 120° | 108km/h | 4453m | 3.2m/s | -3.6°C | 6.3% | 0hPa | 2.9V | 00:00:00 | 00:00:00 | 00:00:00 | |
| OE3MUC-15 | 2026-09-05 23:46:31 | 48.15832 | 16.56702 | 119° | 102km/h | 4439m | 3.6m/s | -3.5°C | 6.2% | 0hPa | 2.9V | 00:00:00 | 00:00:00 | 00:00:00 | |
| OE5DRO-10 | 2026-09-05 23:46:29 | 48.15857 | 16.56636 | 122° | 104km/h | 4432m | 3.1m/s | -3.4°C | 5.2% | 0hPa | 2.9V | 00:00:00 | 00:00:00 | 00:00:00 | |
| OE3MUC-15 | 2026-09-05 23:46:27 | 48.15884 | 16.56570 | 121° | 100km/h | 4424m | 2.9m/s | -3.4°C | 5.0% | 0hPa | 2.9V | 00:00:00 | 00:00:00 | 00:00:00 | |
| PETON7-10 | 2026-09-05 23:46:26 | 48.15897 | 16.56537 | 121° | 104km/h | 4421m | 3.1m/s | -3.4°C | 4.7% | 0hPa | 2.9V | 00:00:00 | 00:30:51 | 00:00:00 | |
| PG1ADW-2 | 2026-09-05 23:46:25 | 48.15909 | 16.56504 | 121° | 104km/h | 4418m | 3.0m/s | -3.4°C | 4.4% | 0hPa | 2.9V | 00:00:00 | 00:00:00 | 00:00:00 | |
| OE3MUC-15 | 2026-09-05 23:46:23 | 48.15936 | 16.56438 | 123° | 106km/h | 4411m | 4.0m/s | -3.4°C | 4.1% | 0hPa | 2.9V | 00:00:00 | 00:00:00 | 00:00:00 | |
| OE3MUC-15 | 2026-09-05 23:46:19 | 48.15992 | 16.56302 | 120° | 104km/h | 4397m | 3.4m/s | -3.5°C | 5.0% | 0hPa | 2.9V | 00:00:00 | 00:00:00 | 00:00:00 | |
| OE3MUC-15 | 2026-09-05 23:46:15 | 48.16045 | 16.56166 | 121° | 106km/h | 4382m | 3.0m/s | -3.4°C | 5.7% | 0hPa | 2.9V | 00:00:00 | 00:00:00 | 08:30:00 | |
| OE3MUC-15 | 2026-09-05 23:46:11 | 48.16099 | 16.56029 | 121° | 102km/h | 4367m | 4.0m/s | -3.3°C | 6.0% | 0hPa | 2.9V | 00:00:00 | 00:00:00 | 00:00:00 | |
| OE5DRO-10 | 2026-09-05 23:46:10 | 48.16112 | 16.55996 | 122° | 104km/h | 4364m | 2.4m/s | -3.2°C | 6.1% | 0hPa | 2.9V | 00:00:00 | 00:00:00 | 08:30:00 | |
| OE3MUC-15 | 2026-09-05 23:46:07 | 48.16154 | 16.55896 | 121° | 104km/h | 4353m | 3.4m/s | -3.2°C | 6.2% | 0hPa | 2.9V | 00:00:00 | 00:00:00 | 00:00:00 | |
| PG1ADW-2 | 2026-09-05 23:46:05 | 48.16181 | 16.55828 | 121° | 104km/h | 4346m | 3.6m/s | -3.2°C | 6.3% | 0hPa | 2.9V | 00:00:00 | 00:30:30 | 00:00:00 | |
| OE3MUC-15 | 2026-09-05 23:46:03 | 48.16207 | 16.55762 | 121° | 102km/h | 4339m | 2.5m/s | -3.2°C | 6.5% | 0hPa | 2.9V | 00:00:00 | 00:30:28 | 00:00:00 | |
| OE3JTB-15 | 2026-09-05 23:46:02 | 48.16220 | 16.55729 | 123° | 104km/h | 4336m | 3.1m/s | -3.2°C | 6.5% | 0hPa | 2.9V | 00:00:00 | 00:30:27 | 00:00:00 | |
| OE3OSB-13 | 2026-09-05 23:45:44 | 48.16455 | 16.55109 | 119° | 102km/h | 4270m | 4.5m/s | -3.6°C | 9.0% | -1.0hPa | 2.9V | 00:00:00 | 00:00:00 | 00:00:00 | |
| OE3MUC-15 | 2026-09-05 23:45:42 | 48.16479 | 16.55041 | 118° | 100km/h | 4261m | 3.2m/s | -3.6°C | 11.5% | 0hPa | 2.9V | 00:00:00 | 00:00:00 | 00:00:00 | |
| PETON7-10 | 2026-09-05 23:45:41 | 48.16491 | 16.55006 | 118° | 102km/h | 4258m | 3.3m/s | -3.6°C | 11.8% | 0hPa | 2.9V | 00:00:00 | 00:30:06 | 00:00:00 | |
| OE3JTB-15 | 2026-09-05 23:45:33 | 48.16592 | 16.54740 | 119° | 100km/h | 4227m | 3.4m/s | -3.5°C | 12.2% | 0hPa | 2.9V | 00:00:00 | 00:00:00 | 00:00:00 | |
| OE5DRO-10 | 2026-09-05 23:45:32 | 48.16605 | 16.54706 | 120° | 99km/h | 4223m | 4.4m/s | -3.5°C | 12.1% | 0hPa | 2.9V | 00:00:00 | 00:00:00 | 00:00:00 | |
| PETON7-10 | 2026-09-05 23:45:26 | 48.16677 | 16.54503 | 120° | 99km/h | 4200m | 3.4m/s | -3.3°C | 10.5% | 0hPa | 2.9V | 00:00:00 | 00:00:00 | 00:00:00 | |
| PG1ADW-2 | 2026-09-05 23:45:25 | 48.16690 | 16.54469 | 121° | 99km/h | 4196m | 2.9m/s | -3.3°C | 11.0% | 0hPa | 2.9V | 00:00:00 | 00:00:00 | 00:00:00 | |
| OE3MUC-15 | 2026-09-05 23:45:20 | 48.16747 | 16.54301 | 116° | 95km/h | 4177m | 3.1m/s | -3.2°C | 10.8% | 0hPa | 2.9V | 00:00:00 | 00:00:00 | 00:00:00 | |
| OE3MUC-15 | 2026-09-05 23:45:17 | 48.16792 | 16.54175 | 117° | 97km/h | 4162m | 3.7m/s | -3.1°C | 9.7% | 0hPa | 2.9V | 00:00:00 | 00:00:00 | 00:00:00 | |
| OE5DRO-10 | 2026-09-05 23:45:13 | 48.16823 | 16.54075 | 115° | 100km/h | 4150m | 4.1m/s | -3.1°C | 9.7% | 0hPa | 2.9V | 00:00:00 | 00:00:00 | 00:00:00 | |
| OE3MUC-15 | 2026-09-05 23:45:12 | 48.16834 | 16.54040 | 115° | 102km/h | 4146m | 3.8m/s | -3.1°C | 10.0% | 0hPa | 2.9V | 00:00:00 | 00:00:00 | 00:00:00 | |
| OE3MUC-15 | 2026-09-05 23:45:08 | 48.16880 | 16.53902 | 117° | 99km/h | 4130m | 3.9m/s | -3.0°C | 6.4% | 0hPa | 2.9V | 00:00:00 | 00:00:00 | 00:00:00 | |
| PG1ADW-2 | 2026-09-05 23:45:05 | 48.16912 | 16.53801 | 117° | 99km/h | 4118m | 3.4m/s | -2.9°C | 5.8% | 0hPa | 2.9V | 00:00:00 | 00:00:00 | 00:00:00 | |
| OE3MUC-15 | 2026-09-05 23:45:04 | 48.16924 | 16.53766 | 118° | 100km/h | 4114m | 4.3m/s | -2.9°C | 5.4% | 0hPa | 2.9V | 00:00:00 | 00:00:00 | 00:00:00 | |
| OE3MUC-15 | 2026-09-05 23:45:00 | 48.16972 | 16.53634 | 117° | 100km/h | 4098m | 3.4m/s | -2.9°C | 9.0% | 0hPa | 2.9V | 00:00:00 | 00:00:00 | 08:30:00 | |
| OE3MUC-15 | 2026-09-05 23:44:56 | 48.17015 | 16.53494 | 116° | 100km/h | 4082m | 3.5m/s | -3.0°C | 6.8% | 0hPa | 2.9V | 00:00:00 | 00:00:00 | 00:00:00 | |
| OE5DRO-10 | 2026-09-05 23:44:54 | 48.17037 | 16.53426 | 116° | 97km/h | 4075m | 3.5m/s | -3.0°C | 7.0% | 0hPa | 2.9V | 00:00:00 | 00:00:00 | 00:00:00 | |
| OE3MUC-15 | 2026-09-05 23:44:52 | 48.17058 | 16.53359 | 116° | 99km/h | 4068m | 3.1m/s | -2.9°C | 7.0% | 0hPa | 2.9V | 00:00:00 | 00:00:00 | 00:00:00 | |
| OE3MUC-15 | 2026-09-05 23:44:48 | 48.17099 | 16.53222 | 117° | 97km/h | 4051m | 4.9m/s | -2.8°C | 7.0% | 0hPa | 2.9V | 00:00:00 | 00:00:00 | 00:00:00 | |
| PG1ADW-2 | 2026-09-05 23:44:45 | 48.17133 | 16.53124 | 117° | 95km/h | 4039m | 4.4m/s | -2.8°C | 5.6% | 0hPa | 2.9V | 00:00:00 | 00:29:10 | 00:00:00 | |
| OE3MUC-15 | 2026-09-05 23:44:44 | 48.17143 | 16.53092 | 116° | 93km/h | 4034m | 4.3m/s | -2.9°C | 6.1% | 0hPa | 2.9V | 00:00:00 | 00:00:00 | 00:00:00 | |
| OE3OSB-13 | 2026-09-05 23:44:42 | 48.17162 | 16.53029 | 113° | 93km/h | 4025m | 4.2m/s | -3.2°C | 8.1% | -1.0hPa | 2.9V | 00:00:00 | 00:00:00 | 00:00:00 | |
| PETON7-10 | 2026-09-05 23:44:41 | 48.17171 | 16.52996 | 114° | 97km/h | 4021m | 5.1m/s | -3.2°C | 9.1% | 0hPa | 2.9V | 00:00:00 | 00:00:00 | 00:00:00 | |
| OE3MUC-15 | 2026-09-05 23:44:40 | 48.17182 | 16.52962 | 116° | 97km/h | 4017m | 3.2m/s | -3.2°C | 10.0% | 0hPa | 2.9V | 00:00:00 | 00:00:00 | 00:00:00 | |
| OE3MUC-15 | 2026-09-05 23:44:36 | 48.17222 | 16.52830 | 115° | 97km/h | 4000m | 3.6m/s | -3.3°C | 11.9% | 0hPa | 2.9V | 00:00:00 | 00:00:00 | 00:00:00 | |
| OE3JTB-15 | 2026-09-05 23:44:35 | 48.17232 | 16.52796 | 114° | 99km/h | 3995m | 4.2m/s | -3.4°C | 12.2% | 0hPa | 2.9V | 00:00:00 | 00:29:00 | 00:00:00 | |
| OE3MUC-15 | 2026-09-05 23:44:32 | 48.17265 | 16.52696 | 118° | 97km/h | 3983m | 3.9m/s | -3.4°C | 13.4% | 0hPa | 2.9V | 00:00:00 | 00:00:00 | 00:00:00 | |
| OE3MUC-15 | 2026-09-05 23:44:28 | 48.17308 | 16.52566 | 117° | 97km/h | 3966m | 4.1m/s | -3.4°C | 14.5% | 0hPa | 2.9V | 00:00:00 | 00:00:00 | 00:00:00 | |
| PETON7-10 | 2026-09-05 23:44:26 | 48.17330 | 16.52501 | 119° | 99km/h | 3958m | 3.9m/s | -3.4°C | 15.0% | 0hPa | 2.9V | 00:00:00 | 00:00:00 | 00:00:00 | |
| PG1ADW-2 | 2026-09-05 23:44:25 | 48.17342 | 16.52469 | 120° | 99km/h | 3953m | 4.2m/s | -3.3°C | 15.3% | 0hPa | 2.9V | 00:00:00 | 00:00:00 | 08:30:00 | |
| OE3MUC-15 | 2026-09-05 23:44:24 | 48.17353 | 16.52438 | 119° | 97km/h | 3949m | 4.0m/s | -3.3°C | 15.8% | 0hPa | 2.9V | 00:00:00 | 00:00:00 | 08:30:00 | |
| OE3MUC-15 | 2026-09-05 23:44:20 | 48.17399 | 16.52308 | 120° | 99km/h | 3932m | 4.2m/s | -3.3°C | 16.9% | 0hPa | 2.9V | 00:00:00 | 00:00:00 | 00:00:00 | |
| OE3MUC-15 | 2026-09-05 23:44:16 | 48.17448 | 16.52178 | 118° | 99km/h | 3915m | 3.5m/s | -3.3°C | 18.8% | 0hPa | 2.9V | 00:00:00 | 00:00:00 | 00:00:00 | |
| S52SK | 2026-09-05 23:44:15 | 48.17448 | 16.52178 | 118° | 97km/h | 3915m | 3.6m/s | 0°C | 0% | 0hPa | 2.9V | 00:00:00 | 00:00:00 | 00:00:00 | |
| OE3MUC-15 | 2026-09-05 23:44:12 | 48.17494 | 16.52043 | 117° | 100km/h | 3895m | 4.3m/s | -3.4°C | 24.5% | 0hPa | 2.9V | 00:00:00 | 00:00:00 | 00:00:00 | |
| PETON7-10 | 2026-09-05 23:44:11 | 48.17505 | 16.52008 | 118° | 102km/h | 3891m | 3.6m/s | -3.4°C | 26.5% | 0hPa | 2.9V | 00:00:00 | 00:28:36 | 00:00:00 | |
| OE3MUC-15 | 2026-09-05 23:44:08 | 48.17539 | 16.51908 | 117° | 100km/h | 3879m | 4.4m/s | -3.5°C | 29.4% | 0hPa | 2.9V | 00:00:00 | 00:00:00 | 00:00:00 | |
| OE3JTB-15 | 2026-09-05 23:44:06 | 48.17561 | 16.51840 | 118° | 102km/h | 3871m | 4.8m/s | -3.5°C | 29.1% | 0hPa | 2.9V | 00:00:00 | 00:00:00 | 08:30:00 | |
| PG1ADW-2 | 2026-09-05 23:44:05 | 48.17573 | 16.51806 | 119° | 102km/h | 3866m | 3.9m/s | -3.5°C | 29.1% | 0hPa | 2.9V | 00:00:00 | 00:00:00 | 00:00:00 | |
| OE3MUC-15 | 2026-09-05 23:44:04 | 48.17586 | 16.51772 | 119° | 102km/h | 3862m | 4.5m/s | -3.5°C | 29.0% | 0hPa | 2.9V | 00:00:00 | 00:00:00 | 00:00:00 | |
| OE3MUC-15 | 2026-09-05 23:44:00 | 48.17634 | 16.51635 | 117° | 106km/h | 3844m | 4.3m/s | -3.4°C | 29.2% | 0hPa | 2.9V | 00:00:00 | 00:00:00 | 00:00:00 | |
| OE5DRO-10 | 2026-09-05 23:43:57 | 48.17672 | 16.51529 | 119° | 102km/h | 3831m | 3.9m/s | -3.4°C | 29.3% | 0hPa | 2.9V | 00:00:00 | 00:00:00 | 00:00:00 | |
| PETON7-10 | 2026-09-05 23:43:56 | 48.17684 | 16.51493 | 117° | 102km/h | 3826m | 5.0m/s | -3.4°C | 29.4% | 0hPa | 2.9V | 00:00:00 | 00:00:00 | 08:30:00 | |
| OE3MUC-15 | 2026-09-05 23:43:52 | 48.17728 | 16.51351 | 116° | 102km/h | 3808m | 4.5m/s | -3.4°C | 30.5% | 0hPa | 2.9V | 00:00:00 | 00:00:00 | 00:00:00 | |
| OE3MUC-15 | 2026-09-05 23:43:48 | 48.17775 | 16.51213 | 116° | 102km/h | 3791m | 4.9m/s | -3.4°C | 30.5% | 0hPa | 2.9V | 00:00:00 | 00:00:00 | 08:30:00 | |
| PG1ADW-2 | 2026-09-05 23:43:45 | 48.17807 | 16.51108 | 116° | 97km/h | 3776m | 4.4m/s | -3.3°C | 31.5% | 0hPa | 2.9V | 00:00:00 | 00:00:00 | 00:00:00 | |
| OE3MUC-15 | 2026-09-05 23:43:44 | 48.17819 | 16.51072 | 117° | 102km/h | 3772m | 3.5m/s | -3.3°C | 31.8% | 0hPa | 2.9V | 00:00:00 | 00:00:00 | 00:00:00 | |
| PETON7-10 | 2026-09-05 23:43:41 | 48.17856 | 16.50971 | 121° | 95km/h | 3759m | 4.1m/s | -3.2°C | 33.7% | 0hPa | 2.9V | 00:00:00 | 00:00:00 | 00:00:00 | |
| OE3OSB-13 | 2026-09-05 23:43:40 | 48.17869 | 16.50939 | 120° | 95km/h | 3754m | 5.1m/s | -3.3°C | 33.6% | -1.0hPa | 2.9V | 00:00:00 | 00:00:00 | 00:00:00 | |
| OE5DRO-10 | 2026-09-05 23:43:38 | 48.17893 | 16.50877 | 121° | 95km/h | 3744m | 5.1m/s | -3.2°C | 35.0% | 0hPa | 2.9V | 00:00:00 | 00:00:00 | 00:00:00 | |
| OE3JTB-15 | 2026-09-05 23:43:37 | 48.17906 | 16.50846 | 122° | 93km/h | 3739m | 5.3m/s | -3.1°C | 35.1% | 0hPa | 2.9V | 00:00:00 | 00:00:00 | 00:00:00 | |
| PETON7-10 | 2026-09-05 23:43:26 | 48.18033 | 16.50500 | 120° | 91km/h | 3685m | 4.6m/s | -2.8°C | 34.9% | 0hPa | 2.9V | 00:00:00 | 00:27:51 | 00:00:00 | |
| PG1ADW-2 | 2026-09-05 23:43:25 | 48.18045 | 16.50469 | 119° | 91km/h | 3681m | 3.3m/s | -2.7°C | 35.0% | 0hPa | 2.9V | 00:00:00 | 00:27:50 | 00:00:00 | |
| OE3MUC-15 | 2026-09-05 23:43:20 | 48.18096 | 16.50310 | 114° | 88km/h | 3659m | 4.9m/s | -2.5°C | 34.6% | 0hPa | 2.9V | 00:00:00 | 00:00:00 | 00:00:00 | |
| OE5DRO-10 | 2026-09-05 23:43:19 | 48.18105 | 16.50280 | 116° | 91km/h | 3654m | 4.1m/s | -2.5°C | 34.8% | 0hPa | 2.9V | 00:00:00 | 00:00:00 | 08:30:00 | |
| OE3MUC-15 | 2026-09-05 23:43:16 | 48.18132 | 16.50188 | 114° | 95km/h | 3640m | 4.7m/s | -2.4°C | 34.8% | 0hPa | 2.9V | 00:00:00 | 00:00:00 | 00:00:00 | |
| OE3MUC-15 | 2026-09-05 23:43:12 | 48.18172 | 16.50059 | 115° | 89km/h | 3622m | 4.2m/s | -2.2°C | 34.5% | 0hPa | 2.9V | 00:00:00 | 00:00:00 | 08:30:00 | |
| PETON7-10 | 2026-09-05 23:43:11 | 48.18181 | 16.50028 | 113° | 89km/h | 3618m | 4.7m/s | -2.2°C | 34.4% | 0hPa | 2.9V | 00:00:00 | 00:00:00 | 00:00:00 | |
| OE3OSB-13 | 2026-09-05 23:43:10 | 48.18209 | 16.49934 | 115° | 91km/h | 3604m | 5.1m/s | -2.1°C | 33.3% | -1.0hPa | 2.9V | 00:00:00 | 00:00:00 | 00:00:00 | |
| OE3MUC-15 | 2026-09-05 23:43:08 | 48.18209 | 16.49934 | 116° | 93km/h | 3604m | 5.1m/s | -2.1°C | 34.1% | 0hPa | 2.9V | 00:00:00 | 00:00:00 | 00:00:00 | |
| PG1ADW-2 | 2026-09-05 23:43:05 | 48.18241 | 16.49840 | 117° | 91km/h | 3588m | 5.5m/s | -1.9°C | 33.7% | 0hPa | 2.9V | 00:00:00 | 00:00:00 | 00:00:00 | |
| OE3MUC-15 | 2026-09-05 23:43:04 | 48.18251 | 16.49808 | 116° | 89km/h | 3582m | 5.0m/s | -1.8°C | 33.5% | 0hPa | 2.9V | 00:00:00 | 00:27:29 | 00:00:00 | |
| OE3MUC-15 | 2026-09-05 23:43:00 | 48.18290 | 16.49687 | 117° | 89km/h | 3565m | 2.9m/s | -1.7°C | 33.3% | 0hPa | 2.9V | 00:00:00 | 00:00:00 | 00:00:00 | |
| OE3MUC-15 | 2026-09-05 23:42:56 | 48.18329 | 16.49565 | 114° | 89km/h | 3548m | 3.6m/s | -1.5°C | 32.9% | 0hPa | 2.9V | 00:00:00 | 00:00:00 | 00:00:00 | |
| OE3MUC-15 | 2026-09-05 23:42:52 | 48.18366 | 16.49441 | 114° | 95km/h | 3532m | 3.7m/s | -1.4°C | 32.6% | 0hPa | 2.9V | 00:00:00 | 00:00:00 | 00:00:00 | |
| OE3MUC-15 | 2026-09-05 23:42:48 | 48.18405 | 16.49308 | 113° | 99km/h | 3515m | 4.2m/s | -1.2°C | 31.9% | 0hPa | 2.9V | 00:00:00 | 00:00:00 | 00:00:00 | |
| PG1ADW-2 | 2026-09-05 23:42:45 | 48.18436 | 16.49206 | 117° | 91km/h | 3502m | 4.2m/s | -1.1°C | 31.3% | 0hPa | 2.9V | 00:00:00 | 00:00:00 | 00:00:00 | |
| OE3MUC-15 | 2026-09-05 23:42:44 | 48.18447 | 16.49173 | 118° | 97km/h | 3497m | 4.2m/s | -1.0°C | 30.7% | 0hPa | 2.9V | 00:00:00 | 00:00:00 | 00:00:00 | |
| PETON7-10 | 2026-09-05 23:42:41 | 48.18481 | 16.49075 | 116° | 91km/h | 3480m | 6.5m/s | -0.9°C | 29.4% | 0hPa | 2.9V | 00:00:00 | 00:27:06 | 00:00:00 | |
| OE3MUC-15 | 2026-09-05 23:42:40 | 48.18491 | 16.49042 | 114° | 91km/h | 3474m | 5.2m/s | -0.8°C | 29.3% | 0hPa | 2.9V | 00:00:00 | 00:00:00 | 00:00:00 | |
| OE3JTB-15 | 2026-09-05 23:42:39 | 48.18501 | 16.49009 | 114° | 89km/h | 3469m | 4.7m/s | -0.8°C | 29.1% | 0hPa | 2.9V | 00:00:00 | 00:00:00 | 00:00:00 | |
| OE3OSB-13 | 2026-09-05 23:42:38 | 48.18519 | 16.48946 | 112° | 88km/h | 3459m | 4.6m/s | -0.8°C | 28.4% | -1.0hPa | 2.9V | 00:00:00 | 00:00:00 | 00:00:00 | |
| OE3MUC-15 | 2026-09-05 23:42:36 | 48.18527 | 16.48915 | 113° | 93km/h | 3454m | 5.6m/s | -0.7°C | 28.4% | 0hPa | 2.9V | 00:00:00 | 00:00:00 | 08:30:00 | |
| OE3MUC-15 | 2026-09-05 23:42:32 | 48.18569 | 16.48788 | 118° | 88km/h | 3434m | 4.4m/s | -0.5°C | 27.4% | 0hPa | 2.9V | 00:00:00 | 00:00:00 | 00:00:00 | |
| S52SK | 2026-09-05 23:42:29 | 48.18596 | 16.48697 | 112° | 86km/h | 3419m | 4.3m/s | 0°C | 0% | 0hPa | 2.9V | 00:00:00 | 00:00:00 | 00:00:00 | |
| OE3MUC-15 | 2026-09-05 23:42:28 | 48.18604 | 16.48666 | 111° | 86km/h | 3414m | 3.9m/s | -0.3°C | 25.3% | 0hPa | 2.9V | 00:00:00 | 00:00:00 | 00:00:00 | |
| PETON7-10 | 2026-09-05 23:42:26 | 48.18620 | 16.48605 | 113° | 88km/h | 3406m | 4.1m/s | -0.2°C | 24.0% | 0hPa | 2.9V | 00:00:00 | 00:00:00 | 00:00:00 | |
| PG1ADW-2 | 2026-09-05 23:42:25 | 48.18628 | 16.48576 | 114° | 89km/h | 3402m | 3.7m/s | -0.2°C | 20.9% | 0hPa | 2.9V | 00:00:00 | 00:00:00 | 00:00:00 | |
| OE3MUC-15 | 2026-09-05 23:42:24 | 48.18637 | 16.48546 | 116° | 88km/h | 3398m | 4.7m/s | -0.2°C | 20.3% | 0hPa | 2.9V | 00:00:00 | 00:00:00 | 00:00:00 | |
| OE5DRO-10 | 2026-09-05 23:42:22 | 48.18656 | 16.48486 | 115° | 93km/h | 3388m | 4.7m/s | 0°C | 0% | 0hPa | 2.9V | 00:00:00 | 00:00:00 | 00:00:00 | |
| OE3MUC-15 | 2026-09-05 23:42:20 | 48.18675 | 16.48426 | 117° | 88km/h | 3379m | 4.3m/s | -0.2°C | 22.1% | 0hPa | 2.9V | 00:00:00 | 00:00:00 | 00:00:00 | |
| OE3MUC-15 | 2026-09-05 23:42:16 | 48.18713 | 16.48309 | 114° | 86km/h | 3361m | 4.1m/s | -0.1°C | 25.5% | 0hPa | 2.9V | 00:00:00 | 00:00:00 | 00:00:00 | |
| OE3MUC-15 | 2026-09-05 23:42:12 | 48.18744 | 16.48184 | 111° | 97km/h | 3341m | 6.4m/s | -0.2°C | 29.0% | 0hPa | 2.9V | 00:00:00 | 00:00:00 | 00:00:00 | |
| PETON7-10 | 2026-09-05 23:42:11 | 48.18753 | 16.48150 | 113° | 97km/h | 3334m | 5.9m/s | -0.1°C | 29.3% | 0hPa | 2.9V | 00:00:00 | 00:00:00 | 00:00:00 | |
| OE3JTB-15 | 2026-09-05 23:42:10 | 48.18762 | 16.48116 | 114° | 93km/h | 3329m | 4.7m/s | -0.1°C | 29.3% | 0hPa | 2.9V | 00:00:00 | 00:00:00 | 00:00:00 | |
| OE3MUC-15 | 2026-09-05 23:42:08 | 48.18781 | 16.48048 | 112° | 95km/h | 3317m | 7.0m/s | -0.0°C | 28.5% | 0hPa | 2.9V | 00:00:00 | 00:00:00 | 00:00:00 | |
| OE3OSB-13 | 2026-09-05 23:42:07 | 48.18799 | 16.47981 | 113° | 93km/h | 3305m | 4.9m/s | -0.1°C | 27.1% | -1.0hPa | 2.9V | 00:00:00 | 00:00:00 | 00:00:00 | |
| PG1ADW-2 | 2026-09-05 23:42:05 | 48.18808 | 16.47947 | 113° | 93km/h | 3300m | 4.1m/s | 0°C | 0% | 0hPa | 2.9V | 00:00:00 | 00:26:30 | 00:00:00 | |
| OE3MUC-15 | 2026-09-05 23:42:04 | 48.18818 | 16.47914 | 113° | 97km/h | 3295m | 4.0m/s | -0.0°C | 28.8% | 0hPa | 2.9V | 00:00:00 | 00:00:00 | 00:00:00 | |
| OE5DRO-10 | 2026-09-05 23:42:01 | 48.18845 | 16.47811 | 111° | 93km/h | 3280m | 5.3m/s | 0°C | 0% | 0hPa | 2.9V | 00:00:00 | 00:00:00 | 00:00:00 | |
| OE3MUC-15 | 2026-09-05 23:42:00 | 48.18854 | 16.47778 | 114° | 93km/h | 3275m | 4.0m/s | 0.0°C | 29.6% | 0hPa | 2.9V | 00:00:00 | 00:00:00 | 08:30:00 | |
| PETON7-10 | 2026-09-05 23:41:56 | 48.18892 | 16.47649 | 113° | 91km/h | 3258m | 4.3m/s | 0.1°C | 29.3% | 0hPa | 2.9V | 00:00:00 | 00:26:21 | 00:00:00 | |
| OE3MUC-15 | 2026-09-05 23:41:52 | 48.18930 | 16.47518 | 113° | 91km/h | 3239m | 4.9m/s | 0.2°C | 28.7% | 0hPa | 2.9V | 00:00:00 | 00:00:00 | 00:00:00 | |
| OE3MUC-15 | 2026-09-05 23:41:48 | 48.18964 | 16.47390 | 113° | 89km/h | 3222m | 2.8m/s | 0.2°C | 29.5% | 0hPa | 2.9V | 00:00:00 | 00:00:00 | 00:00:00 | |
| PG1ADW-2 | 2026-09-05 23:41:46 | 48.18991 | 16.47297 | 113° | 93km/h | 3210m | 4.2m/s | 0°C | 0% | 0hPa | 2.9V | 00:00:00 | 00:00:00 | 00:00:00 | |
| OE3MUC-15 | 2026-09-05 23:41:44 | 48.19000 | 16.47265 | 115° | 91km/h | 3206m | 3.9m/s | 0.3°C | 28.8% | 0hPa | 2.9V | 00:00:00 | 00:00:00 | 00:00:00 | |
| OE5DRO-10 | 2026-09-05 23:41:42 | 48.19019 | 16.47202 | 115° | 91km/h | 3197m | 2.7m/s | 0°C | 0% | 0hPa | 2.9V | 00:00:00 | 00:00:00 | 00:00:00 | |
| OE3OSB-13 | 2026-09-05 23:41:36 | 48.19089 | 16.46977 | 115° | 93km/h | 3168m | 3.7m/s | 0.2°C | 28.4% | -1.0hPa | 2.9V | 00:00:00 | 00:00:00 | 00:00:00 | |
| PETON7-10 | 2026-09-05 23:41:26 | 48.19176 | 16.46687 | 115° | 89km/h | 3133m | 5.0m/s | 0.0°C | 26.6% | 0hPa | 2.9V | 00:00:00 | 00:00:00 | 00:00:00 | |
| PG1ADW-2 | 2026-09-05 23:41:25 | 48.19186 | 16.46656 | 117° | 91km/h | 3128m | 3.7m/s | 0°C | 0% | 0hPa | 2.9V | 00:00:00 | 00:00:00 | 00:00:00 | |
| OE3MUC-15 | 2026-09-05 23:41:20 | 48.19234 | 16.46501 | 114° | 93km/h | 3109m | 4.2m/s | -0.1°C | 11.7% | 0hPa | 2.9V | 00:00:00 | 00:00:00 | 00:00:00 | |
| OE3MUC-15 | 2026-09-05 23:41:16 | 48.19274 | 16.46376 | 116° | 84km/h | 3094m | 3.9m/s | -0.0°C | 12.5% | 0hPa | 2.9V | 00:00:00 | 00:00:00 | 00:00:00 | |
| OE3MUC-15 | 2026-09-05 23:41:12 | 48.19308 | 16.46259 | 115° | 86km/h | 3079m | 2.8m/s | -0.0°C | 13.0% | 0hPa | 2.9V | 00:00:00 | 00:00:00 | 00:00:00 | |
| PETON7-10 | 2026-09-05 23:41:11 | 48.19317 | 16.46230 | 116° | 91km/h | 3075m | 4.5m/s | -0.0°C | 12.9% | 0hPa | 2.9V | 00:00:00 | 00:25:36 | 00:00:00 | |
| OE3MUC-15 | 2026-09-05 23:41:08 | 48.19349 | 16.46141 | 119° | 97km/h | 3064m | 3.6m/s | -0.1°C | 13.7% | 0hPa | 2.9V | 00:00:00 | 00:00:00 | 00:00:00 | |
| OE3OSB-13 | 2026-09-05 23:41:05 | 48.19389 | 16.46006 | 110° | 95km/h | 3046m | 5.7m/s | -0.0°C | 15.0% | -1.0hPa | 2.9V | 00:00:00 | 00:00:00 | 00:00:00 | |
| OE3MUC-15 | 2026-09-05 23:41:04 | 48.19389 | 16.46006 | 111° | 91km/h | 3047m | 5.7m/s | -0.0°C | 15.3% | 0hPa | 2.9V | 00:00:00 | 00:00:00 | 00:00:00 | |
| OE3MUC-15 | 2026-09-05 23:41:00 | 48.19425 | 16.45882 | 117° | 88km/h | 3027m | 4.3m/s | -0.0°C | 25.6% | 0hPa | 2.9V | 00:00:00 | 00:00:00 | 00:00:00 | |
| PETON7-10 | 2026-09-05 23:40:56 | 48.19464 | 16.45760 | 114° | 88km/h | 3010m | 4.1m/s | 0.1°C | 26.8% | 0hPa | 2.9V | 00:00:00 | 00:00:00 | 00:00:00 | |
| OE3MUC-15 | 2026-09-05 23:40:52 | 48.19499 | 16.45637 | 114° | 89km/h | 2993m | 4.8m/s | 0.2°C | 28.2% | 0hPa | 2.9V | 00:00:00 | 00:00:00 | 00:00:00 | |
| OE3MUC-15 | 2026-09-05 23:40:48 | 48.19532 | 16.45510 | 108° | 88km/h | 2975m | 4.6m/s | 0.3°C | 26.6% | 0hPa | 2.9V | 00:00:00 | 00:00:00 | 08:30:00 | |
| OE3MUC-15 | 2026-09-05 23:40:44 | 48.19563 | 16.45387 | 116° | 88km/h | 2960m | 3.2m/s | 0.5°C | 26.2% | 0hPa | 2.9V | 00:00:00 | 00:00:00 | 00:00:00 | |
| PETON7-10 | 2026-09-05 23:40:41 | 48.19593 | 16.45298 | 116° | 91km/h | 2947m | 4.5m/s | 0.5°C | 26.0% | 0hPa | 2.9V | 00:00:00 | 00:00:00 | 00:00:00 | |
| OE3MUC-15 | 2026-09-05 23:40:40 | 48.19603 | 16.45266 | 113° | 95km/h | 2942m | 3.6m/s | 0.5°C | 27.5% | 0hPa | 2.9V | 00:00:00 | 00:00:00 | 00:00:00 | |
| OE3JTB-15 | 2026-09-05 23:40:39 | 48.19612 | 16.45233 | 112° | 91km/h | 2939m | 3.1m/s | 0.5°C | 29.2% | 0hPa | 2.9V | 00:00:00 | 00:00:00 | 00:00:00 | |
| OE3MUC-15 | 2026-09-05 23:40:36 | 48.19638 | 16.45131 | 114° | 88km/h | 2925m | 6.6m/s | 0.6°C | 30.2% | 0hPa | 2.9V | 00:00:00 | 00:00:00 | 00:00:00 | |
| OE3OSB-13 | 2026-09-05 23:40:35 | 48.19667 | 16.45041 | 115° | 82km/h | 2910m | 6.0m/s | 0.8°C | 30.5% | -1.0hPa | 2.9V | 00:00:00 | 00:00:00 | 00:00:00 | |
| OE3MUC-15 | 2026-09-05 23:40:32 | 48.19675 | 16.45012 | 114° | 88km/h | 2903m | 6.7m/s | 0.8°C | 30.9% | 0hPa | 2.9V | 00:00:00 | 00:00:00 | 00:00:00 | |
| OE3MUC-15 | 2026-09-05 23:40:28 | 48.19710 | 16.44886 | 114° | 93km/h | 2882m | 5.6m/s | 1.0°C | 33.2% | 0hPa | 2.9V | 00:00:00 | 00:00:00 | 00:00:00 | |
| S52SK | 2026-09-05 23:40:27 | 48.19719 | 16.44853 | 115° | 95km/h | 2876m | 5.2m/s | 0°C | 0% | 0hPa | 2.9V | 00:00:00 | 00:00:00 | 00:00:00 | |
| PETON7-10 | 2026-09-05 23:40:26 | 48.19729 | 16.44821 | 113° | 91km/h | 2871m | 4.8m/s | 1.1°C | 33.1% | 0hPa | 2.9V | 00:00:00 | 00:24:51 | 00:00:00 | |
| OE3MUC-15 | 2026-09-05 23:40:24 | 48.19746 | 16.44756 | 112° | 95km/h | 2862m | 3.5m/s | 1.2°C | 33.0% | 0hPa | 2.9V | 00:00:00 | 00:00:00 | 00:00:00 | |
| S52SK | 2026-09-05 23:40:21 | 48.19764 | 16.44689 | 113° | 95km/h | 2856m | 2.6m/s | 0°C | 0% | 0hPa | 2.9V | 00:00:00 | 00:00:00 | 00:00:00 | |
| OE3MUC-15 | 2026-09-05 23:40:20 | 48.19780 | 16.44623 | 109° | 91km/h | 2848m | 3.9m/s | 1.3°C | 32.8% | 0hPa | 2.9V | 00:00:00 | 00:00:00 | 00:00:00 | |
| OE3MUC-15 | 2026-09-05 23:40:16 | 48.19812 | 16.44492 | 114° | 88km/h | 2834m | 3.1m/s | 1.4°C | 29.9% | 0hPa | 2.9V | 00:00:00 | 00:00:00 | 00:00:00 | |
| OE3MUC-15 | 2026-09-05 23:40:12 | 48.19851 | 16.44373 | 116° | 91km/h | 2820m | 2.1m/s | 1.6°C | 29.9% | 0hPa | 2.9V | 00:00:00 | 00:00:00 | 08:30:00 | |
| PETON7-10 | 2026-09-05 23:40:11 | 48.19860 | 16.44342 | 115° | 89km/h | 2817m | 3.3m/s | 1.6°C | 29.7% | 0hPa | 2.9V | 00:00:00 | 00:00:00 | 00:00:00 | |
| OE3JTB-15 | 2026-09-05 23:40:10 | 48.19869 | 16.44310 | 113° | 89km/h | 2814m | 3.7m/s | 1.6°C | 29.0% | 0hPa | 2.9V | 00:00:00 | 00:24:35 | 00:00:00 | |
| OE3MUC-15 | 2026-09-05 23:40:09 | 48.19886 | 16.44246 | 110° | 86km/h | 2806m | 4.2m/s | 1.7°C | 26.8% | 0hPa | 2.9V | 00:00:00 | 00:24:33 | 00:00:00 | |
| OE3MUC-15 | 2026-09-05 23:40:04 | 48.19918 | 16.44125 | 116° | 86km/h | 2788m | 2.3m/s | 1.9°C | 21.7% | 0hPa | 2.9V | 00:00:00 | 00:00:00 | 00:00:00 | |
| OE3OSB-13 | 2026-09-05 23:40:03 | 48.19937 | 16.44067 | 115° | 86km/h | 2780m | 5.1m/s | 1.9°C | 22.5% | -1.0hPa | 2.9V | 00:00:00 | 00:00:00 | 00:00:00 | |
| OE3MUC-15 | 2026-09-05 23:40:00 | 48.19955 | 16.44005 | 111° | 97km/h | 2771m | 3.9m/s | 2.0°C | 22.6% | 0hPa | 2.9V | 00:00:00 | 00:00:00 | 00:00:00 | |
| OE3MUC-15 | 2026-09-05 23:39:56 | 48.19989 | 16.43868 | 112° | 89km/h | 2754m | 4.7m/s | 2.0°C | 23.9% | 0hPa | 2.9V | 00:00:00 | 00:00:00 | 00:00:00 | |
| OE3MUC-15 | 2026-09-05 23:39:52 | 48.20020 | 16.43744 | 107° | 86km/h | 2736m | 4.9m/s | 1.9°C | 30.5% | 0hPa | 2.9V | 00:00:00 | 00:00:00 | 00:00:00 | |
| OE3MUC-15 | 2026-09-05 23:39:48 | 48.20047 | 16.43619 | 111° | 89km/h | 2716m | 6.1m/s | 2.0°C | 30.5% | 0hPa | 2.9V | 00:00:00 | 00:00:00 | 00:00:00 | |
| OE5DRO-10 | 2026-09-05 23:39:46 | 48.20064 | 16.43557 | 114° | 78km/h | 2703m | 6.4m/s | 0°C | 0% | 0hPa | 2.9V | 00:00:00 | 00:00:00 | 00:00:00 | |
| OE3MUC-15 | 2026-09-05 23:39:44 | 48.20082 | 16.43496 | 115° | 88km/h | 2691m | 4.9m/s | 2.1°C | 32.6% | 0hPa | 2.9V | 00:00:00 | 00:00:00 | 00:00:00 | |
| PETON7-10 | 2026-09-05 23:39:41 | 48.20109 | 16.43404 | 116° | 88km/h | 2680m | 2.7m/s | 2.1°C | 37.5% | 0hPa | 2.9V | 00:00:00 | 00:24:06 | 00:00:00 | |
| OE3OSB-13 | 2026-09-05 23:39:31 | 48.20202 | 16.43107 | 114° | 88km/h | 2647m | 2.6m/s | 2.3°C | 39.8% | -1.0hPa | 2.9V | 00:00:00 | 00:00:00 | 00:00:00 | |
| PETON7-10 | 2026-09-05 23:39:26 | 48.20246 | 16.42954 | 115° | 80km/h | 2632m | 2.1m/s | 2.3°C | 42.2% | 0hPa | 2.9V | 00:00:00 | 00:00:00 | 08:30:00 | |
| OE3MUC-15 | 2026-09-05 23:39:23 | 48.20294 | 16.42783 | 112° | 78km/h | 2609m | 5.5m/s | 2.4°C | 47.3% | 0hPa | 2.9V | 00:00:00 | 00:00:00 | 00:00:00 | |
| OE3MUC-15 | 2026-09-05 23:39:22 | 48.20321 | 16.42673 | 110° | 78km/h | 2591m | 2.8m/s | 2.5°C | 49.8% | 0hPa | 2.9V | 00:00:00 | 00:00:00 | 00:00:00 | |
| PETON7-10 | 2026-09-05 23:39:21 | 48.20360 | 16.42535 | 117° | 78km/h | 2575m | 3.5m/s | 2.5°C | 53.2% | 0hPa | 2.9V | 00:00:00 | 00:00:00 | 00:00:00 | |
| OE3MUC-15 | 2026-09-05 23:39:08 | 48.20386 | 16.42455 | 115° | 80km/h | 2565m | 3.2m/s | 2.5°C | 54.2% | 0hPa | 2.9V | 00:00:00 | 00:00:00 | 00:00:00 | |
| OE3MUC-15 | 2026-09-05 23:39:04 | 48.20421 | 16.42344 | 114° | 80km/h | 2553m | 2.8m/s | 2.6°C | 53.0% | 0hPa | 2.9V | 00:00:00 | 00:00:00 | 00:00:00 | |
| OE3MUC-15 | 2026-09-05 23:39:00 | 48.20449 | 16.42231 | 111° | 78km/h | 2540m | 3.7m/s | 2.7°C | 51.0% | 0hPa | 2.9V | 00:00:00 | 00:00:00 | 08:30:00 | |
| PETON7-10 | 2026-09-05 23:38:56 | 48.20483 | 16.42123 | 119° | 73km/h | 2522m | 4.2m/s | 2.8°C | 51.1% | 0hPa | 2.9V | 00:00:00 | 00:23:21 | 00:00:00 | |
| OE3MUC-15 | 2026-09-05 23:38:52 | 48.20517 | 16.42024 | 117° | 71km/h | 2504m | 3.8m/s | 3.0°C | 52.1% | 0hPa | 2.9V | 00:00:00 | 00:00:00 | 00:00:00 | |
| OE5DRO-10 | 2026-09-05 23:38:50 | 48.20533 | 16.41977 | 116° | 71km/h | 2495m | 4.9m/s | 0°C | 0% | 0hPa | 2.9V | 00:00:00 | 00:00:00 | 00:00:00 | |
| OE3MUC-15 | 2026-09-05 23:38:48 | 48.20549 | 16.41928 | 117° | 73km/h | 2488m | 3.9m/s | 3.1°C | 50.3% | 0hPa | 2.9V | 00:00:00 | 00:00:00 | 00:00:00 | |
| OE3MUC-15 | 2026-09-05 23:38:44 | 48.20580 | 16.41827 | 115° | 73km/h | 2474m | 2.7m/s | 3.1°C | 50.8% | 0hPa | 2.9V | 00:00:00 | 00:00:00 | 00:00:00 | |
| OE3JTB-15 | 2026-09-05 23:38:43 | 48.20588 | 16.41801 | 116° | 69km/h | 2471m | 3.0m/s | 3.1°C | 50.7% | 0hPa | 2.9V | 00:00:00 | 00:23:08 | 00:00:00 | |
| PETON7-10 | 2026-09-05 23:38:41 | 48.20603 | 16.41751 | 115° | 69km/h | 2465m | 3.4m/s | 3.1°C | 50.4% | 0hPa | 2.9V | 00:00:00 | 00:00:00 | 00:00:00 | |
| OE3MUC-15 | 2026-09-05 23:38:40 | 48.20610 | 16.41728 | 117° | 69km/h | 2461m | 3.7m/s | 3.1°C | 50.2% | 0hPa | 2.9V | 00:00:00 | 00:00:00 | 00:00:00 | |
| OE3MUC-15 | 2026-09-05 23:38:36 | 48.20644 | 16.41636 | 119° | 69km/h | 2445m | 4.1m/s | 3.2°C | 51.7% | 0hPa | 2.9V | 00:00:00 | 00:00:00 | 00:00:00 | |
| OE3MUC-15 | 2026-09-05 23:38:33 | 48.20679 | 16.41546 | 125° | 71km/h | 2430m | 4.0m/s | 3.2°C | 55.0% | 0hPa | 2.9V | 00:00:00 | 00:00:00 | 00:00:00 | |
| OE3OSB-13 | 2026-09-05 23:38:29 | 48.20710 | 16.41479 | 124° | 69km/h | 2419m | 3.1m/s | 3.2°C | 58.1% | -1.0hPa | 2.9V | 00:00:00 | 00:00:00 | 00:00:00 | |
| OE3MUC-15 | 2026-09-05 23:38:28 | 48.20721 | 16.41456 | 124° | 69km/h | 2416m | 3.6m/s | 3.2°C | 59.3% | 0hPa | 2.9V | 00:00:00 | 00:00:00 | 00:00:00 | |
| PETON7-10 | 2026-09-05 23:38:26 | 48.20739 | 16.41412 | 121° | 69km/h | 2410m | 3.3m/s | 3.2°C | 61.2% | 0hPa | 2.9V | 00:00:00 | 00:00:00 | 00:00:00 | |
| OE3MUC-15 | 2026-09-05 23:38:24 | 48.20758 | 16.41367 | 123° | 69km/h | 2403m | 4.0m/s | 3.2°C | 62.4% | 0hPa | 2.9V | 00:00:00 | 00:00:00 | 08:30:00 | |
| OE3MUC-15 | 2026-09-05 23:38:20 | 48.20795 | 16.41279 | 122° | 71km/h | 2390m | 4.1m/s | 3.3°C | 63.9% | 0hPa | 2.9V | 00:00:00 | 00:00:00 | 00:00:00 | |
| OE3MUC-15 | 2026-09-05 23:38:16 | 48.20836 | 16.41190 | 127° | 68km/h | 2377m | 3.4m/s | 3.3°C | 66.1% | 0hPa | 2.9V | 00:00:00 | 00:00:00 | 00:00:00 | |
| OE3JTB-15 | 2026-09-05 23:38:14 | 48.20855 | 16.41148 | 124° | 64km/h | 2370m | 3.4m/s | 3.3°C | 70.1% | 0hPa | 2.9V | 00:00:00 | 00:00:00 | 00:00:00 | |
| OE3MUC-15 | 2026-09-05 23:38:12 | 48.20874 | 16.41105 | 124° | 68km/h | 2363m | 3.6m/s | 3.3°C | 73.6% | 0hPa | 2.9V | 00:00:00 | 00:00:00 | 00:00:00 | |
| PETON7-10 | 2026-09-05 23:38:11 | 48.20883 | 16.41084 | 127° | 68km/h | 2360m | 3.1m/s | 3.3°C | 75.1% | 0hPa | 2.9V | 00:00:00 | 00:22:36 | 00:00:00 | |
| OE3MUC-15 | 2026-09-05 23:38:08 | 48.20913 | 16.41024 | 125° | 66km/h | 2350m | 2.8m/s | 3.3°C | 77.7% | 0hPa | 2.9V | 00:00:00 | 00:00:00 | 00:00:00 | |
| OE3MUC-15 | 2026-09-05 23:38:04 | 48.20951 | 16.40939 | 125° | 71km/h | 2335m | 3.6m/s | 3.3°C | 83.5% | 0hPa | 2.9V | 00:00:00 | 00:00:00 | 00:00:00 | |
| OE3OSB-13 | 2026-09-05 23:37:58 | 48.21007 | 16.40808 | 122° | 62km/h | 2314m | 4.1m/s | 3.2°C | 95.5% | -1.0hPa | 2.9V | 00:00:00 | 00:00:00 | 00:00:00 | |
| PETON7-10 | 2026-09-05 23:37:56 | 48.21025 | 16.40769 | 128° | 55km/h | 2305m | 4.8m/s | 3.2°C | 98.2% | 0hPa | 2.9V | 00:00:00 | 00:00:00 | 00:00:00 | |
| OE3MUC-15 | 2026-09-05 23:37:52 | 48.21059 | 16.40690 | 118° | 51km/h | 2282m | 4.5m/s | 3.3°C | 97.0% | 0hPa | 2.9V | 00:00:00 | 00:00:00 | 00:00:00 | |
| OE3MUC-15 | 2026-09-05 23:37:48 | 48.21085 | 16.40623 | 123° | 55km/h | 2261m | 5.2m/s | 3.4°C | 96.1% | 0hPa | 2.9V | 00:00:00 | 00:00:00 | 08:30:00 | |
| OE3JTB-15 | 2026-09-05 23:37:45 | 48.21106 | 16.40570 | 116° | 49km/h | 2248m | 4.2m/s | 3.5°C | 96.9% | 0hPa | 2.9V | 00:00:00 | 00:00:00 | 00:00:00 | |
| OE3MUC-15 | 2026-09-05 23:37:44 | 48.21112 | 16.40551 | 114° | 46km/h | 2244m | 4.3m/s | 3.6°C | 96.4% | 0hPa | 2.9V | 00:00:00 | 00:00:00 | 00:00:00 | |
| PETON7-10 | 2026-09-05 23:37:41 | 48.21126 | 16.40504 | 122° | 49km/h | 2232m | 3.5m/s | 3.7°C | 96.6% | 0hPa | 2.9V | 00:00:00 | 00:00:00 | 00:00:00 | |
| OE3OSB-13 | 2026-09-05 23:37:27 | 48.21230 | 16.40294 | 130° | 51km/h | 2170m | 5.0m/s | 4.3°C | 93.9% | -1.0hPa | 2.9V | 00:00:00 | 00:00:00 | 00:00:00 | |
| PETON7-10 | 2026-09-05 23:37:26 | 48.21238 | 16.40278 | 127° | 51km/h | 2165m | 5.1m/s | 4.3°C | 94.9% | 0hPa | 2.9V | 00:00:00 | 00:21:51 | 00:00:00 | |
| OE3MUC-15 | 2026-09-05 23:37:20 | 48.21275 | 16.40174 | 123° | 44km/h | 2138m | 3.2m/s | 4.5°C | 94.6% | 0hPa | 2.9V | 00:00:00 | 00:00:00 | 00:00:00 | |
| OE3MUC-15 | 2026-09-05 23:37:16 | 48.21306 | 16.40124 | 135° | 53km/h | 2122m | 3.7m/s | 4.6°C | 93.9% | 0hPa | 2.9V | 00:00:00 | 00:00:00 | 00:00:00 | |
| OE3MUC-15 | 2026-09-05 23:37:12 | 48.21338 | 16.40058 | 120° | 55km/h | 2107m | 3.5m/s | 4.8°C | 93.4% | 0hPa | 2.9V | 00:00:00 | 00:21:37 | 08:30:00 | |
| PETON7-10 | 2026-09-05 23:37:11 | 48.21345 | 16.40039 | 118° | 49km/h | 2103m | 4.1m/s | 4.8°C | 93.1% | 0hPa | 2.9V | 00:00:00 | 00:00:00 | 08:30:00 | |
| OE3MUC-15 | 2026-09-05 23:37:08 | 48.21366 | 16.39985 | 124° | 53km/h | 2090m | 4.1m/s | 4.9°C | 93.0% | 0hPa | 2.9V | 00:00:00 | 00:00:00 | 00:00:00 | |
| OE3MUC-15 | 2026-09-05 23:37:04 | 48.21396 | 16.39918 | 120° | 46km/h | 2067m | 6.5m/s | 5.1°C | 92.3% | 0hPa | 2.9V | 00:00:00 | 00:00:00 | 00:00:00 | |
| OE3MUC-15 | 2026-09-05 23:37:00 | 48.21419 | 16.39860 | 130° | 42km/h | 2049m | 4.8m/s | 5.2°C | 92.7% | 0hPa | 2.9V | 00:00:00 | 00:00:00 | 00:00:00 | |
| OE3MUC-15 | 2026-09-05 23:36:56 | 48.21448 | 16.39813 | 131° | 38km/h | 2032m | 5.4m/s | 5.3°C | 92.5% | 0hPa | 2.9V | 00:00:00 | 00:00:00 | 00:00:00 | |
| OE3MUC-15 | 2026-09-05 23:36:52 | 48.21470 | 16.39765 | 127° | 44km/h | 2014m | 4.9m/s | 5.5°C | 91.8% | 0hPa | 2.9V | 00:00:00 | 00:00:00 | 00:00:00 | |
| OE3MUC-15 | 2026-09-05 23:36:48 | 48.21495 | 16.39710 | 117° | 44km/h | 1998m | 4.1m/s | 5.6°C | 91.6% | 0hPa | 2.9V | 00:00:00 | 00:00:00 | 00:00:00 | |
| OE3JTB-15 | 2026-09-05 23:36:47 | 48.21500 | 16.39694 | 114° | 38km/h | 1994m | 5.3m/s | 5.7°C | 90.5% | 0hPa | 2.9V | 00:00:00 | 00:00:00 | 00:00:00 | |
| OE3MUC-15 | 2026-09-05 23:36:44 | 48.21512 | 16.39653 | 123° | 38km/h | 1978m | 4.4m/s | 0°C | 0% | 0hPa | 2.9V | 00:00:00 | 00:00:00 | 00:00:00 | |
| PETON7-10 | 2026-09-05 23:36:41 | 48.21530 | 16.39616 | 128° | 40km/h | 1963m | 4.0m/s | 5.8°C | 87.1% | 0hPa | 2.9V | 00:00:00 | 00:21:06 | 00:00:00 | |
| OE3MUC-15 | 2026-09-05 23:36:40 | 48.21537 | 16.39603 | 125° | 42km/h | 1959m | 3.5m/s | 0°C | 0% | 0hPa | 2.9V | 00:00:00 | 00:00:00 | 00:00:00 | |
| OE3MUC-15 | 2026-09-05 23:36:36 | 48.21557 | 16.39549 | 121° | 33km/h | 1942m | 3.4m/s | 0°C | 0% | 0hPa | 2.9V | 00:00:00 | 00:00:00 | 08:30:00 | |
| OE3MUC-15 | 2026-09-05 23:36:32 | 48.21575 | 16.39508 | 127° | 44km/h | 1922m | 3.8m/s | 0°C | 0% | 0hPa | 2.9V | 00:00:00 | 00:00:00 | 00:00:00 | |
| OE3MUC-15 | 2026-09-05 23:36:28 | 48.21606 | 16.39458 | 139° | 40km/h | 1906m | 4.2m/s | 0°C | 0% | 0hPa | 2.9V | 00:00:00 | 00:00:00 | 00:00:00 | |
| OE3OSB-13 | 2026-09-05 23:36:25 | 48.21629 | 16.39429 | 140° | 33km/h | 1895m | 3.2m/s | 6.4°C | 83.7% | -1.0hPa | 2.9V | 00:00:00 | 00:00:00 | 00:00:00 | |
| OE3MUC-15 | 2026-09-05 23:36:20 | 48.21660 | 16.39384 | 133° | 42km/h | 1875m | 5.2m/s | 0°C | 0% | 0hPa | 2.9V | 00:00:00 | 00:00:00 | 00:00:00 | |
| OE3JTB-15 | 2026-09-05 23:36:18 | 48.21674 | 16.39359 | 128° | 40km/h | 1865m | 4.5m/s | 6.7°C | 83.2% | 0hPa | 2.9V | 00:00:00 | 00:00:00 | 00:00:00 | |
| OE3MUC-15 | 2026-09-05 23:36:15 | 48.21692 | 16.39319 | 124° | 38km/h | 1851m | 3.4m/s | 0°C | 0% | 0hPa | 2.9V | 00:00:00 | 00:00:00 | 00:00:00 | |
| OE3MUC-15 | 2026-09-05 23:36:11 | 48.21716 | 16.39271 | 125° | 42km/h | 1835m | 4.5m/s | 0°C | 0% | 0hPa | 2.9V | 00:00:00 | 00:00:00 | 00:00:00 | |
| PETON7-10 | 2026-09-05 23:36:11 | 48.21716 | 16.39271 | 125° | 40km/h | 1835m | 4.5m/s | 6.9°C | 82.1% | 0hPa | 2.9V | 00:00:00 | 00:00:00 | 00:00:00 | |
| OE3MUC-15 | 2026-09-05 23:36:07 | 48.21739 | 16.39225 | 136° | 40km/h | 1814m | 4.2m/s | 0°C | 0% | 0hPa | 2.9V | 00:00:00 | 00:00:00 | 00:00:00 | |
| OE3MUC-15 | 2026-09-05 23:36:03 | 48.21769 | 16.39180 | 131° | 40km/h | 1794m | 5.1m/s | 0°C | 0% | 0hPa | 2.9V | 00:00:00 | 00:00:00 | 00:00:00 | |
| OE3MUC-15 | 2026-09-05 23:35:56 | 48.21821 | 16.39106 | 146° | 40km/h | 1761m | 4.3m/s | 0°C | 0% | 0hPa | 2.9V | 00:00:00 | 00:00:00 | 08:30:00 | |
| PETON7-10 | 2026-09-05 23:35:56 | 48.21821 | 16.39106 | 146° | 42km/h | 1761m | 4.3m/s | 7.6°C | 78.3% | 0hPa | 2.9V | 00:00:00 | 00:20:21 | 00:00:00 | |
| OE3JTB-15 | 2026-09-05 23:35:49 | 48.21872 | 16.39034 | 139° | 49km/h | 1725m | 4.5m/s | 7.9°C | 76.0% | 0hPa | 2.9V | 00:00:00 | 00:20:14 | 00:00:00 | |
| OE3MUC-15 | 2026-09-05 23:35:49 | 48.21872 | 16.39034 | 139° | 44km/h | 1725m | 4.5m/s | 0°C | 0% | 0hPa | 2.9V | 00:00:00 | 00:00:00 | 00:00:00 | |
| OE3MUC-15 | 2026-09-05 23:35:45 | 48.21903 | 16.38985 | 128° | 40km/h | 1710m | 4.0m/s | 0°C | 0% | 0hPa | 2.9V | 00:00:00 | 00:00:00 | 00:00:00 | |
| PETON7-10 | 2026-09-05 23:35:41 | 48.21931 | 16.38939 | 140° | 49km/h | 1692m | 3.1m/s | 8.2°C | 73.0% | 0hPa | 2.9V | 00:00:00 | 00:00:00 | 00:00:00 | |
| PETON7-10 | 2026-09-05 23:35:26 | 48.22050 | 16.38719 | 128° | 53km/h | 1628m | 5.6m/s | 8.8°C | 65.2% | 0hPa | 2.9V | 00:00:00 | 00:00:00 | 00:00:00 | |
| OE3OSB-13 | 2026-09-05 23:35:23 | 48.22077 | 16.38672 | 134° | 58km/h | 1613m | 4.8m/s | 9.0°C | -1.0% | -1.0hPa | 2.9V | 00:00:00 | 00:00:00 | 00:00:00 | |
| OE3JTB-15 | 2026-09-05 23:35:20 | 48.22108 | 16.38625 | 132° | 53km/h | 1596m | 6.5m/s | 9.1°C | 62.7% | 0hPa | 2.9V | 00:00:00 | 00:00:00 | 08:30:00 | |
| OE3MUC-15 | 2026-09-05 23:35:20 | 48.22108 | 16.38625 | 132° | 55km/h | 1596m | 6.5m/s | 0°C | 0% | 0hPa | 2.9V | 00:00:00 | 00:00:00 | 00:00:00 | |
| OE3MUC-15 | 2026-09-05 23:35:16 | 48.22144 | 16.38565 | 136° | 49km/h | 1572m | 4.0m/s | 0°C | 0% | 0hPa | 2.9V | 00:00:00 | 00:00:00 | 08:30:00 | |
| OE3MUC-15 | 2026-09-05 23:35:12 | 48.22178 | 16.38510 | 132° | 58km/h | 1554m | 3.0m/s | 0°C | 0% | 0hPa | 2.9V | 00:00:00 | 00:00:00 | 00:00:00 | |
| PETON7-10 | 2026-09-05 23:35:11 | 48.22188 | 16.38494 | 133° | 55km/h | 1551m | 2.6m/s | 9.5°C | 60.0% | 0hPa | 2.9V | 00:00:00 | 00:19:36 | 00:00:00 | |
| OE3MUC-15 | 2026-09-05 23:35:08 | 48.22219 | 16.38445 | 134° | 58km/h | 1540m | 4.4m/s | 0°C | 0% | 0hPa | 2.9V | 00:00:00 | 00:00:00 | 00:00:00 | |
| OE3MUC-15 | 2026-09-05 23:35:04 | 48.22259 | 16.38382 | 135° | 49km/h | 1522m | 3.8m/s | 0°C | 0% | 0hPa | 2.9V | 00:00:00 | 00:00:00 | 00:00:00 | |
| OE3MUC-15 | 2026-09-05 23:34:58 | 48.22315 | 16.38311 | 140° | 55km/h | 1492m | 4.7m/s | 0°C | 0% | 0hPa | 2.9V | 00:00:00 | 00:00:00 | 00:00:00 | |
| PETON7-10 | 2026-09-05 23:34:56 | 48.22338 | 16.38286 | 147° | 53km/h | 1482m | 4.7m/s | 10.1°C | 57.4% | 0hPa | 2.9V | 00:00:00 | 00:00:00 | 08:30:00 | |
| OE3MUC-15 | 2026-09-05 23:34:54 | 48.22362 | 16.38264 | 150° | 53km/h | 1472m | 5.1m/s | 0°C | 0% | 0hPa | 2.9V | 00:00:00 | 00:00:00 | 00:00:00 | |
| OE3JTB-15 | 2026-09-05 23:34:51 | 48.22394 | 16.38228 | 140° | 47km/h | 1459m | 5.1m/s | 10.3°C | 56.6% | 0hPa | 2.9V | 00:00:00 | 00:00:00 | 00:00:00 | |
| OE3MUC-15 | 2026-09-05 23:34:50 | 48.22404 | 16.38214 | 139° | 58km/h | 1454m | 5.6m/s | 0°C | 0% | 0hPa | 2.9V | 00:00:00 | 00:00:00 | 00:00:00 | |
| OE3MUC-15 | 2026-09-05 23:34:46 | 48.22451 | 16.38158 | 142° | 51km/h | 1437m | 4.2m/s | 0°C | 0% | 0hPa | 2.9V | 00:00:00 | 00:00:00 | 00:00:00 | |
| OE3MUC-15 | 2026-09-05 23:34:42 | 48.22489 | 16.38110 | 144° | 42km/h | 1419m | 4.3m/s | 0°C | 0% | 0hPa | 2.9V | 00:00:00 | 00:00:00 | 00:00:00 | |
| PETON7-10 | 2026-09-05 23:34:41 | 48.22498 | 16.38101 | 148° | 44km/h | 1415m | 4.0m/s | 10.7°C | 55.4% | 0hPa | 2.9V | 00:00:00 | 00:00:00 | 00:00:00 | |
| OE3MUC-15 | 2026-09-05 23:34:38 | 48.22525 | 16.38078 | 149° | 47km/h | 1401m | 4.9m/s | 0°C | 0% | 0hPa | 2.9V | 00:00:00 | 00:00:00 | 00:00:00 | |
| OE3MUC-15 | 2026-09-05 23:34:31 | 48.22588 | 16.37996 | 136° | 42km/h | 1370m | 4.4m/s | 0°C | 0% | 0hPa | 2.9V | 00:00:00 | 00:00:00 | 00:00:00 | |
| OE3MUC-15 | 2026-09-05 23:34:27 | 48.22620 | 16.37956 | 141° | 47km/h | 1353m | 5.2m/s | 0°C | 0% | 0hPa | 2.9V | 00:00:00 | 00:00:00 | 00:00:00 | |
| PETON7-10 | 2026-09-05 23:34:26 | 48.22629 | 16.37944 | 140° | 44km/h | 1348m | 5.4m/s | 11.2°C | 56.0% | 0hPa | 2.9V | 00:00:00 | 00:18:51 | 00:00:00 | |
| OE3MUC-15 | 2026-09-05 23:34:23 | 48.22656 | 16.37909 | 140° | 46km/h | 1332m | 5.5m/s | 0°C | 0% | 0hPa | 2.9V | 00:00:00 | 00:00:00 | 00:00:00 | |
| OE3JTB-15 | 2026-09-05 23:34:22 | 48.22665 | 16.37899 | 146° | 44km/h | 1328m | 3.5m/s | 11.3°C | 55.5% | 0hPa | 2.9V | 00:00:00 | 00:18:47 | 00:00:00 | |
| PETON7-10 | 2026-09-05 23:34:11 | 48.22767 | 16.37806 | 138° | 46km/h | 1277m | 5.2m/s | 11.8°C | 55.9% | 0hPa | 2.9V | 00:00:00 | 00:00:00 | 00:00:00 | |
| PETON7-10 | 2026-09-05 23:33:56 | 48.22920 | 16.37696 | 142° | 44km/h | 1207m | 4.3m/s | 0°C | 0% | 0hPa | 2.9V | 00:00:00 | 00:00:00 | 00:00:00 | |
| OE3MUC-15 | 2026-09-05 23:33:54 | 48.22937 | 16.37673 | 137° | 44km/h | 1198m | 5.6m/s | 0°C | 0% | 0hPa | 2.9V | 00:00:00 | 00:00:00 | 00:00:00 | |
| OE3JTB-15 | 2026-09-05 23:33:53 | 48.22945 | 16.37663 | 138° | 46km/h | 1192m | 5.3m/s | 12.5°C | 54.6% | 0hPa | 2.9V | 00:00:00 | 00:00:00 | 00:00:00 | |
| OE3MUC-15 | 2026-09-05 23:33:48 | 48.22988 | 16.37618 | 146° | 44km/h | 1172m | 4.2m/s | 0°C | 0% | 0hPa | 2.9V | 00:00:00 | 00:00:00 | 00:00:00 | |
| PETON7-10 | 2026-09-05 23:33:41 | 48.23055 | 16.37555 | 160° | 46km/h | 1140m | 4.5m/s | 0°C | 0% | 0hPa | 2.9V | 00:00:00 | 00:18:06 | 00:00:00 | |
| PETON7-10 | 2026-09-05 23:33:26 | 48.23206 | 16.37425 | 142° | 44km/h | 1076m | 3.5m/s | 0°C | 0% | 0hPa | 2.9V | 00:00:00 | 00:00:00 | 00:00:00 | |
| OE3JTB-15 | 2026-09-05 23:33:24 | 48.23225 | 16.37404 | 146° | 46km/h | 1069m | 4.2m/s | 13.7°C | 52.0% | 0hPa | 2.9V | 00:00:00 | 00:00:00 | 00:00:00 | |
| PETON7-10 | 2026-09-05 23:33:11 | 48.23356 | 16.37320 | 151° | 49km/h | 1010m | 3.7m/s | 0°C | 0% | 0hPa | 2.9V | 00:00:00 | 00:00:00 | 00:00:00 | |
| PETON7-10 | 2026-09-05 23:32:56 | 48.23522 | 16.37204 | 152° | 42km/h | 938m | 5.3m/s | 0°C | 0% | 0hPa | 2.9V | 00:00:00 | 00:17:21 | 00:00:00 | |
| OE3JTB-15 | 2026-09-05 23:32:55 | 48.23533 | 16.37195 | 149° | 42km/h | 933m | 5.1m/s | 15.0°C | 48.0% | 0hPa | 2.9V | 00:00:00 | 00:17:20 | 00:00:00 | |
| PETON7-10 | 2026-09-05 23:32:41 | 48.23660 | 16.37094 | 148° | 44km/h | 868m | 4.4m/s | 0°C | 0% | 0hPa | 2.9V | 00:00:00 | 00:00:00 | 00:00:00 | |
| OE3JTB-15 | 2026-09-05 23:32:26 | 48.23797 | 16.36969 | 159° | 47km/h | 804m | 4.8m/s | 16.2°C | 45.1% | 0hPa | 2.9V | 00:00:00 | 00:00:00 | 00:00:00 | |
| OE3JTB-15 | 2026-09-05 23:31:57 | 48.24105 | 16.36718 | 145° | 47km/h | 676m | 6.5m/s | 17.5°C | 0% | 0hPa | 2.7V | 00:00:00 | 00:00:00 | 00:00:00 | |
| OE3JTB-15 | 2026-09-05 23:31:28 | 48.24402 | 16.36436 | 153° | 44km/h | 563m | 3.3m/s | 0°C | 0% | 0hPa | 2.7V | 00:00:00 | 00:15:53 | 00:00:00 | |
| OE3JTB-15 | 2026-09-05 23:30:59 | 48.24664 | 16.36163 | 150° | 33km/h | 471m | 4.1m/s | 0°C | 0% | 0hPa | 2.7V | 00:00:00 | 00:00:00 | 00:00:00 |